<?xml version="1.0" encoding="UTF-8"?>
<gpx
  version="1.0"
  creator="GPSBabel - http://www.gpsbabel.org"
  xmlns:xsi="http://www.w3.org/2001/XMLSchema-instance"
  xmlns="http://www.topografix.com/GPX/1/0"
  xsi:schemaLocation="http://www.topografix.com/GPX/1/0 http://www.topografix.com/GPX/1/0/gpx.xsd">
<time>2011-07-15T15:36:27Z</time>
<bounds minlat="32.704730988" minlon="34.994400024" maxlat="32.751426697" maxlon="35.041606903"/>
<trk>
  <name>Holux2011/07/15_06:36</name>
<trkseg>
<trkpt lat="32.732837677" lon="35.014324188">
  <ele>370.080566</ele>
  <time>2011-07-15T03:36:34Z</time>
  <speed>0.290000</speed>
</trkpt>
<trkpt lat="32.732837677" lon="35.014305115">
  <ele>372.916504</ele>
  <time>2011-07-15T03:36:52Z</time>
</trkpt>
<trkpt lat="32.732868195" lon="35.014293671">
  <ele>373.572754</ele>
  <time>2011-07-15T03:37:07Z</time>
  <speed>0.580000</speed>
</trkpt>
<trkpt lat="32.732894897" lon="35.014297485">
  <ele>373.752441</ele>
  <time>2011-07-15T03:37:17Z</time>
  <speed>0.070000</speed>
</trkpt>
<trkpt lat="32.732921600" lon="35.014308929">
  <ele>373.729004</ele>
  <time>2011-07-15T03:37:23Z</time>
  <speed>1.490000</speed>
</trkpt>
<trkpt lat="32.732963562" lon="35.014308929">
  <ele>374.010254</ele>
  <time>2011-07-15T03:37:26Z</time>
  <speed>1.280000</speed>
</trkpt>
<trkpt lat="32.732994080" lon="35.014305115">
  <ele>375.439941</ele>
  <time>2011-07-15T03:37:29Z</time>
  <speed>1.210000</speed>
</trkpt>
<trkpt lat="32.733013153" lon="35.014274597">
  <ele>375.799316</ele>
  <time>2011-07-15T03:37:31Z</time>
  <speed>1.120000</speed>
</trkpt>
<trkpt lat="32.733009338" lon="35.014244080">
  <ele>377.432129</ele>
  <time>2011-07-15T03:37:36Z</time>
  <speed>0.210000</speed>
</trkpt>
<trkpt lat="32.732997894" lon="35.014217377">
  <ele>378.885254</ele>
  <time>2011-07-15T03:37:45Z</time>
  <speed>0.220000</speed>
</trkpt>
<trkpt lat="32.732986450" lon="35.014194489">
  <ele>380.533691</ele>
  <time>2011-07-15T03:38:09Z</time>
  <speed>0.110000</speed>
</trkpt>
<trkpt lat="32.732990265" lon="35.014175415">
  <ele>377.955566</ele>
  <time>2011-07-15T03:38:33Z</time>
  <speed>0.220000</speed>
</trkpt>
<trkpt lat="32.733005524" lon="35.014194489">
  <ele>375.604004</ele>
  <time>2011-07-15T03:38:43Z</time>
  <speed>0.160000</speed>
</trkpt>
<trkpt lat="32.733013153" lon="35.014205933">
  <ele>372.830566</ele>
  <time>2011-07-15T03:38:58Z</time>
  <speed>0.050000</speed>
</trkpt>
<trkpt lat="32.733013153" lon="35.014213562">
  <ele>369.885254</ele>
  <time>2011-07-15T03:39:18Z</time>
  <speed>0.080000</speed>
</trkpt>
<trkpt lat="32.733051300" lon="35.014247894">
  <ele>369.932129</ele>
  <time>2011-07-15T03:39:51Z</time>
  <speed>2.160000</speed>
</trkpt>
<trkpt lat="32.733104706" lon="35.014259338">
  <ele>370.650879</ele>
  <time>2011-07-15T03:39:53Z</time>
  <speed>2.880000</speed>
</trkpt>
<trkpt lat="32.733139038" lon="35.014266968">
  <ele>370.986816</ele>
  <time>2011-07-15T03:39:54Z</time>
  <speed>3.370000</speed>
</trkpt>
<trkpt lat="32.733173370" lon="35.014270782">
  <ele>371.666504</ele>
  <time>2011-07-15T03:39:55Z</time>
  <speed>3.740000</speed>
</trkpt>
<trkpt lat="32.733211517" lon="35.014263153">
  <ele>371.268066</ele>
  <time>2011-07-15T03:39:56Z</time>
  <speed>3.910000</speed>
</trkpt>
<trkpt lat="32.733253479" lon="35.014255524">
  <ele>371.604004</ele>
  <time>2011-07-15T03:39:57Z</time>
  <speed>4.170000</speed>
</trkpt>
<trkpt lat="32.733291626" lon="35.014247894">
  <ele>371.494629</ele>
  <time>2011-07-15T03:39:58Z</time>
  <speed>4.380000</speed>
</trkpt>
<trkpt lat="32.733329773" lon="35.014236450">
  <ele>371.604004</ele>
  <time>2011-07-15T03:39:59Z</time>
  <speed>3.920000</speed>
</trkpt>
<trkpt lat="32.733367920" lon="35.014221191">
  <ele>371.604004</ele>
  <time>2011-07-15T03:40:00Z</time>
  <speed>3.940000</speed>
</trkpt>
<trkpt lat="32.733406067" lon="35.014217377">
  <ele>371.736816</ele>
  <time>2011-07-15T03:40:01Z</time>
  <speed>4.280000</speed>
</trkpt>
<trkpt lat="32.733444214" lon="35.014209747">
  <ele>371.416504</ele>
  <time>2011-07-15T03:40:02Z</time>
  <speed>4.610000</speed>
</trkpt>
<trkpt lat="32.733489990" lon="35.014202118">
  <ele>370.986816</ele>
  <time>2011-07-15T03:40:03Z</time>
  <speed>5.160000</speed>
</trkpt>
<trkpt lat="32.733535767" lon="35.014186859">
  <ele>371.252441</ele>
  <time>2011-07-15T03:40:04Z</time>
  <speed>5.380000</speed>
</trkpt>
<trkpt lat="32.733581543" lon="35.014167786">
  <ele>371.502441</ele>
  <time>2011-07-15T03:40:05Z</time>
  <speed>5.830000</speed>
</trkpt>
<trkpt lat="32.733634949" lon="35.014148712">
  <ele>371.104004</ele>
  <time>2011-07-15T03:40:06Z</time>
  <speed>5.950000</speed>
</trkpt>
<trkpt lat="32.733692169" lon="35.014133453">
  <ele>370.916504</ele>
  <time>2011-07-15T03:40:07Z</time>
  <speed>6.310000</speed>
</trkpt>
<trkpt lat="32.733745575" lon="35.014114380">
  <ele>370.557129</ele>
  <time>2011-07-15T03:40:08Z</time>
  <speed>6.380000</speed>
</trkpt>
<trkpt lat="32.733802795" lon="35.014091492">
  <ele>370.416504</ele>
  <time>2011-07-15T03:40:09Z</time>
  <speed>6.160000</speed>
</trkpt>
<trkpt lat="32.733852386" lon="35.014060974">
  <ele>370.494629</ele>
  <time>2011-07-15T03:40:10Z</time>
  <speed>6.210000</speed>
</trkpt>
<trkpt lat="32.733901978" lon="35.014026642">
  <ele>370.205566</ele>
  <time>2011-07-15T03:40:11Z</time>
  <speed>6.480000</speed>
</trkpt>
<trkpt lat="32.733951569" lon="35.013988495">
  <ele>370.166504</ele>
  <time>2011-07-15T03:40:12Z</time>
  <speed>7.000000</speed>
</trkpt>
<trkpt lat="32.734004974" lon="35.013946533">
  <ele>369.299316</ele>
  <time>2011-07-15T03:40:13Z</time>
  <speed>6.890000</speed>
</trkpt>
<trkpt lat="32.734062195" lon="35.013908386">
  <ele>369.158691</ele>
  <time>2011-07-15T03:40:14Z</time>
  <speed>7.300000</speed>
</trkpt>
<trkpt lat="32.734123230" lon="35.013877869">
  <ele>369.260254</ele>
  <time>2011-07-15T03:40:15Z</time>
  <speed>7.100000</speed>
</trkpt>
<trkpt lat="32.734180450" lon="35.013854980">
  <ele>370.080566</ele>
  <time>2011-07-15T03:40:16Z</time>
  <speed>7.050000</speed>
</trkpt>
<trkpt lat="32.734245300" lon="35.013839722">
  <ele>368.908691</ele>
  <time>2011-07-15T03:40:17Z</time>
  <speed>6.650000</speed>
</trkpt>
<trkpt lat="32.734298706" lon="35.013813019">
  <ele>368.877441</ele>
  <time>2011-07-15T03:40:18Z</time>
  <speed>6.650000</speed>
</trkpt>
<trkpt lat="32.734355927" lon="35.013782501">
  <ele>368.455566</ele>
  <time>2011-07-15T03:40:19Z</time>
  <speed>6.420000</speed>
</trkpt>
<trkpt lat="32.734405518" lon="35.013744354">
  <ele>368.744629</ele>
  <time>2011-07-15T03:40:20Z</time>
  <speed>6.030000</speed>
</trkpt>
<trkpt lat="32.734455109" lon="35.013710022">
  <ele>368.869629</ele>
  <time>2011-07-15T03:40:21Z</time>
  <speed>6.380000</speed>
</trkpt>
<trkpt lat="32.734508514" lon="35.013675690">
  <ele>369.166504</ele>
  <time>2011-07-15T03:40:22Z</time>
  <speed>6.030000</speed>
</trkpt>
<trkpt lat="32.734561920" lon="35.013641357">
  <ele>369.338379</ele>
  <time>2011-07-15T03:40:23Z</time>
  <speed>5.710000</speed>
</trkpt>
<trkpt lat="32.734600067" lon="35.013610840">
  <ele>369.705566</ele>
  <time>2011-07-15T03:40:24Z</time>
  <speed>5.590000</speed>
</trkpt>
<trkpt lat="32.734642029" lon="35.013576508">
  <ele>370.416504</ele>
  <time>2011-07-15T03:40:25Z</time>
  <speed>5.250000</speed>
</trkpt>
<trkpt lat="32.734683990" lon="35.013553619">
  <ele>370.783691</ele>
  <time>2011-07-15T03:40:26Z</time>
  <speed>5.190000</speed>
</trkpt>
<trkpt lat="32.734725952" lon="35.013523102">
  <ele>370.541504</ele>
  <time>2011-07-15T03:40:27Z</time>
  <speed>5.050000</speed>
</trkpt>
<trkpt lat="32.734760284" lon="35.013492584">
  <ele>371.135254</ele>
  <time>2011-07-15T03:40:28Z</time>
  <speed>4.700000</speed>
</trkpt>
<trkpt lat="32.734794617" lon="35.013462067">
  <ele>371.322754</ele>
  <time>2011-07-15T03:40:29Z</time>
  <speed>4.420000</speed>
</trkpt>
<trkpt lat="32.734828949" lon="35.013435364">
  <ele>371.416504</ele>
  <time>2011-07-15T03:40:30Z</time>
  <speed>4.390000</speed>
</trkpt>
<trkpt lat="32.734863281" lon="35.013404846">
  <ele>371.299316</ele>
  <time>2011-07-15T03:40:31Z</time>
  <speed>4.100000</speed>
</trkpt>
<trkpt lat="32.734889984" lon="35.013374329">
  <ele>371.518066</ele>
  <time>2011-07-15T03:40:32Z</time>
  <speed>4.150000</speed>
</trkpt>
<trkpt lat="32.734920502" lon="35.013351440">
  <ele>372.002441</ele>
  <time>2011-07-15T03:40:33Z</time>
  <speed>4.130000</speed>
</trkpt>
<trkpt lat="32.734954834" lon="35.013328552">
  <ele>372.221191</ele>
  <time>2011-07-15T03:40:34Z</time>
  <speed>4.270000</speed>
</trkpt>
<trkpt lat="32.734989166" lon="35.013301849">
  <ele>372.689941</ele>
  <time>2011-07-15T03:40:35Z</time>
  <speed>4.130000</speed>
</trkpt>
<trkpt lat="32.735015869" lon="35.013275146">
  <ele>372.525879</ele>
  <time>2011-07-15T03:40:36Z</time>
  <speed>3.880000</speed>
</trkpt>
<trkpt lat="32.735046387" lon="35.013248444">
  <ele>372.893066</ele>
  <time>2011-07-15T03:40:37Z</time>
  <speed>3.910000</speed>
</trkpt>
<trkpt lat="32.735076904" lon="35.013225555">
  <ele>373.338379</ele>
  <time>2011-07-15T03:40:38Z</time>
  <speed>4.050000</speed>
</trkpt>
<trkpt lat="32.735107422" lon="35.013206482">
  <ele>373.572754</ele>
  <time>2011-07-15T03:40:39Z</time>
  <speed>3.750000</speed>
</trkpt>
<trkpt lat="32.735141754" lon="35.013195038">
  <ele>373.908691</ele>
  <time>2011-07-15T03:40:40Z</time>
  <speed>3.910000</speed>
</trkpt>
<trkpt lat="32.735168457" lon="35.013191223">
  <ele>374.354004</ele>
  <time>2011-07-15T03:40:41Z</time>
  <speed>3.640000</speed>
</trkpt>
<trkpt lat="32.735202789" lon="35.013191223">
  <ele>374.338379</ele>
  <time>2011-07-15T03:40:42Z</time>
  <speed>3.450000</speed>
</trkpt>
<trkpt lat="32.735233307" lon="35.013202667">
  <ele>373.908691</ele>
  <time>2011-07-15T03:40:43Z</time>
  <speed>3.530000</speed>
</trkpt>
<trkpt lat="32.735286713" lon="35.013217926">
  <ele>374.025879</ele>
  <time>2011-07-15T03:40:45Z</time>
  <speed>3.300000</speed>
</trkpt>
<trkpt lat="32.735321045" lon="35.013229370">
  <ele>372.807129</ele>
  <time>2011-07-15T03:40:46Z</time>
  <speed>3.010000</speed>
</trkpt>
<trkpt lat="32.735374451" lon="35.013233185">
  <ele>372.158691</ele>
  <time>2011-07-15T03:40:48Z</time>
  <speed>3.040000</speed>
</trkpt>
<trkpt lat="32.735427856" lon="35.013206482">
  <ele>371.822754</ele>
  <time>2011-07-15T03:40:50Z</time>
  <speed>3.470000</speed>
</trkpt>
<trkpt lat="32.735454559" lon="35.013187408">
  <ele>371.072754</ele>
  <time>2011-07-15T03:40:51Z</time>
  <speed>3.960000</speed>
</trkpt>
<trkpt lat="32.735481262" lon="35.013164520">
  <ele>370.682129</ele>
  <time>2011-07-15T03:40:52Z</time>
  <speed>4.710000</speed>
</trkpt>
<trkpt lat="32.735515594" lon="35.013137817">
  <ele>370.314941</ele>
  <time>2011-07-15T03:40:53Z</time>
  <speed>4.260000</speed>
</trkpt>
<trkpt lat="32.735553741" lon="35.013111115">
  <ele>369.932129</ele>
  <time>2011-07-15T03:40:54Z</time>
  <speed>4.850000</speed>
</trkpt>
<trkpt lat="32.735595703" lon="35.013088226">
  <ele>369.354004</ele>
  <time>2011-07-15T03:40:55Z</time>
  <speed>4.940000</speed>
</trkpt>
<trkpt lat="32.735641479" lon="35.013076782">
  <ele>369.096191</ele>
  <time>2011-07-15T03:40:56Z</time>
  <speed>5.380000</speed>
</trkpt>
<trkpt lat="32.735687256" lon="35.013084412">
  <ele>368.213379</ele>
  <time>2011-07-15T03:40:57Z</time>
  <speed>5.060000</speed>
</trkpt>
<trkpt lat="32.735729218" lon="35.013092041">
  <ele>368.111816</ele>
  <time>2011-07-15T03:40:58Z</time>
  <speed>5.190000</speed>
</trkpt>
<trkpt lat="32.735786438" lon="35.013111115">
  <ele>367.518066</ele>
  <time>2011-07-15T03:40:59Z</time>
  <speed>5.950000</speed>
</trkpt>
<trkpt lat="32.735839844" lon="35.013118744">
  <ele>367.330566</ele>
  <time>2011-07-15T03:41:00Z</time>
  <speed>5.390000</speed>
</trkpt>
<trkpt lat="32.735881805" lon="35.013130188">
  <ele>368.002441</ele>
  <time>2011-07-15T03:41:01Z</time>
  <speed>5.050000</speed>
</trkpt>
<trkpt lat="32.735931396" lon="35.013137817">
  <ele>368.674316</ele>
  <time>2011-07-15T03:41:02Z</time>
  <speed>5.730000</speed>
</trkpt>
<trkpt lat="32.735980988" lon="35.013149261">
  <ele>369.518066</ele>
  <time>2011-07-15T03:41:03Z</time>
  <speed>6.070000</speed>
</trkpt>
<trkpt lat="32.736038208" lon="35.013156891">
  <ele>369.752441</ele>
  <time>2011-07-15T03:41:04Z</time>
  <speed>6.010000</speed>
</trkpt>
<trkpt lat="32.736099243" lon="35.013172150">
  <ele>367.361816</ele>
  <time>2011-07-15T03:41:05Z</time>
  <speed>6.230000</speed>
</trkpt>
<trkpt lat="32.736148834" lon="35.013198853">
  <ele>366.885254</ele>
  <time>2011-07-15T03:41:06Z</time>
  <speed>5.570000</speed>
</trkpt>
<trkpt lat="32.736198425" lon="35.013233185">
  <ele>366.666504</ele>
  <time>2011-07-15T03:41:07Z</time>
  <speed>6.220000</speed>
</trkpt>
<trkpt lat="32.736244202" lon="35.013267517">
  <ele>366.268066</ele>
  <time>2011-07-15T03:41:08Z</time>
  <speed>5.630000</speed>
</trkpt>
<trkpt lat="32.736286163" lon="35.013286591">
  <ele>365.900879</ele>
  <time>2011-07-15T03:41:09Z</time>
  <speed>5.200000</speed>
</trkpt>
<trkpt lat="32.736339569" lon="35.013313293">
  <ele>364.611816</ele>
  <time>2011-07-15T03:41:10Z</time>
  <speed>5.980000</speed>
</trkpt>
<trkpt lat="32.736400604" lon="35.013332367">
  <ele>364.033691</ele>
  <time>2011-07-15T03:41:11Z</time>
  <speed>6.820000</speed>
</trkpt>
<trkpt lat="32.736454010" lon="35.013362885">
  <ele>363.986816</ele>
  <time>2011-07-15T03:41:12Z</time>
  <speed>6.740000</speed>
</trkpt>
<trkpt lat="32.736515045" lon="35.013381958">
  <ele>364.283691</ele>
  <time>2011-07-15T03:41:13Z</time>
  <speed>7.110000</speed>
</trkpt>
<trkpt lat="32.736576080" lon="35.013412476">
  <ele>363.736816</ele>
  <time>2011-07-15T03:41:14Z</time>
  <speed>7.760000</speed>
</trkpt>
<trkpt lat="32.736637115" lon="35.013446808">
  <ele>362.479004</ele>
  <time>2011-07-15T03:41:15Z</time>
  <speed>7.060000</speed>
</trkpt>
<trkpt lat="32.736694336" lon="35.013492584">
  <ele>360.814941</ele>
  <time>2011-07-15T03:41:16Z</time>
  <speed>6.890000</speed>
</trkpt>
<trkpt lat="32.736740112" lon="35.013534546">
  <ele>361.236816</ele>
  <time>2011-07-15T03:41:17Z</time>
  <speed>6.810000</speed>
</trkpt>
<trkpt lat="32.736789703" lon="35.013584137">
  <ele>361.533691</ele>
  <time>2011-07-15T03:41:18Z</time>
  <speed>7.440000</speed>
</trkpt>
<trkpt lat="32.736843109" lon="35.013645172">
  <ele>360.354004</ele>
  <time>2011-07-15T03:41:19Z</time>
  <speed>7.140000</speed>
</trkpt>
<trkpt lat="32.736888885" lon="35.013694763">
  <ele>359.979004</ele>
  <time>2011-07-15T03:41:20Z</time>
  <speed>6.260000</speed>
</trkpt>
<trkpt lat="32.736934662" lon="35.013736725">
  <ele>359.361816</ele>
  <time>2011-07-15T03:41:21Z</time>
  <speed>6.530000</speed>
</trkpt>
<trkpt lat="32.736980438" lon="35.013774872">
  <ele>358.213379</ele>
  <time>2011-07-15T03:41:22Z</time>
  <speed>6.510000</speed>
</trkpt>
<trkpt lat="32.737022400" lon="35.013816833">
  <ele>357.643066</ele>
  <time>2011-07-15T03:41:23Z</time>
  <speed>6.650000</speed>
</trkpt>
<trkpt lat="32.737079620" lon="35.013851166">
  <ele>356.955566</ele>
  <time>2011-07-15T03:41:24Z</time>
  <speed>6.600000</speed>
</trkpt>
<trkpt lat="32.737136841" lon="35.013881683">
  <ele>356.260254</ele>
  <time>2011-07-15T03:41:25Z</time>
  <speed>6.420000</speed>
</trkpt>
<trkpt lat="32.737194061" lon="35.013912201">
  <ele>355.182129</ele>
  <time>2011-07-15T03:41:26Z</time>
  <speed>6.640000</speed>
</trkpt>
<trkpt lat="32.737243652" lon="35.013961792">
  <ele>353.002441</ele>
  <time>2011-07-15T03:41:27Z</time>
  <speed>8.010000</speed>
</trkpt>
<trkpt lat="32.737277985" lon="35.014022827">
  <ele>353.041504</ele>
  <time>2011-07-15T03:41:28Z</time>
  <speed>6.630000</speed>
</trkpt>
<trkpt lat="32.737308502" lon="35.014087677">
  <ele>352.408691</ele>
  <time>2011-07-15T03:41:29Z</time>
  <speed>6.970000</speed>
</trkpt>
<trkpt lat="32.737346649" lon="35.014156342">
  <ele>352.275879</ele>
  <time>2011-07-15T03:41:30Z</time>
  <speed>7.390000</speed>
</trkpt>
<trkpt lat="32.737384796" lon="35.014209747">
  <ele>352.549316</ele>
  <time>2011-07-15T03:41:31Z</time>
  <speed>6.410000</speed>
</trkpt>
<trkpt lat="32.737430573" lon="35.014259338">
  <ele>352.221191</ele>
  <time>2011-07-15T03:41:32Z</time>
  <speed>6.780000</speed>
</trkpt>
<trkpt lat="32.737468719" lon="35.014312744">
  <ele>351.736816</ele>
  <time>2011-07-15T03:41:33Z</time>
  <speed>6.190000</speed>
</trkpt>
<trkpt lat="32.737503052" lon="35.014358521">
  <ele>350.557129</ele>
  <time>2011-07-15T03:41:34Z</time>
  <speed>5.530000</speed>
</trkpt>
<trkpt lat="32.737529755" lon="35.014411926">
  <ele>350.658691</ele>
  <time>2011-07-15T03:41:35Z</time>
  <speed>5.160000</speed>
</trkpt>
<trkpt lat="32.737548828" lon="35.014461517">
  <ele>350.447754</ele>
  <time>2011-07-15T03:41:36Z</time>
  <speed>4.750000</speed>
</trkpt>
<trkpt lat="32.737567902" lon="35.014507294">
  <ele>350.260254</ele>
  <time>2011-07-15T03:41:37Z</time>
  <speed>4.880000</speed>
</trkpt>
<trkpt lat="32.737594604" lon="35.014553070">
  <ele>350.189941</ele>
  <time>2011-07-15T03:41:38Z</time>
  <speed>5.540000</speed>
</trkpt>
<trkpt lat="32.737625122" lon="35.014602661">
  <ele>350.205566</ele>
  <time>2011-07-15T03:41:39Z</time>
  <speed>5.310000</speed>
</trkpt>
<trkpt lat="32.737651825" lon="35.014644623">
  <ele>350.455566</ele>
  <time>2011-07-15T03:41:40Z</time>
  <speed>4.600000</speed>
</trkpt>
<trkpt lat="32.737682343" lon="35.014678955">
  <ele>350.932129</ele>
  <time>2011-07-15T03:41:41Z</time>
  <speed>5.280000</speed>
</trkpt>
<trkpt lat="32.737709045" lon="35.014717102">
  <ele>351.447754</ele>
  <time>2011-07-15T03:41:42Z</time>
  <speed>5.490000</speed>
</trkpt>
<trkpt lat="32.737743378" lon="35.014762878">
  <ele>352.604004</ele>
  <time>2011-07-15T03:41:43Z</time>
  <speed>5.450000</speed>
</trkpt>
<trkpt lat="32.737770081" lon="35.014808655">
  <ele>353.291504</ele>
  <time>2011-07-15T03:41:44Z</time>
  <speed>5.130000</speed>
</trkpt>
<trkpt lat="32.737804413" lon="35.014854431">
  <ele>353.041504</ele>
  <time>2011-07-15T03:41:45Z</time>
  <speed>5.320000</speed>
</trkpt>
<trkpt lat="32.737834930" lon="35.014892578">
  <ele>352.775879</ele>
  <time>2011-07-15T03:41:46Z</time>
  <speed>4.720000</speed>
</trkpt>
<trkpt lat="32.737865448" lon="35.014919281">
  <ele>353.049316</ele>
  <time>2011-07-15T03:41:47Z</time>
  <speed>4.610000</speed>
</trkpt>
<trkpt lat="32.737899780" lon="35.014945984">
  <ele>352.924316</ele>
  <time>2011-07-15T03:41:48Z</time>
  <speed>4.740000</speed>
</trkpt>
<trkpt lat="32.737941742" lon="35.014976501">
  <ele>352.893066</ele>
  <time>2011-07-15T03:41:49Z</time>
  <speed>5.210000</speed>
</trkpt>
<trkpt lat="32.737979889" lon="35.014999390">
  <ele>352.869629</ele>
  <time>2011-07-15T03:41:50Z</time>
  <speed>4.810000</speed>
</trkpt>
<trkpt lat="32.738014221" lon="35.015033722">
  <ele>352.580566</ele>
  <time>2011-07-15T03:41:51Z</time>
  <speed>4.860000</speed>
</trkpt>
<trkpt lat="32.738044739" lon="35.015071869">
  <ele>352.955566</ele>
  <time>2011-07-15T03:41:52Z</time>
  <speed>4.580000</speed>
</trkpt>
<trkpt lat="32.738071442" lon="35.015110016">
  <ele>352.822754</ele>
  <time>2011-07-15T03:41:53Z</time>
  <speed>4.480000</speed>
</trkpt>
<trkpt lat="32.738098145" lon="35.015148163">
  <ele>354.338379</ele>
  <time>2011-07-15T03:41:54Z</time>
  <speed>4.310000</speed>
</trkpt>
<trkpt lat="32.738124847" lon="35.015178680">
  <ele>354.900879</ele>
  <time>2011-07-15T03:41:55Z</time>
  <speed>4.020000</speed>
</trkpt>
<trkpt lat="32.738151550" lon="35.015209198">
  <ele>355.197754</ele>
  <time>2011-07-15T03:41:56Z</time>
  <speed>3.540000</speed>
</trkpt>
<trkpt lat="32.738170624" lon="35.015232086">
  <ele>355.057129</ele>
  <time>2011-07-15T03:41:57Z</time>
  <speed>3.150000</speed>
</trkpt>
<trkpt lat="32.738193512" lon="35.015254974">
  <ele>355.158691</ele>
  <time>2011-07-15T03:41:58Z</time>
  <speed>3.290000</speed>
</trkpt>
<trkpt lat="32.738220215" lon="35.015270233">
  <ele>355.596191</ele>
  <time>2011-07-15T03:41:59Z</time>
  <speed>3.570000</speed>
</trkpt>
<trkpt lat="32.738250732" lon="35.015293121">
  <ele>356.104004</ele>
  <time>2011-07-15T03:42:00Z</time>
  <speed>3.480000</speed>
</trkpt>
<trkpt lat="32.738281250" lon="35.015308380">
  <ele>356.135254</ele>
  <time>2011-07-15T03:42:01Z</time>
  <speed>3.740000</speed>
</trkpt>
<trkpt lat="32.738307953" lon="35.015331268">
  <ele>355.268066</ele>
  <time>2011-07-15T03:42:02Z</time>
  <speed>4.020000</speed>
</trkpt>
<trkpt lat="32.738338470" lon="35.015361786">
  <ele>354.908691</ele>
  <time>2011-07-15T03:42:03Z</time>
  <speed>3.670000</speed>
</trkpt>
<trkpt lat="32.738368988" lon="35.015388489">
  <ele>355.010254</ele>
  <time>2011-07-15T03:42:04Z</time>
  <speed>3.440000</speed>
</trkpt>
<trkpt lat="32.738391876" lon="35.015411377">
  <ele>355.072754</ele>
  <time>2011-07-15T03:42:05Z</time>
  <speed>3.520000</speed>
</trkpt>
<trkpt lat="32.738426208" lon="35.015441895">
  <ele>354.744629</ele>
  <time>2011-07-15T03:42:06Z</time>
  <speed>3.150000</speed>
</trkpt>
<trkpt lat="32.738445282" lon="35.015464783">
  <ele>354.947754</ele>
  <time>2011-07-15T03:42:07Z</time>
  <speed>3.310000</speed>
</trkpt>
<trkpt lat="32.738460541" lon="35.015491486">
  <ele>355.580566</ele>
  <time>2011-07-15T03:42:08Z</time>
  <speed>3.500000</speed>
</trkpt>
<trkpt lat="32.738475800" lon="35.015522003">
  <ele>355.939941</ele>
  <time>2011-07-15T03:42:09Z</time>
  <speed>3.310000</speed>
</trkpt>
<trkpt lat="32.738494873" lon="35.015579224">
  <ele>355.752441</ele>
  <time>2011-07-15T03:42:11Z</time>
  <speed>3.070000</speed>
</trkpt>
<trkpt lat="32.738506317" lon="35.015609741">
  <ele>355.846191</ele>
  <time>2011-07-15T03:42:12Z</time>
  <speed>3.220000</speed>
</trkpt>
<trkpt lat="32.738540649" lon="35.015666962">
  <ele>356.963379</ele>
  <time>2011-07-15T03:42:14Z</time>
  <speed>3.210000</speed>
</trkpt>
<trkpt lat="32.738555908" lon="35.015693665">
  <ele>357.322754</ele>
  <time>2011-07-15T03:42:15Z</time>
  <speed>3.780000</speed>
</trkpt>
<trkpt lat="32.738574982" lon="35.015720367">
  <ele>357.080566</ele>
  <time>2011-07-15T03:42:16Z</time>
  <speed>4.080000</speed>
</trkpt>
<trkpt lat="32.738594055" lon="35.015739441">
  <ele>356.689941</ele>
  <time>2011-07-15T03:42:17Z</time>
  <speed>3.250000</speed>
</trkpt>
<trkpt lat="32.738613129" lon="35.015769958">
  <ele>356.557129</ele>
  <time>2011-07-15T03:42:18Z</time>
  <speed>3.090000</speed>
</trkpt>
<trkpt lat="32.738628387" lon="35.015800476">
  <ele>355.635254</ele>
  <time>2011-07-15T03:42:19Z</time>
  <speed>3.480000</speed>
</trkpt>
<trkpt lat="32.738643646" lon="35.015830994">
  <ele>355.471191</ele>
  <time>2011-07-15T03:42:20Z</time>
  <speed>3.420000</speed>
</trkpt>
<trkpt lat="32.738655090" lon="35.015872955">
  <ele>355.596191</ele>
  <time>2011-07-15T03:42:21Z</time>
  <speed>3.410000</speed>
</trkpt>
<trkpt lat="32.738666534" lon="35.015907288">
  <ele>356.174316</ele>
  <time>2011-07-15T03:42:22Z</time>
  <speed>3.580000</speed>
</trkpt>
<trkpt lat="32.738681793" lon="35.015941620">
  <ele>355.893066</ele>
  <time>2011-07-15T03:42:23Z</time>
  <speed>3.120000</speed>
</trkpt>
<trkpt lat="32.738693237" lon="35.015972137">
  <ele>356.463379</ele>
  <time>2011-07-15T03:42:24Z</time>
  <speed>3.060000</speed>
</trkpt>
<trkpt lat="32.738700867" lon="35.016002655">
  <ele>356.377441</ele>
  <time>2011-07-15T03:42:25Z</time>
  <speed>2.950000</speed>
</trkpt>
<trkpt lat="32.738716125" lon="35.016033173">
  <ele>356.549316</ele>
  <time>2011-07-15T03:42:26Z</time>
  <speed>2.870000</speed>
</trkpt>
<trkpt lat="32.738731384" lon="35.016059875">
  <ele>356.416504</ele>
  <time>2011-07-15T03:42:27Z</time>
  <speed>3.120000</speed>
</trkpt>
<trkpt lat="32.738754272" lon="35.016090393">
  <ele>355.619629</ele>
  <time>2011-07-15T03:42:28Z</time>
  <speed>3.500000</speed>
</trkpt>
<trkpt lat="32.738777161" lon="35.016136169">
  <ele>355.182129</ele>
  <time>2011-07-15T03:42:30Z</time>
  <speed>3.750000</speed>
</trkpt>
<trkpt lat="32.738807678" lon="35.016170502">
  <ele>354.486816</ele>
  <time>2011-07-15T03:42:31Z</time>
  <speed>4.010000</speed>
</trkpt>
<trkpt lat="32.738830566" lon="35.016204834">
  <ele>353.846191</ele>
  <time>2011-07-15T03:42:32Z</time>
  <speed>4.020000</speed>
</trkpt>
<trkpt lat="32.738853455" lon="35.016242981">
  <ele>353.596191</ele>
  <time>2011-07-15T03:42:33Z</time>
  <speed>4.270000</speed>
</trkpt>
<trkpt lat="32.738880157" lon="35.016281128">
  <ele>353.064941</ele>
  <time>2011-07-15T03:42:34Z</time>
  <speed>4.310000</speed>
</trkpt>
<trkpt lat="32.738891602" lon="35.016323090">
  <ele>353.791504</ele>
  <time>2011-07-15T03:42:35Z</time>
  <speed>4.080000</speed>
</trkpt>
<trkpt lat="32.738906860" lon="35.016357422">
  <ele>354.455566</ele>
  <time>2011-07-15T03:42:36Z</time>
  <speed>4.130000</speed>
</trkpt>
<trkpt lat="32.738941193" lon="35.016395569">
  <ele>354.291504</ele>
  <time>2011-07-15T03:42:37Z</time>
  <speed>4.460000</speed>
</trkpt>
<trkpt lat="32.738967896" lon="35.016422272">
  <ele>354.150879</ele>
  <time>2011-07-15T03:42:38Z</time>
  <speed>3.630000</speed>
</trkpt>
<trkpt lat="32.738986969" lon="35.016452789">
  <ele>354.064941</ele>
  <time>2011-07-15T03:42:39Z</time>
  <speed>3.500000</speed>
</trkpt>
<trkpt lat="32.739013672" lon="35.016483307">
  <ele>354.182129</ele>
  <time>2011-07-15T03:42:40Z</time>
  <speed>3.570000</speed>
</trkpt>
<trkpt lat="32.739048004" lon="35.016510010">
  <ele>354.861816</ele>
  <time>2011-07-15T03:42:41Z</time>
  <speed>3.270000</speed>
</trkpt>
<trkpt lat="32.739070892" lon="35.016536713">
  <ele>354.713379</ele>
  <time>2011-07-15T03:42:42Z</time>
  <speed>3.240000</speed>
</trkpt>
<trkpt lat="32.739089966" lon="35.016559601">
  <ele>355.166504</ele>
  <time>2011-07-15T03:42:43Z</time>
  <speed>3.650000</speed>
</trkpt>
<trkpt lat="32.739112854" lon="35.016586304">
  <ele>355.768066</ele>
  <time>2011-07-15T03:42:44Z</time>
  <speed>3.660000</speed>
</trkpt>
<trkpt lat="32.739143372" lon="35.016609192">
  <ele>355.744629</ele>
  <time>2011-07-15T03:42:45Z</time>
  <speed>3.280000</speed>
</trkpt>
<trkpt lat="32.739170074" lon="35.016628265">
  <ele>355.314941</ele>
  <time>2011-07-15T03:42:46Z</time>
  <speed>3.240000</speed>
</trkpt>
<trkpt lat="32.739192963" lon="35.016647339">
  <ele>356.002441</ele>
  <time>2011-07-15T03:42:47Z</time>
  <speed>3.120000</speed>
</trkpt>
<trkpt lat="32.739223480" lon="35.016674042">
  <ele>356.057129</ele>
  <time>2011-07-15T03:42:48Z</time>
  <speed>3.430000</speed>
</trkpt>
<trkpt lat="32.739253998" lon="35.016693115">
  <ele>355.854004</ele>
  <time>2011-07-15T03:42:49Z</time>
  <speed>3.330000</speed>
</trkpt>
<trkpt lat="32.739280701" lon="35.016704559">
  <ele>355.760254</ele>
  <time>2011-07-15T03:42:50Z</time>
  <speed>3.670000</speed>
</trkpt>
<trkpt lat="32.739311218" lon="35.016723633">
  <ele>355.174316</ele>
  <time>2011-07-15T03:42:51Z</time>
  <speed>4.050000</speed>
</trkpt>
<trkpt lat="32.739341736" lon="35.016746521">
  <ele>355.166504</ele>
  <time>2011-07-15T03:42:52Z</time>
  <speed>3.860000</speed>
</trkpt>
<trkpt lat="32.739360809" lon="35.016769409">
  <ele>354.877441</ele>
  <time>2011-07-15T03:42:53Z</time>
  <speed>3.840000</speed>
</trkpt>
<trkpt lat="32.739387512" lon="35.016792297">
  <ele>354.439941</ele>
  <time>2011-07-15T03:42:54Z</time>
  <speed>4.220000</speed>
</trkpt>
<trkpt lat="32.739418030" lon="35.016815186">
  <ele>353.791504</ele>
  <time>2011-07-15T03:42:55Z</time>
  <speed>3.900000</speed>
</trkpt>
<trkpt lat="32.739452362" lon="35.016838074">
  <ele>353.361816</ele>
  <time>2011-07-15T03:42:56Z</time>
  <speed>4.260000</speed>
</trkpt>
<trkpt lat="32.739482880" lon="35.016868591">
  <ele>352.799316</ele>
  <time>2011-07-15T03:42:57Z</time>
  <speed>4.180000</speed>
</trkpt>
<trkpt lat="32.739509583" lon="35.016899109">
  <ele>352.174316</ele>
  <time>2011-07-15T03:42:58Z</time>
  <speed>4.110000</speed>
</trkpt>
<trkpt lat="32.739532471" lon="35.016944885">
  <ele>351.924316</ele>
  <time>2011-07-15T03:42:59Z</time>
  <speed>4.560000</speed>
</trkpt>
<trkpt lat="32.739551544" lon="35.016990662">
  <ele>352.369629</ele>
  <time>2011-07-15T03:43:00Z</time>
  <speed>4.960000</speed>
</trkpt>
<trkpt lat="32.739570618" lon="35.017036438">
  <ele>351.830566</ele>
  <time>2011-07-15T03:43:01Z</time>
  <speed>4.210000</speed>
</trkpt>
<trkpt lat="32.739578247" lon="35.017082214">
  <ele>351.807129</ele>
  <time>2011-07-15T03:43:02Z</time>
  <speed>3.990000</speed>
</trkpt>
<trkpt lat="32.739578247" lon="35.017131805">
  <ele>352.416504</ele>
  <time>2011-07-15T03:43:03Z</time>
  <speed>4.580000</speed>
</trkpt>
<trkpt lat="32.739578247" lon="35.017185211">
  <ele>352.674316</ele>
  <time>2011-07-15T03:43:04Z</time>
  <speed>5.430000</speed>
</trkpt>
<trkpt lat="32.739582062" lon="35.017250061">
  <ele>353.541504</ele>
  <time>2011-07-15T03:43:05Z</time>
  <speed>5.890000</speed>
</trkpt>
<trkpt lat="32.739597321" lon="35.017311096">
  <ele>354.291504</ele>
  <time>2011-07-15T03:43:06Z</time>
  <speed>5.420000</speed>
</trkpt>
<trkpt lat="32.739624023" lon="35.017372131">
  <ele>354.369629</ele>
  <time>2011-07-15T03:43:07Z</time>
  <speed>5.540000</speed>
</trkpt>
<trkpt lat="32.739646912" lon="35.017429352">
  <ele>354.963379</ele>
  <time>2011-07-15T03:43:08Z</time>
  <speed>5.650000</speed>
</trkpt>
<trkpt lat="32.739669800" lon="35.017482758">
  <ele>354.674316</ele>
  <time>2011-07-15T03:43:09Z</time>
  <speed>5.190000</speed>
</trkpt>
<trkpt lat="32.739696503" lon="35.017539978">
  <ele>354.354004</ele>
  <time>2011-07-15T03:43:10Z</time>
  <speed>5.080000</speed>
</trkpt>
<trkpt lat="32.739715576" lon="35.017585754">
  <ele>354.346191</ele>
  <time>2011-07-15T03:43:11Z</time>
  <speed>4.690000</speed>
</trkpt>
<trkpt lat="32.739742279" lon="35.017635345">
  <ele>353.932129</ele>
  <time>2011-07-15T03:43:12Z</time>
  <speed>4.830000</speed>
</trkpt>
<trkpt lat="32.739768982" lon="35.017677307">
  <ele>353.900879</ele>
  <time>2011-07-15T03:43:13Z</time>
  <speed>4.690000</speed>
</trkpt>
<trkpt lat="32.739814758" lon="35.017719269">
  <ele>353.947754</ele>
  <time>2011-07-15T03:43:14Z</time>
  <speed>5.550000</speed>
</trkpt>
<trkpt lat="32.739852905" lon="35.017753601">
  <ele>354.666504</ele>
  <time>2011-07-15T03:43:15Z</time>
  <speed>5.740000</speed>
</trkpt>
<trkpt lat="32.739887238" lon="35.017784119">
  <ele>354.518066</ele>
  <time>2011-07-15T03:43:16Z</time>
  <speed>4.180000</speed>
</trkpt>
<trkpt lat="32.739917755" lon="35.017799377">
  <ele>354.533691</ele>
  <time>2011-07-15T03:43:17Z</time>
  <speed>3.870000</speed>
</trkpt>
<trkpt lat="32.739944458" lon="35.017818451">
  <ele>354.658691</ele>
  <time>2011-07-15T03:43:18Z</time>
  <speed>3.700000</speed>
</trkpt>
<trkpt lat="32.739974976" lon="35.017837524">
  <ele>354.119629</ele>
  <time>2011-07-15T03:43:19Z</time>
  <speed>3.650000</speed>
</trkpt>
<trkpt lat="32.740001678" lon="35.017852783">
  <ele>354.752441</ele>
  <time>2011-07-15T03:43:20Z</time>
  <speed>2.860000</speed>
</trkpt>
<trkpt lat="32.740028381" lon="35.017860413">
  <ele>355.189941</ele>
  <time>2011-07-15T03:43:21Z</time>
  <speed>3.380000</speed>
</trkpt>
<trkpt lat="32.740055084" lon="35.017864227">
  <ele>355.963379</ele>
  <time>2011-07-15T03:43:22Z</time>
  <speed>3.070000</speed>
</trkpt>
<trkpt lat="32.740085602" lon="35.017871857">
  <ele>356.494629</ele>
  <time>2011-07-15T03:43:23Z</time>
  <speed>3.120000</speed>
</trkpt>
<trkpt lat="32.740116119" lon="35.017883301">
  <ele>357.135254</ele>
  <time>2011-07-15T03:43:24Z</time>
  <speed>3.410000</speed>
</trkpt>
<trkpt lat="32.740146637" lon="35.017894745">
  <ele>357.338379</ele>
  <time>2011-07-15T03:43:25Z</time>
  <speed>3.830000</speed>
</trkpt>
<trkpt lat="32.740177155" lon="35.017902374">
  <ele>357.572754</ele>
  <time>2011-07-15T03:43:26Z</time>
  <speed>3.410000</speed>
</trkpt>
<trkpt lat="32.740203857" lon="35.017913818">
  <ele>357.924316</ele>
  <time>2011-07-15T03:43:27Z</time>
  <speed>2.600000</speed>
</trkpt>
<trkpt lat="32.740234375" lon="35.017917633">
  <ele>358.213379</ele>
  <time>2011-07-15T03:43:28Z</time>
  <speed>3.330000</speed>
</trkpt>
<trkpt lat="32.740261078" lon="35.017932892">
  <ele>358.486816</ele>
  <time>2011-07-15T03:43:29Z</time>
  <speed>3.050000</speed>
</trkpt>
<trkpt lat="32.740291595" lon="35.017940521">
  <ele>358.322754</ele>
  <time>2011-07-15T03:43:30Z</time>
  <speed>3.220000</speed>
</trkpt>
<trkpt lat="32.740322113" lon="35.017955780">
  <ele>358.291504</ele>
  <time>2011-07-15T03:43:31Z</time>
  <speed>3.330000</speed>
</trkpt>
<trkpt lat="32.740352631" lon="35.017959595">
  <ele>359.025879</ele>
  <time>2011-07-15T03:43:32Z</time>
  <speed>2.690000</speed>
</trkpt>
<trkpt lat="32.740379333" lon="35.017971039">
  <ele>359.291504</ele>
  <time>2011-07-15T03:43:33Z</time>
  <speed>2.990000</speed>
</trkpt>
<trkpt lat="32.740417480" lon="35.017986298">
  <ele>359.393066</ele>
  <time>2011-07-15T03:43:34Z</time>
  <speed>3.090000</speed>
</trkpt>
<trkpt lat="32.740440369" lon="35.018001556">
  <ele>359.611816</ele>
  <time>2011-07-15T03:43:35Z</time>
  <speed>3.130000</speed>
</trkpt>
<trkpt lat="32.740493774" lon="35.018009186">
  <ele>360.588379</ele>
  <time>2011-07-15T03:43:37Z</time>
  <speed>3.100000</speed>
</trkpt>
<trkpt lat="32.740524292" lon="35.018028259">
  <ele>360.564941</ele>
  <time>2011-07-15T03:43:38Z</time>
  <speed>3.160000</speed>
</trkpt>
<trkpt lat="32.740550995" lon="35.018043518">
  <ele>360.275879</ele>
  <time>2011-07-15T03:43:39Z</time>
  <speed>2.940000</speed>
</trkpt>
<trkpt lat="32.740600586" lon="35.018062592">
  <ele>360.635254</ele>
  <time>2011-07-15T03:43:41Z</time>
  <speed>2.490000</speed>
</trkpt>
<trkpt lat="32.740646362" lon="35.018089294">
  <ele>360.635254</ele>
  <time>2011-07-15T03:43:43Z</time>
  <speed>2.660000</speed>
</trkpt>
<trkpt lat="32.740673065" lon="35.018100739">
  <ele>361.010254</ele>
  <time>2011-07-15T03:43:44Z</time>
  <speed>3.340000</speed>
</trkpt>
<trkpt lat="32.740703583" lon="35.018115997">
  <ele>360.643066</ele>
  <time>2011-07-15T03:43:45Z</time>
  <speed>2.850000</speed>
</trkpt>
<trkpt lat="32.740737915" lon="35.018142700">
  <ele>361.619629</ele>
  <time>2011-07-15T03:43:47Z</time>
  <speed>2.110000</speed>
</trkpt>
<trkpt lat="32.740764618" lon="35.018165588">
  <ele>362.783691</ele>
  <time>2011-07-15T03:43:49Z</time>
  <speed>2.690000</speed>
</trkpt>
<trkpt lat="32.740814209" lon="35.018188477">
  <ele>362.979004</ele>
  <time>2011-07-15T03:43:51Z</time>
  <speed>2.950000</speed>
</trkpt>
<trkpt lat="32.740837097" lon="35.018207550">
  <ele>362.275879</ele>
  <time>2011-07-15T03:43:52Z</time>
  <speed>2.670000</speed>
</trkpt>
<trkpt lat="32.740863800" lon="35.018230438">
  <ele>362.838379</ele>
  <time>2011-07-15T03:43:53Z</time>
  <speed>2.800000</speed>
</trkpt>
<trkpt lat="32.740890503" lon="35.018245697">
  <ele>362.830566</ele>
  <time>2011-07-15T03:43:54Z</time>
  <speed>2.770000</speed>
</trkpt>
<trkpt lat="32.740932465" lon="35.018260956">
  <ele>363.213379</ele>
  <time>2011-07-15T03:43:56Z</time>
  <speed>2.550000</speed>
</trkpt>
<trkpt lat="32.740982056" lon="35.018272400">
  <ele>364.064941</ele>
  <time>2011-07-15T03:43:58Z</time>
  <speed>2.360000</speed>
</trkpt>
<trkpt lat="32.741024017" lon="35.018295288">
  <ele>364.549316</ele>
  <time>2011-07-15T03:44:00Z</time>
  <speed>2.410000</speed>
</trkpt>
<trkpt lat="32.741062164" lon="35.018325806">
  <ele>364.557129</ele>
  <time>2011-07-15T03:44:02Z</time>
  <speed>2.770000</speed>
</trkpt>
<trkpt lat="32.741088867" lon="35.018344879">
  <ele>364.213379</ele>
  <time>2011-07-15T03:44:03Z</time>
  <speed>2.940000</speed>
</trkpt>
<trkpt lat="32.741127014" lon="35.018371582">
  <ele>364.893066</ele>
  <time>2011-07-15T03:44:05Z</time>
  <speed>2.770000</speed>
</trkpt>
<trkpt lat="32.741176605" lon="35.018398285">
  <ele>364.775879</ele>
  <time>2011-07-15T03:44:07Z</time>
  <speed>2.200000</speed>
</trkpt>
<trkpt lat="32.741214752" lon="35.018428802">
  <ele>366.205566</ele>
  <time>2011-07-15T03:44:09Z</time>
  <speed>2.100000</speed>
</trkpt>
<trkpt lat="32.741241455" lon="35.018447876">
  <ele>368.018066</ele>
  <time>2011-07-15T03:44:11Z</time>
  <speed>2.380000</speed>
</trkpt>
<trkpt lat="32.741283417" lon="35.018470764">
  <ele>368.588379</ele>
  <time>2011-07-15T03:44:13Z</time>
  <speed>2.810000</speed>
</trkpt>
<trkpt lat="32.741313934" lon="35.018482208">
  <ele>368.557129</ele>
  <time>2011-07-15T03:44:14Z</time>
  <speed>2.610000</speed>
</trkpt>
<trkpt lat="32.741355896" lon="35.018493652">
  <ele>368.729004</ele>
  <time>2011-07-15T03:44:16Z</time>
  <speed>2.730000</speed>
</trkpt>
<trkpt lat="32.741374969" lon="35.018512726">
  <ele>368.127441</ele>
  <time>2011-07-15T03:44:17Z</time>
  <speed>2.680000</speed>
</trkpt>
<trkpt lat="32.741401672" lon="35.018527985">
  <ele>367.916504</ele>
  <time>2011-07-15T03:44:18Z</time>
  <speed>2.650000</speed>
</trkpt>
<trkpt lat="32.741428375" lon="35.018535614">
  <ele>366.814941</ele>
  <time>2011-07-15T03:44:19Z</time>
  <speed>2.310000</speed>
</trkpt>
<trkpt lat="32.741466522" lon="35.018554688">
  <ele>367.064941</ele>
  <time>2011-07-15T03:44:21Z</time>
  <speed>2.420000</speed>
</trkpt>
<trkpt lat="32.741516113" lon="35.018585205">
  <ele>366.580566</ele>
  <time>2011-07-15T03:44:23Z</time>
  <speed>2.910000</speed>
</trkpt>
<trkpt lat="32.741542816" lon="35.018596649">
  <ele>366.416504</ele>
  <time>2011-07-15T03:44:24Z</time>
  <speed>3.660000</speed>
</trkpt>
<trkpt lat="32.741577148" lon="35.018604279">
  <ele>367.697754</ele>
  <time>2011-07-15T03:44:25Z</time>
  <speed>3.350000</speed>
</trkpt>
<trkpt lat="32.741600037" lon="35.018623352">
  <ele>367.572754</ele>
  <time>2011-07-15T03:44:26Z</time>
  <speed>3.190000</speed>
</trkpt>
<trkpt lat="32.741630554" lon="35.018642426">
  <ele>367.619629</ele>
  <time>2011-07-15T03:44:27Z</time>
  <speed>3.240000</speed>
</trkpt>
<trkpt lat="32.741664886" lon="35.018661499">
  <ele>367.689941</ele>
  <time>2011-07-15T03:44:28Z</time>
  <speed>3.250000</speed>
</trkpt>
<trkpt lat="32.741718292" lon="35.018692017">
  <ele>367.221191</ele>
  <time>2011-07-15T03:44:30Z</time>
  <speed>3.390000</speed>
</trkpt>
<trkpt lat="32.741741180" lon="35.018711090">
  <ele>368.291504</ele>
  <time>2011-07-15T03:44:31Z</time>
  <speed>3.190000</speed>
</trkpt>
<trkpt lat="32.741771698" lon="35.018733978">
  <ele>367.682129</ele>
  <time>2011-07-15T03:44:32Z</time>
  <speed>3.040000</speed>
</trkpt>
<trkpt lat="32.741798401" lon="35.018756866">
  <ele>367.447754</ele>
  <time>2011-07-15T03:44:33Z</time>
  <speed>3.270000</speed>
</trkpt>
<trkpt lat="32.741825104" lon="35.018775940">
  <ele>366.893066</ele>
  <time>2011-07-15T03:44:34Z</time>
  <speed>3.170000</speed>
</trkpt>
<trkpt lat="32.741851807" lon="35.018798828">
  <ele>367.041504</ele>
  <time>2011-07-15T03:44:35Z</time>
  <speed>2.920000</speed>
</trkpt>
<trkpt lat="32.741870880" lon="35.018821716">
  <ele>366.072754</ele>
  <time>2011-07-15T03:44:36Z</time>
  <speed>2.950000</speed>
</trkpt>
<trkpt lat="32.741897583" lon="35.018852234">
  <ele>365.854004</ele>
  <time>2011-07-15T03:44:37Z</time>
  <speed>3.290000</speed>
</trkpt>
<trkpt lat="32.741924286" lon="35.018875122">
  <ele>365.822754</ele>
  <time>2011-07-15T03:44:38Z</time>
  <speed>2.900000</speed>
</trkpt>
<trkpt lat="32.741947174" lon="35.018890381">
  <ele>365.377441</ele>
  <time>2011-07-15T03:44:39Z</time>
  <speed>3.290000</speed>
</trkpt>
<trkpt lat="32.741970062" lon="35.018920898">
  <ele>365.025879</ele>
  <time>2011-07-15T03:44:40Z</time>
  <speed>2.990000</speed>
</trkpt>
<trkpt lat="32.741992950" lon="35.018947601">
  <ele>365.150879</ele>
  <time>2011-07-15T03:44:41Z</time>
  <speed>3.320000</speed>
</trkpt>
<trkpt lat="32.742015839" lon="35.018974304">
  <ele>365.572754</ele>
  <time>2011-07-15T03:44:42Z</time>
  <speed>3.270000</speed>
</trkpt>
<trkpt lat="32.742038727" lon="35.018993378">
  <ele>365.627441</ele>
  <time>2011-07-15T03:44:43Z</time>
  <speed>3.280000</speed>
</trkpt>
<trkpt lat="32.742061615" lon="35.019016266">
  <ele>365.432129</ele>
  <time>2011-07-15T03:44:44Z</time>
  <speed>3.460000</speed>
</trkpt>
<trkpt lat="32.742084503" lon="35.019035339">
  <ele>365.424316</ele>
  <time>2011-07-15T03:44:45Z</time>
  <speed>3.330000</speed>
</trkpt>
<trkpt lat="32.742122650" lon="35.019084930">
  <ele>366.135254</ele>
  <time>2011-07-15T03:44:47Z</time>
  <speed>3.080000</speed>
</trkpt>
<trkpt lat="32.742168427" lon="35.019119263">
  <ele>367.705566</ele>
  <time>2011-07-15T03:44:49Z</time>
  <speed>3.010000</speed>
</trkpt>
<trkpt lat="32.742210388" lon="35.019161224">
  <ele>366.705566</ele>
  <time>2011-07-15T03:44:51Z</time>
  <speed>2.840000</speed>
</trkpt>
<trkpt lat="32.742233276" lon="35.019180298">
  <ele>366.479004</ele>
  <time>2011-07-15T03:44:52Z</time>
  <speed>2.740000</speed>
</trkpt>
<trkpt lat="32.742256165" lon="35.019203186">
  <ele>366.377441</ele>
  <time>2011-07-15T03:44:53Z</time>
  <speed>2.790000</speed>
</trkpt>
<trkpt lat="32.742279053" lon="35.019248962">
  <ele>367.377441</ele>
  <time>2011-07-15T03:44:55Z</time>
  <speed>3.210000</speed>
</trkpt>
<trkpt lat="32.742294312" lon="35.019275665">
  <ele>367.877441</ele>
  <time>2011-07-15T03:44:56Z</time>
  <speed>2.890000</speed>
</trkpt>
<trkpt lat="32.742332458" lon="35.019309998">
  <ele>367.799316</ele>
  <time>2011-07-15T03:44:58Z</time>
  <speed>2.910000</speed>
</trkpt>
<trkpt lat="32.742374420" lon="35.019348145">
  <ele>367.721191</ele>
  <time>2011-07-15T03:45:00Z</time>
  <speed>2.620000</speed>
</trkpt>
<trkpt lat="32.742408752" lon="35.019374847">
  <ele>367.900879</ele>
  <time>2011-07-15T03:45:02Z</time>
  <speed>2.470000</speed>
</trkpt>
<trkpt lat="32.742454529" lon="35.019382477">
  <ele>369.127441</ele>
  <time>2011-07-15T03:45:04Z</time>
  <speed>2.980000</speed>
</trkpt>
<trkpt lat="32.742481232" lon="35.019382477">
  <ele>369.463379</ele>
  <time>2011-07-15T03:45:05Z</time>
  <speed>3.290000</speed>
</trkpt>
<trkpt lat="32.742515564" lon="35.019386292">
  <ele>369.424316</ele>
  <time>2011-07-15T03:45:06Z</time>
  <speed>3.300000</speed>
</trkpt>
<trkpt lat="32.742542267" lon="35.019382477">
  <ele>369.463379</ele>
  <time>2011-07-15T03:45:07Z</time>
  <speed>3.440000</speed>
</trkpt>
<trkpt lat="32.742576599" lon="35.019378662">
  <ele>370.049316</ele>
  <time>2011-07-15T03:45:08Z</time>
  <speed>3.590000</speed>
</trkpt>
<trkpt lat="32.742607117" lon="35.019371033">
  <ele>370.924316</ele>
  <time>2011-07-15T03:45:09Z</time>
  <speed>3.660000</speed>
</trkpt>
<trkpt lat="32.742633820" lon="35.019371033">
  <ele>369.963379</ele>
  <time>2011-07-15T03:45:10Z</time>
  <speed>2.860000</speed>
</trkpt>
<trkpt lat="32.742671967" lon="35.019390106">
  <ele>369.033691</ele>
  <time>2011-07-15T03:45:12Z</time>
  <speed>1.940000</speed>
</trkpt>
<trkpt lat="32.742683411" lon="35.019409180">
  <ele>367.057129</ele>
  <time>2011-07-15T03:45:16Z</time>
  <speed>0.170000</speed>
</trkpt>
<trkpt lat="32.742668152" lon="35.019443512">
  <ele>367.549316</ele>
  <time>2011-07-15T03:45:55Z</time>
  <speed>2.490000</speed>
</trkpt>
<trkpt lat="32.742656708" lon="35.019481659">
  <ele>367.900879</ele>
  <time>2011-07-15T03:45:56Z</time>
  <speed>3.030000</speed>
</trkpt>
<trkpt lat="32.742630005" lon="35.019504547">
  <ele>368.096191</ele>
  <time>2011-07-15T03:45:57Z</time>
  <speed>3.130000</speed>
</trkpt>
<trkpt lat="32.742610931" lon="35.019535065">
  <ele>368.213379</ele>
  <time>2011-07-15T03:45:58Z</time>
  <speed>3.360000</speed>
</trkpt>
<trkpt lat="32.742591858" lon="35.019565582">
  <ele>367.760254</ele>
  <time>2011-07-15T03:45:59Z</time>
  <speed>3.150000</speed>
</trkpt>
<trkpt lat="32.742580414" lon="35.019603729">
  <ele>367.611816</ele>
  <time>2011-07-15T03:46:00Z</time>
  <speed>3.350000</speed>
</trkpt>
<trkpt lat="32.742565155" lon="35.019634247">
  <ele>367.963379</ele>
  <time>2011-07-15T03:46:01Z</time>
  <speed>3.280000</speed>
</trkpt>
<trkpt lat="32.742546082" lon="35.019676208">
  <ele>368.736816</ele>
  <time>2011-07-15T03:46:02Z</time>
  <speed>3.520000</speed>
</trkpt>
<trkpt lat="32.742534637" lon="35.019710541">
  <ele>368.947754</ele>
  <time>2011-07-15T03:46:03Z</time>
  <speed>3.600000</speed>
</trkpt>
<trkpt lat="32.742519379" lon="35.019744873">
  <ele>368.814941</ele>
  <time>2011-07-15T03:46:04Z</time>
  <speed>3.290000</speed>
</trkpt>
<trkpt lat="32.742504120" lon="35.019779205">
  <ele>369.064941</ele>
  <time>2011-07-15T03:46:05Z</time>
  <speed>3.450000</speed>
</trkpt>
<trkpt lat="32.742492676" lon="35.019813538">
  <ele>368.846191</ele>
  <time>2011-07-15T03:46:06Z</time>
  <speed>3.730000</speed>
</trkpt>
<trkpt lat="32.742481232" lon="35.019851685">
  <ele>368.463379</ele>
  <time>2011-07-15T03:46:07Z</time>
  <speed>3.810000</speed>
</trkpt>
<trkpt lat="32.742469788" lon="35.019893646">
  <ele>368.408691</ele>
  <time>2011-07-15T03:46:08Z</time>
  <speed>4.300000</speed>
</trkpt>
<trkpt lat="32.742454529" lon="35.019943237">
  <ele>368.721191</ele>
  <time>2011-07-15T03:46:09Z</time>
  <speed>4.480000</speed>
</trkpt>
<trkpt lat="32.742443085" lon="35.019989014">
  <ele>368.471191</ele>
  <time>2011-07-15T03:46:10Z</time>
  <speed>4.640000</speed>
</trkpt>
<trkpt lat="32.742427826" lon="35.020038605">
  <ele>368.416504</ele>
  <time>2011-07-15T03:46:11Z</time>
  <speed>4.920000</speed>
</trkpt>
<trkpt lat="32.742408752" lon="35.020092010">
  <ele>367.947754</ele>
  <time>2011-07-15T03:46:12Z</time>
  <speed>5.430000</speed>
</trkpt>
<trkpt lat="32.742393494" lon="35.020145416">
  <ele>367.408691</ele>
  <time>2011-07-15T03:46:13Z</time>
  <speed>4.980000</speed>
</trkpt>
<trkpt lat="32.742385864" lon="35.020202637">
  <ele>367.104004</ele>
  <time>2011-07-15T03:46:14Z</time>
  <speed>4.970000</speed>
</trkpt>
<trkpt lat="32.742378235" lon="35.020252228">
  <ele>366.807129</ele>
  <time>2011-07-15T03:46:15Z</time>
  <speed>4.770000</speed>
</trkpt>
<trkpt lat="32.742374420" lon="35.020313263">
  <ele>366.822754</ele>
  <time>2011-07-15T03:46:16Z</time>
  <speed>4.760000</speed>
</trkpt>
<trkpt lat="32.742378235" lon="35.020362854">
  <ele>366.158691</ele>
  <time>2011-07-15T03:46:17Z</time>
  <speed>4.860000</speed>
</trkpt>
<trkpt lat="32.742382050" lon="35.020420074">
  <ele>365.861816</ele>
  <time>2011-07-15T03:46:18Z</time>
  <speed>5.540000</speed>
</trkpt>
<trkpt lat="32.742393494" lon="35.020484924">
  <ele>365.768066</ele>
  <time>2011-07-15T03:46:19Z</time>
  <speed>5.790000</speed>
</trkpt>
<trkpt lat="32.742408752" lon="35.020542145">
  <ele>365.510254</ele>
  <time>2011-07-15T03:46:20Z</time>
  <speed>5.720000</speed>
</trkpt>
<trkpt lat="32.742427826" lon="35.020603180">
  <ele>365.189941</ele>
  <time>2011-07-15T03:46:21Z</time>
  <speed>5.680000</speed>
</trkpt>
<trkpt lat="32.742462158" lon="35.020671844">
  <ele>365.174316</ele>
  <time>2011-07-15T03:46:22Z</time>
  <speed>6.630000</speed>
</trkpt>
<trkpt lat="32.742496490" lon="35.020721436">
  <ele>365.002441</ele>
  <time>2011-07-15T03:46:23Z</time>
  <speed>6.170000</speed>
</trkpt>
<trkpt lat="32.742542267" lon="35.020767212">
  <ele>364.658691</ele>
  <time>2011-07-15T03:46:24Z</time>
  <speed>6.060000</speed>
</trkpt>
<trkpt lat="32.742588043" lon="35.020812988">
  <ele>364.072754</ele>
  <time>2011-07-15T03:46:25Z</time>
  <speed>5.400000</speed>
</trkpt>
<trkpt lat="32.742630005" lon="35.020839691">
  <ele>363.439941</ele>
  <time>2011-07-15T03:46:26Z</time>
  <speed>4.900000</speed>
</trkpt>
<trkpt lat="32.742671967" lon="35.020877838">
  <ele>363.275879</ele>
  <time>2011-07-15T03:46:27Z</time>
  <speed>5.630000</speed>
</trkpt>
<trkpt lat="32.742710114" lon="35.020915985">
  <ele>363.314941</ele>
  <time>2011-07-15T03:46:28Z</time>
  <speed>4.750000</speed>
</trkpt>
<trkpt lat="32.742736816" lon="35.020954132">
  <ele>363.354004</ele>
  <time>2011-07-15T03:46:29Z</time>
  <speed>4.420000</speed>
</trkpt>
<trkpt lat="32.742759705" lon="35.020988464">
  <ele>363.104004</ele>
  <time>2011-07-15T03:46:30Z</time>
  <speed>4.130000</speed>
</trkpt>
<trkpt lat="32.742797852" lon="35.021022797">
  <ele>363.275879</ele>
  <time>2011-07-15T03:46:31Z</time>
  <speed>4.190000</speed>
</trkpt>
<trkpt lat="32.742824554" lon="35.021053314">
  <ele>363.939941</ele>
  <time>2011-07-15T03:46:32Z</time>
  <speed>4.880000</speed>
</trkpt>
<trkpt lat="32.742847443" lon="35.021095276">
  <ele>363.893066</ele>
  <time>2011-07-15T03:46:33Z</time>
  <speed>4.350000</speed>
</trkpt>
<trkpt lat="32.742866516" lon="35.021141052">
  <ele>363.752441</ele>
  <time>2011-07-15T03:46:34Z</time>
  <speed>4.420000</speed>
</trkpt>
<trkpt lat="32.742881775" lon="35.021202087">
  <ele>363.447754</ele>
  <time>2011-07-15T03:46:35Z</time>
  <speed>4.920000</speed>
</trkpt>
<trkpt lat="32.742900848" lon="35.021251678">
  <ele>363.346191</ele>
  <time>2011-07-15T03:46:36Z</time>
  <speed>4.530000</speed>
</trkpt>
<trkpt lat="32.742897034" lon="35.021301270">
  <ele>362.564941</ele>
  <time>2011-07-15T03:46:37Z</time>
  <speed>4.210000</speed>
</trkpt>
<trkpt lat="32.742908478" lon="35.021347046">
  <ele>361.604004</ele>
  <time>2011-07-15T03:46:38Z</time>
  <speed>4.420000</speed>
</trkpt>
<trkpt lat="32.742927551" lon="35.021408081">
  <ele>361.299316</ele>
  <time>2011-07-15T03:46:39Z</time>
  <speed>5.350000</speed>
</trkpt>
<trkpt lat="32.742935181" lon="35.021472931">
  <ele>360.932129</ele>
  <time>2011-07-15T03:46:40Z</time>
  <speed>6.380000</speed>
</trkpt>
<trkpt lat="32.742942810" lon="35.021556854">
  <ele>359.213379</ele>
  <time>2011-07-15T03:46:41Z</time>
  <speed>6.480000</speed>
</trkpt>
<trkpt lat="32.742961884" lon="35.021636963">
  <ele>359.791504</ele>
  <time>2011-07-15T03:46:42Z</time>
  <speed>6.650000</speed>
</trkpt>
<trkpt lat="32.742961884" lon="35.021705627">
  <ele>360.111816</ele>
  <time>2011-07-15T03:46:43Z</time>
  <speed>6.270000</speed>
</trkpt>
<trkpt lat="32.742954254" lon="35.021774292">
  <ele>360.432129</ele>
  <time>2011-07-15T03:46:44Z</time>
  <speed>5.990000</speed>
</trkpt>
<trkpt lat="32.742950439" lon="35.021839142">
  <ele>360.174316</ele>
  <time>2011-07-15T03:46:45Z</time>
  <speed>5.590000</speed>
</trkpt>
<trkpt lat="32.742950439" lon="35.021896362">
  <ele>360.432129</ele>
  <time>2011-07-15T03:46:46Z</time>
  <speed>5.410000</speed>
</trkpt>
<trkpt lat="32.742961884" lon="35.021957397">
  <ele>360.072754</ele>
  <time>2011-07-15T03:46:47Z</time>
  <speed>4.980000</speed>
</trkpt>
<trkpt lat="32.742973328" lon="35.022014618">
  <ele>359.783691</ele>
  <time>2011-07-15T03:46:48Z</time>
  <speed>5.000000</speed>
</trkpt>
<trkpt lat="32.743000031" lon="35.022071838">
  <ele>357.900879</ele>
  <time>2011-07-15T03:46:49Z</time>
  <speed>5.370000</speed>
</trkpt>
<trkpt lat="32.743015289" lon="35.022129059">
  <ele>357.150879</ele>
  <time>2011-07-15T03:46:50Z</time>
  <speed>5.790000</speed>
</trkpt>
<trkpt lat="32.743019104" lon="35.022197723">
  <ele>356.697754</ele>
  <time>2011-07-15T03:46:51Z</time>
  <speed>6.300000</speed>
</trkpt>
<trkpt lat="32.743015289" lon="35.022270203">
  <ele>356.768066</ele>
  <time>2011-07-15T03:46:52Z</time>
  <speed>5.490000</speed>
</trkpt>
<trkpt lat="32.743022919" lon="35.022335052">
  <ele>356.244629</ele>
  <time>2011-07-15T03:46:53Z</time>
  <speed>4.600000</speed>
</trkpt>
<trkpt lat="32.743022919" lon="35.022380829">
  <ele>355.705566</ele>
  <time>2011-07-15T03:46:54Z</time>
  <speed>4.430000</speed>
</trkpt>
<trkpt lat="32.743038177" lon="35.022438049">
  <ele>354.705566</ele>
  <time>2011-07-15T03:46:55Z</time>
  <speed>5.110000</speed>
</trkpt>
<trkpt lat="32.743045807" lon="35.022491455">
  <ele>354.432129</ele>
  <time>2011-07-15T03:46:56Z</time>
  <speed>5.070000</speed>
</trkpt>
<trkpt lat="32.743053436" lon="35.022548676">
  <ele>353.900879</ele>
  <time>2011-07-15T03:46:57Z</time>
  <speed>5.620000</speed>
</trkpt>
<trkpt lat="32.743072510" lon="35.022613525">
  <ele>353.150879</ele>
  <time>2011-07-15T03:46:58Z</time>
  <speed>5.940000</speed>
</trkpt>
<trkpt lat="32.743087769" lon="35.022678375">
  <ele>352.166504</ele>
  <time>2011-07-15T03:46:59Z</time>
  <speed>5.710000</speed>
</trkpt>
<trkpt lat="32.743083954" lon="35.022739410">
  <ele>351.479004</ele>
  <time>2011-07-15T03:47:00Z</time>
  <speed>5.670000</speed>
</trkpt>
<trkpt lat="32.743068695" lon="35.022796631">
  <ele>350.721191</ele>
  <time>2011-07-15T03:47:01Z</time>
  <speed>5.770000</speed>
</trkpt>
<trkpt lat="32.743041992" lon="35.022857666">
  <ele>350.822754</ele>
  <time>2011-07-15T03:47:02Z</time>
  <speed>5.890000</speed>
</trkpt>
<trkpt lat="32.743019104" lon="35.022914886">
  <ele>350.697754</ele>
  <time>2011-07-15T03:47:03Z</time>
  <speed>5.950000</speed>
</trkpt>
<trkpt lat="32.743000031" lon="35.022968292">
  <ele>350.463379</ele>
  <time>2011-07-15T03:47:04Z</time>
  <speed>5.420000</speed>
</trkpt>
<trkpt lat="32.742977142" lon="35.023017883">
  <ele>349.814941</ele>
  <time>2011-07-15T03:47:05Z</time>
  <speed>5.560000</speed>
</trkpt>
<trkpt lat="32.742965698" lon="35.023075104">
  <ele>349.822754</ele>
  <time>2011-07-15T03:47:06Z</time>
  <speed>4.980000</speed>
</trkpt>
<trkpt lat="32.742958069" lon="35.023124695">
  <ele>349.939941</ele>
  <time>2011-07-15T03:47:07Z</time>
  <speed>4.520000</speed>
</trkpt>
<trkpt lat="32.742946625" lon="35.023166656">
  <ele>350.221191</ele>
  <time>2011-07-15T03:47:08Z</time>
  <speed>4.250000</speed>
</trkpt>
<trkpt lat="32.742938995" lon="35.023216248">
  <ele>350.971191</ele>
  <time>2011-07-15T03:47:09Z</time>
  <speed>4.290000</speed>
</trkpt>
<trkpt lat="32.742961884" lon="35.023273468">
  <ele>351.189941</ele>
  <time>2011-07-15T03:47:10Z</time>
  <speed>5.120000</speed>
</trkpt>
<trkpt lat="32.742988586" lon="35.023323059">
  <ele>352.900879</ele>
  <time>2011-07-15T03:47:11Z</time>
  <speed>5.250000</speed>
</trkpt>
<trkpt lat="32.743007660" lon="35.023376465">
  <ele>353.854004</ele>
  <time>2011-07-15T03:47:12Z</time>
  <speed>4.120000</speed>
</trkpt>
<trkpt lat="32.743022919" lon="35.023418427">
  <ele>353.729004</ele>
  <time>2011-07-15T03:47:13Z</time>
  <speed>4.010000</speed>
</trkpt>
<trkpt lat="32.743022919" lon="35.023460388">
  <ele>353.822754</ele>
  <time>2011-07-15T03:47:14Z</time>
  <speed>4.700000</speed>
</trkpt>
<trkpt lat="32.743011475" lon="35.023509979">
  <ele>353.838379</ele>
  <time>2011-07-15T03:47:15Z</time>
  <speed>4.550000</speed>
</trkpt>
<trkpt lat="32.742980957" lon="35.023544312">
  <ele>353.049316</ele>
  <time>2011-07-15T03:47:16Z</time>
  <speed>4.530000</speed>
</trkpt>
<trkpt lat="32.742954254" lon="35.023578644">
  <ele>352.893066</ele>
  <time>2011-07-15T03:47:17Z</time>
  <speed>4.190000</speed>
</trkpt>
<trkpt lat="32.742919922" lon="35.023597717">
  <ele>352.549316</ele>
  <time>2011-07-15T03:47:18Z</time>
  <speed>4.380000</speed>
</trkpt>
<trkpt lat="32.742885590" lon="35.023616791">
  <ele>351.611816</ele>
  <time>2011-07-15T03:47:19Z</time>
  <speed>4.360000</speed>
</trkpt>
<trkpt lat="32.742843628" lon="35.023620605">
  <ele>351.033691</ele>
  <time>2011-07-15T03:47:20Z</time>
  <speed>3.850000</speed>
</trkpt>
<trkpt lat="32.742797852" lon="35.023635864">
  <ele>350.299316</ele>
  <time>2011-07-15T03:47:21Z</time>
  <speed>4.320000</speed>
</trkpt>
<trkpt lat="32.742752075" lon="35.023654938">
  <ele>349.471191</ele>
  <time>2011-07-15T03:47:22Z</time>
  <speed>4.560000</speed>
</trkpt>
<trkpt lat="32.742713928" lon="35.023670197">
  <ele>348.955566</ele>
  <time>2011-07-15T03:47:23Z</time>
  <speed>4.530000</speed>
</trkpt>
<trkpt lat="32.742671967" lon="35.023696899">
  <ele>348.494629</ele>
  <time>2011-07-15T03:47:24Z</time>
  <speed>5.320000</speed>
</trkpt>
<trkpt lat="32.742630005" lon="35.023719788">
  <ele>348.166504</ele>
  <time>2011-07-15T03:47:25Z</time>
  <speed>5.410000</speed>
</trkpt>
<trkpt lat="32.742595673" lon="35.023754120">
  <ele>347.510254</ele>
  <time>2011-07-15T03:47:26Z</time>
  <speed>5.630000</speed>
</trkpt>
<trkpt lat="32.742546082" lon="35.023803711">
  <ele>347.088379</ele>
  <time>2011-07-15T03:47:27Z</time>
  <speed>6.700000</speed>
</trkpt>
<trkpt lat="32.742504120" lon="35.023853302">
  <ele>346.377441</ele>
  <time>2011-07-15T03:47:28Z</time>
  <speed>6.060000</speed>
</trkpt>
<trkpt lat="32.742465973" lon="35.023902893">
  <ele>345.736816</ele>
  <time>2011-07-15T03:47:29Z</time>
  <speed>6.080000</speed>
</trkpt>
<trkpt lat="32.742439270" lon="35.023960114">
  <ele>344.768066</ele>
  <time>2011-07-15T03:47:30Z</time>
  <speed>6.050000</speed>
</trkpt>
<trkpt lat="32.742416382" lon="35.024017334">
  <ele>344.260254</ele>
  <time>2011-07-15T03:47:31Z</time>
  <speed>5.730000</speed>
</trkpt>
<trkpt lat="32.742389679" lon="35.024070740">
  <ele>343.697754</ele>
  <time>2011-07-15T03:47:32Z</time>
  <speed>5.770000</speed>
</trkpt>
<trkpt lat="32.742370605" lon="35.024127960">
  <ele>342.924316</ele>
  <time>2011-07-15T03:47:33Z</time>
  <speed>5.080000</speed>
</trkpt>
<trkpt lat="32.742351532" lon="35.024181366">
  <ele>342.408691</ele>
  <time>2011-07-15T03:47:34Z</time>
  <speed>5.750000</speed>
</trkpt>
<trkpt lat="32.742332458" lon="35.024246216">
  <ele>341.135254</ele>
  <time>2011-07-15T03:47:35Z</time>
  <speed>5.300000</speed>
</trkpt>
<trkpt lat="32.742305756" lon="35.024284363">
  <ele>340.736816</ele>
  <time>2011-07-15T03:47:36Z</time>
  <speed>4.480000</speed>
</trkpt>
<trkpt lat="32.742298126" lon="35.024322510">
  <ele>340.072754</ele>
  <time>2011-07-15T03:47:37Z</time>
  <speed>3.080000</speed>
</trkpt>
<trkpt lat="32.742309570" lon="35.024360657">
  <ele>339.744629</ele>
  <time>2011-07-15T03:47:38Z</time>
  <speed>3.580000</speed>
</trkpt>
<trkpt lat="32.742336273" lon="35.024394989">
  <ele>339.408691</ele>
  <time>2011-07-15T03:47:39Z</time>
  <speed>3.060000</speed>
</trkpt>
<trkpt lat="32.742370605" lon="35.024414063">
  <ele>338.385254</ele>
  <time>2011-07-15T03:47:40Z</time>
  <speed>4.200000</speed>
</trkpt>
<trkpt lat="32.742404938" lon="35.024417877">
  <ele>337.525879</ele>
  <time>2011-07-15T03:47:41Z</time>
  <speed>3.220000</speed>
</trkpt>
<trkpt lat="32.742454529" lon="35.024410248">
  <ele>337.564941</ele>
  <time>2011-07-15T03:47:43Z</time>
  <speed>1.730000</speed>
</trkpt>
<trkpt lat="32.742492676" lon="35.024394989">
  <ele>337.408691</ele>
  <time>2011-07-15T03:47:45Z</time>
  <speed>1.290000</speed>
</trkpt>
<trkpt lat="32.742507935" lon="35.024360657">
  <ele>337.502441</ele>
  <time>2011-07-15T03:47:48Z</time>
  <speed>1.020000</speed>
</trkpt>
<trkpt lat="32.742534637" lon="35.024360657">
  <ele>338.158691</ele>
  <time>2011-07-15T03:47:50Z</time>
  <speed>1.010000</speed>
</trkpt>
<trkpt lat="32.742561340" lon="35.024341583">
  <ele>338.713379</ele>
  <time>2011-07-15T03:47:52Z</time>
  <speed>1.010000</speed>
</trkpt>
<trkpt lat="32.742580414" lon="35.024318695">
  <ele>339.275879</ele>
  <time>2011-07-15T03:47:54Z</time>
  <speed>1.730000</speed>
</trkpt>
<trkpt lat="32.742607117" lon="35.024295807">
  <ele>340.393066</ele>
  <time>2011-07-15T03:47:56Z</time>
  <speed>2.150000</speed>
</trkpt>
<trkpt lat="32.742630005" lon="35.024280548">
  <ele>341.088379</ele>
  <time>2011-07-15T03:47:57Z</time>
  <speed>2.130000</speed>
</trkpt>
<trkpt lat="32.742671967" lon="35.024250031">
  <ele>342.064941</ele>
  <time>2011-07-15T03:47:59Z</time>
  <speed>2.510000</speed>
</trkpt>
<trkpt lat="32.742717743" lon="35.024227142">
  <ele>343.205566</ele>
  <time>2011-07-15T03:48:01Z</time>
  <speed>2.650000</speed>
</trkpt>
<trkpt lat="32.742752075" lon="35.024215698">
  <ele>344.197754</ele>
  <time>2011-07-15T03:48:03Z</time>
  <speed>2.380000</speed>
</trkpt>
<trkpt lat="32.742794037" lon="35.024204254">
  <ele>345.416504</ele>
  <time>2011-07-15T03:48:05Z</time>
  <speed>2.270000</speed>
</trkpt>
<trkpt lat="32.742832184" lon="35.024188995">
  <ele>346.346191</ele>
  <time>2011-07-15T03:48:07Z</time>
  <speed>2.230000</speed>
</trkpt>
<trkpt lat="32.742877960" lon="35.024185181">
  <ele>347.627441</ele>
  <time>2011-07-15T03:48:09Z</time>
  <speed>2.240000</speed>
</trkpt>
<trkpt lat="32.742916107" lon="35.024177551">
  <ele>349.455566</ele>
  <time>2011-07-15T03:48:11Z</time>
  <speed>2.200000</speed>
</trkpt>
<trkpt lat="32.742946625" lon="35.024169922">
  <ele>351.322754</ele>
  <time>2011-07-15T03:48:13Z</time>
  <speed>1.510000</speed>
</trkpt>
<trkpt lat="32.742984772" lon="35.024169922">
  <ele>351.486816</ele>
  <time>2011-07-15T03:48:15Z</time>
  <speed>1.920000</speed>
</trkpt>
<trkpt lat="32.743026733" lon="35.024169922">
  <ele>351.689941</ele>
  <time>2011-07-15T03:48:17Z</time>
  <speed>2.220000</speed>
</trkpt>
<trkpt lat="32.743049622" lon="35.024177551">
  <ele>352.650879</ele>
  <time>2011-07-15T03:48:19Z</time>
  <speed>1.200000</speed>
</trkpt>
<trkpt lat="32.743080139" lon="35.024181366">
  <ele>351.994629</ele>
  <time>2011-07-15T03:48:21Z</time>
  <speed>1.770000</speed>
</trkpt>
<trkpt lat="32.743114471" lon="35.024173737">
  <ele>352.838379</ele>
  <time>2011-07-15T03:48:23Z</time>
  <speed>2.000000</speed>
</trkpt>
<trkpt lat="32.743144989" lon="35.024173737">
  <ele>353.494629</ele>
  <time>2011-07-15T03:48:25Z</time>
  <speed>1.390000</speed>
</trkpt>
<trkpt lat="32.743175507" lon="35.024166107">
  <ele>353.893066</ele>
  <time>2011-07-15T03:48:28Z</time>
  <speed>1.440000</speed>
</trkpt>
<trkpt lat="32.743209839" lon="35.024169922">
  <ele>354.814941</ele>
  <time>2011-07-15T03:48:30Z</time>
  <speed>1.620000</speed>
</trkpt>
<trkpt lat="32.743236542" lon="35.024192810">
  <ele>354.572754</ele>
  <time>2011-07-15T03:48:32Z</time>
  <speed>1.570000</speed>
</trkpt>
<trkpt lat="32.743267059" lon="35.024192810">
  <ele>355.096191</ele>
  <time>2011-07-15T03:48:34Z</time>
  <speed>1.010000</speed>
</trkpt>
<trkpt lat="32.743297577" lon="35.024196625">
  <ele>357.049316</ele>
  <time>2011-07-15T03:48:37Z</time>
  <speed>1.570000</speed>
</trkpt>
<trkpt lat="32.743324280" lon="35.024204254">
  <ele>357.721191</ele>
  <time>2011-07-15T03:48:39Z</time>
  <speed>1.280000</speed>
</trkpt>
<trkpt lat="32.743358612" lon="35.024204254">
  <ele>358.057129</ele>
  <time>2011-07-15T03:48:41Z</time>
  <speed>1.650000</speed>
</trkpt>
<trkpt lat="32.743385315" lon="35.024219513">
  <ele>358.518066</ele>
  <time>2011-07-15T03:48:43Z</time>
  <speed>1.510000</speed>
</trkpt>
<trkpt lat="32.743415833" lon="35.024219513">
  <ele>358.955566</ele>
  <time>2011-07-15T03:48:45Z</time>
  <speed>1.440000</speed>
</trkpt>
<trkpt lat="32.743453979" lon="35.024211884">
  <ele>359.877441</ele>
  <time>2011-07-15T03:48:48Z</time>
  <speed>1.470000</speed>
</trkpt>
<trkpt lat="32.743480682" lon="35.024219513">
  <ele>360.541504</ele>
  <time>2011-07-15T03:48:50Z</time>
  <speed>1.530000</speed>
</trkpt>
<trkpt lat="32.743522644" lon="35.024227142">
  <ele>360.572754</ele>
  <time>2011-07-15T03:48:53Z</time>
  <speed>0.970000</speed>
</trkpt>
<trkpt lat="32.743549347" lon="35.024211884">
  <ele>359.619629</ele>
  <time>2011-07-15T03:48:55Z</time>
  <speed>1.390000</speed>
</trkpt>
<trkpt lat="32.743572235" lon="35.024177551">
  <ele>361.299316</ele>
  <time>2011-07-15T03:48:57Z</time>
  <speed>1.330000</speed>
</trkpt>
<trkpt lat="32.743568420" lon="35.024131775">
  <ele>361.846191</ele>
  <time>2011-07-15T03:48:59Z</time>
  <speed>1.540000</speed>
</trkpt>
<trkpt lat="32.743568420" lon="35.024085999">
  <ele>361.447754</ele>
  <time>2011-07-15T03:49:02Z</time>
  <speed>1.410000</speed>
</trkpt>
<trkpt lat="32.743560791" lon="35.024032593">
  <ele>361.135254</ele>
  <time>2011-07-15T03:49:05Z</time>
  <speed>1.480000</speed>
</trkpt>
<trkpt lat="32.743537903" lon="35.024002075">
  <ele>361.064941</ele>
  <time>2011-07-15T03:49:07Z</time>
  <speed>1.600000</speed>
</trkpt>
<trkpt lat="32.743515015" lon="35.023952484">
  <ele>361.197754</ele>
  <time>2011-07-15T03:49:09Z</time>
  <speed>2.650000</speed>
</trkpt>
<trkpt lat="32.743503571" lon="35.023925781">
  <ele>361.229004</ele>
  <time>2011-07-15T03:49:10Z</time>
  <speed>2.840000</speed>
</trkpt>
<trkpt lat="32.743488312" lon="35.023880005">
  <ele>359.775879</ele>
  <time>2011-07-15T03:49:12Z</time>
  <speed>3.110000</speed>
</trkpt>
<trkpt lat="32.743469238" lon="35.023845673">
  <ele>360.010254</ele>
  <time>2011-07-15T03:49:13Z</time>
  <speed>3.490000</speed>
</trkpt>
<trkpt lat="32.743453979" lon="35.023815155">
  <ele>359.064941</ele>
  <time>2011-07-15T03:49:14Z</time>
  <speed>3.120000</speed>
</trkpt>
<trkpt lat="32.743438721" lon="35.023788452">
  <ele>359.283691</ele>
  <time>2011-07-15T03:49:15Z</time>
  <speed>2.660000</speed>
</trkpt>
<trkpt lat="32.743415833" lon="35.023750305">
  <ele>358.768066</ele>
  <time>2011-07-15T03:49:17Z</time>
  <speed>2.310000</speed>
</trkpt>
<trkpt lat="32.743400574" lon="35.023712158">
  <ele>355.775879</ele>
  <time>2011-07-15T03:49:19Z</time>
  <speed>2.880000</speed>
</trkpt>
<trkpt lat="32.743381500" lon="35.023654938">
  <ele>355.197754</ele>
  <time>2011-07-15T03:49:21Z</time>
  <speed>3.250000</speed>
</trkpt>
<trkpt lat="32.743392944" lon="35.023624420">
  <ele>354.205566</ele>
  <time>2011-07-15T03:49:22Z</time>
  <speed>3.180000</speed>
</trkpt>
<trkpt lat="32.743408203" lon="35.023593903">
  <ele>354.197754</ele>
  <time>2011-07-15T03:49:23Z</time>
  <speed>3.160000</speed>
</trkpt>
<trkpt lat="32.743423462" lon="35.023567200">
  <ele>354.377441</ele>
  <time>2011-07-15T03:49:24Z</time>
  <speed>2.950000</speed>
</trkpt>
<trkpt lat="32.743446350" lon="35.023544312">
  <ele>354.229004</ele>
  <time>2011-07-15T03:49:25Z</time>
  <speed>2.740000</speed>
</trkpt>
<trkpt lat="32.743465424" lon="35.023521423">
  <ele>353.658691</ele>
  <time>2011-07-15T03:49:26Z</time>
  <speed>2.220000</speed>
</trkpt>
<trkpt lat="32.743492126" lon="35.023487091">
  <ele>354.002441</ele>
  <time>2011-07-15T03:49:28Z</time>
  <speed>2.210000</speed>
</trkpt>
<trkpt lat="32.743530273" lon="35.023456573">
  <ele>354.299316</ele>
  <time>2011-07-15T03:49:30Z</time>
  <speed>2.520000</speed>
</trkpt>
<trkpt lat="32.743560791" lon="35.023429871">
  <ele>353.838379</ele>
  <time>2011-07-15T03:49:32Z</time>
  <speed>1.630000</speed>
</trkpt>
<trkpt lat="32.743553162" lon="35.023387909">
  <ele>355.650879</ele>
  <time>2011-07-15T03:49:35Z</time>
  <speed>1.830000</speed>
</trkpt>
<trkpt lat="32.743556976" lon="35.023342133">
  <ele>356.986816</ele>
  <time>2011-07-15T03:49:37Z</time>
  <speed>2.110000</speed>
</trkpt>
<trkpt lat="32.743576050" lon="35.023307800">
  <ele>357.393066</ele>
  <time>2011-07-15T03:49:39Z</time>
  <speed>2.130000</speed>
</trkpt>
<trkpt lat="32.743602753" lon="35.023281097">
  <ele>357.252441</ele>
  <time>2011-07-15T03:49:42Z</time>
  <speed>1.320000</speed>
</trkpt>
<trkpt lat="32.743640900" lon="35.023254395">
  <ele>357.041504</ele>
  <time>2011-07-15T03:49:44Z</time>
  <speed>2.960000</speed>
</trkpt>
<trkpt lat="32.743663788" lon="35.023235321">
  <ele>357.557129</ele>
  <time>2011-07-15T03:49:45Z</time>
  <speed>3.490000</speed>
</trkpt>
<trkpt lat="32.743698120" lon="35.023223877">
  <ele>357.830566</ele>
  <time>2011-07-15T03:49:46Z</time>
  <speed>3.320000</speed>
</trkpt>
<trkpt lat="32.743747711" lon="35.023208618">
  <ele>357.658691</ele>
  <time>2011-07-15T03:49:48Z</time>
  <speed>2.370000</speed>
</trkpt>
<trkpt lat="32.743778229" lon="35.023181915">
  <ele>359.361816</ele>
  <time>2011-07-15T03:49:50Z</time>
  <speed>1.650000</speed>
</trkpt>
<trkpt lat="32.743812561" lon="35.023166656">
  <ele>359.424316</ele>
  <time>2011-07-15T03:49:53Z</time>
  <speed>1.110000</speed>
</trkpt>
<trkpt lat="32.743850708" lon="35.023151398">
  <ele>358.619629</ele>
  <time>2011-07-15T03:49:56Z</time>
  <speed>1.950000</speed>
</trkpt>
<trkpt lat="32.743888855" lon="35.023136139">
  <ele>359.010254</ele>
  <time>2011-07-15T03:49:58Z</time>
  <speed>2.480000</speed>
</trkpt>
<trkpt lat="32.743934631" lon="35.023120880">
  <ele>359.572754</ele>
  <time>2011-07-15T03:50:00Z</time>
  <speed>2.820000</speed>
</trkpt>
<trkpt lat="32.743965149" lon="35.023109436">
  <ele>360.369629</ele>
  <time>2011-07-15T03:50:01Z</time>
  <speed>3.380000</speed>
</trkpt>
<trkpt lat="32.743995667" lon="35.023090363">
  <ele>360.916504</ele>
  <time>2011-07-15T03:50:02Z</time>
  <speed>3.830000</speed>
</trkpt>
<trkpt lat="32.744026184" lon="35.023082733">
  <ele>361.002441</ele>
  <time>2011-07-15T03:50:03Z</time>
  <speed>3.250000</speed>
</trkpt>
<trkpt lat="32.744068146" lon="35.023063660">
  <ele>361.322754</ele>
  <time>2011-07-15T03:50:05Z</time>
  <speed>1.980000</speed>
</trkpt>
<trkpt lat="32.744102478" lon="35.023029327">
  <ele>361.072754</ele>
  <time>2011-07-15T03:50:07Z</time>
  <speed>2.690000</speed>
</trkpt>
<trkpt lat="32.744132996" lon="35.022991180">
  <ele>361.666504</ele>
  <time>2011-07-15T03:50:09Z</time>
  <speed>2.580000</speed>
</trkpt>
<trkpt lat="32.744167328" lon="35.022964478">
  <ele>361.908691</ele>
  <time>2011-07-15T03:50:11Z</time>
  <speed>2.060000</speed>
</trkpt>
<trkpt lat="32.744201660" lon="35.022945404">
  <ele>362.221191</ele>
  <time>2011-07-15T03:50:13Z</time>
  <speed>1.930000</speed>
</trkpt>
<trkpt lat="32.744239807" lon="35.022922516">
  <ele>361.463379</ele>
  <time>2011-07-15T03:50:15Z</time>
  <speed>2.450000</speed>
</trkpt>
<trkpt lat="32.744274139" lon="35.022891998">
  <ele>361.838379</ele>
  <time>2011-07-15T03:50:17Z</time>
  <speed>2.230000</speed>
</trkpt>
<trkpt lat="32.744289398" lon="35.022834778">
  <ele>362.510254</ele>
  <time>2011-07-15T03:50:19Z</time>
  <speed>2.460000</speed>
</trkpt>
<trkpt lat="32.744319916" lon="35.022792816">
  <ele>362.939941</ele>
  <time>2011-07-15T03:50:21Z</time>
  <speed>2.370000</speed>
</trkpt>
<trkpt lat="32.744354248" lon="35.022762299">
  <ele>363.393066</ele>
  <time>2011-07-15T03:50:23Z</time>
  <speed>2.310000</speed>
</trkpt>
<trkpt lat="32.744388580" lon="35.022731781">
  <ele>362.627441</ele>
  <time>2011-07-15T03:50:25Z</time>
  <speed>2.070000</speed>
</trkpt>
<trkpt lat="32.744415283" lon="35.022708893">
  <ele>361.893066</ele>
  <time>2011-07-15T03:50:27Z</time>
  <speed>1.850000</speed>
</trkpt>
<trkpt lat="32.744445801" lon="35.022689819">
  <ele>361.775879</ele>
  <time>2011-07-15T03:50:29Z</time>
  <speed>1.800000</speed>
</trkpt>
<trkpt lat="32.744472504" lon="35.022666931">
  <ele>361.205566</ele>
  <time>2011-07-15T03:50:31Z</time>
  <speed>1.970000</speed>
</trkpt>
<trkpt lat="32.744495392" lon="35.022636414">
  <ele>360.510254</ele>
  <time>2011-07-15T03:50:33Z</time>
  <speed>2.130000</speed>
</trkpt>
<trkpt lat="32.744522095" lon="35.022613525">
  <ele>360.721191</ele>
  <time>2011-07-15T03:50:35Z</time>
  <speed>2.010000</speed>
</trkpt>
<trkpt lat="32.744541168" lon="35.022586823">
  <ele>361.682129</ele>
  <time>2011-07-15T03:50:37Z</time>
  <speed>1.730000</speed>
</trkpt>
<trkpt lat="32.744560242" lon="35.022556305">
  <ele>361.760254</ele>
  <time>2011-07-15T03:50:39Z</time>
  <speed>1.870000</speed>
</trkpt>
<trkpt lat="32.744579315" lon="35.022521973">
  <ele>362.025879</ele>
  <time>2011-07-15T03:50:41Z</time>
  <speed>1.910000</speed>
</trkpt>
<trkpt lat="32.744594574" lon="35.022487640">
  <ele>362.494629</ele>
  <time>2011-07-15T03:50:43Z</time>
  <speed>1.960000</speed>
</trkpt>
<trkpt lat="32.744621277" lon="35.022472382">
  <ele>362.525879</ele>
  <time>2011-07-15T03:50:45Z</time>
  <speed>1.910000</speed>
</trkpt>
<trkpt lat="32.744640350" lon="35.022434235">
  <ele>362.400879</ele>
  <time>2011-07-15T03:50:47Z</time>
  <speed>1.990000</speed>
</trkpt>
<trkpt lat="32.744663239" lon="35.022399902">
  <ele>362.439941</ele>
  <time>2011-07-15T03:50:49Z</time>
  <speed>1.870000</speed>
</trkpt>
<trkpt lat="32.744674683" lon="35.022361755">
  <ele>362.916504</ele>
  <time>2011-07-15T03:50:51Z</time>
  <speed>1.710000</speed>
</trkpt>
<trkpt lat="32.744701385" lon="35.022338867">
  <ele>363.463379</ele>
  <time>2011-07-15T03:50:53Z</time>
  <speed>1.760000</speed>
</trkpt>
<trkpt lat="32.744720459" lon="35.022312164">
  <ele>363.541504</ele>
  <time>2011-07-15T03:50:55Z</time>
  <speed>1.480000</speed>
</trkpt>
<trkpt lat="32.744743347" lon="35.022281647">
  <ele>363.361816</ele>
  <time>2011-07-15T03:50:57Z</time>
  <speed>1.710000</speed>
</trkpt>
<trkpt lat="32.744750977" lon="35.022235870">
  <ele>363.377441</ele>
  <time>2011-07-15T03:50:59Z</time>
  <speed>1.630000</speed>
</trkpt>
<trkpt lat="32.744773865" lon="35.022201538">
  <ele>364.150879</ele>
  <time>2011-07-15T03:51:01Z</time>
  <speed>1.640000</speed>
</trkpt>
<trkpt lat="32.744796753" lon="35.022174835">
  <ele>363.252441</ele>
  <time>2011-07-15T03:51:03Z</time>
  <speed>1.530000</speed>
</trkpt>
<trkpt lat="32.744808197" lon="35.022148132">
  <ele>362.666504</ele>
  <time>2011-07-15T03:51:05Z</time>
  <speed>1.390000</speed>
</trkpt>
<trkpt lat="32.744819641" lon="35.022117615">
  <ele>363.119629</ele>
  <time>2011-07-15T03:51:07Z</time>
  <speed>1.350000</speed>
</trkpt>
<trkpt lat="32.744834900" lon="35.022087097">
  <ele>362.775879</ele>
  <time>2011-07-15T03:51:09Z</time>
  <speed>1.690000</speed>
</trkpt>
<trkpt lat="32.744846344" lon="35.022052765">
  <ele>362.877441</ele>
  <time>2011-07-15T03:51:11Z</time>
  <speed>1.430000</speed>
</trkpt>
<trkpt lat="32.744857788" lon="35.022018433">
  <ele>363.393066</ele>
  <time>2011-07-15T03:51:13Z</time>
  <speed>1.640000</speed>
</trkpt>
<trkpt lat="32.744873047" lon="35.021987915">
  <ele>363.229004</ele>
  <time>2011-07-15T03:51:15Z</time>
  <speed>1.840000</speed>
</trkpt>
<trkpt lat="32.744892120" lon="35.021945953">
  <ele>363.596191</ele>
  <time>2011-07-15T03:51:17Z</time>
  <speed>1.790000</speed>
</trkpt>
<trkpt lat="32.744918823" lon="35.021903992">
  <ele>363.830566</ele>
  <time>2011-07-15T03:51:19Z</time>
  <speed>2.230000</speed>
</trkpt>
<trkpt lat="32.744941711" lon="35.021865845">
  <ele>363.697754</ele>
  <time>2011-07-15T03:51:21Z</time>
  <speed>2.430000</speed>
</trkpt>
<trkpt lat="32.744976044" lon="35.021827698">
  <ele>363.518066</ele>
  <time>2011-07-15T03:51:23Z</time>
  <speed>2.450000</speed>
</trkpt>
<trkpt lat="32.745014191" lon="35.021778107">
  <ele>362.658691</ele>
  <time>2011-07-15T03:51:25Z</time>
  <speed>2.780000</speed>
</trkpt>
<trkpt lat="32.745044708" lon="35.021759033">
  <ele>362.955566</ele>
  <time>2011-07-15T03:51:26Z</time>
  <speed>2.890000</speed>
</trkpt>
<trkpt lat="32.745071411" lon="35.021751404">
  <ele>362.830566</ele>
  <time>2011-07-15T03:51:27Z</time>
  <speed>2.890000</speed>
</trkpt>
<trkpt lat="32.745117188" lon="35.021747589">
  <ele>361.963379</ele>
  <time>2011-07-15T03:51:29Z</time>
  <speed>1.900000</speed>
</trkpt>
<trkpt lat="32.745155334" lon="35.021759033">
  <ele>361.580566</ele>
  <time>2011-07-15T03:51:32Z</time>
  <speed>1.990000</speed>
</trkpt>
<trkpt lat="32.745193481" lon="35.021781921">
  <ele>361.502441</ele>
  <time>2011-07-15T03:51:34Z</time>
  <speed>2.340000</speed>
</trkpt>
<trkpt lat="32.745227814" lon="35.021804810">
  <ele>362.236816</ele>
  <time>2011-07-15T03:51:36Z</time>
  <speed>2.080000</speed>
</trkpt>
<trkpt lat="32.745258331" lon="35.021820068">
  <ele>363.557129</ele>
  <time>2011-07-15T03:51:38Z</time>
  <speed>1.180000</speed>
</trkpt>
<trkpt lat="32.745285034" lon="35.021842957">
  <ele>363.205566</ele>
  <time>2011-07-15T03:51:40Z</time>
  <speed>1.840000</speed>
</trkpt>
<trkpt lat="32.745311737" lon="35.021873474">
  <ele>364.400879</ele>
  <time>2011-07-15T03:51:43Z</time>
  <speed>1.820000</speed>
</trkpt>
<trkpt lat="32.745323181" lon="35.021903992">
  <ele>364.643066</ele>
  <time>2011-07-15T03:51:45Z</time>
  <speed>1.040000</speed>
</trkpt>
<trkpt lat="32.745338440" lon="35.021934509">
  <ele>365.611816</ele>
  <time>2011-07-15T03:51:55Z</time>
  <speed>0.700000</speed>
</trkpt>
<trkpt lat="32.745365143" lon="35.021953583">
  <ele>365.760254</ele>
  <time>2011-07-15T03:52:00Z</time>
  <speed>0.870000</speed>
</trkpt>
<trkpt lat="32.745391846" lon="35.021968842">
  <ele>365.963379</ele>
  <time>2011-07-15T03:52:04Z</time>
  <speed>0.950000</speed>
</trkpt>
<trkpt lat="32.745414734" lon="35.021984100">
  <ele>366.814941</ele>
  <time>2011-07-15T03:52:09Z</time>
  <speed>0.160000</speed>
</trkpt>
<trkpt lat="32.745445251" lon="35.022006989">
  <ele>366.783691</ele>
  <time>2011-07-15T03:52:12Z</time>
  <speed>0.840000</speed>
</trkpt>
<trkpt lat="32.745491028" lon="35.022022247">
  <ele>367.549316</ele>
  <time>2011-07-15T03:52:15Z</time>
  <speed>1.690000</speed>
</trkpt>
<trkpt lat="32.745510101" lon="35.022048950">
  <ele>367.619629</ele>
  <time>2011-07-15T03:52:17Z</time>
  <speed>1.450000</speed>
</trkpt>
<trkpt lat="32.745521545" lon="35.022083282">
  <ele>368.119629</ele>
  <time>2011-07-15T03:52:19Z</time>
  <speed>1.550000</speed>
</trkpt>
<trkpt lat="32.745548248" lon="35.022113800">
  <ele>369.096191</ele>
  <time>2011-07-15T03:52:22Z</time>
  <speed>1.250000</speed>
</trkpt>
<trkpt lat="32.745571136" lon="35.022132874">
  <ele>370.447754</ele>
  <time>2011-07-15T03:52:25Z</time>
  <speed>1.520000</speed>
</trkpt>
<trkpt lat="32.745597839" lon="35.022155762">
  <ele>371.088379</ele>
  <time>2011-07-15T03:52:27Z</time>
  <speed>1.590000</speed>
</trkpt>
<trkpt lat="32.745628357" lon="35.022171021">
  <ele>371.127441</ele>
  <time>2011-07-15T03:52:30Z</time>
  <speed>1.550000</speed>
</trkpt>
<trkpt lat="32.745662689" lon="35.022190094">
  <ele>371.221191</ele>
  <time>2011-07-15T03:52:32Z</time>
  <speed>1.560000</speed>
</trkpt>
<trkpt lat="32.745697021" lon="35.022201538">
  <ele>371.252441</ele>
  <time>2011-07-15T03:52:35Z</time>
  <speed>1.430000</speed>
</trkpt>
<trkpt lat="32.745719910" lon="35.022243500">
  <ele>371.393066</ele>
  <time>2011-07-15T03:52:38Z</time>
  <speed>1.550000</speed>
</trkpt>
<trkpt lat="32.745731354" lon="35.022274017">
  <ele>371.830566</ele>
  <time>2011-07-15T03:52:40Z</time>
  <speed>1.430000</speed>
</trkpt>
<trkpt lat="32.745754242" lon="35.022304535">
  <ele>372.510254</ele>
  <time>2011-07-15T03:52:42Z</time>
  <speed>1.380000</speed>
</trkpt>
<trkpt lat="32.745750427" lon="35.022342682">
  <ele>373.143066</ele>
  <time>2011-07-15T03:52:45Z</time>
  <speed>1.590000</speed>
</trkpt>
<trkpt lat="32.745723724" lon="35.022365570">
  <ele>373.213379</ele>
  <time>2011-07-15T03:52:47Z</time>
  <speed>1.750000</speed>
</trkpt>
<trkpt lat="32.745700836" lon="35.022380829">
  <ele>373.971191</ele>
  <time>2011-07-15T03:52:49Z</time>
  <speed>1.420000</speed>
</trkpt>
<trkpt lat="32.745666504" lon="35.022377014">
  <ele>373.916504</ele>
  <time>2011-07-15T03:52:52Z</time>
  <speed>1.560000</speed>
</trkpt>
<trkpt lat="32.745639801" lon="35.022373199">
  <ele>374.174316</ele>
  <time>2011-07-15T03:52:54Z</time>
  <speed>1.030000</speed>
</trkpt>
<trkpt lat="32.745605469" lon="35.022369385">
  <ele>375.502441</ele>
  <time>2011-07-15T03:52:56Z</time>
  <speed>1.710000</speed>
</trkpt>
<trkpt lat="32.745571136" lon="35.022354126">
  <ele>375.424316</ele>
  <time>2011-07-15T03:52:59Z</time>
  <speed>1.640000</speed>
</trkpt>
<trkpt lat="32.745532990" lon="35.022350311">
  <ele>375.791504</ele>
  <time>2011-07-15T03:53:01Z</time>
  <speed>1.530000</speed>
</trkpt>
<trkpt lat="32.745506287" lon="35.022346497">
  <ele>375.869629</ele>
  <time>2011-07-15T03:53:03Z</time>
  <speed>1.520000</speed>
</trkpt>
<trkpt lat="32.745479584" lon="35.022361755">
  <ele>376.182129</ele>
  <time>2011-07-15T03:53:05Z</time>
  <speed>1.160000</speed>
</trkpt>
<trkpt lat="32.745452881" lon="35.022365570">
  <ele>375.768066</ele>
  <time>2011-07-15T03:53:07Z</time>
  <speed>1.530000</speed>
</trkpt>
<trkpt lat="32.745414734" lon="35.022384644">
  <ele>376.049316</ele>
  <time>2011-07-15T03:53:10Z</time>
  <speed>1.360000</speed>
</trkpt>
<trkpt lat="32.745395660" lon="35.022426605">
  <ele>375.502441</ele>
  <time>2011-07-15T03:53:13Z</time>
  <speed>1.080000</speed>
</trkpt>
<trkpt lat="32.745391846" lon="35.022464752">
  <ele>377.299316</ele>
  <time>2011-07-15T03:53:15Z</time>
  <speed>1.410000</speed>
</trkpt>
<trkpt lat="32.745399475" lon="35.022495270">
  <ele>377.932129</ele>
  <time>2011-07-15T03:53:17Z</time>
  <speed>1.610000</speed>
</trkpt>
<trkpt lat="32.745410919" lon="35.022533417">
  <ele>378.197754</ele>
  <time>2011-07-15T03:53:19Z</time>
  <speed>1.160000</speed>
</trkpt>
<trkpt lat="32.745429993" lon="35.022560120">
  <ele>378.861816</ele>
  <time>2011-07-15T03:53:21Z</time>
  <speed>1.350000</speed>
</trkpt>
<trkpt lat="32.745456696" lon="35.022583008">
  <ele>379.666504</ele>
  <time>2011-07-15T03:53:23Z</time>
  <speed>1.220000</speed>
</trkpt>
<trkpt lat="32.745483398" lon="35.022613525">
  <ele>380.205566</ele>
  <time>2011-07-15T03:53:26Z</time>
  <speed>1.100000</speed>
</trkpt>
<trkpt lat="32.745498657" lon="35.022651672">
  <ele>380.236816</ele>
  <time>2011-07-15T03:53:28Z</time>
  <speed>1.310000</speed>
</trkpt>
<trkpt lat="32.745525360" lon="35.022686005">
  <ele>380.322754</ele>
  <time>2011-07-15T03:53:31Z</time>
  <speed>1.840000</speed>
</trkpt>
<trkpt lat="32.745552063" lon="35.022712708">
  <ele>380.588379</ele>
  <time>2011-07-15T03:53:33Z</time>
  <speed>1.080000</speed>
</trkpt>
<trkpt lat="32.745574951" lon="35.022739410">
  <ele>380.994629</ele>
  <time>2011-07-15T03:53:36Z</time>
  <speed>1.040000</speed>
</trkpt>
<trkpt lat="32.745586395" lon="35.022773743">
  <ele>381.057129</ele>
  <time>2011-07-15T03:53:38Z</time>
  <speed>1.260000</speed>
</trkpt>
<trkpt lat="32.745601654" lon="35.022819519">
  <ele>381.213379</ele>
  <time>2011-07-15T03:53:41Z</time>
  <speed>1.610000</speed>
</trkpt>
<trkpt lat="32.745616913" lon="35.022850037">
  <ele>381.143066</ele>
  <time>2011-07-15T03:53:44Z</time>
  <speed>1.880000</speed>
</trkpt>
<trkpt lat="32.745639801" lon="35.022876740">
  <ele>380.908691</ele>
  <time>2011-07-15T03:53:46Z</time>
  <speed>1.630000</speed>
</trkpt>
<trkpt lat="32.745658875" lon="35.022907257">
  <ele>381.150879</ele>
  <time>2011-07-15T03:53:48Z</time>
  <speed>1.330000</speed>
</trkpt>
<trkpt lat="32.745658875" lon="35.022941589">
  <ele>380.510254</ele>
  <time>2011-07-15T03:53:52Z</time>
  <speed>0.740000</speed>
</trkpt>
<trkpt lat="32.745666504" lon="35.022972107">
  <ele>380.533691</ele>
  <time>2011-07-15T03:53:58Z</time>
  <speed>0.460000</speed>
</trkpt>
<trkpt lat="32.745689392" lon="35.023006439">
  <ele>381.275879</ele>
  <time>2011-07-15T03:54:04Z</time>
  <speed>1.120000</speed>
</trkpt>
<trkpt lat="32.745693207" lon="35.023052216">
  <ele>382.221191</ele>
  <time>2011-07-15T03:54:07Z</time>
  <speed>1.400000</speed>
</trkpt>
<trkpt lat="32.745708466" lon="35.023094177">
  <ele>382.291504</ele>
  <time>2011-07-15T03:54:09Z</time>
  <speed>1.250000</speed>
</trkpt>
<trkpt lat="32.745719910" lon="35.023124695">
  <ele>383.916504</ele>
  <time>2011-07-15T03:54:11Z</time>
  <speed>1.310000</speed>
</trkpt>
<trkpt lat="32.745727539" lon="35.023155212">
  <ele>384.869629</ele>
  <time>2011-07-15T03:54:13Z</time>
  <speed>1.580000</speed>
</trkpt>
<trkpt lat="32.745735168" lon="35.023185730">
  <ele>385.432129</ele>
  <time>2011-07-15T03:54:15Z</time>
  <speed>1.590000</speed>
</trkpt>
<trkpt lat="32.745746613" lon="35.023223877">
  <ele>385.658691</ele>
  <time>2011-07-15T03:54:18Z</time>
  <speed>1.520000</speed>
</trkpt>
<trkpt lat="32.745723724" lon="35.023258209">
  <ele>386.205566</ele>
  <time>2011-07-15T03:54:21Z</time>
  <speed>1.410000</speed>
</trkpt>
<trkpt lat="32.745731354" lon="35.023303986">
  <ele>385.963379</ele>
  <time>2011-07-15T03:54:24Z</time>
  <speed>1.370000</speed>
</trkpt>
<trkpt lat="32.745716095" lon="35.023330688">
  <ele>386.291504</ele>
  <time>2011-07-15T03:54:26Z</time>
  <speed>1.170000</speed>
</trkpt>
<trkpt lat="32.745719910" lon="35.023380280">
  <ele>387.072754</ele>
  <time>2011-07-15T03:54:29Z</time>
  <speed>1.350000</speed>
</trkpt>
<trkpt lat="32.745731354" lon="35.023406982">
  <ele>387.314941</ele>
  <time>2011-07-15T03:54:31Z</time>
  <speed>1.050000</speed>
</trkpt>
<trkpt lat="32.745735168" lon="35.023448944">
  <ele>388.229004</ele>
  <time>2011-07-15T03:54:36Z</time>
  <speed>0.990000</speed>
</trkpt>
<trkpt lat="32.745738983" lon="35.023490906">
  <ele>389.002441</ele>
  <time>2011-07-15T03:54:39Z</time>
  <speed>1.270000</speed>
</trkpt>
<trkpt lat="32.745746613" lon="35.023529053">
  <ele>389.111816</ele>
  <time>2011-07-15T03:54:42Z</time>
  <speed>1.500000</speed>
</trkpt>
<trkpt lat="32.745754242" lon="35.023559570">
  <ele>388.736816</ele>
  <time>2011-07-15T03:54:45Z</time>
  <speed>0.960000</speed>
</trkpt>
<trkpt lat="32.745735168" lon="35.023532867">
  <ele>389.377441</ele>
  <time>2011-07-15T03:54:56Z</time>
  <speed>0.430000</speed>
</trkpt>
<trkpt lat="32.745704651" lon="35.023540497">
  <ele>390.135254</ele>
  <time>2011-07-15T03:54:59Z</time>
  <speed>0.830000</speed>
</trkpt>
<trkpt lat="32.745700836" lon="35.023578644">
  <ele>389.635254</ele>
  <time>2011-07-15T03:55:04Z</time>
  <speed>0.760000</speed>
</trkpt>
<trkpt lat="32.745708466" lon="35.023612976">
  <ele>389.291504</ele>
  <time>2011-07-15T03:55:07Z</time>
  <speed>0.840000</speed>
</trkpt>
<trkpt lat="32.745735168" lon="35.023654938">
  <ele>389.510254</ele>
  <time>2011-07-15T03:55:10Z</time>
  <speed>0.910000</speed>
</trkpt>
<trkpt lat="32.745742798" lon="35.023685455">
  <ele>388.955566</ele>
  <time>2011-07-15T03:55:14Z</time>
  <speed>0.770000</speed>
</trkpt>
<trkpt lat="32.745742798" lon="35.023715973">
  <ele>389.994629</ele>
  <time>2011-07-15T03:55:18Z</time>
  <speed>0.810000</speed>
</trkpt>
<trkpt lat="32.745761871" lon="35.023750305">
  <ele>390.307129</ele>
  <time>2011-07-15T03:55:23Z</time>
  <speed>0.900000</speed>
</trkpt>
<trkpt lat="32.745769501" lon="35.023792267">
  <ele>390.736816</ele>
  <time>2011-07-15T03:57:30Z</time>
  <speed>1.280000</speed>
</trkpt>
<trkpt lat="32.745796204" lon="35.023830414">
  <ele>391.221191</ele>
  <time>2011-07-15T03:57:32Z</time>
  <speed>2.040000</speed>
</trkpt>
<trkpt lat="32.745811462" lon="35.023860931">
  <ele>390.596191</ele>
  <time>2011-07-15T03:57:33Z</time>
  <speed>2.470000</speed>
</trkpt>
<trkpt lat="32.745822906" lon="35.023895264">
  <ele>390.510254</ele>
  <time>2011-07-15T03:57:34Z</time>
  <speed>2.510000</speed>
</trkpt>
<trkpt lat="32.745845795" lon="35.023933411">
  <ele>390.229004</ele>
  <time>2011-07-15T03:57:35Z</time>
  <speed>3.180000</speed>
</trkpt>
<trkpt lat="32.745861053" lon="35.023960114">
  <ele>390.861816</ele>
  <time>2011-07-15T03:57:36Z</time>
  <speed>3.390000</speed>
</trkpt>
<trkpt lat="32.745895386" lon="35.023998260">
  <ele>390.533691</ele>
  <time>2011-07-15T03:57:37Z</time>
  <speed>3.400000</speed>
</trkpt>
<trkpt lat="32.745906830" lon="35.024032593">
  <ele>390.729004</ele>
  <time>2011-07-15T03:57:38Z</time>
  <speed>2.980000</speed>
</trkpt>
<trkpt lat="32.745914459" lon="35.024082184">
  <ele>391.291504</ele>
  <time>2011-07-15T03:57:40Z</time>
  <speed>1.890000</speed>
</trkpt>
<trkpt lat="32.745937347" lon="35.024131775">
  <ele>391.908691</ele>
  <time>2011-07-15T03:57:42Z</time>
  <speed>1.920000</speed>
</trkpt>
<trkpt lat="32.745956421" lon="35.024177551">
  <ele>392.158691</ele>
  <time>2011-07-15T03:57:44Z</time>
  <speed>2.280000</speed>
</trkpt>
<trkpt lat="32.745975494" lon="35.024223328">
  <ele>392.299316</ele>
  <time>2011-07-15T03:57:46Z</time>
  <speed>2.350000</speed>
</trkpt>
<trkpt lat="32.745990753" lon="35.024269104">
  <ele>393.244629</ele>
  <time>2011-07-15T03:57:48Z</time>
  <speed>2.150000</speed>
</trkpt>
<trkpt lat="32.746006012" lon="35.024295807">
  <ele>393.658691</ele>
  <time>2011-07-15T03:57:49Z</time>
  <speed>2.440000</speed>
</trkpt>
<trkpt lat="32.746036530" lon="35.024341583">
  <ele>394.283691</ele>
  <time>2011-07-15T03:57:51Z</time>
  <speed>2.110000</speed>
</trkpt>
<trkpt lat="32.746063232" lon="35.024364471">
  <ele>394.057129</ele>
  <time>2011-07-15T03:57:52Z</time>
  <speed>2.060000</speed>
</trkpt>
<trkpt lat="32.746089935" lon="35.024398804">
  <ele>395.189941</ele>
  <time>2011-07-15T03:57:54Z</time>
  <speed>2.210000</speed>
</trkpt>
<trkpt lat="32.746131897" lon="35.024417877">
  <ele>396.471191</ele>
  <time>2011-07-15T03:57:55Z</time>
  <speed>2.550000</speed>
</trkpt>
<trkpt lat="32.746173859" lon="35.024440765">
  <ele>397.385254</ele>
  <time>2011-07-15T03:57:57Z</time>
  <speed>2.420000</speed>
</trkpt>
<trkpt lat="32.746200562" lon="35.024467468">
  <ele>397.471191</ele>
  <time>2011-07-15T03:57:59Z</time>
  <speed>2.310000</speed>
</trkpt>
<trkpt lat="32.746234894" lon="35.024486542">
  <ele>398.150879</ele>
  <time>2011-07-15T03:58:01Z</time>
  <speed>2.270000</speed>
</trkpt>
<trkpt lat="32.746276855" lon="35.024486542">
  <ele>398.791504</ele>
  <time>2011-07-15T03:58:03Z</time>
  <speed>2.120000</speed>
</trkpt>
<trkpt lat="32.746318817" lon="35.024482727">
  <ele>399.682129</ele>
  <time>2011-07-15T03:58:05Z</time>
  <speed>2.290000</speed>
</trkpt>
<trkpt lat="32.746364594" lon="35.024478912">
  <ele>399.158691</ele>
  <time>2011-07-15T03:58:07Z</time>
  <speed>2.610000</speed>
</trkpt>
<trkpt lat="32.746410370" lon="35.024471283">
  <ele>399.705566</ele>
  <time>2011-07-15T03:58:09Z</time>
  <speed>2.590000</speed>
</trkpt>
<trkpt lat="32.746448517" lon="35.024471283">
  <ele>399.674316</ele>
  <time>2011-07-15T03:58:11Z</time>
  <speed>2.660000</speed>
</trkpt>
<trkpt lat="32.746494293" lon="35.024475098">
  <ele>399.377441</ele>
  <time>2011-07-15T03:58:13Z</time>
  <speed>2.370000</speed>
</trkpt>
<trkpt lat="32.746520996" lon="35.024475098">
  <ele>398.986816</ele>
  <time>2011-07-15T03:58:14Z</time>
  <speed>2.670000</speed>
</trkpt>
<trkpt lat="32.746551514" lon="35.024486542">
  <ele>398.846191</ele>
  <time>2011-07-15T03:58:15Z</time>
  <speed>2.590000</speed>
</trkpt>
<trkpt lat="32.746597290" lon="35.024497986">
  <ele>398.869629</ele>
  <time>2011-07-15T03:58:17Z</time>
  <speed>2.660000</speed>
</trkpt>
<trkpt lat="32.746631622" lon="35.024528503">
  <ele>397.947754</ele>
  <time>2011-07-15T03:58:19Z</time>
  <speed>2.360000</speed>
</trkpt>
<trkpt lat="32.746669769" lon="35.024566650">
  <ele>396.361816</ele>
  <time>2011-07-15T03:58:21Z</time>
  <speed>2.420000</speed>
</trkpt>
<trkpt lat="32.746711731" lon="35.024574280">
  <ele>396.338379</ele>
  <time>2011-07-15T03:58:23Z</time>
  <speed>2.170000</speed>
</trkpt>
<trkpt lat="32.746753693" lon="35.024589539">
  <ele>396.768066</ele>
  <time>2011-07-15T03:58:25Z</time>
  <speed>2.390000</speed>
</trkpt>
<trkpt lat="32.746791840" lon="35.024597168">
  <ele>396.666504</ele>
  <time>2011-07-15T03:58:27Z</time>
  <speed>1.800000</speed>
</trkpt>
<trkpt lat="32.746818542" lon="35.024604797">
  <ele>396.104004</ele>
  <time>2011-07-15T03:58:29Z</time>
  <speed>1.070000</speed>
</trkpt>
<trkpt lat="32.746845245" lon="35.024612427">
  <ele>395.486816</ele>
  <time>2011-07-15T03:58:34Z</time>
  <speed>0.540000</speed>
</trkpt>
<trkpt lat="32.746868134" lon="35.024639130">
  <ele>395.158691</ele>
  <time>2011-07-15T03:58:37Z</time>
  <speed>1.070000</speed>
</trkpt>
<trkpt lat="32.746898651" lon="35.024642944">
  <ele>396.697754</ele>
  <time>2011-07-15T03:58:40Z</time>
  <speed>0.770000</speed>
</trkpt>
<trkpt lat="32.746925354" lon="35.024662018">
  <ele>397.072754</ele>
  <time>2011-07-15T03:58:43Z</time>
  <speed>1.250000</speed>
</trkpt>
<trkpt lat="32.746959686" lon="35.024681091">
  <ele>397.658691</ele>
  <time>2011-07-15T03:58:45Z</time>
  <speed>1.690000</speed>
</trkpt>
<trkpt lat="32.746990204" lon="35.024700165">
  <ele>398.416504</ele>
  <time>2011-07-15T03:58:47Z</time>
  <speed>1.640000</speed>
</trkpt>
<trkpt lat="32.747020721" lon="35.024723053">
  <ele>398.783691</ele>
  <time>2011-07-15T03:58:49Z</time>
  <speed>1.450000</speed>
</trkpt>
<trkpt lat="32.747055054" lon="35.024734497">
  <ele>398.807129</ele>
  <time>2011-07-15T03:58:51Z</time>
  <speed>1.280000</speed>
</trkpt>
<trkpt lat="32.747081757" lon="35.024742126">
  <ele>399.322754</ele>
  <time>2011-07-15T03:58:53Z</time>
  <speed>1.300000</speed>
</trkpt>
<trkpt lat="32.747077942" lon="35.024787903">
  <ele>398.682129</ele>
  <time>2011-07-15T03:58:55Z</time>
  <speed>1.360000</speed>
</trkpt>
<trkpt lat="32.747097015" lon="35.024814606">
  <ele>399.143066</ele>
  <time>2011-07-15T03:58:57Z</time>
  <speed>1.080000</speed>
</trkpt>
<trkpt lat="32.747131348" lon="35.024837494">
  <ele>400.471191</ele>
  <time>2011-07-15T03:58:59Z</time>
  <speed>2.000000</speed>
</trkpt>
<trkpt lat="32.747173309" lon="35.024868011">
  <ele>399.900879</ele>
  <time>2011-07-15T03:59:01Z</time>
  <speed>1.460000</speed>
</trkpt>
<trkpt lat="32.747203827" lon="35.024879456">
  <ele>400.666504</ele>
  <time>2011-07-15T03:59:03Z</time>
  <speed>0.790000</speed>
</trkpt>
<trkpt lat="32.747245789" lon="35.024883270">
  <ele>401.494629</ele>
  <time>2011-07-15T03:59:06Z</time>
  <speed>1.180000</speed>
</trkpt>
<trkpt lat="32.747283936" lon="35.024890900">
  <ele>402.361816</ele>
  <time>2011-07-15T03:59:08Z</time>
  <speed>1.350000</speed>
</trkpt>
<trkpt lat="32.747310638" lon="35.024894714">
  <ele>403.354004</ele>
  <time>2011-07-15T03:59:10Z</time>
  <speed>1.350000</speed>
</trkpt>
<trkpt lat="32.747337341" lon="35.024902344">
  <ele>404.611816</ele>
  <time>2011-07-15T03:59:12Z</time>
  <speed>1.490000</speed>
</trkpt>
<trkpt lat="32.747364044" lon="35.024883270">
  <ele>404.916504</ele>
  <time>2011-07-15T03:59:14Z</time>
  <speed>1.710000</speed>
</trkpt>
<trkpt lat="32.747394562" lon="35.024871826">
  <ele>405.416504</ele>
  <time>2011-07-15T03:59:15Z</time>
  <speed>2.420000</speed>
</trkpt>
<trkpt lat="32.747425079" lon="35.024864197">
  <ele>406.252441</ele>
  <time>2011-07-15T03:59:16Z</time>
  <speed>3.030000</speed>
</trkpt>
<trkpt lat="32.747463226" lon="35.024852753">
  <ele>406.260254</ele>
  <time>2011-07-15T03:59:17Z</time>
  <speed>3.120000</speed>
</trkpt>
<trkpt lat="32.747497559" lon="35.024845123">
  <ele>406.346191</ele>
  <time>2011-07-15T03:59:18Z</time>
  <speed>3.670000</speed>
</trkpt>
<trkpt lat="32.747543335" lon="35.024845123">
  <ele>406.400879</ele>
  <time>2011-07-15T03:59:19Z</time>
  <speed>3.540000</speed>
</trkpt>
<trkpt lat="32.747577667" lon="35.024841309">
  <ele>406.338379</ele>
  <time>2011-07-15T03:59:20Z</time>
  <speed>3.240000</speed>
</trkpt>
<trkpt lat="32.747608185" lon="35.024833679">
  <ele>406.893066</ele>
  <time>2011-07-15T03:59:21Z</time>
  <speed>3.140000</speed>
</trkpt>
<trkpt lat="32.747634888" lon="35.024833679">
  <ele>407.119629</ele>
  <time>2011-07-15T03:59:22Z</time>
  <speed>3.010000</speed>
</trkpt>
<trkpt lat="32.747673035" lon="35.024837494">
  <ele>406.713379</ele>
  <time>2011-07-15T03:59:23Z</time>
  <speed>3.010000</speed>
</trkpt>
<trkpt lat="32.747703552" lon="35.024826050">
  <ele>407.846191</ele>
  <time>2011-07-15T03:59:24Z</time>
  <speed>2.540000</speed>
</trkpt>
<trkpt lat="32.747753143" lon="35.024803162">
  <ele>408.221191</ele>
  <time>2011-07-15T03:59:26Z</time>
  <speed>3.340000</speed>
</trkpt>
<trkpt lat="32.747810364" lon="35.024768829">
  <ele>408.900879</ele>
  <time>2011-07-15T03:59:28Z</time>
  <speed>2.730000</speed>
</trkpt>
<trkpt lat="32.747833252" lon="35.024753571">
  <ele>408.697754</ele>
  <time>2011-07-15T03:59:29Z</time>
  <speed>3.040000</speed>
</trkpt>
<trkpt lat="32.747859955" lon="35.024738312">
  <ele>408.627441</ele>
  <time>2011-07-15T03:59:30Z</time>
  <speed>3.220000</speed>
</trkpt>
<trkpt lat="32.747882843" lon="35.024730682">
  <ele>407.174316</ele>
  <time>2011-07-15T03:59:31Z</time>
  <speed>2.440000</speed>
</trkpt>
<trkpt lat="32.747932434" lon="35.024719238">
  <ele>406.877441</ele>
  <time>2011-07-15T03:59:33Z</time>
  <speed>2.650000</speed>
</trkpt>
<trkpt lat="32.747974396" lon="35.024715424">
  <ele>407.307129</ele>
  <time>2011-07-15T03:59:35Z</time>
  <speed>2.450000</speed>
</trkpt>
<trkpt lat="32.748012543" lon="35.024723053">
  <ele>406.541504</ele>
  <time>2011-07-15T03:59:37Z</time>
  <speed>2.260000</speed>
</trkpt>
<trkpt lat="32.748058319" lon="35.024726868">
  <ele>405.479004</ele>
  <time>2011-07-15T03:59:39Z</time>
  <speed>2.440000</speed>
</trkpt>
<trkpt lat="32.748092651" lon="35.024734497">
  <ele>405.869629</ele>
  <time>2011-07-15T03:59:41Z</time>
  <speed>1.700000</speed>
</trkpt>
<trkpt lat="32.748130798" lon="35.024738312">
  <ele>406.541504</ele>
  <time>2011-07-15T03:59:43Z</time>
  <speed>2.230000</speed>
</trkpt>
<trkpt lat="32.748180389" lon="35.024734497">
  <ele>406.213379</ele>
  <time>2011-07-15T03:59:45Z</time>
  <speed>2.650000</speed>
</trkpt>
<trkpt lat="32.748222351" lon="35.024745941">
  <ele>405.822754</ele>
  <time>2011-07-15T03:59:47Z</time>
  <speed>1.920000</speed>
</trkpt>
<trkpt lat="32.748260498" lon="35.024749756">
  <ele>405.291504</ele>
  <time>2011-07-15T03:59:49Z</time>
  <speed>1.670000</speed>
</trkpt>
<trkpt lat="32.748298645" lon="35.024761200">
  <ele>405.643066</ele>
  <time>2011-07-15T03:59:51Z</time>
  <speed>1.910000</speed>
</trkpt>
<trkpt lat="32.748332977" lon="35.024768829">
  <ele>405.479004</ele>
  <time>2011-07-15T03:59:53Z</time>
  <speed>1.900000</speed>
</trkpt>
<trkpt lat="32.748363495" lon="35.024787903">
  <ele>405.291504</ele>
  <time>2011-07-15T03:59:55Z</time>
  <speed>1.630000</speed>
</trkpt>
<trkpt lat="32.748390198" lon="35.024803162">
  <ele>404.244629</ele>
  <time>2011-07-15T03:59:57Z</time>
  <speed>1.470000</speed>
</trkpt>
<trkpt lat="32.748424530" lon="35.024818420">
  <ele>404.486816</ele>
  <time>2011-07-15T04:00:00Z</time>
  <speed>1.260000</speed>
</trkpt>
<trkpt lat="32.748451233" lon="35.024833679">
  <ele>404.096191</ele>
  <time>2011-07-15T04:00:02Z</time>
  <speed>1.170000</speed>
</trkpt>
<trkpt lat="32.748477936" lon="35.024822235">
  <ele>405.814941</ele>
  <time>2011-07-15T04:00:05Z</time>
  <speed>1.770000</speed>
</trkpt>
<trkpt lat="32.748500824" lon="35.024848938">
  <ele>405.252441</ele>
  <time>2011-07-15T04:00:07Z</time>
  <speed>1.750000</speed>
</trkpt>
<trkpt lat="32.748519897" lon="35.024883270">
  <ele>406.057129</ele>
  <time>2011-07-15T04:00:09Z</time>
  <speed>2.170000</speed>
</trkpt>
<trkpt lat="32.748527527" lon="35.024925232">
  <ele>405.104004</ele>
  <time>2011-07-15T04:00:11Z</time>
  <speed>1.960000</speed>
</trkpt>
<trkpt lat="32.748523712" lon="35.024967194">
  <ele>404.307129</ele>
  <time>2011-07-15T04:00:13Z</time>
  <speed>2.100000</speed>
</trkpt>
<trkpt lat="32.748504639" lon="35.025020599">
  <ele>402.721191</ele>
  <time>2011-07-15T04:00:15Z</time>
  <speed>3.480000</speed>
</trkpt>
<trkpt lat="32.748481750" lon="35.025051117">
  <ele>402.369629</ele>
  <time>2011-07-15T04:00:16Z</time>
  <speed>3.930000</speed>
</trkpt>
<trkpt lat="32.748458862" lon="35.025077820">
  <ele>402.197754</ele>
  <time>2011-07-15T04:00:17Z</time>
  <speed>3.330000</speed>
</trkpt>
<trkpt lat="32.748432159" lon="35.025085449">
  <ele>401.822754</ele>
  <time>2011-07-15T04:00:18Z</time>
  <speed>2.430000</speed>
</trkpt>
<trkpt lat="32.748382568" lon="35.025081635">
  <ele>400.775879</ele>
  <time>2011-07-15T04:00:20Z</time>
  <speed>2.400000</speed>
</trkpt>
<trkpt lat="32.748359680" lon="35.025093079">
  <ele>399.924316</ele>
  <time>2011-07-15T04:00:21Z</time>
  <speed>2.790000</speed>
</trkpt>
<trkpt lat="32.748329163" lon="35.025096893">
  <ele>399.572754</ele>
  <time>2011-07-15T04:00:22Z</time>
  <speed>2.500000</speed>
</trkpt>
<trkpt lat="32.748306274" lon="35.025108337">
  <ele>398.760254</ele>
  <time>2011-07-15T04:00:23Z</time>
  <speed>3.090000</speed>
</trkpt>
<trkpt lat="32.748279572" lon="35.025115967">
  <ele>398.439941</ele>
  <time>2011-07-15T04:00:24Z</time>
  <speed>3.370000</speed>
</trkpt>
<trkpt lat="32.748249054" lon="35.025123596">
  <ele>398.252441</ele>
  <time>2011-07-15T04:00:25Z</time>
  <speed>3.100000</speed>
</trkpt>
<trkpt lat="32.748218536" lon="35.025131226">
  <ele>398.393066</ele>
  <time>2011-07-15T04:00:26Z</time>
  <speed>3.110000</speed>
</trkpt>
<trkpt lat="32.748191833" lon="35.025131226">
  <ele>399.158691</ele>
  <time>2011-07-15T04:00:27Z</time>
  <speed>2.570000</speed>
</trkpt>
<trkpt lat="32.748157501" lon="35.025131226">
  <ele>400.674316</ele>
  <time>2011-07-15T04:00:28Z</time>
  <speed>2.970000</speed>
</trkpt>
<trkpt lat="32.748104095" lon="35.025112152">
  <ele>400.799316</ele>
  <time>2011-07-15T04:00:30Z</time>
  <speed>2.620000</speed>
</trkpt>
<trkpt lat="32.748073578" lon="35.025123596">
  <ele>400.861816</ele>
  <time>2011-07-15T04:00:31Z</time>
  <speed>3.430000</speed>
</trkpt>
<trkpt lat="32.748054504" lon="35.025146484">
  <ele>399.963379</ele>
  <time>2011-07-15T04:00:32Z</time>
  <speed>3.180000</speed>
</trkpt>
<trkpt lat="32.748031616" lon="35.025173187">
  <ele>399.939941</ele>
  <time>2011-07-15T04:00:33Z</time>
  <speed>3.430000</speed>
</trkpt>
<trkpt lat="32.748012543" lon="35.025199890">
  <ele>399.291504</ele>
  <time>2011-07-15T04:00:34Z</time>
  <speed>3.340000</speed>
</trkpt>
<trkpt lat="32.747970581" lon="35.025234222">
  <ele>397.729004</ele>
  <time>2011-07-15T04:00:36Z</time>
  <speed>3.350000</speed>
</trkpt>
<trkpt lat="32.747920990" lon="35.025241852">
  <ele>396.994629</ele>
  <time>2011-07-15T04:00:38Z</time>
  <speed>2.510000</speed>
</trkpt>
<trkpt lat="32.747875214" lon="35.025257111">
  <ele>397.877441</ele>
  <time>2011-07-15T04:00:40Z</time>
  <speed>2.680000</speed>
</trkpt>
<trkpt lat="32.747825623" lon="35.025283813">
  <ele>399.533691</ele>
  <time>2011-07-15T04:00:42Z</time>
  <speed>2.380000</speed>
</trkpt>
<trkpt lat="32.747795105" lon="35.025306702">
  <ele>399.486816</ele>
  <time>2011-07-15T04:00:44Z</time>
  <speed>2.440000</speed>
</trkpt>
<trkpt lat="32.747776031" lon="35.025352478">
  <ele>398.666504</ele>
  <time>2011-07-15T04:00:46Z</time>
  <speed>2.690000</speed>
</trkpt>
<trkpt lat="32.747749329" lon="35.025386810">
  <ele>398.611816</ele>
  <time>2011-07-15T04:00:48Z</time>
  <speed>2.200000</speed>
</trkpt>
<trkpt lat="32.747718811" lon="35.025417328">
  <ele>398.189941</ele>
  <time>2011-07-15T04:00:50Z</time>
  <speed>2.500000</speed>
</trkpt>
<trkpt lat="32.747684479" lon="35.025451660">
  <ele>398.189941</ele>
  <time>2011-07-15T04:00:52Z</time>
  <speed>2.670000</speed>
</trkpt>
<trkpt lat="32.747650146" lon="35.025485992">
  <ele>397.869629</ele>
  <time>2011-07-15T04:00:54Z</time>
  <speed>2.570000</speed>
</trkpt>
<trkpt lat="32.747612000" lon="35.025520325">
  <ele>397.924316</ele>
  <time>2011-07-15T04:00:56Z</time>
  <speed>2.620000</speed>
</trkpt>
<trkpt lat="32.747592926" lon="35.025543213">
  <ele>398.611816</ele>
  <time>2011-07-15T04:00:57Z</time>
  <speed>2.670000</speed>
</trkpt>
<trkpt lat="32.747570038" lon="35.025566101">
  <ele>399.939941</ele>
  <time>2011-07-15T04:00:58Z</time>
  <speed>2.850000</speed>
</trkpt>
<trkpt lat="32.747531891" lon="35.025596619">
  <ele>400.385254</ele>
  <time>2011-07-15T04:01:00Z</time>
  <speed>2.000000</speed>
</trkpt>
<trkpt lat="32.747501373" lon="35.025623322">
  <ele>400.721191</ele>
  <time>2011-07-15T04:01:02Z</time>
  <speed>2.180000</speed>
</trkpt>
<trkpt lat="32.747478485" lon="35.025657654">
  <ele>400.807129</ele>
  <time>2011-07-15T04:01:04Z</time>
  <speed>1.810000</speed>
</trkpt>
<trkpt lat="32.747463226" lon="35.025688171">
  <ele>401.057129</ele>
  <time>2011-07-15T04:01:06Z</time>
  <speed>1.590000</speed>
</trkpt>
<trkpt lat="32.747440338" lon="35.025726318">
  <ele>401.588379</ele>
  <time>2011-07-15T04:01:08Z</time>
  <speed>1.880000</speed>
</trkpt>
<trkpt lat="32.747421265" lon="35.025760651">
  <ele>401.229004</ele>
  <time>2011-07-15T04:01:10Z</time>
  <speed>1.910000</speed>
</trkpt>
<trkpt lat="32.747406006" lon="35.025794983">
  <ele>401.682129</ele>
  <time>2011-07-15T04:01:12Z</time>
  <speed>1.520000</speed>
</trkpt>
<trkpt lat="32.747375488" lon="35.025825500">
  <ele>402.221191</ele>
  <time>2011-07-15T04:01:15Z</time>
  <speed>1.490000</speed>
</trkpt>
<trkpt lat="32.747360229" lon="35.025863647">
  <ele>402.822754</ele>
  <time>2011-07-15T04:01:17Z</time>
  <speed>1.550000</speed>
</trkpt>
<trkpt lat="32.747337341" lon="35.025886536">
  <ele>403.869629</ele>
  <time>2011-07-15T04:01:19Z</time>
  <speed>1.480000</speed>
</trkpt>
<trkpt lat="32.747318268" lon="35.025920868">
  <ele>404.158691</ele>
  <time>2011-07-15T04:01:21Z</time>
  <speed>1.730000</speed>
</trkpt>
<trkpt lat="32.747295380" lon="35.025955200">
  <ele>404.400879</ele>
  <time>2011-07-15T04:01:24Z</time>
  <speed>1.490000</speed>
</trkpt>
<trkpt lat="32.747276306" lon="35.025985718">
  <ele>404.979004</ele>
  <time>2011-07-15T04:01:26Z</time>
  <speed>1.520000</speed>
</trkpt>
<trkpt lat="32.747257233" lon="35.026023865">
  <ele>405.057129</ele>
  <time>2011-07-15T04:01:28Z</time>
  <speed>1.940000</speed>
</trkpt>
<trkpt lat="32.747238159" lon="35.026054382">
  <ele>405.729004</ele>
  <time>2011-07-15T04:01:30Z</time>
  <speed>1.690000</speed>
</trkpt>
<trkpt lat="32.747219086" lon="35.026084900">
  <ele>406.299316</ele>
  <time>2011-07-15T04:01:32Z</time>
  <speed>1.450000</speed>
</trkpt>
<trkpt lat="32.747196198" lon="35.026100159">
  <ele>406.416504</ele>
  <time>2011-07-15T04:01:34Z</time>
  <speed>1.650000</speed>
</trkpt>
<trkpt lat="32.747177124" lon="35.026142120">
  <ele>407.689941</ele>
  <time>2011-07-15T04:01:37Z</time>
  <speed>1.310000</speed>
</trkpt>
<trkpt lat="32.747161865" lon="35.026176453">
  <ele>408.955566</ele>
  <time>2011-07-15T04:01:39Z</time>
  <speed>1.370000</speed>
</trkpt>
<trkpt lat="32.747154236" lon="35.026218414">
  <ele>409.057129</ele>
  <time>2011-07-15T04:01:42Z</time>
  <speed>1.080000</speed>
</trkpt>
<trkpt lat="32.747135162" lon="35.026241302">
  <ele>409.455566</ele>
  <time>2011-07-15T04:01:45Z</time>
  <speed>1.300000</speed>
</trkpt>
<trkpt lat="32.747104645" lon="35.026264191">
  <ele>409.088379</ele>
  <time>2011-07-15T04:01:48Z</time>
  <speed>1.140000</speed>
</trkpt>
<trkpt lat="32.747093201" lon="35.026306152">
  <ele>409.877441</ele>
  <time>2011-07-15T04:01:50Z</time>
  <speed>1.650000</speed>
</trkpt>
<trkpt lat="32.747077942" lon="35.026344299">
  <ele>410.682129</ele>
  <time>2011-07-15T04:01:52Z</time>
  <speed>1.230000</speed>
</trkpt>
<trkpt lat="32.747062683" lon="35.026374817">
  <ele>411.377441</ele>
  <time>2011-07-15T04:01:54Z</time>
  <speed>1.190000</speed>
</trkpt>
<trkpt lat="32.747055054" lon="35.026416779">
  <ele>413.314941</ele>
  <time>2011-07-15T04:01:56Z</time>
  <speed>1.200000</speed>
</trkpt>
<trkpt lat="32.747077942" lon="35.026458740">
  <ele>415.072754</ele>
  <time>2011-07-15T04:01:59Z</time>
  <speed>1.520000</speed>
</trkpt>
<trkpt lat="32.747108459" lon="35.026477814">
  <ele>415.564941</ele>
  <time>2011-07-15T04:02:01Z</time>
  <speed>1.710000</speed>
</trkpt>
<trkpt lat="32.747135162" lon="35.026496887">
  <ele>416.041504</ele>
  <time>2011-07-15T04:02:03Z</time>
  <speed>1.760000</speed>
</trkpt>
<trkpt lat="32.747150421" lon="35.026527405">
  <ele>416.400879</ele>
  <time>2011-07-15T04:02:05Z</time>
  <speed>1.440000</speed>
</trkpt>
<trkpt lat="32.747169495" lon="35.026569366">
  <ele>417.314941</ele>
  <time>2011-07-15T04:02:08Z</time>
  <speed>1.680000</speed>
</trkpt>
<trkpt lat="32.747180939" lon="35.026611328">
  <ele>417.932129</ele>
  <time>2011-07-15T04:02:10Z</time>
  <speed>1.900000</speed>
</trkpt>
<trkpt lat="32.747203827" lon="35.026645660">
  <ele>417.916504</ele>
  <time>2011-07-15T04:02:12Z</time>
  <speed>1.520000</speed>
</trkpt>
<trkpt lat="32.747230530" lon="35.026676178">
  <ele>417.854004</ele>
  <time>2011-07-15T04:02:14Z</time>
  <speed>1.670000</speed>
</trkpt>
<trkpt lat="32.747257233" lon="35.026706696">
  <ele>418.197754</ele>
  <time>2011-07-15T04:02:16Z</time>
  <speed>1.740000</speed>
</trkpt>
<trkpt lat="32.747272491" lon="35.026744843">
  <ele>417.814941</ele>
  <time>2011-07-15T04:02:19Z</time>
  <speed>1.850000</speed>
</trkpt>
<trkpt lat="32.747276306" lon="35.026779175">
  <ele>417.822754</ele>
  <time>2011-07-15T04:02:21Z</time>
  <speed>1.650000</speed>
</trkpt>
<trkpt lat="32.747283936" lon="35.026813507">
  <ele>417.736816</ele>
  <time>2011-07-15T04:02:23Z</time>
  <speed>1.600000</speed>
</trkpt>
<trkpt lat="32.747295380" lon="35.026847839">
  <ele>418.314941</ele>
  <time>2011-07-15T04:02:25Z</time>
  <speed>1.530000</speed>
</trkpt>
<trkpt lat="32.747314453" lon="35.026878357">
  <ele>418.572754</ele>
  <time>2011-07-15T04:02:27Z</time>
  <speed>1.550000</speed>
</trkpt>
<trkpt lat="32.747333527" lon="35.026924133">
  <ele>418.393066</ele>
  <time>2011-07-15T04:02:30Z</time>
  <speed>1.750000</speed>
</trkpt>
<trkpt lat="32.747352600" lon="35.026954651">
  <ele>418.510254</ele>
  <time>2011-07-15T04:02:32Z</time>
  <speed>1.590000</speed>
</trkpt>
<trkpt lat="32.747386932" lon="35.026988983">
  <ele>418.604004</ele>
  <time>2011-07-15T04:02:35Z</time>
  <speed>1.970000</speed>
</trkpt>
<trkpt lat="32.747398376" lon="35.027019501">
  <ele>418.854004</ele>
  <time>2011-07-15T04:02:37Z</time>
  <speed>1.580000</speed>
</trkpt>
<trkpt lat="32.747409821" lon="35.027050018">
  <ele>419.275879</ele>
  <time>2011-07-15T04:02:39Z</time>
  <speed>1.500000</speed>
</trkpt>
<trkpt lat="32.747428894" lon="35.027076721">
  <ele>419.658691</ele>
  <time>2011-07-15T04:02:41Z</time>
  <speed>1.780000</speed>
</trkpt>
<trkpt lat="32.747440338" lon="35.027118683">
  <ele>419.807129</ele>
  <time>2011-07-15T04:02:43Z</time>
  <speed>1.640000</speed>
</trkpt>
<trkpt lat="32.747451782" lon="35.027149200">
  <ele>420.299316</ele>
  <time>2011-07-15T04:02:45Z</time>
  <speed>1.660000</speed>
</trkpt>
<trkpt lat="32.747478485" lon="35.027183533">
  <ele>421.143066</ele>
  <time>2011-07-15T04:02:47Z</time>
  <speed>1.870000</speed>
</trkpt>
<trkpt lat="32.747509003" lon="35.027214050">
  <ele>421.627441</ele>
  <time>2011-07-15T04:02:49Z</time>
  <speed>1.650000</speed>
</trkpt>
<trkpt lat="32.747539520" lon="35.027244568">
  <ele>422.307129</ele>
  <time>2011-07-15T04:02:51Z</time>
  <speed>1.710000</speed>
</trkpt>
<trkpt lat="32.747577667" lon="35.027275085">
  <ele>421.463379</ele>
  <time>2011-07-15T04:02:53Z</time>
  <speed>2.590000</speed>
</trkpt>
<trkpt lat="32.747615814" lon="35.027317047">
  <ele>421.658691</ele>
  <time>2011-07-15T04:02:55Z</time>
  <speed>3.230000</speed>
</trkpt>
<trkpt lat="32.747627258" lon="35.027351379">
  <ele>422.221191</ele>
  <time>2011-07-15T04:02:56Z</time>
  <speed>3.010000</speed>
</trkpt>
<trkpt lat="32.747650146" lon="35.027381897">
  <ele>423.049316</ele>
  <time>2011-07-15T04:02:57Z</time>
  <speed>3.460000</speed>
</trkpt>
<trkpt lat="32.747665405" lon="35.027408600">
  <ele>422.986816</ele>
  <time>2011-07-15T04:02:58Z</time>
  <speed>2.920000</speed>
</trkpt>
<trkpt lat="32.747673035" lon="35.027439117">
  <ele>422.908691</ele>
  <time>2011-07-15T04:02:59Z</time>
  <speed>2.470000</speed>
</trkpt>
<trkpt lat="32.747684479" lon="35.027473450">
  <ele>422.971191</ele>
  <time>2011-07-15T04:03:00Z</time>
  <speed>2.250000</speed>
</trkpt>
<trkpt lat="32.747699738" lon="35.027526855">
  <ele>422.346191</ele>
  <time>2011-07-15T04:03:02Z</time>
  <speed>2.230000</speed>
</trkpt>
<trkpt lat="32.747703552" lon="35.027568817">
  <ele>423.432129</ele>
  <time>2011-07-15T04:03:04Z</time>
  <speed>1.890000</speed>
</trkpt>
<trkpt lat="32.747711182" lon="35.027599335">
  <ele>424.549316</ele>
  <time>2011-07-15T04:03:06Z</time>
  <speed>1.820000</speed>
</trkpt>
<trkpt lat="32.747718811" lon="35.027645111">
  <ele>423.525879</ele>
  <time>2011-07-15T04:03:08Z</time>
  <speed>1.940000</speed>
</trkpt>
<trkpt lat="32.747722626" lon="35.027687073">
  <ele>423.768066</ele>
  <time>2011-07-15T04:03:11Z</time>
  <speed>1.480000</speed>
</trkpt>
<trkpt lat="32.747734070" lon="35.027725220">
  <ele>423.869629</ele>
  <time>2011-07-15T04:03:13Z</time>
  <speed>1.440000</speed>
</trkpt>
<trkpt lat="32.747737885" lon="35.027763367">
  <ele>423.455566</ele>
  <time>2011-07-15T04:03:15Z</time>
  <speed>1.740000</speed>
</trkpt>
<trkpt lat="32.747749329" lon="35.027793884">
  <ele>423.760254</ele>
  <time>2011-07-15T04:03:17Z</time>
  <speed>1.710000</speed>
</trkpt>
<trkpt lat="32.747730255" lon="35.027824402">
  <ele>425.018066</ele>
  <time>2011-07-15T04:03:20Z</time>
  <speed>1.190000</speed>
</trkpt>
<trkpt lat="32.747749329" lon="35.027862549">
  <ele>425.197754</ele>
  <time>2011-07-15T04:03:23Z</time>
  <speed>0.870000</speed>
</trkpt>
<trkpt lat="32.747768402" lon="35.027881622">
  <ele>425.533691</ele>
  <time>2011-07-15T04:03:26Z</time>
  <speed>0.690000</speed>
</trkpt>
<trkpt lat="32.747795105" lon="35.027912140">
  <ele>426.236816</ele>
  <time>2011-07-15T04:03:30Z</time>
  <speed>1.200000</speed>
</trkpt>
<trkpt lat="32.747825623" lon="35.027927399">
  <ele>426.494629</ele>
  <time>2011-07-15T04:03:32Z</time>
  <speed>1.160000</speed>
</trkpt>
<trkpt lat="32.747840881" lon="35.027954102">
  <ele>427.158691</ele>
  <time>2011-07-15T04:03:34Z</time>
  <speed>1.300000</speed>
</trkpt>
<trkpt lat="32.747859955" lon="35.027980804">
  <ele>427.400879</ele>
  <time>2011-07-15T04:03:36Z</time>
  <speed>1.440000</speed>
</trkpt>
<trkpt lat="32.747890472" lon="35.028022766">
  <ele>427.314941</ele>
  <time>2011-07-15T04:03:38Z</time>
  <speed>1.370000</speed>
</trkpt>
<trkpt lat="32.747917175" lon="35.028045654">
  <ele>427.963379</ele>
  <time>2011-07-15T04:03:40Z</time>
  <speed>1.660000</speed>
</trkpt>
<trkpt lat="32.747955322" lon="35.028068542">
  <ele>428.307129</ele>
  <time>2011-07-15T04:03:42Z</time>
  <speed>1.540000</speed>
</trkpt>
<trkpt lat="32.747978210" lon="35.028091431">
  <ele>428.158691</ele>
  <time>2011-07-15T04:03:44Z</time>
  <speed>1.670000</speed>
</trkpt>
<trkpt lat="32.748012543" lon="35.028118134">
  <ele>428.354004</ele>
  <time>2011-07-15T04:03:46Z</time>
  <speed>1.990000</speed>
</trkpt>
<trkpt lat="32.748035431" lon="35.028152466">
  <ele>428.689941</ele>
  <time>2011-07-15T04:03:48Z</time>
  <speed>1.530000</speed>
</trkpt>
<trkpt lat="32.748046875" lon="35.028182983">
  <ele>428.471191</ele>
  <time>2011-07-15T04:03:50Z</time>
  <speed>1.300000</speed>
</trkpt>
<trkpt lat="32.748069763" lon="35.028217316">
  <ele>428.869629</ele>
  <time>2011-07-15T04:03:52Z</time>
  <speed>1.780000</speed>
</trkpt>
<trkpt lat="32.748104095" lon="35.028251648">
  <ele>428.338379</ele>
  <time>2011-07-15T04:03:54Z</time>
  <speed>1.740000</speed>
</trkpt>
<trkpt lat="32.748119354" lon="35.028278351">
  <ele>428.236816</ele>
  <time>2011-07-15T04:03:56Z</time>
  <speed>1.050000</speed>
</trkpt>
<trkpt lat="32.748134613" lon="35.028327942">
  <ele>428.893066</ele>
  <time>2011-07-15T04:03:59Z</time>
  <speed>1.960000</speed>
</trkpt>
<trkpt lat="32.748157501" lon="35.028369904">
  <ele>428.775879</ele>
  <time>2011-07-15T04:04:01Z</time>
  <speed>1.560000</speed>
</trkpt>
<trkpt lat="32.748165131" lon="35.028415680">
  <ele>430.400879</ele>
  <time>2011-07-15T04:04:03Z</time>
  <speed>1.820000</speed>
</trkpt>
<trkpt lat="32.748188019" lon="35.028446198">
  <ele>429.729004</ele>
  <time>2011-07-15T04:04:05Z</time>
  <speed>1.220000</speed>
</trkpt>
<trkpt lat="32.748210907" lon="35.028472900">
  <ele>429.299316</ele>
  <time>2011-07-15T04:04:07Z</time>
  <speed>1.330000</speed>
</trkpt>
<trkpt lat="32.748226166" lon="35.028507233">
  <ele>429.627441</ele>
  <time>2011-07-15T04:04:09Z</time>
  <speed>1.690000</speed>
</trkpt>
<trkpt lat="32.748252869" lon="35.028530121">
  <ele>429.869629</ele>
  <time>2011-07-15T04:04:12Z</time>
  <speed>1.560000</speed>
</trkpt>
<trkpt lat="32.748291016" lon="35.028541565">
  <ele>431.533691</ele>
  <time>2011-07-15T04:04:15Z</time>
  <speed>1.780000</speed>
</trkpt>
<trkpt lat="32.748329163" lon="35.028556824">
  <ele>431.627441</ele>
  <time>2011-07-15T04:04:17Z</time>
  <speed>1.790000</speed>
</trkpt>
<trkpt lat="32.748355865" lon="35.028575897">
  <ele>431.635254</ele>
  <time>2011-07-15T04:04:19Z</time>
  <speed>1.670000</speed>
</trkpt>
<trkpt lat="32.748386383" lon="35.028594971">
  <ele>430.783691</ele>
  <time>2011-07-15T04:04:21Z</time>
  <speed>1.370000</speed>
</trkpt>
<trkpt lat="32.748416901" lon="35.028617859">
  <ele>431.697754</ele>
  <time>2011-07-15T04:04:24Z</time>
  <speed>1.530000</speed>
</trkpt>
<trkpt lat="32.748447418" lon="35.028652191">
  <ele>431.557129</ele>
  <time>2011-07-15T04:04:26Z</time>
  <speed>1.480000</speed>
</trkpt>
<trkpt lat="32.748470306" lon="35.028678894">
  <ele>431.783691</ele>
  <time>2011-07-15T04:04:28Z</time>
  <speed>1.130000</speed>
</trkpt>
<trkpt lat="32.748504639" lon="35.028694153">
  <ele>432.338379</ele>
  <time>2011-07-15T04:04:31Z</time>
  <speed>1.790000</speed>
</trkpt>
<trkpt lat="32.748535156" lon="35.028717041">
  <ele>432.518066</ele>
  <time>2011-07-15T04:04:34Z</time>
  <speed>1.260000</speed>
</trkpt>
<trkpt lat="32.748561859" lon="35.028736115">
  <ele>432.697754</ele>
  <time>2011-07-15T04:04:36Z</time>
  <speed>1.320000</speed>
</trkpt>
<trkpt lat="32.748592377" lon="35.028743744">
  <ele>432.408691</ele>
  <time>2011-07-15T04:04:38Z</time>
  <speed>1.520000</speed>
</trkpt>
<trkpt lat="32.748626709" lon="35.028743744">
  <ele>432.205566</ele>
  <time>2011-07-15T04:04:41Z</time>
  <speed>1.170000</speed>
</trkpt>
<trkpt lat="32.748657227" lon="35.028728485">
  <ele>431.932129</ele>
  <time>2011-07-15T04:04:43Z</time>
  <speed>1.090000</speed>
</trkpt>
<trkpt lat="32.748680115" lon="35.028701782">
  <ele>432.111816</ele>
  <time>2011-07-15T04:04:45Z</time>
  <speed>0.570000</speed>
</trkpt>
<trkpt lat="32.748691559" lon="35.028640747">
  <ele>431.939941</ele>
  <time>2011-07-15T04:04:53Z</time>
  <speed>1.010000</speed>
</trkpt>
<trkpt lat="32.748687744" lon="35.028594971">
  <ele>431.385254</ele>
  <time>2011-07-15T04:04:55Z</time>
  <speed>1.780000</speed>
</trkpt>
<trkpt lat="32.748683929" lon="35.028533936">
  <ele>431.518066</ele>
  <time>2011-07-15T04:04:57Z</time>
  <speed>2.180000</speed>
</trkpt>
<trkpt lat="32.748672485" lon="35.028469086">
  <ele>432.166504</ele>
  <time>2011-07-15T04:04:58Z</time>
  <speed>2.280000</speed>
</trkpt>
<trkpt lat="32.748664856" lon="35.028438568">
  <ele>431.986816</ele>
  <time>2011-07-15T04:04:59Z</time>
  <speed>2.370000</speed>
</trkpt>
<trkpt lat="32.748664856" lon="35.028404236">
  <ele>431.596191</ele>
  <time>2011-07-15T04:05:00Z</time>
  <speed>2.690000</speed>
</trkpt>
<trkpt lat="32.748661041" lon="35.028369904">
  <ele>431.400879</ele>
  <time>2011-07-15T04:05:01Z</time>
  <speed>3.110000</speed>
</trkpt>
<trkpt lat="32.748649597" lon="35.028331757">
  <ele>431.666504</ele>
  <time>2011-07-15T04:05:02Z</time>
  <speed>3.480000</speed>
</trkpt>
<trkpt lat="32.748638153" lon="35.028293610">
  <ele>431.182129</ele>
  <time>2011-07-15T04:05:03Z</time>
  <speed>3.280000</speed>
</trkpt>
<trkpt lat="32.748638153" lon="35.028255463">
  <ele>431.260254</ele>
  <time>2011-07-15T04:05:04Z</time>
  <speed>3.450000</speed>
</trkpt>
<trkpt lat="32.748630524" lon="35.028213501">
  <ele>430.658691</ele>
  <time>2011-07-15T04:05:05Z</time>
  <speed>3.680000</speed>
</trkpt>
<trkpt lat="32.748630524" lon="35.028175354">
  <ele>429.330566</ele>
  <time>2011-07-15T04:05:06Z</time>
  <speed>2.900000</speed>
</trkpt>
<trkpt lat="32.748630524" lon="35.028133392">
  <ele>429.861816</ele>
  <time>2011-07-15T04:05:08Z</time>
  <speed>2.140000</speed>
</trkpt>
<trkpt lat="32.748638153" lon="35.028095245">
  <ele>432.057129</ele>
  <time>2011-07-15T04:05:10Z</time>
  <speed>1.310000</speed>
</trkpt>
<trkpt lat="32.748641968" lon="35.028060913">
  <ele>432.486816</ele>
  <time>2011-07-15T04:05:12Z</time>
  <speed>1.480000</speed>
</trkpt>
<trkpt lat="32.748653412" lon="35.028015137">
  <ele>433.377441</ele>
  <time>2011-07-15T04:05:15Z</time>
  <speed>1.800000</speed>
</trkpt>
<trkpt lat="32.748676300" lon="35.027980804">
  <ele>434.260254</ele>
  <time>2011-07-15T04:05:18Z</time>
  <speed>1.310000</speed>
</trkpt>
<trkpt lat="32.748695374" lon="35.027954102">
  <ele>435.002441</ele>
  <time>2011-07-15T04:05:20Z</time>
  <speed>2.240000</speed>
</trkpt>
<trkpt lat="32.748725891" lon="35.027912140">
  <ele>436.338379</ele>
  <time>2011-07-15T04:05:22Z</time>
  <speed>2.570000</speed>
</trkpt>
<trkpt lat="32.748752594" lon="35.027881622">
  <ele>437.893066</ele>
  <time>2011-07-15T04:05:24Z</time>
  <speed>1.800000</speed>
</trkpt>
<trkpt lat="32.748779297" lon="35.027862549">
  <ele>438.830566</ele>
  <time>2011-07-15T04:05:26Z</time>
  <speed>1.820000</speed>
</trkpt>
<trkpt lat="32.748794556" lon="35.027828217">
  <ele>439.439941</ele>
  <time>2011-07-15T04:05:28Z</time>
  <speed>1.720000</speed>
</trkpt>
<trkpt lat="32.748813629" lon="35.027805328">
  <ele>439.674316</ele>
  <time>2011-07-15T04:05:30Z</time>
  <speed>1.720000</speed>
</trkpt>
<trkpt lat="32.748836517" lon="35.027782440">
  <ele>440.268066</ele>
  <time>2011-07-15T04:05:33Z</time>
  <speed>0.860000</speed>
</trkpt>
<trkpt lat="32.748855591" lon="35.027748108">
  <ele>439.650879</ele>
  <time>2011-07-15T04:08:10Z</time>
  <speed>1.700000</speed>
</trkpt>
<trkpt lat="32.748882294" lon="35.027702332">
  <ele>438.869629</ele>
  <time>2011-07-15T04:08:12Z</time>
  <speed>2.450000</speed>
</trkpt>
<trkpt lat="32.748912811" lon="35.027648926">
  <ele>438.658691</ele>
  <time>2011-07-15T04:08:14Z</time>
  <speed>2.850000</speed>
</trkpt>
<trkpt lat="32.748950958" lon="35.027606964">
  <ele>438.197754</ele>
  <time>2011-07-15T04:08:16Z</time>
  <speed>2.610000</speed>
</trkpt>
<trkpt lat="32.748992920" lon="35.027580261">
  <ele>438.127441</ele>
  <time>2011-07-15T04:08:18Z</time>
  <speed>2.860000</speed>
</trkpt>
<trkpt lat="32.749031067" lon="35.027538300">
  <ele>437.299316</ele>
  <time>2011-07-15T04:08:20Z</time>
  <speed>2.750000</speed>
</trkpt>
<trkpt lat="32.749080658" lon="35.027500153">
  <ele>435.963379</ele>
  <time>2011-07-15T04:08:22Z</time>
  <speed>3.050000</speed>
</trkpt>
<trkpt lat="32.749107361" lon="35.027484894">
  <ele>435.689941</ele>
  <time>2011-07-15T04:08:23Z</time>
  <speed>3.070000</speed>
</trkpt>
<trkpt lat="32.749137878" lon="35.027477264">
  <ele>436.018066</ele>
  <time>2011-07-15T04:08:24Z</time>
  <speed>2.890000</speed>
</trkpt>
<trkpt lat="32.749187469" lon="35.027473450">
  <ele>435.400879</ele>
  <time>2011-07-15T04:08:26Z</time>
  <speed>3.020000</speed>
</trkpt>
<trkpt lat="32.749221802" lon="35.027469635">
  <ele>435.768066</ele>
  <time>2011-07-15T04:08:27Z</time>
  <speed>3.110000</speed>
</trkpt>
<trkpt lat="32.749256134" lon="35.027473450">
  <ele>436.064941</ele>
  <time>2011-07-15T04:08:28Z</time>
  <speed>3.410000</speed>
</trkpt>
<trkpt lat="32.749286652" lon="35.027477264">
  <ele>435.775879</ele>
  <time>2011-07-15T04:08:29Z</time>
  <speed>3.600000</speed>
</trkpt>
<trkpt lat="32.749320984" lon="35.027481079">
  <ele>435.643066</ele>
  <time>2011-07-15T04:08:30Z</time>
  <speed>3.710000</speed>
</trkpt>
<trkpt lat="32.749355316" lon="35.027481079">
  <ele>435.775879</ele>
  <time>2011-07-15T04:08:31Z</time>
  <speed>3.490000</speed>
</trkpt>
<trkpt lat="32.749389648" lon="35.027465820">
  <ele>436.213379</ele>
  <time>2011-07-15T04:08:32Z</time>
  <speed>3.590000</speed>
</trkpt>
<trkpt lat="32.749420166" lon="35.027450562">
  <ele>436.611816</ele>
  <time>2011-07-15T04:08:33Z</time>
  <speed>3.500000</speed>
</trkpt>
<trkpt lat="32.749454498" lon="35.027442932">
  <ele>435.885254</ele>
  <time>2011-07-15T04:08:34Z</time>
  <speed>3.690000</speed>
</trkpt>
<trkpt lat="32.749485016" lon="35.027431488">
  <ele>435.541504</ele>
  <time>2011-07-15T04:08:35Z</time>
  <speed>3.760000</speed>
</trkpt>
<trkpt lat="32.749523163" lon="35.027420044">
  <ele>435.283691</ele>
  <time>2011-07-15T04:08:36Z</time>
  <speed>4.190000</speed>
</trkpt>
<trkpt lat="32.749561310" lon="35.027416229">
  <ele>434.518066</ele>
  <time>2011-07-15T04:08:37Z</time>
  <speed>3.920000</speed>
</trkpt>
<trkpt lat="32.749595642" lon="35.027412415">
  <ele>433.424316</ele>
  <time>2011-07-15T04:08:38Z</time>
  <speed>3.940000</speed>
</trkpt>
<trkpt lat="32.749629974" lon="35.027404785">
  <ele>433.752441</ele>
  <time>2011-07-15T04:08:39Z</time>
  <speed>3.640000</speed>
</trkpt>
<trkpt lat="32.749664307" lon="35.027412415">
  <ele>432.971191</ele>
  <time>2011-07-15T04:08:40Z</time>
  <speed>3.490000</speed>
</trkpt>
<trkpt lat="32.749694824" lon="35.027420044">
  <ele>433.072754</ele>
  <time>2011-07-15T04:08:41Z</time>
  <speed>3.690000</speed>
</trkpt>
<trkpt lat="32.749729156" lon="35.027420044">
  <ele>432.900879</ele>
  <time>2011-07-15T04:08:42Z</time>
  <speed>4.070000</speed>
</trkpt>
<trkpt lat="32.749771118" lon="35.027416229">
  <ele>431.604004</ele>
  <time>2011-07-15T04:08:43Z</time>
  <speed>3.720000</speed>
</trkpt>
<trkpt lat="32.749801636" lon="35.027439117">
  <ele>430.416504</ele>
  <time>2011-07-15T04:08:44Z</time>
  <speed>3.830000</speed>
</trkpt>
<trkpt lat="32.749828339" lon="35.027477264">
  <ele>429.791504</ele>
  <time>2011-07-15T04:08:45Z</time>
  <speed>4.560000</speed>
</trkpt>
<trkpt lat="32.749851227" lon="35.027519226">
  <ele>428.713379</ele>
  <time>2011-07-15T04:08:46Z</time>
  <speed>4.350000</speed>
</trkpt>
<trkpt lat="32.749870300" lon="35.027557373">
  <ele>428.447754</ele>
  <time>2011-07-15T04:08:47Z</time>
  <speed>4.010000</speed>
</trkpt>
<trkpt lat="32.749889374" lon="35.027591705">
  <ele>427.752441</ele>
  <time>2011-07-15T04:08:48Z</time>
  <speed>4.060000</speed>
</trkpt>
<trkpt lat="32.749912262" lon="35.027626038">
  <ele>427.033691</ele>
  <time>2011-07-15T04:08:49Z</time>
  <speed>4.210000</speed>
</trkpt>
<trkpt lat="32.749931335" lon="35.027667999">
  <ele>426.729004</ele>
  <time>2011-07-15T04:08:50Z</time>
  <speed>4.010000</speed>
</trkpt>
<trkpt lat="32.749958038" lon="35.027709961">
  <ele>425.650879</ele>
  <time>2011-07-15T04:08:51Z</time>
  <speed>4.120000</speed>
</trkpt>
<trkpt lat="32.749973297" lon="35.027744293">
  <ele>424.986816</ele>
  <time>2011-07-15T04:08:52Z</time>
  <speed>3.210000</speed>
</trkpt>
<trkpt lat="32.749992371" lon="35.027778625">
  <ele>424.877441</ele>
  <time>2011-07-15T04:08:53Z</time>
  <speed>4.200000</speed>
</trkpt>
<trkpt lat="32.750015259" lon="35.027812958">
  <ele>423.564941</ele>
  <time>2011-07-15T04:08:54Z</time>
  <speed>4.160000</speed>
</trkpt>
<trkpt lat="32.750034332" lon="35.027851105">
  <ele>422.994629</ele>
  <time>2011-07-15T04:08:55Z</time>
  <speed>2.930000</speed>
</trkpt>
<trkpt lat="32.750041962" lon="35.027881622">
  <ele>422.174316</ele>
  <time>2011-07-15T04:08:56Z</time>
  <speed>2.610000</speed>
</trkpt>
<trkpt lat="32.750072479" lon="35.027931213">
  <ele>421.877441</ele>
  <time>2011-07-15T04:08:58Z</time>
  <speed>2.680000</speed>
</trkpt>
<trkpt lat="32.750083923" lon="35.027980804">
  <ele>421.502441</ele>
  <time>2011-07-15T04:09:00Z</time>
  <speed>2.150000</speed>
</trkpt>
<trkpt lat="32.750064850" lon="35.028007507">
  <ele>421.541504</ele>
  <time>2011-07-15T04:09:05Z</time>
  <speed>0.810000</speed>
</trkpt>
<trkpt lat="32.750064850" lon="35.028041840">
  <ele>420.885254</ele>
  <time>2011-07-15T04:09:10Z</time>
  <speed>0.630000</speed>
</trkpt>
<trkpt lat="32.750083923" lon="35.028068542">
  <ele>419.994629</ele>
  <time>2011-07-15T04:09:18Z</time>
  <speed>0.490000</speed>
</trkpt>
<trkpt lat="32.750114441" lon="35.028076172">
  <ele>420.010254</ele>
  <time>2011-07-15T04:09:23Z</time>
  <speed>1.180000</speed>
</trkpt>
<trkpt lat="32.750148773" lon="35.028064728">
  <ele>419.604004</ele>
  <time>2011-07-15T04:09:25Z</time>
  <speed>1.070000</speed>
</trkpt>
<trkpt lat="32.750186920" lon="35.028064728">
  <ele>419.557129</ele>
  <time>2011-07-15T04:09:27Z</time>
  <speed>1.380000</speed>
</trkpt>
<trkpt lat="32.750221252" lon="35.028060913">
  <ele>419.330566</ele>
  <time>2011-07-15T04:09:29Z</time>
  <speed>1.710000</speed>
</trkpt>
<trkpt lat="32.750263214" lon="35.028041840">
  <ele>417.947754</ele>
  <time>2011-07-15T04:09:31Z</time>
  <speed>2.120000</speed>
</trkpt>
<trkpt lat="32.750301361" lon="35.028007507">
  <ele>417.002441</ele>
  <time>2011-07-15T04:09:33Z</time>
  <speed>3.070000</speed>
</trkpt>
<trkpt lat="32.750331879" lon="35.027988434">
  <ele>416.619629</ele>
  <time>2011-07-15T04:09:34Z</time>
  <speed>2.600000</speed>
</trkpt>
<trkpt lat="32.750362396" lon="35.027980804">
  <ele>416.439941</ele>
  <time>2011-07-15T04:09:35Z</time>
  <speed>2.910000</speed>
</trkpt>
<trkpt lat="32.750389099" lon="35.027980804">
  <ele>416.119629</ele>
  <time>2011-07-15T04:09:36Z</time>
  <speed>2.210000</speed>
</trkpt>
<trkpt lat="32.750431061" lon="35.027980804">
  <ele>415.666504</ele>
  <time>2011-07-15T04:09:38Z</time>
  <speed>1.640000</speed>
</trkpt>
<trkpt lat="32.750499725" lon="35.027976990">
  <ele>415.682129</ele>
  <time>2011-07-15T04:09:40Z</time>
  <speed>0.760000</speed>
</trkpt>
<trkpt lat="32.750534058" lon="35.027976990">
  <ele>414.861816</ele>
  <time>2011-07-15T04:09:43Z</time>
  <speed>1.200000</speed>
</trkpt>
<trkpt lat="32.750564575" lon="35.027980804">
  <ele>415.338379</ele>
  <time>2011-07-15T04:09:46Z</time>
  <speed>1.150000</speed>
</trkpt>
<trkpt lat="32.750591278" lon="35.027961731">
  <ele>415.143066</ele>
  <time>2011-07-15T04:09:48Z</time>
  <speed>1.120000</speed>
</trkpt>
<trkpt lat="32.750606537" lon="35.027938843">
  <ele>416.447754</ele>
  <time>2011-07-15T04:09:50Z</time>
  <speed>1.240000</speed>
</trkpt>
<trkpt lat="32.750625610" lon="35.027912140">
  <ele>417.127441</ele>
  <time>2011-07-15T04:09:52Z</time>
  <speed>1.040000</speed>
</trkpt>
<trkpt lat="32.750663757" lon="35.027881622">
  <ele>418.854004</ele>
  <time>2011-07-15T04:09:54Z</time>
  <speed>1.790000</speed>
</trkpt>
<trkpt lat="32.750686646" lon="35.027847290">
  <ele>418.611816</ele>
  <time>2011-07-15T04:09:56Z</time>
  <speed>1.870000</speed>
</trkpt>
<trkpt lat="32.750709534" lon="35.027812958">
  <ele>418.752441</ele>
  <time>2011-07-15T04:09:58Z</time>
  <speed>2.490000</speed>
</trkpt>
<trkpt lat="32.750736237" lon="35.027778625">
  <ele>419.744629</ele>
  <time>2011-07-15T04:10:00Z</time>
  <speed>2.000000</speed>
</trkpt>
<trkpt lat="32.750759125" lon="35.027736664">
  <ele>420.674316</ele>
  <time>2011-07-15T04:10:02Z</time>
  <speed>2.020000</speed>
</trkpt>
<trkpt lat="32.750785828" lon="35.027706146">
  <ele>421.877441</ele>
  <time>2011-07-15T04:10:04Z</time>
  <speed>1.920000</speed>
</trkpt>
<trkpt lat="32.750820160" lon="35.027683258">
  <ele>422.736816</ele>
  <time>2011-07-15T04:10:06Z</time>
  <speed>1.970000</speed>
</trkpt>
<trkpt lat="32.750843048" lon="35.027648926">
  <ele>423.338379</ele>
  <time>2011-07-15T04:10:08Z</time>
  <speed>1.860000</speed>
</trkpt>
<trkpt lat="32.750862122" lon="35.027606964">
  <ele>422.947754</ele>
  <time>2011-07-15T04:10:10Z</time>
  <speed>2.590000</speed>
</trkpt>
<trkpt lat="32.750896454" lon="35.027561188">
  <ele>422.494629</ele>
  <time>2011-07-15T04:10:12Z</time>
  <speed>2.630000</speed>
</trkpt>
<trkpt lat="32.750923157" lon="35.027515411">
  <ele>422.018066</ele>
  <time>2011-07-15T04:10:14Z</time>
  <speed>2.710000</speed>
</trkpt>
<trkpt lat="32.750934601" lon="35.027484894">
  <ele>422.025879</ele>
  <time>2011-07-15T04:10:15Z</time>
  <speed>2.980000</speed>
</trkpt>
<trkpt lat="32.750965118" lon="35.027439117">
  <ele>422.400879</ele>
  <time>2011-07-15T04:10:17Z</time>
  <speed>2.380000</speed>
</trkpt>
<trkpt lat="32.750995636" lon="35.027404785">
  <ele>423.268066</ele>
  <time>2011-07-15T04:10:19Z</time>
  <speed>2.120000</speed>
</trkpt>
<trkpt lat="32.751026154" lon="35.027374268">
  <ele>424.268066</ele>
  <time>2011-07-15T04:10:21Z</time>
  <speed>2.090000</speed>
</trkpt>
<trkpt lat="32.751045227" lon="35.027324677">
  <ele>424.830566</ele>
  <time>2011-07-15T04:10:23Z</time>
  <speed>3.030000</speed>
</trkpt>
<trkpt lat="32.751052856" lon="35.027294159">
  <ele>424.447754</ele>
  <time>2011-07-15T04:10:24Z</time>
  <speed>3.370000</speed>
</trkpt>
<trkpt lat="32.751068115" lon="35.027259827">
  <ele>423.932129</ele>
  <time>2011-07-15T04:10:25Z</time>
  <speed>3.700000</speed>
</trkpt>
<trkpt lat="32.751091003" lon="35.027240753">
  <ele>423.049316</ele>
  <time>2011-07-15T04:10:26Z</time>
  <speed>3.470000</speed>
</trkpt>
<trkpt lat="32.751113892" lon="35.027210236">
  <ele>424.236816</ele>
  <time>2011-07-15T04:10:27Z</time>
  <speed>3.020000</speed>
</trkpt>
<trkpt lat="32.751136780" lon="35.027194977">
  <ele>425.697754</ele>
  <time>2011-07-15T04:10:28Z</time>
  <speed>2.350000</speed>
</trkpt>
<trkpt lat="32.751159668" lon="35.027160645">
  <ele>425.697754</ele>
  <time>2011-07-15T04:10:30Z</time>
  <speed>2.160000</speed>
</trkpt>
<trkpt lat="32.751178741" lon="35.027118683">
  <ele>424.682129</ele>
  <time>2011-07-15T04:10:32Z</time>
  <speed>2.470000</speed>
</trkpt>
<trkpt lat="32.751209259" lon="35.027084351">
  <ele>424.010254</ele>
  <time>2011-07-15T04:10:34Z</time>
  <speed>2.380000</speed>
</trkpt>
<trkpt lat="32.751247406" lon="35.027072906">
  <ele>424.189941</ele>
  <time>2011-07-15T04:10:36Z</time>
  <speed>1.900000</speed>
</trkpt>
<trkpt lat="32.751281738" lon="35.027076721">
  <ele>423.354004</ele>
  <time>2011-07-15T04:10:38Z</time>
  <speed>1.850000</speed>
</trkpt>
<trkpt lat="32.751308441" lon="35.027091980">
  <ele>421.174316</ele>
  <time>2011-07-15T04:10:41Z</time>
  <speed>1.230000</speed>
</trkpt>
<trkpt lat="32.751296997" lon="35.027114868">
  <ele>419.252441</ele>
  <time>2011-07-15T04:10:43Z</time>
  <speed>1.220000</speed>
</trkpt>
<trkpt lat="32.751285553" lon="35.027145386">
  <ele>418.971191</ele>
  <time>2011-07-15T04:10:45Z</time>
  <speed>1.630000</speed>
</trkpt>
<trkpt lat="32.751270294" lon="35.027183533">
  <ele>417.588379</ele>
  <time>2011-07-15T04:10:48Z</time>
  <speed>0.960000</speed>
</trkpt>
<trkpt lat="32.751255035" lon="35.027221680">
  <ele>417.580566</ele>
  <time>2011-07-15T04:10:52Z</time>
  <speed>1.010000</speed>
</trkpt>
<trkpt lat="32.751235962" lon="35.027248383">
  <ele>418.236816</ele>
  <time>2011-07-15T04:10:55Z</time>
  <speed>0.540000</speed>
</trkpt>
<trkpt lat="32.751216888" lon="35.027275085">
  <ele>418.307129</ele>
  <time>2011-07-15T04:11:30Z</time>
  <speed>1.610000</speed>
</trkpt>
<trkpt lat="32.751190186" lon="35.027317047">
  <ele>418.479004</ele>
  <time>2011-07-15T04:11:32Z</time>
  <speed>2.350000</speed>
</trkpt>
<trkpt lat="32.751163483" lon="35.027355194">
  <ele>419.119629</ele>
  <time>2011-07-15T04:11:34Z</time>
  <speed>2.070000</speed>
</trkpt>
<trkpt lat="32.751136780" lon="35.027393341">
  <ele>418.760254</ele>
  <time>2011-07-15T04:11:36Z</time>
  <speed>2.430000</speed>
</trkpt>
<trkpt lat="32.751113892" lon="35.027435303">
  <ele>419.166504</ele>
  <time>2011-07-15T04:11:38Z</time>
  <speed>1.860000</speed>
</trkpt>
<trkpt lat="32.751106262" lon="35.027465820">
  <ele>418.643066</ele>
  <time>2011-07-15T04:11:39Z</time>
  <speed>2.280000</speed>
</trkpt>
<trkpt lat="32.751091003" lon="35.027496338">
  <ele>419.236816</ele>
  <time>2011-07-15T04:11:40Z</time>
  <speed>2.250000</speed>
</trkpt>
<trkpt lat="32.751083374" lon="35.027534485">
  <ele>419.768066</ele>
  <time>2011-07-15T04:11:41Z</time>
  <speed>2.210000</speed>
</trkpt>
<trkpt lat="32.751075745" lon="35.027565002">
  <ele>420.604004</ele>
  <time>2011-07-15T04:11:42Z</time>
  <speed>2.460000</speed>
</trkpt>
<trkpt lat="32.751068115" lon="35.027595520">
  <ele>420.854004</ele>
  <time>2011-07-15T04:11:43Z</time>
  <speed>2.300000</speed>
</trkpt>
<trkpt lat="32.751064301" lon="35.027645111">
  <ele>420.916504</ele>
  <time>2011-07-15T04:11:45Z</time>
  <speed>2.160000</speed>
</trkpt>
<trkpt lat="32.751064301" lon="35.027690887">
  <ele>421.596191</ele>
  <time>2011-07-15T04:11:47Z</time>
  <speed>1.730000</speed>
</trkpt>
<trkpt lat="32.751079559" lon="35.027725220">
  <ele>421.611816</ele>
  <time>2011-07-15T04:11:49Z</time>
  <speed>1.660000</speed>
</trkpt>
<trkpt lat="32.751094818" lon="35.027767181">
  <ele>422.697754</ele>
  <time>2011-07-15T04:11:51Z</time>
  <speed>1.570000</speed>
</trkpt>
<trkpt lat="32.751098633" lon="35.027805328">
  <ele>423.580566</ele>
  <time>2011-07-15T04:11:53Z</time>
  <speed>1.590000</speed>
</trkpt>
<trkpt lat="32.751110077" lon="35.027847290">
  <ele>424.455566</ele>
  <time>2011-07-15T04:11:55Z</time>
  <speed>1.930000</speed>
</trkpt>
<trkpt lat="32.751125336" lon="35.027893066">
  <ele>425.541504</ele>
  <time>2011-07-15T04:11:57Z</time>
  <speed>1.870000</speed>
</trkpt>
<trkpt lat="32.751136780" lon="35.027931213">
  <ele>427.299316</ele>
  <time>2011-07-15T04:11:59Z</time>
  <speed>1.720000</speed>
</trkpt>
<trkpt lat="32.751136780" lon="35.027969360">
  <ele>428.205566</ele>
  <time>2011-07-15T04:12:01Z</time>
  <speed>1.570000</speed>
</trkpt>
<trkpt lat="32.751148224" lon="35.027999878">
  <ele>429.182129</ele>
  <time>2011-07-15T04:12:03Z</time>
  <speed>1.920000</speed>
</trkpt>
<trkpt lat="32.751155853" lon="35.028034210">
  <ele>429.643066</ele>
  <time>2011-07-15T04:12:05Z</time>
  <speed>1.450000</speed>
</trkpt>
<trkpt lat="32.751167297" lon="35.028072357">
  <ele>430.080566</ele>
  <time>2011-07-15T04:12:08Z</time>
  <speed>1.380000</speed>
</trkpt>
<trkpt lat="32.751186371" lon="35.028110504">
  <ele>431.299316</ele>
  <time>2011-07-15T04:12:11Z</time>
  <speed>1.320000</speed>
</trkpt>
<trkpt lat="32.751197815" lon="35.028141022">
  <ele>431.400879</ele>
  <time>2011-07-15T04:12:13Z</time>
  <speed>1.350000</speed>
</trkpt>
<trkpt lat="32.751213074" lon="35.028182983">
  <ele>431.814941</ele>
  <time>2011-07-15T04:12:16Z</time>
  <speed>1.290000</speed>
</trkpt>
<trkpt lat="32.751239777" lon="35.028202057">
  <ele>432.869629</ele>
  <time>2011-07-15T04:12:19Z</time>
  <speed>0.930000</speed>
</trkpt>
<trkpt lat="32.751266479" lon="35.028209686">
  <ele>434.150879</ele>
  <time>2011-07-15T04:12:24Z</time>
  <speed>0.810000</speed>
</trkpt>
<trkpt lat="32.751281738" lon="35.028236389">
  <ele>434.705566</ele>
  <time>2011-07-15T04:12:27Z</time>
  <speed>1.160000</speed>
</trkpt>
<trkpt lat="32.751316071" lon="35.028247833">
  <ele>435.525879</ele>
  <time>2011-07-15T04:12:30Z</time>
  <speed>1.310000</speed>
</trkpt>
<trkpt lat="32.751335144" lon="35.028274536">
  <ele>436.033691</ele>
  <time>2011-07-15T04:12:33Z</time>
  <speed>1.070000</speed>
</trkpt>
<trkpt lat="32.751346588" lon="35.028301239">
  <ele>435.463379</ele>
  <time>2011-07-15T04:12:36Z</time>
  <speed>1.010000</speed>
</trkpt>
<trkpt lat="32.751335144" lon="35.028331757">
  <ele>435.236816</ele>
  <time>2011-07-15T04:12:39Z</time>
  <speed>1.320000</speed>
</trkpt>
<trkpt lat="32.751316071" lon="35.028312683">
  <ele>433.963379</ele>
  <time>2011-07-15T04:12:51Z</time>
  <speed>0.080000</speed>
</trkpt>
<trkpt lat="32.751300812" lon="35.028297424">
  <ele>436.283691</ele>
  <time>2011-07-15T04:14:20Z</time>
  <speed>0.230000</speed>
</trkpt>
<trkpt lat="32.751270294" lon="35.028289795">
  <ele>436.385254</ele>
  <time>2011-07-15T04:14:42Z</time>
  <speed>0.350000</speed>
</trkpt>
<trkpt lat="32.751243591" lon="35.028285980">
  <ele>437.064941</ele>
  <time>2011-07-15T04:15:03Z</time>
  <speed>0.010000</speed>
</trkpt>
<trkpt lat="32.751220703" lon="35.028316498">
  <ele>435.479004</ele>
  <time>2011-07-15T04:16:07Z</time>
  <speed>1.310000</speed>
</trkpt>
<trkpt lat="32.751194000" lon="35.028327942">
  <ele>434.799316</ele>
  <time>2011-07-15T04:16:09Z</time>
  <speed>1.810000</speed>
</trkpt>
<trkpt lat="32.751171112" lon="35.028343201">
  <ele>434.596191</ele>
  <time>2011-07-15T04:16:11Z</time>
  <speed>1.930000</speed>
</trkpt>
<trkpt lat="32.751140594" lon="35.028369904">
  <ele>434.869629</ele>
  <time>2011-07-15T04:16:13Z</time>
  <speed>2.240000</speed>
</trkpt>
<trkpt lat="32.751110077" lon="35.028388977">
  <ele>434.588379</ele>
  <time>2011-07-15T04:16:15Z</time>
  <speed>1.600000</speed>
</trkpt>
<trkpt lat="32.751079559" lon="35.028404236">
  <ele>434.689941</ele>
  <time>2011-07-15T04:16:17Z</time>
  <speed>2.060000</speed>
</trkpt>
<trkpt lat="32.751037598" lon="35.028430939">
  <ele>434.924316</ele>
  <time>2011-07-15T04:16:19Z</time>
  <speed>2.570000</speed>
</trkpt>
<trkpt lat="32.751003265" lon="35.028465271">
  <ele>435.041504</ele>
  <time>2011-07-15T04:16:21Z</time>
  <speed>2.420000</speed>
</trkpt>
<trkpt lat="32.750965118" lon="35.028507233">
  <ele>434.650879</ele>
  <time>2011-07-15T04:16:23Z</time>
  <speed>2.850000</speed>
</trkpt>
<trkpt lat="32.750942230" lon="35.028530121">
  <ele>435.322754</ele>
  <time>2011-07-15T04:16:24Z</time>
  <speed>2.970000</speed>
</trkpt>
<trkpt lat="32.750923157" lon="35.028549194">
  <ele>435.643066</ele>
  <time>2011-07-15T04:16:25Z</time>
  <speed>2.790000</speed>
</trkpt>
<trkpt lat="32.750892639" lon="35.028594971">
  <ele>435.041504</ele>
  <time>2011-07-15T04:16:27Z</time>
  <speed>2.780000</speed>
</trkpt>
<trkpt lat="32.750862122" lon="35.028633118">
  <ele>434.158691</ele>
  <time>2011-07-15T04:16:29Z</time>
  <speed>2.440000</speed>
</trkpt>
<trkpt lat="32.750843048" lon="35.028656006">
  <ele>435.260254</ele>
  <time>2011-07-15T04:16:30Z</time>
  <speed>2.370000</speed>
</trkpt>
<trkpt lat="32.750816345" lon="35.028701782">
  <ele>435.072754</ele>
  <time>2011-07-15T04:16:32Z</time>
  <speed>2.630000</speed>
</trkpt>
<trkpt lat="32.750797272" lon="35.028724670">
  <ele>435.424316</ele>
  <time>2011-07-15T04:16:33Z</time>
  <speed>2.710000</speed>
</trkpt>
<trkpt lat="32.750762939" lon="35.028770447">
  <ele>435.494629</ele>
  <time>2011-07-15T04:16:35Z</time>
  <speed>2.760000</speed>
</trkpt>
<trkpt lat="32.750743866" lon="35.028797150">
  <ele>435.385254</ele>
  <time>2011-07-15T04:16:36Z</time>
  <speed>2.520000</speed>
</trkpt>
<trkpt lat="32.750717163" lon="35.028839111">
  <ele>434.455566</ele>
  <time>2011-07-15T04:16:38Z</time>
  <speed>2.920000</speed>
</trkpt>
<trkpt lat="32.750698090" lon="35.028862000">
  <ele>434.213379</ele>
  <time>2011-07-15T04:16:39Z</time>
  <speed>2.900000</speed>
</trkpt>
<trkpt lat="32.750679016" lon="35.028892517">
  <ele>434.752441</ele>
  <time>2011-07-15T04:16:40Z</time>
  <speed>2.960000</speed>
</trkpt>
<trkpt lat="32.750659943" lon="35.028919220">
  <ele>434.900879</ele>
  <time>2011-07-15T04:16:41Z</time>
  <speed>2.590000</speed>
</trkpt>
<trkpt lat="32.750644684" lon="35.028949738">
  <ele>434.400879</ele>
  <time>2011-07-15T04:16:43Z</time>
  <speed>1.520000</speed>
</trkpt>
<trkpt lat="32.750614166" lon="35.028980255">
  <ele>434.361816</ele>
  <time>2011-07-15T04:16:46Z</time>
  <speed>1.590000</speed>
</trkpt>
<trkpt lat="32.750591278" lon="35.029006958">
  <ele>433.197754</ele>
  <time>2011-07-15T04:16:50Z</time>
  <speed>1.060000</speed>
</trkpt>
<trkpt lat="32.750568390" lon="35.029022217">
  <ele>431.885254</ele>
  <time>2011-07-15T04:16:52Z</time>
  <speed>1.100000</speed>
</trkpt>
<trkpt lat="32.750541687" lon="35.029037476">
  <ele>432.588379</ele>
  <time>2011-07-15T04:16:55Z</time>
  <speed>0.790000</speed>
</trkpt>
<trkpt lat="32.750514984" lon="35.029052734">
  <ele>433.689941</ele>
  <time>2011-07-15T04:16:57Z</time>
  <speed>1.370000</speed>
</trkpt>
<trkpt lat="32.750511169" lon="35.029083252">
  <ele>435.260254</ele>
  <time>2011-07-15T04:16:59Z</time>
  <speed>1.020000</speed>
</trkpt>
<trkpt lat="32.750530243" lon="35.029094696">
  <ele>436.775879</ele>
  <time>2011-07-15T04:17:01Z</time>
  <speed>1.400000</speed>
</trkpt>
<trkpt lat="32.750564575" lon="35.029067993">
  <ele>438.330566</ele>
  <time>2011-07-15T04:17:03Z</time>
  <speed>1.880000</speed>
</trkpt>
<trkpt lat="32.750598907" lon="35.029033661">
  <ele>439.619629</ele>
  <time>2011-07-15T04:17:05Z</time>
  <speed>2.320000</speed>
</trkpt>
<trkpt lat="32.750617981" lon="35.029010773">
  <ele>439.674316</ele>
  <time>2011-07-15T04:17:06Z</time>
  <speed>2.800000</speed>
</trkpt>
<trkpt lat="32.750640869" lon="35.028991699">
  <ele>440.150879</ele>
  <time>2011-07-15T04:17:07Z</time>
  <speed>2.930000</speed>
</trkpt>
<trkpt lat="32.750663757" lon="35.028964996">
  <ele>440.346191</ele>
  <time>2011-07-15T04:17:08Z</time>
  <speed>3.350000</speed>
</trkpt>
<trkpt lat="32.750686646" lon="35.028938293">
  <ele>439.697754</ele>
  <time>2011-07-15T04:17:09Z</time>
  <speed>3.380000</speed>
</trkpt>
<trkpt lat="32.750701904" lon="35.028907776">
  <ele>439.549316</ele>
  <time>2011-07-15T04:17:10Z</time>
  <speed>3.450000</speed>
</trkpt>
<trkpt lat="32.750720978" lon="35.028881073">
  <ele>439.182129</ele>
  <time>2011-07-15T04:17:11Z</time>
  <speed>3.130000</speed>
</trkpt>
<trkpt lat="32.750736237" lon="35.028850555">
  <ele>439.572754</ele>
  <time>2011-07-15T04:17:12Z</time>
  <speed>3.430000</speed>
</trkpt>
<trkpt lat="32.750759125" lon="35.028827667">
  <ele>439.205566</ele>
  <time>2011-07-15T04:17:13Z</time>
  <speed>3.490000</speed>
</trkpt>
<trkpt lat="32.750778198" lon="35.028800964">
  <ele>439.096191</ele>
  <time>2011-07-15T04:17:14Z</time>
  <speed>3.180000</speed>
</trkpt>
<trkpt lat="32.750797272" lon="35.028770447">
  <ele>439.002441</ele>
  <time>2011-07-15T04:17:15Z</time>
  <speed>3.270000</speed>
</trkpt>
<trkpt lat="32.750812531" lon="35.028739929">
  <ele>439.205566</ele>
  <time>2011-07-15T04:17:16Z</time>
  <speed>3.360000</speed>
</trkpt>
<trkpt lat="32.750831604" lon="35.028713226">
  <ele>438.994629</ele>
  <time>2011-07-15T04:17:17Z</time>
  <speed>3.250000</speed>
</trkpt>
<trkpt lat="32.750854492" lon="35.028686523">
  <ele>438.713379</ele>
  <time>2011-07-15T04:17:18Z</time>
  <speed>3.410000</speed>
</trkpt>
<trkpt lat="32.750873566" lon="35.028659821">
  <ele>438.361816</ele>
  <time>2011-07-15T04:17:19Z</time>
  <speed>3.360000</speed>
</trkpt>
<trkpt lat="32.750892639" lon="35.028633118">
  <ele>438.643066</ele>
  <time>2011-07-15T04:17:20Z</time>
  <speed>3.320000</speed>
</trkpt>
<trkpt lat="32.750915527" lon="35.028606415">
  <ele>438.979004</ele>
  <time>2011-07-15T04:17:21Z</time>
  <speed>3.440000</speed>
</trkpt>
<trkpt lat="32.750938416" lon="35.028583527">
  <ele>438.627441</ele>
  <time>2011-07-15T04:17:22Z</time>
  <speed>3.390000</speed>
</trkpt>
<trkpt lat="32.750957489" lon="35.028560638">
  <ele>438.541504</ele>
  <time>2011-07-15T04:17:23Z</time>
  <speed>3.390000</speed>
</trkpt>
<trkpt lat="32.750984192" lon="35.028537750">
  <ele>438.463379</ele>
  <time>2011-07-15T04:17:24Z</time>
  <speed>3.490000</speed>
</trkpt>
<trkpt lat="32.751010895" lon="35.028514862">
  <ele>438.619629</ele>
  <time>2011-07-15T04:17:25Z</time>
  <speed>3.550000</speed>
</trkpt>
<trkpt lat="32.751037598" lon="35.028488159">
  <ele>438.494629</ele>
  <time>2011-07-15T04:17:26Z</time>
  <speed>3.710000</speed>
</trkpt>
<trkpt lat="32.751068115" lon="35.028469086">
  <ele>438.650879</ele>
  <time>2011-07-15T04:17:27Z</time>
  <speed>3.860000</speed>
</trkpt>
<trkpt lat="32.751098633" lon="35.028442383">
  <ele>438.979004</ele>
  <time>2011-07-15T04:17:28Z</time>
  <speed>4.010000</speed>
</trkpt>
<trkpt lat="32.751132965" lon="35.028423309">
  <ele>439.033691</ele>
  <time>2011-07-15T04:17:29Z</time>
  <speed>4.170000</speed>
</trkpt>
<trkpt lat="32.751167297" lon="35.028400421">
  <ele>438.572754</ele>
  <time>2011-07-15T04:17:30Z</time>
  <speed>4.410000</speed>
</trkpt>
<trkpt lat="32.751194000" lon="35.028373718">
  <ele>438.838379</ele>
  <time>2011-07-15T04:17:31Z</time>
  <speed>3.930000</speed>
</trkpt>
<trkpt lat="32.751232147" lon="35.028354645">
  <ele>438.799316</ele>
  <time>2011-07-15T04:17:32Z</time>
  <speed>4.090000</speed>
</trkpt>
<trkpt lat="32.751266479" lon="35.028335571">
  <ele>438.424316</ele>
  <time>2011-07-15T04:17:33Z</time>
  <speed>3.790000</speed>
</trkpt>
<trkpt lat="32.751296997" lon="35.028327942">
  <ele>438.002441</ele>
  <time>2011-07-15T04:17:34Z</time>
  <speed>3.700000</speed>
</trkpt>
<trkpt lat="32.751331329" lon="35.028316498">
  <ele>438.158691</ele>
  <time>2011-07-15T04:17:35Z</time>
  <speed>3.390000</speed>
</trkpt>
<trkpt lat="32.751365662" lon="35.028327942">
  <ele>436.885254</ele>
  <time>2011-07-15T04:17:36Z</time>
  <speed>3.750000</speed>
</trkpt>
<trkpt lat="32.751396179" lon="35.028343201">
  <ele>435.518066</ele>
  <time>2011-07-15T04:17:37Z</time>
  <speed>3.590000</speed>
</trkpt>
<trkpt lat="32.751415253" lon="35.028369904">
  <ele>434.604004</ele>
  <time>2011-07-15T04:17:38Z</time>
  <speed>3.360000</speed>
</trkpt>
<trkpt lat="32.751426697" lon="35.028400421">
  <ele>435.346191</ele>
  <time>2011-07-15T04:17:39Z</time>
  <speed>3.150000</speed>
</trkpt>
<trkpt lat="32.751426697" lon="35.028430939">
  <ele>434.471191</ele>
  <time>2011-07-15T04:17:40Z</time>
  <speed>3.010000</speed>
</trkpt>
<trkpt lat="32.751392365" lon="35.028488159">
  <ele>435.822754</ele>
  <time>2011-07-15T04:17:42Z</time>
  <speed>2.970000</speed>
</trkpt>
<trkpt lat="32.751373291" lon="35.028514862">
  <ele>436.221191</ele>
  <time>2011-07-15T04:17:43Z</time>
  <speed>2.800000</speed>
</trkpt>
<trkpt lat="32.751338959" lon="35.028564453">
  <ele>437.018066</ele>
  <time>2011-07-15T04:17:45Z</time>
  <speed>2.680000</speed>
</trkpt>
<trkpt lat="32.751323700" lon="35.028591156">
  <ele>437.924316</ele>
  <time>2011-07-15T04:17:46Z</time>
  <speed>2.670000</speed>
</trkpt>
<trkpt lat="32.751300812" lon="35.028648376">
  <ele>438.619629</ele>
  <time>2011-07-15T04:17:48Z</time>
  <speed>2.730000</speed>
</trkpt>
<trkpt lat="32.751289368" lon="35.028678894">
  <ele>439.283691</ele>
  <time>2011-07-15T04:17:49Z</time>
  <speed>2.640000</speed>
</trkpt>
<trkpt lat="32.751277924" lon="35.028709412">
  <ele>440.127441</ele>
  <time>2011-07-15T04:17:50Z</time>
  <speed>2.810000</speed>
</trkpt>
<trkpt lat="32.751258850" lon="35.028762817">
  <ele>439.205566</ele>
  <time>2011-07-15T04:17:52Z</time>
  <speed>2.630000</speed>
</trkpt>
<trkpt lat="32.751235962" lon="35.028812408">
  <ele>440.611816</ele>
  <time>2011-07-15T04:17:54Z</time>
  <speed>2.570000</speed>
</trkpt>
<trkpt lat="32.751216888" lon="35.028862000">
  <ele>440.494629</ele>
  <time>2011-07-15T04:17:56Z</time>
  <speed>2.440000</speed>
</trkpt>
<trkpt lat="32.751201630" lon="35.028911591">
  <ele>440.900879</ele>
  <time>2011-07-15T04:17:58Z</time>
  <speed>2.360000</speed>
</trkpt>
<trkpt lat="32.751182556" lon="35.028961182">
  <ele>441.158691</ele>
  <time>2011-07-15T04:18:00Z</time>
  <speed>2.490000</speed>
</trkpt>
<trkpt lat="32.751167297" lon="35.029010773">
  <ele>441.588379</ele>
  <time>2011-07-15T04:18:02Z</time>
  <speed>2.500000</speed>
</trkpt>
<trkpt lat="32.751136780" lon="35.029052734">
  <ele>442.119629</ele>
  <time>2011-07-15T04:18:04Z</time>
  <speed>2.450000</speed>
</trkpt>
<trkpt lat="32.751113892" lon="35.029094696">
  <ele>442.635254</ele>
  <time>2011-07-15T04:18:06Z</time>
  <speed>2.550000</speed>
</trkpt>
<trkpt lat="32.751087189" lon="35.029132843">
  <ele>443.361816</ele>
  <time>2011-07-15T04:18:08Z</time>
  <speed>2.780000</speed>
</trkpt>
<trkpt lat="32.751056671" lon="35.029174805">
  <ele>443.268066</ele>
  <time>2011-07-15T04:18:10Z</time>
  <speed>2.500000</speed>
</trkpt>
<trkpt lat="32.751022339" lon="35.029209137">
  <ele>443.799316</ele>
  <time>2011-07-15T04:18:12Z</time>
  <speed>2.450000</speed>
</trkpt>
<trkpt lat="32.750995636" lon="35.029243469">
  <ele>444.189941</ele>
  <time>2011-07-15T04:18:14Z</time>
  <speed>2.510000</speed>
</trkpt>
<trkpt lat="32.750972748" lon="35.029281616">
  <ele>444.439941</ele>
  <time>2011-07-15T04:18:16Z</time>
  <speed>2.430000</speed>
</trkpt>
<trkpt lat="32.750949860" lon="35.029319763">
  <ele>445.471191</ele>
  <time>2011-07-15T04:18:18Z</time>
  <speed>2.310000</speed>
</trkpt>
<trkpt lat="32.750934601" lon="35.029350281">
  <ele>445.697754</ele>
  <time>2011-07-15T04:18:19Z</time>
  <speed>2.630000</speed>
</trkpt>
<trkpt lat="32.750919342" lon="35.029380798">
  <ele>446.893066</ele>
  <time>2011-07-15T04:18:20Z</time>
  <speed>2.390000</speed>
</trkpt>
<trkpt lat="32.750904083" lon="35.029430389">
  <ele>446.713379</ele>
  <time>2011-07-15T04:18:22Z</time>
  <speed>2.170000</speed>
</trkpt>
<trkpt lat="32.750888824" lon="35.029457092">
  <ele>447.346191</ele>
  <time>2011-07-15T04:18:23Z</time>
  <speed>2.390000</speed>
</trkpt>
<trkpt lat="32.750873566" lon="35.029502869">
  <ele>447.721191</ele>
  <time>2011-07-15T04:18:25Z</time>
  <speed>2.090000</speed>
</trkpt>
<trkpt lat="32.750854492" lon="35.029552460">
  <ele>448.830566</ele>
  <time>2011-07-15T04:18:27Z</time>
  <speed>2.090000</speed>
</trkpt>
<trkpt lat="32.750839233" lon="35.029598236">
  <ele>448.604004</ele>
  <time>2011-07-15T04:18:29Z</time>
  <speed>2.190000</speed>
</trkpt>
<trkpt lat="32.750823975" lon="35.029636383">
  <ele>448.416504</ele>
  <time>2011-07-15T04:18:31Z</time>
  <speed>2.180000</speed>
</trkpt>
<trkpt lat="32.750812531" lon="35.029674530">
  <ele>448.666504</ele>
  <time>2011-07-15T04:18:33Z</time>
  <speed>2.140000</speed>
</trkpt>
<trkpt lat="32.750793457" lon="35.029708862">
  <ele>449.018066</ele>
  <time>2011-07-15T04:18:35Z</time>
  <speed>2.350000</speed>
</trkpt>
<trkpt lat="32.750774384" lon="35.029747009">
  <ele>449.150879</ele>
  <time>2011-07-15T04:18:37Z</time>
  <speed>2.300000</speed>
</trkpt>
<trkpt lat="32.750751495" lon="35.029781342">
  <ele>450.221191</ele>
  <time>2011-07-15T04:18:39Z</time>
  <speed>2.080000</speed>
</trkpt>
<trkpt lat="32.750720978" lon="35.029815674">
  <ele>451.822754</ele>
  <time>2011-07-15T04:18:41Z</time>
  <speed>2.160000</speed>
</trkpt>
<trkpt lat="32.750694275" lon="35.029850006">
  <ele>452.275879</ele>
  <time>2011-07-15T04:18:43Z</time>
  <speed>1.870000</speed>
</trkpt>
<trkpt lat="32.750675201" lon="35.029880524">
  <ele>452.072754</ele>
  <time>2011-07-15T04:18:45Z</time>
  <speed>1.810000</speed>
</trkpt>
<trkpt lat="32.750667572" lon="35.029918671">
  <ele>452.830566</ele>
  <time>2011-07-15T04:18:47Z</time>
  <speed>1.460000</speed>
</trkpt>
<trkpt lat="32.750644684" lon="35.029953003">
  <ele>453.541504</ele>
  <time>2011-07-15T04:18:50Z</time>
  <speed>1.400000</speed>
</trkpt>
<trkpt lat="32.750617981" lon="35.029956818">
  <ele>453.252441</ele>
  <time>2011-07-15T04:18:52Z</time>
  <speed>1.260000</speed>
</trkpt>
<trkpt lat="32.750587463" lon="35.029945374">
  <ele>452.682129</ele>
  <time>2011-07-15T04:18:54Z</time>
  <speed>2.510000</speed>
</trkpt>
<trkpt lat="32.750560760" lon="35.029930115">
  <ele>452.244629</ele>
  <time>2011-07-15T04:18:55Z</time>
  <speed>3.120000</speed>
</trkpt>
<trkpt lat="32.750526428" lon="35.029914856">
  <ele>452.166504</ele>
  <time>2011-07-15T04:18:56Z</time>
  <speed>4.350000</speed>
</trkpt>
<trkpt lat="32.750484467" lon="35.029895782">
  <ele>452.275879</ele>
  <time>2011-07-15T04:18:57Z</time>
  <speed>4.660000</speed>
</trkpt>
<trkpt lat="32.750442505" lon="35.029876709">
  <ele>451.854004</ele>
  <time>2011-07-15T04:18:58Z</time>
  <speed>4.330000</speed>
</trkpt>
<trkpt lat="32.750408173" lon="35.029865265">
  <ele>451.643066</ele>
  <time>2011-07-15T04:18:59Z</time>
  <speed>3.920000</speed>
</trkpt>
<trkpt lat="32.750370026" lon="35.029853821">
  <ele>450.838379</ele>
  <time>2011-07-15T04:19:00Z</time>
  <speed>4.380000</speed>
</trkpt>
<trkpt lat="32.750328064" lon="35.029853821">
  <ele>450.588379</ele>
  <time>2011-07-15T04:19:01Z</time>
  <speed>4.530000</speed>
</trkpt>
<trkpt lat="32.750286102" lon="35.029865265">
  <ele>450.369629</ele>
  <time>2011-07-15T04:19:02Z</time>
  <speed>3.660000</speed>
</trkpt>
<trkpt lat="32.750251770" lon="35.029876709">
  <ele>450.447754</ele>
  <time>2011-07-15T04:19:03Z</time>
  <speed>3.580000</speed>
</trkpt>
<trkpt lat="32.750225067" lon="35.029899597">
  <ele>450.838379</ele>
  <time>2011-07-15T04:19:04Z</time>
  <speed>3.230000</speed>
</trkpt>
<trkpt lat="32.750194550" lon="35.029911041">
  <ele>451.174316</ele>
  <time>2011-07-15T04:19:05Z</time>
  <speed>3.120000</speed>
</trkpt>
<trkpt lat="32.750164032" lon="35.029911041">
  <ele>451.908691</ele>
  <time>2011-07-15T04:19:06Z</time>
  <speed>3.110000</speed>
</trkpt>
<trkpt lat="32.750118256" lon="35.029914856">
  <ele>450.244629</ele>
  <time>2011-07-15T04:19:08Z</time>
  <speed>2.940000</speed>
</trkpt>
<trkpt lat="32.750068665" lon="35.029903412">
  <ele>449.947754</ele>
  <time>2011-07-15T04:19:10Z</time>
  <speed>2.850000</speed>
</trkpt>
<trkpt lat="32.750041962" lon="35.029899597">
  <ele>450.822754</ele>
  <time>2011-07-15T04:19:11Z</time>
  <speed>2.850000</speed>
</trkpt>
<trkpt lat="32.750011444" lon="35.029888153">
  <ele>451.158691</ele>
  <time>2011-07-15T04:19:12Z</time>
  <speed>2.600000</speed>
</trkpt>
<trkpt lat="32.749965668" lon="35.029872894">
  <ele>450.674316</ele>
  <time>2011-07-15T04:19:14Z</time>
  <speed>2.520000</speed>
</trkpt>
<trkpt lat="32.749916077" lon="35.029880524">
  <ele>450.916504</ele>
  <time>2011-07-15T04:19:16Z</time>
  <speed>2.130000</speed>
</trkpt>
<trkpt lat="32.749881744" lon="35.029880524">
  <ele>450.252441</ele>
  <time>2011-07-15T04:19:18Z</time>
  <speed>1.930000</speed>
</trkpt>
<trkpt lat="32.749839783" lon="35.029888153">
  <ele>450.010254</ele>
  <time>2011-07-15T04:19:20Z</time>
  <speed>2.010000</speed>
</trkpt>
<trkpt lat="32.749813080" lon="35.029884338">
  <ele>450.166504</ele>
  <time>2011-07-15T04:19:22Z</time>
  <speed>1.440000</speed>
</trkpt>
<trkpt lat="32.749782562" lon="35.029880524">
  <ele>449.807129</ele>
  <time>2011-07-15T04:19:24Z</time>
  <speed>1.710000</speed>
</trkpt>
<trkpt lat="32.749752045" lon="35.029876709">
  <ele>449.611816</ele>
  <time>2011-07-15T04:19:26Z</time>
  <speed>1.780000</speed>
</trkpt>
<trkpt lat="32.749717712" lon="35.029861450">
  <ele>449.814941</ele>
  <time>2011-07-15T04:19:29Z</time>
  <speed>1.620000</speed>
</trkpt>
<trkpt lat="32.749691010" lon="35.029838562">
  <ele>449.736816</ele>
  <time>2011-07-15T04:19:31Z</time>
  <speed>1.370000</speed>
</trkpt>
<trkpt lat="32.749660492" lon="35.029804230">
  <ele>450.205566</ele>
  <time>2011-07-15T04:19:34Z</time>
  <speed>1.680000</speed>
</trkpt>
<trkpt lat="32.749626160" lon="35.029781342">
  <ele>450.885254</ele>
  <time>2011-07-15T04:19:36Z</time>
  <speed>1.830000</speed>
</trkpt>
<trkpt lat="32.749576569" lon="35.029773712">
  <ele>451.080566</ele>
  <time>2011-07-15T04:19:38Z</time>
  <speed>2.190000</speed>
</trkpt>
<trkpt lat="32.749538422" lon="35.029747009">
  <ele>450.963379</ele>
  <time>2011-07-15T04:19:40Z</time>
  <speed>2.200000</speed>
</trkpt>
<trkpt lat="32.749488831" lon="35.029724121">
  <ele>450.463379</ele>
  <time>2011-07-15T04:19:42Z</time>
  <speed>2.580000</speed>
</trkpt>
<trkpt lat="32.749454498" lon="35.029701233">
  <ele>450.924316</ele>
  <time>2011-07-15T04:19:44Z</time>
  <speed>1.710000</speed>
</trkpt>
<trkpt lat="32.749408722" lon="35.029701233">
  <ele>451.768066</ele>
  <time>2011-07-15T04:19:46Z</time>
  <speed>1.650000</speed>
</trkpt>
<trkpt lat="32.749366760" lon="35.029678345">
  <ele>451.916504</ele>
  <time>2011-07-15T04:19:48Z</time>
  <speed>2.780000</speed>
</trkpt>
<trkpt lat="32.749340057" lon="35.029663086">
  <ele>451.994629</ele>
  <time>2011-07-15T04:19:49Z</time>
  <speed>2.590000</speed>
</trkpt>
<trkpt lat="32.749317169" lon="35.029647827">
  <ele>452.689941</ele>
  <time>2011-07-15T04:19:50Z</time>
  <speed>2.310000</speed>
</trkpt>
<trkpt lat="32.749271393" lon="35.029617310">
  <ele>452.744629</ele>
  <time>2011-07-15T04:19:52Z</time>
  <speed>2.740000</speed>
</trkpt>
<trkpt lat="32.749221802" lon="35.029586792">
  <ele>452.729004</ele>
  <time>2011-07-15T04:19:54Z</time>
  <speed>3.390000</speed>
</trkpt>
<trkpt lat="32.749198914" lon="35.029571533">
  <ele>453.307129</ele>
  <time>2011-07-15T04:19:55Z</time>
  <speed>3.280000</speed>
</trkpt>
<trkpt lat="32.749168396" lon="35.029556274">
  <ele>452.822754</ele>
  <time>2011-07-15T04:19:56Z</time>
  <speed>3.230000</speed>
</trkpt>
<trkpt lat="32.749141693" lon="35.029541016">
  <ele>452.455566</ele>
  <time>2011-07-15T04:19:57Z</time>
  <speed>3.250000</speed>
</trkpt>
<trkpt lat="32.749107361" lon="35.029525757">
  <ele>453.057129</ele>
  <time>2011-07-15T04:19:58Z</time>
  <speed>3.430000</speed>
</trkpt>
<trkpt lat="32.749076843" lon="35.029510498">
  <ele>453.072754</ele>
  <time>2011-07-15T04:19:59Z</time>
  <speed>3.140000</speed>
</trkpt>
<trkpt lat="32.749050140" lon="35.029499054">
  <ele>453.604004</ele>
  <time>2011-07-15T04:20:00Z</time>
  <speed>3.010000</speed>
</trkpt>
<trkpt lat="32.749019623" lon="35.029491425">
  <ele>453.244629</ele>
  <time>2011-07-15T04:20:01Z</time>
  <speed>3.140000</speed>
</trkpt>
<trkpt lat="32.748992920" lon="35.029491425">
  <ele>453.721191</ele>
  <time>2011-07-15T04:20:02Z</time>
  <speed>2.250000</speed>
</trkpt>
<trkpt lat="32.748943329" lon="35.029483795">
  <ele>453.354004</ele>
  <time>2011-07-15T04:20:04Z</time>
  <speed>2.640000</speed>
</trkpt>
<trkpt lat="32.748893738" lon="35.029468536">
  <ele>453.572754</ele>
  <time>2011-07-15T04:20:06Z</time>
  <speed>2.240000</speed>
</trkpt>
<trkpt lat="32.748870850" lon="35.029457092">
  <ele>453.150879</ele>
  <time>2011-07-15T04:20:07Z</time>
  <speed>2.320000</speed>
</trkpt>
<trkpt lat="32.748836517" lon="35.029441833">
  <ele>452.955566</ele>
  <time>2011-07-15T04:20:08Z</time>
  <speed>2.790000</speed>
</trkpt>
<trkpt lat="32.748798370" lon="35.029403687">
  <ele>452.236816</ele>
  <time>2011-07-15T04:20:10Z</time>
  <speed>2.410000</speed>
</trkpt>
<trkpt lat="32.748760223" lon="35.029388428">
  <ele>452.588379</ele>
  <time>2011-07-15T04:20:11Z</time>
  <speed>2.110000</speed>
</trkpt>
<trkpt lat="32.748706818" lon="35.029399872">
  <ele>453.119629</ele>
  <time>2011-07-15T04:20:13Z</time>
  <speed>2.120000</speed>
</trkpt>
<trkpt lat="32.748664856" lon="35.029407501">
  <ele>454.018066</ele>
  <time>2011-07-15T04:20:15Z</time>
  <speed>2.040000</speed>
</trkpt>
<trkpt lat="32.748619080" lon="35.029392242">
  <ele>454.557129</ele>
  <time>2011-07-15T04:20:17Z</time>
  <speed>2.170000</speed>
</trkpt>
<trkpt lat="32.748569489" lon="35.029388428">
  <ele>454.307129</ele>
  <time>2011-07-15T04:20:19Z</time>
  <speed>2.590000</speed>
</trkpt>
<trkpt lat="32.748538971" lon="35.029388428">
  <ele>454.072754</ele>
  <time>2011-07-15T04:20:20Z</time>
  <speed>2.570000</speed>
</trkpt>
<trkpt lat="32.748497009" lon="35.029369354">
  <ele>454.236816</ele>
  <time>2011-07-15T04:20:22Z</time>
  <speed>2.730000</speed>
</trkpt>
<trkpt lat="32.748451233" lon="35.029335022">
  <ele>453.674316</ele>
  <time>2011-07-15T04:20:24Z</time>
  <speed>3.280000</speed>
</trkpt>
<trkpt lat="32.748428345" lon="35.029308319">
  <ele>453.189941</ele>
  <time>2011-07-15T04:20:25Z</time>
  <speed>3.710000</speed>
</trkpt>
<trkpt lat="32.748397827" lon="35.029289246">
  <ele>453.119629</ele>
  <time>2011-07-15T04:20:26Z</time>
  <speed>4.070000</speed>
</trkpt>
<trkpt lat="32.748367310" lon="35.029262543">
  <ele>452.721191</ele>
  <time>2011-07-15T04:20:27Z</time>
  <speed>4.030000</speed>
</trkpt>
<trkpt lat="32.748336792" lon="35.029232025">
  <ele>453.229004</ele>
  <time>2011-07-15T04:20:28Z</time>
  <speed>4.580000</speed>
</trkpt>
<trkpt lat="32.748298645" lon="35.029205322">
  <ele>452.775879</ele>
  <time>2011-07-15T04:20:29Z</time>
  <speed>4.620000</speed>
</trkpt>
<trkpt lat="32.748260498" lon="35.029186249">
  <ele>452.627441</ele>
  <time>2011-07-15T04:20:30Z</time>
  <speed>4.290000</speed>
</trkpt>
<trkpt lat="32.748222351" lon="35.029170990">
  <ele>452.447754</ele>
  <time>2011-07-15T04:20:31Z</time>
  <speed>3.600000</speed>
</trkpt>
<trkpt lat="32.748191833" lon="35.029155731">
  <ele>452.166504</ele>
  <time>2011-07-15T04:20:32Z</time>
  <speed>3.320000</speed>
</trkpt>
<trkpt lat="32.748161316" lon="35.029151917">
  <ele>451.775879</ele>
  <time>2011-07-15T04:20:33Z</time>
  <speed>3.090000</speed>
</trkpt>
<trkpt lat="32.748130798" lon="35.029144287">
  <ele>451.533691</ele>
  <time>2011-07-15T04:20:34Z</time>
  <speed>2.990000</speed>
</trkpt>
<trkpt lat="32.748096466" lon="35.029144287">
  <ele>451.400879</ele>
  <time>2011-07-15T04:20:35Z</time>
  <speed>2.860000</speed>
</trkpt>
<trkpt lat="32.748046875" lon="35.029125214">
  <ele>451.689941</ele>
  <time>2011-07-15T04:20:37Z</time>
  <speed>3.360000</speed>
</trkpt>
<trkpt lat="32.748016357" lon="35.029106140">
  <ele>451.643066</ele>
  <time>2011-07-15T04:20:38Z</time>
  <speed>3.310000</speed>
</trkpt>
<trkpt lat="32.747982025" lon="35.029094696">
  <ele>451.854004</ele>
  <time>2011-07-15T04:20:39Z</time>
  <speed>3.540000</speed>
</trkpt>
<trkpt lat="32.747955322" lon="35.029071808">
  <ele>451.549316</ele>
  <time>2011-07-15T04:20:40Z</time>
  <speed>3.930000</speed>
</trkpt>
<trkpt lat="32.747928619" lon="35.029033661">
  <ele>451.713379</ele>
  <time>2011-07-15T04:20:41Z</time>
  <speed>4.220000</speed>
</trkpt>
<trkpt lat="32.747909546" lon="35.028995514">
  <ele>451.455566</ele>
  <time>2011-07-15T04:20:42Z</time>
  <speed>4.110000</speed>
</trkpt>
<trkpt lat="32.747875214" lon="35.028968811">
  <ele>451.822754</ele>
  <time>2011-07-15T04:20:43Z</time>
  <speed>3.910000</speed>
</trkpt>
<trkpt lat="32.747844696" lon="35.028949738">
  <ele>452.135254</ele>
  <time>2011-07-15T04:20:44Z</time>
  <speed>3.750000</speed>
</trkpt>
<trkpt lat="32.747821808" lon="35.028938293">
  <ele>451.760254</ele>
  <time>2011-07-15T04:20:45Z</time>
  <speed>2.730000</speed>
</trkpt>
<trkpt lat="32.747783661" lon="35.028923035">
  <ele>452.604004</ele>
  <time>2011-07-15T04:20:47Z</time>
  <speed>2.160000</speed>
</trkpt>
<trkpt lat="32.747741699" lon="35.028903961">
  <ele>453.338379</ele>
  <time>2011-07-15T04:20:49Z</time>
  <speed>2.150000</speed>
</trkpt>
<trkpt lat="32.747699738" lon="35.028888702">
  <ele>454.189941</ele>
  <time>2011-07-15T04:20:51Z</time>
  <speed>2.470000</speed>
</trkpt>
<trkpt lat="32.747673035" lon="35.028865814">
  <ele>455.299316</ele>
  <time>2011-07-15T04:20:53Z</time>
  <speed>1.680000</speed>
</trkpt>
<trkpt lat="32.747661591" lon="35.028827667">
  <ele>455.221191</ele>
  <time>2011-07-15T04:20:55Z</time>
  <speed>2.190000</speed>
</trkpt>
<trkpt lat="32.747642517" lon="35.028789520">
  <ele>455.611816</ele>
  <time>2011-07-15T04:20:57Z</time>
  <speed>2.240000</speed>
</trkpt>
<trkpt lat="32.747612000" lon="35.028755188">
  <ele>455.916504</ele>
  <time>2011-07-15T04:20:59Z</time>
  <speed>2.290000</speed>
</trkpt>
<trkpt lat="32.747577667" lon="35.028736115">
  <ele>455.307129</ele>
  <time>2011-07-15T04:21:01Z</time>
  <speed>1.680000</speed>
</trkpt>
<trkpt lat="32.747543335" lon="35.028717041">
  <ele>455.369629</ele>
  <time>2011-07-15T04:21:03Z</time>
  <speed>1.950000</speed>
</trkpt>
<trkpt lat="32.747516632" lon="35.028682709">
  <ele>455.713379</ele>
  <time>2011-07-15T04:21:05Z</time>
  <speed>2.170000</speed>
</trkpt>
<trkpt lat="32.747493744" lon="35.028652191">
  <ele>456.111816</ele>
  <time>2011-07-15T04:21:07Z</time>
  <speed>1.820000</speed>
</trkpt>
<trkpt lat="32.747467041" lon="35.028633118">
  <ele>456.768066</ele>
  <time>2011-07-15T04:21:09Z</time>
  <speed>1.850000</speed>
</trkpt>
<trkpt lat="32.747436523" lon="35.028610229">
  <ele>456.799316</ele>
  <time>2011-07-15T04:21:11Z</time>
  <speed>1.960000</speed>
</trkpt>
<trkpt lat="32.747406006" lon="35.028583527">
  <ele>456.822754</ele>
  <time>2011-07-15T04:21:13Z</time>
  <speed>2.020000</speed>
</trkpt>
<trkpt lat="32.747390747" lon="35.028553009">
  <ele>456.705566</ele>
  <time>2011-07-15T04:21:15Z</time>
  <speed>1.030000</speed>
</trkpt>
<trkpt lat="32.747356415" lon="35.028526306">
  <ele>457.588379</ele>
  <time>2011-07-15T04:21:18Z</time>
  <speed>1.970000</speed>
</trkpt>
<trkpt lat="32.747329712" lon="35.028495789">
  <ele>457.705566</ele>
  <time>2011-07-15T04:21:20Z</time>
  <speed>1.980000</speed>
</trkpt>
<trkpt lat="32.747306824" lon="35.028469086">
  <ele>457.814941</ele>
  <time>2011-07-15T04:21:22Z</time>
  <speed>2.190000</speed>
</trkpt>
<trkpt lat="32.747276306" lon="35.028427124">
  <ele>457.729004</ele>
  <time>2011-07-15T04:21:24Z</time>
  <speed>2.630000</speed>
</trkpt>
<trkpt lat="32.747257233" lon="35.028400421">
  <ele>457.932129</ele>
  <time>2011-07-15T04:21:25Z</time>
  <speed>2.890000</speed>
</trkpt>
<trkpt lat="32.747234344" lon="35.028381348">
  <ele>457.697754</ele>
  <time>2011-07-15T04:21:26Z</time>
  <speed>2.690000</speed>
</trkpt>
<trkpt lat="32.747192383" lon="35.028369904">
  <ele>457.424316</ele>
  <time>2011-07-15T04:21:28Z</time>
  <speed>1.490000</speed>
</trkpt>
<trkpt lat="32.747169495" lon="35.028343201">
  <ele>456.971191</ele>
  <time>2011-07-15T04:21:30Z</time>
  <speed>2.300000</speed>
</trkpt>
<trkpt lat="32.747135162" lon="35.028320313">
  <ele>456.658691</ele>
  <time>2011-07-15T04:21:32Z</time>
  <speed>2.090000</speed>
</trkpt>
<trkpt lat="32.747108459" lon="35.028293610">
  <ele>456.752441</ele>
  <time>2011-07-15T04:21:34Z</time>
  <speed>1.760000</speed>
</trkpt>
<trkpt lat="32.747081757" lon="35.028270721">
  <ele>456.479004</ele>
  <time>2011-07-15T04:21:36Z</time>
  <speed>1.770000</speed>
</trkpt>
<trkpt lat="32.747051239" lon="35.028244019">
  <ele>456.002441</ele>
  <time>2011-07-15T04:21:38Z</time>
  <speed>1.610000</speed>
</trkpt>
<trkpt lat="32.747013092" lon="35.028228760">
  <ele>454.775879</ele>
  <time>2011-07-15T04:21:40Z</time>
  <speed>1.850000</speed>
</trkpt>
<trkpt lat="32.746978760" lon="35.028209686">
  <ele>455.111816</ele>
  <time>2011-07-15T04:21:42Z</time>
  <speed>1.800000</speed>
</trkpt>
<trkpt lat="32.746952057" lon="35.028198242">
  <ele>455.135254</ele>
  <time>2011-07-15T04:21:44Z</time>
  <speed>1.490000</speed>
</trkpt>
<trkpt lat="32.746925354" lon="35.028190613">
  <ele>455.025879</ele>
  <time>2011-07-15T04:21:46Z</time>
  <speed>1.650000</speed>
</trkpt>
<trkpt lat="32.746894836" lon="35.028175354">
  <ele>455.408691</ele>
  <time>2011-07-15T04:21:48Z</time>
  <speed>1.270000</speed>
</trkpt>
<trkpt lat="32.746871948" lon="35.028152466">
  <ele>457.025879</ele>
  <time>2011-07-15T04:21:50Z</time>
  <speed>1.520000</speed>
</trkpt>
<trkpt lat="32.746849060" lon="35.028121948">
  <ele>456.689941</ele>
  <time>2011-07-15T04:21:52Z</time>
  <speed>1.900000</speed>
</trkpt>
<trkpt lat="32.746818542" lon="35.028091431">
  <ele>456.924316</ele>
  <time>2011-07-15T04:21:54Z</time>
  <speed>2.150000</speed>
</trkpt>
<trkpt lat="32.746772766" lon="35.028068542">
  <ele>457.596191</ele>
  <time>2011-07-15T04:21:56Z</time>
  <speed>2.370000</speed>
</trkpt>
<trkpt lat="32.746742249" lon="35.028041840">
  <ele>457.416504</ele>
  <time>2011-07-15T04:21:58Z</time>
  <speed>2.020000</speed>
</trkpt>
<trkpt lat="32.746685028" lon="35.028038025">
  <ele>458.377441</ele>
  <time>2011-07-15T04:22:00Z</time>
  <speed>1.860000</speed>
</trkpt>
<trkpt lat="32.746658325" lon="35.028053284">
  <ele>460.627441</ele>
  <time>2011-07-15T04:22:03Z</time>
  <speed>0.700000</speed>
</trkpt>
<trkpt lat="32.746623993" lon="35.028049469">
  <ele>461.361816</ele>
  <time>2011-07-15T04:22:56Z</time>
  <speed>1.110000</speed>
</trkpt>
<trkpt lat="32.746593475" lon="35.028068542">
  <ele>461.252441</ele>
  <time>2011-07-15T04:22:58Z</time>
  <speed>0.820000</speed>
</trkpt>
<trkpt lat="32.746578217" lon="35.028091431">
  <ele>460.533691</ele>
  <time>2011-07-15T04:23:01Z</time>
  <speed>0.710000</speed>
</trkpt>
<trkpt lat="32.746551514" lon="35.028076172">
  <ele>459.400879</ele>
  <time>2011-07-15T04:23:04Z</time>
  <speed>1.940000</speed>
</trkpt>
<trkpt lat="32.746578217" lon="35.028064728">
  <ele>460.416504</ele>
  <time>2011-07-15T04:23:08Z</time>
  <speed>0.890000</speed>
</trkpt>
<trkpt lat="32.746601105" lon="35.028087616">
  <ele>460.127441</ele>
  <time>2011-07-15T04:23:10Z</time>
  <speed>1.530000</speed>
</trkpt>
<trkpt lat="32.746627808" lon="35.028102875">
  <ele>460.963379</ele>
  <time>2011-07-15T04:23:12Z</time>
  <speed>1.650000</speed>
</trkpt>
<trkpt lat="32.746650696" lon="35.028133392">
  <ele>461.768066</ele>
  <time>2011-07-15T04:23:14Z</time>
  <speed>1.600000</speed>
</trkpt>
<trkpt lat="32.746665955" lon="35.028167725">
  <ele>462.635254</ele>
  <time>2011-07-15T04:23:17Z</time>
  <speed>1.140000</speed>
</trkpt>
<trkpt lat="32.746654510" lon="35.028205872">
  <ele>462.861816</ele>
  <time>2011-07-15T04:23:20Z</time>
  <speed>1.070000</speed>
</trkpt>
<trkpt lat="32.746658325" lon="35.028240204">
  <ele>463.260254</ele>
  <time>2011-07-15T04:23:24Z</time>
  <speed>0.400000</speed>
</trkpt>
<trkpt lat="32.746685028" lon="35.028255463">
  <ele>463.330566</ele>
  <time>2011-07-15T04:23:30Z</time>
  <speed>0.580000</speed>
</trkpt>
<trkpt lat="32.746719360" lon="35.028259277">
  <ele>464.189941</ele>
  <time>2011-07-15T04:23:37Z</time>
  <speed>0.250000</speed>
</trkpt>
<trkpt lat="32.746746063" lon="35.028270721">
  <ele>464.510254</ele>
  <time>2011-07-15T04:23:41Z</time>
  <speed>0.650000</speed>
</trkpt>
<trkpt lat="32.746772766" lon="35.028282166">
  <ele>465.369629</ele>
  <time>2011-07-15T04:23:44Z</time>
  <speed>0.780000</speed>
</trkpt>
<trkpt lat="32.746788025" lon="35.028308868">
  <ele>466.322754</ele>
  <time>2011-07-15T04:23:49Z</time>
  <speed>0.700000</speed>
</trkpt>
<trkpt lat="32.746788025" lon="35.028343201">
  <ele>467.182129</ele>
  <time>2011-07-15T04:23:54Z</time>
  <speed>0.830000</speed>
</trkpt>
<trkpt lat="32.746780396" lon="35.028381348">
  <ele>467.979004</ele>
  <time>2011-07-15T04:23:59Z</time>
  <speed>0.640000</speed>
</trkpt>
<trkpt lat="32.746765137" lon="35.028415680">
  <ele>468.658691</ele>
  <time>2011-07-15T04:24:05Z</time>
  <speed>0.720000</speed>
</trkpt>
<trkpt lat="32.746726990" lon="35.028411865">
  <ele>469.330566</ele>
  <time>2011-07-15T04:24:11Z</time>
  <speed>0.240000</speed>
</trkpt>
<trkpt lat="32.746704102" lon="35.028423309">
  <ele>469.041504</ele>
  <time>2011-07-15T04:28:02Z</time>
</trkpt>
<trkpt lat="32.746730804" lon="35.028423309">
  <ele>469.611816</ele>
  <time>2011-07-15T04:30:45Z</time>
  <speed>0.170000</speed>
</trkpt>
<trkpt lat="32.746753693" lon="35.028450012">
  <ele>471.424316</ele>
  <time>2011-07-15T04:30:53Z</time>
  <speed>0.880000</speed>
</trkpt>
<trkpt lat="32.746772766" lon="35.028488159">
  <ele>472.346191</ele>
  <time>2011-07-15T04:30:57Z</time>
  <speed>0.790000</speed>
</trkpt>
<trkpt lat="32.746784210" lon="35.028514862">
  <ele>472.760254</ele>
  <time>2011-07-15T04:31:02Z</time>
  <speed>0.090000</speed>
</trkpt>
<trkpt lat="32.746788025" lon="35.028553009">
  <ele>472.354004</ele>
  <time>2011-07-15T04:31:09Z</time>
  <speed>0.630000</speed>
</trkpt>
<trkpt lat="32.746772766" lon="35.028522491">
  <ele>471.900879</ele>
  <time>2011-07-15T04:31:15Z</time>
  <speed>0.420000</speed>
</trkpt>
<trkpt lat="32.746761322" lon="35.028491974">
  <ele>470.760254</ele>
  <time>2011-07-15T04:31:23Z</time>
  <speed>0.080000</speed>
</trkpt>
<trkpt lat="32.746742249" lon="35.028461456">
  <ele>470.385254</ele>
  <time>2011-07-15T04:32:09Z</time>
  <speed>0.680000</speed>
</trkpt>
<trkpt lat="32.746738434" lon="35.028423309">
  <ele>469.814941</ele>
  <time>2011-07-15T04:32:13Z</time>
  <speed>0.540000</speed>
</trkpt>
<trkpt lat="32.746734619" lon="35.028392792">
  <ele>469.041504</ele>
  <time>2011-07-15T04:32:26Z</time>
</trkpt>
<trkpt lat="32.746719360" lon="35.028366089">
  <ele>469.377441</ele>
  <time>2011-07-15T04:32:37Z</time>
</trkpt>
<trkpt lat="32.746734619" lon="35.028392792">
  <ele>469.643066</ele>
  <time>2011-07-15T04:32:55Z</time>
</trkpt>
<trkpt lat="32.746749878" lon="35.028427124">
  <ele>469.252441</ele>
  <time>2011-07-15T04:33:37Z</time>
  <speed>1.340000</speed>
</trkpt>
<trkpt lat="32.746765137" lon="35.028461456">
  <ele>469.197754</ele>
  <time>2011-07-15T04:33:39Z</time>
  <speed>1.250000</speed>
</trkpt>
<trkpt lat="32.746734619" lon="35.028472900">
  <ele>470.025879</ele>
  <time>2011-07-15T04:33:43Z</time>
  <speed>1.350000</speed>
</trkpt>
<trkpt lat="32.746757507" lon="35.028491974">
  <ele>468.057129</ele>
  <time>2011-07-15T04:33:49Z</time>
  <speed>0.730000</speed>
</trkpt>
<trkpt lat="32.746723175" lon="35.028495789">
  <ele>468.807129</ele>
  <time>2011-07-15T04:34:14Z</time>
  <speed>0.680000</speed>
</trkpt>
<trkpt lat="32.746696472" lon="35.028476715">
  <ele>469.322754</ele>
  <time>2011-07-15T04:34:17Z</time>
  <speed>0.210000</speed>
</trkpt>
<trkpt lat="32.746726990" lon="35.028488159">
  <ele>469.533691</ele>
  <time>2011-07-15T04:34:22Z</time>
  <speed>0.850000</speed>
</trkpt>
<trkpt lat="32.746753693" lon="35.028491974">
  <ele>469.760254</ele>
  <time>2011-07-15T04:34:25Z</time>
  <speed>0.230000</speed>
</trkpt>
<trkpt lat="32.746723175" lon="35.028472900">
  <ele>470.268066</ele>
  <time>2011-07-15T04:34:40Z</time>
  <speed>1.390000</speed>
</trkpt>
<trkpt lat="32.746696472" lon="35.028457642">
  <ele>470.393066</ele>
  <time>2011-07-15T04:34:42Z</time>
  <speed>1.780000</speed>
</trkpt>
<trkpt lat="32.746658325" lon="35.028438568">
  <ele>470.018066</ele>
  <time>2011-07-15T04:34:44Z</time>
  <speed>1.810000</speed>
</trkpt>
<trkpt lat="32.746627808" lon="35.028415680">
  <ele>469.463379</ele>
  <time>2011-07-15T04:34:46Z</time>
  <speed>1.960000</speed>
</trkpt>
<trkpt lat="32.746601105" lon="35.028419495">
  <ele>468.275879</ele>
  <time>2011-07-15T04:34:48Z</time>
  <speed>1.390000</speed>
</trkpt>
<trkpt lat="32.746604919" lon="35.028453827">
  <ele>468.150879</ele>
  <time>2011-07-15T04:34:51Z</time>
  <speed>1.430000</speed>
</trkpt>
<trkpt lat="32.746585846" lon="35.028495789">
  <ele>468.385254</ele>
  <time>2011-07-15T04:34:53Z</time>
  <speed>1.780000</speed>
</trkpt>
<trkpt lat="32.746574402" lon="35.028553009">
  <ele>468.182129</ele>
  <time>2011-07-15T04:34:55Z</time>
  <speed>2.780000</speed>
</trkpt>
<trkpt lat="32.746574402" lon="35.028583527">
  <ele>467.518066</ele>
  <time>2011-07-15T04:34:56Z</time>
  <speed>2.380000</speed>
</trkpt>
<trkpt lat="32.746593475" lon="35.028636932">
  <ele>467.689941</ele>
  <time>2011-07-15T04:34:58Z</time>
  <speed>2.530000</speed>
</trkpt>
<trkpt lat="32.746616364" lon="35.028667450">
  <ele>466.557129</ele>
  <time>2011-07-15T04:35:00Z</time>
  <speed>1.480000</speed>
</trkpt>
<trkpt lat="32.746643066" lon="35.028709412">
  <ele>466.549316</ele>
  <time>2011-07-15T04:35:03Z</time>
  <speed>2.080000</speed>
</trkpt>
<trkpt lat="32.746673584" lon="35.028736115">
  <ele>467.189941</ele>
  <time>2011-07-15T04:35:05Z</time>
  <speed>1.540000</speed>
</trkpt>
<trkpt lat="32.746696472" lon="35.028762817">
  <ele>466.721191</ele>
  <time>2011-07-15T04:35:07Z</time>
  <speed>2.010000</speed>
</trkpt>
<trkpt lat="32.746730804" lon="35.028804779">
  <ele>466.463379</ele>
  <time>2011-07-15T04:35:09Z</time>
  <speed>2.260000</speed>
</trkpt>
<trkpt lat="32.746761322" lon="35.028842926">
  <ele>466.697754</ele>
  <time>2011-07-15T04:35:11Z</time>
  <speed>2.310000</speed>
</trkpt>
<trkpt lat="32.746791840" lon="35.028884888">
  <ele>466.619629</ele>
  <time>2011-07-15T04:35:13Z</time>
  <speed>2.610000</speed>
</trkpt>
<trkpt lat="32.746826172" lon="35.028934479">
  <ele>465.510254</ele>
  <time>2011-07-15T04:35:15Z</time>
  <speed>2.250000</speed>
</trkpt>
<trkpt lat="32.746852875" lon="35.028980255">
  <ele>465.080566</ele>
  <time>2011-07-15T04:35:17Z</time>
  <speed>2.940000</speed>
</trkpt>
<trkpt lat="32.746864319" lon="35.029010773">
  <ele>464.697754</ele>
  <time>2011-07-15T04:35:18Z</time>
  <speed>2.600000</speed>
</trkpt>
<trkpt lat="32.746887207" lon="35.029060364">
  <ele>464.947754</ele>
  <time>2011-07-15T04:35:20Z</time>
  <speed>2.670000</speed>
</trkpt>
<trkpt lat="32.746898651" lon="35.029117584">
  <ele>464.838379</ele>
  <time>2011-07-15T04:35:22Z</time>
  <speed>2.950000</speed>
</trkpt>
<trkpt lat="32.746906281" lon="35.029155731">
  <ele>464.846191</ele>
  <time>2011-07-15T04:35:23Z</time>
  <speed>2.920000</speed>
</trkpt>
<trkpt lat="32.746921539" lon="35.029182434">
  <ele>465.221191</ele>
  <time>2011-07-15T04:35:24Z</time>
  <speed>2.580000</speed>
</trkpt>
<trkpt lat="32.746955872" lon="35.029209137">
  <ele>465.705566</ele>
  <time>2011-07-15T04:35:26Z</time>
  <speed>2.570000</speed>
</trkpt>
<trkpt lat="32.746994019" lon="35.029251099">
  <ele>464.471191</ele>
  <time>2011-07-15T04:35:28Z</time>
  <speed>2.890000</speed>
</trkpt>
<trkpt lat="32.747013092" lon="35.029277802">
  <ele>465.385254</ele>
  <time>2011-07-15T04:35:29Z</time>
  <speed>2.690000</speed>
</trkpt>
<trkpt lat="32.747028351" lon="35.029304504">
  <ele>465.236816</ele>
  <time>2011-07-15T04:35:30Z</time>
  <speed>2.450000</speed>
</trkpt>
<trkpt lat="32.747055054" lon="35.029342651">
  <ele>464.768066</ele>
  <time>2011-07-15T04:35:32Z</time>
  <speed>2.590000</speed>
</trkpt>
<trkpt lat="32.747066498" lon="35.029392242">
  <ele>464.424316</ele>
  <time>2011-07-15T04:35:34Z</time>
  <speed>2.090000</speed>
</trkpt>
<trkpt lat="32.747085571" lon="35.029430389">
  <ele>465.119629</ele>
  <time>2011-07-15T04:35:36Z</time>
  <speed>2.550000</speed>
</trkpt>
<trkpt lat="32.747112274" lon="35.029464722">
  <ele>464.979004</ele>
  <time>2011-07-15T04:35:38Z</time>
  <speed>1.750000</speed>
</trkpt>
<trkpt lat="32.747119904" lon="35.029495239">
  <ele>465.572754</ele>
  <time>2011-07-15T04:35:40Z</time>
  <speed>1.550000</speed>
</trkpt>
<trkpt lat="32.747146606" lon="35.029518127">
  <ele>466.541504</ele>
  <time>2011-07-15T04:35:42Z</time>
  <speed>1.930000</speed>
</trkpt>
<trkpt lat="32.747173309" lon="35.029537201">
  <ele>466.447754</ele>
  <time>2011-07-15T04:35:44Z</time>
  <speed>1.780000</speed>
</trkpt>
<trkpt lat="32.747200012" lon="35.029563904">
  <ele>466.619629</ele>
  <time>2011-07-15T04:35:46Z</time>
  <speed>2.090000</speed>
</trkpt>
<trkpt lat="32.747222900" lon="35.029594421">
  <ele>467.010254</ele>
  <time>2011-07-15T04:35:48Z</time>
  <speed>1.600000</speed>
</trkpt>
<trkpt lat="32.747196198" lon="35.029621124">
  <ele>468.010254</ele>
  <time>2011-07-15T04:35:50Z</time>
  <speed>1.510000</speed>
</trkpt>
<trkpt lat="32.747196198" lon="35.029659271">
  <ele>468.877441</ele>
  <time>2011-07-15T04:35:52Z</time>
  <speed>1.350000</speed>
</trkpt>
<trkpt lat="32.747184753" lon="35.029685974">
  <ele>470.127441</ele>
  <time>2011-07-15T04:35:54Z</time>
  <speed>1.500000</speed>
</trkpt>
<trkpt lat="32.747150421" lon="35.029708862">
  <ele>471.135254</ele>
  <time>2011-07-15T04:35:57Z</time>
  <speed>1.640000</speed>
</trkpt>
<trkpt lat="32.747112274" lon="35.029701233">
  <ele>472.072754</ele>
  <time>2011-07-15T04:36:00Z</time>
  <speed>1.070000</speed>
</trkpt>
<trkpt lat="32.747085571" lon="35.029720306">
  <ele>472.650879</ele>
  <time>2011-07-15T04:36:04Z</time>
  <speed>0.920000</speed>
</trkpt>
<trkpt lat="32.747062683" lon="35.029747009">
  <ele>473.010254</ele>
  <time>2011-07-15T04:36:08Z</time>
  <speed>1.380000</speed>
</trkpt>
<trkpt lat="32.747028351" lon="35.029762268">
  <ele>472.932129</ele>
  <time>2011-07-15T04:36:10Z</time>
  <speed>2.170000</speed>
</trkpt>
<trkpt lat="32.747001648" lon="35.029796600">
  <ele>472.330566</ele>
  <time>2011-07-15T04:36:12Z</time>
  <speed>2.060000</speed>
</trkpt>
<trkpt lat="32.746978760" lon="35.029823303">
  <ele>472.752441</ele>
  <time>2011-07-15T04:36:14Z</time>
  <speed>1.990000</speed>
</trkpt>
<trkpt lat="32.746955872" lon="35.029861450">
  <ele>472.104004</ele>
  <time>2011-07-15T04:36:16Z</time>
  <speed>2.050000</speed>
</trkpt>
<trkpt lat="32.746925354" lon="35.029891968">
  <ele>472.502441</ele>
  <time>2011-07-15T04:36:18Z</time>
  <speed>2.240000</speed>
</trkpt>
<trkpt lat="32.746894836" lon="35.029926300">
  <ele>471.822754</ele>
  <time>2011-07-15T04:36:20Z</time>
  <speed>2.210000</speed>
</trkpt>
<trkpt lat="32.746860504" lon="35.029956818">
  <ele>472.322754</ele>
  <time>2011-07-15T04:36:22Z</time>
  <speed>1.900000</speed>
</trkpt>
<trkpt lat="32.746837616" lon="35.029983521">
  <ele>471.463379</ele>
  <time>2011-07-15T04:36:24Z</time>
  <speed>1.490000</speed>
</trkpt>
<trkpt lat="32.746814728" lon="35.030014038">
  <ele>471.377441</ele>
  <time>2011-07-15T04:36:26Z</time>
  <speed>1.860000</speed>
</trkpt>
<trkpt lat="32.746780396" lon="35.030033112">
  <ele>471.049316</ele>
  <time>2011-07-15T04:36:28Z</time>
  <speed>2.210000</speed>
</trkpt>
<trkpt lat="32.746746063" lon="35.030048370">
  <ele>471.369629</ele>
  <time>2011-07-15T04:36:30Z</time>
  <speed>2.350000</speed>
</trkpt>
<trkpt lat="32.746700287" lon="35.030075073">
  <ele>471.518066</ele>
  <time>2011-07-15T04:36:32Z</time>
  <speed>2.370000</speed>
</trkpt>
<trkpt lat="32.746658325" lon="35.030094147">
  <ele>471.736816</ele>
  <time>2011-07-15T04:36:34Z</time>
  <speed>2.430000</speed>
</trkpt>
<trkpt lat="32.746620178" lon="35.030105591">
  <ele>470.619629</ele>
  <time>2011-07-15T04:36:36Z</time>
  <speed>2.290000</speed>
</trkpt>
<trkpt lat="32.746582031" lon="35.030132294">
  <ele>470.979004</ele>
  <time>2011-07-15T04:36:38Z</time>
  <speed>2.430000</speed>
</trkpt>
<trkpt lat="32.746532440" lon="35.030147552">
  <ele>471.361816</ele>
  <time>2011-07-15T04:36:40Z</time>
  <speed>2.680000</speed>
</trkpt>
<trkpt lat="32.746494293" lon="35.030162811">
  <ele>471.338379</ele>
  <time>2011-07-15T04:36:42Z</time>
  <speed>2.150000</speed>
</trkpt>
<trkpt lat="32.746463776" lon="35.030185699">
  <ele>471.479004</ele>
  <time>2011-07-15T04:36:44Z</time>
  <speed>2.150000</speed>
</trkpt>
<trkpt lat="32.746425629" lon="35.030204773">
  <ele>471.229004</ele>
  <time>2011-07-15T04:36:46Z</time>
  <speed>2.270000</speed>
</trkpt>
<trkpt lat="32.746395111" lon="35.030220032">
  <ele>471.861816</ele>
  <time>2011-07-15T04:36:48Z</time>
  <speed>1.570000</speed>
</trkpt>
<trkpt lat="32.746364594" lon="35.030235291">
  <ele>471.549316</ele>
  <time>2011-07-15T04:36:51Z</time>
  <speed>1.530000</speed>
</trkpt>
<trkpt lat="32.746334076" lon="35.030258179">
  <ele>471.408691</ele>
  <time>2011-07-15T04:36:53Z</time>
  <speed>2.030000</speed>
</trkpt>
<trkpt lat="32.746299744" lon="35.030265808">
  <ele>471.525879</ele>
  <time>2011-07-15T04:36:55Z</time>
  <speed>1.650000</speed>
</trkpt>
<trkpt lat="32.746273041" lon="35.030288696">
  <ele>471.963379</ele>
  <time>2011-07-15T04:36:57Z</time>
  <speed>1.570000</speed>
</trkpt>
<trkpt lat="32.746238708" lon="35.030300140">
  <ele>472.775879</ele>
  <time>2011-07-15T04:36:59Z</time>
  <speed>2.360000</speed>
</trkpt>
<trkpt lat="32.746204376" lon="35.030326843">
  <ele>472.354004</ele>
  <time>2011-07-15T04:37:01Z</time>
  <speed>2.140000</speed>
</trkpt>
<trkpt lat="32.746170044" lon="35.030349731">
  <ele>471.596191</ele>
  <time>2011-07-15T04:37:03Z</time>
  <speed>2.200000</speed>
</trkpt>
<trkpt lat="32.746124268" lon="35.030372620">
  <ele>470.510254</ele>
  <time>2011-07-15T04:37:05Z</time>
  <speed>2.870000</speed>
</trkpt>
<trkpt lat="32.746101379" lon="35.030384064">
  <ele>469.869629</ele>
  <time>2011-07-15T04:37:06Z</time>
  <speed>2.810000</speed>
</trkpt>
<trkpt lat="32.746047974" lon="35.030403137">
  <ele>469.924316</ele>
  <time>2011-07-15T04:37:08Z</time>
  <speed>2.820000</speed>
</trkpt>
<trkpt lat="32.746025085" lon="35.030418396">
  <ele>469.533691</ele>
  <time>2011-07-15T04:37:09Z</time>
  <speed>2.930000</speed>
</trkpt>
<trkpt lat="32.745998383" lon="35.030433655">
  <ele>469.463379</ele>
  <time>2011-07-15T04:37:10Z</time>
  <speed>3.240000</speed>
</trkpt>
<trkpt lat="32.745971680" lon="35.030448914">
  <ele>469.611816</ele>
  <time>2011-07-15T04:37:11Z</time>
  <speed>3.220000</speed>
</trkpt>
<trkpt lat="32.745941162" lon="35.030464172">
  <ele>470.096191</ele>
  <time>2011-07-15T04:37:12Z</time>
  <speed>3.290000</speed>
</trkpt>
<trkpt lat="32.745914459" lon="35.030479431">
  <ele>470.416504</ele>
  <time>2011-07-15T04:37:13Z</time>
  <speed>3.520000</speed>
</trkpt>
<trkpt lat="32.745883942" lon="35.030494690">
  <ele>470.557129</ele>
  <time>2011-07-15T04:37:14Z</time>
  <speed>3.620000</speed>
</trkpt>
<trkpt lat="32.745845795" lon="35.030506134">
  <ele>470.088379</ele>
  <time>2011-07-15T04:37:15Z</time>
  <speed>3.860000</speed>
</trkpt>
<trkpt lat="32.745803833" lon="35.030509949">
  <ele>470.486816</ele>
  <time>2011-07-15T04:37:16Z</time>
  <speed>3.830000</speed>
</trkpt>
<trkpt lat="32.745769501" lon="35.030521393">
  <ele>470.869629</ele>
  <time>2011-07-15T04:37:17Z</time>
  <speed>3.880000</speed>
</trkpt>
<trkpt lat="32.745731354" lon="35.030529022">
  <ele>471.525879</ele>
  <time>2011-07-15T04:37:18Z</time>
  <speed>3.920000</speed>
</trkpt>
<trkpt lat="32.745697021" lon="35.030536652">
  <ele>471.650879</ele>
  <time>2011-07-15T04:37:19Z</time>
  <speed>3.920000</speed>
</trkpt>
<trkpt lat="32.745662689" lon="35.030544281">
  <ele>472.432129</ele>
  <time>2011-07-15T04:37:20Z</time>
  <speed>3.830000</speed>
</trkpt>
<trkpt lat="32.745624542" lon="35.030551910">
  <ele>472.807129</ele>
  <time>2011-07-15T04:37:21Z</time>
  <speed>3.710000</speed>
</trkpt>
<trkpt lat="32.745594025" lon="35.030555725">
  <ele>472.775879</ele>
  <time>2011-07-15T04:37:22Z</time>
  <speed>3.770000</speed>
</trkpt>
<trkpt lat="32.745559692" lon="35.030563354">
  <ele>473.260254</ele>
  <time>2011-07-15T04:37:23Z</time>
  <speed>3.560000</speed>
</trkpt>
<trkpt lat="32.745532990" lon="35.030563354">
  <ele>473.635254</ele>
  <time>2011-07-15T04:37:24Z</time>
  <speed>3.370000</speed>
</trkpt>
<trkpt lat="32.745491028" lon="35.030570984">
  <ele>475.135254</ele>
  <time>2011-07-15T04:37:25Z</time>
  <speed>3.450000</speed>
</trkpt>
<trkpt lat="32.745460510" lon="35.030574799">
  <ele>474.783691</ele>
  <time>2011-07-15T04:37:26Z</time>
  <speed>3.690000</speed>
</trkpt>
<trkpt lat="32.745426178" lon="35.030578613">
  <ele>475.283691</ele>
  <time>2011-07-15T04:37:27Z</time>
  <speed>3.590000</speed>
</trkpt>
<trkpt lat="32.745391846" lon="35.030567169">
  <ele>475.510254</ele>
  <time>2011-07-15T04:37:28Z</time>
  <speed>3.640000</speed>
</trkpt>
<trkpt lat="32.745361328" lon="35.030559540">
  <ele>475.697754</ele>
  <time>2011-07-15T04:37:29Z</time>
  <speed>3.580000</speed>
</trkpt>
<trkpt lat="32.745326996" lon="35.030540466">
  <ele>475.549316</ele>
  <time>2011-07-15T04:37:30Z</time>
  <speed>3.640000</speed>
</trkpt>
<trkpt lat="32.745304108" lon="35.030521393">
  <ele>474.604004</ele>
  <time>2011-07-15T04:37:31Z</time>
  <speed>4.130000</speed>
</trkpt>
<trkpt lat="32.745273590" lon="35.030487061">
  <ele>474.447754</ele>
  <time>2011-07-15T04:37:32Z</time>
  <speed>4.240000</speed>
</trkpt>
<trkpt lat="32.745250702" lon="35.030452728">
  <ele>474.104004</ele>
  <time>2011-07-15T04:37:33Z</time>
  <speed>4.410000</speed>
</trkpt>
<trkpt lat="32.745220184" lon="35.030410767">
  <ele>474.330566</ele>
  <time>2011-07-15T04:37:34Z</time>
  <speed>4.160000</speed>
</trkpt>
<trkpt lat="32.745204926" lon="35.030372620">
  <ele>473.861816</ele>
  <time>2011-07-15T04:37:35Z</time>
  <speed>3.820000</speed>
</trkpt>
<trkpt lat="32.745189667" lon="35.030330658">
  <ele>473.400879</ele>
  <time>2011-07-15T04:37:36Z</time>
  <speed>3.890000</speed>
</trkpt>
<trkpt lat="32.745178223" lon="35.030288696">
  <ele>473.002441</ele>
  <time>2011-07-15T04:37:37Z</time>
  <speed>4.040000</speed>
</trkpt>
<trkpt lat="32.745166779" lon="35.030242920">
  <ele>472.947754</ele>
  <time>2011-07-15T04:37:38Z</time>
  <speed>4.170000</speed>
</trkpt>
<trkpt lat="32.745155334" lon="35.030193329">
  <ele>473.080566</ele>
  <time>2011-07-15T04:37:39Z</time>
  <speed>4.590000</speed>
</trkpt>
<trkpt lat="32.745143890" lon="35.030151367">
  <ele>473.299316</ele>
  <time>2011-07-15T04:37:40Z</time>
  <speed>4.150000</speed>
</trkpt>
<trkpt lat="32.745136261" lon="35.030113220">
  <ele>473.369629</ele>
  <time>2011-07-15T04:37:41Z</time>
  <speed>3.350000</speed>
</trkpt>
<trkpt lat="32.745128632" lon="35.030056000">
  <ele>473.041504</ele>
  <time>2011-07-15T04:37:43Z</time>
  <speed>2.250000</speed>
</trkpt>
<trkpt lat="32.745128632" lon="35.030017853">
  <ele>473.986816</ele>
  <time>2011-07-15T04:37:45Z</time>
  <speed>1.430000</speed>
</trkpt>
<trkpt lat="32.745132446" lon="35.029975891">
  <ele>473.354004</ele>
  <time>2011-07-15T04:37:48Z</time>
  <speed>1.770000</speed>
</trkpt>
<trkpt lat="32.745132446" lon="35.029933929">
  <ele>473.971191</ele>
  <time>2011-07-15T04:37:50Z</time>
  <speed>1.520000</speed>
</trkpt>
<trkpt lat="32.745132446" lon="35.029899597">
  <ele>473.525879</ele>
  <time>2011-07-15T04:37:52Z</time>
  <speed>1.780000</speed>
</trkpt>
<trkpt lat="32.745143890" lon="35.029865265">
  <ele>472.736816</ele>
  <time>2011-07-15T04:37:54Z</time>
  <speed>1.980000</speed>
</trkpt>
<trkpt lat="32.745155334" lon="35.029827118">
  <ele>472.049316</ele>
  <time>2011-07-15T04:37:56Z</time>
  <speed>2.050000</speed>
</trkpt>
<trkpt lat="32.745162964" lon="35.029773712">
  <ele>472.400879</ele>
  <time>2011-07-15T04:37:58Z</time>
  <speed>2.860000</speed>
</trkpt>
<trkpt lat="32.745174408" lon="35.029743195">
  <ele>471.893066</ele>
  <time>2011-07-15T04:37:59Z</time>
  <speed>3.170000</speed>
</trkpt>
<trkpt lat="32.745182037" lon="35.029708862">
  <ele>472.080566</ele>
  <time>2011-07-15T04:38:00Z</time>
  <speed>3.270000</speed>
</trkpt>
<trkpt lat="32.745193481" lon="35.029678345">
  <ele>471.994629</ele>
  <time>2011-07-15T04:38:01Z</time>
  <speed>3.110000</speed>
</trkpt>
<trkpt lat="32.745201111" lon="35.029647827">
  <ele>472.260254</ele>
  <time>2011-07-15T04:38:02Z</time>
  <speed>3.080000</speed>
</trkpt>
<trkpt lat="32.745208740" lon="35.029613495">
  <ele>472.322754</ele>
  <time>2011-07-15T04:38:03Z</time>
  <speed>2.960000</speed>
</trkpt>
<trkpt lat="32.745227814" lon="35.029552460">
  <ele>471.525879</ele>
  <time>2011-07-15T04:38:05Z</time>
  <speed>3.170000</speed>
</trkpt>
<trkpt lat="32.745235443" lon="35.029518127">
  <ele>471.369629</ele>
  <time>2011-07-15T04:38:06Z</time>
  <speed>3.160000</speed>
</trkpt>
<trkpt lat="32.745239258" lon="35.029479980">
  <ele>472.354004</ele>
  <time>2011-07-15T04:38:07Z</time>
  <speed>3.320000</speed>
</trkpt>
<trkpt lat="32.745239258" lon="35.029445648">
  <ele>472.502441</ele>
  <time>2011-07-15T04:38:08Z</time>
  <speed>3.240000</speed>
</trkpt>
<trkpt lat="32.745235443" lon="35.029411316">
  <ele>473.221191</ele>
  <time>2011-07-15T04:38:09Z</time>
  <speed>3.650000</speed>
</trkpt>
<trkpt lat="32.745235443" lon="35.029376984">
  <ele>472.885254</ele>
  <time>2011-07-15T04:38:10Z</time>
  <speed>3.560000</speed>
</trkpt>
<trkpt lat="32.745231628" lon="35.029338837">
  <ele>472.893066</ele>
  <time>2011-07-15T04:38:11Z</time>
  <speed>3.540000</speed>
</trkpt>
<trkpt lat="32.745227814" lon="35.029304504">
  <ele>473.041504</ele>
  <time>2011-07-15T04:38:12Z</time>
  <speed>3.650000</speed>
</trkpt>
<trkpt lat="32.745220184" lon="35.029266357">
  <ele>472.705566</ele>
  <time>2011-07-15T04:38:13Z</time>
  <speed>3.490000</speed>
</trkpt>
<trkpt lat="32.745208740" lon="35.029224396">
  <ele>473.260254</ele>
  <time>2011-07-15T04:38:14Z</time>
  <speed>3.800000</speed>
</trkpt>
<trkpt lat="32.745197296" lon="35.029182434">
  <ele>473.557129</ele>
  <time>2011-07-15T04:38:15Z</time>
  <speed>3.990000</speed>
</trkpt>
<trkpt lat="32.745178223" lon="35.029144287">
  <ele>473.057129</ele>
  <time>2011-07-15T04:38:16Z</time>
  <speed>4.180000</speed>
</trkpt>
<trkpt lat="32.745166779" lon="35.029102325">
  <ele>472.572754</ele>
  <time>2011-07-15T04:38:17Z</time>
  <speed>4.200000</speed>
</trkpt>
<trkpt lat="32.745143890" lon="35.029060364">
  <ele>472.057129</ele>
  <time>2011-07-15T04:38:18Z</time>
  <speed>4.270000</speed>
</trkpt>
<trkpt lat="32.745121002" lon="35.029022217">
  <ele>471.971191</ele>
  <time>2011-07-15T04:38:19Z</time>
  <speed>4.220000</speed>
</trkpt>
<trkpt lat="32.745094299" lon="35.028987885">
  <ele>472.002441</ele>
  <time>2011-07-15T04:38:20Z</time>
  <speed>4.200000</speed>
</trkpt>
<trkpt lat="32.745067596" lon="35.028957367">
  <ele>471.994629</ele>
  <time>2011-07-15T04:38:21Z</time>
  <speed>4.030000</speed>
</trkpt>
<trkpt lat="32.745040894" lon="35.028923035">
  <ele>472.377441</ele>
  <time>2011-07-15T04:38:22Z</time>
  <speed>4.220000</speed>
</trkpt>
<trkpt lat="32.745002747" lon="35.028900146">
  <ele>472.268066</ele>
  <time>2011-07-15T04:38:23Z</time>
  <speed>4.330000</speed>
</trkpt>
<trkpt lat="32.744964600" lon="35.028877258">
  <ele>471.979004</ele>
  <time>2011-07-15T04:38:24Z</time>
  <speed>4.490000</speed>
</trkpt>
<trkpt lat="32.744926453" lon="35.028862000">
  <ele>471.572754</ele>
  <time>2011-07-15T04:38:25Z</time>
  <speed>4.350000</speed>
</trkpt>
<trkpt lat="32.744888306" lon="35.028850555">
  <ele>471.393066</ele>
  <time>2011-07-15T04:38:26Z</time>
  <speed>4.250000</speed>
</trkpt>
<trkpt lat="32.744853973" lon="35.028835297">
  <ele>471.166504</ele>
  <time>2011-07-15T04:38:27Z</time>
  <speed>4.490000</speed>
</trkpt>
<trkpt lat="32.744819641" lon="35.028831482">
  <ele>470.783691</ele>
  <time>2011-07-15T04:38:28Z</time>
  <speed>4.510000</speed>
</trkpt>
<trkpt lat="32.744777679" lon="35.028820038">
  <ele>470.689941</ele>
  <time>2011-07-15T04:38:29Z</time>
  <speed>4.250000</speed>
</trkpt>
<trkpt lat="32.744739532" lon="35.028816223">
  <ele>470.775879</ele>
  <time>2011-07-15T04:38:30Z</time>
  <speed>4.120000</speed>
</trkpt>
<trkpt lat="32.744701385" lon="35.028812408">
  <ele>470.479004</ele>
  <time>2011-07-15T04:38:31Z</time>
  <speed>3.770000</speed>
</trkpt>
<trkpt lat="32.744659424" lon="35.028820038">
  <ele>471.018066</ele>
  <time>2011-07-15T04:38:32Z</time>
  <speed>3.460000</speed>
</trkpt>
<trkpt lat="32.744625092" lon="35.028820038">
  <ele>470.885254</ele>
  <time>2011-07-15T04:38:33Z</time>
  <speed>3.750000</speed>
</trkpt>
<trkpt lat="32.744586945" lon="35.028816223">
  <ele>471.260254</ele>
  <time>2011-07-15T04:38:34Z</time>
  <speed>3.550000</speed>
</trkpt>
<trkpt lat="32.744552612" lon="35.028820038">
  <ele>470.479004</ele>
  <time>2011-07-15T04:38:35Z</time>
  <speed>3.500000</speed>
</trkpt>
<trkpt lat="32.744525909" lon="35.028827667">
  <ele>470.650879</ele>
  <time>2011-07-15T04:38:36Z</time>
  <speed>3.340000</speed>
</trkpt>
<trkpt lat="32.744495392" lon="35.028835297">
  <ele>471.283691</ele>
  <time>2011-07-15T04:38:37Z</time>
  <speed>3.430000</speed>
</trkpt>
<trkpt lat="32.744468689" lon="35.028846741">
  <ele>470.932129</ele>
  <time>2011-07-15T04:38:38Z</time>
  <speed>3.320000</speed>
</trkpt>
<trkpt lat="32.744430542" lon="35.028888702">
  <ele>470.361816</ele>
  <time>2011-07-15T04:38:40Z</time>
  <speed>2.270000</speed>
</trkpt>
<trkpt lat="32.744403839" lon="35.028923035">
  <ele>470.479004</ele>
  <time>2011-07-15T04:38:42Z</time>
  <speed>1.550000</speed>
</trkpt>
<trkpt lat="32.744377136" lon="35.028972626">
  <ele>470.299316</ele>
  <time>2011-07-15T04:38:44Z</time>
  <speed>2.290000</speed>
</trkpt>
<trkpt lat="32.744361877" lon="35.029018402">
  <ele>471.596191</ele>
  <time>2011-07-15T04:38:46Z</time>
  <speed>2.160000</speed>
</trkpt>
<trkpt lat="32.744350433" lon="35.029071808">
  <ele>473.666504</ele>
  <time>2011-07-15T04:38:48Z</time>
  <speed>2.160000</speed>
</trkpt>
<trkpt lat="32.744338989" lon="35.029113770">
  <ele>473.877441</ele>
  <time>2011-07-15T04:38:50Z</time>
  <speed>1.770000</speed>
</trkpt>
<trkpt lat="32.744327545" lon="35.029159546">
  <ele>474.713379</ele>
  <time>2011-07-15T04:38:52Z</time>
  <speed>1.810000</speed>
</trkpt>
<trkpt lat="32.744327545" lon="35.029197693">
  <ele>475.400879</ele>
  <time>2011-07-15T04:38:54Z</time>
  <speed>1.960000</speed>
</trkpt>
<trkpt lat="32.744327545" lon="35.029243469">
  <ele>475.502441</ele>
  <time>2011-07-15T04:38:56Z</time>
  <speed>1.920000</speed>
</trkpt>
<trkpt lat="32.744331360" lon="35.029281616">
  <ele>475.955566</ele>
  <time>2011-07-15T04:38:58Z</time>
  <speed>1.770000</speed>
</trkpt>
<trkpt lat="32.744338989" lon="35.029327393">
  <ele>476.619629</ele>
  <time>2011-07-15T04:39:00Z</time>
  <speed>1.720000</speed>
</trkpt>
<trkpt lat="32.744354248" lon="35.029369354">
  <ele>476.572754</ele>
  <time>2011-07-15T04:39:03Z</time>
  <speed>1.620000</speed>
</trkpt>
<trkpt lat="32.744369507" lon="35.029407501">
  <ele>476.932129</ele>
  <time>2011-07-15T04:39:05Z</time>
  <speed>1.610000</speed>
</trkpt>
<trkpt lat="32.744384766" lon="35.029445648">
  <ele>477.549316</ele>
  <time>2011-07-15T04:39:07Z</time>
  <speed>1.660000</speed>
</trkpt>
<trkpt lat="32.744400024" lon="35.029479980">
  <ele>478.979004</ele>
  <time>2011-07-15T04:39:09Z</time>
  <speed>1.360000</speed>
</trkpt>
<trkpt lat="32.744415283" lon="35.029510498">
  <ele>479.213379</ele>
  <time>2011-07-15T04:39:11Z</time>
  <speed>1.280000</speed>
</trkpt>
<trkpt lat="32.744445801" lon="35.029533386">
  <ele>479.572754</ele>
  <time>2011-07-15T04:39:13Z</time>
  <speed>1.620000</speed>
</trkpt>
<trkpt lat="32.744468689" lon="35.029560089">
  <ele>479.799316</ele>
  <time>2011-07-15T04:39:15Z</time>
  <speed>1.460000</speed>
</trkpt>
<trkpt lat="32.744487762" lon="35.029582977">
  <ele>480.018066</ele>
  <time>2011-07-15T04:39:17Z</time>
  <speed>1.370000</speed>
</trkpt>
<trkpt lat="32.744495392" lon="35.029617310">
  <ele>479.689941</ele>
  <time>2011-07-15T04:39:20Z</time>
  <speed>1.480000</speed>
</trkpt>
<trkpt lat="32.744506836" lon="35.029651642">
  <ele>481.111816</ele>
  <time>2011-07-15T04:39:23Z</time>
  <speed>1.020000</speed>
</trkpt>
<trkpt lat="32.744514465" lon="35.029693604">
  <ele>482.307129</ele>
  <time>2011-07-15T04:39:26Z</time>
  <speed>1.070000</speed>
</trkpt>
<trkpt lat="32.744503021" lon="35.029731750">
  <ele>483.354004</ele>
  <time>2011-07-15T04:39:30Z</time>
  <speed>1.440000</speed>
</trkpt>
<trkpt lat="32.744480133" lon="35.029747009">
  <ele>484.010254</ele>
  <time>2011-07-15T04:39:32Z</time>
  <speed>1.810000</speed>
</trkpt>
<trkpt lat="32.744445801" lon="35.029750824">
  <ele>484.900879</ele>
  <time>2011-07-15T04:39:34Z</time>
  <speed>1.790000</speed>
</trkpt>
<trkpt lat="32.744419098" lon="35.029766083">
  <ele>485.033691</ele>
  <time>2011-07-15T04:39:36Z</time>
  <speed>1.720000</speed>
</trkpt>
<trkpt lat="32.744392395" lon="35.029788971">
  <ele>485.838379</ele>
  <time>2011-07-15T04:39:38Z</time>
  <speed>1.500000</speed>
</trkpt>
<trkpt lat="32.744361877" lon="35.029819489">
  <ele>486.275879</ele>
  <time>2011-07-15T04:39:41Z</time>
  <speed>1.570000</speed>
</trkpt>
<trkpt lat="32.744327545" lon="35.029850006">
  <ele>485.760254</ele>
  <time>2011-07-15T04:39:44Z</time>
  <speed>1.480000</speed>
</trkpt>
<trkpt lat="32.744304657" lon="35.029880524">
  <ele>485.830566</ele>
  <time>2011-07-15T04:39:46Z</time>
  <speed>1.630000</speed>
</trkpt>
<trkpt lat="32.744297028" lon="35.029914856">
  <ele>486.213379</ele>
  <time>2011-07-15T04:39:48Z</time>
  <speed>1.870000</speed>
</trkpt>
<trkpt lat="32.744281769" lon="35.029949188">
  <ele>486.596191</ele>
  <time>2011-07-15T04:39:50Z</time>
  <speed>1.420000</speed>
</trkpt>
<trkpt lat="32.744258881" lon="35.029968262">
  <ele>487.205566</ele>
  <time>2011-07-15T04:39:52Z</time>
  <speed>1.380000</speed>
</trkpt>
<trkpt lat="32.744239807" lon="35.029998779">
  <ele>487.854004</ele>
  <time>2011-07-15T04:39:55Z</time>
  <speed>1.030000</speed>
</trkpt>
<trkpt lat="32.744220734" lon="35.030033112">
  <ele>488.049316</ele>
  <time>2011-07-15T04:39:58Z</time>
  <speed>1.080000</speed>
</trkpt>
<trkpt lat="32.744213104" lon="35.030071259">
  <ele>488.072754</ele>
  <time>2011-07-15T04:40:01Z</time>
  <speed>1.050000</speed>
</trkpt>
<trkpt lat="32.744213104" lon="35.030101776">
  <ele>488.713379</ele>
  <time>2011-07-15T04:40:04Z</time>
  <speed>0.730000</speed>
</trkpt>
<trkpt lat="32.744197845" lon="35.030132294">
  <ele>489.525879</ele>
  <time>2011-07-15T04:40:06Z</time>
  <speed>1.360000</speed>
</trkpt>
<trkpt lat="32.744182587" lon="35.030162811">
  <ele>490.346191</ele>
  <time>2011-07-15T04:40:09Z</time>
  <speed>0.940000</speed>
</trkpt>
<trkpt lat="32.744155884" lon="35.030197144">
  <ele>491.377441</ele>
  <time>2011-07-15T04:40:12Z</time>
  <speed>1.420000</speed>
</trkpt>
<trkpt lat="32.744148254" lon="35.030231476">
  <ele>492.213379</ele>
  <time>2011-07-15T04:40:15Z</time>
  <speed>0.910000</speed>
</trkpt>
<trkpt lat="32.744136810" lon="35.030269623">
  <ele>491.346191</ele>
  <time>2011-07-15T04:40:18Z</time>
  <speed>1.000000</speed>
</trkpt>
<trkpt lat="32.744136810" lon="35.030307770">
  <ele>491.361816</ele>
  <time>2011-07-15T04:40:21Z</time>
  <speed>1.000000</speed>
</trkpt>
<trkpt lat="32.744136810" lon="35.030357361">
  <ele>490.994629</ele>
  <time>2011-07-15T04:40:24Z</time>
  <speed>1.430000</speed>
</trkpt>
<trkpt lat="32.744140625" lon="35.030391693">
  <ele>492.400879</ele>
  <time>2011-07-15T04:40:26Z</time>
  <speed>1.060000</speed>
</trkpt>
<trkpt lat="32.744129181" lon="35.030429840">
  <ele>492.666504</ele>
  <time>2011-07-15T04:40:29Z</time>
  <speed>1.360000</speed>
</trkpt>
<trkpt lat="32.744125366" lon="35.030464172">
  <ele>492.697754</ele>
  <time>2011-07-15T04:40:31Z</time>
  <speed>1.360000</speed>
</trkpt>
<trkpt lat="32.744117737" lon="35.030513763">
  <ele>492.674316</ele>
  <time>2011-07-15T04:40:34Z</time>
  <speed>1.450000</speed>
</trkpt>
<trkpt lat="32.744091034" lon="35.030544281">
  <ele>493.424316</ele>
  <time>2011-07-15T04:40:37Z</time>
  <speed>1.190000</speed>
</trkpt>
<trkpt lat="32.744079590" lon="35.030586243">
  <ele>493.135254</ele>
  <time>2011-07-15T04:40:40Z</time>
  <speed>1.010000</speed>
</trkpt>
<trkpt lat="32.744091034" lon="35.030616760">
  <ele>493.939941</ele>
  <time>2011-07-15T04:40:41Z</time>
  <speed>1.030000</speed>
</trkpt>
<trkpt lat="32.744113922" lon="35.030639648">
  <ele>494.299316</ele>
  <time>2011-07-15T04:40:44Z</time>
  <speed>0.840000</speed>
</trkpt>
<trkpt lat="32.744152069" lon="35.030639648">
  <ele>494.635254</ele>
  <time>2011-07-15T04:40:48Z</time>
  <speed>1.210000</speed>
</trkpt>
<trkpt lat="32.744190216" lon="35.030635834">
  <ele>493.604004</ele>
  <time>2011-07-15T04:40:51Z</time>
  <speed>1.440000</speed>
</trkpt>
<trkpt lat="32.744228363" lon="35.030643463">
  <ele>493.799316</ele>
  <time>2011-07-15T04:40:54Z</time>
  <speed>1.210000</speed>
</trkpt>
<trkpt lat="32.744255066" lon="35.030651093">
  <ele>494.275879</ele>
  <time>2011-07-15T04:40:56Z</time>
  <speed>1.320000</speed>
</trkpt>
<trkpt lat="32.744281769" lon="35.030670166">
  <ele>493.510254</ele>
  <time>2011-07-15T04:40:58Z</time>
  <speed>1.040000</speed>
</trkpt>
<trkpt lat="32.744297028" lon="35.030700684">
  <ele>495.455566</ele>
  <time>2011-07-15T04:41:01Z</time>
  <speed>1.060000</speed>
</trkpt>
<trkpt lat="32.744289398" lon="35.030742645">
  <ele>496.127441</ele>
  <time>2011-07-15T04:41:04Z</time>
  <speed>1.480000</speed>
</trkpt>
<trkpt lat="32.744281769" lon="35.030773163">
  <ele>498.604004</ele>
  <time>2011-07-15T04:41:06Z</time>
  <speed>1.280000</speed>
</trkpt>
<trkpt lat="32.744255066" lon="35.030807495">
  <ele>499.424316</ele>
  <time>2011-07-15T04:41:09Z</time>
  <speed>1.180000</speed>
</trkpt>
<trkpt lat="32.744235992" lon="35.030834198">
  <ele>500.541504</ele>
  <time>2011-07-15T04:41:12Z</time>
  <speed>1.040000</speed>
</trkpt>
<trkpt lat="32.744216919" lon="35.030860901">
  <ele>500.830566</ele>
  <time>2011-07-15T04:41:14Z</time>
  <speed>1.560000</speed>
</trkpt>
<trkpt lat="32.744194031" lon="35.030883789">
  <ele>501.557129</ele>
  <time>2011-07-15T04:41:16Z</time>
  <speed>1.300000</speed>
</trkpt>
<trkpt lat="32.744174957" lon="35.030906677">
  <ele>502.463379</ele>
  <time>2011-07-15T04:41:19Z</time>
  <speed>1.070000</speed>
</trkpt>
<trkpt lat="32.744167328" lon="35.030937195">
  <ele>502.947754</ele>
  <time>2011-07-15T04:41:24Z</time>
  <speed>0.090000</speed>
</trkpt>
<trkpt lat="32.744194031" lon="35.030929565">
  <ele>503.674316</ele>
  <time>2011-07-15T04:41:51Z</time>
  <speed>0.030000</speed>
</trkpt>
<trkpt lat="32.744205475" lon="35.030944824">
  <ele>501.346191</ele>
  <time>2011-07-15T04:44:55Z</time>
  <speed>1.060000</speed>
</trkpt>
<trkpt lat="32.744228363" lon="35.030982971">
  <ele>500.682129</ele>
  <time>2011-07-15T04:44:57Z</time>
  <speed>1.780000</speed>
</trkpt>
<trkpt lat="32.744243622" lon="35.031017303">
  <ele>500.322754</ele>
  <time>2011-07-15T04:44:59Z</time>
  <speed>1.850000</speed>
</trkpt>
<trkpt lat="32.744274139" lon="35.031051636">
  <ele>500.588379</ele>
  <time>2011-07-15T04:45:01Z</time>
  <speed>1.590000</speed>
</trkpt>
<trkpt lat="32.744293213" lon="35.031085968">
  <ele>499.986816</ele>
  <time>2011-07-15T04:45:03Z</time>
  <speed>1.980000</speed>
</trkpt>
<trkpt lat="32.744319916" lon="35.031120300">
  <ele>499.768066</ele>
  <time>2011-07-15T04:45:05Z</time>
  <speed>2.050000</speed>
</trkpt>
<trkpt lat="32.744342804" lon="35.031150818">
  <ele>499.229004</ele>
  <time>2011-07-15T04:45:07Z</time>
  <speed>1.630000</speed>
</trkpt>
<trkpt lat="32.744361877" lon="35.031177521">
  <ele>499.291504</ele>
  <time>2011-07-15T04:45:09Z</time>
  <speed>2.010000</speed>
</trkpt>
<trkpt lat="32.744388580" lon="35.031204224">
  <ele>499.674316</ele>
  <time>2011-07-15T04:45:11Z</time>
  <speed>1.560000</speed>
</trkpt>
<trkpt lat="32.744415283" lon="35.031242371">
  <ele>500.010254</ele>
  <time>2011-07-15T04:45:14Z</time>
  <speed>1.680000</speed>
</trkpt>
<trkpt lat="32.744441986" lon="35.031269073">
  <ele>499.689941</ele>
  <time>2011-07-15T04:45:16Z</time>
  <speed>1.540000</speed>
</trkpt>
<trkpt lat="32.744464874" lon="35.031307220">
  <ele>499.150879</ele>
  <time>2011-07-15T04:45:19Z</time>
  <speed>1.580000</speed>
</trkpt>
<trkpt lat="32.744487762" lon="35.031337738">
  <ele>499.510254</ele>
  <time>2011-07-15T04:45:21Z</time>
  <speed>1.850000</speed>
</trkpt>
<trkpt lat="32.744503021" lon="35.031372070">
  <ele>499.135254</ele>
  <time>2011-07-15T04:45:23Z</time>
  <speed>1.440000</speed>
</trkpt>
<trkpt lat="32.744518280" lon="35.031402588">
  <ele>499.049316</ele>
  <time>2011-07-15T04:45:25Z</time>
  <speed>1.420000</speed>
</trkpt>
<trkpt lat="32.744537354" lon="35.031421661">
  <ele>500.369629</ele>
  <time>2011-07-15T04:45:27Z</time>
  <speed>1.560000</speed>
</trkpt>
<trkpt lat="32.744552612" lon="35.031459808">
  <ele>500.916504</ele>
  <time>2011-07-15T04:45:29Z</time>
  <speed>1.760000</speed>
</trkpt>
<trkpt lat="32.744564056" lon="35.031494141">
  <ele>501.588379</ele>
  <time>2011-07-15T04:45:31Z</time>
  <speed>1.510000</speed>
</trkpt>
<trkpt lat="32.744575500" lon="35.031536102">
  <ele>501.869629</ele>
  <time>2011-07-15T04:45:33Z</time>
  <speed>1.820000</speed>
</trkpt>
<trkpt lat="32.744583130" lon="35.031566620">
  <ele>502.619629</ele>
  <time>2011-07-15T04:45:35Z</time>
  <speed>1.850000</speed>
</trkpt>
<trkpt lat="32.744594574" lon="35.031604767">
  <ele>503.111816</ele>
  <time>2011-07-15T04:45:37Z</time>
  <speed>1.580000</speed>
</trkpt>
<trkpt lat="32.744609833" lon="35.031635284">
  <ele>503.346191</ele>
  <time>2011-07-15T04:45:39Z</time>
  <speed>1.590000</speed>
</trkpt>
<trkpt lat="32.744621277" lon="35.031673431">
  <ele>504.400879</ele>
  <time>2011-07-15T04:45:42Z</time>
  <speed>1.560000</speed>
</trkpt>
<trkpt lat="32.744632721" lon="35.031707764">
  <ele>503.963379</ele>
  <time>2011-07-15T04:45:44Z</time>
  <speed>1.470000</speed>
</trkpt>
<trkpt lat="32.744636536" lon="35.031753540">
  <ele>504.643066</ele>
  <time>2011-07-15T04:45:47Z</time>
  <speed>1.480000</speed>
</trkpt>
<trkpt lat="32.744659424" lon="35.031784058">
  <ele>504.854004</ele>
  <time>2011-07-15T04:45:50Z</time>
  <speed>1.130000</speed>
</trkpt>
<trkpt lat="32.744670868" lon="35.031818390">
  <ele>506.041504</ele>
  <time>2011-07-15T04:45:52Z</time>
  <speed>1.330000</speed>
</trkpt>
<trkpt lat="32.744686127" lon="35.031848907">
  <ele>506.260254</ele>
  <time>2011-07-15T04:45:54Z</time>
  <speed>1.590000</speed>
</trkpt>
<trkpt lat="32.744701385" lon="35.031871796">
  <ele>507.143066</ele>
  <time>2011-07-15T04:45:56Z</time>
  <speed>1.430000</speed>
</trkpt>
<trkpt lat="32.744716644" lon="35.031902313">
  <ele>507.518066</ele>
  <time>2011-07-15T04:45:59Z</time>
  <speed>1.560000</speed>
</trkpt>
<trkpt lat="32.744743347" lon="35.031929016">
  <ele>507.572754</ele>
  <time>2011-07-15T04:46:01Z</time>
  <speed>1.650000</speed>
</trkpt>
<trkpt lat="32.744770050" lon="35.031948090">
  <ele>507.650879</ele>
  <time>2011-07-15T04:46:03Z</time>
  <speed>1.470000</speed>
</trkpt>
<trkpt lat="32.744804382" lon="35.031970978">
  <ele>508.236816</ele>
  <time>2011-07-15T04:46:06Z</time>
  <speed>1.660000</speed>
</trkpt>
<trkpt lat="32.744834900" lon="35.031986237">
  <ele>508.557129</ele>
  <time>2011-07-15T04:46:08Z</time>
  <speed>1.540000</speed>
</trkpt>
<trkpt lat="32.744865417" lon="35.031993866">
  <ele>508.916504</ele>
  <time>2011-07-15T04:46:10Z</time>
  <speed>1.360000</speed>
</trkpt>
<trkpt lat="32.744895935" lon="35.032009125">
  <ele>509.658691</ele>
  <time>2011-07-15T04:46:13Z</time>
  <speed>1.250000</speed>
</trkpt>
<trkpt lat="32.744915009" lon="35.032032013">
  <ele>509.689941</ele>
  <time>2011-07-15T04:46:15Z</time>
  <speed>1.340000</speed>
</trkpt>
<trkpt lat="32.744937897" lon="35.032047272">
  <ele>509.330566</ele>
  <time>2011-07-15T04:46:18Z</time>
  <speed>1.270000</speed>
</trkpt>
<trkpt lat="32.744960785" lon="35.032070160">
  <ele>508.869629</ele>
  <time>2011-07-15T04:46:21Z</time>
  <speed>1.210000</speed>
</trkpt>
<trkpt lat="32.744991302" lon="35.032100677">
  <ele>508.955566</ele>
  <time>2011-07-15T04:46:24Z</time>
  <speed>1.300000</speed>
</trkpt>
<trkpt lat="32.745006561" lon="35.032138824">
  <ele>509.650879</ele>
  <time>2011-07-15T04:46:27Z</time>
  <speed>1.530000</speed>
</trkpt>
<trkpt lat="32.745014191" lon="35.032173157">
  <ele>510.557129</ele>
  <time>2011-07-15T04:46:29Z</time>
  <speed>1.580000</speed>
</trkpt>
<trkpt lat="32.745018005" lon="35.032218933">
  <ele>512.192383</ele>
  <time>2011-07-15T04:46:32Z</time>
  <speed>1.310000</speed>
</trkpt>
<trkpt lat="32.745018005" lon="35.032249451">
  <ele>512.879883</ele>
  <time>2011-07-15T04:46:34Z</time>
  <speed>1.610000</speed>
</trkpt>
<trkpt lat="32.745021820" lon="35.032283783">
  <ele>513.458008</ele>
  <time>2011-07-15T04:46:36Z</time>
  <speed>1.660000</speed>
</trkpt>
<trkpt lat="32.745018005" lon="35.032321930">
  <ele>513.848633</ele>
  <time>2011-07-15T04:46:38Z</time>
  <speed>1.540000</speed>
</trkpt>
<trkpt lat="32.745010376" lon="35.032363892">
  <ele>514.098633</ele>
  <time>2011-07-15T04:46:40Z</time>
  <speed>1.730000</speed>
</trkpt>
<trkpt lat="32.745010376" lon="35.032409668">
  <ele>514.254883</ele>
  <time>2011-07-15T04:46:42Z</time>
  <speed>1.850000</speed>
</trkpt>
<trkpt lat="32.745018005" lon="35.032451630">
  <ele>514.739258</ele>
  <time>2011-07-15T04:46:44Z</time>
  <speed>1.850000</speed>
</trkpt>
<trkpt lat="32.745025635" lon="35.032489777">
  <ele>513.770508</ele>
  <time>2011-07-15T04:46:46Z</time>
  <speed>2.260000</speed>
</trkpt>
<trkpt lat="32.745025635" lon="35.032535553">
  <ele>514.536133</ele>
  <time>2011-07-15T04:46:48Z</time>
  <speed>2.260000</speed>
</trkpt>
<trkpt lat="32.745033264" lon="35.032585144">
  <ele>514.645508</ele>
  <time>2011-07-15T04:46:50Z</time>
  <speed>2.210000</speed>
</trkpt>
<trkpt lat="32.745040894" lon="35.032630920">
  <ele>515.411133</ele>
  <time>2011-07-15T04:46:52Z</time>
  <speed>2.020000</speed>
</trkpt>
<trkpt lat="32.745052338" lon="35.032680511">
  <ele>516.176758</ele>
  <time>2011-07-15T04:46:54Z</time>
  <speed>2.100000</speed>
</trkpt>
<trkpt lat="32.745056152" lon="35.032726288">
  <ele>515.895508</ele>
  <time>2011-07-15T04:46:56Z</time>
  <speed>2.010000</speed>
</trkpt>
<trkpt lat="32.745067596" lon="35.032772064">
  <ele>516.989258</ele>
  <time>2011-07-15T04:46:58Z</time>
  <speed>2.030000</speed>
</trkpt>
<trkpt lat="32.745067596" lon="35.032817841">
  <ele>517.536133</ele>
  <time>2011-07-15T04:47:00Z</time>
  <speed>2.250000</speed>
</trkpt>
<trkpt lat="32.745059967" lon="35.032867432">
  <ele>518.223633</ele>
  <time>2011-07-15T04:47:02Z</time>
  <speed>2.430000</speed>
</trkpt>
<trkpt lat="32.745044708" lon="35.032920837">
  <ele>517.754883</ele>
  <time>2011-07-15T04:47:04Z</time>
  <speed>2.480000</speed>
</trkpt>
<trkpt lat="32.745029449" lon="35.032974243">
  <ele>517.489258</ele>
  <time>2011-07-15T04:47:06Z</time>
  <speed>2.630000</speed>
</trkpt>
<trkpt lat="32.744998932" lon="35.033020020">
  <ele>517.598633</ele>
  <time>2011-07-15T04:47:08Z</time>
  <speed>2.740000</speed>
</trkpt>
<trkpt lat="32.744983673" lon="35.033077240">
  <ele>517.239258</ele>
  <time>2011-07-15T04:47:10Z</time>
  <speed>3.110000</speed>
</trkpt>
<trkpt lat="32.744953156" lon="35.033130646">
  <ele>516.879883</ele>
  <time>2011-07-15T04:47:12Z</time>
  <speed>2.820000</speed>
</trkpt>
<trkpt lat="32.744937897" lon="35.033164978">
  <ele>516.754883</ele>
  <time>2011-07-15T04:47:13Z</time>
  <speed>2.730000</speed>
</trkpt>
<trkpt lat="32.744918823" lon="35.033187866">
  <ele>516.348633</ele>
  <time>2011-07-15T04:47:14Z</time>
  <speed>2.630000</speed>
</trkpt>
<trkpt lat="32.744899750" lon="35.033218384">
  <ele>516.114258</ele>
  <time>2011-07-15T04:47:15Z</time>
  <speed>2.890000</speed>
</trkpt>
<trkpt lat="32.744865417" lon="35.033256531">
  <ele>515.301758</ele>
  <time>2011-07-15T04:47:17Z</time>
  <speed>2.390000</speed>
</trkpt>
<trkpt lat="32.744831085" lon="35.033294678">
  <ele>515.333008</ele>
  <time>2011-07-15T04:47:19Z</time>
  <speed>2.380000</speed>
</trkpt>
<trkpt lat="32.744804382" lon="35.033332825">
  <ele>514.879883</ele>
  <time>2011-07-15T04:47:21Z</time>
  <speed>2.060000</speed>
</trkpt>
<trkpt lat="32.744762421" lon="35.033359528">
  <ele>514.098633</ele>
  <time>2011-07-15T04:47:23Z</time>
  <speed>2.470000</speed>
</trkpt>
<trkpt lat="32.744728088" lon="35.033390045">
  <ele>513.676758</ele>
  <time>2011-07-15T04:47:25Z</time>
  <speed>2.170000</speed>
</trkpt>
<trkpt lat="32.744682312" lon="35.033401489">
  <ele>513.239258</ele>
  <time>2011-07-15T04:47:27Z</time>
  <speed>2.620000</speed>
</trkpt>
<trkpt lat="32.744647980" lon="35.033401489">
  <ele>512.911133</ele>
  <time>2011-07-15T04:47:28Z</time>
  <speed>2.400000</speed>
</trkpt>
<trkpt lat="32.744602203" lon="35.033405304">
  <ele>513.286133</ele>
  <time>2011-07-15T04:47:30Z</time>
  <speed>2.570000</speed>
</trkpt>
<trkpt lat="32.744567871" lon="35.033409119">
  <ele>513.676758</ele>
  <time>2011-07-15T04:47:31Z</time>
  <speed>2.760000</speed>
</trkpt>
<trkpt lat="32.744522095" lon="35.033401489">
  <ele>514.614258</ele>
  <time>2011-07-15T04:47:33Z</time>
  <speed>2.110000</speed>
</trkpt>
<trkpt lat="32.744495392" lon="35.033405304">
  <ele>515.473633</ele>
  <time>2011-07-15T04:47:34Z</time>
  <speed>2.430000</speed>
</trkpt>
<trkpt lat="32.744457245" lon="35.033401489">
  <ele>515.645508</ele>
  <time>2011-07-15T04:47:36Z</time>
  <speed>2.440000</speed>
</trkpt>
<trkpt lat="32.744415283" lon="35.033401489">
  <ele>515.379883</ele>
  <time>2011-07-15T04:47:38Z</time>
  <speed>2.330000</speed>
</trkpt>
<trkpt lat="32.744369507" lon="35.033401489">
  <ele>516.223633</ele>
  <time>2011-07-15T04:47:40Z</time>
  <speed>1.940000</speed>
</trkpt>
<trkpt lat="32.744335175" lon="35.033390045">
  <ele>517.676758</ele>
  <time>2011-07-15T04:47:42Z</time>
  <speed>1.960000</speed>
</trkpt>
<trkpt lat="32.744297028" lon="35.033378601">
  <ele>517.536133</ele>
  <time>2011-07-15T04:47:44Z</time>
  <speed>2.160000</speed>
</trkpt>
<trkpt lat="32.744262695" lon="35.033367157">
  <ele>517.161133</ele>
  <time>2011-07-15T04:47:46Z</time>
  <speed>2.090000</speed>
</trkpt>
<trkpt lat="32.744209290" lon="35.033348083">
  <ele>516.833008</ele>
  <time>2011-07-15T04:47:48Z</time>
  <speed>3.350000</speed>
</trkpt>
<trkpt lat="32.744174957" lon="35.033325195">
  <ele>516.598633</ele>
  <time>2011-07-15T04:47:49Z</time>
  <speed>3.980000</speed>
</trkpt>
<trkpt lat="32.744140625" lon="35.033302307">
  <ele>516.114258</ele>
  <time>2011-07-15T04:47:50Z</time>
  <speed>4.110000</speed>
</trkpt>
<trkpt lat="32.744110107" lon="35.033275604">
  <ele>515.348633</ele>
  <time>2011-07-15T04:47:51Z</time>
  <speed>4.250000</speed>
</trkpt>
<trkpt lat="32.744091034" lon="35.033241272">
  <ele>513.348633</ele>
  <time>2011-07-15T04:47:52Z</time>
  <speed>4.570000</speed>
</trkpt>
<trkpt lat="32.744068146" lon="35.033199310">
  <ele>511.525879</ele>
  <time>2011-07-15T04:47:53Z</time>
  <speed>4.870000</speed>
</trkpt>
<trkpt lat="32.744041443" lon="35.033157349">
  <ele>510.611816</ele>
  <time>2011-07-15T04:47:54Z</time>
  <speed>5.110000</speed>
</trkpt>
<trkpt lat="32.744007111" lon="35.033115387">
  <ele>510.158691</ele>
  <time>2011-07-15T04:47:55Z</time>
  <speed>4.950000</speed>
</trkpt>
<trkpt lat="32.743961334" lon="35.033084869">
  <ele>510.416504</ele>
  <time>2011-07-15T04:47:56Z</time>
  <speed>5.280000</speed>
</trkpt>
<trkpt lat="32.743911743" lon="35.033061981">
  <ele>509.939941</ele>
  <time>2011-07-15T04:47:57Z</time>
  <speed>5.700000</speed>
</trkpt>
<trkpt lat="32.743858337" lon="35.033039093">
  <ele>509.408691</ele>
  <time>2011-07-15T04:47:58Z</time>
  <speed>6.020000</speed>
</trkpt>
<trkpt lat="32.743801117" lon="35.033012390">
  <ele>509.275879</ele>
  <time>2011-07-15T04:47:59Z</time>
  <speed>5.870000</speed>
</trkpt>
<trkpt lat="32.743743896" lon="35.032985687">
  <ele>509.018066</ele>
  <time>2011-07-15T04:48:00Z</time>
  <speed>6.450000</speed>
</trkpt>
<trkpt lat="32.743679047" lon="35.032970428">
  <ele>507.830566</ele>
  <time>2011-07-15T04:48:01Z</time>
  <speed>6.730000</speed>
</trkpt>
<trkpt lat="32.743618011" lon="35.032974243">
  <ele>506.635254</ele>
  <time>2011-07-15T04:48:02Z</time>
  <speed>5.100000</speed>
</trkpt>
<trkpt lat="32.743579865" lon="35.033004761">
  <ele>505.971191</ele>
  <time>2011-07-15T04:48:03Z</time>
  <speed>4.960000</speed>
</trkpt>
<trkpt lat="32.743545532" lon="35.033035278">
  <ele>505.088379</ele>
  <time>2011-07-15T04:48:04Z</time>
  <speed>4.240000</speed>
</trkpt>
<trkpt lat="32.743518829" lon="35.033058167">
  <ele>504.463379</ele>
  <time>2011-07-15T04:48:05Z</time>
  <speed>2.980000</speed>
</trkpt>
<trkpt lat="32.743503571" lon="35.033077240">
  <ele>502.900879</ele>
  <time>2011-07-15T04:48:06Z</time>
  <speed>2.200000</speed>
</trkpt>
<trkpt lat="32.743480682" lon="35.033123016">
  <ele>501.705566</ele>
  <time>2011-07-15T04:48:08Z</time>
  <speed>0.990000</speed>
</trkpt>
<trkpt lat="32.743461609" lon="35.033142090">
  <ele>502.494629</ele>
  <time>2011-07-15T04:48:13Z</time>
  <speed>0.350000</speed>
</trkpt>
<trkpt lat="32.743438721" lon="35.033161163">
  <ele>501.525879</ele>
  <time>2011-07-15T04:48:32Z</time>
  <speed>0.300000</speed>
</trkpt>
<trkpt lat="32.743415833" lon="35.033176422">
  <ele>501.494629</ele>
  <time>2011-07-15T04:48:40Z</time>
  <speed>0.440000</speed>
</trkpt>
<trkpt lat="32.743389130" lon="35.033187866">
  <ele>501.604004</ele>
  <time>2011-07-15T04:48:49Z</time>
  <speed>0.810000</speed>
</trkpt>
<trkpt lat="32.743350983" lon="35.033191681">
  <ele>502.338379</ele>
  <time>2011-07-15T04:48:52Z</time>
  <speed>1.480000</speed>
</trkpt>
<trkpt lat="32.743312836" lon="35.033199310">
  <ele>502.674316</ele>
  <time>2011-07-15T04:48:54Z</time>
  <speed>1.810000</speed>
</trkpt>
<trkpt lat="32.743270874" lon="35.033203125">
  <ele>502.822754</ele>
  <time>2011-07-15T04:48:56Z</time>
  <speed>2.180000</speed>
</trkpt>
<trkpt lat="32.743240356" lon="35.033222198">
  <ele>502.908691</ele>
  <time>2011-07-15T04:48:58Z</time>
  <speed>1.900000</speed>
</trkpt>
<trkpt lat="32.743198395" lon="35.033218384">
  <ele>502.838379</ele>
  <time>2011-07-15T04:49:00Z</time>
  <speed>1.370000</speed>
</trkpt>
<trkpt lat="32.743171692" lon="35.033214569">
  <ele>504.025879</ele>
  <time>2011-07-15T04:49:02Z</time>
  <speed>1.390000</speed>
</trkpt>
<trkpt lat="32.743133545" lon="35.033203125">
  <ele>504.994629</ele>
  <time>2011-07-15T04:49:04Z</time>
  <speed>1.900000</speed>
</trkpt>
<trkpt lat="32.743091583" lon="35.033184052">
  <ele>505.619629</ele>
  <time>2011-07-15T04:49:06Z</time>
  <speed>2.180000</speed>
</trkpt>
<trkpt lat="32.743045807" lon="35.033164978">
  <ele>505.807129</ele>
  <time>2011-07-15T04:49:08Z</time>
  <speed>2.740000</speed>
</trkpt>
<trkpt lat="32.742992401" lon="35.033142090">
  <ele>506.205566</ele>
  <time>2011-07-15T04:49:10Z</time>
  <speed>2.310000</speed>
</trkpt>
<trkpt lat="32.742938995" lon="35.033123016">
  <ele>506.416504</ele>
  <time>2011-07-15T04:49:12Z</time>
  <speed>2.260000</speed>
</trkpt>
<trkpt lat="32.742904663" lon="35.033115387">
  <ele>506.088379</ele>
  <time>2011-07-15T04:49:14Z</time>
  <speed>2.190000</speed>
</trkpt>
<trkpt lat="32.742870331" lon="35.033119202">
  <ele>505.166504</ele>
  <time>2011-07-15T04:49:16Z</time>
  <speed>1.780000</speed>
</trkpt>
<trkpt lat="32.742843628" lon="35.033142090">
  <ele>504.525879</ele>
  <time>2011-07-15T04:49:18Z</time>
  <speed>1.540000</speed>
</trkpt>
<trkpt lat="32.742820740" lon="35.033164978">
  <ele>503.760254</ele>
  <time>2011-07-15T04:49:20Z</time>
  <speed>1.280000</speed>
</trkpt>
<trkpt lat="32.742797852" lon="35.033195496">
  <ele>504.025879</ele>
  <time>2011-07-15T04:49:22Z</time>
  <speed>1.200000</speed>
</trkpt>
<trkpt lat="32.742771149" lon="35.033195496">
  <ele>504.768066</ele>
  <time>2011-07-15T04:49:24Z</time>
  <speed>1.520000</speed>
</trkpt>
<trkpt lat="32.742740631" lon="35.033199310">
  <ele>504.541504</ele>
  <time>2011-07-15T04:49:26Z</time>
  <speed>0.870000</speed>
</trkpt>
<trkpt lat="32.742710114" lon="35.033222198">
  <ele>505.783691</ele>
  <time>2011-07-15T04:49:33Z</time>
  <speed>0.080000</speed>
</trkpt>
<trkpt lat="32.742710114" lon="35.033256531">
  <ele>506.830566</ele>
  <time>2011-07-15T04:49:55Z</time>
  <speed>0.090000</speed>
</trkpt>
<trkpt lat="32.742679596" lon="35.033264160">
  <ele>507.814941</ele>
  <time>2011-07-15T04:49:59Z</time>
  <speed>1.150000</speed>
</trkpt>
<trkpt lat="32.742660522" lon="35.033302307">
  <ele>508.416504</ele>
  <time>2011-07-15T04:50:28Z</time>
  <speed>0.990000</speed>
</trkpt>
<trkpt lat="32.742649078" lon="35.033340454">
  <ele>508.861816</ele>
  <time>2011-07-15T04:50:30Z</time>
  <speed>1.360000</speed>
</trkpt>
<trkpt lat="32.742633820" lon="35.033370972">
  <ele>508.494629</ele>
  <time>2011-07-15T04:50:32Z</time>
  <speed>1.270000</speed>
</trkpt>
<trkpt lat="32.742622375" lon="35.033412933">
  <ele>509.229004</ele>
  <time>2011-07-15T04:50:35Z</time>
  <speed>1.370000</speed>
</trkpt>
<trkpt lat="32.742607117" lon="35.033451080">
  <ele>509.744629</ele>
  <time>2011-07-15T04:50:37Z</time>
  <speed>1.520000</speed>
</trkpt>
<trkpt lat="32.742595673" lon="35.033485413">
  <ele>509.775879</ele>
  <time>2011-07-15T04:50:39Z</time>
  <speed>1.130000</speed>
</trkpt>
<trkpt lat="32.742580414" lon="35.033515930">
  <ele>510.064941</ele>
  <time>2011-07-15T04:50:41Z</time>
  <speed>1.540000</speed>
</trkpt>
<trkpt lat="32.742572784" lon="35.033561707">
  <ele>510.213379</ele>
  <time>2011-07-15T04:50:43Z</time>
  <speed>1.520000</speed>
</trkpt>
<trkpt lat="32.742553711" lon="35.033603668">
  <ele>510.713379</ele>
  <time>2011-07-15T04:50:45Z</time>
  <speed>1.590000</speed>
</trkpt>
<trkpt lat="32.742534637" lon="35.033638000">
  <ele>511.244629</ele>
  <time>2011-07-15T04:50:47Z</time>
  <speed>1.610000</speed>
</trkpt>
<trkpt lat="32.742515564" lon="35.033668518">
  <ele>512.098633</ele>
  <time>2011-07-15T04:50:49Z</time>
  <speed>1.990000</speed>
</trkpt>
<trkpt lat="32.742496490" lon="35.033702850">
  <ele>512.333008</ele>
  <time>2011-07-15T04:50:51Z</time>
  <speed>1.520000</speed>
</trkpt>
<trkpt lat="32.742477417" lon="35.033748627">
  <ele>512.301758</ele>
  <time>2011-07-15T04:50:53Z</time>
  <speed>1.800000</speed>
</trkpt>
<trkpt lat="32.742462158" lon="35.033782959">
  <ele>512.708008</ele>
  <time>2011-07-15T04:50:55Z</time>
  <speed>1.800000</speed>
</trkpt>
<trkpt lat="32.742435455" lon="35.033809662">
  <ele>512.739258</ele>
  <time>2011-07-15T04:50:57Z</time>
  <speed>1.810000</speed>
</trkpt>
<trkpt lat="32.742408752" lon="35.033832550">
  <ele>511.916504</ele>
  <time>2011-07-15T04:50:59Z</time>
  <speed>1.940000</speed>
</trkpt>
<trkpt lat="32.742382050" lon="35.033859253">
  <ele>512.442383</ele>
  <time>2011-07-15T04:51:01Z</time>
  <speed>1.800000</speed>
</trkpt>
<trkpt lat="32.742355347" lon="35.033885956">
  <ele>512.833008</ele>
  <time>2011-07-15T04:51:03Z</time>
  <speed>1.640000</speed>
</trkpt>
<trkpt lat="32.742332458" lon="35.033927917">
  <ele>513.692383</ele>
  <time>2011-07-15T04:51:05Z</time>
  <speed>1.900000</speed>
</trkpt>
<trkpt lat="32.742336273" lon="35.033981323">
  <ele>513.629883</ele>
  <time>2011-07-15T04:51:07Z</time>
  <speed>2.180000</speed>
</trkpt>
<trkpt lat="32.742340088" lon="35.034030914">
  <ele>514.770508</ele>
  <time>2011-07-15T04:51:09Z</time>
  <speed>1.620000</speed>
</trkpt>
<trkpt lat="32.742343903" lon="35.034072876">
  <ele>515.379883</ele>
  <time>2011-07-15T04:51:11Z</time>
  <speed>1.880000</speed>
</trkpt>
<trkpt lat="32.742343903" lon="35.034122467">
  <ele>514.364258</ele>
  <time>2011-07-15T04:51:13Z</time>
  <speed>2.110000</speed>
</trkpt>
<trkpt lat="32.742340088" lon="35.034179688">
  <ele>514.489258</ele>
  <time>2011-07-15T04:51:15Z</time>
  <speed>2.620000</speed>
</trkpt>
<trkpt lat="32.742328644" lon="35.034233093">
  <ele>515.739258</ele>
  <time>2011-07-15T04:51:17Z</time>
  <speed>2.610000</speed>
</trkpt>
<trkpt lat="32.742301941" lon="35.034278870">
  <ele>514.848633</ele>
  <time>2011-07-15T04:51:19Z</time>
  <speed>2.960000</speed>
</trkpt>
<trkpt lat="32.742286682" lon="35.034305573">
  <ele>514.864258</ele>
  <time>2011-07-15T04:51:20Z</time>
  <speed>2.660000</speed>
</trkpt>
<trkpt lat="32.742256165" lon="35.034351349">
  <ele>514.895508</ele>
  <time>2011-07-15T04:51:22Z</time>
  <speed>2.830000</speed>
</trkpt>
<trkpt lat="32.742214203" lon="35.034385681">
  <ele>515.348633</ele>
  <time>2011-07-15T04:51:24Z</time>
  <speed>2.570000</speed>
</trkpt>
<trkpt lat="32.742183685" lon="35.034423828">
  <ele>515.098633</ele>
  <time>2011-07-15T04:51:26Z</time>
  <speed>3.030000</speed>
</trkpt>
<trkpt lat="32.742145538" lon="35.034458160">
  <ele>515.129883</ele>
  <time>2011-07-15T04:51:28Z</time>
  <speed>2.720000</speed>
</trkpt>
<trkpt lat="32.742103577" lon="35.034461975">
  <ele>516.020508</ele>
  <time>2011-07-15T04:51:30Z</time>
  <speed>2.670000</speed>
</trkpt>
<trkpt lat="32.742061615" lon="35.034473419">
  <ele>516.598633</ele>
  <time>2011-07-15T04:51:32Z</time>
  <speed>2.470000</speed>
</trkpt>
<trkpt lat="32.742012024" lon="35.034477234">
  <ele>517.536133</ele>
  <time>2011-07-15T04:51:34Z</time>
  <speed>2.720000</speed>
</trkpt>
<trkpt lat="32.741966248" lon="35.034484863">
  <ele>517.114258</ele>
  <time>2011-07-15T04:51:36Z</time>
  <speed>2.880000</speed>
</trkpt>
<trkpt lat="32.741912842" lon="35.034500122">
  <ele>515.676758</ele>
  <time>2011-07-15T04:51:38Z</time>
  <speed>3.010000</speed>
</trkpt>
<trkpt lat="32.741859436" lon="35.034515381">
  <ele>516.442383</ele>
  <time>2011-07-15T04:51:40Z</time>
  <speed>2.890000</speed>
</trkpt>
<trkpt lat="32.741832733" lon="35.034523010">
  <ele>516.254883</ele>
  <time>2011-07-15T04:51:41Z</time>
  <speed>2.820000</speed>
</trkpt>
<trkpt lat="32.741809845" lon="35.034534454">
  <ele>515.786133</ele>
  <time>2011-07-15T04:51:42Z</time>
  <speed>3.050000</speed>
</trkpt>
<trkpt lat="32.741783142" lon="35.034545898">
  <ele>515.473633</ele>
  <time>2011-07-15T04:51:43Z</time>
  <speed>3.070000</speed>
</trkpt>
<trkpt lat="32.741752625" lon="35.034561157">
  <ele>515.536133</ele>
  <time>2011-07-15T04:51:44Z</time>
  <speed>3.010000</speed>
</trkpt>
<trkpt lat="32.741703033" lon="35.034587860">
  <ele>516.333008</ele>
  <time>2011-07-15T04:51:46Z</time>
  <speed>2.980000</speed>
</trkpt>
<trkpt lat="32.741653442" lon="35.034610748">
  <ele>516.317383</ele>
  <time>2011-07-15T04:51:48Z</time>
  <speed>2.880000</speed>
</trkpt>
<trkpt lat="32.741611481" lon="35.034637451">
  <ele>516.364258</ele>
  <time>2011-07-15T04:51:50Z</time>
  <speed>2.540000</speed>
</trkpt>
<trkpt lat="32.741573334" lon="35.034652710">
  <ele>516.958008</ele>
  <time>2011-07-15T04:51:52Z</time>
  <speed>2.640000</speed>
</trkpt>
<trkpt lat="32.741527557" lon="35.034679413">
  <ele>517.270508</ele>
  <time>2011-07-15T04:51:54Z</time>
  <speed>2.790000</speed>
</trkpt>
<trkpt lat="32.741493225" lon="35.034721375">
  <ele>517.192383</ele>
  <time>2011-07-15T04:51:56Z</time>
  <speed>2.650000</speed>
</trkpt>
<trkpt lat="32.741458893" lon="35.034767151">
  <ele>517.239258</ele>
  <time>2011-07-15T04:51:58Z</time>
  <speed>2.760000</speed>
</trkpt>
<trkpt lat="32.741436005" lon="35.034790039">
  <ele>517.208008</ele>
  <time>2011-07-15T04:51:59Z</time>
  <speed>2.700000</speed>
</trkpt>
<trkpt lat="32.741420746" lon="35.034816742">
  <ele>516.629883</ele>
  <time>2011-07-15T04:52:00Z</time>
  <speed>2.740000</speed>
</trkpt>
<trkpt lat="32.741401672" lon="35.034843445">
  <ele>516.536133</ele>
  <time>2011-07-15T04:52:01Z</time>
  <speed>2.670000</speed>
</trkpt>
<trkpt lat="32.741371155" lon="35.034896851">
  <ele>516.083008</ele>
  <time>2011-07-15T04:52:03Z</time>
  <speed>2.920000</speed>
</trkpt>
<trkpt lat="32.741355896" lon="35.034927368">
  <ele>516.833008</ele>
  <time>2011-07-15T04:52:04Z</time>
  <speed>2.850000</speed>
</trkpt>
<trkpt lat="32.741340637" lon="35.034954071">
  <ele>516.208008</ele>
  <time>2011-07-15T04:52:05Z</time>
  <speed>2.640000</speed>
</trkpt>
<trkpt lat="32.741325378" lon="35.034980774">
  <ele>516.723633</ele>
  <time>2011-07-15T04:52:06Z</time>
  <speed>2.870000</speed>
</trkpt>
<trkpt lat="32.741298676" lon="35.035037994">
  <ele>516.520508</ele>
  <time>2011-07-15T04:52:08Z</time>
  <speed>3.300000</speed>
</trkpt>
<trkpt lat="32.741287231" lon="35.035072327">
  <ele>517.567383</ele>
  <time>2011-07-15T04:52:09Z</time>
  <speed>3.250000</speed>
</trkpt>
<trkpt lat="32.741283417" lon="35.035114288">
  <ele>517.911133</ele>
  <time>2011-07-15T04:52:10Z</time>
  <speed>3.310000</speed>
</trkpt>
<trkpt lat="32.741275787" lon="35.035144806">
  <ele>518.020508</ele>
  <time>2011-07-15T04:52:11Z</time>
  <speed>3.450000</speed>
</trkpt>
<trkpt lat="32.741271973" lon="35.035186768">
  <ele>518.254883</ele>
  <time>2011-07-15T04:52:12Z</time>
  <speed>3.560000</speed>
</trkpt>
<trkpt lat="32.741271973" lon="35.035224915">
  <ele>517.958008</ele>
  <time>2011-07-15T04:52:13Z</time>
  <speed>3.800000</speed>
</trkpt>
<trkpt lat="32.741275787" lon="35.035270691">
  <ele>517.739258</ele>
  <time>2011-07-15T04:52:14Z</time>
  <speed>4.290000</speed>
</trkpt>
<trkpt lat="32.741271973" lon="35.035316467">
  <ele>517.239258</ele>
  <time>2011-07-15T04:52:15Z</time>
  <speed>3.760000</speed>
</trkpt>
<trkpt lat="32.741260529" lon="35.035350800">
  <ele>517.223633</ele>
  <time>2011-07-15T04:52:16Z</time>
  <speed>3.360000</speed>
</trkpt>
<trkpt lat="32.741237640" lon="35.035373688">
  <ele>517.192383</ele>
  <time>2011-07-15T04:52:17Z</time>
  <speed>3.700000</speed>
</trkpt>
<trkpt lat="32.741203308" lon="35.035381317">
  <ele>517.176758</ele>
  <time>2011-07-15T04:52:18Z</time>
  <speed>3.950000</speed>
</trkpt>
<trkpt lat="32.741165161" lon="35.035381317">
  <ele>517.239258</ele>
  <time>2011-07-15T04:52:19Z</time>
  <speed>4.300000</speed>
</trkpt>
<trkpt lat="32.741123199" lon="35.035377502">
  <ele>517.176758</ele>
  <time>2011-07-15T04:52:20Z</time>
  <speed>4.340000</speed>
</trkpt>
<trkpt lat="32.741085052" lon="35.035362244">
  <ele>516.661133</ele>
  <time>2011-07-15T04:52:21Z</time>
  <speed>4.540000</speed>
</trkpt>
<trkpt lat="32.741050720" lon="35.035346985">
  <ele>516.895508</ele>
  <time>2011-07-15T04:52:22Z</time>
  <speed>3.460000</speed>
</trkpt>
<trkpt lat="32.741020203" lon="35.035327911">
  <ele>516.567383</ele>
  <time>2011-07-15T04:52:23Z</time>
  <speed>3.580000</speed>
</trkpt>
<trkpt lat="32.740993500" lon="35.035316467">
  <ele>516.379883</ele>
  <time>2011-07-15T04:52:24Z</time>
  <speed>3.060000</speed>
</trkpt>
<trkpt lat="32.740947723" lon="35.035305023">
  <ele>516.145508</ele>
  <time>2011-07-15T04:52:26Z</time>
  <speed>2.750000</speed>
</trkpt>
<trkpt lat="32.740921021" lon="35.035320282">
  <ele>515.661133</ele>
  <time>2011-07-15T04:52:27Z</time>
  <speed>2.990000</speed>
</trkpt>
<trkpt lat="32.740905762" lon="35.035358429">
  <ele>514.973633</ele>
  <time>2011-07-15T04:52:28Z</time>
  <speed>3.620000</speed>
</trkpt>
<trkpt lat="32.740898132" lon="35.035400391">
  <ele>514.239258</ele>
  <time>2011-07-15T04:52:29Z</time>
  <speed>3.620000</speed>
</trkpt>
<trkpt lat="32.740901947" lon="35.035434723">
  <ele>513.551758</ele>
  <time>2011-07-15T04:52:30Z</time>
  <speed>3.050000</speed>
</trkpt>
<trkpt lat="32.740890503" lon="35.035469055">
  <ele>512.614258</ele>
  <time>2011-07-15T04:52:31Z</time>
  <speed>3.380000</speed>
</trkpt>
<trkpt lat="32.740867615" lon="35.035495758">
  <ele>512.020508</ele>
  <time>2011-07-15T04:52:32Z</time>
  <speed>3.780000</speed>
</trkpt>
<trkpt lat="32.740852356" lon="35.035533905">
  <ele>511.104004</ele>
  <time>2011-07-15T04:52:33Z</time>
  <speed>3.300000</speed>
</trkpt>
<trkpt lat="32.740848541" lon="35.035572052">
  <ele>509.658691</ele>
  <time>2011-07-15T04:52:34Z</time>
  <speed>2.550000</speed>
</trkpt>
<trkpt lat="32.740863800" lon="35.035602570">
  <ele>508.932129</ele>
  <time>2011-07-15T04:52:35Z</time>
  <speed>2.770000</speed>
</trkpt>
<trkpt lat="32.740890503" lon="35.035629272">
  <ele>509.025879</ele>
  <time>2011-07-15T04:52:36Z</time>
  <speed>3.350000</speed>
</trkpt>
<trkpt lat="32.740921021" lon="35.035644531">
  <ele>508.838379</ele>
  <time>2011-07-15T04:52:37Z</time>
  <speed>3.480000</speed>
</trkpt>
<trkpt lat="32.740955353" lon="35.035663605">
  <ele>508.564941</ele>
  <time>2011-07-15T04:52:38Z</time>
  <speed>4.170000</speed>
</trkpt>
<trkpt lat="32.740989685" lon="35.035686493">
  <ele>508.369629</ele>
  <time>2011-07-15T04:52:39Z</time>
  <speed>4.180000</speed>
</trkpt>
<trkpt lat="32.741012573" lon="35.035717010">
  <ele>507.486816</ele>
  <time>2011-07-15T04:52:40Z</time>
  <speed>4.410000</speed>
</trkpt>
<trkpt lat="32.741039276" lon="35.035762787">
  <ele>507.033691</ele>
  <time>2011-07-15T04:52:41Z</time>
  <speed>4.170000</speed>
</trkpt>
<trkpt lat="32.741058350" lon="35.035808563">
  <ele>506.432129</ele>
  <time>2011-07-15T04:52:42Z</time>
  <speed>4.350000</speed>
</trkpt>
<trkpt lat="32.741069794" lon="35.035858154">
  <ele>506.783691</ele>
  <time>2011-07-15T04:52:43Z</time>
  <speed>4.350000</speed>
</trkpt>
<trkpt lat="32.741065979" lon="35.035915375">
  <ele>507.580566</ele>
  <time>2011-07-15T04:52:44Z</time>
  <speed>4.320000</speed>
</trkpt>
<trkpt lat="32.741058350" lon="35.035961151">
  <ele>507.541504</ele>
  <time>2011-07-15T04:52:45Z</time>
  <speed>4.360000</speed>
</trkpt>
<trkpt lat="32.741039276" lon="35.036006927">
  <ele>507.807129</ele>
  <time>2011-07-15T04:52:46Z</time>
  <speed>4.690000</speed>
</trkpt>
<trkpt lat="32.741020203" lon="35.036060333">
  <ele>507.627441</ele>
  <time>2011-07-15T04:52:47Z</time>
  <speed>5.690000</speed>
</trkpt>
<trkpt lat="32.740989685" lon="35.036102295">
  <ele>507.533691</ele>
  <time>2011-07-15T04:52:48Z</time>
  <speed>5.700000</speed>
</trkpt>
<trkpt lat="32.740959167" lon="35.036144257">
  <ele>507.275879</ele>
  <time>2011-07-15T04:52:49Z</time>
  <speed>5.060000</speed>
</trkpt>
<trkpt lat="32.740924835" lon="35.036182404">
  <ele>506.807129</ele>
  <time>2011-07-15T04:52:50Z</time>
  <speed>4.580000</speed>
</trkpt>
<trkpt lat="32.740890503" lon="35.036209106">
  <ele>506.041504</ele>
  <time>2011-07-15T04:52:51Z</time>
  <speed>4.600000</speed>
</trkpt>
<trkpt lat="32.740852356" lon="35.036231995">
  <ele>505.486816</ele>
  <time>2011-07-15T04:52:52Z</time>
  <speed>4.500000</speed>
</trkpt>
<trkpt lat="32.740810394" lon="35.036251068">
  <ele>505.189941</ele>
  <time>2011-07-15T04:52:53Z</time>
  <speed>5.080000</speed>
</trkpt>
<trkpt lat="32.740768433" lon="35.036270142">
  <ele>504.541504</ele>
  <time>2011-07-15T04:52:54Z</time>
  <speed>5.240000</speed>
</trkpt>
<trkpt lat="32.740711212" lon="35.036289215">
  <ele>504.479004</ele>
  <time>2011-07-15T04:52:55Z</time>
  <speed>7.770000</speed>
</trkpt>
<trkpt lat="32.740657806" lon="35.036312103">
  <ele>504.244629</ele>
  <time>2011-07-15T04:52:56Z</time>
  <speed>5.970000</speed>
</trkpt>
<trkpt lat="32.740608215" lon="35.036323547">
  <ele>503.908691</ele>
  <time>2011-07-15T04:52:57Z</time>
  <speed>5.300000</speed>
</trkpt>
<trkpt lat="32.740558624" lon="35.036338806">
  <ele>503.611816</ele>
  <time>2011-07-15T04:52:58Z</time>
  <speed>5.380000</speed>
</trkpt>
<trkpt lat="32.740512848" lon="35.036357880">
  <ele>503.627441</ele>
  <time>2011-07-15T04:52:59Z</time>
  <speed>5.250000</speed>
</trkpt>
<trkpt lat="32.740467072" lon="35.036357880">
  <ele>503.932129</ele>
  <time>2011-07-15T04:53:00Z</time>
  <speed>4.960000</speed>
</trkpt>
<trkpt lat="32.740417480" lon="35.036354065">
  <ele>503.689941</ele>
  <time>2011-07-15T04:53:01Z</time>
  <speed>5.250000</speed>
</trkpt>
<trkpt lat="32.740367889" lon="35.036357880">
  <ele>503.885254</ele>
  <time>2011-07-15T04:53:02Z</time>
  <speed>5.640000</speed>
</trkpt>
<trkpt lat="32.740318298" lon="35.036369324">
  <ele>503.994629</ele>
  <time>2011-07-15T04:53:03Z</time>
  <speed>5.580000</speed>
</trkpt>
<trkpt lat="32.740268707" lon="35.036373138">
  <ele>504.619629</ele>
  <time>2011-07-15T04:53:04Z</time>
  <speed>5.390000</speed>
</trkpt>
<trkpt lat="32.740222931" lon="35.036373138">
  <ele>504.580566</ele>
  <time>2011-07-15T04:53:05Z</time>
  <speed>5.220000</speed>
</trkpt>
<trkpt lat="32.740173340" lon="35.036384583">
  <ele>504.299316</ele>
  <time>2011-07-15T04:53:06Z</time>
  <speed>5.190000</speed>
</trkpt>
<trkpt lat="32.740127563" lon="35.036392212">
  <ele>504.408691</ele>
  <time>2011-07-15T04:53:07Z</time>
  <speed>5.220000</speed>
</trkpt>
<trkpt lat="32.740077972" lon="35.036399841">
  <ele>505.018066</ele>
  <time>2011-07-15T04:53:08Z</time>
  <speed>5.020000</speed>
</trkpt>
<trkpt lat="32.740036011" lon="35.036407471">
  <ele>505.635254</ele>
  <time>2011-07-15T04:53:09Z</time>
  <speed>4.600000</speed>
</trkpt>
<trkpt lat="32.739994049" lon="35.036415100">
  <ele>505.393066</ele>
  <time>2011-07-15T04:53:10Z</time>
  <speed>4.810000</speed>
</trkpt>
<trkpt lat="32.739952087" lon="35.036418915">
  <ele>505.713379</ele>
  <time>2011-07-15T04:53:11Z</time>
  <speed>4.850000</speed>
</trkpt>
<trkpt lat="32.739906311" lon="35.036426544">
  <ele>505.744629</ele>
  <time>2011-07-15T04:53:12Z</time>
  <speed>4.640000</speed>
</trkpt>
<trkpt lat="32.739864349" lon="35.036430359">
  <ele>505.580566</ele>
  <time>2011-07-15T04:53:13Z</time>
  <speed>4.270000</speed>
</trkpt>
<trkpt lat="32.739826202" lon="35.036437988">
  <ele>505.705566</ele>
  <time>2011-07-15T04:53:14Z</time>
  <speed>4.340000</speed>
</trkpt>
<trkpt lat="32.739788055" lon="35.036441803">
  <ele>506.088379</ele>
  <time>2011-07-15T04:53:15Z</time>
  <speed>3.940000</speed>
</trkpt>
<trkpt lat="32.739753723" lon="35.036449432">
  <ele>506.424316</ele>
  <time>2011-07-15T04:53:16Z</time>
  <speed>4.130000</speed>
</trkpt>
<trkpt lat="32.739719391" lon="35.036457062">
  <ele>505.994629</ele>
  <time>2011-07-15T04:53:17Z</time>
  <speed>4.200000</speed>
</trkpt>
<trkpt lat="32.739685059" lon="35.036460876">
  <ele>506.229004</ele>
  <time>2011-07-15T04:53:18Z</time>
  <speed>4.090000</speed>
</trkpt>
<trkpt lat="32.739646912" lon="35.036464691">
  <ele>506.127441</ele>
  <time>2011-07-15T04:53:19Z</time>
  <speed>4.280000</speed>
</trkpt>
<trkpt lat="32.739608765" lon="35.036468506">
  <ele>506.127441</ele>
  <time>2011-07-15T04:53:20Z</time>
  <speed>4.040000</speed>
</trkpt>
<trkpt lat="32.739566803" lon="35.036468506">
  <ele>505.752441</ele>
  <time>2011-07-15T04:53:21Z</time>
  <speed>4.210000</speed>
</trkpt>
<trkpt lat="32.739528656" lon="35.036468506">
  <ele>505.635254</ele>
  <time>2011-07-15T04:53:22Z</time>
  <speed>4.440000</speed>
</trkpt>
<trkpt lat="32.739486694" lon="35.036468506">
  <ele>505.346191</ele>
  <time>2011-07-15T04:53:23Z</time>
  <speed>4.670000</speed>
</trkpt>
<trkpt lat="32.739440918" lon="35.036460876">
  <ele>505.275879</ele>
  <time>2011-07-15T04:53:24Z</time>
  <speed>4.790000</speed>
</trkpt>
<trkpt lat="32.739398956" lon="35.036445618">
  <ele>504.471191</ele>
  <time>2011-07-15T04:53:25Z</time>
  <speed>4.980000</speed>
</trkpt>
<trkpt lat="32.739356995" lon="35.036426544">
  <ele>504.424316</ele>
  <time>2011-07-15T04:53:26Z</time>
  <speed>4.950000</speed>
</trkpt>
<trkpt lat="32.739318848" lon="35.036396027">
  <ele>505.041504</ele>
  <time>2011-07-15T04:53:27Z</time>
  <speed>4.890000</speed>
</trkpt>
<trkpt lat="32.739273071" lon="35.036365509">
  <ele>505.119629</ele>
  <time>2011-07-15T04:53:28Z</time>
  <speed>5.240000</speed>
</trkpt>
<trkpt lat="32.739231110" lon="35.036338806">
  <ele>505.033691</ele>
  <time>2011-07-15T04:53:29Z</time>
  <speed>4.950000</speed>
</trkpt>
<trkpt lat="32.739196777" lon="35.036323547">
  <ele>504.830566</ele>
  <time>2011-07-15T04:53:30Z</time>
  <speed>4.670000</speed>
</trkpt>
<trkpt lat="32.739162445" lon="35.036315918">
  <ele>504.650879</ele>
  <time>2011-07-15T04:53:31Z</time>
  <speed>3.200000</speed>
</trkpt>
<trkpt lat="32.739124298" lon="35.036312103">
  <ele>505.197754</ele>
  <time>2011-07-15T04:53:33Z</time>
  <speed>2.250000</speed>
</trkpt>
<trkpt lat="32.739093781" lon="35.036273956">
  <ele>504.682129</ele>
  <time>2011-07-15T04:53:35Z</time>
  <speed>2.560000</speed>
</trkpt>
<trkpt lat="32.739063263" lon="35.036231995">
  <ele>503.400879</ele>
  <time>2011-07-15T04:53:37Z</time>
  <speed>2.780000</speed>
</trkpt>
<trkpt lat="32.739013672" lon="35.036193848">
  <ele>504.049316</ele>
  <time>2011-07-15T04:53:39Z</time>
  <speed>3.250000</speed>
</trkpt>
<trkpt lat="32.738986969" lon="35.036174774">
  <ele>504.018066</ele>
  <time>2011-07-15T04:53:40Z</time>
  <speed>3.260000</speed>
</trkpt>
<trkpt lat="32.738937378" lon="35.036155701">
  <ele>504.736816</ele>
  <time>2011-07-15T04:53:42Z</time>
  <speed>2.790000</speed>
</trkpt>
<trkpt lat="32.738899231" lon="35.036144257">
  <ele>504.736816</ele>
  <time>2011-07-15T04:53:44Z</time>
  <speed>2.030000</speed>
</trkpt>
<trkpt lat="32.738857269" lon="35.036151886">
  <ele>504.908691</ele>
  <time>2011-07-15T04:53:46Z</time>
  <speed>2.090000</speed>
</trkpt>
<trkpt lat="32.738822937" lon="35.036178589">
  <ele>504.955566</ele>
  <time>2011-07-15T04:53:48Z</time>
  <speed>1.630000</speed>
</trkpt>
<trkpt lat="32.738800049" lon="35.036205292">
  <ele>504.275879</ele>
  <time>2011-07-15T04:53:50Z</time>
  <speed>1.390000</speed>
</trkpt>
<trkpt lat="32.738788605" lon="35.036239624">
  <ele>503.979004</ele>
  <time>2011-07-15T04:53:52Z</time>
  <speed>1.210000</speed>
</trkpt>
<trkpt lat="32.738769531" lon="35.036262512">
  <ele>504.189941</ele>
  <time>2011-07-15T04:53:54Z</time>
  <speed>1.120000</speed>
</trkpt>
<trkpt lat="32.738723755" lon="35.036254883">
  <ele>504.721191</ele>
  <time>2011-07-15T04:53:57Z</time>
  <speed>1.850000</speed>
</trkpt>
<trkpt lat="32.738681793" lon="35.036243439">
  <ele>505.127441</ele>
  <time>2011-07-15T04:53:59Z</time>
  <speed>2.500000</speed>
</trkpt>
<trkpt lat="32.738651276" lon="35.036239624">
  <ele>505.041504</ele>
  <time>2011-07-15T04:54:00Z</time>
  <speed>2.480000</speed>
</trkpt>
<trkpt lat="32.738620758" lon="35.036228180">
  <ele>504.463379</ele>
  <time>2011-07-15T04:54:01Z</time>
  <speed>1.640000</speed>
</trkpt>
<trkpt lat="32.738582611" lon="35.036212921">
  <ele>505.229004</ele>
  <time>2011-07-15T04:54:03Z</time>
  <speed>2.110000</speed>
</trkpt>
<trkpt lat="32.738540649" lon="35.036190033">
  <ele>506.854004</ele>
  <time>2011-07-15T04:54:05Z</time>
  <speed>2.380000</speed>
</trkpt>
<trkpt lat="32.738502502" lon="35.036174774">
  <ele>507.650879</ele>
  <time>2011-07-15T04:54:07Z</time>
  <speed>1.970000</speed>
</trkpt>
<trkpt lat="32.738475800" lon="35.036144257">
  <ele>506.182129</ele>
  <time>2011-07-15T04:54:09Z</time>
  <speed>2.010000</speed>
</trkpt>
<trkpt lat="32.738445282" lon="35.036102295">
  <ele>505.127441</ele>
  <time>2011-07-15T04:54:11Z</time>
  <speed>2.160000</speed>
</trkpt>
<trkpt lat="32.738426208" lon="35.036071777">
  <ele>505.541504</ele>
  <time>2011-07-15T04:54:13Z</time>
  <speed>1.760000</speed>
</trkpt>
<trkpt lat="32.738380432" lon="35.036079407">
  <ele>506.619629</ele>
  <time>2011-07-15T04:54:16Z</time>
  <speed>2.090000</speed>
</trkpt>
<trkpt lat="32.738338470" lon="35.036090851">
  <ele>506.572754</ele>
  <time>2011-07-15T04:54:18Z</time>
  <speed>2.300000</speed>
</trkpt>
<trkpt lat="32.738300323" lon="35.036094666">
  <ele>506.518066</ele>
  <time>2011-07-15T04:54:20Z</time>
  <speed>1.820000</speed>
</trkpt>
<trkpt lat="32.738262177" lon="35.036090851">
  <ele>506.650879</ele>
  <time>2011-07-15T04:54:22Z</time>
  <speed>2.220000</speed>
</trkpt>
<trkpt lat="32.738220215" lon="35.036083221">
  <ele>506.361816</ele>
  <time>2011-07-15T04:54:24Z</time>
  <speed>2.430000</speed>
</trkpt>
<trkpt lat="32.738166809" lon="35.036098480">
  <ele>506.861816</ele>
  <time>2011-07-15T04:54:26Z</time>
  <speed>3.220000</speed>
</trkpt>
<trkpt lat="32.738132477" lon="35.036113739">
  <ele>505.900879</ele>
  <time>2011-07-15T04:54:27Z</time>
  <speed>3.200000</speed>
</trkpt>
<trkpt lat="32.738105774" lon="35.036140442">
  <ele>505.447754</ele>
  <time>2011-07-15T04:54:28Z</time>
  <speed>3.630000</speed>
</trkpt>
<trkpt lat="32.738067627" lon="35.036155701">
  <ele>505.025879</ele>
  <time>2011-07-15T04:54:29Z</time>
  <speed>4.340000</speed>
</trkpt>
<trkpt lat="32.738029480" lon="35.036170959">
  <ele>504.986816</ele>
  <time>2011-07-15T04:54:30Z</time>
  <speed>4.170000</speed>
</trkpt>
<trkpt lat="32.737987518" lon="35.036182404">
  <ele>504.572754</ele>
  <time>2011-07-15T04:54:31Z</time>
  <speed>4.760000</speed>
</trkpt>
<trkpt lat="32.737941742" lon="35.036186218">
  <ele>505.041504</ele>
  <time>2011-07-15T04:54:32Z</time>
  <speed>4.900000</speed>
</trkpt>
<trkpt lat="32.737895966" lon="35.036182404">
  <ele>504.869629</ele>
  <time>2011-07-15T04:54:33Z</time>
  <speed>4.570000</speed>
</trkpt>
<trkpt lat="32.737846375" lon="35.036186218">
  <ele>505.588379</ele>
  <time>2011-07-15T04:54:34Z</time>
  <speed>5.010000</speed>
</trkpt>
<trkpt lat="32.737800598" lon="35.036178589">
  <ele>505.697754</ele>
  <time>2011-07-15T04:54:35Z</time>
  <speed>4.420000</speed>
</trkpt>
<trkpt lat="32.737754822" lon="35.036170959">
  <ele>506.119629</ele>
  <time>2011-07-15T04:54:36Z</time>
  <speed>4.550000</speed>
</trkpt>
<trkpt lat="32.737709045" lon="35.036151886">
  <ele>505.971191</ele>
  <time>2011-07-15T04:54:37Z</time>
  <speed>4.990000</speed>
</trkpt>
<trkpt lat="32.737663269" lon="35.036132813">
  <ele>506.260254</ele>
  <time>2011-07-15T04:54:38Z</time>
  <speed>4.210000</speed>
</trkpt>
<trkpt lat="32.737628937" lon="35.036113739">
  <ele>506.627441</ele>
  <time>2011-07-15T04:54:39Z</time>
  <speed>3.720000</speed>
</trkpt>
<trkpt lat="32.737606049" lon="35.036090851">
  <ele>506.760254</ele>
  <time>2011-07-15T04:54:40Z</time>
  <speed>3.110000</speed>
</trkpt>
<trkpt lat="32.737598419" lon="35.036056519">
  <ele>506.643066</ele>
  <time>2011-07-15T04:54:41Z</time>
  <speed>2.810000</speed>
</trkpt>
<trkpt lat="32.737586975" lon="35.036026001">
  <ele>506.369629</ele>
  <time>2011-07-15T04:54:42Z</time>
  <speed>2.780000</speed>
</trkpt>
<trkpt lat="32.737583160" lon="35.035968781">
  <ele>505.580566</ele>
  <time>2011-07-15T04:54:44Z</time>
  <speed>2.650000</speed>
</trkpt>
<trkpt lat="32.737575531" lon="35.035915375">
  <ele>505.369629</ele>
  <time>2011-07-15T04:54:46Z</time>
  <speed>2.420000</speed>
</trkpt>
<trkpt lat="32.737579346" lon="35.035884857">
  <ele>504.799316</ele>
  <time>2011-07-15T04:54:47Z</time>
  <speed>2.930000</speed>
</trkpt>
<trkpt lat="32.737590790" lon="35.035839081">
  <ele>505.025879</ele>
  <time>2011-07-15T04:54:48Z</time>
  <speed>3.060000</speed>
</trkpt>
<trkpt lat="32.737583160" lon="35.035793304">
  <ele>504.908691</ele>
  <time>2011-07-15T04:54:49Z</time>
  <speed>3.100000</speed>
</trkpt>
<trkpt lat="32.737571716" lon="35.035751343">
  <ele>504.885254</ele>
  <time>2011-07-15T04:54:50Z</time>
  <speed>3.320000</speed>
</trkpt>
<trkpt lat="32.737560272" lon="35.035713196">
  <ele>505.307129</ele>
  <time>2011-07-15T04:54:51Z</time>
  <speed>3.640000</speed>
</trkpt>
<trkpt lat="32.737552643" lon="35.035678864">
  <ele>505.291504</ele>
  <time>2011-07-15T04:54:52Z</time>
  <speed>3.290000</speed>
</trkpt>
<trkpt lat="32.737548828" lon="35.035644531">
  <ele>505.299316</ele>
  <time>2011-07-15T04:54:53Z</time>
  <speed>3.150000</speed>
</trkpt>
<trkpt lat="32.737564087" lon="35.035583496">
  <ele>504.799316</ele>
  <time>2011-07-15T04:54:55Z</time>
  <speed>2.760000</speed>
</trkpt>
<trkpt lat="32.737571716" lon="35.035552979">
  <ele>504.775879</ele>
  <time>2011-07-15T04:54:56Z</time>
  <speed>2.350000</speed>
</trkpt>
<trkpt lat="32.737590790" lon="35.035507202">
  <ele>502.275879</ele>
  <time>2011-07-15T04:54:58Z</time>
  <speed>1.750000</speed>
</trkpt>
<trkpt lat="32.737579346" lon="35.035472870">
  <ele>501.400879</ele>
  <time>2011-07-15T04:55:00Z</time>
  <speed>1.200000</speed>
</trkpt>
<trkpt lat="32.737564087" lon="35.035453796">
  <ele>499.689941</ele>
  <time>2011-07-15T04:55:08Z</time>
  <speed>0.030000</speed>
</trkpt>
<trkpt lat="32.737571716" lon="35.035423279">
  <ele>500.510254</ele>
  <time>2011-07-15T04:57:01Z</time>
  <speed>0.080000</speed>
</trkpt>
<trkpt lat="32.737541199" lon="35.035427094">
  <ele>500.979004</ele>
  <time>2011-07-15T04:57:41Z</time>
  <speed>0.180000</speed>
</trkpt>
<trkpt lat="32.737567902" lon="35.035438538">
  <ele>501.064941</ele>
  <time>2011-07-15T05:02:05Z</time>
  <speed>0.470000</speed>
</trkpt>
<trkpt lat="32.737590790" lon="35.035457611">
  <ele>499.627441</ele>
  <time>2011-07-15T05:02:10Z</time>
  <speed>0.040000</speed>
</trkpt>
<trkpt lat="32.737625122" lon="35.035453796">
  <ele>500.064941</ele>
  <time>2011-07-15T05:03:49Z</time>
  <speed>0.080000</speed>
</trkpt>
<trkpt lat="32.737651825" lon="35.035469055">
  <ele>500.260254</ele>
  <time>2011-07-15T05:04:10Z</time>
  <speed>0.440000</speed>
</trkpt>
<trkpt lat="32.737674713" lon="35.035503387">
  <ele>500.502441</ele>
  <time>2011-07-15T05:04:12Z</time>
  <speed>0.680000</speed>
</trkpt>
<trkpt lat="32.737693787" lon="35.035537720">
  <ele>501.377441</ele>
  <time>2011-07-15T05:04:16Z</time>
  <speed>0.620000</speed>
</trkpt>
<trkpt lat="32.737705231" lon="35.035564423">
  <ele>502.721191</ele>
  <time>2011-07-15T05:04:20Z</time>
  <speed>0.170000</speed>
</trkpt>
<trkpt lat="32.737693787" lon="35.035606384">
  <ele>502.971191</ele>
  <time>2011-07-15T05:04:25Z</time>
  <speed>0.860000</speed>
</trkpt>
<trkpt lat="32.737674713" lon="35.035636902">
  <ele>502.611816</ele>
  <time>2011-07-15T05:04:28Z</time>
  <speed>0.640000</speed>
</trkpt>
<trkpt lat="32.737674713" lon="35.035671234">
  <ele>503.494629</ele>
  <time>2011-07-15T05:04:32Z</time>
  <speed>0.580000</speed>
</trkpt>
<trkpt lat="32.737705231" lon="35.035682678">
  <ele>503.424316</ele>
  <time>2011-07-15T05:04:35Z</time>
  <speed>0.220000</speed>
</trkpt>
<trkpt lat="32.737716675" lon="35.035633087">
  <ele>504.557129</ele>
  <time>2011-07-15T05:04:59Z</time>
  <speed>3.650000</speed>
</trkpt>
<trkpt lat="32.737728119" lon="35.035575867">
  <ele>504.346191</ele>
  <time>2011-07-15T05:05:00Z</time>
  <speed>4.640000</speed>
</trkpt>
<trkpt lat="32.737735748" lon="35.035530090">
  <ele>504.549316</ele>
  <time>2011-07-15T05:05:01Z</time>
  <speed>3.920000</speed>
</trkpt>
<trkpt lat="32.737747192" lon="35.035491943">
  <ele>504.471191</ele>
  <time>2011-07-15T05:05:02Z</time>
  <speed>3.210000</speed>
</trkpt>
<trkpt lat="32.737751007" lon="35.035449982">
  <ele>503.557129</ele>
  <time>2011-07-15T05:05:03Z</time>
  <speed>1.910000</speed>
</trkpt>
<trkpt lat="32.737792969" lon="35.035446167">
  <ele>502.869629</ele>
  <time>2011-07-15T05:05:05Z</time>
  <speed>1.970000</speed>
</trkpt>
<trkpt lat="32.737796783" lon="35.035480499">
  <ele>501.275879</ele>
  <time>2011-07-15T05:05:08Z</time>
  <speed>1.540000</speed>
</trkpt>
<trkpt lat="32.737762451" lon="35.035476685">
  <ele>501.502441</ele>
  <time>2011-07-15T05:05:11Z</time>
  <speed>1.590000</speed>
</trkpt>
<trkpt lat="32.737739563" lon="35.035446167">
  <ele>501.588379</ele>
  <time>2011-07-15T05:05:13Z</time>
  <speed>1.600000</speed>
</trkpt>
<trkpt lat="32.737712860" lon="35.035419464">
  <ele>502.018066</ele>
  <time>2011-07-15T05:05:16Z</time>
  <speed>0.580000</speed>
</trkpt>
<trkpt lat="32.737686157" lon="35.035438538">
  <ele>502.604004</ele>
  <time>2011-07-15T05:05:42Z</time>
  <speed>1.720000</speed>
</trkpt>
<trkpt lat="32.737655640" lon="35.035415649">
  <ele>502.432129</ele>
  <time>2011-07-15T05:05:43Z</time>
  <speed>1.640000</speed>
</trkpt>
<trkpt lat="32.737606049" lon="35.035396576">
  <ele>502.955566</ele>
  <time>2011-07-15T05:05:45Z</time>
  <speed>1.670000</speed>
</trkpt>
<trkpt lat="32.737571716" lon="35.035392761">
  <ele>503.229004</ele>
  <time>2011-07-15T05:05:47Z</time>
  <speed>1.420000</speed>
</trkpt>
<trkpt lat="32.737529755" lon="35.035408020">
  <ele>503.885254</ele>
  <time>2011-07-15T05:05:49Z</time>
  <speed>1.890000</speed>
</trkpt>
<trkpt lat="32.737506866" lon="35.035430908">
  <ele>504.197754</ele>
  <time>2011-07-15T05:05:51Z</time>
  <speed>0.950000</speed>
</trkpt>
<trkpt lat="32.737518311" lon="35.035480499">
  <ele>504.564941</ele>
  <time>2011-07-15T05:05:54Z</time>
  <speed>1.790000</speed>
</trkpt>
<trkpt lat="32.737533569" lon="35.035526276">
  <ele>504.877441</ele>
  <time>2011-07-15T05:05:56Z</time>
  <speed>1.720000</speed>
</trkpt>
<trkpt lat="32.737545013" lon="35.035560608">
  <ele>505.096191</ele>
  <time>2011-07-15T05:05:58Z</time>
  <speed>1.780000</speed>
</trkpt>
<trkpt lat="32.737560272" lon="35.035594940">
  <ele>506.010254</ele>
  <time>2011-07-15T05:06:00Z</time>
  <speed>1.450000</speed>
</trkpt>
<trkpt lat="32.737583160" lon="35.035636902">
  <ele>506.119629</ele>
  <time>2011-07-15T05:06:02Z</time>
  <speed>1.330000</speed>
</trkpt>
<trkpt lat="32.737602234" lon="35.035663605">
  <ele>505.236816</ele>
  <time>2011-07-15T05:06:04Z</time>
  <speed>1.400000</speed>
</trkpt>
<trkpt lat="32.737636566" lon="35.035690308">
  <ele>504.979004</ele>
  <time>2011-07-15T05:06:07Z</time>
  <speed>1.570000</speed>
</trkpt>
<trkpt lat="32.737670898" lon="35.035659790">
  <ele>503.643066</ele>
  <time>2011-07-15T05:06:09Z</time>
  <speed>2.730000</speed>
</trkpt>
<trkpt lat="32.737686157" lon="35.035629272">
  <ele>503.705566</ele>
  <time>2011-07-15T05:06:10Z</time>
  <speed>3.300000</speed>
</trkpt>
<trkpt lat="32.737693787" lon="35.035591125">
  <ele>503.666504</ele>
  <time>2011-07-15T05:06:11Z</time>
  <speed>3.830000</speed>
</trkpt>
<trkpt lat="32.737697601" lon="35.035537720">
  <ele>503.080566</ele>
  <time>2011-07-15T05:06:12Z</time>
  <speed>4.230000</speed>
</trkpt>
<trkpt lat="32.737712860" lon="35.035488129">
  <ele>502.346191</ele>
  <time>2011-07-15T05:06:13Z</time>
  <speed>4.220000</speed>
</trkpt>
<trkpt lat="32.737735748" lon="35.035449982">
  <ele>501.994629</ele>
  <time>2011-07-15T05:06:14Z</time>
  <speed>3.100000</speed>
</trkpt>
<trkpt lat="32.737758636" lon="35.035427094">
  <ele>501.064941</ele>
  <time>2011-07-15T05:06:16Z</time>
  <speed>0.270000</speed>
</trkpt>
<trkpt lat="32.737728119" lon="35.035438538">
  <ele>503.268066</ele>
  <time>2011-07-15T05:07:16Z</time>
  <speed>1.140000</speed>
</trkpt>
<trkpt lat="32.737682343" lon="35.035438538">
  <ele>503.674316</ele>
  <time>2011-07-15T05:07:18Z</time>
  <speed>1.200000</speed>
</trkpt>
<trkpt lat="32.737648010" lon="35.035442352">
  <ele>503.854004</ele>
  <time>2011-07-15T05:07:20Z</time>
  <speed>1.370000</speed>
</trkpt>
<trkpt lat="32.737606049" lon="35.035430908">
  <ele>504.127441</ele>
  <time>2011-07-15T05:07:22Z</time>
  <speed>1.540000</speed>
</trkpt>
<trkpt lat="32.737567902" lon="35.035430908">
  <ele>504.346191</ele>
  <time>2011-07-15T05:07:24Z</time>
  <speed>1.640000</speed>
</trkpt>
<trkpt lat="32.737537384" lon="35.035449982">
  <ele>504.447754</ele>
  <time>2011-07-15T05:07:26Z</time>
  <speed>1.000000</speed>
</trkpt>
<trkpt lat="32.737514496" lon="35.035476685">
  <ele>504.330566</ele>
  <time>2011-07-15T05:07:29Z</time>
  <speed>1.120000</speed>
</trkpt>
<trkpt lat="32.737529755" lon="35.035518646">
  <ele>504.611816</ele>
  <time>2011-07-15T05:07:32Z</time>
  <speed>1.890000</speed>
</trkpt>
<trkpt lat="32.737548828" lon="35.035549164">
  <ele>504.408691</ele>
  <time>2011-07-15T05:07:34Z</time>
  <speed>1.360000</speed>
</trkpt>
<trkpt lat="32.737556458" lon="35.035583496">
  <ele>504.674316</ele>
  <time>2011-07-15T05:07:36Z</time>
  <speed>1.230000</speed>
</trkpt>
<trkpt lat="32.737571716" lon="35.035614014">
  <ele>504.947754</ele>
  <time>2011-07-15T05:07:38Z</time>
  <speed>1.380000</speed>
</trkpt>
<trkpt lat="32.737590790" lon="35.035640717">
  <ele>505.549316</ele>
  <time>2011-07-15T05:07:40Z</time>
  <speed>1.460000</speed>
</trkpt>
<trkpt lat="32.737613678" lon="35.035675049">
  <ele>506.135254</ele>
  <time>2011-07-15T05:07:42Z</time>
  <speed>1.390000</speed>
</trkpt>
<trkpt lat="32.737644196" lon="35.035686493">
  <ele>506.182129</ele>
  <time>2011-07-15T05:07:45Z</time>
  <speed>1.210000</speed>
</trkpt>
<trkpt lat="32.737682343" lon="35.035678864">
  <ele>505.361816</ele>
  <time>2011-07-15T05:07:49Z</time>
  <speed>1.070000</speed>
</trkpt>
<trkpt lat="32.737701416" lon="35.035644531">
  <ele>505.557129</ele>
  <time>2011-07-15T05:07:51Z</time>
  <speed>2.580000</speed>
</trkpt>
<trkpt lat="32.737709045" lon="35.035614014">
  <ele>505.744629</ele>
  <time>2011-07-15T05:07:52Z</time>
  <speed>3.380000</speed>
</trkpt>
<trkpt lat="32.737709045" lon="35.035568237">
  <ele>504.955566</ele>
  <time>2011-07-15T05:07:53Z</time>
  <speed>3.910000</speed>
</trkpt>
<trkpt lat="32.737716675" lon="35.035522461">
  <ele>504.963379</ele>
  <time>2011-07-15T05:07:54Z</time>
  <speed>3.760000</speed>
</trkpt>
<trkpt lat="32.737728119" lon="35.035488129">
  <ele>504.939941</ele>
  <time>2011-07-15T05:07:55Z</time>
  <speed>3.240000</speed>
</trkpt>
<trkpt lat="32.737728119" lon="35.035442352">
  <ele>503.830566</ele>
  <time>2011-07-15T05:07:56Z</time>
  <speed>1.430000</speed>
</trkpt>
<trkpt lat="32.737720490" lon="35.035408020">
  <ele>504.400879</ele>
  <time>2011-07-15T05:07:58Z</time>
  <speed>0.950000</speed>
</trkpt>
<trkpt lat="32.737693787" lon="35.035396576">
  <ele>502.166504</ele>
  <time>2011-07-15T05:08:01Z</time>
  <speed>1.060000</speed>
</trkpt>
<trkpt lat="32.737659454" lon="35.035392761">
  <ele>501.057129</ele>
  <time>2011-07-15T05:08:03Z</time>
  <speed>1.250000</speed>
</trkpt>
<trkpt lat="32.737625122" lon="35.035392761">
  <ele>500.979004</ele>
  <time>2011-07-15T05:08:05Z</time>
  <speed>0.610000</speed>
</trkpt>
<trkpt lat="32.737598419" lon="35.035392761">
  <ele>500.424316</ele>
  <time>2011-07-15T05:08:07Z</time>
  <speed>1.290000</speed>
</trkpt>
<trkpt lat="32.737571716" lon="35.035396576">
  <ele>499.846191</ele>
  <time>2011-07-15T05:08:10Z</time>
  <speed>0.880000</speed>
</trkpt>
<trkpt lat="32.737545013" lon="35.035408020">
  <ele>499.830566</ele>
  <time>2011-07-15T05:08:12Z</time>
  <speed>1.620000</speed>
</trkpt>
<trkpt lat="32.737510681" lon="35.035419464">
  <ele>499.393066</ele>
  <time>2011-07-15T05:08:14Z</time>
  <speed>1.730000</speed>
</trkpt>
<trkpt lat="32.737483978" lon="35.035446167">
  <ele>499.307129</ele>
  <time>2011-07-15T05:08:16Z</time>
  <speed>1.370000</speed>
</trkpt>
<trkpt lat="32.737495422" lon="35.035476685">
  <ele>498.854004</ele>
  <time>2011-07-15T05:08:18Z</time>
  <speed>1.250000</speed>
</trkpt>
<trkpt lat="32.737510681" lon="35.035511017">
  <ele>499.588379</ele>
  <time>2011-07-15T05:08:19Z</time>
  <speed>2.050000</speed>
</trkpt>
<trkpt lat="32.737522125" lon="35.035541534">
  <ele>500.025879</ele>
  <time>2011-07-15T05:08:21Z</time>
  <speed>1.720000</speed>
</trkpt>
<trkpt lat="32.737533569" lon="35.035575867">
  <ele>500.252441</ele>
  <time>2011-07-15T05:08:25Z</time>
  <speed>0.940000</speed>
</trkpt>
<trkpt lat="32.737556458" lon="35.035602570">
  <ele>500.236816</ele>
  <time>2011-07-15T05:08:27Z</time>
  <speed>1.010000</speed>
</trkpt>
<trkpt lat="32.737586975" lon="35.035633087">
  <ele>500.330566</ele>
  <time>2011-07-15T05:08:30Z</time>
  <speed>1.010000</speed>
</trkpt>
<trkpt lat="32.737613678" lon="35.035655975">
  <ele>499.854004</ele>
  <time>2011-07-15T05:08:33Z</time>
  <speed>0.790000</speed>
</trkpt>
<trkpt lat="32.737644196" lon="35.035675049">
  <ele>500.736816</ele>
  <time>2011-07-15T05:08:35Z</time>
  <speed>1.030000</speed>
</trkpt>
<trkpt lat="32.737678528" lon="35.035663605">
  <ele>499.346191</ele>
  <time>2011-07-15T05:08:38Z</time>
  <speed>1.920000</speed>
</trkpt>
<trkpt lat="32.737705231" lon="35.035617828">
  <ele>499.080566</ele>
  <time>2011-07-15T05:08:40Z</time>
  <speed>2.560000</speed>
</trkpt>
<trkpt lat="32.737701416" lon="35.035568237">
  <ele>499.236816</ele>
  <time>2011-07-15T05:08:41Z</time>
  <speed>4.260000</speed>
</trkpt>
<trkpt lat="32.737705231" lon="35.035522461">
  <ele>499.182129</ele>
  <time>2011-07-15T05:08:42Z</time>
  <speed>4.720000</speed>
</trkpt>
<trkpt lat="32.737720490" lon="35.035480499">
  <ele>499.041504</ele>
  <time>2011-07-15T05:08:43Z</time>
  <speed>4.090000</speed>
</trkpt>
<trkpt lat="32.737731934" lon="35.035442352">
  <ele>498.838379</ele>
  <time>2011-07-15T05:08:44Z</time>
  <speed>2.280000</speed>
</trkpt>
<trkpt lat="32.737731934" lon="35.035408020">
  <ele>498.932129</ele>
  <time>2011-07-15T05:08:46Z</time>
  <speed>1.070000</speed>
</trkpt>
<trkpt lat="32.737724304" lon="35.035449982">
  <ele>498.619629</ele>
  <time>2011-07-15T05:08:51Z</time>
  <speed>0.920000</speed>
</trkpt>
<trkpt lat="32.737739563" lon="35.035480499">
  <ele>499.307129</ele>
  <time>2011-07-15T05:08:54Z</time>
  <speed>0.800000</speed>
</trkpt>
<trkpt lat="32.737720490" lon="35.035446167">
  <ele>499.611816</ele>
  <time>2011-07-15T05:09:01Z</time>
  <speed>1.450000</speed>
</trkpt>
<trkpt lat="32.737689972" lon="35.035434723">
  <ele>500.314941</ele>
  <time>2011-07-15T05:09:04Z</time>
  <speed>1.580000</speed>
</trkpt>
<trkpt lat="32.737640381" lon="35.035415649">
  <ele>500.705566</ele>
  <time>2011-07-15T05:09:06Z</time>
  <speed>3.110000</speed>
</trkpt>
<trkpt lat="32.737606049" lon="35.035396576">
  <ele>500.439941</ele>
  <time>2011-07-15T05:09:07Z</time>
  <speed>3.560000</speed>
</trkpt>
<trkpt lat="32.737575531" lon="35.035366058">
  <ele>499.424316</ele>
  <time>2011-07-15T05:09:08Z</time>
  <speed>3.400000</speed>
</trkpt>
<trkpt lat="32.737545013" lon="35.035327911">
  <ele>499.025879</ele>
  <time>2011-07-15T05:09:10Z</time>
  <speed>2.080000</speed>
</trkpt>
<trkpt lat="32.737525940" lon="35.035305023">
  <ele>497.994629</ele>
  <time>2011-07-15T05:09:12Z</time>
  <speed>1.060000</speed>
</trkpt>
<trkpt lat="32.737499237" lon="35.035312653">
  <ele>496.861816</ele>
  <time>2011-07-15T05:09:17Z</time>
  <speed>0.970000</speed>
</trkpt>
<trkpt lat="32.737495422" lon="35.035350800">
  <ele>496.400879</ele>
  <time>2011-07-15T05:09:20Z</time>
  <speed>0.940000</speed>
</trkpt>
<trkpt lat="32.737472534" lon="35.035381317">
  <ele>495.986816</ele>
  <time>2011-07-15T05:09:22Z</time>
  <speed>0.650000</speed>
</trkpt>
<trkpt lat="32.737476349" lon="35.035415649">
  <ele>495.525879</ele>
  <time>2011-07-15T05:09:25Z</time>
  <speed>0.900000</speed>
</trkpt>
<trkpt lat="32.737480164" lon="35.035465240">
  <ele>495.502441</ele>
  <time>2011-07-15T05:09:27Z</time>
  <speed>1.210000</speed>
</trkpt>
<trkpt lat="32.737483978" lon="35.035503387">
  <ele>496.213379</ele>
  <time>2011-07-15T05:09:31Z</time>
  <speed>1.220000</speed>
</trkpt>
<trkpt lat="32.737503052" lon="35.035541534">
  <ele>497.049316</ele>
  <time>2011-07-15T05:09:34Z</time>
  <speed>0.910000</speed>
</trkpt>
<trkpt lat="32.737518311" lon="35.035568237">
  <ele>497.260254</ele>
  <time>2011-07-15T05:09:37Z</time>
  <speed>0.790000</speed>
</trkpt>
<trkpt lat="32.737541199" lon="35.035602570">
  <ele>497.346191</ele>
  <time>2011-07-15T05:09:40Z</time>
  <speed>1.060000</speed>
</trkpt>
<trkpt lat="32.737545013" lon="35.035636902">
  <ele>498.510254</ele>
  <time>2011-07-15T05:09:43Z</time>
  <speed>0.630000</speed>
</trkpt>
<trkpt lat="32.737583160" lon="35.035659790">
  <ele>501.166504</ele>
  <time>2011-07-15T05:09:46Z</time>
  <speed>0.550000</speed>
</trkpt>
<trkpt lat="32.737590790" lon="35.035621643">
  <ele>501.807129</ele>
  <time>2011-07-15T05:09:54Z</time>
  <speed>1.390000</speed>
</trkpt>
<trkpt lat="32.737579346" lon="35.035549164">
  <ele>501.361816</ele>
  <time>2011-07-15T05:09:56Z</time>
  <speed>4.170000</speed>
</trkpt>
<trkpt lat="32.737579346" lon="35.035499573">
  <ele>501.705566</ele>
  <time>2011-07-15T05:09:57Z</time>
  <speed>4.150000</speed>
</trkpt>
<trkpt lat="32.737560272" lon="35.035446167">
  <ele>501.174316</ele>
  <time>2011-07-15T05:09:58Z</time>
  <speed>5.750000</speed>
</trkpt>
<trkpt lat="32.737556458" lon="35.035404205">
  <ele>500.955566</ele>
  <time>2011-07-15T05:09:59Z</time>
  <speed>2.090000</speed>
</trkpt>
<trkpt lat="32.737533569" lon="35.035377502">
  <ele>500.369629</ele>
  <time>2011-07-15T05:10:01Z</time>
  <speed>1.280000</speed>
</trkpt>
<trkpt lat="32.737503052" lon="35.035385132">
  <ele>500.252441</ele>
  <time>2011-07-15T05:10:03Z</time>
  <speed>1.020000</speed>
</trkpt>
<trkpt lat="32.737503052" lon="35.035427094">
  <ele>501.416504</ele>
  <time>2011-07-15T05:10:05Z</time>
  <speed>1.530000</speed>
</trkpt>
<trkpt lat="32.737499237" lon="35.035457611">
  <ele>502.377441</ele>
  <time>2011-07-15T05:10:07Z</time>
  <speed>1.320000</speed>
</trkpt>
<trkpt lat="32.737514496" lon="35.035503387">
  <ele>503.025879</ele>
  <time>2011-07-15T05:10:10Z</time>
  <speed>1.510000</speed>
</trkpt>
<trkpt lat="32.737525940" lon="35.035533905">
  <ele>503.486816</ele>
  <time>2011-07-15T05:10:12Z</time>
  <speed>0.640000</speed>
</trkpt>
<trkpt lat="32.737545013" lon="35.035564423">
  <ele>503.861816</ele>
  <time>2011-07-15T05:10:15Z</time>
  <speed>0.150000</speed>
</trkpt>
<trkpt lat="32.737556458" lon="35.035606384">
  <ele>504.939941</ele>
  <time>2011-07-15T05:10:22Z</time>
  <speed>0.910000</speed>
</trkpt>
<trkpt lat="32.737548828" lon="35.035648346">
  <ele>505.611816</ele>
  <time>2011-07-15T05:10:25Z</time>
  <speed>1.430000</speed>
</trkpt>
<trkpt lat="32.737537384" lon="35.035678864">
  <ele>505.885254</ele>
  <time>2011-07-15T05:10:27Z</time>
  <speed>1.070000</speed>
</trkpt>
<trkpt lat="32.737537384" lon="35.035717010">
  <ele>505.971191</ele>
  <time>2011-07-15T05:10:30Z</time>
  <speed>1.000000</speed>
</trkpt>
<trkpt lat="32.737560272" lon="35.035739899">
  <ele>505.955566</ele>
  <time>2011-07-15T05:10:32Z</time>
  <speed>1.000000</speed>
</trkpt>
<trkpt lat="32.737586975" lon="35.035751343">
  <ele>505.791504</ele>
  <time>2011-07-15T05:10:35Z</time>
  <speed>0.630000</speed>
</trkpt>
<trkpt lat="32.737598419" lon="35.035724640">
  <ele>505.814941</ele>
  <time>2011-07-15T05:10:38Z</time>
  <speed>1.600000</speed>
</trkpt>
<trkpt lat="32.737583160" lon="35.035667419">
  <ele>504.838379</ele>
  <time>2011-07-15T05:10:40Z</time>
  <speed>3.290000</speed>
</trkpt>
<trkpt lat="32.737579346" lon="35.035614014">
  <ele>504.166504</ele>
  <time>2011-07-15T05:10:41Z</time>
  <speed>3.820000</speed>
</trkpt>
<trkpt lat="32.737575531" lon="35.035564423">
  <ele>503.275879</ele>
  <time>2011-07-15T05:10:42Z</time>
  <speed>4.400000</speed>
</trkpt>
<trkpt lat="32.737552643" lon="35.035503387">
  <ele>502.979004</ele>
  <time>2011-07-15T05:10:43Z</time>
  <speed>6.300000</speed>
</trkpt>
<trkpt lat="32.737537384" lon="35.035453796">
  <ele>502.658691</ele>
  <time>2011-07-15T05:10:44Z</time>
  <speed>4.290000</speed>
</trkpt>
<trkpt lat="32.737522125" lon="35.035423279">
  <ele>502.541504</ele>
  <time>2011-07-15T05:10:45Z</time>
  <speed>1.900000</speed>
</trkpt>
<trkpt lat="32.737495422" lon="35.035408020">
  <ele>501.908691</ele>
  <time>2011-07-15T05:10:49Z</time>
  <speed>0.510000</speed>
</trkpt>
<trkpt lat="32.737514496" lon="35.035449982">
  <ele>500.338379</ele>
  <time>2011-07-15T05:10:58Z</time>
  <speed>0.300000</speed>
</trkpt>
<trkpt lat="32.737529755" lon="35.035476685">
  <ele>499.791504</ele>
  <time>2011-07-15T05:11:02Z</time>
  <speed>0.080000</speed>
</trkpt>
<trkpt lat="32.737537384" lon="35.035511017">
  <ele>499.744629</ele>
  <time>2011-07-15T05:11:59Z</time>
  <speed>1.080000</speed>
</trkpt>
<trkpt lat="32.737552643" lon="35.035549164">
  <ele>500.080566</ele>
  <time>2011-07-15T05:12:02Z</time>
  <speed>1.180000</speed>
</trkpt>
<trkpt lat="32.737567902" lon="35.035572052">
  <ele>499.861816</ele>
  <time>2011-07-15T05:12:05Z</time>
  <speed>0.340000</speed>
</trkpt>
<trkpt lat="32.737583160" lon="35.035614014">
  <ele>500.900879</ele>
  <time>2011-07-15T05:12:08Z</time>
  <speed>1.190000</speed>
</trkpt>
<trkpt lat="32.737606049" lon="35.035648346">
  <ele>502.439941</ele>
  <time>2011-07-15T05:12:11Z</time>
  <speed>1.490000</speed>
</trkpt>
<trkpt lat="32.737625122" lon="35.035671234">
  <ele>502.955566</ele>
  <time>2011-07-15T05:12:13Z</time>
  <speed>1.290000</speed>
</trkpt>
<trkpt lat="32.737648010" lon="35.035697937">
  <ele>502.541504</ele>
  <time>2011-07-15T05:12:15Z</time>
  <speed>1.560000</speed>
</trkpt>
<trkpt lat="32.737670898" lon="35.035659790">
  <ele>504.158691</ele>
  <time>2011-07-15T05:12:18Z</time>
  <speed>0.990000</speed>
</trkpt>
<trkpt lat="32.737674713" lon="35.035625458">
  <ele>504.361816</ele>
  <time>2011-07-15T05:12:20Z</time>
  <speed>0.970000</speed>
</trkpt>
<trkpt lat="32.737651825" lon="35.035594940">
  <ele>504.986816</ele>
  <time>2011-07-15T05:12:22Z</time>
  <speed>1.710000</speed>
</trkpt>
<trkpt lat="32.737625122" lon="35.035598755">
  <ele>504.166504</ele>
  <time>2011-07-15T05:12:23Z</time>
  <speed>1.070000</speed>
</trkpt>
<trkpt lat="32.737655640" lon="35.035621643">
  <ele>504.846191</ele>
  <time>2011-07-15T05:12:27Z</time>
  <speed>1.230000</speed>
</trkpt>
<trkpt lat="32.737682343" lon="35.035636902">
  <ele>503.963379</ele>
  <time>2011-07-15T05:12:28Z</time>
  <speed>1.860000</speed>
</trkpt>
<trkpt lat="32.737697601" lon="35.035667419">
  <ele>504.010254</ele>
  <time>2011-07-15T05:12:30Z</time>
  <speed>0.110000</speed>
</trkpt>
<trkpt lat="32.737678528" lon="35.035663605">
  <ele>506.080566</ele>
  <time>2011-07-15T05:12:42Z</time>
  <speed>0.040000</speed>
</trkpt>
<trkpt lat="32.737651825" lon="35.035652161">
  <ele>507.064941</ele>
  <time>2011-07-15T05:12:48Z</time>
  <speed>0.060000</speed>
</trkpt>
<trkpt lat="32.737659454" lon="35.035621643">
  <ele>508.752441</ele>
  <time>2011-07-15T05:12:54Z</time>
  <speed>0.600000</speed>
</trkpt>
<trkpt lat="32.737678528" lon="35.035572052">
  <ele>508.666504</ele>
  <time>2011-07-15T05:12:57Z</time>
  <speed>1.370000</speed>
</trkpt>
<trkpt lat="32.737686157" lon="35.035537720">
  <ele>508.291504</ele>
  <time>2011-07-15T05:12:58Z</time>
  <speed>3.000000</speed>
</trkpt>
<trkpt lat="32.737686157" lon="35.035495758">
  <ele>508.080566</ele>
  <time>2011-07-15T05:12:59Z</time>
  <speed>4.100000</speed>
</trkpt>
<trkpt lat="32.737686157" lon="35.035442352">
  <ele>507.752441</ele>
  <time>2011-07-15T05:13:00Z</time>
  <speed>4.690000</speed>
</trkpt>
<trkpt lat="32.737667084" lon="35.035404205">
  <ele>507.814941</ele>
  <time>2011-07-15T05:13:02Z</time>
  <speed>0.870000</speed>
</trkpt>
<trkpt lat="32.737632751" lon="35.035392761">
  <ele>507.541504</ele>
  <time>2011-07-15T05:13:04Z</time>
  <speed>1.010000</speed>
</trkpt>
<trkpt lat="32.737598419" lon="35.035392761">
  <ele>507.025879</ele>
  <time>2011-07-15T05:13:07Z</time>
  <speed>1.360000</speed>
</trkpt>
<trkpt lat="32.737564087" lon="35.035404205">
  <ele>505.854004</ele>
  <time>2011-07-15T05:13:10Z</time>
  <speed>1.150000</speed>
</trkpt>
<trkpt lat="32.737529755" lon="35.035411835">
  <ele>504.611816</ele>
  <time>2011-07-15T05:13:13Z</time>
  <speed>1.530000</speed>
</trkpt>
<trkpt lat="32.737510681" lon="35.035442352">
  <ele>504.338379</ele>
  <time>2011-07-15T05:13:15Z</time>
  <speed>1.260000</speed>
</trkpt>
<trkpt lat="32.737514496" lon="35.035472870">
  <ele>504.572754</ele>
  <time>2011-07-15T05:13:17Z</time>
  <speed>1.610000</speed>
</trkpt>
<trkpt lat="32.737525940" lon="35.035503387">
  <ele>504.549316</ele>
  <time>2011-07-15T05:13:18Z</time>
  <speed>1.700000</speed>
</trkpt>
<trkpt lat="32.737545013" lon="35.035533905">
  <ele>502.986816</ele>
  <time>2011-07-15T05:13:20Z</time>
  <speed>1.550000</speed>
</trkpt>
<trkpt lat="32.737552643" lon="35.035575867">
  <ele>502.643066</ele>
  <time>2011-07-15T05:13:23Z</time>
  <speed>1.370000</speed>
</trkpt>
<trkpt lat="32.737575531" lon="35.035614014">
  <ele>502.580566</ele>
  <time>2011-07-15T05:13:25Z</time>
  <speed>1.720000</speed>
</trkpt>
<trkpt lat="32.737594604" lon="35.035652161">
  <ele>503.307129</ele>
  <time>2011-07-15T05:13:27Z</time>
  <speed>1.340000</speed>
</trkpt>
<trkpt lat="32.737621307" lon="35.035682678">
  <ele>503.166504</ele>
  <time>2011-07-15T05:13:29Z</time>
  <speed>1.220000</speed>
</trkpt>
<trkpt lat="32.737648010" lon="35.035697937">
  <ele>502.479004</ele>
  <time>2011-07-15T05:13:31Z</time>
  <speed>1.140000</speed>
</trkpt>
<trkpt lat="32.737678528" lon="35.035686493">
  <ele>501.580566</ele>
  <time>2011-07-15T05:13:34Z</time>
  <speed>1.130000</speed>
</trkpt>
<trkpt lat="32.737686157" lon="35.035629272">
  <ele>502.182129</ele>
  <time>2011-07-15T05:13:37Z</time>
  <speed>2.540000</speed>
</trkpt>
<trkpt lat="32.737701416" lon="35.035594940">
  <ele>501.564941</ele>
  <time>2011-07-15T05:13:38Z</time>
  <speed>3.180000</speed>
</trkpt>
<trkpt lat="32.737697601" lon="35.035541534">
  <ele>501.580566</ele>
  <time>2011-07-15T05:13:39Z</time>
  <speed>4.610000</speed>
</trkpt>
<trkpt lat="32.737716675" lon="35.035495758">
  <ele>501.197754</ele>
  <time>2011-07-15T05:13:40Z</time>
  <speed>3.880000</speed>
</trkpt>
<trkpt lat="32.737716675" lon="35.035449982">
  <ele>501.244629</ele>
  <time>2011-07-15T05:13:41Z</time>
  <speed>2.430000</speed>
</trkpt>
<trkpt lat="32.737724304" lon="35.035408020">
  <ele>502.018066</ele>
  <time>2011-07-15T05:13:43Z</time>
  <speed>0.650000</speed>
</trkpt>
<trkpt lat="32.737701416" lon="35.035434723">
  <ele>502.736816</ele>
  <time>2011-07-15T05:14:24Z</time>
  <speed>1.260000</speed>
</trkpt>
<trkpt lat="32.737667084" lon="35.035430908">
  <ele>502.775879</ele>
  <time>2011-07-15T05:14:26Z</time>
  <speed>1.700000</speed>
</trkpt>
<trkpt lat="32.737636566" lon="35.035423279">
  <ele>502.869629</ele>
  <time>2011-07-15T05:14:27Z</time>
  <speed>2.200000</speed>
</trkpt>
<trkpt lat="32.737609863" lon="35.035427094">
  <ele>502.986816</ele>
  <time>2011-07-15T05:14:28Z</time>
  <speed>2.360000</speed>
</trkpt>
<trkpt lat="32.737579346" lon="35.035434723">
  <ele>502.986816</ele>
  <time>2011-07-15T05:14:29Z</time>
  <speed>2.350000</speed>
</trkpt>
<trkpt lat="32.737533569" lon="35.035449982">
  <ele>502.385254</ele>
  <time>2011-07-15T05:14:31Z</time>
  <speed>1.360000</speed>
</trkpt>
<trkpt lat="32.737525940" lon="35.035484314">
  <ele>502.385254</ele>
  <time>2011-07-15T05:14:33Z</time>
  <speed>0.870000</speed>
</trkpt>
<trkpt lat="32.737541199" lon="35.035522461">
  <ele>502.111816</ele>
  <time>2011-07-15T05:14:36Z</time>
  <speed>1.420000</speed>
</trkpt>
<trkpt lat="32.737552643" lon="35.035556793">
  <ele>501.697754</ele>
  <time>2011-07-15T05:14:38Z</time>
  <speed>1.350000</speed>
</trkpt>
<trkpt lat="32.737560272" lon="35.035587311">
  <ele>500.939941</ele>
  <time>2011-07-15T05:14:40Z</time>
  <speed>1.010000</speed>
</trkpt>
<trkpt lat="32.737564087" lon="35.035633087">
  <ele>500.557129</ele>
  <time>2011-07-15T05:14:43Z</time>
  <speed>1.450000</speed>
</trkpt>
<trkpt lat="32.737590790" lon="35.035659790">
  <ele>501.174316</ele>
  <time>2011-07-15T05:14:46Z</time>
  <speed>1.100000</speed>
</trkpt>
<trkpt lat="32.737606049" lon="35.035682678">
  <ele>502.533691</ele>
  <time>2011-07-15T05:14:49Z</time>
  <speed>0.970000</speed>
</trkpt>
<trkpt lat="32.737628937" lon="35.035697937">
  <ele>503.807129</ele>
  <time>2011-07-15T05:14:51Z</time>
  <speed>1.170000</speed>
</trkpt>
<trkpt lat="32.737659454" lon="35.035686493">
  <ele>503.721191</ele>
  <time>2011-07-15T05:14:53Z</time>
  <speed>1.570000</speed>
</trkpt>
<trkpt lat="32.737674713" lon="35.035636902">
  <ele>504.635254</ele>
  <time>2011-07-15T05:14:55Z</time>
  <speed>2.960000</speed>
</trkpt>
<trkpt lat="32.737682343" lon="35.035594940">
  <ele>503.947754</ele>
  <time>2011-07-15T05:14:56Z</time>
  <speed>3.470000</speed>
</trkpt>
<trkpt lat="32.737689972" lon="35.035556793">
  <ele>503.635254</ele>
  <time>2011-07-15T05:14:57Z</time>
  <speed>3.170000</speed>
</trkpt>
<trkpt lat="32.737701416" lon="35.035518646">
  <ele>503.416504</ele>
  <time>2011-07-15T05:14:58Z</time>
  <speed>4.130000</speed>
</trkpt>
<trkpt lat="32.737724304" lon="35.035472870">
  <ele>502.518066</ele>
  <time>2011-07-15T05:14:59Z</time>
  <speed>2.810000</speed>
</trkpt>
<trkpt lat="32.737739563" lon="35.035430908">
  <ele>503.064941</ele>
  <time>2011-07-15T05:15:00Z</time>
  <speed>2.350000</speed>
</trkpt>
<trkpt lat="32.737773895" lon="35.035423279">
  <ele>503.682129</ele>
  <time>2011-07-15T05:15:02Z</time>
  <speed>1.620000</speed>
</trkpt>
<trkpt lat="32.737800598" lon="35.035457611">
  <ele>503.861816</ele>
  <time>2011-07-15T05:15:05Z</time>
  <speed>2.020000</speed>
</trkpt>
<trkpt lat="32.737770081" lon="35.035446167">
  <ele>505.596191</ele>
  <time>2011-07-15T05:15:10Z</time>
  <speed>1.960000</speed>
</trkpt>
<trkpt lat="32.737751007" lon="35.035427094">
  <ele>506.143066</ele>
  <time>2011-07-15T05:15:11Z</time>
  <speed>2.390000</speed>
</trkpt>
<trkpt lat="32.737701416" lon="35.035396576">
  <ele>506.307129</ele>
  <time>2011-07-15T05:15:13Z</time>
  <speed>3.660000</speed>
</trkpt>
<trkpt lat="32.737670898" lon="35.035377502">
  <ele>506.166504</ele>
  <time>2011-07-15T05:15:14Z</time>
  <speed>3.590000</speed>
</trkpt>
<trkpt lat="32.737640381" lon="35.035373688">
  <ele>506.244629</ele>
  <time>2011-07-15T05:15:16Z</time>
  <speed>0.650000</speed>
</trkpt>
<trkpt lat="32.737625122" lon="35.035362244">
  <ele>503.768066</ele>
  <time>2011-07-15T05:15:45Z</time>
  <speed>0.070000</speed>
</trkpt>
<trkpt lat="32.737594604" lon="35.035339355">
  <ele>503.799316</ele>
  <time>2011-07-15T05:15:50Z</time>
  <speed>0.010000</speed>
</trkpt>
<trkpt lat="32.737586975" lon="35.035377502">
  <ele>503.111816</ele>
  <time>2011-07-15T05:15:53Z</time>
  <speed>0.100000</speed>
</trkpt>
<trkpt lat="32.737567902" lon="35.035350800">
  <ele>502.869629</ele>
  <time>2011-07-15T05:16:01Z</time>
  <speed>0.450000</speed>
</trkpt>
<trkpt lat="32.737533569" lon="35.035343170">
  <ele>504.018066</ele>
  <time>2011-07-15T05:16:07Z</time>
  <speed>0.140000</speed>
</trkpt>
<trkpt lat="32.737560272" lon="35.035362244">
  <ele>504.752441</ele>
  <time>2011-07-15T05:16:21Z</time>
  <speed>0.020000</speed>
</trkpt>
<trkpt lat="32.737564087" lon="35.035415649">
  <ele>505.791504</ele>
  <time>2011-07-15T05:16:28Z</time>
  <speed>0.250000</speed>
</trkpt>
<trkpt lat="32.737537384" lon="35.035423279">
  <ele>506.994629</ele>
  <time>2011-07-15T05:16:44Z</time>
  <speed>0.600000</speed>
</trkpt>
<trkpt lat="32.737518311" lon="35.035434723">
  <ele>504.775879</ele>
  <time>2011-07-15T05:16:52Z</time>
  <speed>0.180000</speed>
</trkpt>
<trkpt lat="32.737525940" lon="35.035408020">
  <ele>502.994629</ele>
  <time>2011-07-15T05:17:12Z</time>
  <speed>0.040000</speed>
</trkpt>
<trkpt lat="32.737552643" lon="35.035400391">
  <ele>502.229004</ele>
  <time>2011-07-15T05:17:28Z</time>
  <speed>0.290000</speed>
</trkpt>
<trkpt lat="32.737564087" lon="35.035411835">
  <ele>499.674316</ele>
  <time>2011-07-15T05:17:43Z</time>
  <speed>0.040000</speed>
</trkpt>
<trkpt lat="32.737571716" lon="35.035419464">
  <ele>496.838379</ele>
  <time>2011-07-15T05:18:00Z</time>
  <speed>0.210000</speed>
</trkpt>
<trkpt lat="32.737586975" lon="35.035430908">
  <ele>494.479004</ele>
  <time>2011-07-15T05:18:12Z</time>
  <speed>0.140000</speed>
</trkpt>
<trkpt lat="32.737625122" lon="35.035449982">
  <ele>492.674316</ele>
  <time>2011-07-15T05:18:18Z</time>
  <speed>0.500000</speed>
</trkpt>
<trkpt lat="32.737651825" lon="35.035438538">
  <ele>493.346191</ele>
  <time>2011-07-15T05:18:22Z</time>
  <speed>0.450000</speed>
</trkpt>
<trkpt lat="32.737628937" lon="35.035430908">
  <ele>494.674316</ele>
  <time>2011-07-15T05:18:56Z</time>
  <speed>0.420000</speed>
</trkpt>
<trkpt lat="32.737602234" lon="35.035411835">
  <ele>494.916504</ele>
  <time>2011-07-15T05:19:00Z</time>
  <speed>0.730000</speed>
</trkpt>
<trkpt lat="32.737575531" lon="35.035408020">
  <ele>495.564941</ele>
  <time>2011-07-15T05:19:03Z</time>
  <speed>0.660000</speed>
</trkpt>
<trkpt lat="32.737545013" lon="35.035415649">
  <ele>496.174316</ele>
  <time>2011-07-15T05:19:06Z</time>
  <speed>0.460000</speed>
</trkpt>
<trkpt lat="32.737525940" lon="35.035453796">
  <ele>496.330566</ele>
  <time>2011-07-15T05:19:11Z</time>
  <speed>0.830000</speed>
</trkpt>
<trkpt lat="32.737525940" lon="35.035507202">
  <ele>496.018066</ele>
  <time>2011-07-15T05:19:15Z</time>
  <speed>0.770000</speed>
</trkpt>
<trkpt lat="32.737533569" lon="35.035549164">
  <ele>496.268066</ele>
  <time>2011-07-15T05:19:19Z</time>
  <speed>0.610000</speed>
</trkpt>
<trkpt lat="32.737545013" lon="35.035591125">
  <ele>496.572754</ele>
  <time>2011-07-15T05:19:25Z</time>
  <speed>0.620000</speed>
</trkpt>
<trkpt lat="32.737564087" lon="35.035629272">
  <ele>496.541504</ele>
  <time>2011-07-15T05:19:30Z</time>
  <speed>0.740000</speed>
</trkpt>
<trkpt lat="32.737590790" lon="35.035648346">
  <ele>496.588379</ele>
  <time>2011-07-15T05:19:33Z</time>
  <speed>0.590000</speed>
</trkpt>
<trkpt lat="32.737609863" lon="35.035648346">
  <ele>498.666504</ele>
  <time>2011-07-15T05:19:46Z</time>
  <speed>0.140000</speed>
</trkpt>
<trkpt lat="32.737636566" lon="35.035640717">
  <ele>499.885254</ele>
  <time>2011-07-15T05:19:48Z</time>
  <speed>0.110000</speed>
</trkpt>
<trkpt lat="32.737606049" lon="35.035629272">
  <ele>500.393066</ele>
  <time>2011-07-15T05:21:47Z</time>
  <speed>0.080000</speed>
</trkpt>
<trkpt lat="32.737613678" lon="35.035659790">
  <ele>498.854004</ele>
  <time>2011-07-15T05:21:59Z</time>
  <speed>0.060000</speed>
</trkpt>
<trkpt lat="32.737586975" lon="35.035648346">
  <ele>498.838379</ele>
  <time>2011-07-15T05:22:02Z</time>
</trkpt>
<trkpt lat="32.737575531" lon="35.035655975">
  <ele>502.057129</ele>
  <time>2011-07-15T05:22:09Z</time>
</trkpt>
<trkpt lat="32.737602234" lon="35.035644531">
  <ele>503.416504</ele>
  <time>2011-07-15T05:22:23Z</time>
</trkpt>
<trkpt lat="32.737617493" lon="35.035621643">
  <ele>502.439941</ele>
  <time>2011-07-15T05:22:31Z</time>
</trkpt>
<trkpt lat="32.737602234" lon="35.035640717">
  <ele>500.338379</ele>
  <time>2011-07-15T05:22:51Z</time>
  <speed>0.310000</speed>
</trkpt>
<trkpt lat="32.737598419" lon="35.035675049">
  <ele>500.518066</ele>
  <time>2011-07-15T05:22:54Z</time>
  <speed>0.390000</speed>
</trkpt>
<trkpt lat="32.737613678" lon="35.035697937">
  <ele>500.213379</ele>
  <time>2011-07-15T05:23:03Z</time>
  <speed>0.090000</speed>
</trkpt>
<trkpt lat="32.737648010" lon="35.035671234">
  <ele>501.260254</ele>
  <time>2011-07-15T05:23:40Z</time>
  <speed>0.140000</speed>
</trkpt>
<trkpt lat="32.737644196" lon="35.035633087">
  <ele>502.166504</ele>
  <time>2011-07-15T05:23:43Z</time>
  <speed>0.060000</speed>
</trkpt>
<trkpt lat="32.737617493" lon="35.035652161">
  <ele>503.682129</ele>
  <time>2011-07-15T05:23:49Z</time>
</trkpt>
<trkpt lat="32.737590790" lon="35.035675049">
  <ele>504.064941</ele>
  <time>2011-07-15T05:23:54Z</time>
</trkpt>
<trkpt lat="32.737586975" lon="35.035705566">
  <ele>504.439941</ele>
  <time>2011-07-15T05:24:12Z</time>
</trkpt>
<trkpt lat="32.737621307" lon="35.035675049">
  <ele>504.518066</ele>
  <time>2011-07-15T05:24:35Z</time>
  <speed>2.050000</speed>
</trkpt>
<trkpt lat="32.737648010" lon="35.035671234">
  <ele>503.775879</ele>
  <time>2011-07-15T05:24:36Z</time>
  <speed>2.490000</speed>
</trkpt>
<trkpt lat="32.737678528" lon="35.035621643">
  <ele>503.768066</ele>
  <time>2011-07-15T05:24:38Z</time>
  <speed>2.970000</speed>
</trkpt>
<trkpt lat="32.737682343" lon="35.035579681">
  <ele>503.424316</ele>
  <time>2011-07-15T05:24:39Z</time>
  <speed>4.090000</speed>
</trkpt>
<trkpt lat="32.737686157" lon="35.035530090">
  <ele>503.127441</ele>
  <time>2011-07-15T05:24:40Z</time>
  <speed>4.430000</speed>
</trkpt>
<trkpt lat="32.737693787" lon="35.035480499">
  <ele>502.494629</ele>
  <time>2011-07-15T05:24:41Z</time>
  <speed>4.540000</speed>
</trkpt>
<trkpt lat="32.737709045" lon="35.035442352">
  <ele>501.729004</ele>
  <time>2011-07-15T05:24:42Z</time>
  <speed>2.330000</speed>
</trkpt>
<trkpt lat="32.737686157" lon="35.035419464">
  <ele>501.104004</ele>
  <time>2011-07-15T05:24:45Z</time>
  <speed>1.340000</speed>
</trkpt>
<trkpt lat="32.737663269" lon="35.035442352">
  <ele>500.189941</ele>
  <time>2011-07-15T05:24:49Z</time>
  <speed>0.840000</speed>
</trkpt>
<trkpt lat="32.737636566" lon="35.035430908">
  <ele>499.650879</ele>
  <time>2011-07-15T05:24:53Z</time>
  <speed>1.440000</speed>
</trkpt>
<trkpt lat="32.737594604" lon="35.035400391">
  <ele>498.705566</ele>
  <time>2011-07-15T05:24:56Z</time>
  <speed>1.470000</speed>
</trkpt>
<trkpt lat="32.737564087" lon="35.035404205">
  <ele>498.064941</ele>
  <time>2011-07-15T05:24:58Z</time>
  <speed>1.580000</speed>
</trkpt>
<trkpt lat="32.737525940" lon="35.035427094">
  <ele>497.588379</ele>
  <time>2011-07-15T05:25:00Z</time>
  <speed>2.180000</speed>
</trkpt>
<trkpt lat="32.737529755" lon="35.035476685">
  <ele>497.447754</ele>
  <time>2011-07-15T05:25:02Z</time>
  <speed>1.450000</speed>
</trkpt>
<trkpt lat="32.737529755" lon="35.035511017">
  <ele>497.627441</ele>
  <time>2011-07-15T05:25:04Z</time>
  <speed>1.500000</speed>
</trkpt>
<trkpt lat="32.737537384" lon="35.035549164">
  <ele>496.979004</ele>
  <time>2011-07-15T05:25:06Z</time>
  <speed>1.500000</speed>
</trkpt>
<trkpt lat="32.737545013" lon="35.035579681">
  <ele>497.143066</ele>
  <time>2011-07-15T05:25:07Z</time>
  <speed>1.590000</speed>
</trkpt>
<trkpt lat="32.737560272" lon="35.035614014">
  <ele>497.604004</ele>
  <time>2011-07-15T05:25:09Z</time>
  <speed>1.640000</speed>
</trkpt>
<trkpt lat="32.737564087" lon="35.035652161">
  <ele>498.361816</ele>
  <time>2011-07-15T05:25:11Z</time>
  <speed>1.500000</speed>
</trkpt>
<trkpt lat="32.737590790" lon="35.035682678">
  <ele>498.244629</ele>
  <time>2011-07-15T05:25:13Z</time>
  <speed>1.510000</speed>
</trkpt>
<trkpt lat="32.737621307" lon="35.035705566">
  <ele>498.260254</ele>
  <time>2011-07-15T05:25:15Z</time>
  <speed>2.150000</speed>
</trkpt>
<trkpt lat="32.737674713" lon="35.035728455">
  <ele>497.439941</ele>
  <time>2011-07-15T05:25:17Z</time>
  <speed>1.200000</speed>
</trkpt>
<trkpt lat="32.737689972" lon="35.035697937">
  <ele>497.736816</ele>
  <time>2011-07-15T05:25:19Z</time>
  <speed>1.060000</speed>
</trkpt>
<trkpt lat="32.737697601" lon="35.035652161">
  <ele>499.291504</ele>
  <time>2011-07-15T05:25:21Z</time>
  <speed>2.170000</speed>
</trkpt>
<trkpt lat="32.737670898" lon="35.035617828">
  <ele>499.541504</ele>
  <time>2011-07-15T05:25:23Z</time>
  <speed>1.440000</speed>
</trkpt>
<trkpt lat="32.737644196" lon="35.035594940">
  <ele>499.197754</ele>
  <time>2011-07-15T05:25:25Z</time>
  <speed>1.090000</speed>
</trkpt>
<trkpt lat="32.737613678" lon="35.035606384">
  <ele>500.666504</ele>
  <time>2011-07-15T05:25:31Z</time>
  <speed>0.130000</speed>
</trkpt>
<trkpt lat="32.737644196" lon="35.035625458">
  <ele>501.416504</ele>
  <time>2011-07-15T05:25:39Z</time>
  <speed>0.770000</speed>
</trkpt>
<trkpt lat="32.737663269" lon="35.035644531">
  <ele>503.268066</ele>
  <time>2011-07-15T05:25:46Z</time>
  <speed>0.260000</speed>
</trkpt>
<trkpt lat="32.737667084" lon="35.035617828">
  <ele>505.744629</ele>
  <time>2011-07-15T05:25:50Z</time>
  <speed>0.010000</speed>
</trkpt>
<trkpt lat="32.737651825" lon="35.035610199">
  <ele>508.127441</ele>
  <time>2011-07-15T05:26:01Z</time>
  <speed>0.510000</speed>
</trkpt>
<trkpt lat="32.737625122" lon="35.035568237">
  <ele>507.643066</ele>
  <time>2011-07-15T05:26:03Z</time>
  <speed>1.550000</speed>
</trkpt>
<trkpt lat="32.737579346" lon="35.035537720">
  <ele>508.229004</ele>
  <time>2011-07-15T05:26:05Z</time>
  <speed>2.710000</speed>
</trkpt>
<trkpt lat="32.737552643" lon="35.035514832">
  <ele>508.135254</ele>
  <time>2011-07-15T05:26:06Z</time>
  <speed>2.180000</speed>
</trkpt>
<trkpt lat="32.737522125" lon="35.035499573">
  <ele>507.994629</ele>
  <time>2011-07-15T05:26:07Z</time>
  <speed>1.390000</speed>
</trkpt>
<trkpt lat="32.737480164" lon="35.035507202">
  <ele>508.275879</ele>
  <time>2011-07-15T05:26:09Z</time>
  <speed>0.740000</speed>
</trkpt>
<trkpt lat="32.737461090" lon="35.035526276">
  <ele>508.033691</ele>
  <time>2011-07-15T05:26:11Z</time>
  <speed>0.810000</speed>
</trkpt>
<trkpt lat="32.737476349" lon="35.035556793">
  <ele>507.229004</ele>
  <time>2011-07-15T05:26:13Z</time>
  <speed>1.060000</speed>
</trkpt>
<trkpt lat="32.737503052" lon="35.035587311">
  <ele>506.314941</ele>
  <time>2011-07-15T05:26:15Z</time>
  <speed>1.610000</speed>
</trkpt>
<trkpt lat="32.737522125" lon="35.035625458">
  <ele>505.838379</ele>
  <time>2011-07-15T05:26:17Z</time>
  <speed>1.750000</speed>
</trkpt>
<trkpt lat="32.737541199" lon="35.035655975">
  <ele>504.971191</ele>
  <time>2011-07-15T05:26:19Z</time>
  <speed>1.250000</speed>
</trkpt>
<trkpt lat="32.737571716" lon="35.035663605">
  <ele>505.408691</ele>
  <time>2011-07-15T05:26:20Z</time>
  <speed>1.590000</speed>
</trkpt>
<trkpt lat="32.737590790" lon="35.035686493">
  <ele>505.158691</ele>
  <time>2011-07-15T05:26:21Z</time>
  <speed>1.050000</speed>
</trkpt>
<trkpt lat="32.737621307" lon="35.035713196">
  <ele>504.244629</ele>
  <time>2011-07-15T05:26:23Z</time>
  <speed>2.240000</speed>
</trkpt>
<trkpt lat="32.737640381" lon="35.035736084">
  <ele>504.447754</ele>
  <time>2011-07-15T05:26:24Z</time>
  <speed>2.520000</speed>
</trkpt>
<trkpt lat="32.737686157" lon="35.035755157">
  <ele>504.150879</ele>
  <time>2011-07-15T05:26:26Z</time>
  <speed>1.660000</speed>
</trkpt>
<trkpt lat="32.737705231" lon="35.035732269">
  <ele>502.596191</ele>
  <time>2011-07-15T05:26:28Z</time>
  <speed>0.880000</speed>
</trkpt>
<trkpt lat="32.737674713" lon="35.035682678">
  <ele>503.447754</ele>
  <time>2011-07-15T05:26:31Z</time>
  <speed>4.110000</speed>
</trkpt>
<trkpt lat="32.737648010" lon="35.035659790">
  <ele>503.439941</ele>
  <time>2011-07-15T05:26:32Z</time>
  <speed>3.910000</speed>
</trkpt>
<trkpt lat="32.737609863" lon="35.035636902">
  <ele>503.330566</ele>
  <time>2011-07-15T05:26:33Z</time>
  <speed>4.540000</speed>
</trkpt>
<trkpt lat="32.737575531" lon="35.035610199">
  <ele>503.041504</ele>
  <time>2011-07-15T05:26:34Z</time>
  <speed>3.980000</speed>
</trkpt>
<trkpt lat="32.737556458" lon="35.035564423">
  <ele>502.846191</ele>
  <time>2011-07-15T05:26:35Z</time>
  <speed>2.230000</speed>
</trkpt>
<trkpt lat="32.737537384" lon="35.035541534">
  <ele>501.822754</ele>
  <time>2011-07-15T05:26:37Z</time>
  <speed>1.080000</speed>
</trkpt>
<trkpt lat="32.737499237" lon="35.035511017">
  <ele>501.322754</ele>
  <time>2011-07-15T05:26:38Z</time>
  <speed>0.820000</speed>
</trkpt>
<trkpt lat="32.737525940" lon="35.035537720">
  <ele>502.174316</ele>
  <time>2011-07-15T05:26:49Z</time>
  <speed>0.240000</speed>
</trkpt>
<trkpt lat="32.737537384" lon="35.035560608">
  <ele>504.150879</ele>
  <time>2011-07-15T05:26:57Z</time>
  <speed>0.210000</speed>
</trkpt>
<trkpt lat="32.737548828" lon="35.035591125">
  <ele>505.791504</ele>
  <time>2011-07-15T05:27:06Z</time>
  <speed>0.740000</speed>
</trkpt>
<trkpt lat="32.737560272" lon="35.035621643">
  <ele>505.143066</ele>
  <time>2011-07-15T05:27:08Z</time>
  <speed>1.100000</speed>
</trkpt>
<trkpt lat="32.737571716" lon="35.035652161">
  <ele>504.549316</ele>
  <time>2011-07-15T05:27:10Z</time>
  <speed>1.610000</speed>
</trkpt>
<trkpt lat="32.737590790" lon="35.035690308">
  <ele>504.010254</ele>
  <time>2011-07-15T05:27:12Z</time>
  <speed>1.970000</speed>
</trkpt>
<trkpt lat="32.737609863" lon="35.035724640">
  <ele>504.088379</ele>
  <time>2011-07-15T05:27:14Z</time>
  <speed>1.880000</speed>
</trkpt>
<trkpt lat="32.737617493" lon="35.035758972">
  <ele>504.166504</ele>
  <time>2011-07-15T05:27:16Z</time>
  <speed>1.390000</speed>
</trkpt>
<trkpt lat="32.737648010" lon="35.035755157">
  <ele>503.932129</ele>
  <time>2011-07-15T05:27:19Z</time>
  <speed>1.360000</speed>
</trkpt>
<trkpt lat="32.737659454" lon="35.035705566">
  <ele>503.143066</ele>
  <time>2011-07-15T05:27:21Z</time>
  <speed>3.370000</speed>
</trkpt>
<trkpt lat="32.737667084" lon="35.035667419">
  <ele>503.150879</ele>
  <time>2011-07-15T05:27:22Z</time>
  <speed>3.470000</speed>
</trkpt>
<trkpt lat="32.737682343" lon="35.035617828">
  <ele>502.596191</ele>
  <time>2011-07-15T05:27:23Z</time>
  <speed>4.780000</speed>
</trkpt>
<trkpt lat="32.737697601" lon="35.035572052">
  <ele>502.502441</ele>
  <time>2011-07-15T05:27:24Z</time>
  <speed>4.250000</speed>
</trkpt>
<trkpt lat="32.737735748" lon="35.035511017">
  <ele>500.893066</ele>
  <time>2011-07-15T05:27:25Z</time>
  <speed>5.220000</speed>
</trkpt>
<trkpt lat="32.737728119" lon="35.035434723">
  <ele>500.432129</ele>
  <time>2011-07-15T05:27:26Z</time>
  <speed>5.500000</speed>
</trkpt>
<trkpt lat="32.737731934" lon="35.035373688">
  <ele>500.041504</ele>
  <time>2011-07-15T05:27:27Z</time>
  <speed>5.370000</speed>
</trkpt>
<trkpt lat="32.737724304" lon="35.035301208">
  <ele>499.393066</ele>
  <time>2011-07-15T05:27:28Z</time>
  <speed>5.100000</speed>
</trkpt>
<trkpt lat="32.737712860" lon="35.035263062">
  <ele>499.463379</ele>
  <time>2011-07-15T05:27:29Z</time>
  <speed>2.150000</speed>
</trkpt>
<trkpt lat="32.737670898" lon="35.035255432">
  <ele>500.119629</ele>
  <time>2011-07-15T05:27:31Z</time>
  <speed>0.960000</speed>
</trkpt>
<trkpt lat="32.737640381" lon="35.035251617">
  <ele>499.244629</ele>
  <time>2011-07-15T05:27:33Z</time>
  <speed>1.090000</speed>
</trkpt>
<trkpt lat="32.737613678" lon="35.035274506">
  <ele>498.057129</ele>
  <time>2011-07-15T05:27:35Z</time>
  <speed>2.080000</speed>
</trkpt>
<trkpt lat="32.737575531" lon="35.035305023">
  <ele>497.533691</ele>
  <time>2011-07-15T05:27:37Z</time>
  <speed>2.230000</speed>
</trkpt>
<trkpt lat="32.737537384" lon="35.035324097">
  <ele>497.268066</ele>
  <time>2011-07-15T05:27:39Z</time>
  <speed>1.550000</speed>
</trkpt>
<trkpt lat="32.737525940" lon="35.035358429">
  <ele>498.018066</ele>
  <time>2011-07-15T05:27:40Z</time>
  <speed>2.000000</speed>
</trkpt>
<trkpt lat="32.737522125" lon="35.035411835">
  <ele>497.791504</ele>
  <time>2011-07-15T05:27:42Z</time>
  <speed>2.150000</speed>
</trkpt>
<trkpt lat="32.737525940" lon="35.035446167">
  <ele>497.932129</ele>
  <time>2011-07-15T05:27:43Z</time>
  <speed>1.930000</speed>
</trkpt>
<trkpt lat="32.737522125" lon="35.035495758">
  <ele>497.268066</ele>
  <time>2011-07-15T05:27:45Z</time>
  <speed>1.940000</speed>
</trkpt>
<trkpt lat="32.737529755" lon="35.035533905">
  <ele>497.588379</ele>
  <time>2011-07-15T05:27:47Z</time>
  <speed>0.650000</speed>
</trkpt>
<trkpt lat="32.737552643" lon="35.035556793">
  <ele>498.455566</ele>
  <time>2011-07-15T05:27:52Z</time>
  <speed>0.150000</speed>
</trkpt>
<trkpt lat="32.737575531" lon="35.035572052">
  <ele>500.174316</ele>
  <time>2011-07-15T05:28:18Z</time>
  <speed>0.090000</speed>
</trkpt>
<trkpt lat="32.737579346" lon="35.035583496">
  <ele>503.033691</ele>
  <time>2011-07-15T05:28:30Z</time>
</trkpt>
<trkpt lat="32.737560272" lon="35.035606384">
  <ele>504.377441</ele>
  <time>2011-07-15T05:28:51Z</time>
</trkpt>
<trkpt lat="32.737579346" lon="35.035614014">
  <ele>506.361816</ele>
  <time>2011-07-15T05:29:17Z</time>
  <speed>0.010000</speed>
</trkpt>
<trkpt lat="32.737556458" lon="35.035606384">
  <ele>504.947754</ele>
  <time>2011-07-15T05:29:36Z</time>
  <speed>0.080000</speed>
</trkpt>
<trkpt lat="32.737575531" lon="35.035591125">
  <ele>503.018066</ele>
  <time>2011-07-15T05:29:47Z</time>
  <speed>0.060000</speed>
</trkpt>
<trkpt lat="32.737602234" lon="35.035579681">
  <ele>502.643066</ele>
  <time>2011-07-15T05:29:54Z</time>
  <speed>0.120000</speed>
</trkpt>
<trkpt lat="32.737598419" lon="35.035594940">
  <ele>505.369629</ele>
  <time>2011-07-15T05:30:03Z</time>
  <speed>0.050000</speed>
</trkpt>
<trkpt lat="32.737590790" lon="35.035598755">
  <ele>508.275879</ele>
  <time>2011-07-15T05:30:08Z</time>
  <speed>0.010000</speed>
</trkpt>
<trkpt lat="32.737579346" lon="35.035572052">
  <ele>508.158691</ele>
  <time>2011-07-15T05:30:19Z</time>
</trkpt>
<trkpt lat="32.737594604" lon="35.035606384">
  <ele>508.025879</ele>
  <time>2011-07-15T05:30:28Z</time>
  <speed>0.200000</speed>
</trkpt>
<trkpt lat="32.737598419" lon="35.035640717">
  <ele>507.869629</ele>
  <time>2011-07-15T05:30:33Z</time>
  <speed>0.440000</speed>
</trkpt>
<trkpt lat="32.737621307" lon="35.035663605">
  <ele>506.885254</ele>
  <time>2011-07-15T05:30:38Z</time>
  <speed>0.580000</speed>
</trkpt>
<trkpt lat="32.737648010" lon="35.035682678">
  <ele>506.689941</ele>
  <time>2011-07-15T05:30:42Z</time>
  <speed>0.850000</speed>
</trkpt>
<trkpt lat="32.737670898" lon="35.035705566">
  <ele>506.807129</ele>
  <time>2011-07-15T05:30:45Z</time>
  <speed>1.030000</speed>
</trkpt>
<trkpt lat="32.737697601" lon="35.035724640">
  <ele>507.252441</ele>
  <time>2011-07-15T05:30:49Z</time>
  <speed>0.520000</speed>
</trkpt>
<trkpt lat="32.737728119" lon="35.035717010">
  <ele>506.104004</ele>
  <time>2011-07-15T05:30:53Z</time>
  <speed>0.600000</speed>
</trkpt>
<trkpt lat="32.737728119" lon="35.035678864">
  <ele>506.369629</ele>
  <time>2011-07-15T05:30:58Z</time>
  <speed>0.840000</speed>
</trkpt>
<trkpt lat="32.737716675" lon="35.035644531">
  <ele>506.221191</ele>
  <time>2011-07-15T05:31:00Z</time>
  <speed>2.220000</speed>
</trkpt>
<trkpt lat="32.737686157" lon="35.035633087">
  <ele>506.018066</ele>
  <time>2011-07-15T05:31:01Z</time>
  <speed>3.390000</speed>
</trkpt>
<trkpt lat="32.737644196" lon="35.035606384">
  <ele>506.182129</ele>
  <time>2011-07-15T05:31:02Z</time>
  <speed>4.790000</speed>
</trkpt>
<trkpt lat="32.737602234" lon="35.035564423">
  <ele>506.166504</ele>
  <time>2011-07-15T05:31:03Z</time>
  <speed>4.420000</speed>
</trkpt>
<trkpt lat="32.737575531" lon="35.035545349">
  <ele>506.049316</ele>
  <time>2011-07-15T05:31:04Z</time>
  <speed>2.620000</speed>
</trkpt>
<trkpt lat="32.737545013" lon="35.035530090">
  <ele>505.814941</ele>
  <time>2011-07-15T05:31:05Z</time>
  <speed>1.810000</speed>
</trkpt>
<trkpt lat="32.737514496" lon="35.035518646">
  <ele>505.377441</ele>
  <time>2011-07-15T05:31:07Z</time>
  <speed>1.350000</speed>
</trkpt>
<trkpt lat="32.737483978" lon="35.035549164">
  <ele>505.041504</ele>
  <time>2011-07-15T05:31:10Z</time>
  <speed>1.250000</speed>
</trkpt>
<trkpt lat="32.737499237" lon="35.035575867">
  <ele>504.354004</ele>
  <time>2011-07-15T05:31:12Z</time>
  <speed>0.990000</speed>
</trkpt>
<trkpt lat="32.737529755" lon="35.035598755">
  <ele>502.916504</ele>
  <time>2011-07-15T05:31:14Z</time>
  <speed>1.150000</speed>
</trkpt>
<trkpt lat="32.737545013" lon="35.035633087">
  <ele>502.002441</ele>
  <time>2011-07-15T05:31:17Z</time>
  <speed>1.070000</speed>
</trkpt>
<trkpt lat="32.737571716" lon="35.035659790">
  <ele>502.760254</ele>
  <time>2011-07-15T05:31:19Z</time>
  <speed>1.670000</speed>
</trkpt>
<trkpt lat="32.737598419" lon="35.035694122">
  <ele>502.658691</ele>
  <time>2011-07-15T05:31:22Z</time>
  <speed>1.610000</speed>
</trkpt>
<trkpt lat="32.737609863" lon="35.035732269">
  <ele>503.252441</ele>
  <time>2011-07-15T05:31:24Z</time>
  <speed>1.360000</speed>
</trkpt>
<trkpt lat="32.737606049" lon="35.035766602">
  <ele>503.104004</ele>
  <time>2011-07-15T05:31:26Z</time>
  <speed>1.670000</speed>
</trkpt>
<trkpt lat="32.737590790" lon="35.035800934">
  <ele>503.689941</ele>
  <time>2011-07-15T05:31:28Z</time>
  <speed>1.870000</speed>
</trkpt>
<trkpt lat="32.737560272" lon="35.035831451">
  <ele>504.416504</ele>
  <time>2011-07-15T05:31:30Z</time>
  <speed>1.430000</speed>
</trkpt>
<trkpt lat="32.737529755" lon="35.035854340">
  <ele>504.572754</ele>
  <time>2011-07-15T05:31:32Z</time>
  <speed>1.740000</speed>
</trkpt>
<trkpt lat="32.737495422" lon="35.035877228">
  <ele>504.643066</ele>
  <time>2011-07-15T05:31:34Z</time>
  <speed>1.450000</speed>
</trkpt>
<trkpt lat="32.737468719" lon="35.035896301">
  <ele>503.846191</ele>
  <time>2011-07-15T05:31:36Z</time>
  <speed>1.150000</speed>
</trkpt>
<trkpt lat="32.737461090" lon="35.035945892">
  <ele>504.182129</ele>
  <time>2011-07-15T05:31:39Z</time>
  <speed>1.620000</speed>
</trkpt>
<trkpt lat="32.737430573" lon="35.035972595">
  <ele>505.041504</ele>
  <time>2011-07-15T05:31:41Z</time>
  <speed>1.440000</speed>
</trkpt>
<trkpt lat="32.737392426" lon="35.035980225">
  <ele>505.268066</ele>
  <time>2011-07-15T05:31:44Z</time>
  <speed>1.720000</speed>
</trkpt>
<trkpt lat="32.737361908" lon="35.035968781">
  <ele>505.158691</ele>
  <time>2011-07-15T05:31:46Z</time>
  <speed>1.740000</speed>
</trkpt>
<trkpt lat="32.737342834" lon="35.035991669">
  <ele>505.822754</ele>
  <time>2011-07-15T05:31:49Z</time>
  <speed>0.910000</speed>
</trkpt>
<trkpt lat="32.737342834" lon="35.036041260">
  <ele>505.697754</ele>
  <time>2011-07-15T05:31:52Z</time>
  <speed>1.450000</speed>
</trkpt>
<trkpt lat="32.737339020" lon="35.036083221">
  <ele>505.807129</ele>
  <time>2011-07-15T05:31:54Z</time>
  <speed>1.900000</speed>
</trkpt>
<trkpt lat="32.737327576" lon="35.036132813">
  <ele>506.025879</ele>
  <time>2011-07-15T05:31:56Z</time>
  <speed>2.580000</speed>
</trkpt>
<trkpt lat="32.737312317" lon="35.036163330">
  <ele>506.057129</ele>
  <time>2011-07-15T05:31:57Z</time>
  <speed>2.900000</speed>
</trkpt>
<trkpt lat="32.737281799" lon="35.036193848">
  <ele>506.338379</ele>
  <time>2011-07-15T05:31:58Z</time>
  <speed>3.810000</speed>
</trkpt>
<trkpt lat="32.737243652" lon="35.036209106">
  <ele>505.549316</ele>
  <time>2011-07-15T05:31:59Z</time>
  <speed>4.250000</speed>
</trkpt>
<trkpt lat="32.737201691" lon="35.036216736">
  <ele>504.275879</ele>
  <time>2011-07-15T05:32:00Z</time>
  <speed>4.270000</speed>
</trkpt>
<trkpt lat="32.737155914" lon="35.036212921">
  <ele>504.900879</ele>
  <time>2011-07-15T05:32:01Z</time>
  <speed>4.680000</speed>
</trkpt>
<trkpt lat="32.737117767" lon="35.036209106">
  <ele>504.807129</ele>
  <time>2011-07-15T05:32:02Z</time>
  <speed>4.010000</speed>
</trkpt>
<trkpt lat="32.737079620" lon="35.036190033">
  <ele>504.463379</ele>
  <time>2011-07-15T05:32:03Z</time>
  <speed>3.790000</speed>
</trkpt>
<trkpt lat="32.737052917" lon="35.036174774">
  <ele>504.354004</ele>
  <time>2011-07-15T05:32:04Z</time>
  <speed>3.350000</speed>
</trkpt>
<trkpt lat="32.737026215" lon="35.036170959">
  <ele>504.963379</ele>
  <time>2011-07-15T05:32:05Z</time>
  <speed>3.000000</speed>
</trkpt>
<trkpt lat="32.736995697" lon="35.036159515">
  <ele>505.221191</ele>
  <time>2011-07-15T05:32:06Z</time>
  <speed>2.960000</speed>
</trkpt>
<trkpt lat="32.736976624" lon="35.036136627">
  <ele>504.518066</ele>
  <time>2011-07-15T05:32:07Z</time>
  <speed>2.850000</speed>
</trkpt>
<trkpt lat="32.736930847" lon="35.036106110">
  <ele>504.752441</ele>
  <time>2011-07-15T05:32:09Z</time>
  <speed>2.790000</speed>
</trkpt>
<trkpt lat="32.736885071" lon="35.036083221">
  <ele>505.557129</ele>
  <time>2011-07-15T05:32:11Z</time>
  <speed>2.630000</speed>
</trkpt>
<trkpt lat="32.736850739" lon="35.036064148">
  <ele>504.877441</ele>
  <time>2011-07-15T05:32:13Z</time>
  <speed>2.550000</speed>
</trkpt>
<trkpt lat="32.736816406" lon="35.036041260">
  <ele>504.611816</ele>
  <time>2011-07-15T05:32:15Z</time>
  <speed>2.260000</speed>
</trkpt>
<trkpt lat="32.736778259" lon="35.036010742">
  <ele>504.244629</ele>
  <time>2011-07-15T05:32:17Z</time>
  <speed>1.940000</speed>
</trkpt>
<trkpt lat="32.736747742" lon="35.036014557">
  <ele>506.002441</ele>
  <time>2011-07-15T05:32:19Z</time>
  <speed>1.360000</speed>
</trkpt>
<trkpt lat="32.736721039" lon="35.036041260">
  <ele>506.830566</ele>
  <time>2011-07-15T05:32:21Z</time>
  <speed>1.650000</speed>
</trkpt>
<trkpt lat="32.736682892" lon="35.036056519">
  <ele>505.627441</ele>
  <time>2011-07-15T05:32:23Z</time>
  <speed>2.090000</speed>
</trkpt>
<trkpt lat="32.736644745" lon="35.036060333">
  <ele>505.338379</ele>
  <time>2011-07-15T05:32:25Z</time>
  <speed>2.240000</speed>
</trkpt>
<trkpt lat="32.736595154" lon="35.036060333">
  <ele>507.213379</ele>
  <time>2011-07-15T05:32:27Z</time>
  <speed>2.610000</speed>
</trkpt>
<trkpt lat="32.736545563" lon="35.036048889">
  <ele>506.689941</ele>
  <time>2011-07-15T05:32:29Z</time>
  <speed>2.780000</speed>
</trkpt>
<trkpt lat="32.736518860" lon="35.036033630">
  <ele>506.049316</ele>
  <time>2011-07-15T05:32:30Z</time>
  <speed>2.690000</speed>
</trkpt>
<trkpt lat="32.736476898" lon="35.036018372">
  <ele>505.182129</ele>
  <time>2011-07-15T05:32:32Z</time>
  <speed>2.280000</speed>
</trkpt>
<trkpt lat="32.736431122" lon="35.036003113">
  <ele>505.955566</ele>
  <time>2011-07-15T05:32:34Z</time>
  <speed>2.390000</speed>
</trkpt>
<trkpt lat="32.736404419" lon="35.035999298">
  <ele>507.064941</ele>
  <time>2011-07-15T05:32:35Z</time>
  <speed>2.270000</speed>
</trkpt>
<trkpt lat="32.736362457" lon="35.035984039">
  <ele>507.119629</ele>
  <time>2011-07-15T05:32:37Z</time>
  <speed>2.250000</speed>
</trkpt>
<trkpt lat="32.736320496" lon="35.035984039">
  <ele>507.994629</ele>
  <time>2011-07-15T05:32:39Z</time>
  <speed>2.570000</speed>
</trkpt>
<trkpt lat="32.736278534" lon="35.035987854">
  <ele>508.057129</ele>
  <time>2011-07-15T05:32:41Z</time>
  <speed>2.700000</speed>
</trkpt>
<trkpt lat="32.736236572" lon="35.035972595">
  <ele>508.002441</ele>
  <time>2011-07-15T05:32:43Z</time>
  <speed>2.420000</speed>
</trkpt>
<trkpt lat="32.736194611" lon="35.035953522">
  <ele>507.541504</ele>
  <time>2011-07-15T05:32:45Z</time>
  <speed>2.840000</speed>
</trkpt>
<trkpt lat="32.736137390" lon="35.035930634">
  <ele>506.666504</ele>
  <time>2011-07-15T05:32:47Z</time>
  <speed>3.320000</speed>
</trkpt>
<trkpt lat="32.736106873" lon="35.035919189">
  <ele>506.510254</ele>
  <time>2011-07-15T05:32:48Z</time>
  <speed>3.650000</speed>
</trkpt>
<trkpt lat="32.736064911" lon="35.035915375">
  <ele>506.361816</ele>
  <time>2011-07-15T05:32:49Z</time>
  <speed>3.940000</speed>
</trkpt>
<trkpt lat="32.736026764" lon="35.035923004">
  <ele>504.760254</ele>
  <time>2011-07-15T05:32:50Z</time>
  <speed>4.220000</speed>
</trkpt>
<trkpt lat="32.735980988" lon="35.035930634">
  <ele>503.486816</ele>
  <time>2011-07-15T05:32:51Z</time>
  <speed>4.760000</speed>
</trkpt>
<trkpt lat="32.735935211" lon="35.035938263">
  <ele>502.463379</ele>
  <time>2011-07-15T05:32:52Z</time>
  <speed>4.940000</speed>
</trkpt>
<trkpt lat="32.735889435" lon="35.035961151">
  <ele>501.432129</ele>
  <time>2011-07-15T05:32:53Z</time>
  <speed>5.460000</speed>
</trkpt>
<trkpt lat="32.735843658" lon="35.035987854">
  <ele>500.861816</ele>
  <time>2011-07-15T05:32:54Z</time>
  <speed>5.380000</speed>
</trkpt>
<trkpt lat="32.735790253" lon="35.036033630">
  <ele>501.268066</ele>
  <time>2011-07-15T05:32:55Z</time>
  <speed>5.670000</speed>
</trkpt>
<trkpt lat="32.735744476" lon="35.036071777">
  <ele>500.486816</ele>
  <time>2011-07-15T05:32:56Z</time>
  <speed>5.610000</speed>
</trkpt>
<trkpt lat="32.735698700" lon="35.036094666">
  <ele>499.525879</ele>
  <time>2011-07-15T05:32:57Z</time>
  <speed>5.810000</speed>
</trkpt>
<trkpt lat="32.735649109" lon="35.036117554">
  <ele>500.596191</ele>
  <time>2011-07-15T05:32:58Z</time>
  <speed>4.440000</speed>
</trkpt>
<trkpt lat="32.735607147" lon="35.036128998">
  <ele>500.072754</ele>
  <time>2011-07-15T05:32:59Z</time>
  <speed>5.120000</speed>
</trkpt>
<trkpt lat="32.735565186" lon="35.036136627">
  <ele>500.346191</ele>
  <time>2011-07-15T05:33:00Z</time>
  <speed>4.060000</speed>
</trkpt>
<trkpt lat="32.735527039" lon="35.036144257">
  <ele>500.393066</ele>
  <time>2011-07-15T05:33:01Z</time>
  <speed>4.230000</speed>
</trkpt>
<trkpt lat="32.735485077" lon="35.036140442">
  <ele>500.088379</ele>
  <time>2011-07-15T05:33:02Z</time>
  <speed>4.630000</speed>
</trkpt>
<trkpt lat="32.735446930" lon="35.036144257">
  <ele>499.471191</ele>
  <time>2011-07-15T05:33:03Z</time>
  <speed>4.160000</speed>
</trkpt>
<trkpt lat="32.735397339" lon="35.036140442">
  <ele>499.689941</ele>
  <time>2011-07-15T05:33:04Z</time>
  <speed>4.360000</speed>
</trkpt>
<trkpt lat="32.735355377" lon="35.036140442">
  <ele>499.182129</ele>
  <time>2011-07-15T05:33:05Z</time>
  <speed>4.690000</speed>
</trkpt>
<trkpt lat="32.735313416" lon="35.036155701">
  <ele>498.822754</ele>
  <time>2011-07-15T05:33:06Z</time>
  <speed>4.520000</speed>
</trkpt>
<trkpt lat="32.735282898" lon="35.036186218">
  <ele>498.002441</ele>
  <time>2011-07-15T05:33:07Z</time>
  <speed>4.300000</speed>
</trkpt>
<trkpt lat="32.735252380" lon="35.036224365">
  <ele>497.307129</ele>
  <time>2011-07-15T05:33:08Z</time>
  <speed>4.630000</speed>
</trkpt>
<trkpt lat="32.735221863" lon="35.036273956">
  <ele>496.721191</ele>
  <time>2011-07-15T05:33:09Z</time>
  <speed>5.070000</speed>
</trkpt>
<trkpt lat="32.735198975" lon="35.036327362">
  <ele>496.807129</ele>
  <time>2011-07-15T05:33:10Z</time>
  <speed>5.110000</speed>
</trkpt>
<trkpt lat="32.735172272" lon="35.036376953">
  <ele>496.838379</ele>
  <time>2011-07-15T05:33:11Z</time>
  <speed>4.780000</speed>
</trkpt>
<trkpt lat="32.735141754" lon="35.036388397">
  <ele>494.822754</ele>
  <time>2011-07-15T05:33:12Z</time>
  <speed>4.090000</speed>
</trkpt>
<trkpt lat="32.735103607" lon="35.036396027">
  <ele>494.525879</ele>
  <time>2011-07-15T05:33:13Z</time>
  <speed>4.090000</speed>
</trkpt>
<trkpt lat="32.735073090" lon="35.036415100">
  <ele>494.752441</ele>
  <time>2011-07-15T05:33:14Z</time>
  <speed>3.550000</speed>
</trkpt>
<trkpt lat="32.735050201" lon="35.036445618">
  <ele>494.486816</ele>
  <time>2011-07-15T05:33:15Z</time>
  <speed>3.920000</speed>
</trkpt>
<trkpt lat="32.735027313" lon="35.036479950">
  <ele>494.197754</ele>
  <time>2011-07-15T05:33:16Z</time>
  <speed>4.180000</speed>
</trkpt>
<trkpt lat="32.734996796" lon="35.036518097">
  <ele>493.783691</ele>
  <time>2011-07-15T05:33:17Z</time>
  <speed>4.790000</speed>
</trkpt>
<trkpt lat="32.734958649" lon="35.036560059">
  <ele>493.650879</ele>
  <time>2011-07-15T05:33:18Z</time>
  <speed>5.430000</speed>
</trkpt>
<trkpt lat="32.734924316" lon="35.036590576">
  <ele>493.932129</ele>
  <time>2011-07-15T05:33:19Z</time>
  <speed>4.930000</speed>
</trkpt>
<trkpt lat="32.734893799" lon="35.036624908">
  <ele>493.689941</ele>
  <time>2011-07-15T05:33:20Z</time>
  <speed>3.750000</speed>
</trkpt>
<trkpt lat="32.734867096" lon="35.036659241">
  <ele>494.166504</ele>
  <time>2011-07-15T05:33:21Z</time>
  <speed>3.680000</speed>
</trkpt>
<trkpt lat="32.734859467" lon="35.036697388">
  <ele>495.213379</ele>
  <time>2011-07-15T05:33:22Z</time>
  <speed>2.730000</speed>
</trkpt>
<trkpt lat="32.734844208" lon="35.036750793">
  <ele>495.900879</ele>
  <time>2011-07-15T05:33:24Z</time>
  <speed>2.590000</speed>
</trkpt>
<trkpt lat="32.734825134" lon="35.036781311">
  <ele>495.861816</ele>
  <time>2011-07-15T05:33:25Z</time>
  <speed>2.930000</speed>
</trkpt>
<trkpt lat="32.734790802" lon="35.036827087">
  <ele>495.479004</ele>
  <time>2011-07-15T05:33:27Z</time>
  <speed>2.640000</speed>
</trkpt>
<trkpt lat="32.734771729" lon="35.036853790">
  <ele>495.494629</ele>
  <time>2011-07-15T05:33:28Z</time>
  <speed>3.070000</speed>
</trkpt>
<trkpt lat="32.734752655" lon="35.036876678">
  <ele>495.705566</ele>
  <time>2011-07-15T05:33:29Z</time>
  <speed>3.100000</speed>
</trkpt>
<trkpt lat="32.734737396" lon="35.036907196">
  <ele>496.111816</ele>
  <time>2011-07-15T05:33:30Z</time>
  <speed>3.220000</speed>
</trkpt>
<trkpt lat="32.734722137" lon="35.036941528">
  <ele>496.338379</ele>
  <time>2011-07-15T05:33:31Z</time>
  <speed>3.560000</speed>
</trkpt>
<trkpt lat="32.734706879" lon="35.036983490">
  <ele>497.799316</ele>
  <time>2011-07-15T05:33:32Z</time>
  <speed>3.260000</speed>
</trkpt>
<trkpt lat="32.734691620" lon="35.037044525">
  <ele>498.955566</ele>
  <time>2011-07-15T05:33:34Z</time>
  <speed>3.130000</speed>
</trkpt>
<trkpt lat="32.734687805" lon="35.037082672">
  <ele>499.080566</ele>
  <time>2011-07-15T05:33:35Z</time>
  <speed>3.300000</speed>
</trkpt>
<trkpt lat="32.734687805" lon="35.037117004">
  <ele>498.494629</ele>
  <time>2011-07-15T05:33:36Z</time>
  <speed>2.990000</speed>
</trkpt>
<trkpt lat="32.734676361" lon="35.037166595">
  <ele>497.721191</ele>
  <time>2011-07-15T05:33:38Z</time>
  <speed>2.510000</speed>
</trkpt>
<trkpt lat="32.734668732" lon="35.037216187">
  <ele>499.150879</ele>
  <time>2011-07-15T05:33:40Z</time>
  <speed>2.130000</speed>
</trkpt>
<trkpt lat="32.734676361" lon="35.037269592">
  <ele>499.979004</ele>
  <time>2011-07-15T05:33:42Z</time>
  <speed>2.380000</speed>
</trkpt>
<trkpt lat="32.734680176" lon="35.037319183">
  <ele>501.268066</ele>
  <time>2011-07-15T05:33:44Z</time>
  <speed>2.420000</speed>
</trkpt>
<trkpt lat="32.734691620" lon="35.037376404">
  <ele>502.252441</ele>
  <time>2011-07-15T05:33:46Z</time>
  <speed>2.520000</speed>
</trkpt>
<trkpt lat="32.734699249" lon="35.037418365">
  <ele>501.908691</ele>
  <time>2011-07-15T05:33:48Z</time>
  <speed>2.200000</speed>
</trkpt>
<trkpt lat="32.734729767" lon="35.037471771">
  <ele>501.439941</ele>
  <time>2011-07-15T05:33:50Z</time>
  <speed>2.690000</speed>
</trkpt>
<trkpt lat="32.734764099" lon="35.037517548">
  <ele>502.205566</ele>
  <time>2011-07-15T05:33:52Z</time>
  <speed>3.300000</speed>
</trkpt>
<trkpt lat="32.734790802" lon="35.037544250">
  <ele>501.947754</ele>
  <time>2011-07-15T05:33:53Z</time>
  <speed>3.230000</speed>
</trkpt>
<trkpt lat="32.734813690" lon="35.037567139">
  <ele>502.299316</ele>
  <time>2011-07-15T05:33:54Z</time>
  <speed>3.380000</speed>
</trkpt>
<trkpt lat="32.734825134" lon="35.037601471">
  <ele>502.760254</ele>
  <time>2011-07-15T05:33:55Z</time>
  <speed>3.330000</speed>
</trkpt>
<trkpt lat="32.734825134" lon="35.037635803">
  <ele>502.588379</ele>
  <time>2011-07-15T05:33:56Z</time>
  <speed>3.220000</speed>
</trkpt>
<trkpt lat="32.734828949" lon="35.037670135">
  <ele>502.674316</ele>
  <time>2011-07-15T05:33:57Z</time>
  <speed>3.190000</speed>
</trkpt>
<trkpt lat="32.734825134" lon="35.037704468">
  <ele>503.221191</ele>
  <time>2011-07-15T05:33:58Z</time>
  <speed>2.950000</speed>
</trkpt>
<trkpt lat="32.734813690" lon="35.037765503">
  <ele>504.299316</ele>
  <time>2011-07-15T05:34:00Z</time>
  <speed>3.030000</speed>
</trkpt>
<trkpt lat="32.734798431" lon="35.037822723">
  <ele>504.729004</ele>
  <time>2011-07-15T05:34:02Z</time>
  <speed>3.120000</speed>
</trkpt>
<trkpt lat="32.734790802" lon="35.037860870">
  <ele>504.580566</ele>
  <time>2011-07-15T05:34:03Z</time>
  <speed>3.230000</speed>
</trkpt>
<trkpt lat="32.734786987" lon="35.037921906">
  <ele>504.268066</ele>
  <time>2011-07-15T05:34:05Z</time>
  <speed>2.520000</speed>
</trkpt>
<trkpt lat="32.734790802" lon="35.037979126">
  <ele>504.979004</ele>
  <time>2011-07-15T05:34:07Z</time>
  <speed>2.680000</speed>
</trkpt>
<trkpt lat="32.734775543" lon="35.038036346">
  <ele>504.244629</ele>
  <time>2011-07-15T05:34:09Z</time>
  <speed>2.650000</speed>
</trkpt>
<trkpt lat="32.734756470" lon="35.038082123">
  <ele>504.049316</ele>
  <time>2011-07-15T05:34:11Z</time>
  <speed>2.440000</speed>
</trkpt>
<trkpt lat="32.734737396" lon="35.038131714">
  <ele>504.072754</ele>
  <time>2011-07-15T05:34:13Z</time>
  <speed>2.500000</speed>
</trkpt>
<trkpt lat="32.734710693" lon="35.038185120">
  <ele>503.799316</ele>
  <time>2011-07-15T05:34:15Z</time>
  <speed>2.640000</speed>
</trkpt>
<trkpt lat="32.734687805" lon="35.038230896">
  <ele>503.432129</ele>
  <time>2011-07-15T05:34:17Z</time>
  <speed>2.500000</speed>
</trkpt>
<trkpt lat="32.734657288" lon="35.038276672">
  <ele>502.932129</ele>
  <time>2011-07-15T05:34:19Z</time>
  <speed>2.620000</speed>
</trkpt>
<trkpt lat="32.734626770" lon="35.038322449">
  <ele>501.799316</ele>
  <time>2011-07-15T05:34:21Z</time>
  <speed>2.520000</speed>
</trkpt>
<trkpt lat="32.734592438" lon="35.038368225">
  <ele>501.385254</ele>
  <time>2011-07-15T05:34:23Z</time>
  <speed>2.730000</speed>
</trkpt>
<trkpt lat="32.734546661" lon="35.038387299">
  <ele>500.666504</ele>
  <time>2011-07-15T05:34:25Z</time>
  <speed>2.720000</speed>
</trkpt>
<trkpt lat="32.734497070" lon="35.038387299">
  <ele>501.596191</ele>
  <time>2011-07-15T05:34:27Z</time>
  <speed>2.760000</speed>
</trkpt>
<trkpt lat="32.734455109" lon="35.038364410">
  <ele>501.611816</ele>
  <time>2011-07-15T05:34:29Z</time>
  <speed>2.430000</speed>
</trkpt>
<trkpt lat="32.734428406" lon="35.038356781">
  <ele>501.182129</ele>
  <time>2011-07-15T05:34:30Z</time>
  <speed>2.210000</speed>
</trkpt>
<trkpt lat="32.734382629" lon="35.038337708">
  <ele>502.025879</ele>
  <time>2011-07-15T05:34:32Z</time>
  <speed>2.180000</speed>
</trkpt>
<trkpt lat="32.734348297" lon="35.038322449">
  <ele>504.713379</ele>
  <time>2011-07-15T05:34:34Z</time>
  <speed>1.870000</speed>
</trkpt>
<trkpt lat="32.734321594" lon="35.038299561">
  <ele>504.268066</ele>
  <time>2011-07-15T05:34:36Z</time>
  <speed>2.160000</speed>
</trkpt>
<trkpt lat="32.734287262" lon="35.038261414">
  <ele>503.643066</ele>
  <time>2011-07-15T05:34:38Z</time>
  <speed>2.710000</speed>
</trkpt>
<trkpt lat="32.734256744" lon="35.038211823">
  <ele>502.619629</ele>
  <time>2011-07-15T05:34:40Z</time>
  <speed>2.810000</speed>
</trkpt>
<trkpt lat="32.734222412" lon="35.038166046">
  <ele>501.596191</ele>
  <time>2011-07-15T05:34:42Z</time>
  <speed>3.340000</speed>
</trkpt>
<trkpt lat="32.734203339" lon="35.038139343">
  <ele>501.525879</ele>
  <time>2011-07-15T05:34:43Z</time>
  <speed>3.670000</speed>
</trkpt>
<trkpt lat="32.734180450" lon="35.038108826">
  <ele>501.346191</ele>
  <time>2011-07-15T05:34:44Z</time>
  <speed>3.820000</speed>
</trkpt>
<trkpt lat="32.734157562" lon="35.038078308">
  <ele>500.893066</ele>
  <time>2011-07-15T05:34:45Z</time>
  <speed>4.200000</speed>
</trkpt>
<trkpt lat="32.734130859" lon="35.038043976">
  <ele>500.518066</ele>
  <time>2011-07-15T05:34:46Z</time>
  <speed>4.160000</speed>
</trkpt>
<trkpt lat="32.734096527" lon="35.038009644">
  <ele>500.682129</ele>
  <time>2011-07-15T05:34:47Z</time>
  <speed>4.280000</speed>
</trkpt>
<trkpt lat="32.734073639" lon="35.037975311">
  <ele>500.104004</ele>
  <time>2011-07-15T05:34:48Z</time>
  <speed>4.460000</speed>
</trkpt>
<trkpt lat="32.734046936" lon="35.037940979">
  <ele>499.830566</ele>
  <time>2011-07-15T05:34:49Z</time>
  <speed>4.600000</speed>
</trkpt>
<trkpt lat="32.734016418" lon="35.037899017">
  <ele>500.104004</ele>
  <time>2011-07-15T05:34:50Z</time>
  <speed>4.740000</speed>
</trkpt>
<trkpt lat="32.733989716" lon="35.037860870">
  <ele>499.471191</ele>
  <time>2011-07-15T05:34:51Z</time>
  <speed>4.020000</speed>
</trkpt>
<trkpt lat="32.733966827" lon="35.037834167">
  <ele>499.080566</ele>
  <time>2011-07-15T05:34:52Z</time>
  <speed>3.240000</speed>
</trkpt>
<trkpt lat="32.733932495" lon="35.037784576">
  <ele>499.838379</ele>
  <time>2011-07-15T05:34:54Z</time>
  <speed>3.050000</speed>
</trkpt>
<trkpt lat="32.733917236" lon="35.037757874">
  <ele>500.205566</ele>
  <time>2011-07-15T05:34:55Z</time>
  <speed>3.060000</speed>
</trkpt>
<trkpt lat="32.733890533" lon="35.037719727">
  <ele>499.783691</ele>
  <time>2011-07-15T05:34:57Z</time>
  <speed>1.900000</speed>
</trkpt>
<trkpt lat="32.733863831" lon="35.037696838">
  <ele>499.463379</ele>
  <time>2011-07-15T05:34:59Z</time>
  <speed>1.630000</speed>
</trkpt>
<trkpt lat="32.733833313" lon="35.037712097">
  <ele>499.330566</ele>
  <time>2011-07-15T05:35:01Z</time>
  <speed>1.930000</speed>
</trkpt>
<trkpt lat="32.733844757" lon="35.037769318">
  <ele>499.252441</ele>
  <time>2011-07-15T05:35:03Z</time>
  <speed>2.450000</speed>
</trkpt>
<trkpt lat="32.733856201" lon="35.037796021">
  <ele>500.564941</ele>
  <time>2011-07-15T05:35:04Z</time>
  <speed>2.750000</speed>
</trkpt>
<trkpt lat="32.733867645" lon="35.037826538">
  <ele>501.072754</ele>
  <time>2011-07-15T05:35:05Z</time>
  <speed>2.920000</speed>
</trkpt>
<trkpt lat="32.733879089" lon="35.037860870">
  <ele>501.674316</ele>
  <time>2011-07-15T05:35:06Z</time>
  <speed>2.570000</speed>
</trkpt>
<trkpt lat="32.733894348" lon="35.037914276">
  <ele>501.736816</ele>
  <time>2011-07-15T05:35:08Z</time>
  <speed>2.610000</speed>
</trkpt>
<trkpt lat="32.733898163" lon="35.037967682">
  <ele>502.236816</ele>
  <time>2011-07-15T05:35:10Z</time>
  <speed>2.200000</speed>
</trkpt>
<trkpt lat="32.733886719" lon="35.038013458">
  <ele>502.002441</ele>
  <time>2011-07-15T05:35:12Z</time>
  <speed>2.400000</speed>
</trkpt>
<trkpt lat="32.733879089" lon="35.038074493">
  <ele>503.002441</ele>
  <time>2011-07-15T05:35:14Z</time>
  <speed>2.630000</speed>
</trkpt>
<trkpt lat="32.733879089" lon="35.038105011">
  <ele>503.283691</ele>
  <time>2011-07-15T05:35:15Z</time>
  <speed>2.590000</speed>
</trkpt>
<trkpt lat="32.733875275" lon="35.038173676">
  <ele>504.229004</ele>
  <time>2011-07-15T05:35:17Z</time>
  <speed>2.500000</speed>
</trkpt>
<trkpt lat="32.733875275" lon="35.038219452">
  <ele>504.791504</ele>
  <time>2011-07-15T05:35:19Z</time>
  <speed>2.280000</speed>
</trkpt>
<trkpt lat="32.733894348" lon="35.038253784">
  <ele>505.197754</ele>
  <time>2011-07-15T05:35:21Z</time>
  <speed>2.180000</speed>
</trkpt>
<trkpt lat="32.733909607" lon="35.038299561">
  <ele>506.064941</ele>
  <time>2011-07-15T05:35:23Z</time>
  <speed>2.260000</speed>
</trkpt>
<trkpt lat="32.733947754" lon="35.038341522">
  <ele>506.314941</ele>
  <time>2011-07-15T05:35:25Z</time>
  <speed>2.450000</speed>
</trkpt>
<trkpt lat="32.733982086" lon="35.038383484">
  <ele>507.096191</ele>
  <time>2011-07-15T05:35:27Z</time>
  <speed>2.430000</speed>
</trkpt>
<trkpt lat="32.734024048" lon="35.038417816">
  <ele>507.432129</ele>
  <time>2011-07-15T05:35:29Z</time>
  <speed>2.260000</speed>
</trkpt>
<trkpt lat="32.734050751" lon="35.038459778">
  <ele>508.158691</ele>
  <time>2011-07-15T05:35:31Z</time>
  <speed>2.550000</speed>
</trkpt>
<trkpt lat="32.734066010" lon="35.038513184">
  <ele>508.900879</ele>
  <time>2011-07-15T05:35:33Z</time>
  <speed>2.600000</speed>
</trkpt>
<trkpt lat="32.734069824" lon="35.038566589">
  <ele>508.994629</ele>
  <time>2011-07-15T05:35:35Z</time>
  <speed>2.350000</speed>
</trkpt>
<trkpt lat="32.734054565" lon="35.038604736">
  <ele>509.713379</ele>
  <time>2011-07-15T05:35:37Z</time>
  <speed>2.230000</speed>
</trkpt>
<trkpt lat="32.734027863" lon="35.038639069">
  <ele>509.322754</ele>
  <time>2011-07-15T05:35:39Z</time>
  <speed>2.110000</speed>
</trkpt>
<trkpt lat="32.733993530" lon="35.038658142">
  <ele>508.697754</ele>
  <time>2011-07-15T05:35:41Z</time>
  <speed>2.360000</speed>
</trkpt>
<trkpt lat="32.733959198" lon="35.038677216">
  <ele>508.619629</ele>
  <time>2011-07-15T05:35:43Z</time>
  <speed>2.200000</speed>
</trkpt>
<trkpt lat="32.733932495" lon="35.038688660">
  <ele>509.189941</ele>
  <time>2011-07-15T05:35:45Z</time>
  <speed>1.260000</speed>
</trkpt>
<trkpt lat="32.733905792" lon="35.038761139">
  <ele>509.682129</ele>
  <time>2011-07-15T05:35:48Z</time>
  <speed>4.250000</speed>
</trkpt>
<trkpt lat="32.733898163" lon="35.038803101">
  <ele>510.244629</ele>
  <time>2011-07-15T05:35:49Z</time>
  <speed>3.680000</speed>
</trkpt>
<trkpt lat="32.733890533" lon="35.038856506">
  <ele>510.619629</ele>
  <time>2011-07-15T05:35:50Z</time>
  <speed>4.260000</speed>
</trkpt>
<trkpt lat="32.733882904" lon="35.038906097">
  <ele>509.635254</ele>
  <time>2011-07-15T05:35:51Z</time>
  <speed>4.760000</speed>
</trkpt>
<trkpt lat="32.733867645" lon="35.038951874">
  <ele>509.338379</ele>
  <time>2011-07-15T05:35:52Z</time>
  <speed>4.530000</speed>
</trkpt>
<trkpt lat="32.733856201" lon="35.039016724">
  <ele>509.979004</ele>
  <time>2011-07-15T05:35:53Z</time>
  <speed>5.010000</speed>
</trkpt>
<trkpt lat="32.733856201" lon="35.039062500">
  <ele>509.705566</ele>
  <time>2011-07-15T05:35:54Z</time>
  <speed>4.290000</speed>
</trkpt>
<trkpt lat="32.733856201" lon="35.039119720">
  <ele>509.736816</ele>
  <time>2011-07-15T05:35:55Z</time>
  <speed>4.730000</speed>
</trkpt>
<trkpt lat="32.733856201" lon="35.039176941">
  <ele>509.377441</ele>
  <time>2011-07-15T05:35:56Z</time>
  <speed>5.200000</speed>
</trkpt>
<trkpt lat="32.733856201" lon="35.039237976">
  <ele>509.002441</ele>
  <time>2011-07-15T05:35:57Z</time>
  <speed>5.110000</speed>
</trkpt>
<trkpt lat="32.733848572" lon="35.039302826">
  <ele>508.197754</ele>
  <time>2011-07-15T05:35:58Z</time>
  <speed>5.170000</speed>
</trkpt>
<trkpt lat="32.733833313" lon="35.039367676">
  <ele>507.939941</ele>
  <time>2011-07-15T05:35:59Z</time>
  <speed>5.020000</speed>
</trkpt>
<trkpt lat="32.733821869" lon="35.039428711">
  <ele>508.299316</ele>
  <time>2011-07-15T05:36:00Z</time>
  <speed>5.920000</speed>
</trkpt>
<trkpt lat="32.733818054" lon="35.039493561">
  <ele>507.314941</ele>
  <time>2011-07-15T05:36:01Z</time>
  <speed>5.420000</speed>
</trkpt>
<trkpt lat="32.733821869" lon="35.039554596">
  <ele>507.104004</ele>
  <time>2011-07-15T05:36:02Z</time>
  <speed>5.680000</speed>
</trkpt>
<trkpt lat="32.733829498" lon="35.039623260">
  <ele>506.619629</ele>
  <time>2011-07-15T05:36:03Z</time>
  <speed>5.470000</speed>
</trkpt>
<trkpt lat="32.733840942" lon="35.039688110">
  <ele>506.463379</ele>
  <time>2011-07-15T05:36:04Z</time>
  <speed>5.780000</speed>
</trkpt>
<trkpt lat="32.733844757" lon="35.039749146">
  <ele>506.127441</ele>
  <time>2011-07-15T05:36:05Z</time>
  <speed>5.570000</speed>
</trkpt>
<trkpt lat="32.733856201" lon="35.039810181">
  <ele>505.471191</ele>
  <time>2011-07-15T05:36:06Z</time>
  <speed>5.580000</speed>
</trkpt>
<trkpt lat="32.733863831" lon="35.039878845">
  <ele>505.869629</ele>
  <time>2011-07-15T05:36:07Z</time>
  <speed>5.690000</speed>
</trkpt>
<trkpt lat="32.733875275" lon="35.039932251">
  <ele>504.744629</ele>
  <time>2011-07-15T05:36:08Z</time>
  <speed>5.050000</speed>
</trkpt>
<trkpt lat="32.733882904" lon="35.039978027">
  <ele>505.096191</ele>
  <time>2011-07-15T05:36:09Z</time>
  <speed>4.550000</speed>
</trkpt>
<trkpt lat="32.733894348" lon="35.040023804">
  <ele>504.650879</ele>
  <time>2011-07-15T05:36:10Z</time>
  <speed>4.020000</speed>
</trkpt>
<trkpt lat="32.733901978" lon="35.040065765">
  <ele>504.877441</ele>
  <time>2011-07-15T05:36:11Z</time>
  <speed>3.640000</speed>
</trkpt>
<trkpt lat="32.733905792" lon="35.040100098">
  <ele>504.697754</ele>
  <time>2011-07-15T05:36:12Z</time>
  <speed>3.560000</speed>
</trkpt>
<trkpt lat="32.733909607" lon="35.040134430">
  <ele>505.150879</ele>
  <time>2011-07-15T05:36:13Z</time>
  <speed>2.960000</speed>
</trkpt>
<trkpt lat="32.733909607" lon="35.040164948">
  <ele>505.564941</ele>
  <time>2011-07-15T05:36:14Z</time>
  <speed>3.070000</speed>
</trkpt>
<trkpt lat="32.733905792" lon="35.040225983">
  <ele>506.072754</ele>
  <time>2011-07-15T05:36:16Z</time>
  <speed>2.870000</speed>
</trkpt>
<trkpt lat="32.733909607" lon="35.040264130">
  <ele>506.244629</ele>
  <time>2011-07-15T05:36:17Z</time>
  <speed>2.820000</speed>
</trkpt>
<trkpt lat="32.733913422" lon="35.040298462">
  <ele>506.596191</ele>
  <time>2011-07-15T05:36:18Z</time>
  <speed>2.630000</speed>
</trkpt>
<trkpt lat="32.733940125" lon="35.040359497">
  <ele>507.064941</ele>
  <time>2011-07-15T05:36:20Z</time>
  <speed>3.210000</speed>
</trkpt>
<trkpt lat="32.733966827" lon="35.040382385">
  <ele>506.643066</ele>
  <time>2011-07-15T05:36:21Z</time>
  <speed>3.430000</speed>
</trkpt>
<trkpt lat="32.733993530" lon="35.040416718">
  <ele>506.229004</ele>
  <time>2011-07-15T05:36:22Z</time>
  <speed>3.450000</speed>
</trkpt>
<trkpt lat="32.734024048" lon="35.040431976">
  <ele>505.947754</ele>
  <time>2011-07-15T05:36:23Z</time>
  <speed>3.420000</speed>
</trkpt>
<trkpt lat="32.734050751" lon="35.040443420">
  <ele>505.658691</ele>
  <time>2011-07-15T05:36:24Z</time>
  <speed>2.820000</speed>
</trkpt>
<trkpt lat="32.734077454" lon="35.040443420">
  <ele>505.057129</ele>
  <time>2011-07-15T05:36:25Z</time>
  <speed>2.930000</speed>
</trkpt>
<trkpt lat="32.734115601" lon="35.040439606">
  <ele>503.924316</ele>
  <time>2011-07-15T05:36:27Z</time>
  <speed>2.030000</speed>
</trkpt>
<trkpt lat="32.734146118" lon="35.040431976">
  <ele>503.408691</ele>
  <time>2011-07-15T05:36:29Z</time>
  <speed>0.730000</speed>
</trkpt>
<trkpt lat="32.734149933" lon="35.040424347">
  <ele>506.260254</ele>
  <time>2011-07-15T05:36:51Z</time>
</trkpt>
<trkpt lat="32.734172821" lon="35.040454865">
  <ele>504.791504</ele>
  <time>2011-07-15T05:45:01Z</time>
  <speed>2.040000</speed>
</trkpt>
<trkpt lat="32.734195709" lon="35.040515900">
  <ele>504.846191</ele>
  <time>2011-07-15T05:45:03Z</time>
  <speed>3.250000</speed>
</trkpt>
<trkpt lat="32.734218597" lon="35.040550232">
  <ele>504.346191</ele>
  <time>2011-07-15T05:45:04Z</time>
  <speed>4.100000</speed>
</trkpt>
<trkpt lat="32.734245300" lon="35.040592194">
  <ele>504.033691</ele>
  <time>2011-07-15T05:45:05Z</time>
  <speed>4.360000</speed>
</trkpt>
<trkpt lat="32.734268188" lon="35.040634155">
  <ele>503.111816</ele>
  <time>2011-07-15T05:45:06Z</time>
  <speed>4.780000</speed>
</trkpt>
<trkpt lat="32.734291077" lon="35.040679932">
  <ele>502.338379</ele>
  <time>2011-07-15T05:45:07Z</time>
  <speed>4.540000</speed>
</trkpt>
<trkpt lat="32.734325409" lon="35.040718079">
  <ele>501.307129</ele>
  <time>2011-07-15T05:45:08Z</time>
  <speed>4.370000</speed>
</trkpt>
<trkpt lat="32.734355927" lon="35.040748596">
  <ele>500.994629</ele>
  <time>2011-07-15T05:45:09Z</time>
  <speed>3.980000</speed>
</trkpt>
<trkpt lat="32.734378815" lon="35.040779114">
  <ele>500.244629</ele>
  <time>2011-07-15T05:45:10Z</time>
  <speed>3.870000</speed>
</trkpt>
<trkpt lat="32.734397888" lon="35.040805817">
  <ele>499.564941</ele>
  <time>2011-07-15T05:45:11Z</time>
  <speed>3.230000</speed>
</trkpt>
<trkpt lat="32.734409332" lon="35.040847778">
  <ele>498.791504</ele>
  <time>2011-07-15T05:45:13Z</time>
  <speed>1.740000</speed>
</trkpt>
<trkpt lat="32.734409332" lon="35.040889740">
  <ele>498.260254</ele>
  <time>2011-07-15T05:45:15Z</time>
  <speed>2.480000</speed>
</trkpt>
<trkpt lat="32.734386444" lon="35.040954590">
  <ele>497.557129</ele>
  <time>2011-07-15T05:45:17Z</time>
  <speed>3.610000</speed>
</trkpt>
<trkpt lat="32.734371185" lon="35.040985107">
  <ele>496.908691</ele>
  <time>2011-07-15T05:45:18Z</time>
  <speed>3.020000</speed>
</trkpt>
<trkpt lat="32.734355927" lon="35.041011810">
  <ele>495.846191</ele>
  <time>2011-07-15T05:45:19Z</time>
  <speed>2.480000</speed>
</trkpt>
<trkpt lat="32.734348297" lon="35.041061401">
  <ele>493.838379</ele>
  <time>2011-07-15T05:45:21Z</time>
  <speed>2.560000</speed>
</trkpt>
<trkpt lat="32.734325409" lon="35.041107178">
  <ele>492.283691</ele>
  <time>2011-07-15T05:45:23Z</time>
  <speed>2.610000</speed>
</trkpt>
<trkpt lat="32.734298706" lon="35.041156769">
  <ele>490.791504</ele>
  <time>2011-07-15T05:45:25Z</time>
  <speed>2.400000</speed>
</trkpt>
<trkpt lat="32.734275818" lon="35.041179657">
  <ele>490.174316</ele>
  <time>2011-07-15T05:45:26Z</time>
  <speed>3.150000</speed>
</trkpt>
<trkpt lat="32.734245300" lon="35.041198730">
  <ele>489.666504</ele>
  <time>2011-07-15T05:45:27Z</time>
  <speed>3.730000</speed>
</trkpt>
<trkpt lat="32.734207153" lon="35.041221619">
  <ele>488.682129</ele>
  <time>2011-07-15T05:45:28Z</time>
  <speed>4.110000</speed>
</trkpt>
<trkpt lat="32.734165192" lon="35.041244507">
  <ele>487.830566</ele>
  <time>2011-07-15T05:45:29Z</time>
  <speed>5.090000</speed>
</trkpt>
<trkpt lat="32.734115601" lon="35.041271210">
  <ele>485.869629</ele>
  <time>2011-07-15T05:45:30Z</time>
  <speed>5.050000</speed>
</trkpt>
<trkpt lat="32.734069824" lon="35.041297913">
  <ele>484.979004</ele>
  <time>2011-07-15T05:45:31Z</time>
  <speed>5.460000</speed>
</trkpt>
<trkpt lat="32.734024048" lon="35.041316986">
  <ele>483.994629</ele>
  <time>2011-07-15T05:45:32Z</time>
  <speed>5.700000</speed>
</trkpt>
<trkpt lat="32.733970642" lon="35.041347504">
  <ele>482.682129</ele>
  <time>2011-07-15T05:45:33Z</time>
  <speed>5.740000</speed>
</trkpt>
<trkpt lat="32.733924866" lon="35.041366577">
  <ele>481.744629</ele>
  <time>2011-07-15T05:45:34Z</time>
  <speed>3.940000</speed>
</trkpt>
<trkpt lat="32.733890533" lon="35.041362762">
  <ele>479.736816</ele>
  <time>2011-07-15T05:45:35Z</time>
  <speed>3.450000</speed>
</trkpt>
<trkpt lat="32.733863831" lon="35.041370392">
  <ele>478.479004</ele>
  <time>2011-07-15T05:45:36Z</time>
  <speed>2.580000</speed>
</trkpt>
<trkpt lat="32.733844757" lon="35.041393280">
  <ele>477.486816</ele>
  <time>2011-07-15T05:45:37Z</time>
  <speed>2.370000</speed>
</trkpt>
<trkpt lat="32.733825684" lon="35.041419983">
  <ele>476.760254</ele>
  <time>2011-07-15T05:45:38Z</time>
  <speed>3.040000</speed>
</trkpt>
<trkpt lat="32.733798981" lon="35.041442871">
  <ele>475.854004</ele>
  <time>2011-07-15T05:45:39Z</time>
  <speed>4.370000</speed>
</trkpt>
<trkpt lat="32.733760834" lon="35.041458130">
  <ele>474.643066</ele>
  <time>2011-07-15T05:45:40Z</time>
  <speed>4.740000</speed>
</trkpt>
<trkpt lat="32.733711243" lon="35.041473389">
  <ele>474.502441</ele>
  <time>2011-07-15T05:45:41Z</time>
  <speed>5.310000</speed>
</trkpt>
<trkpt lat="32.733657837" lon="35.041481018">
  <ele>473.932129</ele>
  <time>2011-07-15T05:45:42Z</time>
  <speed>5.170000</speed>
</trkpt>
<trkpt lat="32.733608246" lon="35.041492462">
  <ele>473.611816</ele>
  <time>2011-07-15T05:45:43Z</time>
  <speed>4.830000</speed>
</trkpt>
<trkpt lat="32.733558655" lon="35.041500092">
  <ele>471.916504</ele>
  <time>2011-07-15T05:45:44Z</time>
  <speed>4.590000</speed>
</trkpt>
<trkpt lat="32.733512878" lon="35.041519165">
  <ele>471.846191</ele>
  <time>2011-07-15T05:45:45Z</time>
  <speed>4.420000</speed>
</trkpt>
<trkpt lat="32.733474731" lon="35.041545868">
  <ele>470.604004</ele>
  <time>2011-07-15T05:45:46Z</time>
  <speed>5.040000</speed>
</trkpt>
<trkpt lat="32.733436584" lon="35.041568756">
  <ele>469.580566</ele>
  <time>2011-07-15T05:45:47Z</time>
  <speed>4.890000</speed>
</trkpt>
<trkpt lat="32.733394623" lon="35.041591644">
  <ele>469.541504</ele>
  <time>2011-07-15T05:45:48Z</time>
  <speed>4.440000</speed>
</trkpt>
<trkpt lat="32.733356476" lon="35.041599274">
  <ele>468.604004</ele>
  <time>2011-07-15T05:45:49Z</time>
  <speed>4.300000</speed>
</trkpt>
<trkpt lat="32.733310699" lon="35.041606903">
  <ele>467.838379</ele>
  <time>2011-07-15T05:45:50Z</time>
  <speed>5.630000</speed>
</trkpt>
<trkpt lat="32.733261108" lon="35.041599274">
  <ele>466.557129</ele>
  <time>2011-07-15T05:45:51Z</time>
  <speed>5.030000</speed>
</trkpt>
<trkpt lat="32.733219147" lon="35.041595459">
  <ele>465.533691</ele>
  <time>2011-07-15T05:45:52Z</time>
  <speed>4.810000</speed>
</trkpt>
<trkpt lat="32.733173370" lon="35.041587830">
  <ele>465.150879</ele>
  <time>2011-07-15T05:45:53Z</time>
  <speed>4.910000</speed>
</trkpt>
<trkpt lat="32.733127594" lon="35.041568756">
  <ele>464.861816</ele>
  <time>2011-07-15T05:45:54Z</time>
  <speed>5.210000</speed>
</trkpt>
<trkpt lat="32.733078003" lon="35.041549683">
  <ele>464.572754</ele>
  <time>2011-07-15T05:45:55Z</time>
  <speed>5.130000</speed>
</trkpt>
<trkpt lat="32.733043671" lon="35.041538239">
  <ele>463.619629</ele>
  <time>2011-07-15T05:45:56Z</time>
  <speed>4.360000</speed>
</trkpt>
<trkpt lat="32.733005524" lon="35.041530609">
  <ele>462.768066</ele>
  <time>2011-07-15T05:45:57Z</time>
  <speed>4.140000</speed>
</trkpt>
<trkpt lat="32.732971191" lon="35.041538239">
  <ele>462.119629</ele>
  <time>2011-07-15T05:45:58Z</time>
  <speed>3.510000</speed>
</trkpt>
<trkpt lat="32.732944489" lon="35.041549683">
  <ele>462.197754</ele>
  <time>2011-07-15T05:45:59Z</time>
  <speed>3.090000</speed>
</trkpt>
<trkpt lat="32.732883453" lon="35.041530609">
  <ele>461.510254</ele>
  <time>2011-07-15T05:46:01Z</time>
  <speed>3.740000</speed>
</trkpt>
<trkpt lat="32.732860565" lon="35.041515350">
  <ele>460.283691</ele>
  <time>2011-07-15T05:46:02Z</time>
  <speed>4.110000</speed>
</trkpt>
<trkpt lat="32.732826233" lon="35.041488647">
  <ele>459.393066</ele>
  <time>2011-07-15T05:46:03Z</time>
  <speed>4.980000</speed>
</trkpt>
<trkpt lat="32.732788086" lon="35.041465759">
  <ele>458.846191</ele>
  <time>2011-07-15T05:46:04Z</time>
  <speed>5.090000</speed>
</trkpt>
<trkpt lat="32.732738495" lon="35.041450500">
  <ele>458.674316</ele>
  <time>2011-07-15T05:46:05Z</time>
  <speed>4.950000</speed>
</trkpt>
<trkpt lat="32.732692719" lon="35.041446686">
  <ele>457.900879</ele>
  <time>2011-07-15T05:46:06Z</time>
  <speed>4.310000</speed>
</trkpt>
<trkpt lat="32.732643127" lon="35.041442871">
  <ele>457.525879</ele>
  <time>2011-07-15T05:46:07Z</time>
  <speed>4.220000</speed>
</trkpt>
<trkpt lat="32.732604980" lon="35.041442871">
  <ele>456.541504</ele>
  <time>2011-07-15T05:46:08Z</time>
  <speed>4.420000</speed>
</trkpt>
<trkpt lat="32.732566833" lon="35.041450500">
  <ele>455.963379</ele>
  <time>2011-07-15T05:46:09Z</time>
  <speed>4.200000</speed>
</trkpt>
<trkpt lat="32.732532501" lon="35.041446686">
  <ele>455.971191</ele>
  <time>2011-07-15T05:46:10Z</time>
  <speed>4.010000</speed>
</trkpt>
<trkpt lat="32.732498169" lon="35.041446686">
  <ele>455.564941</ele>
  <time>2011-07-15T05:46:11Z</time>
  <speed>3.710000</speed>
</trkpt>
<trkpt lat="32.732463837" lon="35.041458130">
  <ele>455.346191</ele>
  <time>2011-07-15T05:46:12Z</time>
  <speed>3.930000</speed>
</trkpt>
<trkpt lat="32.732433319" lon="35.041454315">
  <ele>453.963379</ele>
  <time>2011-07-15T05:46:13Z</time>
  <speed>3.270000</speed>
</trkpt>
<trkpt lat="32.732406616" lon="35.041442871">
  <ele>452.814941</ele>
  <time>2011-07-15T05:46:14Z</time>
  <speed>2.750000</speed>
</trkpt>
<trkpt lat="32.732379913" lon="35.041427612">
  <ele>452.783691</ele>
  <time>2011-07-15T05:46:15Z</time>
  <speed>3.250000</speed>
</trkpt>
<trkpt lat="32.732341766" lon="35.041412354">
  <ele>451.158691</ele>
  <time>2011-07-15T05:46:17Z</time>
  <speed>2.230000</speed>
</trkpt>
<trkpt lat="32.732292175" lon="35.041419983">
  <ele>450.236816</ele>
  <time>2011-07-15T05:46:19Z</time>
  <speed>3.100000</speed>
</trkpt>
<trkpt lat="32.732257843" lon="35.041419983">
  <ele>449.549316</ele>
  <time>2011-07-15T05:46:20Z</time>
  <speed>4.070000</speed>
</trkpt>
<trkpt lat="32.732223511" lon="35.041412354">
  <ele>448.721191</ele>
  <time>2011-07-15T05:46:21Z</time>
  <speed>4.120000</speed>
</trkpt>
<trkpt lat="32.732192993" lon="35.041385651">
  <ele>448.104004</ele>
  <time>2011-07-15T05:46:22Z</time>
  <speed>4.730000</speed>
</trkpt>
<trkpt lat="32.732170105" lon="35.041351318">
  <ele>447.822754</ele>
  <time>2011-07-15T05:46:23Z</time>
  <speed>4.250000</speed>
</trkpt>
<trkpt lat="32.732139587" lon="35.041320801">
  <ele>447.025879</ele>
  <time>2011-07-15T05:46:24Z</time>
  <speed>4.550000</speed>
</trkpt>
<trkpt lat="32.732093811" lon="35.041297913">
  <ele>446.916504</ele>
  <time>2011-07-15T05:46:25Z</time>
  <speed>5.170000</speed>
</trkpt>
<trkpt lat="32.732048035" lon="35.041259766">
  <ele>447.189941</ele>
  <time>2011-07-15T05:46:26Z</time>
  <speed>4.980000</speed>
</trkpt>
<trkpt lat="32.732013702" lon="35.041244507">
  <ele>446.588379</ele>
  <time>2011-07-15T05:46:27Z</time>
  <speed>3.150000</speed>
</trkpt>
<trkpt lat="32.731979370" lon="35.041229248">
  <ele>445.799316</ele>
  <time>2011-07-15T05:46:29Z</time>
  <speed>1.940000</speed>
</trkpt>
<trkpt lat="32.731929779" lon="35.041225433">
  <ele>445.268066</ele>
  <time>2011-07-15T05:46:31Z</time>
  <speed>2.620000</speed>
</trkpt>
<trkpt lat="32.731903076" lon="35.041206360">
  <ele>445.057129</ele>
  <time>2011-07-15T05:46:32Z</time>
  <speed>3.190000</speed>
</trkpt>
<trkpt lat="32.731853485" lon="35.041160583">
  <ele>444.486816</ele>
  <time>2011-07-15T05:46:34Z</time>
  <speed>4.090000</speed>
</trkpt>
<trkpt lat="32.731822968" lon="35.041122437">
  <ele>444.854004</ele>
  <time>2011-07-15T05:46:35Z</time>
  <speed>4.320000</speed>
</trkpt>
<trkpt lat="32.731803894" lon="35.041080475">
  <ele>445.791504</ele>
  <time>2011-07-15T05:46:36Z</time>
  <speed>5.010000</speed>
</trkpt>
<trkpt lat="32.731765747" lon="35.041038513">
  <ele>446.736816</ele>
  <time>2011-07-15T05:46:37Z</time>
  <speed>4.660000</speed>
</trkpt>
<trkpt lat="32.731731415" lon="35.041007996">
  <ele>447.510254</ele>
  <time>2011-07-15T05:46:38Z</time>
  <speed>4.010000</speed>
</trkpt>
<trkpt lat="32.731697083" lon="35.040962219">
  <ele>448.846191</ele>
  <time>2011-07-15T05:46:39Z</time>
  <speed>3.980000</speed>
</trkpt>
<trkpt lat="32.731681824" lon="35.040924072">
  <ele>448.424316</ele>
  <time>2011-07-15T05:46:40Z</time>
  <speed>4.120000</speed>
</trkpt>
<trkpt lat="32.731662750" lon="35.040878296">
  <ele>448.729004</ele>
  <time>2011-07-15T05:46:41Z</time>
  <speed>4.550000</speed>
</trkpt>
<trkpt lat="32.731643677" lon="35.040832520">
  <ele>449.393066</ele>
  <time>2011-07-15T05:46:42Z</time>
  <speed>4.910000</speed>
</trkpt>
<trkpt lat="32.731624603" lon="35.040779114">
  <ele>449.713379</ele>
  <time>2011-07-15T05:46:43Z</time>
  <speed>5.110000</speed>
</trkpt>
<trkpt lat="32.731594086" lon="35.040733337">
  <ele>449.979004</ele>
  <time>2011-07-15T05:46:44Z</time>
  <speed>5.370000</speed>
</trkpt>
<trkpt lat="32.731571198" lon="35.040676117">
  <ele>450.080566</ele>
  <time>2011-07-15T05:46:45Z</time>
  <speed>5.580000</speed>
</trkpt>
<trkpt lat="32.731548309" lon="35.040618896">
  <ele>449.666504</ele>
  <time>2011-07-15T05:46:46Z</time>
  <speed>5.960000</speed>
</trkpt>
<trkpt lat="32.731533051" lon="35.040557861">
  <ele>448.768066</ele>
  <time>2011-07-15T05:46:47Z</time>
  <speed>6.410000</speed>
</trkpt>
<trkpt lat="32.731506348" lon="35.040493011">
  <ele>448.611816</ele>
  <time>2011-07-15T05:46:48Z</time>
  <speed>6.690000</speed>
</trkpt>
<trkpt lat="32.731472015" lon="35.040435791">
  <ele>448.111816</ele>
  <time>2011-07-15T05:46:49Z</time>
  <speed>6.910000</speed>
</trkpt>
<trkpt lat="32.731433868" lon="35.040370941">
  <ele>448.104004</ele>
  <time>2011-07-15T05:46:50Z</time>
  <speed>6.490000</speed>
</trkpt>
<trkpt lat="32.731399536" lon="35.040313721">
  <ele>448.080566</ele>
  <time>2011-07-15T05:46:51Z</time>
  <speed>6.610000</speed>
</trkpt>
<trkpt lat="32.731361389" lon="35.040252686">
  <ele>448.494629</ele>
  <time>2011-07-15T05:46:52Z</time>
  <speed>6.480000</speed>
</trkpt>
<trkpt lat="32.731338501" lon="35.040199280">
  <ele>448.697754</ele>
  <time>2011-07-15T05:46:53Z</time>
  <speed>5.710000</speed>
</trkpt>
<trkpt lat="32.731304169" lon="35.040145874">
  <ele>448.791504</ele>
  <time>2011-07-15T05:46:54Z</time>
  <speed>5.920000</speed>
</trkpt>
<trkpt lat="32.731277466" lon="35.040100098">
  <ele>448.908691</ele>
  <time>2011-07-15T05:46:55Z</time>
  <speed>5.440000</speed>
</trkpt>
<trkpt lat="32.731250763" lon="35.040050507">
  <ele>448.838379</ele>
  <time>2011-07-15T05:46:56Z</time>
  <speed>5.070000</speed>
</trkpt>
<trkpt lat="32.731208801" lon="35.040016174">
  <ele>448.908691</ele>
  <time>2011-07-15T05:46:57Z</time>
  <speed>5.450000</speed>
</trkpt>
<trkpt lat="32.731174469" lon="35.039974213">
  <ele>448.877441</ele>
  <time>2011-07-15T05:46:58Z</time>
  <speed>5.530000</speed>
</trkpt>
<trkpt lat="32.731143951" lon="35.039928436">
  <ele>448.916504</ele>
  <time>2011-07-15T05:46:59Z</time>
  <speed>5.170000</speed>
</trkpt>
<trkpt lat="32.731113434" lon="35.039882660">
  <ele>448.924316</ele>
  <time>2011-07-15T05:47:00Z</time>
  <speed>5.230000</speed>
</trkpt>
<trkpt lat="32.731082916" lon="35.039840698">
  <ele>448.932129</ele>
  <time>2011-07-15T05:47:01Z</time>
  <speed>5.240000</speed>
</trkpt>
<trkpt lat="32.731040955" lon="35.039810181">
  <ele>448.291504</ele>
  <time>2011-07-15T05:47:02Z</time>
  <speed>4.780000</speed>
</trkpt>
<trkpt lat="32.730979919" lon="35.039791107">
  <ele>447.494629</ele>
  <time>2011-07-15T05:47:03Z</time>
  <speed>5.410000</speed>
</trkpt>
<trkpt lat="32.730937958" lon="35.039775848">
  <ele>446.854004</ele>
  <time>2011-07-15T05:47:04Z</time>
  <speed>3.780000</speed>
</trkpt>
<trkpt lat="32.730926514" lon="35.039741516">
  <ele>446.650879</ele>
  <time>2011-07-15T05:47:05Z</time>
  <speed>3.150000</speed>
</trkpt>
<trkpt lat="32.730918884" lon="35.039672852">
  <ele>446.783691</ele>
  <time>2011-07-15T05:47:07Z</time>
  <speed>2.330000</speed>
</trkpt>
<trkpt lat="32.730880737" lon="35.039653778">
  <ele>446.080566</ele>
  <time>2011-07-15T05:47:09Z</time>
  <speed>1.890000</speed>
</trkpt>
<trkpt lat="32.730846405" lon="35.039634705">
  <ele>444.588379</ele>
  <time>2011-07-15T05:47:11Z</time>
  <speed>1.820000</speed>
</trkpt>
<trkpt lat="32.730823517" lon="35.039596558">
  <ele>443.861816</ele>
  <time>2011-07-15T05:47:13Z</time>
  <speed>2.480000</speed>
</trkpt>
<trkpt lat="32.730796814" lon="35.039550781">
  <ele>442.705566</ele>
  <time>2011-07-15T05:47:15Z</time>
  <speed>2.070000</speed>
</trkpt>
<trkpt lat="32.730792999" lon="35.039497375">
  <ele>442.635254</ele>
  <time>2011-07-15T05:47:16Z</time>
  <speed>1.810000</speed>
</trkpt>
<trkpt lat="32.730770111" lon="35.039474487">
  <ele>441.908691</ele>
  <time>2011-07-15T05:47:18Z</time>
  <speed>1.540000</speed>
</trkpt>
<trkpt lat="32.730731964" lon="35.039463043">
  <ele>440.791504</ele>
  <time>2011-07-15T05:47:20Z</time>
  <speed>1.790000</speed>
</trkpt>
<trkpt lat="32.730712891" lon="35.039440155">
  <ele>439.838379</ele>
  <time>2011-07-15T05:47:22Z</time>
  <speed>1.750000</speed>
</trkpt>
<trkpt lat="32.730690002" lon="35.039417267">
  <ele>438.869629</ele>
  <time>2011-07-15T05:47:24Z</time>
  <speed>1.470000</speed>
</trkpt>
<trkpt lat="32.730644226" lon="35.039402008">
  <ele>437.674316</ele>
  <time>2011-07-15T05:47:26Z</time>
  <speed>1.970000</speed>
</trkpt>
<trkpt lat="32.730617523" lon="35.039379120">
  <ele>436.939941</ele>
  <time>2011-07-15T05:47:28Z</time>
  <speed>1.250000</speed>
</trkpt>
<trkpt lat="32.730594635" lon="35.039360046">
  <ele>436.455566</ele>
  <time>2011-07-15T05:47:32Z</time>
  <speed>0.110000</speed>
</trkpt>
<trkpt lat="32.730583191" lon="35.039333344">
  <ele>435.213379</ele>
  <time>2011-07-15T05:48:08Z</time>
  <speed>0.240000</speed>
</trkpt>
<trkpt lat="32.730560303" lon="35.039314270">
  <ele>435.182129</ele>
  <time>2011-07-15T05:48:42Z</time>
  <speed>0.070000</speed>
</trkpt>
<trkpt lat="32.730587006" lon="35.039302826">
  <ele>435.416504</ele>
  <time>2011-07-15T05:52:47Z</time>
  <speed>0.180000</speed>
</trkpt>
<trkpt lat="32.730609894" lon="35.039283752">
  <ele>435.541504</ele>
  <time>2011-07-15T05:53:05Z</time>
  <speed>0.260000</speed>
</trkpt>
<trkpt lat="32.730636597" lon="35.039253235">
  <ele>435.736816</ele>
  <time>2011-07-15T05:53:11Z</time>
  <speed>0.380000</speed>
</trkpt>
<trkpt lat="32.730659485" lon="35.039234161">
  <ele>434.979004</ele>
  <time>2011-07-15T05:53:15Z</time>
  <speed>0.370000</speed>
</trkpt>
<trkpt lat="32.730686188" lon="35.039226532">
  <ele>435.729004</ele>
  <time>2011-07-15T05:53:30Z</time>
  <speed>0.190000</speed>
</trkpt>
<trkpt lat="32.730712891" lon="35.039203644">
  <ele>435.861816</ele>
  <time>2011-07-15T05:53:34Z</time>
  <speed>0.340000</speed>
</trkpt>
<trkpt lat="32.730739594" lon="35.039199829">
  <ele>435.838379</ele>
  <time>2011-07-15T05:53:46Z</time>
  <speed>0.260000</speed>
</trkpt>
<trkpt lat="32.730716705" lon="35.039222717">
  <ele>435.416504</ele>
  <time>2011-07-15T05:54:08Z</time>
  <speed>0.320000</speed>
</trkpt>
<trkpt lat="32.730686188" lon="35.039237976">
  <ele>435.236816</ele>
  <time>2011-07-15T05:54:12Z</time>
  <speed>0.360000</speed>
</trkpt>
<trkpt lat="32.730651855" lon="35.039253235">
  <ele>435.275879</ele>
  <time>2011-07-15T05:54:16Z</time>
  <speed>0.390000</speed>
</trkpt>
<trkpt lat="32.730613708" lon="35.039279938">
  <ele>435.299316</ele>
  <time>2011-07-15T05:54:18Z</time>
  <speed>0.490000</speed>
</trkpt>
<trkpt lat="32.730575562" lon="35.039302826">
  <ele>435.314941</ele>
  <time>2011-07-15T05:54:20Z</time>
  <speed>0.570000</speed>
</trkpt>
<trkpt lat="32.730548859" lon="35.039318085">
  <ele>435.174316</ele>
  <time>2011-07-15T05:54:23Z</time>
  <speed>0.540000</speed>
</trkpt>
<trkpt lat="32.730575562" lon="35.039321899">
  <ele>433.924316</ele>
  <time>2011-07-15T05:54:29Z</time>
  <speed>0.190000</speed>
</trkpt>
<trkpt lat="32.730575562" lon="35.039318085">
  <ele>430.807129</ele>
  <time>2011-07-15T05:54:53Z</time>
  <speed>0.160000</speed>
</trkpt>
<trkpt lat="32.730590820" lon="35.039302826">
  <ele>428.643066</ele>
  <time>2011-07-15T05:55:07Z</time>
  <speed>0.080000</speed>
</trkpt>
<trkpt lat="32.730613708" lon="35.039299011">
  <ele>426.916504</ele>
  <time>2011-07-15T05:55:22Z</time>
  <speed>0.070000</speed>
</trkpt>
<trkpt lat="32.730587006" lon="35.039299011">
  <ele>428.549316</ele>
  <time>2011-07-15T05:55:50Z</time>
  <speed>0.370000</speed>
</trkpt>
<trkpt lat="32.730564117" lon="35.039306641">
  <ele>430.275879</ele>
  <time>2011-07-15T05:55:54Z</time>
  <speed>0.180000</speed>
</trkpt>
<trkpt lat="32.730545044" lon="35.039287567">
  <ele>431.838379</ele>
  <time>2011-07-15T05:56:12Z</time>
  <speed>0.150000</speed>
</trkpt>
<trkpt lat="32.730545044" lon="35.039283752">
  <ele>434.916504</ele>
  <time>2011-07-15T05:56:35Z</time>
  <speed>0.090000</speed>
</trkpt>
<trkpt lat="32.730525970" lon="35.039295197">
  <ele>437.205566</ele>
  <time>2011-07-15T05:56:46Z</time>
  <speed>0.190000</speed>
</trkpt>
<trkpt lat="32.730510712" lon="35.039306641">
  <ele>439.682129</ele>
  <time>2011-07-15T05:56:57Z</time>
  <speed>0.240000</speed>
</trkpt>
<trkpt lat="32.730487823" lon="35.039318085">
  <ele>441.713379</ele>
  <time>2011-07-15T05:57:02Z</time>
  <speed>0.320000</speed>
</trkpt>
<trkpt lat="32.730468750" lon="35.039329529">
  <ele>443.955566</ele>
  <time>2011-07-15T05:57:07Z</time>
  <speed>0.280000</speed>
</trkpt>
<trkpt lat="32.730449677" lon="35.039329529">
  <ele>446.822754</ele>
  <time>2011-07-15T05:57:13Z</time>
  <speed>0.240000</speed>
</trkpt>
<trkpt lat="32.730430603" lon="35.039340973">
  <ele>449.314941</ele>
  <time>2011-07-15T05:57:19Z</time>
  <speed>0.330000</speed>
</trkpt>
<trkpt lat="32.730411530" lon="35.039352417">
  <ele>451.150879</ele>
  <time>2011-07-15T05:57:22Z</time>
  <speed>0.360000</speed>
</trkpt>
<trkpt lat="32.730430603" lon="35.039363861">
  <ele>452.939941</ele>
  <time>2011-07-15T05:57:45Z</time>
  <speed>0.120000</speed>
</trkpt>
<trkpt lat="32.730453491" lon="35.039344788">
  <ele>451.986816</ele>
  <time>2011-07-15T05:58:10Z</time>
  <speed>0.090000</speed>
</trkpt>
<trkpt lat="32.730445862" lon="35.039348602">
  <ele>448.994629</ele>
  <time>2011-07-15T05:58:54Z</time>
  <speed>0.070000</speed>
</trkpt>
<trkpt lat="32.730461121" lon="35.039344788">
  <ele>446.119629</ele>
  <time>2011-07-15T05:59:06Z</time>
  <speed>0.240000</speed>
</trkpt>
<trkpt lat="32.730491638" lon="35.039337158">
  <ele>444.049316</ele>
  <time>2011-07-15T05:59:11Z</time>
  <speed>0.330000</speed>
</trkpt>
<trkpt lat="32.730518341" lon="35.039325714">
  <ele>442.439941</ele>
  <time>2011-07-15T05:59:15Z</time>
  <speed>0.320000</speed>
</trkpt>
<trkpt lat="32.730545044" lon="35.039310455">
  <ele>442.455566</ele>
  <time>2011-07-15T05:59:27Z</time>
  <speed>0.260000</speed>
</trkpt>
<trkpt lat="32.730567932" lon="35.039302826">
  <ele>440.361816</ele>
  <time>2011-07-15T05:59:35Z</time>
  <speed>0.280000</speed>
</trkpt>
<trkpt lat="32.730594635" lon="35.039291382">
  <ele>438.549316</ele>
  <time>2011-07-15T05:59:39Z</time>
  <speed>0.350000</speed>
</trkpt>
<trkpt lat="32.730617523" lon="35.039283752">
  <ele>437.377441</ele>
  <time>2011-07-15T05:59:42Z</time>
  <speed>0.330000</speed>
</trkpt>
<trkpt lat="32.730636597" lon="35.039272308">
  <ele>435.518066</ele>
  <time>2011-07-15T05:59:53Z</time>
  <speed>0.220000</speed>
</trkpt>
<trkpt lat="32.730651855" lon="35.039264679">
  <ele>433.002441</ele>
  <time>2011-07-15T06:00:04Z</time>
  <speed>0.080000</speed>
</trkpt>
<trkpt lat="32.730640411" lon="35.039279938">
  <ele>430.525879</ele>
  <time>2011-07-15T06:00:17Z</time>
  <speed>0.370000</speed>
</trkpt>
<trkpt lat="32.730609894" lon="35.039291382">
  <ele>429.744629</ele>
  <time>2011-07-15T06:00:20Z</time>
  <speed>0.440000</speed>
</trkpt>
<trkpt lat="32.730583191" lon="35.039302826">
  <ele>429.611816</ele>
  <time>2011-07-15T06:00:22Z</time>
  <speed>0.480000</speed>
</trkpt>
<trkpt lat="32.730594635" lon="35.039299011">
  <ele>426.713379</ele>
  <time>2011-07-15T06:00:50Z</time>
  <speed>0.390000</speed>
</trkpt>
<trkpt lat="32.730602264" lon="35.039302826">
  <ele>423.893066</ele>
  <time>2011-07-15T06:01:26Z</time>
  <speed>0.200000</speed>
</trkpt>
<trkpt lat="32.730628967" lon="35.039287567">
  <ele>422.791504</ele>
  <time>2011-07-15T06:01:39Z</time>
  <speed>0.080000</speed>
</trkpt>
<trkpt lat="32.730606079" lon="35.039306641">
  <ele>423.729004</ele>
  <time>2011-07-15T06:02:01Z</time>
  <speed>0.160000</speed>
</trkpt>
<trkpt lat="32.730602264" lon="35.039295197">
  <ele>426.604004</ele>
  <time>2011-07-15T06:02:37Z</time>
  <speed>0.200000</speed>
</trkpt>
<trkpt lat="32.730575562" lon="35.039310455">
  <ele>428.041504</ele>
  <time>2011-07-15T06:02:47Z</time>
  <speed>0.320000</speed>
</trkpt>
<trkpt lat="32.730552673" lon="35.039314270">
  <ele>430.166504</ele>
  <time>2011-07-15T06:02:52Z</time>
  <speed>0.320000</speed>
</trkpt>
<trkpt lat="32.730529785" lon="35.039329529">
  <ele>432.697754</ele>
  <time>2011-07-15T06:02:56Z</time>
  <speed>0.310000</speed>
</trkpt>
<trkpt lat="32.730522156" lon="35.039340973">
  <ele>435.354004</ele>
  <time>2011-07-15T06:03:01Z</time>
  <speed>0.250000</speed>
</trkpt>
<trkpt lat="32.730499268" lon="35.039352417">
  <ele>437.525879</ele>
  <time>2011-07-15T06:03:09Z</time>
  <speed>0.280000</speed>
</trkpt>
<trkpt lat="32.730476379" lon="35.039371490">
  <ele>439.854004</ele>
  <time>2011-07-15T06:03:12Z</time>
  <speed>0.330000</speed>
</trkpt>
<trkpt lat="32.730468750" lon="35.039386749">
  <ele>442.463379</ele>
  <time>2011-07-15T06:03:18Z</time>
  <speed>0.280000</speed>
</trkpt>
<trkpt lat="32.730457306" lon="35.039386749">
  <ele>445.197754</ele>
  <time>2011-07-15T06:03:30Z</time>
  <speed>0.050000</speed>
</trkpt>
<trkpt lat="32.730438232" lon="35.039386749">
  <ele>447.783691</ele>
  <time>2011-07-15T06:03:42Z</time>
  <speed>0.260000</speed>
</trkpt>
<trkpt lat="32.730419159" lon="35.039390564">
  <ele>450.189941</ele>
  <time>2011-07-15T06:03:55Z</time>
  <speed>0.110000</speed>
</trkpt>
<trkpt lat="32.730400085" lon="35.039398193">
  <ele>452.416504</ele>
  <time>2011-07-15T06:04:14Z</time>
  <speed>0.180000</speed>
</trkpt>
<trkpt lat="32.730426788" lon="35.039371490">
  <ele>451.814941</ele>
  <time>2011-07-15T06:04:32Z</time>
  <speed>0.400000</speed>
</trkpt>
<trkpt lat="32.730442047" lon="35.039356232">
  <ele>449.408691</ele>
  <time>2011-07-15T06:04:38Z</time>
  <speed>0.240000</speed>
</trkpt>
<trkpt lat="32.730487823" lon="35.039333344">
  <ele>447.002441</ele>
  <time>2011-07-15T06:04:41Z</time>
  <speed>0.420000</speed>
</trkpt>
<trkpt lat="32.730529785" lon="35.039314270">
  <ele>444.807129</ele>
  <time>2011-07-15T06:04:42Z</time>
  <speed>0.480000</speed>
</trkpt>
<trkpt lat="32.730556488" lon="35.039299011">
  <ele>442.564941</ele>
  <time>2011-07-15T06:04:43Z</time>
  <speed>0.480000</speed>
</trkpt>
<trkpt lat="32.730587006" lon="35.039291382">
  <ele>439.455566</ele>
  <time>2011-07-15T06:04:45Z</time>
  <speed>0.390000</speed>
</trkpt>
<trkpt lat="32.730617523" lon="35.039283752">
  <ele>436.111816</ele>
  <time>2011-07-15T06:04:47Z</time>
  <speed>0.340000</speed>
</trkpt>
<trkpt lat="32.730632782" lon="35.039279938">
  <ele>433.104004</ele>
  <time>2011-07-15T06:04:50Z</time>
  <speed>0.260000</speed>
</trkpt>
<trkpt lat="32.730644226" lon="35.039279938">
  <ele>430.377441</ele>
  <time>2011-07-15T06:04:59Z</time>
  <speed>0.200000</speed>
</trkpt>
<trkpt lat="32.730659485" lon="35.039283752">
  <ele>427.854004</ele>
  <time>2011-07-15T06:05:10Z</time>
  <speed>0.080000</speed>
</trkpt>
<trkpt lat="32.730663300" lon="35.039276123">
  <ele>424.791504</ele>
  <time>2011-07-15T06:05:25Z</time>
  <speed>0.170000</speed>
</trkpt>
<trkpt lat="32.730678558" lon="35.039260864">
  <ele>423.002441</ele>
  <time>2011-07-15T06:05:36Z</time>
  <speed>0.220000</speed>
</trkpt>
<trkpt lat="32.730690002" lon="35.039245605">
  <ele>420.596191</ele>
  <time>2011-07-15T06:05:55Z</time>
  <speed>0.080000</speed>
</trkpt>
<trkpt lat="32.730705261" lon="35.039222717">
  <ele>419.689941</ele>
  <time>2011-07-15T06:06:27Z</time>
  <speed>0.190000</speed>
</trkpt>
<trkpt lat="32.730724335" lon="35.039199829">
  <ele>420.564941</ele>
  <time>2011-07-15T06:06:41Z</time>
  <speed>0.170000</speed>
</trkpt>
<trkpt lat="32.730716705" lon="35.039196014">
  <ele>423.510254</ele>
  <time>2011-07-15T06:07:06Z</time>
  <speed>0.180000</speed>
</trkpt>
<trkpt lat="32.730701447" lon="35.039215088">
  <ele>425.064941</ele>
  <time>2011-07-15T06:07:16Z</time>
  <speed>0.270000</speed>
</trkpt>
<trkpt lat="32.730678558" lon="35.039230347">
  <ele>426.447754</ele>
  <time>2011-07-15T06:07:21Z</time>
  <speed>0.330000</speed>
</trkpt>
<trkpt lat="32.730659485" lon="35.039253235">
  <ele>428.760254</ele>
  <time>2011-07-15T06:07:26Z</time>
  <speed>0.380000</speed>
</trkpt>
<trkpt lat="32.730644226" lon="35.039276123">
  <ele>430.104004</ele>
  <time>2011-07-15T06:07:30Z</time>
  <speed>0.390000</speed>
</trkpt>
<trkpt lat="32.730644226" lon="35.039260864">
  <ele>432.814941</ele>
  <time>2011-07-15T06:07:45Z</time>
  <speed>0.090000</speed>
</trkpt>
<trkpt lat="32.730628967" lon="35.039264679">
  <ele>435.166504</ele>
  <time>2011-07-15T06:07:56Z</time>
  <speed>0.200000</speed>
</trkpt>
<trkpt lat="32.730602264" lon="35.039268494">
  <ele>434.002441</ele>
  <time>2011-07-15T06:08:12Z</time>
  <speed>0.270000</speed>
</trkpt>
<trkpt lat="32.730579376" lon="35.039276123">
  <ele>433.861816</ele>
  <time>2011-07-15T06:08:19Z</time>
  <speed>0.330000</speed>
</trkpt>
<trkpt lat="32.730545044" lon="35.039291382">
  <ele>433.939941</ele>
  <time>2011-07-15T06:08:25Z</time>
  <speed>0.330000</speed>
</trkpt>
<trkpt lat="32.730518341" lon="35.039295197">
  <ele>435.650879</ele>
  <time>2011-07-15T06:08:31Z</time>
  <speed>0.240000</speed>
</trkpt>
<trkpt lat="32.730506897" lon="35.039295197">
  <ele>438.564941</ele>
  <time>2011-07-15T06:08:48Z</time>
  <speed>0.090000</speed>
</trkpt>
<trkpt lat="32.730499268" lon="35.039283752">
  <ele>441.197754</ele>
  <time>2011-07-15T06:09:06Z</time>
  <speed>0.100000</speed>
</trkpt>
<trkpt lat="32.730510712" lon="35.039253235">
  <ele>441.541504</ele>
  <time>2011-07-15T06:09:32Z</time>
  <speed>0.160000</speed>
</trkpt>
<trkpt lat="32.730533600" lon="35.039237976">
  <ele>440.299316</ele>
  <time>2011-07-15T06:09:47Z</time>
  <speed>0.210000</speed>
</trkpt>
<trkpt lat="32.730552673" lon="35.039241791">
  <ele>437.986816</ele>
  <time>2011-07-15T06:10:01Z</time>
  <speed>0.100000</speed>
</trkpt>
<trkpt lat="32.730560303" lon="35.039253235">
  <ele>435.260254</ele>
  <time>2011-07-15T06:10:14Z</time>
  <speed>0.150000</speed>
</trkpt>
<trkpt lat="32.730575562" lon="35.039268494">
  <ele>432.830566</ele>
  <time>2011-07-15T06:10:25Z</time>
  <speed>0.150000</speed>
</trkpt>
<trkpt lat="32.730590820" lon="35.039276123">
  <ele>430.658691</ele>
  <time>2011-07-15T06:10:35Z</time>
  <speed>0.160000</speed>
</trkpt>
<trkpt lat="32.730617523" lon="35.039264679">
  <ele>428.455566</ele>
  <time>2011-07-15T06:10:41Z</time>
  <speed>0.320000</speed>
</trkpt>
<trkpt lat="32.730640411" lon="35.039264679">
  <ele>426.236816</ele>
  <time>2011-07-15T06:10:46Z</time>
  <speed>0.180000</speed>
</trkpt>
<trkpt lat="32.730648041" lon="35.039279938">
  <ele>423.877441</ele>
  <time>2011-07-15T06:10:56Z</time>
  <speed>0.210000</speed>
</trkpt>
<trkpt lat="32.730636597" lon="35.039310455">
  <ele>422.611816</ele>
  <time>2011-07-15T06:11:08Z</time>
  <speed>0.190000</speed>
</trkpt>
<trkpt lat="32.730609894" lon="35.039310455">
  <ele>422.275879</ele>
  <time>2011-07-15T06:11:28Z</time>
  <speed>0.630000</speed>
</trkpt>
<trkpt lat="32.730587006" lon="35.039287567">
  <ele>422.314941</ele>
  <time>2011-07-15T06:11:33Z</time>
  <speed>0.120000</speed>
</trkpt>
<trkpt lat="32.730560303" lon="35.039272308">
  <ele>422.588379</ele>
  <time>2011-07-15T06:11:36Z</time>
  <speed>0.990000</speed>
</trkpt>
<trkpt lat="32.730545044" lon="35.039249420">
  <ele>422.979004</ele>
  <time>2011-07-15T06:11:37Z</time>
  <speed>1.580000</speed>
</trkpt>
<trkpt lat="32.730529785" lon="35.039211273">
  <ele>423.338379</ele>
  <time>2011-07-15T06:11:39Z</time>
  <speed>2.240000</speed>
</trkpt>
<trkpt lat="32.730484009" lon="35.039173126">
  <ele>423.838379</ele>
  <time>2011-07-15T06:11:41Z</time>
  <speed>2.920000</speed>
</trkpt>
<trkpt lat="32.730457306" lon="35.039154053">
  <ele>423.760254</ele>
  <time>2011-07-15T06:11:42Z</time>
  <speed>2.880000</speed>
</trkpt>
<trkpt lat="32.730426788" lon="35.039134979">
  <ele>423.689941</ele>
  <time>2011-07-15T06:11:43Z</time>
  <speed>3.300000</speed>
</trkpt>
<trkpt lat="32.730388641" lon="35.039108276">
  <ele>423.885254</ele>
  <time>2011-07-15T06:11:44Z</time>
  <speed>2.970000</speed>
</trkpt>
<trkpt lat="32.730365753" lon="35.039085388">
  <ele>423.807129</ele>
  <time>2011-07-15T06:11:45Z</time>
  <speed>2.620000</speed>
</trkpt>
<trkpt lat="32.730342865" lon="35.039058685">
  <ele>424.010254</ele>
  <time>2011-07-15T06:11:48Z</time>
  <speed>0.980000</speed>
</trkpt>
<trkpt lat="32.730312347" lon="35.039031982">
  <ele>423.299316</ele>
  <time>2011-07-15T06:11:51Z</time>
  <speed>1.400000</speed>
</trkpt>
<trkpt lat="32.730308533" lon="35.038993835">
  <ele>422.830566</ele>
  <time>2011-07-15T06:11:53Z</time>
  <speed>1.980000</speed>
</trkpt>
<trkpt lat="32.730289459" lon="35.038959503">
  <ele>422.455566</ele>
  <time>2011-07-15T06:11:55Z</time>
  <speed>2.290000</speed>
</trkpt>
<trkpt lat="32.730255127" lon="35.038913727">
  <ele>422.150879</ele>
  <time>2011-07-15T06:11:57Z</time>
  <speed>2.780000</speed>
</trkpt>
<trkpt lat="32.730236053" lon="35.038879395">
  <ele>422.166504</ele>
  <time>2011-07-15T06:11:58Z</time>
  <speed>3.740000</speed>
</trkpt>
<trkpt lat="32.730220795" lon="35.038837433">
  <ele>421.955566</ele>
  <time>2011-07-15T06:11:59Z</time>
  <speed>4.310000</speed>
</trkpt>
<trkpt lat="32.730186462" lon="35.038803101">
  <ele>421.838379</ele>
  <time>2011-07-15T06:12:00Z</time>
  <speed>4.520000</speed>
</trkpt>
<trkpt lat="32.730155945" lon="35.038753510">
  <ele>421.682129</ele>
  <time>2011-07-15T06:12:01Z</time>
  <speed>5.070000</speed>
</trkpt>
<trkpt lat="32.730125427" lon="35.038715363">
  <ele>421.229004</ele>
  <time>2011-07-15T06:12:02Z</time>
  <speed>4.540000</speed>
</trkpt>
<trkpt lat="32.730098724" lon="35.038665771">
  <ele>420.518066</ele>
  <time>2011-07-15T06:12:03Z</time>
  <speed>5.190000</speed>
</trkpt>
<trkpt lat="32.730068207" lon="35.038619995">
  <ele>420.346191</ele>
  <time>2011-07-15T06:12:04Z</time>
  <speed>4.870000</speed>
</trkpt>
<trkpt lat="32.730033875" lon="35.038578033">
  <ele>419.924316</ele>
  <time>2011-07-15T06:12:05Z</time>
  <speed>4.720000</speed>
</trkpt>
<trkpt lat="32.729995728" lon="35.038543701">
  <ele>419.744629</ele>
  <time>2011-07-15T06:12:06Z</time>
  <speed>4.580000</speed>
</trkpt>
<trkpt lat="32.729953766" lon="35.038520813">
  <ele>419.213379</ele>
  <time>2011-07-15T06:12:07Z</time>
  <speed>4.480000</speed>
</trkpt>
<trkpt lat="32.729915619" lon="35.038501740">
  <ele>418.799316</ele>
  <time>2011-07-15T06:12:08Z</time>
  <speed>4.100000</speed>
</trkpt>
<trkpt lat="32.729877472" lon="35.038478851">
  <ele>419.486816</ele>
  <time>2011-07-15T06:12:09Z</time>
  <speed>4.720000</speed>
</trkpt>
<trkpt lat="32.729835510" lon="35.038455963">
  <ele>419.611816</ele>
  <time>2011-07-15T06:12:10Z</time>
  <speed>4.820000</speed>
</trkpt>
<trkpt lat="32.729804993" lon="35.038417816">
  <ele>419.010254</ele>
  <time>2011-07-15T06:12:11Z</time>
  <speed>4.780000</speed>
</trkpt>
<trkpt lat="32.729774475" lon="35.038375854">
  <ele>418.893066</ele>
  <time>2011-07-15T06:12:12Z</time>
  <speed>5.410000</speed>
</trkpt>
<trkpt lat="32.729736328" lon="35.038326263">
  <ele>418.611816</ele>
  <time>2011-07-15T06:12:13Z</time>
  <speed>5.550000</speed>
</trkpt>
<trkpt lat="32.729701996" lon="35.038280487">
  <ele>418.236816</ele>
  <time>2011-07-15T06:12:14Z</time>
  <speed>5.620000</speed>
</trkpt>
<trkpt lat="32.729667664" lon="35.038230896">
  <ele>416.994629</ele>
  <time>2011-07-15T06:12:15Z</time>
  <speed>5.690000</speed>
</trkpt>
<trkpt lat="32.729625702" lon="35.038185120">
  <ele>416.494629</ele>
  <time>2011-07-15T06:12:16Z</time>
  <speed>6.490000</speed>
</trkpt>
<trkpt lat="32.729576111" lon="35.038143158">
  <ele>415.377441</ele>
  <time>2011-07-15T06:12:17Z</time>
  <speed>5.900000</speed>
</trkpt>
<trkpt lat="32.729549408" lon="35.038093567">
  <ele>414.432129</ele>
  <time>2011-07-15T06:12:18Z</time>
  <speed>6.210000</speed>
</trkpt>
<trkpt lat="32.729515076" lon="35.038036346">
  <ele>413.721191</ele>
  <time>2011-07-15T06:12:19Z</time>
  <speed>6.890000</speed>
</trkpt>
<trkpt lat="32.729476929" lon="35.037982941">
  <ele>413.275879</ele>
  <time>2011-07-15T06:12:20Z</time>
  <speed>6.370000</speed>
</trkpt>
<trkpt lat="32.729427338" lon="35.037944794">
  <ele>413.088379</ele>
  <time>2011-07-15T06:12:21Z</time>
  <speed>5.960000</speed>
</trkpt>
<trkpt lat="32.729381561" lon="35.037921906">
  <ele>413.111816</ele>
  <time>2011-07-15T06:12:22Z</time>
  <speed>4.910000</speed>
</trkpt>
<trkpt lat="32.729354858" lon="35.037895203">
  <ele>412.197754</ele>
  <time>2011-07-15T06:12:23Z</time>
  <speed>3.920000</speed>
</trkpt>
<trkpt lat="32.729320526" lon="35.037857056">
  <ele>412.721191</ele>
  <time>2011-07-15T06:12:24Z</time>
  <speed>3.780000</speed>
</trkpt>
<trkpt lat="32.729286194" lon="35.037837982">
  <ele>411.486816</ele>
  <time>2011-07-15T06:12:25Z</time>
  <speed>4.100000</speed>
</trkpt>
<trkpt lat="32.729251862" lon="35.037818909">
  <ele>410.877441</ele>
  <time>2011-07-15T06:12:26Z</time>
  <speed>4.340000</speed>
</trkpt>
<trkpt lat="32.729217529" lon="35.037799835">
  <ele>410.400879</ele>
  <time>2011-07-15T06:12:27Z</time>
  <speed>4.210000</speed>
</trkpt>
<trkpt lat="32.729194641" lon="35.037773132">
  <ele>409.869629</ele>
  <time>2011-07-15T06:12:28Z</time>
  <speed>2.940000</speed>
</trkpt>
<trkpt lat="32.729167938" lon="35.037727356">
  <ele>408.689941</ele>
  <time>2011-07-15T06:12:30Z</time>
  <speed>2.750000</speed>
</trkpt>
<trkpt lat="32.729145050" lon="35.037704468">
  <ele>408.119629</ele>
  <time>2011-07-15T06:12:31Z</time>
  <speed>4.370000</speed>
</trkpt>
<trkpt lat="32.729099274" lon="35.037681580">
  <ele>407.619629</ele>
  <time>2011-07-15T06:12:32Z</time>
  <speed>5.340000</speed>
</trkpt>
<trkpt lat="32.729049683" lon="35.037662506">
  <ele>407.252441</ele>
  <time>2011-07-15T06:12:33Z</time>
  <speed>5.510000</speed>
</trkpt>
<trkpt lat="32.729003906" lon="35.037643433">
  <ele>406.689941</ele>
  <time>2011-07-15T06:12:34Z</time>
  <speed>5.330000</speed>
</trkpt>
<trkpt lat="32.728946686" lon="35.037605286">
  <ele>406.377441</ele>
  <time>2011-07-15T06:12:35Z</time>
  <speed>6.120000</speed>
</trkpt>
<trkpt lat="32.728889465" lon="35.037590027">
  <ele>405.650879</ele>
  <time>2011-07-15T06:12:36Z</time>
  <speed>6.130000</speed>
</trkpt>
<trkpt lat="32.728832245" lon="35.037563324">
  <ele>405.244629</ele>
  <time>2011-07-15T06:12:37Z</time>
  <speed>6.270000</speed>
</trkpt>
<trkpt lat="32.728771210" lon="35.037540436">
  <ele>404.408691</ele>
  <time>2011-07-15T06:12:38Z</time>
  <speed>6.530000</speed>
</trkpt>
<trkpt lat="32.728717804" lon="35.037532806">
  <ele>403.229004</ele>
  <time>2011-07-15T06:12:39Z</time>
  <speed>6.130000</speed>
</trkpt>
<trkpt lat="32.728668213" lon="35.037517548">
  <ele>402.252441</ele>
  <time>2011-07-15T06:12:40Z</time>
  <speed>4.160000</speed>
</trkpt>
<trkpt lat="32.728630066" lon="35.037506104">
  <ele>401.893066</ele>
  <time>2011-07-15T06:12:41Z</time>
  <speed>4.310000</speed>
</trkpt>
<trkpt lat="32.728591919" lon="35.037506104">
  <ele>402.252441</ele>
  <time>2011-07-15T06:12:42Z</time>
  <speed>3.490000</speed>
</trkpt>
<trkpt lat="32.728561401" lon="35.037494659">
  <ele>401.986816</ele>
  <time>2011-07-15T06:12:43Z</time>
  <speed>3.790000</speed>
</trkpt>
<trkpt lat="32.728530884" lon="35.037471771">
  <ele>401.666504</ele>
  <time>2011-07-15T06:12:44Z</time>
  <speed>4.420000</speed>
</trkpt>
<trkpt lat="32.728496552" lon="35.037448883">
  <ele>401.041504</ele>
  <time>2011-07-15T06:12:45Z</time>
  <speed>4.750000</speed>
</trkpt>
<trkpt lat="32.728443146" lon="35.037414551">
  <ele>400.885254</ele>
  <time>2011-07-15T06:12:46Z</time>
  <speed>5.550000</speed>
</trkpt>
<trkpt lat="32.728389740" lon="35.037391663">
  <ele>400.916504</ele>
  <time>2011-07-15T06:12:47Z</time>
  <speed>5.370000</speed>
</trkpt>
<trkpt lat="32.728340149" lon="35.037372589">
  <ele>400.533691</ele>
  <time>2011-07-15T06:12:48Z</time>
  <speed>5.370000</speed>
</trkpt>
<trkpt lat="32.728298187" lon="35.037345886">
  <ele>399.650879</ele>
  <time>2011-07-15T06:12:49Z</time>
  <speed>5.370000</speed>
</trkpt>
<trkpt lat="32.728256226" lon="35.037311554">
  <ele>398.713379</ele>
  <time>2011-07-15T06:12:50Z</time>
  <speed>5.350000</speed>
</trkpt>
<trkpt lat="32.728210449" lon="35.037281036">
  <ele>397.627441</ele>
  <time>2011-07-15T06:12:51Z</time>
  <speed>5.760000</speed>
</trkpt>
<trkpt lat="32.728160858" lon="35.037246704">
  <ele>396.924316</ele>
  <time>2011-07-15T06:12:52Z</time>
  <speed>6.470000</speed>
</trkpt>
<trkpt lat="32.728103638" lon="35.037227631">
  <ele>396.010254</ele>
  <time>2011-07-15T06:12:53Z</time>
  <speed>6.670000</speed>
</trkpt>
<trkpt lat="32.728042603" lon="35.037216187">
  <ele>394.330566</ele>
  <time>2011-07-15T06:12:54Z</time>
  <speed>6.680000</speed>
</trkpt>
<trkpt lat="32.727985382" lon="35.037189484">
  <ele>393.947754</ele>
  <time>2011-07-15T06:12:55Z</time>
  <speed>6.810000</speed>
</trkpt>
<trkpt lat="32.727939606" lon="35.037143707">
  <ele>394.182129</ele>
  <time>2011-07-15T06:12:56Z</time>
  <speed>5.910000</speed>
</trkpt>
<trkpt lat="32.727901459" lon="35.037094116">
  <ele>393.861816</ele>
  <time>2011-07-15T06:12:57Z</time>
  <speed>6.190000</speed>
</trkpt>
<trkpt lat="32.727859497" lon="35.037052155">
  <ele>393.471191</ele>
  <time>2011-07-15T06:12:58Z</time>
  <speed>5.970000</speed>
</trkpt>
<trkpt lat="32.727809906" lon="35.037029266">
  <ele>392.869629</ele>
  <time>2011-07-15T06:12:59Z</time>
  <speed>6.230000</speed>
</trkpt>
<trkpt lat="32.727760315" lon="35.037002563">
  <ele>391.260254</ele>
  <time>2011-07-15T06:13:00Z</time>
  <speed>6.410000</speed>
</trkpt>
<trkpt lat="32.727706909" lon="35.036968231">
  <ele>389.674316</ele>
  <time>2011-07-15T06:13:01Z</time>
  <speed>6.150000</speed>
</trkpt>
<trkpt lat="32.727649689" lon="35.036952972">
  <ele>389.400879</ele>
  <time>2011-07-15T06:13:02Z</time>
  <speed>6.410000</speed>
</trkpt>
<trkpt lat="32.727584839" lon="35.036945343">
  <ele>389.416504</ele>
  <time>2011-07-15T06:13:03Z</time>
  <speed>6.670000</speed>
</trkpt>
<trkpt lat="32.727523804" lon="35.036926270">
  <ele>388.947754</ele>
  <time>2011-07-15T06:13:04Z</time>
  <speed>6.710000</speed>
</trkpt>
<trkpt lat="32.727458954" lon="35.036903381">
  <ele>389.205566</ele>
  <time>2011-07-15T06:13:05Z</time>
  <speed>7.420000</speed>
</trkpt>
<trkpt lat="32.727401733" lon="35.036872864">
  <ele>388.674316</ele>
  <time>2011-07-15T06:13:06Z</time>
  <speed>7.170000</speed>
</trkpt>
<trkpt lat="32.727344513" lon="35.036842346">
  <ele>388.596191</ele>
  <time>2011-07-15T06:13:07Z</time>
  <speed>6.460000</speed>
</trkpt>
<trkpt lat="32.727291107" lon="35.036800385">
  <ele>389.479004</ele>
  <time>2011-07-15T06:13:08Z</time>
  <speed>6.020000</speed>
</trkpt>
<trkpt lat="32.727249146" lon="35.036762238">
  <ele>389.604004</ele>
  <time>2011-07-15T06:13:09Z</time>
  <speed>5.250000</speed>
</trkpt>
<trkpt lat="32.727222443" lon="35.036720276">
  <ele>388.869629</ele>
  <time>2011-07-15T06:13:10Z</time>
  <speed>4.830000</speed>
</trkpt>
<trkpt lat="32.727188110" lon="35.036689758">
  <ele>388.650879</ele>
  <time>2011-07-15T06:13:11Z</time>
  <speed>4.420000</speed>
</trkpt>
<trkpt lat="32.727161407" lon="35.036659241">
  <ele>387.729004</ele>
  <time>2011-07-15T06:13:12Z</time>
  <speed>4.890000</speed>
</trkpt>
<trkpt lat="32.727127075" lon="35.036628723">
  <ele>387.635254</ele>
  <time>2011-07-15T06:13:13Z</time>
  <speed>4.990000</speed>
</trkpt>
<trkpt lat="32.727085114" lon="35.036594391">
  <ele>387.502441</ele>
  <time>2011-07-15T06:13:14Z</time>
  <speed>5.410000</speed>
</trkpt>
<trkpt lat="32.727035522" lon="35.036571503">
  <ele>387.666504</ele>
  <time>2011-07-15T06:13:15Z</time>
  <speed>5.900000</speed>
</trkpt>
<trkpt lat="32.726982117" lon="35.036548615">
  <ele>386.877441</ele>
  <time>2011-07-15T06:13:16Z</time>
  <speed>6.410000</speed>
</trkpt>
<trkpt lat="32.726924896" lon="35.036525726">
  <ele>386.799316</ele>
  <time>2011-07-15T06:13:17Z</time>
  <speed>6.710000</speed>
</trkpt>
<trkpt lat="32.726860046" lon="35.036506653">
  <ele>386.463379</ele>
  <time>2011-07-15T06:13:18Z</time>
  <speed>6.800000</speed>
</trkpt>
<trkpt lat="32.726795197" lon="35.036491394">
  <ele>386.830566</ele>
  <time>2011-07-15T06:13:19Z</time>
  <speed>6.790000</speed>
</trkpt>
<trkpt lat="32.726730347" lon="35.036476135">
  <ele>386.963379</ele>
  <time>2011-07-15T06:13:20Z</time>
  <speed>7.210000</speed>
</trkpt>
<trkpt lat="32.726669312" lon="35.036460876">
  <ele>385.986816</ele>
  <time>2011-07-15T06:13:21Z</time>
  <speed>7.200000</speed>
</trkpt>
<trkpt lat="32.726608276" lon="35.036449432">
  <ele>384.846191</ele>
  <time>2011-07-15T06:13:22Z</time>
  <speed>6.770000</speed>
</trkpt>
<trkpt lat="32.726551056" lon="35.036441803">
  <ele>383.307129</ele>
  <time>2011-07-15T06:13:23Z</time>
  <speed>6.260000</speed>
</trkpt>
<trkpt lat="32.726501465" lon="35.036426544">
  <ele>382.244629</ele>
  <time>2011-07-15T06:13:24Z</time>
  <speed>5.870000</speed>
</trkpt>
<trkpt lat="32.726455688" lon="35.036399841">
  <ele>382.424316</ele>
  <time>2011-07-15T06:13:25Z</time>
  <speed>4.600000</speed>
</trkpt>
<trkpt lat="32.726421356" lon="35.036373138">
  <ele>382.791504</ele>
  <time>2011-07-15T06:13:26Z</time>
  <speed>4.070000</speed>
</trkpt>
<trkpt lat="32.726398468" lon="35.036354065">
  <ele>381.525879</ele>
  <time>2011-07-15T06:13:27Z</time>
  <speed>3.930000</speed>
</trkpt>
<trkpt lat="32.726360321" lon="35.036342621">
  <ele>381.588379</ele>
  <time>2011-07-15T06:13:28Z</time>
  <speed>3.840000</speed>
</trkpt>
<trkpt lat="32.726333618" lon="35.036338806">
  <ele>380.479004</ele>
  <time>2011-07-15T06:13:29Z</time>
  <speed>3.640000</speed>
</trkpt>
<trkpt lat="32.726306915" lon="35.036323547">
  <ele>379.260254</ele>
  <time>2011-07-15T06:13:30Z</time>
  <speed>3.480000</speed>
</trkpt>
<trkpt lat="32.726272583" lon="35.036281586">
  <ele>378.018066</ele>
  <time>2011-07-15T06:13:32Z</time>
  <speed>2.930000</speed>
</trkpt>
<trkpt lat="32.726261139" lon="35.036254883">
  <ele>377.666504</ele>
  <time>2011-07-15T06:13:33Z</time>
  <speed>3.420000</speed>
</trkpt>
<trkpt lat="32.726257324" lon="35.036212921">
  <ele>376.064941</ele>
  <time>2011-07-15T06:13:34Z</time>
  <speed>3.540000</speed>
</trkpt>
<trkpt lat="32.726242065" lon="35.036174774">
  <ele>375.666504</ele>
  <time>2011-07-15T06:13:35Z</time>
  <speed>3.990000</speed>
</trkpt>
<trkpt lat="32.726215363" lon="35.036136627">
  <ele>374.377441</ele>
  <time>2011-07-15T06:13:36Z</time>
  <speed>4.180000</speed>
</trkpt>
<trkpt lat="32.726181030" lon="35.036102295">
  <ele>373.596191</ele>
  <time>2011-07-15T06:13:37Z</time>
  <speed>4.690000</speed>
</trkpt>
<trkpt lat="32.726161957" lon="35.036071777">
  <ele>373.025879</ele>
  <time>2011-07-15T06:13:38Z</time>
  <speed>4.080000</speed>
</trkpt>
<trkpt lat="32.726146698" lon="35.036033630">
  <ele>372.072754</ele>
  <time>2011-07-15T06:13:39Z</time>
  <speed>3.850000</speed>
</trkpt>
<trkpt lat="32.726131439" lon="35.035999298">
  <ele>371.049316</ele>
  <time>2011-07-15T06:13:40Z</time>
  <speed>3.400000</speed>
</trkpt>
<trkpt lat="32.726119995" lon="35.035957336">
  <ele>370.002441</ele>
  <time>2011-07-15T06:13:41Z</time>
  <speed>3.630000</speed>
</trkpt>
<trkpt lat="32.726104736" lon="35.035919189">
  <ele>368.635254</ele>
  <time>2011-07-15T06:13:42Z</time>
  <speed>3.860000</speed>
</trkpt>
<trkpt lat="32.726085663" lon="35.035892487">
  <ele>366.814941</ele>
  <time>2011-07-15T06:13:43Z</time>
  <speed>3.740000</speed>
</trkpt>
<trkpt lat="32.726062775" lon="35.035858154">
  <ele>365.447754</ele>
  <time>2011-07-15T06:13:44Z</time>
  <speed>4.010000</speed>
</trkpt>
<trkpt lat="32.726036072" lon="35.035816193">
  <ele>364.205566</ele>
  <time>2011-07-15T06:13:45Z</time>
  <speed>4.700000</speed>
</trkpt>
<trkpt lat="32.726013184" lon="35.035774231">
  <ele>362.775879</ele>
  <time>2011-07-15T06:13:46Z</time>
  <speed>5.180000</speed>
</trkpt>
<trkpt lat="32.725986481" lon="35.035720825">
  <ele>362.518066</ele>
  <time>2011-07-15T06:13:47Z</time>
  <speed>5.590000</speed>
</trkpt>
<trkpt lat="32.725959778" lon="35.035675049">
  <ele>362.596191</ele>
  <time>2011-07-15T06:13:48Z</time>
  <speed>4.910000</speed>
</trkpt>
<trkpt lat="32.725944519" lon="35.035636902">
  <ele>360.994629</ele>
  <time>2011-07-15T06:13:49Z</time>
  <speed>3.660000</speed>
</trkpt>
<trkpt lat="32.725925446" lon="35.035602570">
  <ele>360.408691</ele>
  <time>2011-07-15T06:13:50Z</time>
  <speed>3.380000</speed>
</trkpt>
<trkpt lat="32.725902557" lon="35.035579681">
  <ele>359.963379</ele>
  <time>2011-07-15T06:13:51Z</time>
  <speed>2.650000</speed>
</trkpt>
<trkpt lat="32.725875854" lon="35.035545349">
  <ele>358.072754</ele>
  <time>2011-07-15T06:13:53Z</time>
  <speed>1.980000</speed>
</trkpt>
<trkpt lat="32.725830078" lon="35.035530090">
  <ele>357.291504</ele>
  <time>2011-07-15T06:13:55Z</time>
  <speed>2.450000</speed>
</trkpt>
<trkpt lat="32.725784302" lon="35.035518646">
  <ele>355.783691</ele>
  <time>2011-07-15T06:13:57Z</time>
  <speed>2.570000</speed>
</trkpt>
<trkpt lat="32.725749969" lon="35.035491943">
  <ele>355.275879</ele>
  <time>2011-07-15T06:13:59Z</time>
  <speed>2.250000</speed>
</trkpt>
<trkpt lat="32.725700378" lon="35.035491943">
  <ele>353.236816</ele>
  <time>2011-07-15T06:14:01Z</time>
  <speed>3.300000</speed>
</trkpt>
<trkpt lat="32.725669861" lon="35.035499573">
  <ele>352.447754</ele>
  <time>2011-07-15T06:14:02Z</time>
  <speed>2.870000</speed>
</trkpt>
<trkpt lat="32.725639343" lon="35.035495758">
  <ele>351.994629</ele>
  <time>2011-07-15T06:14:03Z</time>
  <speed>3.380000</speed>
</trkpt>
<trkpt lat="32.725601196" lon="35.035472870">
  <ele>351.658691</ele>
  <time>2011-07-15T06:14:04Z</time>
  <speed>4.470000</speed>
</trkpt>
<trkpt lat="32.725563049" lon="35.035438538">
  <ele>351.166504</ele>
  <time>2011-07-15T06:14:05Z</time>
  <speed>4.600000</speed>
</trkpt>
<trkpt lat="32.725532532" lon="35.035392761">
  <ele>350.557129</ele>
  <time>2011-07-15T06:14:06Z</time>
  <speed>5.080000</speed>
</trkpt>
<trkpt lat="32.725502014" lon="35.035346985">
  <ele>350.400879</ele>
  <time>2011-07-15T06:14:07Z</time>
  <speed>5.890000</speed>
</trkpt>
<trkpt lat="32.725471497" lon="35.035285950">
  <ele>350.010254</ele>
  <time>2011-07-15T06:14:08Z</time>
  <speed>6.010000</speed>
</trkpt>
<trkpt lat="32.725448608" lon="35.035232544">
  <ele>350.088379</ele>
  <time>2011-07-15T06:14:09Z</time>
  <speed>5.320000</speed>
</trkpt>
<trkpt lat="32.725433350" lon="35.035175323">
  <ele>349.439941</ele>
  <time>2011-07-15T06:14:10Z</time>
  <speed>5.490000</speed>
</trkpt>
<trkpt lat="32.725418091" lon="35.035118103">
  <ele>348.939941</ele>
  <time>2011-07-15T06:14:11Z</time>
  <speed>5.480000</speed>
</trkpt>
<trkpt lat="32.725395203" lon="35.035060883">
  <ele>349.322754</ele>
  <time>2011-07-15T06:14:12Z</time>
  <speed>5.990000</speed>
</trkpt>
<trkpt lat="32.725368500" lon="35.034999847">
  <ele>350.572754</ele>
  <time>2011-07-15T06:14:13Z</time>
  <speed>6.120000</speed>
</trkpt>
<trkpt lat="32.725345612" lon="35.034938812">
  <ele>350.900879</ele>
  <time>2011-07-15T06:14:14Z</time>
  <speed>5.620000</speed>
</trkpt>
<trkpt lat="32.725322723" lon="35.034889221">
  <ele>350.635254</ele>
  <time>2011-07-15T06:14:15Z</time>
  <speed>4.650000</speed>
</trkpt>
<trkpt lat="32.725303650" lon="35.034851074">
  <ele>350.604004</ele>
  <time>2011-07-15T06:14:16Z</time>
  <speed>3.290000</speed>
</trkpt>
<trkpt lat="32.725284576" lon="35.034824371">
  <ele>350.510254</ele>
  <time>2011-07-15T06:14:17Z</time>
  <speed>3.420000</speed>
</trkpt>
<trkpt lat="32.725257874" lon="35.034797668">
  <ele>350.596191</ele>
  <time>2011-07-15T06:14:18Z</time>
  <speed>3.560000</speed>
</trkpt>
<trkpt lat="32.725231171" lon="35.034770966">
  <ele>350.463379</ele>
  <time>2011-07-15T06:14:19Z</time>
  <speed>4.040000</speed>
</trkpt>
<trkpt lat="32.725196838" lon="35.034748077">
  <ele>349.799316</ele>
  <time>2011-07-15T06:14:20Z</time>
  <speed>5.090000</speed>
</trkpt>
<trkpt lat="32.725154877" lon="35.034721375">
  <ele>348.791504</ele>
  <time>2011-07-15T06:14:21Z</time>
  <speed>5.170000</speed>
</trkpt>
<trkpt lat="32.725116730" lon="35.034683228">
  <ele>348.002441</ele>
  <time>2011-07-15T06:14:22Z</time>
  <speed>5.260000</speed>
</trkpt>
<trkpt lat="32.725074768" lon="35.034645081">
  <ele>347.260254</ele>
  <time>2011-07-15T06:14:23Z</time>
  <speed>5.550000</speed>
</trkpt>
<trkpt lat="32.725032806" lon="35.034603119">
  <ele>347.455566</ele>
  <time>2011-07-15T06:14:24Z</time>
  <speed>5.600000</speed>
</trkpt>
<trkpt lat="32.724990845" lon="35.034572601">
  <ele>346.455566</ele>
  <time>2011-07-15T06:14:25Z</time>
  <speed>4.960000</speed>
</trkpt>
<trkpt lat="32.724960327" lon="35.034545898">
  <ele>345.986816</ele>
  <time>2011-07-15T06:14:26Z</time>
  <speed>4.600000</speed>
</trkpt>
<trkpt lat="32.724925995" lon="35.034515381">
  <ele>344.963379</ele>
  <time>2011-07-15T06:14:27Z</time>
  <speed>4.050000</speed>
</trkpt>
<trkpt lat="32.724891663" lon="35.034496307">
  <ele>344.377441</ele>
  <time>2011-07-15T06:14:28Z</time>
  <speed>4.420000</speed>
</trkpt>
<trkpt lat="32.724857330" lon="35.034473419">
  <ele>343.408691</ele>
  <time>2011-07-15T06:14:29Z</time>
  <speed>3.770000</speed>
</trkpt>
<trkpt lat="32.724834442" lon="35.034450531">
  <ele>342.611816</ele>
  <time>2011-07-15T06:14:30Z</time>
  <speed>3.740000</speed>
</trkpt>
<trkpt lat="32.724803925" lon="35.034420013">
  <ele>342.697754</ele>
  <time>2011-07-15T06:14:31Z</time>
  <speed>4.240000</speed>
</trkpt>
<trkpt lat="32.724781036" lon="35.034381866">
  <ele>342.049316</ele>
  <time>2011-07-15T06:14:32Z</time>
  <speed>4.030000</speed>
</trkpt>
<trkpt lat="32.724754333" lon="35.034343719">
  <ele>341.541504</ele>
  <time>2011-07-15T06:14:33Z</time>
  <speed>4.640000</speed>
</trkpt>
<trkpt lat="32.724727631" lon="35.034301758">
  <ele>340.814941</ele>
  <time>2011-07-15T06:14:34Z</time>
  <speed>4.930000</speed>
</trkpt>
<trkpt lat="32.724689484" lon="35.034267426">
  <ele>341.822754</ele>
  <time>2011-07-15T06:14:35Z</time>
  <speed>4.700000</speed>
</trkpt>
<trkpt lat="32.724655151" lon="35.034229279">
  <ele>341.424316</ele>
  <time>2011-07-15T06:14:36Z</time>
  <speed>4.770000</speed>
</trkpt>
<trkpt lat="32.724609375" lon="35.034202576">
  <ele>341.744629</ele>
  <time>2011-07-15T06:14:37Z</time>
  <speed>4.650000</speed>
</trkpt>
<trkpt lat="32.724567413" lon="35.034179688">
  <ele>342.689941</ele>
  <time>2011-07-15T06:14:38Z</time>
  <speed>4.520000</speed>
</trkpt>
<trkpt lat="32.724536896" lon="35.034156799">
  <ele>341.900879</ele>
  <time>2011-07-15T06:14:39Z</time>
  <speed>4.560000</speed>
</trkpt>
<trkpt lat="32.724510193" lon="35.034126282">
  <ele>341.018066</ele>
  <time>2011-07-15T06:14:40Z</time>
  <speed>4.310000</speed>
</trkpt>
<trkpt lat="32.724475861" lon="35.034099579">
  <ele>341.682129</ele>
  <time>2011-07-15T06:14:41Z</time>
  <speed>3.830000</speed>
</trkpt>
<trkpt lat="32.724441528" lon="35.034088135">
  <ele>342.361816</ele>
  <time>2011-07-15T06:14:42Z</time>
  <speed>3.420000</speed>
</trkpt>
<trkpt lat="32.724411011" lon="35.034076691">
  <ele>341.768066</ele>
  <time>2011-07-15T06:14:43Z</time>
  <speed>3.100000</speed>
</trkpt>
<trkpt lat="32.724376678" lon="35.034042358">
  <ele>341.689941</ele>
  <time>2011-07-15T06:14:45Z</time>
  <speed>2.890000</speed>
</trkpt>
<trkpt lat="32.724342346" lon="35.034000397">
  <ele>341.080566</ele>
  <time>2011-07-15T06:14:47Z</time>
  <speed>3.210000</speed>
</trkpt>
<trkpt lat="32.724319458" lon="35.033973694">
  <ele>340.533691</ele>
  <time>2011-07-15T06:14:48Z</time>
  <speed>3.540000</speed>
</trkpt>
<trkpt lat="32.724288940" lon="35.033943176">
  <ele>339.604004</ele>
  <time>2011-07-15T06:14:49Z</time>
  <speed>3.650000</speed>
</trkpt>
<trkpt lat="32.724266052" lon="35.033916473">
  <ele>338.283691</ele>
  <time>2011-07-15T06:14:50Z</time>
  <speed>3.600000</speed>
</trkpt>
<trkpt lat="32.724243164" lon="35.033897400">
  <ele>337.049316</ele>
  <time>2011-07-15T06:14:51Z</time>
  <speed>3.440000</speed>
</trkpt>
<trkpt lat="32.724227905" lon="35.033870697">
  <ele>334.783691</ele>
  <time>2011-07-15T06:14:52Z</time>
  <speed>3.860000</speed>
</trkpt>
<trkpt lat="32.724197388" lon="35.033843994">
  <ele>334.791504</ele>
  <time>2011-07-15T06:14:53Z</time>
  <speed>4.310000</speed>
</trkpt>
<trkpt lat="32.724166870" lon="35.033813477">
  <ele>334.955566</ele>
  <time>2011-07-15T06:14:54Z</time>
  <speed>4.430000</speed>
</trkpt>
<trkpt lat="32.724140167" lon="35.033786774">
  <ele>334.939941</ele>
  <time>2011-07-15T06:14:55Z</time>
  <speed>4.020000</speed>
</trkpt>
<trkpt lat="32.724121094" lon="35.033756256">
  <ele>335.619629</ele>
  <time>2011-07-15T06:14:56Z</time>
  <speed>4.020000</speed>
</trkpt>
<trkpt lat="32.724105835" lon="35.033714294">
  <ele>336.627441</ele>
  <time>2011-07-15T06:14:57Z</time>
  <speed>4.410000</speed>
</trkpt>
<trkpt lat="32.724086761" lon="35.033660889">
  <ele>336.729004</ele>
  <time>2011-07-15T06:14:58Z</time>
  <speed>4.300000</speed>
</trkpt>
<trkpt lat="32.724075317" lon="35.033622742">
  <ele>336.221191</ele>
  <time>2011-07-15T06:14:59Z</time>
  <speed>3.000000</speed>
</trkpt>
<trkpt lat="32.724044800" lon="35.033588409">
  <ele>335.502441</ele>
  <time>2011-07-15T06:15:01Z</time>
  <speed>1.710000</speed>
</trkpt>
<trkpt lat="32.724029541" lon="35.033546448">
  <ele>334.361816</ele>
  <time>2011-07-15T06:15:03Z</time>
  <speed>2.270000</speed>
</trkpt>
<trkpt lat="32.723987579" lon="35.033500671">
  <ele>333.213379</ele>
  <time>2011-07-15T06:15:05Z</time>
  <speed>4.420000</speed>
</trkpt>
<trkpt lat="32.723949432" lon="35.033473969">
  <ele>331.807129</ele>
  <time>2011-07-15T06:15:06Z</time>
  <speed>4.820000</speed>
</trkpt>
<trkpt lat="32.723911285" lon="35.033451080">
  <ele>330.244629</ele>
  <time>2011-07-15T06:15:07Z</time>
  <speed>4.940000</speed>
</trkpt>
<trkpt lat="32.723869324" lon="35.033420563">
  <ele>329.057129</ele>
  <time>2011-07-15T06:15:08Z</time>
  <speed>5.220000</speed>
</trkpt>
<trkpt lat="32.723831177" lon="35.033393860">
  <ele>327.275879</ele>
  <time>2011-07-15T06:15:09Z</time>
  <speed>4.710000</speed>
</trkpt>
<trkpt lat="32.723793030" lon="35.033359528">
  <ele>326.080566</ele>
  <time>2011-07-15T06:15:10Z</time>
  <speed>4.830000</speed>
</trkpt>
<trkpt lat="32.723762512" lon="35.033329010">
  <ele>325.854004</ele>
  <time>2011-07-15T06:15:11Z</time>
  <speed>4.290000</speed>
</trkpt>
<trkpt lat="32.723735809" lon="35.033294678">
  <ele>325.260254</ele>
  <time>2011-07-15T06:15:12Z</time>
  <speed>3.760000</speed>
</trkpt>
<trkpt lat="32.723716736" lon="35.033264160">
  <ele>324.822754</ele>
  <time>2011-07-15T06:15:13Z</time>
  <speed>3.130000</speed>
</trkpt>
<trkpt lat="32.723693848" lon="35.033245087">
  <ele>323.604004</ele>
  <time>2011-07-15T06:15:14Z</time>
  <speed>3.330000</speed>
</trkpt>
<trkpt lat="32.723670959" lon="35.033229828">
  <ele>322.400879</ele>
  <time>2011-07-15T06:15:15Z</time>
  <speed>3.470000</speed>
</trkpt>
<trkpt lat="32.723648071" lon="35.033210754">
  <ele>322.018066</ele>
  <time>2011-07-15T06:15:16Z</time>
  <speed>3.330000</speed>
</trkpt>
<trkpt lat="32.723625183" lon="35.033176422">
  <ele>322.346191</ele>
  <time>2011-07-15T06:15:17Z</time>
  <speed>3.960000</speed>
</trkpt>
<trkpt lat="32.723606110" lon="35.033134460">
  <ele>322.885254</ele>
  <time>2011-07-15T06:15:18Z</time>
  <speed>4.080000</speed>
</trkpt>
<trkpt lat="32.723587036" lon="35.033088684">
  <ele>323.979004</ele>
  <time>2011-07-15T06:15:19Z</time>
  <speed>4.170000</speed>
</trkpt>
<trkpt lat="32.723567963" lon="35.033042908">
  <ele>324.963379</ele>
  <time>2011-07-15T06:15:20Z</time>
  <speed>4.380000</speed>
</trkpt>
<trkpt lat="32.723548889" lon="35.033000946">
  <ele>324.900879</ele>
  <time>2011-07-15T06:15:21Z</time>
  <speed>4.850000</speed>
</trkpt>
<trkpt lat="32.723518372" lon="35.032958984">
  <ele>324.955566</ele>
  <time>2011-07-15T06:15:22Z</time>
  <speed>5.330000</speed>
</trkpt>
<trkpt lat="32.723491669" lon="35.032913208">
  <ele>325.689941</ele>
  <time>2011-07-15T06:15:23Z</time>
  <speed>4.710000</speed>
</trkpt>
<trkpt lat="32.723468781" lon="35.032882690">
  <ele>325.400879</ele>
  <time>2011-07-15T06:15:24Z</time>
  <speed>4.320000</speed>
</trkpt>
<trkpt lat="32.723457336" lon="35.032848358">
  <ele>324.416504</ele>
  <time>2011-07-15T06:15:25Z</time>
  <speed>3.540000</speed>
</trkpt>
<trkpt lat="32.723442078" lon="35.032814026">
  <ele>323.596191</ele>
  <time>2011-07-15T06:15:26Z</time>
  <speed>3.830000</speed>
</trkpt>
<trkpt lat="32.723415375" lon="35.032787323">
  <ele>322.549316</ele>
  <time>2011-07-15T06:15:27Z</time>
  <speed>4.700000</speed>
</trkpt>
<trkpt lat="32.723373413" lon="35.032756805">
  <ele>321.221191</ele>
  <time>2011-07-15T06:15:28Z</time>
  <speed>5.740000</speed>
</trkpt>
<trkpt lat="32.723335266" lon="35.032718658">
  <ele>319.674316</ele>
  <time>2011-07-15T06:15:29Z</time>
  <speed>5.620000</speed>
</trkpt>
<trkpt lat="32.723308563" lon="35.032672882">
  <ele>318.447754</ele>
  <time>2011-07-15T06:15:30Z</time>
  <speed>5.170000</speed>
</trkpt>
<trkpt lat="32.723285675" lon="35.032623291">
  <ele>317.385254</ele>
  <time>2011-07-15T06:15:31Z</time>
  <speed>5.770000</speed>
</trkpt>
<trkpt lat="32.723243713" lon="35.032566071">
  <ele>317.432129</ele>
  <time>2011-07-15T06:15:32Z</time>
  <speed>6.650000</speed>
</trkpt>
<trkpt lat="32.723201752" lon="35.032505035">
  <ele>317.229004</ele>
  <time>2011-07-15T06:15:33Z</time>
  <speed>7.020000</speed>
</trkpt>
<trkpt lat="32.723159790" lon="35.032444000">
  <ele>317.400879</ele>
  <time>2011-07-15T06:15:34Z</time>
  <speed>7.070000</speed>
</trkpt>
<trkpt lat="32.723117828" lon="35.032390594">
  <ele>317.385254</ele>
  <time>2011-07-15T06:15:35Z</time>
  <speed>6.930000</speed>
</trkpt>
<trkpt lat="32.723075867" lon="35.032337189">
  <ele>316.908691</ele>
  <time>2011-07-15T06:15:36Z</time>
  <speed>6.570000</speed>
</trkpt>
<trkpt lat="32.723026276" lon="35.032279968">
  <ele>316.807129</ele>
  <time>2011-07-15T06:15:37Z</time>
  <speed>6.810000</speed>
</trkpt>
<trkpt lat="32.722980499" lon="35.032226563">
  <ele>316.963379</ele>
  <time>2011-07-15T06:15:38Z</time>
  <speed>6.880000</speed>
</trkpt>
<trkpt lat="32.722946167" lon="35.032165527">
  <ele>317.330566</ele>
  <time>2011-07-15T06:15:39Z</time>
  <speed>6.750000</speed>
</trkpt>
<trkpt lat="32.722911835" lon="35.032104492">
  <ele>317.252441</ele>
  <time>2011-07-15T06:15:40Z</time>
  <speed>6.640000</speed>
</trkpt>
<trkpt lat="32.722881317" lon="35.032039642">
  <ele>317.439941</ele>
  <time>2011-07-15T06:15:41Z</time>
  <speed>6.440000</speed>
</trkpt>
<trkpt lat="32.722854614" lon="35.031978607">
  <ele>317.908691</ele>
  <time>2011-07-15T06:15:42Z</time>
  <speed>6.520000</speed>
</trkpt>
<trkpt lat="32.722831726" lon="35.031921387">
  <ele>318.807129</ele>
  <time>2011-07-15T06:15:43Z</time>
  <speed>5.960000</speed>
</trkpt>
<trkpt lat="32.722816467" lon="35.031867981">
  <ele>318.775879</ele>
  <time>2011-07-15T06:15:44Z</time>
  <speed>5.450000</speed>
</trkpt>
<trkpt lat="32.722801208" lon="35.031814575">
  <ele>318.447754</ele>
  <time>2011-07-15T06:15:45Z</time>
  <speed>5.030000</speed>
</trkpt>
<trkpt lat="32.722782135" lon="35.031764984">
  <ele>318.455566</ele>
  <time>2011-07-15T06:15:46Z</time>
  <speed>4.810000</speed>
</trkpt>
<trkpt lat="32.722759247" lon="35.031723022">
  <ele>318.518066</ele>
  <time>2011-07-15T06:15:47Z</time>
  <speed>4.590000</speed>
</trkpt>
<trkpt lat="32.722732544" lon="35.031684875">
  <ele>317.064941</ele>
  <time>2011-07-15T06:15:48Z</time>
  <speed>5.200000</speed>
</trkpt>
<trkpt lat="32.722675323" lon="35.031658173">
  <ele>316.635254</ele>
  <time>2011-07-15T06:15:49Z</time>
  <speed>6.770000</speed>
</trkpt>
<trkpt lat="32.722606659" lon="35.031639099">
  <ele>317.080566</ele>
  <time>2011-07-15T06:15:50Z</time>
  <speed>7.570000</speed>
</trkpt>
<trkpt lat="32.722530365" lon="35.031631470">
  <ele>316.799316</ele>
  <time>2011-07-15T06:15:51Z</time>
  <speed>7.820000</speed>
</trkpt>
<trkpt lat="32.722450256" lon="35.031631470">
  <ele>315.939941</ele>
  <time>2011-07-15T06:15:52Z</time>
  <speed>8.780000</speed>
</trkpt>
<trkpt lat="32.722358704" lon="35.031639099">
  <ele>316.346191</ele>
  <time>2011-07-15T06:15:53Z</time>
  <speed>9.560000</speed>
</trkpt>
<trkpt lat="32.722263336" lon="35.031650543">
  <ele>316.650879</ele>
  <time>2011-07-15T06:15:54Z</time>
  <speed>9.570000</speed>
</trkpt>
<trkpt lat="32.722179413" lon="35.031661987">
  <ele>315.080566</ele>
  <time>2011-07-15T06:15:55Z</time>
  <speed>8.900000</speed>
</trkpt>
<trkpt lat="32.722106934" lon="35.031658173">
  <ele>312.900879</ele>
  <time>2011-07-15T06:15:56Z</time>
  <speed>7.000000</speed>
</trkpt>
<trkpt lat="32.722057343" lon="35.031631470">
  <ele>311.244629</ele>
  <time>2011-07-15T06:15:57Z</time>
  <speed>6.650000</speed>
</trkpt>
<trkpt lat="32.722007751" lon="35.031574249">
  <ele>310.916504</ele>
  <time>2011-07-15T06:15:58Z</time>
  <speed>7.200000</speed>
</trkpt>
<trkpt lat="32.721969604" lon="35.031513214">
  <ele>310.533691</ele>
  <time>2011-07-15T06:15:59Z</time>
  <speed>7.340000</speed>
</trkpt>
<trkpt lat="32.721935272" lon="35.031448364">
  <ele>309.697754</ele>
  <time>2011-07-15T06:16:00Z</time>
  <speed>7.200000</speed>
</trkpt>
<trkpt lat="32.721893311" lon="35.031383514">
  <ele>308.799316</ele>
  <time>2011-07-15T06:16:01Z</time>
  <speed>7.390000</speed>
</trkpt>
<trkpt lat="32.721847534" lon="35.031326294">
  <ele>308.439941</ele>
  <time>2011-07-15T06:16:02Z</time>
  <speed>6.990000</speed>
</trkpt>
<trkpt lat="32.721801758" lon="35.031276703">
  <ele>308.557129</ele>
  <time>2011-07-15T06:16:03Z</time>
  <speed>7.100000</speed>
</trkpt>
<trkpt lat="32.721755981" lon="35.031219482">
  <ele>308.158691</ele>
  <time>2011-07-15T06:16:04Z</time>
  <speed>7.150000</speed>
</trkpt>
<trkpt lat="32.721717834" lon="35.031158447">
  <ele>308.010254</ele>
  <time>2011-07-15T06:16:05Z</time>
  <speed>6.990000</speed>
</trkpt>
<trkpt lat="32.721679688" lon="35.031097412">
  <ele>308.197754</ele>
  <time>2011-07-15T06:16:06Z</time>
  <speed>6.940000</speed>
</trkpt>
<trkpt lat="32.721649170" lon="35.031036377">
  <ele>307.713379</ele>
  <time>2011-07-15T06:16:07Z</time>
  <speed>7.000000</speed>
</trkpt>
<trkpt lat="32.721622467" lon="35.030971527">
  <ele>307.268066</ele>
  <time>2011-07-15T06:16:08Z</time>
  <speed>6.830000</speed>
</trkpt>
<trkpt lat="32.721603394" lon="35.030906677">
  <ele>307.002441</ele>
  <time>2011-07-15T06:16:09Z</time>
  <speed>6.970000</speed>
</trkpt>
<trkpt lat="32.721588135" lon="35.030834198">
  <ele>306.229004</ele>
  <time>2011-07-15T06:16:10Z</time>
  <speed>6.970000</speed>
</trkpt>
<trkpt lat="32.721572876" lon="35.030757904">
  <ele>305.939941</ele>
  <time>2011-07-15T06:16:11Z</time>
  <speed>7.020000</speed>
</trkpt>
<trkpt lat="32.721549988" lon="35.030685425">
  <ele>305.713379</ele>
  <time>2011-07-15T06:16:12Z</time>
  <speed>7.260000</speed>
</trkpt>
<trkpt lat="32.721530914" lon="35.030612946">
  <ele>305.510254</ele>
  <time>2011-07-15T06:16:13Z</time>
  <speed>7.110000</speed>
</trkpt>
<trkpt lat="32.721504211" lon="35.030540466">
  <ele>305.393066</ele>
  <time>2011-07-15T06:16:14Z</time>
  <speed>7.120000</speed>
</trkpt>
<trkpt lat="32.721469879" lon="35.030479431">
  <ele>304.877441</ele>
  <time>2011-07-15T06:16:15Z</time>
  <speed>6.440000</speed>
</trkpt>
<trkpt lat="32.721439362" lon="35.030426025">
  <ele>304.674316</ele>
  <time>2011-07-15T06:16:16Z</time>
  <speed>6.450000</speed>
</trkpt>
<trkpt lat="32.721408844" lon="35.030368805">
  <ele>303.752441</ele>
  <time>2011-07-15T06:16:17Z</time>
  <speed>5.720000</speed>
</trkpt>
<trkpt lat="32.721385956" lon="35.030315399">
  <ele>303.361816</ele>
  <time>2011-07-15T06:16:18Z</time>
  <speed>5.420000</speed>
</trkpt>
<trkpt lat="32.721359253" lon="35.030265808">
  <ele>303.150879</ele>
  <time>2011-07-15T06:16:19Z</time>
  <speed>5.550000</speed>
</trkpt>
<trkpt lat="32.721336365" lon="35.030216217">
  <ele>302.369629</ele>
  <time>2011-07-15T06:16:20Z</time>
  <speed>5.260000</speed>
</trkpt>
<trkpt lat="32.721313477" lon="35.030162811">
  <ele>302.572754</ele>
  <time>2011-07-15T06:16:21Z</time>
  <speed>5.080000</speed>
</trkpt>
<trkpt lat="32.721298218" lon="35.030113220">
  <ele>301.979004</ele>
  <time>2011-07-15T06:16:22Z</time>
  <speed>4.760000</speed>
</trkpt>
<trkpt lat="32.721290588" lon="35.030075073">
  <ele>301.689941</ele>
  <time>2011-07-15T06:16:23Z</time>
  <speed>3.670000</speed>
</trkpt>
<trkpt lat="32.721279144" lon="35.030040741">
  <ele>301.361816</ele>
  <time>2011-07-15T06:16:24Z</time>
  <speed>3.360000</speed>
</trkpt>
<trkpt lat="32.721252441" lon="35.029998779">
  <ele>300.869629</ele>
  <time>2011-07-15T06:16:26Z</time>
  <speed>1.960000</speed>
</trkpt>
<trkpt lat="32.721229553" lon="35.029998779">
  <ele>302.416504</ele>
  <time>2011-07-15T06:19:47Z</time>
  <speed>0.060000</speed>
</trkpt>
<trkpt lat="32.721218109" lon="35.030006409">
  <ele>305.127441</ele>
  <time>2011-07-15T06:20:06Z</time>
  <speed>0.150000</speed>
</trkpt>
<trkpt lat="32.721202850" lon="35.030025482">
  <ele>307.377441</ele>
  <time>2011-07-15T06:20:17Z</time>
  <speed>0.220000</speed>
</trkpt>
<trkpt lat="32.721191406" lon="35.030040741">
  <ele>309.893066</ele>
  <time>2011-07-15T06:20:27Z</time>
  <speed>0.160000</speed>
</trkpt>
<trkpt lat="32.721179962" lon="35.030052185">
  <ele>312.455566</ele>
  <time>2011-07-15T06:20:37Z</time>
  <speed>0.160000</speed>
</trkpt>
<trkpt lat="32.721168518" lon="35.030056000">
  <ele>315.377441</ele>
  <time>2011-07-15T06:20:49Z</time>
  <speed>0.020000</speed>
</trkpt>
<trkpt lat="32.721130371" lon="35.030063629">
  <ele>316.260254</ele>
  <time>2011-07-15T06:23:22Z</time>
  <speed>2.220000</speed>
</trkpt>
<trkpt lat="32.721103668" lon="35.030075073">
  <ele>316.783691</ele>
  <time>2011-07-15T06:23:23Z</time>
  <speed>2.180000</speed>
</trkpt>
<trkpt lat="32.721057892" lon="35.030097961">
  <ele>316.471191</ele>
  <time>2011-07-15T06:23:25Z</time>
  <speed>2.740000</speed>
</trkpt>
<trkpt lat="32.721038818" lon="35.030117035">
  <ele>316.213379</ele>
  <time>2011-07-15T06:23:26Z</time>
  <speed>2.910000</speed>
</trkpt>
<trkpt lat="32.721015930" lon="35.030136108">
  <ele>315.908691</ele>
  <time>2011-07-15T06:23:27Z</time>
  <speed>3.190000</speed>
</trkpt>
<trkpt lat="32.720989227" lon="35.030166626">
  <ele>314.869629</ele>
  <time>2011-07-15T06:23:28Z</time>
  <speed>3.570000</speed>
</trkpt>
<trkpt lat="32.720962524" lon="35.030197144">
  <ele>314.549316</ele>
  <time>2011-07-15T06:23:29Z</time>
  <speed>3.810000</speed>
</trkpt>
<trkpt lat="32.720935822" lon="35.030227661">
  <ele>314.221191</ele>
  <time>2011-07-15T06:23:30Z</time>
  <speed>4.000000</speed>
</trkpt>
<trkpt lat="32.720909119" lon="35.030261993">
  <ele>313.611816</ele>
  <time>2011-07-15T06:23:31Z</time>
  <speed>3.730000</speed>
</trkpt>
<trkpt lat="32.720886230" lon="35.030292511">
  <ele>313.346191</ele>
  <time>2011-07-15T06:23:32Z</time>
  <speed>3.840000</speed>
</trkpt>
<trkpt lat="32.720859528" lon="35.030323029">
  <ele>313.182129</ele>
  <time>2011-07-15T06:23:33Z</time>
  <speed>3.940000</speed>
</trkpt>
<trkpt lat="32.720840454" lon="35.030357361">
  <ele>312.939941</ele>
  <time>2011-07-15T06:23:34Z</time>
  <speed>4.020000</speed>
</trkpt>
<trkpt lat="32.720813751" lon="35.030395508">
  <ele>312.611816</ele>
  <time>2011-07-15T06:23:35Z</time>
  <speed>4.360000</speed>
</trkpt>
<trkpt lat="32.720787048" lon="35.030429840">
  <ele>312.361816</ele>
  <time>2011-07-15T06:23:36Z</time>
  <speed>4.280000</speed>
</trkpt>
<trkpt lat="32.720752716" lon="35.030460358">
  <ele>312.229004</ele>
  <time>2011-07-15T06:23:37Z</time>
  <speed>4.630000</speed>
</trkpt>
<trkpt lat="32.720718384" lon="35.030487061">
  <ele>312.119629</ele>
  <time>2011-07-15T06:23:38Z</time>
  <speed>4.720000</speed>
</trkpt>
<trkpt lat="32.720680237" lon="35.030517578">
  <ele>312.064941</ele>
  <time>2011-07-15T06:23:39Z</time>
  <speed>5.070000</speed>
</trkpt>
<trkpt lat="32.720638275" lon="35.030544281">
  <ele>311.971191</ele>
  <time>2011-07-15T06:23:40Z</time>
  <speed>4.850000</speed>
</trkpt>
<trkpt lat="32.720596313" lon="35.030570984">
  <ele>311.979004</ele>
  <time>2011-07-15T06:23:41Z</time>
  <speed>4.670000</speed>
</trkpt>
<trkpt lat="32.720558167" lon="35.030601501">
  <ele>311.822754</ele>
  <time>2011-07-15T06:23:42Z</time>
  <speed>4.380000</speed>
</trkpt>
<trkpt lat="32.720523834" lon="35.030628204">
  <ele>311.760254</ele>
  <time>2011-07-15T06:23:43Z</time>
  <speed>4.460000</speed>
</trkpt>
<trkpt lat="32.720481873" lon="35.030651093">
  <ele>311.268066</ele>
  <time>2011-07-15T06:23:44Z</time>
  <speed>4.910000</speed>
</trkpt>
<trkpt lat="32.720439911" lon="35.030670166">
  <ele>311.072754</ele>
  <time>2011-07-15T06:23:45Z</time>
  <speed>4.570000</speed>
</trkpt>
<trkpt lat="32.720397949" lon="35.030693054">
  <ele>311.072754</ele>
  <time>2011-07-15T06:23:46Z</time>
  <speed>4.560000</speed>
</trkpt>
<trkpt lat="32.720371246" lon="35.030727386">
  <ele>311.455566</ele>
  <time>2011-07-15T06:23:47Z</time>
  <speed>4.160000</speed>
</trkpt>
<trkpt lat="32.720340729" lon="35.030750275">
  <ele>311.518066</ele>
  <time>2011-07-15T06:23:48Z</time>
  <speed>3.980000</speed>
</trkpt>
<trkpt lat="32.720317841" lon="35.030773163">
  <ele>310.533691</ele>
  <time>2011-07-15T06:23:49Z</time>
  <speed>3.750000</speed>
</trkpt>
<trkpt lat="32.720294952" lon="35.030799866">
  <ele>310.518066</ele>
  <time>2011-07-15T06:23:50Z</time>
  <speed>4.050000</speed>
</trkpt>
<trkpt lat="32.720275879" lon="35.030830383">
  <ele>308.752441</ele>
  <time>2011-07-15T06:23:51Z</time>
  <speed>3.750000</speed>
</trkpt>
<trkpt lat="32.720252991" lon="35.030864716">
  <ele>308.697754</ele>
  <time>2011-07-15T06:23:52Z</time>
  <speed>3.760000</speed>
</trkpt>
<trkpt lat="32.720230103" lon="35.030891418">
  <ele>308.338379</ele>
  <time>2011-07-15T06:23:53Z</time>
  <speed>3.600000</speed>
</trkpt>
<trkpt lat="32.720207214" lon="35.030918121">
  <ele>308.033691</ele>
  <time>2011-07-15T06:23:54Z</time>
  <speed>3.540000</speed>
</trkpt>
<trkpt lat="32.720180511" lon="35.030941010">
  <ele>307.807129</ele>
  <time>2011-07-15T06:23:55Z</time>
  <speed>3.410000</speed>
</trkpt>
<trkpt lat="32.720157623" lon="35.030963898">
  <ele>307.768066</ele>
  <time>2011-07-15T06:23:56Z</time>
  <speed>3.520000</speed>
</trkpt>
<trkpt lat="32.720130920" lon="35.030990601">
  <ele>307.455566</ele>
  <time>2011-07-15T06:23:57Z</time>
  <speed>3.760000</speed>
</trkpt>
<trkpt lat="32.720104218" lon="35.031013489">
  <ele>308.080566</ele>
  <time>2011-07-15T06:23:58Z</time>
  <speed>3.880000</speed>
</trkpt>
<trkpt lat="32.720077515" lon="35.031040192">
  <ele>308.150879</ele>
  <time>2011-07-15T06:23:59Z</time>
  <speed>3.760000</speed>
</trkpt>
<trkpt lat="32.720050812" lon="35.031066895">
  <ele>308.033691</ele>
  <time>2011-07-15T06:24:00Z</time>
  <speed>3.670000</speed>
</trkpt>
<trkpt lat="32.720020294" lon="35.031085968">
  <ele>308.064941</ele>
  <time>2011-07-15T06:24:01Z</time>
  <speed>3.610000</speed>
</trkpt>
<trkpt lat="32.719989777" lon="35.031112671">
  <ele>309.088379</ele>
  <time>2011-07-15T06:24:02Z</time>
  <speed>3.520000</speed>
</trkpt>
<trkpt lat="32.719963074" lon="35.031131744">
  <ele>309.182129</ele>
  <time>2011-07-15T06:24:03Z</time>
  <speed>3.300000</speed>
</trkpt>
<trkpt lat="32.719936371" lon="35.031143188">
  <ele>308.533691</ele>
  <time>2011-07-15T06:24:04Z</time>
  <speed>3.530000</speed>
</trkpt>
<trkpt lat="32.719905853" lon="35.031154633">
  <ele>307.939941</ele>
  <time>2011-07-15T06:24:05Z</time>
  <speed>3.550000</speed>
</trkpt>
<trkpt lat="32.719875336" lon="35.031169891">
  <ele>307.908691</ele>
  <time>2011-07-15T06:24:06Z</time>
  <speed>3.450000</speed>
</trkpt>
<trkpt lat="32.719848633" lon="35.031177521">
  <ele>306.830566</ele>
  <time>2011-07-15T06:24:07Z</time>
  <speed>3.240000</speed>
</trkpt>
<trkpt lat="32.719795227" lon="35.031192780">
  <ele>306.236816</ele>
  <time>2011-07-15T06:24:09Z</time>
  <speed>3.100000</speed>
</trkpt>
<trkpt lat="32.719745636" lon="35.031211853">
  <ele>305.580566</ele>
  <time>2011-07-15T06:24:11Z</time>
  <speed>3.190000</speed>
</trkpt>
<trkpt lat="32.719722748" lon="35.031234741">
  <ele>305.338379</ele>
  <time>2011-07-15T06:24:12Z</time>
  <speed>3.180000</speed>
</trkpt>
<trkpt lat="32.719699860" lon="35.031253815">
  <ele>305.721191</ele>
  <time>2011-07-15T06:24:13Z</time>
  <speed>3.350000</speed>
</trkpt>
<trkpt lat="32.719673157" lon="35.031276703">
  <ele>305.291504</ele>
  <time>2011-07-15T06:24:14Z</time>
  <speed>3.680000</speed>
</trkpt>
<trkpt lat="32.719642639" lon="35.031307220">
  <ele>306.002441</ele>
  <time>2011-07-15T06:24:15Z</time>
  <speed>3.750000</speed>
</trkpt>
<trkpt lat="32.719615936" lon="35.031337738">
  <ele>306.236816</ele>
  <time>2011-07-15T06:24:16Z</time>
  <speed>3.760000</speed>
</trkpt>
<trkpt lat="32.719596863" lon="35.031368256">
  <ele>305.932129</ele>
  <time>2011-07-15T06:24:17Z</time>
  <speed>3.670000</speed>
</trkpt>
<trkpt lat="32.719573975" lon="35.031391144">
  <ele>305.744629</ele>
  <time>2011-07-15T06:24:18Z</time>
  <speed>3.870000</speed>
</trkpt>
<trkpt lat="32.719543457" lon="35.031414032">
  <ele>305.760254</ele>
  <time>2011-07-15T06:24:19Z</time>
  <speed>4.150000</speed>
</trkpt>
<trkpt lat="32.719512939" lon="35.031440735">
  <ele>305.525879</ele>
  <time>2011-07-15T06:24:20Z</time>
  <speed>4.450000</speed>
</trkpt>
<trkpt lat="32.719478607" lon="35.031459808">
  <ele>305.393066</ele>
  <time>2011-07-15T06:24:21Z</time>
  <speed>4.390000</speed>
</trkpt>
<trkpt lat="32.719444275" lon="35.031482697">
  <ele>305.424316</ele>
  <time>2011-07-15T06:24:22Z</time>
  <speed>4.260000</speed>
</trkpt>
<trkpt lat="32.719406128" lon="35.031497955">
  <ele>305.783691</ele>
  <time>2011-07-15T06:24:23Z</time>
  <speed>4.270000</speed>
</trkpt>
<trkpt lat="32.719364166" lon="35.031513214">
  <ele>305.846191</ele>
  <time>2011-07-15T06:24:24Z</time>
  <speed>4.350000</speed>
</trkpt>
<trkpt lat="32.719329834" lon="35.031520844">
  <ele>305.338379</ele>
  <time>2011-07-15T06:24:25Z</time>
  <speed>4.220000</speed>
</trkpt>
<trkpt lat="32.719291687" lon="35.031536102">
  <ele>305.439941</ele>
  <time>2011-07-15T06:24:26Z</time>
  <speed>4.160000</speed>
</trkpt>
<trkpt lat="32.719261169" lon="35.031555176">
  <ele>306.174316</ele>
  <time>2011-07-15T06:24:27Z</time>
  <speed>3.780000</speed>
</trkpt>
<trkpt lat="32.719226837" lon="35.031574249">
  <ele>306.408691</ele>
  <time>2011-07-15T06:24:28Z</time>
  <speed>3.750000</speed>
</trkpt>
<trkpt lat="32.719200134" lon="35.031593323">
  <ele>306.330566</ele>
  <time>2011-07-15T06:24:29Z</time>
  <speed>3.630000</speed>
</trkpt>
<trkpt lat="32.719177246" lon="35.031616211">
  <ele>306.854004</ele>
  <time>2011-07-15T06:24:30Z</time>
  <speed>3.550000</speed>
</trkpt>
<trkpt lat="32.719150543" lon="35.031631470">
  <ele>307.104004</ele>
  <time>2011-07-15T06:24:31Z</time>
  <speed>3.470000</speed>
</trkpt>
<trkpt lat="32.719120026" lon="35.031646729">
  <ele>307.064941</ele>
  <time>2011-07-15T06:24:32Z</time>
  <speed>3.620000</speed>
</trkpt>
<trkpt lat="32.719089508" lon="35.031669617">
  <ele>307.588379</ele>
  <time>2011-07-15T06:24:33Z</time>
  <speed>3.650000</speed>
</trkpt>
<trkpt lat="32.719058990" lon="35.031684875">
  <ele>307.939941</ele>
  <time>2011-07-15T06:24:34Z</time>
  <speed>3.800000</speed>
</trkpt>
<trkpt lat="32.719028473" lon="35.031700134">
  <ele>307.557129</ele>
  <time>2011-07-15T06:24:35Z</time>
  <speed>3.590000</speed>
</trkpt>
<trkpt lat="32.718997955" lon="35.031715393">
  <ele>307.275879</ele>
  <time>2011-07-15T06:24:36Z</time>
  <speed>3.740000</speed>
</trkpt>
<trkpt lat="32.718971252" lon="35.031730652">
  <ele>307.150879</ele>
  <time>2011-07-15T06:24:37Z</time>
  <speed>3.640000</speed>
</trkpt>
<trkpt lat="32.718944550" lon="35.031745911">
  <ele>307.588379</ele>
  <time>2011-07-15T06:24:38Z</time>
  <speed>3.690000</speed>
</trkpt>
<trkpt lat="32.718910217" lon="35.031761169">
  <ele>307.525879</ele>
  <time>2011-07-15T06:24:39Z</time>
  <speed>3.830000</speed>
</trkpt>
<trkpt lat="32.718879700" lon="35.031780243">
  <ele>307.877441</ele>
  <time>2011-07-15T06:24:40Z</time>
  <speed>3.870000</speed>
</trkpt>
<trkpt lat="32.718852997" lon="35.031803131">
  <ele>308.197754</ele>
  <time>2011-07-15T06:24:41Z</time>
  <speed>3.790000</speed>
</trkpt>
<trkpt lat="32.718826294" lon="35.031826019">
  <ele>308.604004</ele>
  <time>2011-07-15T06:24:42Z</time>
  <speed>3.800000</speed>
</trkpt>
<trkpt lat="32.718795776" lon="35.031848907">
  <ele>308.916504</ele>
  <time>2011-07-15T06:24:43Z</time>
  <speed>3.770000</speed>
</trkpt>
<trkpt lat="32.718765259" lon="35.031864166">
  <ele>308.744629</ele>
  <time>2011-07-15T06:24:44Z</time>
  <speed>3.730000</speed>
</trkpt>
<trkpt lat="32.718738556" lon="35.031875610">
  <ele>307.174316</ele>
  <time>2011-07-15T06:24:45Z</time>
  <speed>3.580000</speed>
</trkpt>
<trkpt lat="32.718704224" lon="35.031898499">
  <ele>307.627441</ele>
  <time>2011-07-15T06:24:46Z</time>
  <speed>3.750000</speed>
</trkpt>
<trkpt lat="32.718673706" lon="35.031917572">
  <ele>307.619629</ele>
  <time>2011-07-15T06:24:47Z</time>
  <speed>3.670000</speed>
</trkpt>
<trkpt lat="32.718647003" lon="35.031932831">
  <ele>306.729004</ele>
  <time>2011-07-15T06:24:48Z</time>
  <speed>3.730000</speed>
</trkpt>
<trkpt lat="32.718616486" lon="35.031951904">
  <ele>306.822754</ele>
  <time>2011-07-15T06:24:49Z</time>
  <speed>3.600000</speed>
</trkpt>
<trkpt lat="32.718593597" lon="35.031974792">
  <ele>306.854004</ele>
  <time>2011-07-15T06:24:50Z</time>
  <speed>3.610000</speed>
</trkpt>
<trkpt lat="32.718563080" lon="35.032001495">
  <ele>306.682129</ele>
  <time>2011-07-15T06:24:51Z</time>
  <speed>3.690000</speed>
</trkpt>
<trkpt lat="32.718536377" lon="35.032020569">
  <ele>306.588379</ele>
  <time>2011-07-15T06:24:52Z</time>
  <speed>3.750000</speed>
</trkpt>
<trkpt lat="32.718513489" lon="35.032043457">
  <ele>306.549316</ele>
  <time>2011-07-15T06:24:53Z</time>
  <speed>3.610000</speed>
</trkpt>
<trkpt lat="32.718486786" lon="35.032070160">
  <ele>306.744629</ele>
  <time>2011-07-15T06:24:54Z</time>
  <speed>3.780000</speed>
</trkpt>
<trkpt lat="32.718456268" lon="35.032096863">
  <ele>306.689941</ele>
  <time>2011-07-15T06:24:55Z</time>
  <speed>3.700000</speed>
</trkpt>
<trkpt lat="32.718429565" lon="35.032123566">
  <ele>308.119629</ele>
  <time>2011-07-15T06:24:56Z</time>
  <speed>3.590000</speed>
</trkpt>
<trkpt lat="32.718399048" lon="35.032150269">
  <ele>307.900879</ele>
  <time>2011-07-15T06:24:57Z</time>
  <speed>3.750000</speed>
</trkpt>
<trkpt lat="32.718372345" lon="35.032169342">
  <ele>307.783691</ele>
  <time>2011-07-15T06:24:58Z</time>
  <speed>3.650000</speed>
</trkpt>
<trkpt lat="32.718345642" lon="35.032196045">
  <ele>308.025879</ele>
  <time>2011-07-15T06:24:59Z</time>
  <speed>3.700000</speed>
</trkpt>
<trkpt lat="32.718315125" lon="35.032218933">
  <ele>308.721191</ele>
  <time>2011-07-15T06:25:00Z</time>
  <speed>3.840000</speed>
</trkpt>
<trkpt lat="32.718284607" lon="35.032230377">
  <ele>307.572754</ele>
  <time>2011-07-15T06:25:01Z</time>
  <speed>3.830000</speed>
</trkpt>
<trkpt lat="32.718250275" lon="35.032253265">
  <ele>308.205566</ele>
  <time>2011-07-15T06:25:02Z</time>
  <speed>3.710000</speed>
</trkpt>
<trkpt lat="32.718227386" lon="35.032268524">
  <ele>307.314941</ele>
  <time>2011-07-15T06:25:03Z</time>
  <speed>3.660000</speed>
</trkpt>
<trkpt lat="32.718193054" lon="35.032283783">
  <ele>307.627441</ele>
  <time>2011-07-15T06:25:04Z</time>
  <speed>3.880000</speed>
</trkpt>
<trkpt lat="32.718143463" lon="35.032318115">
  <ele>306.205566</ele>
  <time>2011-07-15T06:25:06Z</time>
  <speed>3.830000</speed>
</trkpt>
<trkpt lat="32.718112946" lon="35.032333374">
  <ele>306.252441</ele>
  <time>2011-07-15T06:25:07Z</time>
  <speed>3.660000</speed>
</trkpt>
<trkpt lat="32.718082428" lon="35.032352448">
  <ele>306.791504</ele>
  <time>2011-07-15T06:25:08Z</time>
  <speed>3.730000</speed>
</trkpt>
<trkpt lat="32.718051910" lon="35.032375336">
  <ele>306.682129</ele>
  <time>2011-07-15T06:25:09Z</time>
  <speed>4.010000</speed>
</trkpt>
<trkpt lat="32.718017578" lon="35.032394409">
  <ele>306.971191</ele>
  <time>2011-07-15T06:25:10Z</time>
  <speed>3.870000</speed>
</trkpt>
<trkpt lat="32.717990875" lon="35.032413483">
  <ele>306.354004</ele>
  <time>2011-07-15T06:25:11Z</time>
  <speed>3.750000</speed>
</trkpt>
<trkpt lat="32.717960358" lon="35.032432556">
  <ele>306.400879</ele>
  <time>2011-07-15T06:25:12Z</time>
  <speed>3.820000</speed>
</trkpt>
<trkpt lat="32.717929840" lon="35.032447815">
  <ele>305.814941</ele>
  <time>2011-07-15T06:25:13Z</time>
  <speed>3.900000</speed>
</trkpt>
<trkpt lat="32.717899323" lon="35.032470703">
  <ele>306.213379</ele>
  <time>2011-07-15T06:25:14Z</time>
  <speed>3.810000</speed>
</trkpt>
<trkpt lat="32.717868805" lon="35.032489777">
  <ele>305.729004</ele>
  <time>2011-07-15T06:25:15Z</time>
  <speed>3.660000</speed>
</trkpt>
<trkpt lat="32.717838287" lon="35.032508850">
  <ele>304.971191</ele>
  <time>2011-07-15T06:25:16Z</time>
  <speed>3.640000</speed>
</trkpt>
<trkpt lat="32.717811584" lon="35.032527924">
  <ele>305.557129</ele>
  <time>2011-07-15T06:25:17Z</time>
  <speed>3.590000</speed>
</trkpt>
<trkpt lat="32.717784882" lon="35.032550812">
  <ele>305.385254</ele>
  <time>2011-07-15T06:25:18Z</time>
  <speed>3.780000</speed>
</trkpt>
<trkpt lat="32.717758179" lon="35.032573700">
  <ele>305.400879</ele>
  <time>2011-07-15T06:25:19Z</time>
  <speed>3.790000</speed>
</trkpt>
<trkpt lat="32.717731476" lon="35.032596588">
  <ele>305.541504</ele>
  <time>2011-07-15T06:25:20Z</time>
  <speed>3.720000</speed>
</trkpt>
<trkpt lat="32.717704773" lon="35.032615662">
  <ele>305.533691</ele>
  <time>2011-07-15T06:25:21Z</time>
  <speed>3.640000</speed>
</trkpt>
<trkpt lat="32.717674255" lon="35.032638550">
  <ele>305.471191</ele>
  <time>2011-07-15T06:25:22Z</time>
  <speed>3.660000</speed>
</trkpt>
<trkpt lat="32.717647552" lon="35.032665253">
  <ele>306.416504</ele>
  <time>2011-07-15T06:25:23Z</time>
  <speed>3.690000</speed>
</trkpt>
<trkpt lat="32.717620850" lon="35.032691956">
  <ele>306.689941</ele>
  <time>2011-07-15T06:25:24Z</time>
  <speed>3.720000</speed>
</trkpt>
<trkpt lat="32.717590332" lon="35.032711029">
  <ele>306.229004</ele>
  <time>2011-07-15T06:25:25Z</time>
  <speed>3.750000</speed>
</trkpt>
<trkpt lat="32.717563629" lon="35.032733917">
  <ele>306.885254</ele>
  <time>2011-07-15T06:25:26Z</time>
  <speed>3.750000</speed>
</trkpt>
<trkpt lat="32.717536926" lon="35.032752991">
  <ele>306.994629</ele>
  <time>2011-07-15T06:25:27Z</time>
  <speed>3.730000</speed>
</trkpt>
<trkpt lat="32.717514038" lon="35.032775879">
  <ele>306.400879</ele>
  <time>2011-07-15T06:25:28Z</time>
  <speed>3.730000</speed>
</trkpt>
<trkpt lat="32.717487335" lon="35.032798767">
  <ele>306.447754</ele>
  <time>2011-07-15T06:25:29Z</time>
  <speed>3.660000</speed>
</trkpt>
<trkpt lat="32.717460632" lon="35.032821655">
  <ele>306.322754</ele>
  <time>2011-07-15T06:25:30Z</time>
  <speed>3.640000</speed>
</trkpt>
<trkpt lat="32.717437744" lon="35.032840729">
  <ele>306.072754</ele>
  <time>2011-07-15T06:25:31Z</time>
  <speed>3.450000</speed>
</trkpt>
<trkpt lat="32.717411041" lon="35.032867432">
  <ele>306.088379</ele>
  <time>2011-07-15T06:25:32Z</time>
  <speed>3.830000</speed>
</trkpt>
<trkpt lat="32.717384338" lon="35.032890320">
  <ele>306.072754</ele>
  <time>2011-07-15T06:25:33Z</time>
  <speed>3.790000</speed>
</trkpt>
<trkpt lat="32.717357635" lon="35.032917023">
  <ele>305.705566</ele>
  <time>2011-07-15T06:25:34Z</time>
  <speed>3.750000</speed>
</trkpt>
<trkpt lat="32.717334747" lon="35.032939911">
  <ele>305.338379</ele>
  <time>2011-07-15T06:25:35Z</time>
  <speed>3.780000</speed>
</trkpt>
<trkpt lat="32.717308044" lon="35.032966614">
  <ele>305.197754</ele>
  <time>2011-07-15T06:25:36Z</time>
  <speed>3.620000</speed>
</trkpt>
<trkpt lat="32.717285156" lon="35.032997131">
  <ele>304.533691</ele>
  <time>2011-07-15T06:25:37Z</time>
  <speed>3.450000</speed>
</trkpt>
<trkpt lat="32.717262268" lon="35.033023834">
  <ele>304.354004</ele>
  <time>2011-07-15T06:25:38Z</time>
  <speed>3.280000</speed>
</trkpt>
<trkpt lat="32.717239380" lon="35.033054352">
  <ele>304.650879</ele>
  <time>2011-07-15T06:25:39Z</time>
  <speed>3.000000</speed>
</trkpt>
<trkpt lat="32.717224121" lon="35.033084869">
  <ele>304.471191</ele>
  <time>2011-07-15T06:25:40Z</time>
  <speed>3.200000</speed>
</trkpt>
<trkpt lat="32.717201233" lon="35.033111572">
  <ele>303.916504</ele>
  <time>2011-07-15T06:25:41Z</time>
  <speed>3.420000</speed>
</trkpt>
<trkpt lat="32.717182159" lon="35.033142090">
  <ele>303.619629</ele>
  <time>2011-07-15T06:25:42Z</time>
  <speed>3.440000</speed>
</trkpt>
<trkpt lat="32.717159271" lon="35.033168793">
  <ele>303.510254</ele>
  <time>2011-07-15T06:25:43Z</time>
  <speed>3.350000</speed>
</trkpt>
<trkpt lat="32.717136383" lon="35.033191681">
  <ele>303.143066</ele>
  <time>2011-07-15T06:25:44Z</time>
  <speed>3.150000</speed>
</trkpt>
<trkpt lat="32.717117310" lon="35.033214569">
  <ele>303.033691</ele>
  <time>2011-07-15T06:25:45Z</time>
  <speed>3.060000</speed>
</trkpt>
<trkpt lat="32.717098236" lon="35.033241272">
  <ele>302.846191</ele>
  <time>2011-07-15T06:25:46Z</time>
  <speed>3.290000</speed>
</trkpt>
<trkpt lat="32.717079163" lon="35.033267975">
  <ele>303.033691</ele>
  <time>2011-07-15T06:25:47Z</time>
  <speed>3.080000</speed>
</trkpt>
<trkpt lat="32.717063904" lon="35.033294678">
  <ele>303.783691</ele>
  <time>2011-07-15T06:25:48Z</time>
  <speed>3.180000</speed>
</trkpt>
<trkpt lat="32.717048645" lon="35.033329010">
  <ele>303.830566</ele>
  <time>2011-07-15T06:25:49Z</time>
  <speed>3.290000</speed>
</trkpt>
<trkpt lat="32.717025757" lon="35.033359528">
  <ele>304.729004</ele>
  <time>2011-07-15T06:25:50Z</time>
  <speed>3.260000</speed>
</trkpt>
<trkpt lat="32.717006683" lon="35.033390045">
  <ele>305.189941</ele>
  <time>2011-07-15T06:25:51Z</time>
  <speed>3.190000</speed>
</trkpt>
<trkpt lat="32.716976166" lon="35.033432007">
  <ele>304.439941</ele>
  <time>2011-07-15T06:25:53Z</time>
  <speed>2.820000</speed>
</trkpt>
<trkpt lat="32.716934204" lon="35.033458710">
  <ele>305.150879</ele>
  <time>2011-07-15T06:25:55Z</time>
  <speed>2.750000</speed>
</trkpt>
<trkpt lat="32.716907501" lon="35.033451080">
  <ele>306.049316</ele>
  <time>2011-07-15T06:25:56Z</time>
  <speed>2.900000</speed>
</trkpt>
<trkpt lat="32.716880798" lon="35.033439636">
  <ele>305.033691</ele>
  <time>2011-07-15T06:25:57Z</time>
  <speed>3.730000</speed>
</trkpt>
<trkpt lat="32.716846466" lon="35.033416748">
  <ele>305.104004</ele>
  <time>2011-07-15T06:25:58Z</time>
  <speed>4.880000</speed>
</trkpt>
<trkpt lat="32.716796875" lon="35.033390045">
  <ele>305.713379</ele>
  <time>2011-07-15T06:25:59Z</time>
  <speed>5.690000</speed>
</trkpt>
<trkpt lat="32.716762543" lon="35.033351898">
  <ele>305.322754</ele>
  <time>2011-07-15T06:26:00Z</time>
  <speed>5.490000</speed>
</trkpt>
<trkpt lat="32.716728210" lon="35.033302307">
  <ele>306.135254</ele>
  <time>2011-07-15T06:26:01Z</time>
  <speed>5.400000</speed>
</trkpt>
<trkpt lat="32.716690063" lon="35.033260345">
  <ele>308.854004</ele>
  <time>2011-07-15T06:26:02Z</time>
  <speed>4.930000</speed>
</trkpt>
<trkpt lat="32.716670990" lon="35.033206940">
  <ele>308.189941</ele>
  <time>2011-07-15T06:26:03Z</time>
  <speed>4.280000</speed>
</trkpt>
<trkpt lat="32.716648102" lon="35.033164978">
  <ele>308.189941</ele>
  <time>2011-07-15T06:26:04Z</time>
  <speed>4.240000</speed>
</trkpt>
<trkpt lat="32.716617584" lon="35.033134460">
  <ele>308.330566</ele>
  <time>2011-07-15T06:26:05Z</time>
  <speed>4.190000</speed>
</trkpt>
<trkpt lat="32.716587067" lon="35.033103943">
  <ele>307.057129</ele>
  <time>2011-07-15T06:26:06Z</time>
  <speed>3.370000</speed>
</trkpt>
<trkpt lat="32.716560364" lon="35.033092499">
  <ele>306.932129</ele>
  <time>2011-07-15T06:26:07Z</time>
  <speed>2.940000</speed>
</trkpt>
<trkpt lat="32.716526031" lon="35.033088684">
  <ele>306.869629</ele>
  <time>2011-07-15T06:26:08Z</time>
  <speed>2.710000</speed>
</trkpt>
<trkpt lat="32.716495514" lon="35.033088684">
  <ele>307.307129</ele>
  <time>2011-07-15T06:26:09Z</time>
  <speed>3.170000</speed>
</trkpt>
<trkpt lat="32.716461182" lon="35.033107758">
  <ele>307.814941</ele>
  <time>2011-07-15T06:26:10Z</time>
  <speed>3.010000</speed>
</trkpt>
<trkpt lat="32.716430664" lon="35.033119202">
  <ele>308.533691</ele>
  <time>2011-07-15T06:26:11Z</time>
  <speed>3.330000</speed>
</trkpt>
<trkpt lat="32.716400146" lon="35.033126831">
  <ele>308.611816</ele>
  <time>2011-07-15T06:26:12Z</time>
  <speed>3.340000</speed>
</trkpt>
<trkpt lat="32.716365814" lon="35.033134460">
  <ele>308.885254</ele>
  <time>2011-07-15T06:26:13Z</time>
  <speed>3.380000</speed>
</trkpt>
<trkpt lat="32.716331482" lon="35.033142090">
  <ele>309.369629</ele>
  <time>2011-07-15T06:26:14Z</time>
  <speed>2.720000</speed>
</trkpt>
<trkpt lat="32.716278076" lon="35.033161163">
  <ele>309.455566</ele>
  <time>2011-07-15T06:26:16Z</time>
  <speed>2.980000</speed>
</trkpt>
<trkpt lat="32.716243744" lon="35.033164978">
  <ele>309.736816</ele>
  <time>2011-07-15T06:26:17Z</time>
  <speed>3.060000</speed>
</trkpt>
<trkpt lat="32.716220856" lon="35.033184052">
  <ele>309.416504</ele>
  <time>2011-07-15T06:26:18Z</time>
  <speed>3.180000</speed>
</trkpt>
<trkpt lat="32.716190338" lon="35.033195496">
  <ele>310.025879</ele>
  <time>2011-07-15T06:26:19Z</time>
  <speed>3.170000</speed>
</trkpt>
<trkpt lat="32.716163635" lon="35.033206940">
  <ele>310.424316</ele>
  <time>2011-07-15T06:26:20Z</time>
  <speed>3.050000</speed>
</trkpt>
<trkpt lat="32.716136932" lon="35.033229828">
  <ele>310.049316</ele>
  <time>2011-07-15T06:26:21Z</time>
  <speed>3.250000</speed>
</trkpt>
<trkpt lat="32.716114044" lon="35.033245087">
  <ele>310.119629</ele>
  <time>2011-07-15T06:26:22Z</time>
  <speed>3.140000</speed>
</trkpt>
<trkpt lat="32.716079712" lon="35.033256531">
  <ele>310.064941</ele>
  <time>2011-07-15T06:26:23Z</time>
  <speed>3.490000</speed>
</trkpt>
<trkpt lat="32.716049194" lon="35.033271790">
  <ele>310.518066</ele>
  <time>2011-07-15T06:26:24Z</time>
  <speed>3.660000</speed>
</trkpt>
<trkpt lat="32.716018677" lon="35.033283234">
  <ele>310.502441</ele>
  <time>2011-07-15T06:26:25Z</time>
  <speed>3.210000</speed>
</trkpt>
<trkpt lat="32.715991974" lon="35.033298492">
  <ele>310.932129</ele>
  <time>2011-07-15T06:26:26Z</time>
  <speed>2.970000</speed>
</trkpt>
<trkpt lat="32.715969086" lon="35.033313751">
  <ele>310.924316</ele>
  <time>2011-07-15T06:26:27Z</time>
  <speed>3.570000</speed>
</trkpt>
<trkpt lat="32.715938568" lon="35.033325195">
  <ele>310.479004</ele>
  <time>2011-07-15T06:26:28Z</time>
  <speed>3.760000</speed>
</trkpt>
<trkpt lat="32.715908051" lon="35.033340454">
  <ele>310.471191</ele>
  <time>2011-07-15T06:26:29Z</time>
  <speed>3.880000</speed>
</trkpt>
<trkpt lat="32.715873718" lon="35.033344269">
  <ele>310.416504</ele>
  <time>2011-07-15T06:26:30Z</time>
  <speed>3.970000</speed>
</trkpt>
<trkpt lat="32.715839386" lon="35.033355713">
  <ele>310.018066</ele>
  <time>2011-07-15T06:26:31Z</time>
  <speed>4.110000</speed>
</trkpt>
<trkpt lat="32.715808868" lon="35.033355713">
  <ele>309.260254</ele>
  <time>2011-07-15T06:26:32Z</time>
  <speed>3.740000</speed>
</trkpt>
<trkpt lat="32.715770721" lon="35.033355713">
  <ele>309.775879</ele>
  <time>2011-07-15T06:26:33Z</time>
  <speed>3.950000</speed>
</trkpt>
<trkpt lat="32.715728760" lon="35.033359528">
  <ele>312.447754</ele>
  <time>2011-07-15T06:26:34Z</time>
  <speed>3.600000</speed>
</trkpt>
<trkpt lat="32.715694427" lon="35.033351898">
  <ele>313.377441</ele>
  <time>2011-07-15T06:26:35Z</time>
  <speed>3.600000</speed>
</trkpt>
<trkpt lat="32.715663910" lon="35.033336639">
  <ele>313.549316</ele>
  <time>2011-07-15T06:26:36Z</time>
  <speed>3.340000</speed>
</trkpt>
<trkpt lat="32.715641022" lon="35.033283234">
  <ele>313.986816</ele>
  <time>2011-07-15T06:26:38Z</time>
  <speed>3.220000</speed>
</trkpt>
<trkpt lat="32.715629578" lon="35.033252716">
  <ele>314.814941</ele>
  <time>2011-07-15T06:26:39Z</time>
  <speed>3.450000</speed>
</trkpt>
<trkpt lat="32.715618134" lon="35.033218384">
  <ele>315.268066</ele>
  <time>2011-07-15T06:26:40Z</time>
  <speed>3.270000</speed>
</trkpt>
<trkpt lat="32.715606689" lon="35.033187866">
  <ele>315.650879</ele>
  <time>2011-07-15T06:26:41Z</time>
  <speed>3.030000</speed>
</trkpt>
<trkpt lat="32.715591431" lon="35.033161163">
  <ele>316.221191</ele>
  <time>2011-07-15T06:26:42Z</time>
  <speed>3.120000</speed>
</trkpt>
<trkpt lat="32.715576172" lon="35.033130646">
  <ele>317.010254</ele>
  <time>2011-07-15T06:26:43Z</time>
  <speed>3.030000</speed>
</trkpt>
<trkpt lat="32.715560913" lon="35.033103943">
  <ele>317.916504</ele>
  <time>2011-07-15T06:26:44Z</time>
  <speed>3.230000</speed>
</trkpt>
<trkpt lat="32.715549469" lon="35.033069611">
  <ele>317.619629</ele>
  <time>2011-07-15T06:26:45Z</time>
  <speed>3.090000</speed>
</trkpt>
<trkpt lat="32.715538025" lon="35.033042908">
  <ele>317.369629</ele>
  <time>2011-07-15T06:26:46Z</time>
  <speed>3.080000</speed>
</trkpt>
<trkpt lat="32.715503693" lon="35.032993317">
  <ele>317.096191</ele>
  <time>2011-07-15T06:26:48Z</time>
  <speed>2.690000</speed>
</trkpt>
<trkpt lat="32.715473175" lon="35.032947540">
  <ele>317.986816</ele>
  <time>2011-07-15T06:26:50Z</time>
  <speed>2.620000</speed>
</trkpt>
<trkpt lat="32.715442657" lon="35.032913208">
  <ele>319.322754</ele>
  <time>2011-07-15T06:26:52Z</time>
  <speed>2.580000</speed>
</trkpt>
<trkpt lat="32.715419769" lon="35.032867432">
  <ele>319.885254</ele>
  <time>2011-07-15T06:26:54Z</time>
  <speed>2.290000</speed>
</trkpt>
<trkpt lat="32.715389252" lon="35.032829285">
  <ele>320.299316</ele>
  <time>2011-07-15T06:26:56Z</time>
  <speed>2.540000</speed>
</trkpt>
<trkpt lat="32.715347290" lon="35.032802582">
  <ele>320.822754</ele>
  <time>2011-07-15T06:26:58Z</time>
  <speed>2.770000</speed>
</trkpt>
<trkpt lat="32.715320587" lon="35.032779694">
  <ele>321.330566</ele>
  <time>2011-07-15T06:26:59Z</time>
  <speed>2.730000</speed>
</trkpt>
<trkpt lat="32.715301514" lon="35.032756805">
  <ele>322.268066</ele>
  <time>2011-07-15T06:27:00Z</time>
  <speed>2.750000</speed>
</trkpt>
<trkpt lat="32.715286255" lon="35.032733917">
  <ele>323.057129</ele>
  <time>2011-07-15T06:27:01Z</time>
  <speed>2.280000</speed>
</trkpt>
<trkpt lat="32.715267181" lon="35.032688141">
  <ele>323.955566</ele>
  <time>2011-07-15T06:27:03Z</time>
  <speed>2.240000</speed>
</trkpt>
<trkpt lat="32.715259552" lon="35.032642365">
  <ele>323.619629</ele>
  <time>2011-07-15T06:27:05Z</time>
  <speed>2.110000</speed>
</trkpt>
<trkpt lat="32.715244293" lon="35.032608032">
  <ele>323.885254</ele>
  <time>2011-07-15T06:27:07Z</time>
  <speed>2.120000</speed>
</trkpt>
<trkpt lat="32.715229034" lon="35.032562256">
  <ele>324.283691</ele>
  <time>2011-07-15T06:27:09Z</time>
  <speed>2.140000</speed>
</trkpt>
<trkpt lat="32.715209961" lon="35.032527924">
  <ele>323.885254</ele>
  <time>2011-07-15T06:27:11Z</time>
  <speed>1.980000</speed>
</trkpt>
<trkpt lat="32.715187073" lon="35.032485962">
  <ele>324.393066</ele>
  <time>2011-07-15T06:27:13Z</time>
  <speed>2.290000</speed>
</trkpt>
<trkpt lat="32.715175629" lon="35.032447815">
  <ele>324.182129</ele>
  <time>2011-07-15T06:27:15Z</time>
  <speed>2.090000</speed>
</trkpt>
<trkpt lat="32.715148926" lon="35.032413483">
  <ele>323.955566</ele>
  <time>2011-07-15T06:27:17Z</time>
  <speed>2.470000</speed>
</trkpt>
<trkpt lat="32.715122223" lon="35.032379150">
  <ele>323.479004</ele>
  <time>2011-07-15T06:27:19Z</time>
  <speed>2.370000</speed>
</trkpt>
<trkpt lat="32.715084076" lon="35.032344818">
  <ele>323.244629</ele>
  <time>2011-07-15T06:27:21Z</time>
  <speed>2.320000</speed>
</trkpt>
<trkpt lat="32.715065002" lon="35.032321930">
  <ele>323.072754</ele>
  <time>2011-07-15T06:27:22Z</time>
  <speed>2.370000</speed>
</trkpt>
<trkpt lat="32.715030670" lon="35.032279968">
  <ele>322.682129</ele>
  <time>2011-07-15T06:27:24Z</time>
  <speed>2.490000</speed>
</trkpt>
<trkpt lat="32.714996338" lon="35.032245636">
  <ele>322.518066</ele>
  <time>2011-07-15T06:27:26Z</time>
  <speed>2.350000</speed>
</trkpt>
<trkpt lat="32.714962006" lon="35.032207489">
  <ele>323.018066</ele>
  <time>2011-07-15T06:27:28Z</time>
  <speed>2.370000</speed>
</trkpt>
<trkpt lat="32.714939117" lon="35.032188416">
  <ele>324.135254</ele>
  <time>2011-07-15T06:27:29Z</time>
  <speed>2.560000</speed>
</trkpt>
<trkpt lat="32.714908600" lon="35.032150269">
  <ele>324.854004</ele>
  <time>2011-07-15T06:27:31Z</time>
  <speed>2.330000</speed>
</trkpt>
<trkpt lat="32.714881897" lon="35.032115936">
  <ele>325.369629</ele>
  <time>2011-07-15T06:27:33Z</time>
  <speed>1.990000</speed>
</trkpt>
<trkpt lat="32.714832306" lon="35.032108307">
  <ele>329.275879</ele>
  <time>2011-07-15T06:27:35Z</time>
  <speed>2.230000</speed>
</trkpt>
<trkpt lat="32.714805603" lon="35.032089233">
  <ele>330.119629</ele>
  <time>2011-07-15T06:27:37Z</time>
  <speed>1.870000</speed>
</trkpt>
<trkpt lat="32.714775085" lon="35.032058716">
  <ele>329.893066</ele>
  <time>2011-07-15T06:27:39Z</time>
  <speed>1.890000</speed>
</trkpt>
<trkpt lat="32.714744568" lon="35.032035828">
  <ele>329.314941</ele>
  <time>2011-07-15T06:27:41Z</time>
  <speed>1.440000</speed>
</trkpt>
<trkpt lat="32.714714050" lon="35.032028198">
  <ele>329.846191</ele>
  <time>2011-07-15T06:27:43Z</time>
  <speed>1.430000</speed>
</trkpt>
<trkpt lat="32.714683533" lon="35.032012939">
  <ele>330.213379</ele>
  <time>2011-07-15T06:27:45Z</time>
  <speed>1.810000</speed>
</trkpt>
<trkpt lat="32.714653015" lon="35.032005310">
  <ele>330.666504</ele>
  <time>2011-07-15T06:27:47Z</time>
  <speed>1.620000</speed>
</trkpt>
<trkpt lat="32.714622498" lon="35.031986237">
  <ele>330.775879</ele>
  <time>2011-07-15T06:27:49Z</time>
  <speed>1.660000</speed>
</trkpt>
<trkpt lat="32.714595795" lon="35.031974792">
  <ele>330.643066</ele>
  <time>2011-07-15T06:27:51Z</time>
  <speed>1.690000</speed>
</trkpt>
<trkpt lat="32.714561462" lon="35.031955719">
  <ele>330.932129</ele>
  <time>2011-07-15T06:27:53Z</time>
  <speed>1.820000</speed>
</trkpt>
<trkpt lat="32.714527130" lon="35.031951904">
  <ele>331.275879</ele>
  <time>2011-07-15T06:27:55Z</time>
  <speed>1.660000</speed>
</trkpt>
<trkpt lat="32.714500427" lon="35.031948090">
  <ele>330.939941</ele>
  <time>2011-07-15T06:27:57Z</time>
  <speed>1.530000</speed>
</trkpt>
<trkpt lat="32.714473724" lon="35.031948090">
  <ele>330.994629</ele>
  <time>2011-07-15T06:27:59Z</time>
  <speed>1.210000</speed>
</trkpt>
<trkpt lat="32.714443207" lon="35.031955719">
  <ele>331.908691</ele>
  <time>2011-07-15T06:28:01Z</time>
  <speed>1.440000</speed>
</trkpt>
<trkpt lat="32.714416504" lon="35.031963348">
  <ele>331.846191</ele>
  <time>2011-07-15T06:28:03Z</time>
  <speed>1.830000</speed>
</trkpt>
<trkpt lat="32.714378357" lon="35.031959534">
  <ele>333.338379</ele>
  <time>2011-07-15T06:28:05Z</time>
  <speed>1.450000</speed>
</trkpt>
<trkpt lat="32.714347839" lon="35.031951904">
  <ele>334.135254</ele>
  <time>2011-07-15T06:28:07Z</time>
  <speed>1.490000</speed>
</trkpt>
<trkpt lat="32.714317322" lon="35.031944275">
  <ele>334.041504</ele>
  <time>2011-07-15T06:28:09Z</time>
  <speed>1.720000</speed>
</trkpt>
<trkpt lat="32.714282990" lon="35.031948090">
  <ele>334.330566</ele>
  <time>2011-07-15T06:28:11Z</time>
  <speed>1.660000</speed>
</trkpt>
<trkpt lat="32.714244843" lon="35.031940460">
  <ele>335.674316</ele>
  <time>2011-07-15T06:28:14Z</time>
  <speed>1.480000</speed>
</trkpt>
<trkpt lat="32.714218140" lon="35.031929016">
  <ele>337.541504</ele>
  <time>2011-07-15T06:28:16Z</time>
  <speed>1.540000</speed>
</trkpt>
<trkpt lat="32.714191437" lon="35.031902313">
  <ele>337.986816</ele>
  <time>2011-07-15T06:28:18Z</time>
  <speed>1.550000</speed>
</trkpt>
<trkpt lat="32.714168549" lon="35.031883240">
  <ele>338.518066</ele>
  <time>2011-07-15T06:28:20Z</time>
  <speed>1.680000</speed>
</trkpt>
<trkpt lat="32.714145660" lon="35.031871796">
  <ele>339.057129</ele>
  <time>2011-07-15T06:28:22Z</time>
  <speed>1.340000</speed>
</trkpt>
<trkpt lat="32.714126587" lon="35.031848907">
  <ele>338.854004</ele>
  <time>2011-07-15T06:28:24Z</time>
  <speed>1.800000</speed>
</trkpt>
<trkpt lat="32.714099884" lon="35.031826019">
  <ele>339.689941</ele>
  <time>2011-07-15T06:28:26Z</time>
  <speed>2.010000</speed>
</trkpt>
<trkpt lat="32.714061737" lon="35.031803131">
  <ele>340.924316</ele>
  <time>2011-07-15T06:28:28Z</time>
  <speed>2.070000</speed>
</trkpt>
<trkpt lat="32.714031219" lon="35.031776428">
  <ele>341.830566</ele>
  <time>2011-07-15T06:28:30Z</time>
  <speed>1.900000</speed>
</trkpt>
<trkpt lat="32.713996887" lon="35.031753540">
  <ele>343.057129</ele>
  <time>2011-07-15T06:28:32Z</time>
  <speed>2.200000</speed>
</trkpt>
<trkpt lat="32.713966370" lon="35.031726837">
  <ele>343.416504</ele>
  <time>2011-07-15T06:28:34Z</time>
  <speed>2.190000</speed>
</trkpt>
<trkpt lat="32.713928223" lon="35.031700134">
  <ele>343.479004</ele>
  <time>2011-07-15T06:28:36Z</time>
  <speed>2.430000</speed>
</trkpt>
<trkpt lat="32.713890076" lon="35.031665802">
  <ele>343.955566</ele>
  <time>2011-07-15T06:28:38Z</time>
  <speed>2.290000</speed>
</trkpt>
<trkpt lat="32.713851929" lon="35.031627655">
  <ele>344.166504</ele>
  <time>2011-07-15T06:28:40Z</time>
  <speed>2.570000</speed>
</trkpt>
<trkpt lat="32.713821411" lon="35.031593323">
  <ele>344.150879</ele>
  <time>2011-07-15T06:28:42Z</time>
  <speed>2.290000</speed>
</trkpt>
<trkpt lat="32.713775635" lon="35.031566620">
  <ele>343.705566</ele>
  <time>2011-07-15T06:28:44Z</time>
  <speed>2.780000</speed>
</trkpt>
<trkpt lat="32.713752747" lon="35.031547546">
  <ele>342.971191</ele>
  <time>2011-07-15T06:28:45Z</time>
  <speed>3.180000</speed>
</trkpt>
<trkpt lat="32.713737488" lon="35.031524658">
  <ele>341.760254</ele>
  <time>2011-07-15T06:28:46Z</time>
  <speed>2.900000</speed>
</trkpt>
<trkpt lat="32.713691711" lon="35.031501770">
  <ele>341.846191</ele>
  <time>2011-07-15T06:28:48Z</time>
  <speed>2.500000</speed>
</trkpt>
<trkpt lat="32.713653564" lon="35.031478882">
  <ele>341.564941</ele>
  <time>2011-07-15T06:28:50Z</time>
  <speed>2.460000</speed>
</trkpt>
<trkpt lat="32.713611603" lon="35.031452179">
  <ele>340.869629</ele>
  <time>2011-07-15T06:28:52Z</time>
  <speed>2.640000</speed>
</trkpt>
<trkpt lat="32.713565826" lon="35.031429291">
  <ele>340.064941</ele>
  <time>2011-07-15T06:28:54Z</time>
  <speed>2.480000</speed>
</trkpt>
<trkpt lat="32.713535309" lon="35.031414032">
  <ele>339.908691</ele>
  <time>2011-07-15T06:28:56Z</time>
  <speed>2.130000</speed>
</trkpt>
<trkpt lat="32.713500977" lon="35.031402588">
  <ele>339.533691</ele>
  <time>2011-07-15T06:28:58Z</time>
  <speed>2.180000</speed>
</trkpt>
<trkpt lat="32.713462830" lon="35.031379700">
  <ele>339.510254</ele>
  <time>2011-07-15T06:29:00Z</time>
  <speed>2.420000</speed>
</trkpt>
<trkpt lat="32.713420868" lon="35.031372070">
  <ele>339.822754</ele>
  <time>2011-07-15T06:29:02Z</time>
  <speed>2.190000</speed>
</trkpt>
<trkpt lat="32.713378906" lon="35.031360626">
  <ele>339.268066</ele>
  <time>2011-07-15T06:29:04Z</time>
  <speed>1.990000</speed>
</trkpt>
<trkpt lat="32.713340759" lon="35.031364441">
  <ele>339.283691</ele>
  <time>2011-07-15T06:29:06Z</time>
  <speed>1.950000</speed>
</trkpt>
<trkpt lat="32.713302612" lon="35.031364441">
  <ele>340.432129</ele>
  <time>2011-07-15T06:29:08Z</time>
  <speed>1.860000</speed>
</trkpt>
<trkpt lat="32.713264465" lon="35.031360626">
  <ele>340.447754</ele>
  <time>2011-07-15T06:29:10Z</time>
  <speed>1.750000</speed>
</trkpt>
<trkpt lat="32.713233948" lon="35.031372070">
  <ele>343.400879</ele>
  <time>2011-07-15T06:29:11Z</time>
  <speed>1.990000</speed>
</trkpt>
<trkpt lat="32.713191986" lon="35.031372070">
  <ele>344.205566</ele>
  <time>2011-07-15T06:29:13Z</time>
  <speed>2.220000</speed>
</trkpt>
<trkpt lat="32.713153839" lon="35.031356812">
  <ele>344.197754</ele>
  <time>2011-07-15T06:29:15Z</time>
  <speed>1.950000</speed>
</trkpt>
<trkpt lat="32.713119507" lon="35.031345367">
  <ele>345.150879</ele>
  <time>2011-07-15T06:29:17Z</time>
  <speed>2.130000</speed>
</trkpt>
<trkpt lat="32.713081360" lon="35.031333923">
  <ele>346.432129</ele>
  <time>2011-07-15T06:29:19Z</time>
  <speed>1.860000</speed>
</trkpt>
<trkpt lat="32.713039398" lon="35.031326294">
  <ele>347.338379</ele>
  <time>2011-07-15T06:29:21Z</time>
  <speed>2.120000</speed>
</trkpt>
<trkpt lat="32.712997437" lon="35.031322479">
  <ele>348.158691</ele>
  <time>2011-07-15T06:29:23Z</time>
  <speed>2.010000</speed>
</trkpt>
<trkpt lat="32.712963104" lon="35.031314850">
  <ele>349.197754</ele>
  <time>2011-07-15T06:29:25Z</time>
  <speed>1.900000</speed>
</trkpt>
<trkpt lat="32.712932587" lon="35.031303406">
  <ele>349.221191</ele>
  <time>2011-07-15T06:29:27Z</time>
  <speed>1.890000</speed>
</trkpt>
<trkpt lat="32.712894440" lon="35.031303406">
  <ele>348.979004</ele>
  <time>2011-07-15T06:29:29Z</time>
  <speed>1.930000</speed>
</trkpt>
<trkpt lat="32.712856293" lon="35.031299591">
  <ele>348.783691</ele>
  <time>2011-07-15T06:29:31Z</time>
  <speed>2.010000</speed>
</trkpt>
<trkpt lat="32.712818146" lon="35.031288147">
  <ele>349.166504</ele>
  <time>2011-07-15T06:29:33Z</time>
  <speed>1.650000</speed>
</trkpt>
<trkpt lat="32.712779999" lon="35.031284332">
  <ele>350.236816</ele>
  <time>2011-07-15T06:29:35Z</time>
  <speed>1.470000</speed>
</trkpt>
<trkpt lat="32.712757111" lon="35.031280518">
  <ele>352.580566</ele>
  <time>2011-07-15T06:29:36Z</time>
  <speed>1.590000</speed>
</trkpt>
<trkpt lat="32.712722778" lon="35.031284332">
  <ele>352.861816</ele>
  <time>2011-07-15T06:29:38Z</time>
  <speed>1.660000</speed>
</trkpt>
<trkpt lat="32.712692261" lon="35.031276703">
  <ele>353.135254</ele>
  <time>2011-07-15T06:29:40Z</time>
  <speed>1.890000</speed>
</trkpt>
<trkpt lat="32.712657928" lon="35.031272888">
  <ele>353.525879</ele>
  <time>2011-07-15T06:29:42Z</time>
  <speed>1.940000</speed>
</trkpt>
<trkpt lat="32.712623596" lon="35.031272888">
  <ele>353.221191</ele>
  <time>2011-07-15T06:29:44Z</time>
  <speed>2.070000</speed>
</trkpt>
<trkpt lat="32.712589264" lon="35.031269073">
  <ele>354.393066</ele>
  <time>2011-07-15T06:29:46Z</time>
  <speed>1.720000</speed>
</trkpt>
<trkpt lat="32.712558746" lon="35.031269073">
  <ele>354.799316</ele>
  <time>2011-07-15T06:29:48Z</time>
  <speed>1.380000</speed>
</trkpt>
<trkpt lat="32.712524414" lon="35.031261444">
  <ele>354.557129</ele>
  <time>2011-07-15T06:29:51Z</time>
  <speed>1.310000</speed>
</trkpt>
<trkpt lat="32.712497711" lon="35.031257629">
  <ele>354.580566</ele>
  <time>2011-07-15T06:29:53Z</time>
  <speed>1.570000</speed>
</trkpt>
<trkpt lat="32.712467194" lon="35.031242371">
  <ele>354.916504</ele>
  <time>2011-07-15T06:29:55Z</time>
  <speed>1.630000</speed>
</trkpt>
<trkpt lat="32.712429047" lon="35.031230927">
  <ele>355.197754</ele>
  <time>2011-07-15T06:29:58Z</time>
  <speed>1.580000</speed>
</trkpt>
<trkpt lat="32.712398529" lon="35.031223297">
  <ele>355.572754</ele>
  <time>2011-07-15T06:30:00Z</time>
  <speed>1.670000</speed>
</trkpt>
<trkpt lat="32.712368011" lon="35.031215668">
  <ele>355.729004</ele>
  <time>2011-07-15T06:30:02Z</time>
  <speed>1.540000</speed>
</trkpt>
<trkpt lat="32.712337494" lon="35.031219482">
  <ele>356.932129</ele>
  <time>2011-07-15T06:30:04Z</time>
  <speed>1.690000</speed>
</trkpt>
<trkpt lat="32.712299347" lon="35.031204224">
  <ele>357.174316</ele>
  <time>2011-07-15T06:30:07Z</time>
  <speed>1.480000</speed>
</trkpt>
<trkpt lat="32.712265015" lon="35.031177521">
  <ele>358.377441</ele>
  <time>2011-07-15T06:30:10Z</time>
  <speed>1.750000</speed>
</trkpt>
<trkpt lat="32.712242126" lon="35.031154633">
  <ele>358.471191</ele>
  <time>2011-07-15T06:30:12Z</time>
  <speed>1.640000</speed>
</trkpt>
<trkpt lat="32.712215424" lon="35.031143188">
  <ele>358.455566</ele>
  <time>2011-07-15T06:30:14Z</time>
  <speed>1.650000</speed>
</trkpt>
<trkpt lat="32.712188721" lon="35.031127930">
  <ele>358.736816</ele>
  <time>2011-07-15T06:30:16Z</time>
  <speed>1.620000</speed>
</trkpt>
<trkpt lat="32.712154388" lon="35.031108856">
  <ele>358.096191</ele>
  <time>2011-07-15T06:30:19Z</time>
  <speed>1.490000</speed>
</trkpt>
<trkpt lat="32.712123871" lon="35.031108856">
  <ele>358.096191</ele>
  <time>2011-07-15T06:30:21Z</time>
  <speed>1.230000</speed>
</trkpt>
<trkpt lat="32.712097168" lon="35.031116486">
  <ele>358.627441</ele>
  <time>2011-07-15T06:30:23Z</time>
  <speed>1.380000</speed>
</trkpt>
<trkpt lat="32.712070465" lon="35.031120300">
  <ele>358.994629</ele>
  <time>2011-07-15T06:30:25Z</time>
  <speed>1.470000</speed>
</trkpt>
<trkpt lat="32.712036133" lon="35.031127930">
  <ele>359.236816</ele>
  <time>2011-07-15T06:30:27Z</time>
  <speed>1.690000</speed>
</trkpt>
<trkpt lat="32.712005615" lon="35.031127930">
  <ele>359.541504</ele>
  <time>2011-07-15T06:30:29Z</time>
  <speed>1.480000</speed>
</trkpt>
<trkpt lat="32.711975098" lon="35.031127930">
  <ele>359.666504</ele>
  <time>2011-07-15T06:30:31Z</time>
  <speed>1.460000</speed>
</trkpt>
<trkpt lat="32.711948395" lon="35.031143188">
  <ele>360.088379</ele>
  <time>2011-07-15T06:30:34Z</time>
  <speed>1.170000</speed>
</trkpt>
<trkpt lat="32.711906433" lon="35.031158447">
  <ele>361.158691</ele>
  <time>2011-07-15T06:30:38Z</time>
  <speed>0.590000</speed>
</trkpt>
<trkpt lat="32.711872101" lon="35.031158447">
  <ele>362.471191</ele>
  <time>2011-07-15T06:30:41Z</time>
  <speed>0.780000</speed>
</trkpt>
<trkpt lat="32.711841583" lon="35.031166077">
  <ele>361.971191</ele>
  <time>2011-07-15T06:30:46Z</time>
  <speed>0.860000</speed>
</trkpt>
<trkpt lat="32.711811066" lon="35.031162262">
  <ele>361.588379</ele>
  <time>2011-07-15T06:30:50Z</time>
  <speed>0.840000</speed>
</trkpt>
<trkpt lat="32.711784363" lon="35.031158447">
  <ele>361.244629</ele>
  <time>2011-07-15T06:30:54Z</time>
  <speed>0.860000</speed>
</trkpt>
<trkpt lat="32.711753845" lon="35.031154633">
  <ele>361.018066</ele>
  <time>2011-07-15T06:30:58Z</time>
  <speed>0.930000</speed>
</trkpt>
<trkpt lat="32.711727142" lon="35.031154633">
  <ele>361.119629</ele>
  <time>2011-07-15T06:31:01Z</time>
  <speed>0.790000</speed>
</trkpt>
<trkpt lat="32.711688995" lon="35.031166077">
  <ele>363.900879</ele>
  <time>2011-07-15T06:31:04Z</time>
  <speed>0.910000</speed>
</trkpt>
<trkpt lat="32.711658478" lon="35.031150818">
  <ele>364.744629</ele>
  <time>2011-07-15T06:31:07Z</time>
  <speed>1.050000</speed>
</trkpt>
<trkpt lat="32.711647034" lon="35.031116486">
  <ele>365.072754</ele>
  <time>2011-07-15T06:31:09Z</time>
  <speed>1.280000</speed>
</trkpt>
<trkpt lat="32.711616516" lon="35.031105042">
  <ele>365.830566</ele>
  <time>2011-07-15T06:31:12Z</time>
  <speed>1.030000</speed>
</trkpt>
<trkpt lat="32.711585999" lon="35.031101227">
  <ele>365.932129</ele>
  <time>2011-07-15T06:31:15Z</time>
  <speed>0.750000</speed>
</trkpt>
<trkpt lat="32.711566925" lon="35.031127930">
  <ele>366.072754</ele>
  <time>2011-07-15T06:31:17Z</time>
  <speed>1.270000</speed>
</trkpt>
<trkpt lat="32.711547852" lon="35.031162262">
  <ele>366.994629</ele>
  <time>2011-07-15T06:31:20Z</time>
  <speed>0.980000</speed>
</trkpt>
<trkpt lat="32.711540222" lon="35.031196594">
  <ele>368.135254</ele>
  <time>2011-07-15T06:31:22Z</time>
  <speed>1.290000</speed>
</trkpt>
<trkpt lat="32.711551666" lon="35.031230927">
  <ele>368.744629</ele>
  <time>2011-07-15T06:31:24Z</time>
  <speed>1.160000</speed>
</trkpt>
<trkpt lat="32.711582184" lon="35.031238556">
  <ele>369.674316</ele>
  <time>2011-07-15T06:31:27Z</time>
  <speed>0.830000</speed>
</trkpt>
<trkpt lat="32.711605072" lon="35.031265259">
  <ele>370.135254</ele>
  <time>2011-07-15T06:31:30Z</time>
  <speed>1.250000</speed>
</trkpt>
<trkpt lat="32.711635590" lon="35.031288147">
  <ele>371.260254</ele>
  <time>2011-07-15T06:31:33Z</time>
  <speed>1.410000</speed>
</trkpt>
<trkpt lat="32.711658478" lon="35.031314850">
  <ele>371.682129</ele>
  <time>2011-07-15T06:31:36Z</time>
  <speed>1.310000</speed>
</trkpt>
<trkpt lat="32.711685181" lon="35.031345367">
  <ele>372.205566</ele>
  <time>2011-07-15T06:31:39Z</time>
  <speed>0.950000</speed>
</trkpt>
<trkpt lat="32.711719513" lon="35.031356812">
  <ele>373.385254</ele>
  <time>2011-07-15T06:31:42Z</time>
  <speed>1.740000</speed>
</trkpt>
<trkpt lat="32.711746216" lon="35.031379700">
  <ele>373.752441</ele>
  <time>2011-07-15T06:31:44Z</time>
  <speed>1.370000</speed>
</trkpt>
<trkpt lat="32.711769104" lon="35.031402588">
  <ele>373.986816</ele>
  <time>2011-07-15T06:31:46Z</time>
  <speed>1.150000</speed>
</trkpt>
<trkpt lat="32.711791992" lon="35.031436920">
  <ele>374.689941</ele>
  <time>2011-07-15T06:31:49Z</time>
  <speed>1.040000</speed>
</trkpt>
<trkpt lat="32.711799622" lon="35.031475067">
  <ele>374.432129</ele>
  <time>2011-07-15T06:31:51Z</time>
  <speed>1.380000</speed>
</trkpt>
<trkpt lat="32.711811066" lon="35.031501770">
  <ele>375.752441</ele>
  <time>2011-07-15T06:31:54Z</time>
  <speed>1.120000</speed>
</trkpt>
<trkpt lat="32.711826324" lon="35.031539917">
  <ele>376.385254</ele>
  <time>2011-07-15T06:31:58Z</time>
  <speed>1.050000</speed>
</trkpt>
<trkpt lat="32.711849213" lon="35.031562805">
  <ele>377.854004</ele>
  <time>2011-07-15T06:32:01Z</time>
  <speed>1.320000</speed>
</trkpt>
<trkpt lat="32.711864471" lon="35.031593323">
  <ele>378.869629</ele>
  <time>2011-07-15T06:32:04Z</time>
  <speed>0.750000</speed>
</trkpt>
<trkpt lat="32.711898804" lon="35.031612396">
  <ele>379.705566</ele>
  <time>2011-07-15T06:32:07Z</time>
  <speed>0.940000</speed>
</trkpt>
<trkpt lat="32.711917877" lon="35.031631470">
  <ele>381.205566</ele>
  <time>2011-07-15T06:32:09Z</time>
  <speed>1.390000</speed>
</trkpt>
<trkpt lat="32.711948395" lon="35.031650543">
  <ele>382.143066</ele>
  <time>2011-07-15T06:32:11Z</time>
  <speed>1.620000</speed>
</trkpt>
<trkpt lat="32.711971283" lon="35.031669617">
  <ele>382.908691</ele>
  <time>2011-07-15T06:32:13Z</time>
  <speed>0.990000</speed>
</trkpt>
<trkpt lat="32.711990356" lon="35.031692505">
  <ele>384.471191</ele>
  <time>2011-07-15T06:32:16Z</time>
  <speed>1.370000</speed>
</trkpt>
<trkpt lat="32.712017059" lon="35.031700134">
  <ele>385.041504</ele>
  <time>2011-07-15T06:32:18Z</time>
  <speed>1.200000</speed>
</trkpt>
<trkpt lat="32.712043762" lon="35.031715393">
  <ele>384.604004</ele>
  <time>2011-07-15T06:32:23Z</time>
  <speed>1.130000</speed>
</trkpt>
<trkpt lat="32.712070465" lon="35.031738281">
  <ele>384.299316</ele>
  <time>2011-07-15T06:32:26Z</time>
  <speed>1.140000</speed>
</trkpt>
<trkpt lat="32.712093353" lon="35.031761169">
  <ele>384.424316</ele>
  <time>2011-07-15T06:32:29Z</time>
  <speed>1.050000</speed>
</trkpt>
<trkpt lat="32.712104797" lon="35.031803131">
  <ele>384.838379</ele>
  <time>2011-07-15T06:32:32Z</time>
  <speed>1.230000</speed>
</trkpt>
<trkpt lat="32.712123871" lon="35.031829834">
  <ele>385.486816</ele>
  <time>2011-07-15T06:32:35Z</time>
  <speed>1.470000</speed>
</trkpt>
<trkpt lat="32.712146759" lon="35.031864166">
  <ele>385.275879</ele>
  <time>2011-07-15T06:32:38Z</time>
  <speed>0.980000</speed>
</trkpt>
<trkpt lat="32.712169647" lon="35.031890869">
  <ele>385.439941</ele>
  <time>2011-07-15T06:32:41Z</time>
  <speed>1.110000</speed>
</trkpt>
<trkpt lat="32.712192535" lon="35.031921387">
  <ele>385.580566</ele>
  <time>2011-07-15T06:32:44Z</time>
  <speed>0.840000</speed>
</trkpt>
<trkpt lat="32.712215424" lon="35.031944275">
  <ele>385.361816</ele>
  <time>2011-07-15T06:32:47Z</time>
  <speed>1.030000</speed>
</trkpt>
<trkpt lat="32.712242126" lon="35.031970978">
  <ele>386.166504</ele>
  <time>2011-07-15T06:32:51Z</time>
  <speed>0.810000</speed>
</trkpt>
<trkpt lat="32.712257385" lon="35.032005310">
  <ele>386.354004</ele>
  <time>2011-07-15T06:32:54Z</time>
  <speed>1.070000</speed>
</trkpt>
<trkpt lat="32.712280273" lon="35.032028198">
  <ele>387.205566</ele>
  <time>2011-07-15T06:32:58Z</time>
  <speed>1.010000</speed>
</trkpt>
<trkpt lat="32.712303162" lon="35.032054901">
  <ele>387.275879</ele>
  <time>2011-07-15T06:33:01Z</time>
  <speed>0.760000</speed>
</trkpt>
<trkpt lat="32.712333679" lon="35.032066345">
  <ele>387.025879</ele>
  <time>2011-07-15T06:33:04Z</time>
  <speed>1.200000</speed>
</trkpt>
<trkpt lat="32.712368011" lon="35.032062531">
  <ele>389.322754</ele>
  <time>2011-07-15T06:33:07Z</time>
  <speed>0.900000</speed>
</trkpt>
<trkpt lat="32.712387085" lon="35.032096863">
  <ele>390.533691</ele>
  <time>2011-07-15T06:33:10Z</time>
  <speed>0.900000</speed>
</trkpt>
<trkpt lat="32.712409973" lon="35.032115936">
  <ele>390.893066</ele>
  <time>2011-07-15T06:33:12Z</time>
  <speed>1.200000</speed>
</trkpt>
<trkpt lat="32.712425232" lon="35.032150269">
  <ele>391.572754</ele>
  <time>2011-07-15T06:33:15Z</time>
  <speed>1.420000</speed>
</trkpt>
<trkpt lat="32.712440491" lon="35.032180786">
  <ele>392.486816</ele>
  <time>2011-07-15T06:33:17Z</time>
  <speed>1.160000</speed>
</trkpt>
<trkpt lat="32.712463379" lon="35.032211304">
  <ele>393.432129</ele>
  <time>2011-07-15T06:33:20Z</time>
  <speed>1.040000</speed>
</trkpt>
<trkpt lat="32.712482452" lon="35.032234192">
  <ele>393.236816</ele>
  <time>2011-07-15T06:33:24Z</time>
  <speed>0.910000</speed>
</trkpt>
<trkpt lat="32.712512970" lon="35.032257080">
  <ele>393.143066</ele>
  <time>2011-07-15T06:33:28Z</time>
  <speed>0.980000</speed>
</trkpt>
<trkpt lat="32.712543488" lon="35.032276154">
  <ele>393.494629</ele>
  <time>2011-07-15T06:33:31Z</time>
  <speed>1.110000</speed>
</trkpt>
<trkpt lat="32.712566376" lon="35.032295227">
  <ele>394.010254</ele>
  <time>2011-07-15T06:33:33Z</time>
  <speed>0.970000</speed>
</trkpt>
<trkpt lat="32.712596893" lon="35.032299042">
  <ele>393.471191</ele>
  <time>2011-07-15T06:33:36Z</time>
  <speed>1.120000</speed>
</trkpt>
<trkpt lat="32.712623596" lon="35.032299042">
  <ele>393.564941</ele>
  <time>2011-07-15T06:33:39Z</time>
  <speed>1.220000</speed>
</trkpt>
<trkpt lat="32.712654114" lon="35.032310486">
  <ele>394.049316</ele>
  <time>2011-07-15T06:33:41Z</time>
  <speed>1.220000</speed>
</trkpt>
<trkpt lat="32.712677002" lon="35.032344818">
  <ele>394.361816</ele>
  <time>2011-07-15T06:33:44Z</time>
  <speed>1.020000</speed>
</trkpt>
<trkpt lat="32.712696075" lon="35.032371521">
  <ele>394.705566</ele>
  <time>2011-07-15T06:33:47Z</time>
  <speed>1.060000</speed>
</trkpt>
<trkpt lat="32.712711334" lon="35.032398224">
  <ele>394.729004</ele>
  <time>2011-07-15T06:33:49Z</time>
  <speed>0.860000</speed>
</trkpt>
<trkpt lat="32.712738037" lon="35.032390594">
  <ele>394.580566</ele>
  <time>2011-07-15T06:33:51Z</time>
  <speed>0.980000</speed>
</trkpt>
<trkpt lat="32.712768555" lon="35.032424927">
  <ele>394.689941</ele>
  <time>2011-07-15T06:33:55Z</time>
  <speed>1.220000</speed>
</trkpt>
<trkpt lat="32.712802887" lon="35.032428741">
  <ele>394.330566</ele>
  <time>2011-07-15T06:33:58Z</time>
  <speed>1.250000</speed>
</trkpt>
<trkpt lat="32.712833405" lon="35.032455444">
  <ele>394.619629</ele>
  <time>2011-07-15T06:34:02Z</time>
  <speed>1.230000</speed>
</trkpt>
<trkpt lat="32.712856293" lon="35.032478333">
  <ele>394.346191</ele>
  <time>2011-07-15T06:34:04Z</time>
  <speed>1.560000</speed>
</trkpt>
<trkpt lat="32.712879181" lon="35.032501221">
  <ele>394.221191</ele>
  <time>2011-07-15T06:34:06Z</time>
  <speed>1.210000</speed>
</trkpt>
<trkpt lat="32.712917328" lon="35.032508850">
  <ele>394.643066</ele>
  <time>2011-07-15T06:34:09Z</time>
  <speed>1.000000</speed>
</trkpt>
<trkpt lat="32.712951660" lon="35.032512665">
  <ele>394.697754</ele>
  <time>2011-07-15T06:34:12Z</time>
  <speed>1.130000</speed>
</trkpt>
<trkpt lat="32.712982178" lon="35.032531738">
  <ele>394.283691</ele>
  <time>2011-07-15T06:34:15Z</time>
  <speed>0.990000</speed>
</trkpt>
<trkpt lat="32.713005066" lon="35.032550812">
  <ele>394.861816</ele>
  <time>2011-07-15T06:34:17Z</time>
  <speed>1.240000</speed>
</trkpt>
<trkpt lat="32.713039398" lon="35.032539368">
  <ele>395.494629</ele>
  <time>2011-07-15T06:34:20Z</time>
  <speed>1.010000</speed>
</trkpt>
<trkpt lat="32.713069916" lon="35.032535553">
  <ele>396.744629</ele>
  <time>2011-07-15T06:34:23Z</time>
  <speed>0.920000</speed>
</trkpt>
<trkpt lat="32.713096619" lon="35.032554626">
  <ele>396.096191</ele>
  <time>2011-07-15T06:34:26Z</time>
  <speed>0.880000</speed>
</trkpt>
<trkpt lat="32.713130951" lon="35.032546997">
  <ele>397.588379</ele>
  <time>2011-07-15T06:34:29Z</time>
  <speed>0.860000</speed>
</trkpt>
<trkpt lat="32.713161469" lon="35.032569885">
  <ele>397.525879</ele>
  <time>2011-07-15T06:34:32Z</time>
  <speed>1.390000</speed>
</trkpt>
<trkpt lat="32.713188171" lon="35.032588959">
  <ele>397.557129</ele>
  <time>2011-07-15T06:34:35Z</time>
  <speed>1.130000</speed>
</trkpt>
<trkpt lat="32.713211060" lon="35.032608032">
  <ele>396.236816</ele>
  <time>2011-07-15T06:34:39Z</time>
  <speed>0.880000</speed>
</trkpt>
<trkpt lat="32.713241577" lon="35.032623291">
  <ele>396.213379</ele>
  <time>2011-07-15T06:34:42Z</time>
  <speed>1.050000</speed>
</trkpt>
<trkpt lat="32.713264465" lon="35.032642365">
  <ele>395.893066</ele>
  <time>2011-07-15T06:34:45Z</time>
  <speed>0.730000</speed>
</trkpt>
<trkpt lat="32.713298798" lon="35.032638550">
  <ele>396.135254</ele>
  <time>2011-07-15T06:34:49Z</time>
  <speed>0.910000</speed>
</trkpt>
<trkpt lat="32.713325500" lon="35.032627106">
  <ele>396.479004</ele>
  <time>2011-07-15T06:34:52Z</time>
  <speed>1.050000</speed>
</trkpt>
<trkpt lat="32.713367462" lon="35.032638550">
  <ele>396.439941</ele>
  <time>2011-07-15T06:34:56Z</time>
  <speed>1.530000</speed>
</trkpt>
<trkpt lat="32.713405609" lon="35.032653809">
  <ele>396.510254</ele>
  <time>2011-07-15T06:34:59Z</time>
  <speed>1.590000</speed>
</trkpt>
<trkpt lat="32.713443756" lon="35.032657623">
  <ele>397.135254</ele>
  <time>2011-07-15T06:35:01Z</time>
  <speed>1.260000</speed>
</trkpt>
<trkpt lat="32.713466644" lon="35.032676697">
  <ele>396.604004</ele>
  <time>2011-07-15T06:35:03Z</time>
  <speed>1.010000</speed>
</trkpt>
<trkpt lat="32.713500977" lon="35.032711029">
  <ele>395.713379</ele>
  <time>2011-07-15T06:35:06Z</time>
  <speed>1.480000</speed>
</trkpt>
<trkpt lat="32.713535309" lon="35.032733917">
  <ele>394.588379</ele>
  <time>2011-07-15T06:35:08Z</time>
  <speed>1.920000</speed>
</trkpt>
<trkpt lat="32.713573456" lon="35.032756805">
  <ele>393.768066</ele>
  <time>2011-07-15T06:35:10Z</time>
  <speed>2.500000</speed>
</trkpt>
<trkpt lat="32.713596344" lon="35.032772064">
  <ele>393.088379</ele>
  <time>2011-07-15T06:35:11Z</time>
  <speed>3.260000</speed>
</trkpt>
<trkpt lat="32.713626862" lon="35.032783508">
  <ele>392.150879</ele>
  <time>2011-07-15T06:35:12Z</time>
  <speed>3.640000</speed>
</trkpt>
<trkpt lat="32.713653564" lon="35.032791138">
  <ele>391.877441</ele>
  <time>2011-07-15T06:35:13Z</time>
  <speed>3.380000</speed>
</trkpt>
<trkpt lat="32.713680267" lon="35.032817841">
  <ele>390.729004</ele>
  <time>2011-07-15T06:35:14Z</time>
  <speed>4.080000</speed>
</trkpt>
<trkpt lat="32.713703156" lon="35.032855988">
  <ele>391.338379</ele>
  <time>2011-07-15T06:35:15Z</time>
  <speed>3.990000</speed>
</trkpt>
<trkpt lat="32.713722229" lon="35.032894135">
  <ele>391.025879</ele>
  <time>2011-07-15T06:35:16Z</time>
  <speed>3.690000</speed>
</trkpt>
<trkpt lat="32.713741302" lon="35.032928467">
  <ele>391.064941</ele>
  <time>2011-07-15T06:35:17Z</time>
  <speed>2.650000</speed>
</trkpt>
<trkpt lat="32.713760376" lon="35.032985687">
  <ele>390.791504</ele>
  <time>2011-07-15T06:35:19Z</time>
  <speed>2.460000</speed>
</trkpt>
<trkpt lat="32.713775635" lon="35.033035278">
  <ele>392.002441</ele>
  <time>2011-07-15T06:35:21Z</time>
  <speed>1.780000</speed>
</trkpt>
<trkpt lat="32.713771820" lon="35.033077240">
  <ele>392.885254</ele>
  <time>2011-07-15T06:35:24Z</time>
  <speed>1.820000</speed>
</trkpt>
<trkpt lat="32.713764191" lon="35.033107758">
  <ele>394.346191</ele>
  <time>2011-07-15T06:35:26Z</time>
  <speed>1.970000</speed>
</trkpt>
<trkpt lat="32.713737488" lon="35.033142090">
  <ele>394.869629</ele>
  <time>2011-07-15T06:35:28Z</time>
  <speed>1.580000</speed>
</trkpt>
<trkpt lat="32.713722229" lon="35.033168793">
  <ele>395.479004</ele>
  <time>2011-07-15T06:35:30Z</time>
  <speed>1.070000</speed>
</trkpt>
<trkpt lat="32.713703156" lon="35.033199310">
  <ele>397.244629</ele>
  <time>2011-07-15T06:35:33Z</time>
  <speed>1.710000</speed>
</trkpt>
<trkpt lat="32.713676453" lon="35.033210754">
  <ele>398.236816</ele>
  <time>2011-07-15T06:35:35Z</time>
  <speed>1.060000</speed>
</trkpt>
<trkpt lat="32.713653564" lon="35.033233643">
  <ele>398.885254</ele>
  <time>2011-07-15T06:35:38Z</time>
  <speed>1.490000</speed>
</trkpt>
<trkpt lat="32.713626862" lon="35.033252716">
  <ele>399.197754</ele>
  <time>2011-07-15T06:35:40Z</time>
  <speed>1.110000</speed>
</trkpt>
<trkpt lat="32.713596344" lon="35.033264160">
  <ele>399.158691</ele>
  <time>2011-07-15T06:35:42Z</time>
  <speed>1.450000</speed>
</trkpt>
<trkpt lat="32.713562012" lon="35.033290863">
  <ele>400.525879</ele>
  <time>2011-07-15T06:35:46Z</time>
  <speed>0.980000</speed>
</trkpt>
<trkpt lat="32.713531494" lon="35.033302307">
  <ele>400.932129</ele>
  <time>2011-07-15T06:35:50Z</time>
  <speed>0.920000</speed>
</trkpt>
<trkpt lat="32.713485718" lon="35.033309937">
  <ele>401.502441</ele>
  <time>2011-07-15T06:35:53Z</time>
  <speed>0.980000</speed>
</trkpt>
<trkpt lat="32.713451385" lon="35.033313751">
  <ele>402.299316</ele>
  <time>2011-07-15T06:35:56Z</time>
  <speed>0.730000</speed>
</trkpt>
<trkpt lat="32.713420868" lon="35.033309937">
  <ele>402.658691</ele>
  <time>2011-07-15T06:35:58Z</time>
  <speed>0.650000</speed>
</trkpt>
<trkpt lat="32.713401794" lon="35.033348083">
  <ele>403.814941</ele>
  <time>2011-07-15T06:36:02Z</time>
  <speed>1.060000</speed>
</trkpt>
<trkpt lat="32.713397980" lon="35.033390045">
  <ele>403.861816</ele>
  <time>2011-07-15T06:36:05Z</time>
  <speed>0.920000</speed>
</trkpt>
<trkpt lat="32.713375092" lon="35.033416748">
  <ele>404.189941</ele>
  <time>2011-07-15T06:36:08Z</time>
  <speed>0.800000</speed>
</trkpt>
<trkpt lat="32.713336945" lon="35.033424377">
  <ele>404.619629</ele>
  <time>2011-07-15T06:36:12Z</time>
  <speed>1.090000</speed>
</trkpt>
<trkpt lat="32.713306427" lon="35.033428192">
  <ele>405.885254</ele>
  <time>2011-07-15T06:36:16Z</time>
  <speed>1.900000</speed>
</trkpt>
<trkpt lat="32.713275909" lon="35.033420563">
  <ele>408.072754</ele>
  <time>2011-07-15T06:36:18Z</time>
  <speed>1.290000</speed>
</trkpt>
<trkpt lat="32.713249207" lon="35.033393860">
  <ele>408.674316</ele>
  <time>2011-07-15T06:36:20Z</time>
  <speed>1.480000</speed>
</trkpt>
<trkpt lat="32.713249207" lon="35.033359528">
  <ele>409.283691</ele>
  <time>2011-07-15T06:36:22Z</time>
  <speed>0.980000</speed>
</trkpt>
<trkpt lat="32.713245392" lon="35.033329010">
  <ele>410.400879</ele>
  <time>2011-07-15T06:36:26Z</time>
  <speed>0.770000</speed>
</trkpt>
<trkpt lat="32.713233948" lon="35.033294678">
  <ele>411.080566</ele>
  <time>2011-07-15T06:36:28Z</time>
  <speed>0.640000</speed>
</trkpt>
<trkpt lat="32.713214874" lon="35.033271790">
  <ele>410.580566</ele>
  <time>2011-07-15T06:36:30Z</time>
  <speed>0.850000</speed>
</trkpt>
<trkpt lat="32.713188171" lon="35.033245087">
  <ele>411.643066</ele>
  <time>2011-07-15T06:36:34Z</time>
  <speed>1.190000</speed>
</trkpt>
<trkpt lat="32.713165283" lon="35.033222198">
  <ele>412.018066</ele>
  <time>2011-07-15T06:36:36Z</time>
  <speed>1.410000</speed>
</trkpt>
<trkpt lat="32.713138580" lon="35.033195496">
  <ele>412.197754</ele>
  <time>2011-07-15T06:36:39Z</time>
  <speed>0.940000</speed>
</trkpt>
<trkpt lat="32.713104248" lon="35.033180237">
  <ele>412.986816</ele>
  <time>2011-07-15T06:36:42Z</time>
  <speed>0.780000</speed>
</trkpt>
<trkpt lat="32.713069916" lon="35.033164978">
  <ele>414.424316</ele>
  <time>2011-07-15T06:36:46Z</time>
  <speed>0.950000</speed>
</trkpt>
<trkpt lat="32.713031769" lon="35.033168793">
  <ele>416.268066</ele>
  <time>2011-07-15T06:36:49Z</time>
  <speed>0.930000</speed>
</trkpt>
<trkpt lat="32.713001251" lon="35.033149719">
  <ele>417.432129</ele>
  <time>2011-07-15T06:36:53Z</time>
  <speed>1.240000</speed>
</trkpt>
<trkpt lat="32.712970734" lon="35.033142090">
  <ele>418.064941</ele>
  <time>2011-07-15T06:36:56Z</time>
  <speed>0.610000</speed>
</trkpt>
<trkpt lat="32.712947845" lon="35.033130646">
  <ele>418.814941</ele>
  <time>2011-07-15T06:36:59Z</time>
  <speed>0.890000</speed>
</trkpt>
<trkpt lat="32.712913513" lon="35.033138275">
  <ele>419.471191</ele>
  <time>2011-07-15T06:37:02Z</time>
  <speed>0.780000</speed>
</trkpt>
<trkpt lat="32.712882996" lon="35.033134460">
  <ele>420.213379</ele>
  <time>2011-07-15T06:37:06Z</time>
  <speed>0.930000</speed>
</trkpt>
<trkpt lat="32.712844849" lon="35.033134460">
  <ele>420.369629</ele>
  <time>2011-07-15T06:37:10Z</time>
  <speed>0.800000</speed>
</trkpt>
<trkpt lat="32.712818146" lon="35.033126831">
  <ele>420.783691</ele>
  <time>2011-07-15T06:37:13Z</time>
  <speed>0.990000</speed>
</trkpt>
<trkpt lat="32.712787628" lon="35.033119202">
  <ele>420.682129</ele>
  <time>2011-07-15T06:37:16Z</time>
  <speed>1.180000</speed>
</trkpt>
<trkpt lat="32.712753296" lon="35.033111572">
  <ele>420.611816</ele>
  <time>2011-07-15T06:37:19Z</time>
  <speed>0.960000</speed>
</trkpt>
<trkpt lat="32.712722778" lon="35.033107758">
  <ele>420.385254</ele>
  <time>2011-07-15T06:37:23Z</time>
  <speed>0.730000</speed>
</trkpt>
<trkpt lat="32.712692261" lon="35.033084869">
  <ele>420.432129</ele>
  <time>2011-07-15T06:37:25Z</time>
  <speed>0.880000</speed>
</trkpt>
<trkpt lat="32.712661743" lon="35.033081055">
  <ele>420.119629</ele>
  <time>2011-07-15T06:37:28Z</time>
  <speed>0.870000</speed>
</trkpt>
<trkpt lat="32.712623596" lon="35.033069611">
  <ele>420.025879</ele>
  <time>2011-07-15T06:37:31Z</time>
  <speed>1.030000</speed>
</trkpt>
<trkpt lat="32.712593079" lon="35.033065796">
  <ele>420.096191</ele>
  <time>2011-07-15T06:37:34Z</time>
  <speed>1.260000</speed>
</trkpt>
<trkpt lat="32.712566376" lon="35.033058167">
  <ele>420.518066</ele>
  <time>2011-07-15T06:37:36Z</time>
  <speed>1.240000</speed>
</trkpt>
<trkpt lat="32.712535858" lon="35.033050537">
  <ele>420.393066</ele>
  <time>2011-07-15T06:37:38Z</time>
  <speed>1.030000</speed>
</trkpt>
<trkpt lat="32.712493896" lon="35.033061981">
  <ele>421.377441</ele>
  <time>2011-07-15T06:37:41Z</time>
  <speed>1.260000</speed>
</trkpt>
<trkpt lat="32.712467194" lon="35.033046722">
  <ele>421.666504</ele>
  <time>2011-07-15T06:37:43Z</time>
  <speed>1.530000</speed>
</trkpt>
<trkpt lat="32.712440491" lon="35.033050537">
  <ele>422.393066</ele>
  <time>2011-07-15T06:37:45Z</time>
  <speed>1.280000</speed>
</trkpt>
<trkpt lat="32.712402344" lon="35.033050537">
  <ele>422.479004</ele>
  <time>2011-07-15T06:37:48Z</time>
  <speed>1.140000</speed>
</trkpt>
<trkpt lat="32.712371826" lon="35.033035278">
  <ele>423.275879</ele>
  <time>2011-07-15T06:37:52Z</time>
  <speed>1.370000</speed>
</trkpt>
<trkpt lat="32.712337494" lon="35.033039093">
  <ele>424.213379</ele>
  <time>2011-07-15T06:37:54Z</time>
  <speed>1.100000</speed>
</trkpt>
<trkpt lat="32.712306976" lon="35.033020020">
  <ele>424.088379</ele>
  <time>2011-07-15T06:37:56Z</time>
  <speed>1.250000</speed>
</trkpt>
<trkpt lat="32.712284088" lon="35.033008575">
  <ele>423.869629</ele>
  <time>2011-07-15T06:37:58Z</time>
  <speed>1.200000</speed>
</trkpt>
<trkpt lat="32.712261200" lon="35.032993317">
  <ele>425.643066</ele>
  <time>2011-07-15T06:38:01Z</time>
  <speed>1.150000</speed>
</trkpt>
<trkpt lat="32.712226868" lon="35.032993317">
  <ele>425.236816</ele>
  <time>2011-07-15T06:38:04Z</time>
  <speed>1.270000</speed>
</trkpt>
<trkpt lat="32.712184906" lon="35.032989502">
  <ele>426.064941</ele>
  <time>2011-07-15T06:38:07Z</time>
  <speed>1.440000</speed>
</trkpt>
<trkpt lat="32.712158203" lon="35.032981873">
  <ele>425.674316</ele>
  <time>2011-07-15T06:38:09Z</time>
  <speed>1.410000</speed>
</trkpt>
<trkpt lat="32.712123871" lon="35.032962799">
  <ele>425.822754</ele>
  <time>2011-07-15T06:38:12Z</time>
  <speed>1.160000</speed>
</trkpt>
<trkpt lat="32.712097168" lon="35.032955170">
  <ele>425.658691</ele>
  <time>2011-07-15T06:38:14Z</time>
  <speed>1.460000</speed>
</trkpt>
<trkpt lat="32.712081909" lon="35.032928467">
  <ele>424.666504</ele>
  <time>2011-07-15T06:38:15Z</time>
  <speed>1.510000</speed>
</trkpt>
<trkpt lat="32.712047577" lon="35.032913208">
  <ele>424.307129</ele>
  <time>2011-07-15T06:38:17Z</time>
  <speed>2.170000</speed>
</trkpt>
<trkpt lat="32.712001801" lon="35.032890320">
  <ele>423.424316</ele>
  <time>2011-07-15T06:38:19Z</time>
  <speed>2.820000</speed>
</trkpt>
<trkpt lat="32.711978912" lon="35.032867432">
  <ele>423.455566</ele>
  <time>2011-07-15T06:38:20Z</time>
  <speed>3.460000</speed>
</trkpt>
<trkpt lat="32.711952209" lon="35.032840729">
  <ele>422.783691</ele>
  <time>2011-07-15T06:38:21Z</time>
  <speed>3.870000</speed>
</trkpt>
<trkpt lat="32.711914063" lon="35.032821655">
  <ele>421.682129</ele>
  <time>2011-07-15T06:38:22Z</time>
  <speed>4.630000</speed>
</trkpt>
<trkpt lat="32.711879730" lon="35.032798767">
  <ele>420.994629</ele>
  <time>2011-07-15T06:38:23Z</time>
  <speed>4.470000</speed>
</trkpt>
<trkpt lat="32.711841583" lon="35.032787323">
  <ele>420.760254</ele>
  <time>2011-07-15T06:38:24Z</time>
  <speed>4.050000</speed>
</trkpt>
<trkpt lat="32.711803436" lon="35.032775879">
  <ele>420.400879</ele>
  <time>2011-07-15T06:38:25Z</time>
  <speed>3.710000</speed>
</trkpt>
<trkpt lat="32.711772919" lon="35.032768250">
  <ele>420.260254</ele>
  <time>2011-07-15T06:38:26Z</time>
  <speed>3.350000</speed>
</trkpt>
<trkpt lat="32.711727142" lon="35.032749176">
  <ele>419.979004</ele>
  <time>2011-07-15T06:38:27Z</time>
  <speed>3.440000</speed>
</trkpt>
<trkpt lat="32.711696625" lon="35.032737732">
  <ele>420.400879</ele>
  <time>2011-07-15T06:38:28Z</time>
  <speed>3.350000</speed>
</trkpt>
<trkpt lat="32.711666107" lon="35.032733917">
  <ele>420.541504</ele>
  <time>2011-07-15T06:38:29Z</time>
  <speed>2.810000</speed>
</trkpt>
<trkpt lat="32.711639404" lon="35.032741547">
  <ele>420.025879</ele>
  <time>2011-07-15T06:38:30Z</time>
  <speed>2.220000</speed>
</trkpt>
<trkpt lat="32.711608887" lon="35.032749176">
  <ele>419.924316</ele>
  <time>2011-07-15T06:38:32Z</time>
  <speed>1.980000</speed>
</trkpt>
<trkpt lat="32.711574554" lon="35.032756805">
  <ele>419.104004</ele>
  <time>2011-07-15T06:38:34Z</time>
  <speed>1.930000</speed>
</trkpt>
<trkpt lat="32.711544037" lon="35.032764435">
  <ele>419.580566</ele>
  <time>2011-07-15T06:38:36Z</time>
  <speed>1.560000</speed>
</trkpt>
<trkpt lat="32.711517334" lon="35.032779694">
  <ele>419.291504</ele>
  <time>2011-07-15T06:38:38Z</time>
  <speed>1.340000</speed>
</trkpt>
<trkpt lat="32.711486816" lon="35.032794952">
  <ele>419.971191</ele>
  <time>2011-07-15T06:38:40Z</time>
  <speed>2.340000</speed>
</trkpt>
<trkpt lat="32.711460114" lon="35.032810211">
  <ele>419.729004</ele>
  <time>2011-07-15T06:38:42Z</time>
  <speed>1.500000</speed>
</trkpt>
<trkpt lat="32.711421967" lon="35.032821655">
  <ele>419.799316</ele>
  <time>2011-07-15T06:38:45Z</time>
  <speed>1.640000</speed>
</trkpt>
<trkpt lat="32.711383820" lon="35.032821655">
  <ele>419.580566</ele>
  <time>2011-07-15T06:38:48Z</time>
  <speed>1.650000</speed>
</trkpt>
<trkpt lat="32.711349487" lon="35.032829285">
  <ele>421.588379</ele>
  <time>2011-07-15T06:38:50Z</time>
  <speed>1.910000</speed>
</trkpt>
<trkpt lat="32.711315155" lon="35.032829285">
  <ele>421.635254</ele>
  <time>2011-07-15T06:38:52Z</time>
  <speed>1.860000</speed>
</trkpt>
<trkpt lat="32.711277008" lon="35.032817841">
  <ele>422.572754</ele>
  <time>2011-07-15T06:38:55Z</time>
  <speed>1.310000</speed>
</trkpt>
<trkpt lat="32.711250305" lon="35.032848358">
  <ele>423.822754</ele>
  <time>2011-07-15T06:38:59Z</time>
  <speed>1.580000</speed>
</trkpt>
<trkpt lat="32.711219788" lon="35.032863617">
  <ele>424.885254</ele>
  <time>2011-07-15T06:39:02Z</time>
  <speed>1.280000</speed>
</trkpt>
<trkpt lat="32.711193085" lon="35.032886505">
  <ele>424.971191</ele>
  <time>2011-07-15T06:39:08Z</time>
  <speed>0.900000</speed>
</trkpt>
<trkpt lat="32.711170197" lon="35.032901764">
  <ele>425.947754</ele>
  <time>2011-07-15T06:39:12Z</time>
  <speed>0.690000</speed>
</trkpt>
<trkpt lat="32.711135864" lon="35.032913208">
  <ele>426.197754</ele>
  <time>2011-07-15T06:39:17Z</time>
  <speed>0.750000</speed>
</trkpt>
<trkpt lat="32.711116791" lon="35.032936096">
  <ele>428.111816</ele>
  <time>2011-07-15T06:39:19Z</time>
  <speed>0.930000</speed>
</trkpt>
<trkpt lat="32.711090088" lon="35.032947540">
  <ele>429.189941</ele>
  <time>2011-07-15T06:39:24Z</time>
  <speed>0.720000</speed>
</trkpt>
<trkpt lat="32.711063385" lon="35.032943726">
  <ele>429.643066</ele>
  <time>2011-07-15T06:39:28Z</time>
  <speed>0.590000</speed>
</trkpt>
<trkpt lat="32.711036682" lon="35.032936096">
  <ele>430.182129</ele>
  <time>2011-07-15T06:39:32Z</time>
  <speed>0.870000</speed>
</trkpt>
<trkpt lat="32.711013794" lon="35.032917023">
  <ele>429.799316</ele>
  <time>2011-07-15T06:39:35Z</time>
  <speed>0.770000</speed>
</trkpt>
<trkpt lat="32.710994720" lon="35.032886505">
  <ele>429.166504</ele>
  <time>2011-07-15T06:39:39Z</time>
  <speed>0.630000</speed>
</trkpt>
<trkpt lat="32.710975647" lon="35.032875061">
  <ele>431.338379</ele>
  <time>2011-07-15T06:39:45Z</time>
  <speed>0.870000</speed>
</trkpt>
<trkpt lat="32.710948944" lon="35.032848358">
  <ele>430.768066</ele>
  <time>2011-07-15T06:39:48Z</time>
  <speed>1.290000</speed>
</trkpt>
<trkpt lat="32.710937500" lon="35.032810211">
  <ele>430.330566</ele>
  <time>2011-07-15T06:39:51Z</time>
  <speed>1.340000</speed>
</trkpt>
<trkpt lat="32.710922241" lon="35.032783508">
  <ele>429.893066</ele>
  <time>2011-07-15T06:39:53Z</time>
  <speed>1.420000</speed>
</trkpt>
<trkpt lat="32.710887909" lon="35.032783508">
  <ele>429.979004</ele>
  <time>2011-07-15T06:39:55Z</time>
  <speed>1.350000</speed>
</trkpt>
<trkpt lat="32.710861206" lon="35.032779694">
  <ele>430.150879</ele>
  <time>2011-07-15T06:39:57Z</time>
  <speed>1.380000</speed>
</trkpt>
<trkpt lat="32.710834503" lon="35.032787323">
  <ele>430.150879</ele>
  <time>2011-07-15T06:40:00Z</time>
  <speed>1.360000</speed>
</trkpt>
<trkpt lat="32.710807800" lon="35.032802582">
  <ele>429.994629</ele>
  <time>2011-07-15T06:40:02Z</time>
  <speed>1.320000</speed>
</trkpt>
<trkpt lat="32.710781097" lon="35.032840729">
  <ele>430.986816</ele>
  <time>2011-07-15T06:40:05Z</time>
  <speed>1.530000</speed>
</trkpt>
<trkpt lat="32.710762024" lon="35.032878876">
  <ele>431.033691</ele>
  <time>2011-07-15T06:40:08Z</time>
  <speed>0.810000</speed>
</trkpt>
<trkpt lat="32.710731506" lon="35.032897949">
  <ele>431.549316</ele>
  <time>2011-07-15T06:40:11Z</time>
  <speed>1.140000</speed>
</trkpt>
<trkpt lat="32.710700989" lon="35.032917023">
  <ele>432.182129</ele>
  <time>2011-07-15T06:40:14Z</time>
  <speed>1.250000</speed>
</trkpt>
<trkpt lat="32.710666656" lon="35.032932281">
  <ele>432.697754</ele>
  <time>2011-07-15T06:40:17Z</time>
  <speed>1.130000</speed>
</trkpt>
<trkpt lat="32.710643768" lon="35.032939911">
  <ele>433.596191</ele>
  <time>2011-07-15T06:40:19Z</time>
  <speed>1.110000</speed>
</trkpt>
<trkpt lat="32.710613251" lon="35.032951355">
  <ele>434.330566</ele>
  <time>2011-07-15T06:40:22Z</time>
  <speed>1.590000</speed>
</trkpt>
<trkpt lat="32.710582733" lon="35.032951355">
  <ele>434.486816</ele>
  <time>2011-07-15T06:40:24Z</time>
  <speed>1.370000</speed>
</trkpt>
<trkpt lat="32.710544586" lon="35.032947540">
  <ele>434.635254</ele>
  <time>2011-07-15T06:40:27Z</time>
  <speed>1.220000</speed>
</trkpt>
<trkpt lat="32.710517883" lon="35.032951355">
  <ele>435.104004</ele>
  <time>2011-07-15T06:40:29Z</time>
  <speed>1.160000</speed>
</trkpt>
<trkpt lat="32.710483551" lon="35.032947540">
  <ele>436.041504</ele>
  <time>2011-07-15T06:40:32Z</time>
  <speed>1.170000</speed>
</trkpt>
<trkpt lat="32.710441589" lon="35.032943726">
  <ele>436.283691</ele>
  <time>2011-07-15T06:40:35Z</time>
  <speed>1.180000</speed>
</trkpt>
<trkpt lat="32.710411072" lon="35.032936096">
  <ele>437.049316</ele>
  <time>2011-07-15T06:40:38Z</time>
  <speed>1.590000</speed>
</trkpt>
<trkpt lat="32.710380554" lon="35.032936096">
  <ele>437.525879</ele>
  <time>2011-07-15T06:40:40Z</time>
  <speed>1.310000</speed>
</trkpt>
<trkpt lat="32.710353851" lon="35.032932281">
  <ele>437.635254</ele>
  <time>2011-07-15T06:40:42Z</time>
  <speed>1.380000</speed>
</trkpt>
<trkpt lat="32.710315704" lon="35.032936096">
  <ele>438.666504</ele>
  <time>2011-07-15T06:40:45Z</time>
  <speed>1.290000</speed>
</trkpt>
<trkpt lat="32.710285187" lon="35.032955170">
  <ele>439.275879</ele>
  <time>2011-07-15T06:40:48Z</time>
  <speed>1.460000</speed>
</trkpt>
<trkpt lat="32.710254669" lon="35.032966614">
  <ele>438.291504</ele>
  <time>2011-07-15T06:40:51Z</time>
  <speed>1.610000</speed>
</trkpt>
<trkpt lat="32.710220337" lon="35.032981873">
  <ele>437.846191</ele>
  <time>2011-07-15T06:40:54Z</time>
  <speed>1.350000</speed>
</trkpt>
<trkpt lat="32.710197449" lon="35.033008575">
  <ele>438.744629</ele>
  <time>2011-07-15T06:40:56Z</time>
  <speed>1.310000</speed>
</trkpt>
<trkpt lat="32.710182190" lon="35.033035278">
  <ele>440.252441</ele>
  <time>2011-07-15T06:40:59Z</time>
  <speed>0.840000</speed>
</trkpt>
<trkpt lat="32.710151672" lon="35.033027649">
  <ele>439.799316</ele>
  <time>2011-07-15T06:41:02Z</time>
  <speed>1.380000</speed>
</trkpt>
<trkpt lat="32.710121155" lon="35.033027649">
  <ele>440.002441</ele>
  <time>2011-07-15T06:41:04Z</time>
  <speed>1.500000</speed>
</trkpt>
<trkpt lat="32.710090637" lon="35.033039093">
  <ele>440.088379</ele>
  <time>2011-07-15T06:41:06Z</time>
  <speed>1.360000</speed>
</trkpt>
<trkpt lat="32.710056305" lon="35.033061981">
  <ele>440.229004</ele>
  <time>2011-07-15T06:41:08Z</time>
  <speed>1.730000</speed>
</trkpt>
<trkpt lat="32.710037231" lon="35.033084869">
  <ele>440.463379</ele>
  <time>2011-07-15T06:41:10Z</time>
  <speed>1.330000</speed>
</trkpt>
<trkpt lat="32.710018158" lon="35.033115387">
  <ele>440.619629</ele>
  <time>2011-07-15T06:41:12Z</time>
  <speed>1.170000</speed>
</trkpt>
<trkpt lat="32.709983826" lon="35.033149719">
  <ele>439.775879</ele>
  <time>2011-07-15T06:41:15Z</time>
  <speed>2.150000</speed>
</trkpt>
<trkpt lat="32.709953308" lon="35.033184052">
  <ele>439.338379</ele>
  <time>2011-07-15T06:41:17Z</time>
  <speed>2.800000</speed>
</trkpt>
<trkpt lat="32.709915161" lon="35.033226013">
  <ele>439.400879</ele>
  <time>2011-07-15T06:41:19Z</time>
  <speed>3.130000</speed>
</trkpt>
<trkpt lat="32.709888458" lon="35.033248901">
  <ele>438.658691</ele>
  <time>2011-07-15T06:41:20Z</time>
  <speed>3.410000</speed>
</trkpt>
<trkpt lat="32.709865570" lon="35.033267975">
  <ele>438.291504</ele>
  <time>2011-07-15T06:41:21Z</time>
  <speed>3.330000</speed>
</trkpt>
<trkpt lat="32.709842682" lon="35.033290863">
  <ele>437.955566</ele>
  <time>2011-07-15T06:41:22Z</time>
  <speed>3.750000</speed>
</trkpt>
<trkpt lat="32.709819794" lon="35.033321381">
  <ele>437.354004</ele>
  <time>2011-07-15T06:41:23Z</time>
  <speed>4.130000</speed>
</trkpt>
<trkpt lat="32.709793091" lon="35.033348083">
  <ele>436.643066</ele>
  <time>2011-07-15T06:41:24Z</time>
  <speed>4.410000</speed>
</trkpt>
<trkpt lat="32.709766388" lon="35.033378601">
  <ele>436.229004</ele>
  <time>2011-07-15T06:41:25Z</time>
  <speed>4.000000</speed>
</trkpt>
<trkpt lat="32.709735870" lon="35.033405304">
  <ele>435.822754</ele>
  <time>2011-07-15T06:41:26Z</time>
  <speed>4.040000</speed>
</trkpt>
<trkpt lat="32.709701538" lon="35.033424377">
  <ele>435.947754</ele>
  <time>2011-07-15T06:41:27Z</time>
  <speed>4.240000</speed>
</trkpt>
<trkpt lat="32.709667206" lon="35.033443451">
  <ele>435.346191</ele>
  <time>2011-07-15T06:41:28Z</time>
  <speed>4.320000</speed>
</trkpt>
<trkpt lat="32.709632874" lon="35.033470154">
  <ele>435.096191</ele>
  <time>2011-07-15T06:41:29Z</time>
  <speed>4.490000</speed>
</trkpt>
<trkpt lat="32.709594727" lon="35.033504486">
  <ele>435.127441</ele>
  <time>2011-07-15T06:41:30Z</time>
  <speed>5.760000</speed>
</trkpt>
<trkpt lat="32.709560394" lon="35.033550262">
  <ele>435.096191</ele>
  <time>2011-07-15T06:41:31Z</time>
  <speed>5.810000</speed>
</trkpt>
<trkpt lat="32.709518433" lon="35.033596039">
  <ele>433.994629</ele>
  <time>2011-07-15T06:41:32Z</time>
  <speed>5.970000</speed>
</trkpt>
<trkpt lat="32.709472656" lon="35.033630371">
  <ele>433.572754</ele>
  <time>2011-07-15T06:41:33Z</time>
  <speed>6.140000</speed>
</trkpt>
<trkpt lat="32.709430695" lon="35.033664703">
  <ele>432.908691</ele>
  <time>2011-07-15T06:41:34Z</time>
  <speed>5.460000</speed>
</trkpt>
<trkpt lat="32.709388733" lon="35.033695221">
  <ele>433.439941</ele>
  <time>2011-07-15T06:41:35Z</time>
  <speed>4.910000</speed>
</trkpt>
<trkpt lat="32.709358215" lon="35.033718109">
  <ele>434.150879</ele>
  <time>2011-07-15T06:41:36Z</time>
  <speed>3.240000</speed>
</trkpt>
<trkpt lat="32.709316254" lon="35.033737183">
  <ele>435.729004</ele>
  <time>2011-07-15T06:41:38Z</time>
  <speed>1.820000</speed>
</trkpt>
<trkpt lat="32.709281921" lon="35.033752441">
  <ele>435.471191</ele>
  <time>2011-07-15T06:41:40Z</time>
  <speed>2.070000</speed>
</trkpt>
<trkpt lat="32.709255219" lon="35.033752441">
  <ele>436.033691</ele>
  <time>2011-07-15T06:41:42Z</time>
  <speed>1.490000</speed>
</trkpt>
<trkpt lat="32.709224701" lon="35.033771515">
  <ele>436.854004</ele>
  <time>2011-07-15T06:41:44Z</time>
  <speed>2.020000</speed>
</trkpt>
<trkpt lat="32.709190369" lon="35.033782959">
  <ele>437.877441</ele>
  <time>2011-07-15T06:41:46Z</time>
  <speed>1.800000</speed>
</trkpt>
<trkpt lat="32.709159851" lon="35.033790588">
  <ele>439.205566</ele>
  <time>2011-07-15T06:41:48Z</time>
  <speed>1.960000</speed>
</trkpt>
<trkpt lat="32.709125519" lon="35.033790588">
  <ele>440.236816</ele>
  <time>2011-07-15T06:41:50Z</time>
  <speed>1.660000</speed>
</trkpt>
<trkpt lat="32.709095001" lon="35.033794403">
  <ele>441.072754</ele>
  <time>2011-07-15T06:41:52Z</time>
  <speed>1.510000</speed>
</trkpt>
<trkpt lat="32.709068298" lon="35.033790588">
  <ele>441.010254</ele>
  <time>2011-07-15T06:41:54Z</time>
  <speed>1.200000</speed>
</trkpt>
<trkpt lat="32.709049225" lon="35.033805847">
  <ele>442.541504</ele>
  <time>2011-07-15T06:41:56Z</time>
  <speed>1.460000</speed>
</trkpt>
<trkpt lat="32.709022522" lon="35.033809662">
  <ele>443.260254</ele>
  <time>2011-07-15T06:41:58Z</time>
  <speed>1.240000</speed>
</trkpt>
<trkpt lat="32.708995819" lon="35.033805847">
  <ele>443.674316</ele>
  <time>2011-07-15T06:42:00Z</time>
  <speed>1.120000</speed>
</trkpt>
<trkpt lat="32.708969116" lon="35.033802032">
  <ele>443.502441</ele>
  <time>2011-07-15T06:42:04Z</time>
  <speed>1.420000</speed>
</trkpt>
<trkpt lat="32.708927155" lon="35.033805847">
  <ele>444.564941</ele>
  <time>2011-07-15T06:42:07Z</time>
  <speed>1.170000</speed>
</trkpt>
<trkpt lat="32.708892822" lon="35.033802032">
  <ele>446.064941</ele>
  <time>2011-07-15T06:42:10Z</time>
  <speed>1.280000</speed>
</trkpt>
<trkpt lat="32.708866119" lon="35.033809662">
  <ele>446.986816</ele>
  <time>2011-07-15T06:42:12Z</time>
  <speed>1.370000</speed>
</trkpt>
<trkpt lat="32.708827972" lon="35.033809662">
  <ele>447.955566</ele>
  <time>2011-07-15T06:42:15Z</time>
  <speed>1.130000</speed>
</trkpt>
<trkpt lat="32.708797455" lon="35.033805847">
  <ele>449.314941</ele>
  <time>2011-07-15T06:42:18Z</time>
  <speed>1.330000</speed>
</trkpt>
<trkpt lat="32.708770752" lon="35.033775330">
  <ele>449.541504</ele>
  <time>2011-07-15T06:42:22Z</time>
  <speed>0.870000</speed>
</trkpt>
<trkpt lat="32.708744049" lon="35.033756256">
  <ele>449.994629</ele>
  <time>2011-07-15T06:42:25Z</time>
  <speed>1.020000</speed>
</trkpt>
<trkpt lat="32.708724976" lon="35.033737183">
  <ele>451.150879</ele>
  <time>2011-07-15T06:42:28Z</time>
  <speed>1.150000</speed>
</trkpt>
<trkpt lat="32.708694458" lon="35.033710480">
  <ele>451.432129</ele>
  <time>2011-07-15T06:42:31Z</time>
  <speed>1.120000</speed>
</trkpt>
<trkpt lat="32.708667755" lon="35.033702850">
  <ele>452.471191</ele>
  <time>2011-07-15T06:42:33Z</time>
  <speed>0.890000</speed>
</trkpt>
<trkpt lat="32.708641052" lon="35.033691406">
  <ele>451.666504</ele>
  <time>2011-07-15T06:42:36Z</time>
  <speed>1.070000</speed>
</trkpt>
<trkpt lat="32.708614349" lon="35.033676147">
  <ele>452.127441</ele>
  <time>2011-07-15T06:42:38Z</time>
  <speed>1.750000</speed>
</trkpt>
<trkpt lat="32.708576202" lon="35.033676147">
  <ele>451.994629</ele>
  <time>2011-07-15T06:42:40Z</time>
  <speed>2.270000</speed>
</trkpt>
<trkpt lat="32.708545685" lon="35.033668518">
  <ele>451.494629</ele>
  <time>2011-07-15T06:42:41Z</time>
  <speed>3.140000</speed>
</trkpt>
<trkpt lat="32.708518982" lon="35.033668518">
  <ele>450.955566</ele>
  <time>2011-07-15T06:42:42Z</time>
  <speed>3.930000</speed>
</trkpt>
<trkpt lat="32.708480835" lon="35.033664703">
  <ele>450.908691</ele>
  <time>2011-07-15T06:42:43Z</time>
  <speed>4.030000</speed>
</trkpt>
<trkpt lat="32.708442688" lon="35.033657074">
  <ele>450.408691</ele>
  <time>2011-07-15T06:42:44Z</time>
  <speed>4.520000</speed>
</trkpt>
<trkpt lat="32.708400726" lon="35.033649445">
  <ele>449.893066</ele>
  <time>2011-07-15T06:42:45Z</time>
  <speed>4.960000</speed>
</trkpt>
<trkpt lat="32.708351135" lon="35.033645630">
  <ele>449.463379</ele>
  <time>2011-07-15T06:42:46Z</time>
  <speed>5.240000</speed>
</trkpt>
<trkpt lat="32.708297729" lon="35.033649445">
  <ele>448.643066</ele>
  <time>2011-07-15T06:42:47Z</time>
  <speed>5.600000</speed>
</trkpt>
<trkpt lat="32.708244324" lon="35.033641815">
  <ele>448.229004</ele>
  <time>2011-07-15T06:42:48Z</time>
  <speed>5.620000</speed>
</trkpt>
<trkpt lat="32.708190918" lon="35.033638000">
  <ele>447.627441</ele>
  <time>2011-07-15T06:42:49Z</time>
  <speed>6.100000</speed>
</trkpt>
<trkpt lat="32.708137512" lon="35.033630371">
  <ele>447.330566</ele>
  <time>2011-07-15T06:42:50Z</time>
  <speed>6.040000</speed>
</trkpt>
<trkpt lat="32.708087921" lon="35.033607483">
  <ele>446.174316</ele>
  <time>2011-07-15T06:42:51Z</time>
  <speed>6.530000</speed>
</trkpt>
<trkpt lat="32.708026886" lon="35.033588409">
  <ele>446.346191</ele>
  <time>2011-07-15T06:42:52Z</time>
  <speed>6.270000</speed>
</trkpt>
<trkpt lat="32.707973480" lon="35.033565521">
  <ele>446.604004</ele>
  <time>2011-07-15T06:42:53Z</time>
  <speed>6.000000</speed>
</trkpt>
<trkpt lat="32.707920074" lon="35.033554077">
  <ele>446.783691</ele>
  <time>2011-07-15T06:42:54Z</time>
  <speed>5.780000</speed>
</trkpt>
<trkpt lat="32.707874298" lon="35.033531189">
  <ele>446.463379</ele>
  <time>2011-07-15T06:42:55Z</time>
  <speed>5.110000</speed>
</trkpt>
<trkpt lat="32.707832336" lon="35.033515930">
  <ele>446.408691</ele>
  <time>2011-07-15T06:42:56Z</time>
  <speed>4.780000</speed>
</trkpt>
<trkpt lat="32.707794189" lon="35.033500671">
  <ele>446.361816</ele>
  <time>2011-07-15T06:42:57Z</time>
  <speed>3.910000</speed>
</trkpt>
<trkpt lat="32.707756042" lon="35.033485413">
  <ele>446.080566</ele>
  <time>2011-07-15T06:42:58Z</time>
  <speed>3.530000</speed>
</trkpt>
<trkpt lat="32.707721710" lon="35.033477783">
  <ele>445.885254</ele>
  <time>2011-07-15T06:42:59Z</time>
  <speed>2.940000</speed>
</trkpt>
<trkpt lat="32.707687378" lon="35.033477783">
  <ele>445.510254</ele>
  <time>2011-07-15T06:43:01Z</time>
  <speed>1.220000</speed>
</trkpt>
<trkpt lat="32.707653046" lon="35.033470154">
  <ele>444.260254</ele>
  <time>2011-07-15T06:43:05Z</time>
  <speed>1.340000</speed>
</trkpt>
<trkpt lat="32.707614899" lon="35.033477783">
  <ele>443.955566</ele>
  <time>2011-07-15T06:43:07Z</time>
  <speed>1.220000</speed>
</trkpt>
<trkpt lat="32.707576752" lon="35.033489227">
  <ele>443.291504</ele>
  <time>2011-07-15T06:43:10Z</time>
  <speed>1.400000</speed>
</trkpt>
<trkpt lat="32.707546234" lon="35.033493042">
  <ele>443.361816</ele>
  <time>2011-07-15T06:43:12Z</time>
  <speed>1.620000</speed>
</trkpt>
<trkpt lat="32.707519531" lon="35.033512115">
  <ele>444.041504</ele>
  <time>2011-07-15T06:43:14Z</time>
  <speed>1.630000</speed>
</trkpt>
<trkpt lat="32.707485199" lon="35.033527374">
  <ele>443.963379</ele>
  <time>2011-07-15T06:43:16Z</time>
  <speed>1.720000</speed>
</trkpt>
<trkpt lat="32.707454681" lon="35.033523560">
  <ele>443.479004</ele>
  <time>2011-07-15T06:43:18Z</time>
  <speed>1.800000</speed>
</trkpt>
<trkpt lat="32.707416534" lon="35.033523560">
  <ele>442.525879</ele>
  <time>2011-07-15T06:43:21Z</time>
  <speed>1.350000</speed>
</trkpt>
<trkpt lat="32.707382202" lon="35.033523560">
  <ele>442.080566</ele>
  <time>2011-07-15T06:43:23Z</time>
  <speed>1.820000</speed>
</trkpt>
<trkpt lat="32.707340240" lon="35.033527374">
  <ele>443.236816</ele>
  <time>2011-07-15T06:43:25Z</time>
  <speed>1.390000</speed>
</trkpt>
<trkpt lat="32.707305908" lon="35.033523560">
  <ele>443.643066</ele>
  <time>2011-07-15T06:43:27Z</time>
  <speed>1.550000</speed>
</trkpt>
<trkpt lat="32.707275391" lon="35.033538818">
  <ele>443.564941</ele>
  <time>2011-07-15T06:43:29Z</time>
  <speed>1.930000</speed>
</trkpt>
<trkpt lat="32.707248688" lon="35.033557892">
  <ele>444.846191</ele>
  <time>2011-07-15T06:43:31Z</time>
  <speed>1.350000</speed>
</trkpt>
<trkpt lat="32.707225800" lon="35.033576965">
  <ele>445.229004</ele>
  <time>2011-07-15T06:43:33Z</time>
  <speed>1.560000</speed>
</trkpt>
<trkpt lat="32.707195282" lon="35.033584595">
  <ele>445.221191</ele>
  <time>2011-07-15T06:43:35Z</time>
  <speed>1.680000</speed>
</trkpt>
<trkpt lat="32.707168579" lon="35.033584595">
  <ele>444.838379</ele>
  <time>2011-07-15T06:43:37Z</time>
  <speed>1.600000</speed>
</trkpt>
<trkpt lat="32.707134247" lon="35.033603668">
  <ele>444.057129</ele>
  <time>2011-07-15T06:43:39Z</time>
  <speed>1.840000</speed>
</trkpt>
<trkpt lat="32.707107544" lon="35.033615112">
  <ele>443.760254</ele>
  <time>2011-07-15T06:43:41Z</time>
  <speed>1.510000</speed>
</trkpt>
<trkpt lat="32.707080841" lon="35.033622742">
  <ele>443.861816</ele>
  <time>2011-07-15T06:43:43Z</time>
  <speed>1.520000</speed>
</trkpt>
<trkpt lat="32.707054138" lon="35.033645630">
  <ele>444.447754</ele>
  <time>2011-07-15T06:43:45Z</time>
  <speed>1.660000</speed>
</trkpt>
<trkpt lat="32.707015991" lon="35.033672333">
  <ele>446.244629</ele>
  <time>2011-07-15T06:43:47Z</time>
  <speed>1.650000</speed>
</trkpt>
<trkpt lat="32.706985474" lon="35.033672333">
  <ele>444.283691</ele>
  <time>2011-07-15T06:43:50Z</time>
  <speed>1.460000</speed>
</trkpt>
<trkpt lat="32.706943512" lon="35.033687592">
  <ele>443.760254</ele>
  <time>2011-07-15T06:43:53Z</time>
  <speed>1.630000</speed>
</trkpt>
<trkpt lat="32.706916809" lon="35.033710480">
  <ele>444.252441</ele>
  <time>2011-07-15T06:43:55Z</time>
  <speed>1.740000</speed>
</trkpt>
<trkpt lat="32.706882477" lon="35.033737183">
  <ele>444.275879</ele>
  <time>2011-07-15T06:43:58Z</time>
  <speed>1.600000</speed>
</trkpt>
<trkpt lat="32.706855774" lon="35.033771515">
  <ele>444.611816</ele>
  <time>2011-07-15T06:44:00Z</time>
  <speed>1.640000</speed>
</trkpt>
<trkpt lat="32.706825256" lon="35.033782959">
  <ele>444.643066</ele>
  <time>2011-07-15T06:44:02Z</time>
  <speed>1.730000</speed>
</trkpt>
<trkpt lat="32.706794739" lon="35.033790588">
  <ele>444.791504</ele>
  <time>2011-07-15T06:44:04Z</time>
  <speed>1.370000</speed>
</trkpt>
<trkpt lat="32.706764221" lon="35.033813477">
  <ele>443.150879</ele>
  <time>2011-07-15T06:44:07Z</time>
  <speed>1.470000</speed>
</trkpt>
<trkpt lat="32.706722260" lon="35.033843994">
  <ele>443.080566</ele>
  <time>2011-07-15T06:44:10Z</time>
  <speed>1.780000</speed>
</trkpt>
<trkpt lat="32.706687927" lon="35.033870697">
  <ele>443.127441</ele>
  <time>2011-07-15T06:44:12Z</time>
  <speed>2.100000</speed>
</trkpt>
<trkpt lat="32.706653595" lon="35.033893585">
  <ele>442.510254</ele>
  <time>2011-07-15T06:44:14Z</time>
  <speed>1.750000</speed>
</trkpt>
<trkpt lat="32.706623077" lon="35.033916473">
  <ele>442.486816</ele>
  <time>2011-07-15T06:44:16Z</time>
  <speed>1.710000</speed>
</trkpt>
<trkpt lat="32.706596375" lon="35.033924103">
  <ele>442.611816</ele>
  <time>2011-07-15T06:44:18Z</time>
  <speed>1.610000</speed>
</trkpt>
<trkpt lat="32.706573486" lon="35.033943176">
  <ele>442.885254</ele>
  <time>2011-07-15T06:44:20Z</time>
  <speed>1.860000</speed>
</trkpt>
<trkpt lat="32.706539154" lon="35.033969879">
  <ele>443.549316</ele>
  <time>2011-07-15T06:44:22Z</time>
  <speed>2.040000</speed>
</trkpt>
<trkpt lat="32.706501007" lon="35.033992767">
  <ele>444.502441</ele>
  <time>2011-07-15T06:44:24Z</time>
  <speed>2.050000</speed>
</trkpt>
<trkpt lat="32.706466675" lon="35.034019470">
  <ele>443.807129</ele>
  <time>2011-07-15T06:44:26Z</time>
  <speed>2.210000</speed>
</trkpt>
<trkpt lat="32.706432343" lon="35.034042358">
  <ele>443.463379</ele>
  <time>2011-07-15T06:44:28Z</time>
  <speed>2.200000</speed>
</trkpt>
<trkpt lat="32.706401825" lon="35.034076691">
  <ele>444.244629</ele>
  <time>2011-07-15T06:44:30Z</time>
  <speed>2.390000</speed>
</trkpt>
<trkpt lat="32.706359863" lon="35.034099579">
  <ele>444.572754</ele>
  <time>2011-07-15T06:44:32Z</time>
  <speed>2.480000</speed>
</trkpt>
<trkpt lat="32.706321716" lon="35.034126282">
  <ele>445.510254</ele>
  <time>2011-07-15T06:44:34Z</time>
  <speed>2.510000</speed>
</trkpt>
<trkpt lat="32.706295013" lon="35.034141541">
  <ele>445.549316</ele>
  <time>2011-07-15T06:44:35Z</time>
  <speed>2.740000</speed>
</trkpt>
<trkpt lat="32.706256866" lon="35.034164429">
  <ele>445.588379</ele>
  <time>2011-07-15T06:44:37Z</time>
  <speed>2.180000</speed>
</trkpt>
<trkpt lat="32.706241608" lon="35.034187317">
  <ele>446.424316</ele>
  <time>2011-07-15T06:44:38Z</time>
  <speed>2.160000</speed>
</trkpt>
<trkpt lat="32.706211090" lon="35.034217834">
  <ele>446.947754</ele>
  <time>2011-07-15T06:44:40Z</time>
  <speed>2.130000</speed>
</trkpt>
<trkpt lat="32.706172943" lon="35.034248352">
  <ele>446.791504</ele>
  <time>2011-07-15T06:44:42Z</time>
  <speed>2.340000</speed>
</trkpt>
<trkpt lat="32.706138611" lon="35.034275055">
  <ele>446.619629</ele>
  <time>2011-07-15T06:44:44Z</time>
  <speed>2.610000</speed>
</trkpt>
<trkpt lat="32.706096649" lon="35.034297943">
  <ele>446.549316</ele>
  <time>2011-07-15T06:44:46Z</time>
  <speed>2.580000</speed>
</trkpt>
<trkpt lat="32.706058502" lon="35.034324646">
  <ele>445.994629</ele>
  <time>2011-07-15T06:44:48Z</time>
  <speed>2.650000</speed>
</trkpt>
<trkpt lat="32.706012726" lon="35.034351349">
  <ele>445.893066</ele>
  <time>2011-07-15T06:44:50Z</time>
  <speed>2.690000</speed>
</trkpt>
<trkpt lat="32.705989838" lon="35.034374237">
  <ele>446.479004</ele>
  <time>2011-07-15T06:44:51Z</time>
  <speed>3.180000</speed>
</trkpt>
<trkpt lat="32.705970764" lon="35.034389496">
  <ele>445.002441</ele>
  <time>2011-07-15T06:44:52Z</time>
  <speed>3.360000</speed>
</trkpt>
<trkpt lat="32.705947876" lon="35.034412384">
  <ele>444.619629</ele>
  <time>2011-07-15T06:44:53Z</time>
  <speed>3.720000</speed>
</trkpt>
<trkpt lat="32.705913544" lon="35.034442902">
  <ele>445.143066</ele>
  <time>2011-07-15T06:44:54Z</time>
  <speed>4.260000</speed>
</trkpt>
<trkpt lat="32.705875397" lon="35.034473419">
  <ele>445.838379</ele>
  <time>2011-07-15T06:44:55Z</time>
  <speed>4.990000</speed>
</trkpt>
<trkpt lat="32.705837250" lon="35.034500122">
  <ele>445.268066</ele>
  <time>2011-07-15T06:44:56Z</time>
  <speed>4.910000</speed>
</trkpt>
<trkpt lat="32.705799103" lon="35.034519196">
  <ele>444.775879</ele>
  <time>2011-07-15T06:44:57Z</time>
  <speed>4.890000</speed>
</trkpt>
<trkpt lat="32.705753326" lon="35.034534454">
  <ele>443.932129</ele>
  <time>2011-07-15T06:44:58Z</time>
  <speed>5.010000</speed>
</trkpt>
<trkpt lat="32.705715179" lon="35.034549713">
  <ele>442.807129</ele>
  <time>2011-07-15T06:44:59Z</time>
  <speed>4.520000</speed>
</trkpt>
<trkpt lat="32.705688477" lon="35.034561157">
  <ele>441.643066</ele>
  <time>2011-07-15T06:45:00Z</time>
  <speed>4.200000</speed>
</trkpt>
<trkpt lat="32.705657959" lon="35.034576416">
  <ele>440.869629</ele>
  <time>2011-07-15T06:45:01Z</time>
  <speed>3.840000</speed>
</trkpt>
<trkpt lat="32.705627441" lon="35.034595490">
  <ele>441.564941</ele>
  <time>2011-07-15T06:45:02Z</time>
  <speed>3.240000</speed>
</trkpt>
<trkpt lat="32.705600739" lon="35.034614563">
  <ele>441.275879</ele>
  <time>2011-07-15T06:45:03Z</time>
  <speed>3.200000</speed>
</trkpt>
<trkpt lat="32.705574036" lon="35.034626007">
  <ele>441.213379</ele>
  <time>2011-07-15T06:45:04Z</time>
  <speed>2.640000</speed>
</trkpt>
<trkpt lat="32.705532074" lon="35.034637451">
  <ele>441.283691</ele>
  <time>2011-07-15T06:45:06Z</time>
  <speed>2.000000</speed>
</trkpt>
<trkpt lat="32.705501556" lon="35.034648895">
  <ele>441.197754</ele>
  <time>2011-07-15T06:45:08Z</time>
  <speed>1.860000</speed>
</trkpt>
<trkpt lat="32.705474854" lon="35.034679413">
  <ele>442.143066</ele>
  <time>2011-07-15T06:45:10Z</time>
  <speed>1.790000</speed>
</trkpt>
<trkpt lat="32.705444336" lon="35.034694672">
  <ele>442.174316</ele>
  <time>2011-07-15T06:45:12Z</time>
  <speed>1.980000</speed>
</trkpt>
<trkpt lat="32.705410004" lon="35.034721375">
  <ele>441.791504</ele>
  <time>2011-07-15T06:45:14Z</time>
  <speed>2.110000</speed>
</trkpt>
<trkpt lat="32.705379486" lon="35.034736633">
  <ele>442.322754</ele>
  <time>2011-07-15T06:45:16Z</time>
  <speed>1.810000</speed>
</trkpt>
<trkpt lat="32.705348969" lon="35.034763336">
  <ele>442.979004</ele>
  <time>2011-07-15T06:45:18Z</time>
  <speed>1.900000</speed>
</trkpt>
<trkpt lat="32.705318451" lon="35.034778595">
  <ele>443.455566</ele>
  <time>2011-07-15T06:45:20Z</time>
  <speed>1.900000</speed>
</trkpt>
<trkpt lat="32.705295563" lon="35.034797668">
  <ele>444.939941</ele>
  <time>2011-07-15T06:45:22Z</time>
  <speed>1.650000</speed>
</trkpt>
<trkpt lat="32.705265045" lon="35.034824371">
  <ele>445.854004</ele>
  <time>2011-07-15T06:45:24Z</time>
  <speed>1.990000</speed>
</trkpt>
<trkpt lat="32.705238342" lon="35.034839630">
  <ele>446.174316</ele>
  <time>2011-07-15T06:45:26Z</time>
  <speed>1.750000</speed>
</trkpt>
<trkpt lat="32.705211639" lon="35.034862518">
  <ele>446.666504</ele>
  <time>2011-07-15T06:45:28Z</time>
  <speed>1.410000</speed>
</trkpt>
<trkpt lat="32.705184937" lon="35.034885406">
  <ele>446.486816</ele>
  <time>2011-07-15T06:45:31Z</time>
  <speed>1.560000</speed>
</trkpt>
<trkpt lat="32.705162048" lon="35.034904480">
  <ele>446.729004</ele>
  <time>2011-07-15T06:45:33Z</time>
  <speed>1.800000</speed>
</trkpt>
<trkpt lat="32.705127716" lon="35.034927368">
  <ele>447.166504</ele>
  <time>2011-07-15T06:45:35Z</time>
  <speed>1.770000</speed>
</trkpt>
<trkpt lat="32.705104828" lon="35.034946442">
  <ele>446.775879</ele>
  <time>2011-07-15T06:45:37Z</time>
  <speed>1.640000</speed>
</trkpt>
<trkpt lat="32.705078125" lon="35.034965515">
  <ele>447.002441</ele>
  <time>2011-07-15T06:45:39Z</time>
  <speed>1.700000</speed>
</trkpt>
<trkpt lat="32.705043793" lon="35.034980774">
  <ele>446.494629</ele>
  <time>2011-07-15T06:45:42Z</time>
  <speed>1.670000</speed>
</trkpt>
<trkpt lat="32.705017090" lon="35.035003662">
  <ele>446.729004</ele>
  <time>2011-07-15T06:45:44Z</time>
  <speed>1.820000</speed>
</trkpt>
<trkpt lat="32.704986572" lon="35.035022736">
  <ele>447.104004</ele>
  <time>2011-07-15T06:45:46Z</time>
  <speed>2.020000</speed>
</trkpt>
<trkpt lat="32.704959869" lon="35.035045624">
  <ele>446.783691</ele>
  <time>2011-07-15T06:45:48Z</time>
  <speed>1.950000</speed>
</trkpt>
<trkpt lat="32.704933167" lon="35.035079956">
  <ele>447.205566</ele>
  <time>2011-07-15T06:45:50Z</time>
  <speed>2.330000</speed>
</trkpt>
<trkpt lat="32.704898834" lon="35.035114288">
  <ele>447.455566</ele>
  <time>2011-07-15T06:45:52Z</time>
  <speed>2.250000</speed>
</trkpt>
<trkpt lat="32.704872131" lon="35.035144806">
  <ele>447.330566</ele>
  <time>2011-07-15T06:45:54Z</time>
  <speed>2.260000</speed>
</trkpt>
<trkpt lat="32.704849243" lon="35.035190582">
  <ele>447.611816</ele>
  <time>2011-07-15T06:45:56Z</time>
  <speed>2.400000</speed>
</trkpt>
<trkpt lat="32.704814911" lon="35.035224915">
  <ele>447.182129</ele>
  <time>2011-07-15T06:45:58Z</time>
  <speed>2.490000</speed>
</trkpt>
<trkpt lat="32.704788208" lon="35.035255432">
  <ele>447.518066</ele>
  <time>2011-07-15T06:46:00Z</time>
  <speed>2.270000</speed>
</trkpt>
<trkpt lat="32.704753876" lon="35.035266876">
  <ele>445.830566</ele>
  <time>2011-07-15T06:46:02Z</time>
  <speed>1.360000</speed>
</trkpt>
<trkpt lat="32.704730988" lon="35.035228729">
  <ele>445.947754</ele>
  <time>2011-07-15T06:46:06Z</time>
  <speed>1.450000</speed>
</trkpt>
<trkpt lat="32.704750061" lon="35.035182953">
  <ele>446.494629</ele>
  <time>2011-07-15T06:46:09Z</time>
  <speed>1.770000</speed>
</trkpt>
<trkpt lat="32.704769135" lon="35.035156250">
  <ele>446.557129</ele>
  <time>2011-07-15T06:46:11Z</time>
  <speed>1.640000</speed>
</trkpt>
<trkpt lat="32.704788208" lon="35.035121918">
  <ele>446.494629</ele>
  <time>2011-07-15T06:46:13Z</time>
  <speed>1.230000</speed>
</trkpt>
<trkpt lat="32.704807281" lon="35.035083771">
  <ele>446.611816</ele>
  <time>2011-07-15T06:46:15Z</time>
  <speed>1.410000</speed>
</trkpt>
<trkpt lat="32.704826355" lon="35.035064697">
  <ele>448.447754</ele>
  <time>2011-07-15T06:46:17Z</time>
  <speed>1.410000</speed>
</trkpt>
<trkpt lat="32.704845428" lon="35.035037994">
  <ele>449.189941</ele>
  <time>2011-07-15T06:46:19Z</time>
  <speed>1.140000</speed>
</trkpt>
<trkpt lat="32.704868317" lon="35.035011292">
  <ele>449.307129</ele>
  <time>2011-07-15T06:46:22Z</time>
  <speed>1.260000</speed>
</trkpt>
<trkpt lat="32.704891205" lon="35.034980774">
  <ele>448.900879</ele>
  <time>2011-07-15T06:46:25Z</time>
  <speed>1.490000</speed>
</trkpt>
<trkpt lat="32.704914093" lon="35.034954071">
  <ele>449.330566</ele>
  <time>2011-07-15T06:46:27Z</time>
  <speed>1.800000</speed>
</trkpt>
<trkpt lat="32.704933167" lon="35.034919739">
  <ele>449.877441</ele>
  <time>2011-07-15T06:46:29Z</time>
  <speed>1.310000</speed>
</trkpt>
<trkpt lat="32.704956055" lon="35.034881592">
  <ele>451.033691</ele>
  <time>2011-07-15T06:46:32Z</time>
  <speed>1.600000</speed>
</trkpt>
<trkpt lat="32.704986572" lon="35.034873962">
  <ele>452.338379</ele>
  <time>2011-07-15T06:46:34Z</time>
  <speed>1.520000</speed>
</trkpt>
<trkpt lat="32.705009460" lon="35.034847260">
  <ele>452.705566</ele>
  <time>2011-07-15T06:46:36Z</time>
  <speed>1.730000</speed>
</trkpt>
<trkpt lat="32.705036163" lon="35.034816742">
  <ele>453.127441</ele>
  <time>2011-07-15T06:46:39Z</time>
  <speed>1.550000</speed>
</trkpt>
<trkpt lat="32.705055237" lon="35.034793854">
  <ele>453.721191</ele>
  <time>2011-07-15T06:46:41Z</time>
  <speed>1.830000</speed>
</trkpt>
<trkpt lat="32.705078125" lon="35.034767151">
  <ele>454.330566</ele>
  <time>2011-07-15T06:46:43Z</time>
  <speed>1.590000</speed>
</trkpt>
<trkpt lat="32.705101013" lon="35.034744263">
  <ele>454.322754</ele>
  <time>2011-07-15T06:46:45Z</time>
  <speed>1.520000</speed>
</trkpt>
<trkpt lat="32.705127716" lon="35.034721375">
  <ele>454.799316</ele>
  <time>2011-07-15T06:46:48Z</time>
  <speed>1.140000</speed>
</trkpt>
<trkpt lat="32.705142975" lon="35.034675598">
  <ele>455.877441</ele>
  <time>2011-07-15T06:46:51Z</time>
  <speed>1.310000</speed>
</trkpt>
<trkpt lat="32.705162048" lon="35.034645081">
  <ele>456.088379</ele>
  <time>2011-07-15T06:46:54Z</time>
  <speed>0.990000</speed>
</trkpt>
<trkpt lat="32.705181122" lon="35.034622192">
  <ele>456.236816</ele>
  <time>2011-07-15T06:46:56Z</time>
  <speed>1.120000</speed>
</trkpt>
<trkpt lat="32.705200195" lon="35.034599304">
  <ele>456.189941</ele>
  <time>2011-07-15T06:46:59Z</time>
  <speed>1.500000</speed>
</trkpt>
<trkpt lat="32.705219269" lon="35.034568787">
  <ele>456.135254</ele>
  <time>2011-07-15T06:47:01Z</time>
  <speed>1.210000</speed>
</trkpt>
<trkpt lat="32.705230713" lon="35.034530640">
  <ele>456.627441</ele>
  <time>2011-07-15T06:47:04Z</time>
  <speed>1.220000</speed>
</trkpt>
<trkpt lat="32.705249786" lon="35.034507751">
  <ele>456.822754</ele>
  <time>2011-07-15T06:47:06Z</time>
  <speed>1.210000</speed>
</trkpt>
<trkpt lat="32.705257416" lon="35.034469604">
  <ele>456.689941</ele>
  <time>2011-07-15T06:47:09Z</time>
  <speed>1.350000</speed>
</trkpt>
<trkpt lat="32.705287933" lon="35.034439087">
  <ele>457.033691</ele>
  <time>2011-07-15T06:47:13Z</time>
  <speed>1.450000</speed>
</trkpt>
<trkpt lat="32.705326080" lon="35.034427643">
  <ele>457.588379</ele>
  <time>2011-07-15T06:47:16Z</time>
  <speed>1.390000</speed>
</trkpt>
<trkpt lat="32.705356598" lon="35.034408569">
  <ele>458.752441</ele>
  <time>2011-07-15T06:47:19Z</time>
  <speed>1.610000</speed>
</trkpt>
<trkpt lat="32.705383301" lon="35.034381866">
  <ele>459.064941</ele>
  <time>2011-07-15T06:47:21Z</time>
  <speed>1.430000</speed>
</trkpt>
<trkpt lat="32.705413818" lon="35.034374237">
  <ele>460.268066</ele>
  <time>2011-07-15T06:47:23Z</time>
  <speed>1.570000</speed>
</trkpt>
<trkpt lat="32.705451965" lon="35.034358978">
  <ele>460.564941</ele>
  <time>2011-07-15T06:47:26Z</time>
  <speed>1.250000</speed>
</trkpt>
<trkpt lat="32.705482483" lon="35.034332275">
  <ele>460.002441</ele>
  <time>2011-07-15T06:47:29Z</time>
  <speed>1.820000</speed>
</trkpt>
<trkpt lat="32.705513000" lon="35.034309387">
  <ele>459.814941</ele>
  <time>2011-07-15T06:47:31Z</time>
  <speed>2.010000</speed>
</trkpt>
<trkpt lat="32.705539703" lon="35.034290314">
  <ele>459.471191</ele>
  <time>2011-07-15T06:47:33Z</time>
  <speed>2.100000</speed>
</trkpt>
<trkpt lat="32.705585480" lon="35.034278870">
  <ele>459.541504</ele>
  <time>2011-07-15T06:47:35Z</time>
  <speed>2.130000</speed>
</trkpt>
<trkpt lat="32.705635071" lon="35.034263611">
  <ele>459.877441</ele>
  <time>2011-07-15T06:47:37Z</time>
  <speed>2.310000</speed>
</trkpt>
<trkpt lat="32.705673218" lon="35.034244537">
  <ele>459.299316</ele>
  <time>2011-07-15T06:47:39Z</time>
  <speed>2.470000</speed>
</trkpt>
<trkpt lat="32.705711365" lon="35.034221649">
  <ele>459.729004</ele>
  <time>2011-07-15T06:47:41Z</time>
  <speed>2.110000</speed>
</trkpt>
<trkpt lat="32.705741882" lon="35.034210205">
  <ele>459.393066</ele>
  <time>2011-07-15T06:47:43Z</time>
  <speed>1.700000</speed>
</trkpt>
<trkpt lat="32.705772400" lon="35.034191132">
  <ele>458.900879</ele>
  <time>2011-07-15T06:47:45Z</time>
  <speed>1.820000</speed>
</trkpt>
<trkpt lat="32.705806732" lon="35.034175873">
  <ele>459.346191</ele>
  <time>2011-07-15T06:47:47Z</time>
  <speed>1.730000</speed>
</trkpt>
<trkpt lat="32.705837250" lon="35.034156799">
  <ele>459.580566</ele>
  <time>2011-07-15T06:47:49Z</time>
  <speed>2.080000</speed>
</trkpt>
<trkpt lat="32.705867767" lon="35.034149170">
  <ele>458.846191</ele>
  <time>2011-07-15T06:47:51Z</time>
  <speed>1.900000</speed>
</trkpt>
<trkpt lat="32.705890656" lon="35.034122467">
  <ele>458.846191</ele>
  <time>2011-07-15T06:47:53Z</time>
  <speed>1.580000</speed>
</trkpt>
<trkpt lat="32.705921173" lon="35.034107208">
  <ele>458.611816</ele>
  <time>2011-07-15T06:47:55Z</time>
  <speed>1.860000</speed>
</trkpt>
<trkpt lat="32.705947876" lon="35.034095764">
  <ele>458.619629</ele>
  <time>2011-07-15T06:47:57Z</time>
  <speed>1.570000</speed>
</trkpt>
<trkpt lat="32.705963135" lon="35.034069061">
  <ele>459.119629</ele>
  <time>2011-07-15T06:47:59Z</time>
  <speed>1.740000</speed>
</trkpt>
<trkpt lat="32.705989838" lon="35.034046173">
  <ele>460.127441</ele>
  <time>2011-07-15T06:48:01Z</time>
  <speed>1.840000</speed>
</trkpt>
<trkpt lat="32.706016541" lon="35.034015656">
  <ele>459.908691</ele>
  <time>2011-07-15T06:48:03Z</time>
  <speed>2.000000</speed>
</trkpt>
<trkpt lat="32.706047058" lon="35.033992767">
  <ele>460.229004</ele>
  <time>2011-07-15T06:48:05Z</time>
  <speed>1.920000</speed>
</trkpt>
<trkpt lat="32.706069946" lon="35.033966064">
  <ele>460.377441</ele>
  <time>2011-07-15T06:48:07Z</time>
  <speed>1.760000</speed>
</trkpt>
<trkpt lat="32.706096649" lon="35.033931732">
  <ele>460.900879</ele>
  <time>2011-07-15T06:48:09Z</time>
  <speed>1.870000</speed>
</trkpt>
<trkpt lat="32.706123352" lon="35.033908844">
  <ele>461.533691</ele>
  <time>2011-07-15T06:48:11Z</time>
  <speed>1.780000</speed>
</trkpt>
<trkpt lat="32.706150055" lon="35.033874512">
  <ele>462.541504</ele>
  <time>2011-07-15T06:48:13Z</time>
  <speed>1.650000</speed>
</trkpt>
<trkpt lat="32.706176758" lon="35.033843994">
  <ele>464.080566</ele>
  <time>2011-07-15T06:48:15Z</time>
  <speed>1.430000</speed>
</trkpt>
<trkpt lat="32.706188202" lon="35.033809662">
  <ele>464.408691</ele>
  <time>2011-07-15T06:48:17Z</time>
  <speed>1.670000</speed>
</trkpt>
<trkpt lat="32.706203461" lon="35.033779144">
  <ele>465.307129</ele>
  <time>2011-07-15T06:48:19Z</time>
  <speed>1.430000</speed>
</trkpt>
<trkpt lat="32.706222534" lon="35.033748627">
  <ele>465.580566</ele>
  <time>2011-07-15T06:48:21Z</time>
  <speed>1.280000</speed>
</trkpt>
<trkpt lat="32.706233978" lon="35.033718109">
  <ele>465.877441</ele>
  <time>2011-07-15T06:48:23Z</time>
  <speed>1.170000</speed>
</trkpt>
<trkpt lat="32.706253052" lon="35.033687592">
  <ele>466.713379</ele>
  <time>2011-07-15T06:48:26Z</time>
  <speed>1.010000</speed>
</trkpt>
<trkpt lat="32.706279755" lon="35.033649445">
  <ele>466.721191</ele>
  <time>2011-07-15T06:48:29Z</time>
  <speed>1.340000</speed>
</trkpt>
<trkpt lat="32.706298828" lon="35.033615112">
  <ele>466.791504</ele>
  <time>2011-07-15T06:48:32Z</time>
  <speed>1.020000</speed>
</trkpt>
<trkpt lat="32.706333160" lon="35.033596039">
  <ele>467.736816</ele>
  <time>2011-07-15T06:48:35Z</time>
  <speed>1.130000</speed>
</trkpt>
<trkpt lat="32.706356049" lon="35.033580780">
  <ele>467.822754</ele>
  <time>2011-07-15T06:48:37Z</time>
  <speed>1.080000</speed>
</trkpt>
<trkpt lat="32.706378937" lon="35.033557892">
  <ele>467.666504</ele>
  <time>2011-07-15T06:48:39Z</time>
  <speed>1.170000</speed>
</trkpt>
<trkpt lat="32.706390381" lon="35.033523560">
  <ele>468.189941</ele>
  <time>2011-07-15T06:48:41Z</time>
  <speed>1.360000</speed>
</trkpt>
<trkpt lat="32.706413269" lon="35.033500671">
  <ele>467.791504</ele>
  <time>2011-07-15T06:48:43Z</time>
  <speed>1.120000</speed>
</trkpt>
<trkpt lat="32.706428528" lon="35.033477783">
  <ele>467.799316</ele>
  <time>2011-07-15T06:48:45Z</time>
  <speed>1.160000</speed>
</trkpt>
<trkpt lat="32.706447601" lon="35.033451080">
  <ele>466.869629</ele>
  <time>2011-07-15T06:48:47Z</time>
  <speed>1.030000</speed>
</trkpt>
<trkpt lat="32.706470490" lon="35.033420563">
  <ele>466.408691</ele>
  <time>2011-07-15T06:48:50Z</time>
  <speed>1.290000</speed>
</trkpt>
<trkpt lat="32.706489563" lon="35.033390045">
  <ele>465.143066</ele>
  <time>2011-07-15T06:48:53Z</time>
  <speed>0.830000</speed>
</trkpt>
<trkpt lat="32.706501007" lon="35.033355713">
  <ele>465.463379</ele>
  <time>2011-07-15T06:48:56Z</time>
  <speed>0.830000</speed>
</trkpt>
<trkpt lat="32.706512451" lon="35.033317566">
  <ele>464.861816</ele>
  <time>2011-07-15T06:48:59Z</time>
  <speed>1.100000</speed>
</trkpt>
<trkpt lat="32.706531525" lon="35.033287048">
  <ele>464.197754</ele>
  <time>2011-07-15T06:49:01Z</time>
  <speed>1.010000</speed>
</trkpt>
<trkpt lat="32.706554413" lon="35.033260345">
  <ele>463.471191</ele>
  <time>2011-07-15T06:49:04Z</time>
  <speed>0.950000</speed>
</trkpt>
<trkpt lat="32.706558228" lon="35.033229828">
  <ele>463.666504</ele>
  <time>2011-07-15T06:49:06Z</time>
  <speed>1.100000</speed>
</trkpt>
<trkpt lat="32.706581116" lon="35.033210754">
  <ele>464.439941</ele>
  <time>2011-07-15T06:49:09Z</time>
  <speed>1.330000</speed>
</trkpt>
<trkpt lat="32.706592560" lon="35.033176422">
  <ele>464.057129</ele>
  <time>2011-07-15T06:49:11Z</time>
  <speed>1.290000</speed>
</trkpt>
<trkpt lat="32.706596375" lon="35.033149719">
  <ele>465.221191</ele>
  <time>2011-07-15T06:49:13Z</time>
  <speed>1.440000</speed>
</trkpt>
<trkpt lat="32.706611633" lon="35.033103943">
  <ele>465.877441</ele>
  <time>2011-07-15T06:49:15Z</time>
  <speed>1.440000</speed>
</trkpt>
<trkpt lat="32.706623077" lon="35.033077240">
  <ele>467.166504</ele>
  <time>2011-07-15T06:49:16Z</time>
  <speed>1.280000</speed>
</trkpt>
<trkpt lat="32.706638336" lon="35.033042908">
  <ele>467.041504</ele>
  <time>2011-07-15T06:49:18Z</time>
  <speed>1.470000</speed>
</trkpt>
<trkpt lat="32.706645966" lon="35.032997131">
  <ele>467.908691</ele>
  <time>2011-07-15T06:49:20Z</time>
  <speed>1.360000</speed>
</trkpt>
<trkpt lat="32.706661224" lon="35.032958984">
  <ele>468.713379</ele>
  <time>2011-07-15T06:49:22Z</time>
  <speed>1.580000</speed>
</trkpt>
<trkpt lat="32.706665039" lon="35.032917023">
  <ele>469.104004</ele>
  <time>2011-07-15T06:49:24Z</time>
  <speed>1.240000</speed>
</trkpt>
<trkpt lat="32.706668854" lon="35.032875061">
  <ele>469.338379</ele>
  <time>2011-07-15T06:49:27Z</time>
  <speed>1.610000</speed>
</trkpt>
<trkpt lat="32.706657410" lon="35.032833099">
  <ele>469.572754</ele>
  <time>2011-07-15T06:49:30Z</time>
  <speed>1.420000</speed>
</trkpt>
<trkpt lat="32.706661224" lon="35.032794952">
  <ele>469.783691</ele>
  <time>2011-07-15T06:49:33Z</time>
  <speed>1.270000</speed>
</trkpt>
<trkpt lat="32.706672668" lon="35.032749176">
  <ele>469.854004</ele>
  <time>2011-07-15T06:49:36Z</time>
  <speed>1.740000</speed>
</trkpt>
<trkpt lat="32.706668854" lon="35.032703400">
  <ele>469.268066</ele>
  <time>2011-07-15T06:49:38Z</time>
  <speed>1.960000</speed>
</trkpt>
<trkpt lat="32.706676483" lon="35.032661438">
  <ele>469.291504</ele>
  <time>2011-07-15T06:49:40Z</time>
  <speed>1.560000</speed>
</trkpt>
<trkpt lat="32.706672668" lon="35.032627106">
  <ele>469.229004</ele>
  <time>2011-07-15T06:49:42Z</time>
  <speed>1.870000</speed>
</trkpt>
<trkpt lat="32.706684113" lon="35.032577515">
  <ele>468.963379</ele>
  <time>2011-07-15T06:49:44Z</time>
  <speed>2.420000</speed>
</trkpt>
<trkpt lat="32.706687927" lon="35.032512665">
  <ele>469.760254</ele>
  <time>2011-07-15T06:49:46Z</time>
  <speed>3.120000</speed>
</trkpt>
<trkpt lat="32.706695557" lon="35.032470703">
  <ele>469.518066</ele>
  <time>2011-07-15T06:49:47Z</time>
  <speed>3.460000</speed>
</trkpt>
<trkpt lat="32.706703186" lon="35.032428741">
  <ele>469.713379</ele>
  <time>2011-07-15T06:49:48Z</time>
  <speed>3.860000</speed>
</trkpt>
<trkpt lat="32.706710815" lon="35.032386780">
  <ele>468.557129</ele>
  <time>2011-07-15T06:49:49Z</time>
  <speed>4.460000</speed>
</trkpt>
<trkpt lat="32.706726074" lon="35.032337189">
  <ele>467.986816</ele>
  <time>2011-07-15T06:49:50Z</time>
  <speed>4.750000</speed>
</trkpt>
<trkpt lat="32.706737518" lon="35.032283783">
  <ele>467.479004</ele>
  <time>2011-07-15T06:49:51Z</time>
  <speed>4.790000</speed>
</trkpt>
<trkpt lat="32.706741333" lon="35.032230377">
  <ele>467.088379</ele>
  <time>2011-07-15T06:49:52Z</time>
  <speed>4.860000</speed>
</trkpt>
<trkpt lat="32.706741333" lon="35.032176971">
  <ele>465.604004</ele>
  <time>2011-07-15T06:49:53Z</time>
  <speed>5.450000</speed>
</trkpt>
<trkpt lat="32.706737518" lon="35.032096863">
  <ele>465.244629</ele>
  <time>2011-07-15T06:49:54Z</time>
  <speed>5.840000</speed>
</trkpt>
<trkpt lat="32.706726074" lon="35.032032013">
  <ele>464.822754</ele>
  <time>2011-07-15T06:49:55Z</time>
  <speed>6.370000</speed>
</trkpt>
<trkpt lat="32.706707001" lon="35.031959534">
  <ele>463.791504</ele>
  <time>2011-07-15T06:49:56Z</time>
  <speed>5.520000</speed>
</trkpt>
<trkpt lat="32.706684113" lon="35.031913757">
  <ele>462.572754</ele>
  <time>2011-07-15T06:49:57Z</time>
  <speed>4.680000</speed>
</trkpt>
<trkpt lat="32.706645966" lon="35.031883240">
  <ele>462.229004</ele>
  <time>2011-07-15T06:49:58Z</time>
  <speed>4.340000</speed>
</trkpt>
<trkpt lat="32.706604004" lon="35.031860352">
  <ele>462.236816</ele>
  <time>2011-07-15T06:49:59Z</time>
  <speed>3.930000</speed>
</trkpt>
<trkpt lat="32.706565857" lon="35.031845093">
  <ele>462.549316</ele>
  <time>2011-07-15T06:50:00Z</time>
  <speed>3.440000</speed>
</trkpt>
<trkpt lat="32.706535339" lon="35.031829834">
  <ele>462.291504</ele>
  <time>2011-07-15T06:50:01Z</time>
  <speed>3.220000</speed>
</trkpt>
<trkpt lat="32.706489563" lon="35.031795502">
  <ele>462.330566</ele>
  <time>2011-07-15T06:50:03Z</time>
  <speed>2.480000</speed>
</trkpt>
<trkpt lat="32.706451416" lon="35.031764984">
  <ele>462.533691</ele>
  <time>2011-07-15T06:50:05Z</time>
  <speed>2.030000</speed>
</trkpt>
<trkpt lat="32.706413269" lon="35.031738281">
  <ele>463.736816</ele>
  <time>2011-07-15T06:50:07Z</time>
  <speed>2.350000</speed>
</trkpt>
<trkpt lat="32.706367493" lon="35.031711578">
  <ele>464.518066</ele>
  <time>2011-07-15T06:50:09Z</time>
  <speed>2.600000</speed>
</trkpt>
<trkpt lat="32.706329346" lon="35.031696320">
  <ele>464.643066</ele>
  <time>2011-07-15T06:50:11Z</time>
  <speed>1.860000</speed>
</trkpt>
<trkpt lat="32.706302643" lon="35.031673431">
  <ele>464.494629</ele>
  <time>2011-07-15T06:50:13Z</time>
  <speed>2.160000</speed>
</trkpt>
<trkpt lat="32.706272125" lon="35.031646729">
  <ele>465.736816</ele>
  <time>2011-07-15T06:50:15Z</time>
  <speed>2.170000</speed>
</trkpt>
<trkpt lat="32.706233978" lon="35.031616211">
  <ele>465.682129</ele>
  <time>2011-07-15T06:50:17Z</time>
  <speed>2.570000</speed>
</trkpt>
<trkpt lat="32.706199646" lon="35.031581879">
  <ele>465.650879</ele>
  <time>2011-07-15T06:50:19Z</time>
  <speed>2.200000</speed>
</trkpt>
<trkpt lat="32.706165314" lon="35.031555176">
  <ele>465.244629</ele>
  <time>2011-07-15T06:50:21Z</time>
  <speed>2.030000</speed>
</trkpt>
<trkpt lat="32.706134796" lon="35.031524658">
  <ele>465.439941</ele>
  <time>2011-07-15T06:50:23Z</time>
  <speed>2.150000</speed>
</trkpt>
<trkpt lat="32.706108093" lon="35.031501770">
  <ele>465.080566</ele>
  <time>2011-07-15T06:50:25Z</time>
  <speed>1.860000</speed>
</trkpt>
<trkpt lat="32.706077576" lon="35.031467438">
  <ele>465.135254</ele>
  <time>2011-07-15T06:50:27Z</time>
  <speed>2.600000</speed>
</trkpt>
<trkpt lat="32.706058502" lon="35.031436920">
  <ele>465.471191</ele>
  <time>2011-07-15T06:50:28Z</time>
  <speed>2.740000</speed>
</trkpt>
<trkpt lat="32.706024170" lon="35.031375885">
  <ele>465.119629</ele>
  <time>2011-07-15T06:50:30Z</time>
  <speed>3.310000</speed>
</trkpt>
<trkpt lat="32.705997467" lon="35.031341553">
  <ele>465.533691</ele>
  <time>2011-07-15T06:50:31Z</time>
  <speed>4.020000</speed>
</trkpt>
<trkpt lat="32.705982208" lon="35.031303406">
  <ele>465.002441</ele>
  <time>2011-07-15T06:50:32Z</time>
  <speed>4.300000</speed>
</trkpt>
<trkpt lat="32.705959320" lon="35.031253815">
  <ele>464.549316</ele>
  <time>2011-07-15T06:50:33Z</time>
  <speed>5.190000</speed>
</trkpt>
<trkpt lat="32.705944061" lon="35.031204224">
  <ele>464.385254</ele>
  <time>2011-07-15T06:50:34Z</time>
  <speed>4.970000</speed>
</trkpt>
<trkpt lat="32.705928802" lon="35.031147003">
  <ele>463.822754</ele>
  <time>2011-07-15T06:50:35Z</time>
  <speed>5.340000</speed>
</trkpt>
<trkpt lat="32.705917358" lon="35.031089783">
  <ele>463.588379</ele>
  <time>2011-07-15T06:50:36Z</time>
  <speed>5.360000</speed>
</trkpt>
<trkpt lat="32.705909729" lon="35.031028748">
  <ele>463.775879</ele>
  <time>2011-07-15T06:50:37Z</time>
  <speed>5.430000</speed>
</trkpt>
<trkpt lat="32.705913544" lon="35.030975342">
  <ele>463.096191</ele>
  <time>2011-07-15T06:50:38Z</time>
  <speed>5.130000</speed>
</trkpt>
<trkpt lat="32.705924988" lon="35.030921936">
  <ele>462.588379</ele>
  <time>2011-07-15T06:50:39Z</time>
  <speed>4.880000</speed>
</trkpt>
<trkpt lat="32.705940247" lon="35.030876160">
  <ele>461.979004</ele>
  <time>2011-07-15T06:50:40Z</time>
  <speed>4.730000</speed>
</trkpt>
<trkpt lat="32.705959320" lon="35.030834198">
  <ele>461.916504</ele>
  <time>2011-07-15T06:50:41Z</time>
  <speed>4.580000</speed>
</trkpt>
<trkpt lat="32.705986023" lon="35.030796051">
  <ele>461.158691</ele>
  <time>2011-07-15T06:50:42Z</time>
  <speed>4.340000</speed>
</trkpt>
<trkpt lat="32.706008911" lon="35.030757904">
  <ele>460.807129</ele>
  <time>2011-07-15T06:50:43Z</time>
  <speed>3.880000</speed>
</trkpt>
<trkpt lat="32.706027985" lon="35.030727386">
  <ele>460.643066</ele>
  <time>2011-07-15T06:50:44Z</time>
  <speed>3.690000</speed>
</trkpt>
<trkpt lat="32.706050873" lon="35.030700684">
  <ele>461.010254</ele>
  <time>2011-07-15T06:50:45Z</time>
  <speed>3.320000</speed>
</trkpt>
<trkpt lat="32.706073761" lon="35.030681610">
  <ele>461.018066</ele>
  <time>2011-07-15T06:50:46Z</time>
  <speed>3.000000</speed>
</trkpt>
<trkpt lat="32.706100464" lon="35.030639648">
  <ele>461.768066</ele>
  <time>2011-07-15T06:50:48Z</time>
  <speed>1.970000</speed>
</trkpt>
<trkpt lat="32.706127167" lon="35.030605316">
  <ele>463.314941</ele>
  <time>2011-07-15T06:50:50Z</time>
  <speed>2.070000</speed>
</trkpt>
<trkpt lat="32.706150055" lon="35.030567169">
  <ele>463.643066</ele>
  <time>2011-07-15T06:50:52Z</time>
  <speed>1.890000</speed>
</trkpt>
<trkpt lat="32.706169128" lon="35.030536652">
  <ele>463.346191</ele>
  <time>2011-07-15T06:50:54Z</time>
  <speed>2.050000</speed>
</trkpt>
<trkpt lat="32.706188202" lon="35.030494690">
  <ele>463.557129</ele>
  <time>2011-07-15T06:50:56Z</time>
  <speed>2.170000</speed>
</trkpt>
<trkpt lat="32.706218719" lon="35.030456543">
  <ele>463.002441</ele>
  <time>2011-07-15T06:50:58Z</time>
  <speed>2.330000</speed>
</trkpt>
<trkpt lat="32.706249237" lon="35.030418396">
  <ele>463.814941</ele>
  <time>2011-07-15T06:51:00Z</time>
  <speed>2.400000</speed>
</trkpt>
<trkpt lat="32.706279755" lon="35.030391693">
  <ele>464.057129</ele>
  <time>2011-07-15T06:51:02Z</time>
  <speed>1.910000</speed>
</trkpt>
<trkpt lat="32.706306458" lon="35.030349731">
  <ele>463.244629</ele>
  <time>2011-07-15T06:51:05Z</time>
  <speed>1.830000</speed>
</trkpt>
<trkpt lat="32.706329346" lon="35.030311584">
  <ele>463.221191</ele>
  <time>2011-07-15T06:51:07Z</time>
  <speed>2.090000</speed>
</trkpt>
<trkpt lat="32.706363678" lon="35.030273438">
  <ele>462.979004</ele>
  <time>2011-07-15T06:51:09Z</time>
  <speed>2.240000</speed>
</trkpt>
<trkpt lat="32.706390381" lon="35.030239105">
  <ele>463.705566</ele>
  <time>2011-07-15T06:51:11Z</time>
  <speed>1.990000</speed>
</trkpt>
<trkpt lat="32.706428528" lon="35.030212402">
  <ele>462.947754</ele>
  <time>2011-07-15T06:51:13Z</time>
  <speed>2.220000</speed>
</trkpt>
<trkpt lat="32.706455231" lon="35.030181885">
  <ele>462.650879</ele>
  <time>2011-07-15T06:51:15Z</time>
  <speed>2.270000</speed>
</trkpt>
<trkpt lat="32.706485748" lon="35.030147552">
  <ele>461.455566</ele>
  <time>2011-07-15T06:51:17Z</time>
  <speed>2.310000</speed>
</trkpt>
<trkpt lat="32.706516266" lon="35.030113220">
  <ele>460.939941</ele>
  <time>2011-07-15T06:51:19Z</time>
  <speed>2.220000</speed>
</trkpt>
<trkpt lat="32.706554413" lon="35.030078888">
  <ele>461.322754</ele>
  <time>2011-07-15T06:51:21Z</time>
  <speed>2.310000</speed>
</trkpt>
<trkpt lat="32.706581116" lon="35.030040741">
  <ele>462.916504</ele>
  <time>2011-07-15T06:51:23Z</time>
  <speed>2.250000</speed>
</trkpt>
<trkpt lat="32.706611633" lon="35.030014038">
  <ele>462.479004</ele>
  <time>2011-07-15T06:51:25Z</time>
  <speed>2.070000</speed>
</trkpt>
<trkpt lat="32.706638336" lon="35.029979706">
  <ele>462.893066</ele>
  <time>2011-07-15T06:51:27Z</time>
  <speed>2.220000</speed>
</trkpt>
<trkpt lat="32.706665039" lon="35.029956818">
  <ele>463.143066</ele>
  <time>2011-07-15T06:51:29Z</time>
  <speed>2.040000</speed>
</trkpt>
<trkpt lat="32.706699371" lon="35.029930115">
  <ele>462.979004</ele>
  <time>2011-07-15T06:51:31Z</time>
  <speed>2.120000</speed>
</trkpt>
<trkpt lat="32.706729889" lon="35.029903412">
  <ele>463.354004</ele>
  <time>2011-07-15T06:51:33Z</time>
  <speed>2.100000</speed>
</trkpt>
<trkpt lat="32.706760406" lon="35.029869080">
  <ele>464.135254</ele>
  <time>2011-07-15T06:51:35Z</time>
  <speed>1.980000</speed>
</trkpt>
<trkpt lat="32.706783295" lon="35.029850006">
  <ele>464.307129</ele>
  <time>2011-07-15T06:51:37Z</time>
  <speed>1.800000</speed>
</trkpt>
<trkpt lat="32.706809998" lon="35.029827118">
  <ele>464.119629</ele>
  <time>2011-07-15T06:51:39Z</time>
  <speed>1.760000</speed>
</trkpt>
<trkpt lat="32.706836700" lon="35.029808044">
  <ele>464.080566</ele>
  <time>2011-07-15T06:51:41Z</time>
  <speed>1.440000</speed>
</trkpt>
<trkpt lat="32.706859589" lon="35.029788971">
  <ele>463.963379</ele>
  <time>2011-07-15T06:51:43Z</time>
  <speed>1.670000</speed>
</trkpt>
<trkpt lat="32.706882477" lon="35.029766083">
  <ele>463.486816</ele>
  <time>2011-07-15T06:51:45Z</time>
  <speed>1.900000</speed>
</trkpt>
<trkpt lat="32.706905365" lon="35.029739380">
  <ele>464.033691</ele>
  <time>2011-07-15T06:51:47Z</time>
  <speed>1.690000</speed>
</trkpt>
<trkpt lat="32.706928253" lon="35.029716492">
  <ele>463.893066</ele>
  <time>2011-07-15T06:51:49Z</time>
  <speed>1.470000</speed>
</trkpt>
<trkpt lat="32.706947327" lon="35.029689789">
  <ele>464.025879</ele>
  <time>2011-07-15T06:51:51Z</time>
  <speed>1.650000</speed>
</trkpt>
<trkpt lat="32.706974030" lon="35.029670715">
  <ele>464.166504</ele>
  <time>2011-07-15T06:51:53Z</time>
  <speed>1.590000</speed>
</trkpt>
<trkpt lat="32.707000732" lon="35.029647827">
  <ele>463.463379</ele>
  <time>2011-07-15T06:51:55Z</time>
  <speed>1.620000</speed>
</trkpt>
<trkpt lat="32.707027435" lon="35.029609680">
  <ele>463.221191</ele>
  <time>2011-07-15T06:51:58Z</time>
  <speed>1.460000</speed>
</trkpt>
<trkpt lat="32.707038879" lon="35.029582977">
  <ele>463.104004</ele>
  <time>2011-07-15T06:52:00Z</time>
  <speed>1.250000</speed>
</trkpt>
<trkpt lat="32.707054138" lon="35.029544830">
  <ele>463.299316</ele>
  <time>2011-07-15T06:52:02Z</time>
  <speed>1.700000</speed>
</trkpt>
<trkpt lat="32.707080841" lon="35.029518127">
  <ele>464.283691</ele>
  <time>2011-07-15T06:52:04Z</time>
  <speed>1.650000</speed>
</trkpt>
<trkpt lat="32.707107544" lon="35.029502869">
  <ele>464.096191</ele>
  <time>2011-07-15T06:52:06Z</time>
  <speed>1.540000</speed>
</trkpt>
<trkpt lat="32.707134247" lon="35.029476166">
  <ele>464.627441</ele>
  <time>2011-07-15T06:52:08Z</time>
  <speed>1.460000</speed>
</trkpt>
<trkpt lat="32.707157135" lon="35.029453278">
  <ele>464.658691</ele>
  <time>2011-07-15T06:52:10Z</time>
  <speed>1.830000</speed>
</trkpt>
<trkpt lat="32.707180023" lon="35.029422760">
  <ele>464.369629</ele>
  <time>2011-07-15T06:52:12Z</time>
  <speed>1.730000</speed>
</trkpt>
<trkpt lat="32.707199097" lon="35.029396057">
  <ele>464.025879</ele>
  <time>2011-07-15T06:52:14Z</time>
  <speed>1.380000</speed>
</trkpt>
<trkpt lat="32.707221985" lon="35.029373169">
  <ele>463.299316</ele>
  <time>2011-07-15T06:52:16Z</time>
  <speed>1.660000</speed>
</trkpt>
<trkpt lat="32.707248688" lon="35.029350281">
  <ele>463.096191</ele>
  <time>2011-07-15T06:52:18Z</time>
  <speed>1.840000</speed>
</trkpt>
<trkpt lat="32.707279205" lon="35.029327393">
  <ele>463.541504</ele>
  <time>2011-07-15T06:52:20Z</time>
  <speed>1.570000</speed>
</trkpt>
<trkpt lat="32.707305908" lon="35.029304504">
  <ele>464.393066</ele>
  <time>2011-07-15T06:52:22Z</time>
  <speed>1.750000</speed>
</trkpt>
<trkpt lat="32.707336426" lon="35.029281616">
  <ele>465.369629</ele>
  <time>2011-07-15T06:52:24Z</time>
  <speed>1.460000</speed>
</trkpt>
<trkpt lat="32.707374573" lon="35.029258728">
  <ele>465.721191</ele>
  <time>2011-07-15T06:52:27Z</time>
  <speed>1.860000</speed>
</trkpt>
<trkpt lat="32.707405090" lon="35.029247284">
  <ele>466.518066</ele>
  <time>2011-07-15T06:52:29Z</time>
  <speed>1.790000</speed>
</trkpt>
<trkpt lat="32.707439423" lon="35.029239655">
  <ele>467.229004</ele>
  <time>2011-07-15T06:52:31Z</time>
  <speed>1.700000</speed>
</trkpt>
<trkpt lat="32.707466125" lon="35.029212952">
  <ele>467.229004</ele>
  <time>2011-07-15T06:52:33Z</time>
  <speed>1.570000</speed>
</trkpt>
<trkpt lat="32.707489014" lon="35.029190063">
  <ele>467.064941</ele>
  <time>2011-07-15T06:52:35Z</time>
  <speed>1.500000</speed>
</trkpt>
<trkpt lat="32.707523346" lon="35.029170990">
  <ele>466.854004</ele>
  <time>2011-07-15T06:52:38Z</time>
  <speed>1.510000</speed>
</trkpt>
<trkpt lat="32.707550049" lon="35.029148102">
  <ele>466.205566</ele>
  <time>2011-07-15T06:52:40Z</time>
  <speed>1.400000</speed>
</trkpt>
<trkpt lat="32.707576752" lon="35.029132843">
  <ele>465.822754</ele>
  <time>2011-07-15T06:52:42Z</time>
  <speed>1.690000</speed>
</trkpt>
<trkpt lat="32.707599640" lon="35.029117584">
  <ele>465.369629</ele>
  <time>2011-07-15T06:52:44Z</time>
  <speed>1.730000</speed>
</trkpt>
<trkpt lat="32.707622528" lon="35.029087067">
  <ele>465.244629</ele>
  <time>2011-07-15T06:52:46Z</time>
  <speed>1.790000</speed>
</trkpt>
<trkpt lat="32.707645416" lon="35.029060364">
  <ele>465.393066</ele>
  <time>2011-07-15T06:52:48Z</time>
  <speed>1.810000</speed>
</trkpt>
<trkpt lat="32.707672119" lon="35.029026031">
  <ele>465.791504</ele>
  <time>2011-07-15T06:52:51Z</time>
  <speed>1.710000</speed>
</trkpt>
<trkpt lat="32.707687378" lon="35.028999329">
  <ele>465.861816</ele>
  <time>2011-07-15T06:52:53Z</time>
  <speed>1.640000</speed>
</trkpt>
<trkpt lat="32.707691193" lon="35.028953552">
  <ele>466.525879</ele>
  <time>2011-07-15T06:52:55Z</time>
  <speed>1.300000</speed>
</trkpt>
<trkpt lat="32.707695007" lon="35.028923035">
  <ele>466.947754</ele>
  <time>2011-07-15T06:52:57Z</time>
  <speed>1.500000</speed>
</trkpt>
<trkpt lat="32.707691193" lon="35.028869629">
  <ele>469.385254</ele>
  <time>2011-07-15T06:52:59Z</time>
  <speed>1.250000</speed>
</trkpt>
<trkpt lat="32.707679749" lon="35.028820038">
  <ele>471.057129</ele>
  <time>2011-07-15T06:53:01Z</time>
  <speed>1.510000</speed>
</trkpt>
<trkpt lat="32.707675934" lon="35.028774261">
  <ele>472.111816</ele>
  <time>2011-07-15T06:53:03Z</time>
  <speed>1.800000</speed>
</trkpt>
<trkpt lat="32.707672119" lon="35.028747559">
  <ele>473.658691</ele>
  <time>2011-07-15T06:53:05Z</time>
  <speed>1.620000</speed>
</trkpt>
<trkpt lat="32.707668304" lon="35.028709412">
  <ele>474.072754</ele>
  <time>2011-07-15T06:53:07Z</time>
  <speed>1.500000</speed>
</trkpt>
<trkpt lat="32.707672119" lon="35.028671265">
  <ele>474.416504</ele>
  <time>2011-07-15T06:53:09Z</time>
  <speed>1.410000</speed>
</trkpt>
<trkpt lat="32.707679749" lon="35.028633118">
  <ele>475.268066</ele>
  <time>2011-07-15T06:53:12Z</time>
  <speed>1.350000</speed>
</trkpt>
<trkpt lat="32.707706451" lon="35.028606415">
  <ele>475.135254</ele>
  <time>2011-07-15T06:53:15Z</time>
  <speed>1.030000</speed>
</trkpt>
<trkpt lat="32.707725525" lon="35.028583527">
  <ele>475.557129</ele>
  <time>2011-07-15T06:53:18Z</time>
  <speed>1.220000</speed>
</trkpt>
<trkpt lat="32.707740784" lon="35.028537750">
  <ele>476.197754</ele>
  <time>2011-07-15T06:53:21Z</time>
  <speed>1.360000</speed>
</trkpt>
<trkpt lat="32.707756042" lon="35.028507233">
  <ele>475.979004</ele>
  <time>2011-07-15T06:53:23Z</time>
  <speed>1.340000</speed>
</trkpt>
<trkpt lat="32.707771301" lon="35.028472900">
  <ele>477.205566</ele>
  <time>2011-07-15T06:53:26Z</time>
  <speed>1.480000</speed>
</trkpt>
<trkpt lat="32.707782745" lon="35.028442383">
  <ele>476.486816</ele>
  <time>2011-07-15T06:53:28Z</time>
  <speed>1.360000</speed>
</trkpt>
<trkpt lat="32.707805634" lon="35.028404236">
  <ele>476.135254</ele>
  <time>2011-07-15T06:53:31Z</time>
  <speed>1.240000</speed>
</trkpt>
<trkpt lat="32.707824707" lon="35.028373718">
  <ele>476.244629</ele>
  <time>2011-07-15T06:53:34Z</time>
  <speed>1.380000</speed>
</trkpt>
<trkpt lat="32.707847595" lon="35.028354645">
  <ele>476.502441</ele>
  <time>2011-07-15T06:53:37Z</time>
  <speed>1.460000</speed>
</trkpt>
<trkpt lat="32.707862854" lon="35.028324127">
  <ele>478.650879</ele>
  <time>2011-07-15T06:53:39Z</time>
  <speed>1.410000</speed>
</trkpt>
<trkpt lat="32.707881927" lon="35.028293610">
  <ele>480.119629</ele>
  <time>2011-07-15T06:53:41Z</time>
  <speed>1.260000</speed>
</trkpt>
<trkpt lat="32.707897186" lon="35.028251648">
  <ele>481.486816</ele>
  <time>2011-07-15T06:53:44Z</time>
  <speed>1.360000</speed>
</trkpt>
<trkpt lat="32.707901001" lon="35.028221130">
  <ele>482.299316</ele>
  <time>2011-07-15T06:53:46Z</time>
  <speed>1.030000</speed>
</trkpt>
<trkpt lat="32.707912445" lon="35.028182983">
  <ele>483.135254</ele>
  <time>2011-07-15T06:53:50Z</time>
  <speed>1.090000</speed>
</trkpt>
<trkpt lat="32.707920074" lon="35.028144836">
  <ele>483.830566</ele>
  <time>2011-07-15T06:53:52Z</time>
  <speed>1.600000</speed>
</trkpt>
<trkpt lat="32.707935333" lon="35.028118134">
  <ele>483.658691</ele>
  <time>2011-07-15T06:53:54Z</time>
  <speed>1.390000</speed>
</trkpt>
<trkpt lat="32.707958221" lon="35.028095245">
  <ele>484.369629</ele>
  <time>2011-07-15T06:53:57Z</time>
  <speed>1.300000</speed>
</trkpt>
<trkpt lat="32.707981110" lon="35.028064728">
  <ele>484.658691</ele>
  <time>2011-07-15T06:54:00Z</time>
  <speed>1.410000</speed>
</trkpt>
<trkpt lat="32.708007813" lon="35.028034210">
  <ele>483.963379</ele>
  <time>2011-07-15T06:54:03Z</time>
  <speed>1.480000</speed>
</trkpt>
<trkpt lat="32.708030701" lon="35.028003693">
  <ele>483.697754</ele>
  <time>2011-07-15T06:54:06Z</time>
  <speed>1.350000</speed>
</trkpt>
<trkpt lat="32.708065033" lon="35.027976990">
  <ele>483.197754</ele>
  <time>2011-07-15T06:54:09Z</time>
  <speed>1.480000</speed>
</trkpt>
<trkpt lat="32.708087921" lon="35.027942657">
  <ele>483.564941</ele>
  <time>2011-07-15T06:54:12Z</time>
  <speed>1.540000</speed>
</trkpt>
<trkpt lat="32.708118439" lon="35.027912140">
  <ele>483.947754</ele>
  <time>2011-07-15T06:54:15Z</time>
  <speed>1.270000</speed>
</trkpt>
<trkpt lat="32.708141327" lon="35.027877808">
  <ele>485.627441</ele>
  <time>2011-07-15T06:54:18Z</time>
  <speed>1.230000</speed>
</trkpt>
<trkpt lat="32.708160400" lon="35.027843475">
  <ele>485.861816</ele>
  <time>2011-07-15T06:54:21Z</time>
  <speed>0.880000</speed>
</trkpt>
<trkpt lat="32.708179474" lon="35.027816772">
  <ele>485.533691</ele>
  <time>2011-07-15T06:54:24Z</time>
  <speed>1.270000</speed>
</trkpt>
<trkpt lat="32.708209991" lon="35.027786255">
  <ele>485.182129</ele>
  <time>2011-07-15T06:54:27Z</time>
  <speed>1.410000</speed>
</trkpt>
<trkpt lat="32.708221436" lon="35.027759552">
  <ele>485.096191</ele>
  <time>2011-07-15T06:54:29Z</time>
  <speed>1.560000</speed>
</trkpt>
<trkpt lat="32.708236694" lon="35.027732849">
  <ele>485.635254</ele>
  <time>2011-07-15T06:54:31Z</time>
  <speed>1.580000</speed>
</trkpt>
<trkpt lat="32.708255768" lon="35.027709961">
  <ele>484.924316</ele>
  <time>2011-07-15T06:54:33Z</time>
  <speed>1.330000</speed>
</trkpt>
<trkpt lat="32.708274841" lon="35.027683258">
  <ele>483.900879</ele>
  <time>2011-07-15T06:54:35Z</time>
  <speed>1.490000</speed>
</trkpt>
<trkpt lat="32.708293915" lon="35.027660370">
  <ele>483.283691</ele>
  <time>2011-07-15T06:54:37Z</time>
  <speed>1.610000</speed>
</trkpt>
<trkpt lat="32.708332062" lon="35.027645111">
  <ele>483.314941</ele>
  <time>2011-07-15T06:54:40Z</time>
  <speed>1.280000</speed>
</trkpt>
<trkpt lat="32.708347321" lon="35.027618408">
  <ele>483.744629</ele>
  <time>2011-07-15T06:54:42Z</time>
  <speed>1.190000</speed>
</trkpt>
<trkpt lat="32.708374023" lon="35.027591705">
  <ele>483.174316</ele>
  <time>2011-07-15T06:54:45Z</time>
  <speed>1.360000</speed>
</trkpt>
<trkpt lat="32.708404541" lon="35.027561188">
  <ele>483.361816</ele>
  <time>2011-07-15T06:54:48Z</time>
  <speed>1.430000</speed>
</trkpt>
<trkpt lat="32.708427429" lon="35.027538300">
  <ele>483.658691</ele>
  <time>2011-07-15T06:54:50Z</time>
  <speed>1.450000</speed>
</trkpt>
<trkpt lat="32.708454132" lon="35.027515411">
  <ele>484.088379</ele>
  <time>2011-07-15T06:54:53Z</time>
  <speed>1.080000</speed>
</trkpt>
<trkpt lat="32.708477020" lon="35.027492523">
  <ele>483.986816</ele>
  <time>2011-07-15T06:54:55Z</time>
  <speed>0.910000</speed>
</trkpt>
<trkpt lat="32.708480835" lon="35.027458191">
  <ele>484.486816</ele>
  <time>2011-07-15T06:54:58Z</time>
  <speed>0.790000</speed>
</trkpt>
<trkpt lat="32.708496094" lon="35.027423859">
  <ele>484.104004</ele>
  <time>2011-07-15T06:55:00Z</time>
  <speed>0.980000</speed>
</trkpt>
<trkpt lat="32.708507538" lon="35.027381897">
  <ele>483.729004</ele>
  <time>2011-07-15T06:55:03Z</time>
  <speed>0.730000</speed>
</trkpt>
<trkpt lat="32.708492279" lon="35.027343750">
  <ele>482.674316</ele>
  <time>2011-07-15T06:55:05Z</time>
  <speed>0.640000</speed>
</trkpt>
<trkpt lat="32.708473206" lon="35.027328491">
  <ele>484.260254</ele>
  <time>2011-07-15T06:57:04Z</time>
</trkpt>
<trkpt lat="32.708457947" lon="35.027301788">
  <ele>484.104004</ele>
  <time>2011-07-15T07:01:19Z</time>
</trkpt>
<trkpt lat="32.708431244" lon="35.027278900">
  <ele>485.369629</ele>
  <time>2011-07-15T07:08:50Z</time>
  <speed>0.310000</speed>
</trkpt>
<trkpt lat="32.708412170" lon="35.027252197">
  <ele>486.135254</ele>
  <time>2011-07-15T07:08:55Z</time>
  <speed>0.200000</speed>
</trkpt>
<trkpt lat="32.708431244" lon="35.027278900">
  <ele>487.174316</ele>
  <time>2011-07-15T07:14:04Z</time>
  <speed>0.340000</speed>
</trkpt>
<trkpt lat="32.708454132" lon="35.027297974">
  <ele>487.619629</ele>
  <time>2011-07-15T07:14:07Z</time>
  <speed>0.370000</speed>
</trkpt>
<trkpt lat="32.708484650" lon="35.027317047">
  <ele>488.791504</ele>
  <time>2011-07-15T07:14:10Z</time>
  <speed>0.400000</speed>
</trkpt>
<trkpt lat="32.708503723" lon="35.027332306">
  <ele>490.643066</ele>
  <time>2011-07-15T07:14:13Z</time>
  <speed>0.380000</speed>
</trkpt>
<trkpt lat="32.708522797" lon="35.027343750">
  <ele>492.447754</ele>
  <time>2011-07-15T07:14:22Z</time>
  <speed>0.070000</speed>
</trkpt>
<trkpt lat="32.708522797" lon="35.027362823">
  <ele>489.932129</ele>
  <time>2011-07-15T07:14:59Z</time>
  <speed>0.010000</speed>
</trkpt>
<trkpt lat="32.708522797" lon="35.027351379">
  <ele>486.971191</ele>
  <time>2011-07-15T07:15:18Z</time>
  <speed>0.050000</speed>
</trkpt>
<trkpt lat="32.708507538" lon="35.027355194">
  <ele>484.361816</ele>
  <time>2011-07-15T07:15:33Z</time>
  <speed>0.120000</speed>
</trkpt>
<trkpt lat="32.708492279" lon="35.027351379">
  <ele>481.791504</ele>
  <time>2011-07-15T07:15:49Z</time>
  <speed>0.080000</speed>
</trkpt>
<trkpt lat="32.708518982" lon="35.027339935">
  <ele>482.650879</ele>
  <time>2011-07-15T07:20:36Z</time>
  <speed>0.390000</speed>
</trkpt>
<trkpt lat="32.708549500" lon="35.027351379">
  <ele>483.736816</ele>
  <time>2011-07-15T07:20:38Z</time>
  <speed>1.560000</speed>
</trkpt>
<trkpt lat="32.708580017" lon="35.027343750">
  <ele>483.955566</ele>
  <time>2011-07-15T07:20:40Z</time>
  <speed>1.410000</speed>
</trkpt>
<trkpt lat="32.708610535" lon="35.027324677">
  <ele>484.158691</ele>
  <time>2011-07-15T07:20:42Z</time>
  <speed>2.020000</speed>
</trkpt>
<trkpt lat="32.708641052" lon="35.027297974">
  <ele>484.143066</ele>
  <time>2011-07-15T07:20:44Z</time>
  <speed>2.120000</speed>
</trkpt>
<trkpt lat="32.708667755" lon="35.027278900">
  <ele>484.244629</ele>
  <time>2011-07-15T07:20:45Z</time>
  <speed>3.120000</speed>
</trkpt>
<trkpt lat="32.708683014" lon="35.027244568">
  <ele>483.775879</ele>
  <time>2011-07-15T07:20:46Z</time>
  <speed>2.970000</speed>
</trkpt>
<trkpt lat="32.708713531" lon="35.027221680">
  <ele>483.205566</ele>
  <time>2011-07-15T07:20:47Z</time>
  <speed>3.130000</speed>
</trkpt>
<trkpt lat="32.708736420" lon="35.027198792">
  <ele>482.783691</ele>
  <time>2011-07-15T07:20:48Z</time>
  <speed>3.390000</speed>
</trkpt>
<trkpt lat="32.708755493" lon="35.027172089">
  <ele>482.424316</ele>
  <time>2011-07-15T07:20:49Z</time>
  <speed>3.360000</speed>
</trkpt>
<trkpt lat="32.708778381" lon="35.027141571">
  <ele>481.791504</ele>
  <time>2011-07-15T07:20:50Z</time>
  <speed>3.390000</speed>
</trkpt>
<trkpt lat="32.708797455" lon="35.027111053">
  <ele>481.408691</ele>
  <time>2011-07-15T07:20:51Z</time>
  <speed>3.330000</speed>
</trkpt>
<trkpt lat="32.708816528" lon="35.027080536">
  <ele>480.979004</ele>
  <time>2011-07-15T07:20:52Z</time>
  <speed>2.980000</speed>
</trkpt>
<trkpt lat="32.708835602" lon="35.027042389">
  <ele>481.064941</ele>
  <time>2011-07-15T07:20:53Z</time>
  <speed>3.480000</speed>
</trkpt>
<trkpt lat="32.708850861" lon="35.027011871">
  <ele>480.838379</ele>
  <time>2011-07-15T07:20:54Z</time>
  <speed>3.220000</speed>
</trkpt>
<trkpt lat="32.708866119" lon="35.026981354">
  <ele>480.650879</ele>
  <time>2011-07-15T07:20:55Z</time>
  <speed>3.110000</speed>
</trkpt>
<trkpt lat="32.708881378" lon="35.026947021">
  <ele>480.807129</ele>
  <time>2011-07-15T07:20:56Z</time>
  <speed>3.070000</speed>
</trkpt>
<trkpt lat="32.708896637" lon="35.026920319">
  <ele>480.471191</ele>
  <time>2011-07-15T07:20:57Z</time>
  <speed>2.760000</speed>
</trkpt>
<trkpt lat="32.708930969" lon="35.026885986">
  <ele>480.479004</ele>
  <time>2011-07-15T07:20:58Z</time>
  <speed>3.020000</speed>
</trkpt>
<trkpt lat="32.708957672" lon="35.026847839">
  <ele>481.479004</ele>
  <time>2011-07-15T07:20:59Z</time>
  <speed>2.960000</speed>
</trkpt>
<trkpt lat="32.708976746" lon="35.026821136">
  <ele>481.643066</ele>
  <time>2011-07-15T07:21:00Z</time>
  <speed>2.420000</speed>
</trkpt>
<trkpt lat="32.709003448" lon="35.026798248">
  <ele>481.572754</ele>
  <time>2011-07-15T07:21:01Z</time>
  <speed>2.690000</speed>
</trkpt>
<trkpt lat="32.709030151" lon="35.026752472">
  <ele>481.393066</ele>
  <time>2011-07-15T07:21:03Z</time>
  <speed>2.500000</speed>
</trkpt>
<trkpt lat="32.709056854" lon="35.026695251">
  <ele>481.307129</ele>
  <time>2011-07-15T07:21:05Z</time>
  <speed>2.820000</speed>
</trkpt>
<trkpt lat="32.709072113" lon="35.026664734">
  <ele>481.369629</ele>
  <time>2011-07-15T07:21:06Z</time>
  <speed>2.890000</speed>
</trkpt>
<trkpt lat="32.709091187" lon="35.026634216">
  <ele>481.721191</ele>
  <time>2011-07-15T07:21:07Z</time>
  <speed>3.020000</speed>
</trkpt>
<trkpt lat="32.709106445" lon="35.026603699">
  <ele>481.314941</ele>
  <time>2011-07-15T07:21:08Z</time>
  <speed>2.860000</speed>
</trkpt>
<trkpt lat="32.709121704" lon="35.026576996">
  <ele>480.799316</ele>
  <time>2011-07-15T07:21:09Z</time>
  <speed>2.780000</speed>
</trkpt>
<trkpt lat="32.709152222" lon="35.026546478">
  <ele>480.486816</ele>
  <time>2011-07-15T07:21:10Z</time>
  <speed>2.890000</speed>
</trkpt>
<trkpt lat="32.709163666" lon="35.026515961">
  <ele>480.033691</ele>
  <time>2011-07-15T07:21:11Z</time>
  <speed>3.050000</speed>
</trkpt>
<trkpt lat="32.709178925" lon="35.026485443">
  <ele>479.463379</ele>
  <time>2011-07-15T07:21:12Z</time>
  <speed>3.060000</speed>
</trkpt>
<trkpt lat="32.709194183" lon="35.026458740">
  <ele>479.354004</ele>
  <time>2011-07-15T07:21:13Z</time>
  <speed>3.150000</speed>
</trkpt>
<trkpt lat="32.709213257" lon="35.026420593">
  <ele>479.502441</ele>
  <time>2011-07-15T07:21:14Z</time>
  <speed>4.140000</speed>
</trkpt>
<trkpt lat="32.709224701" lon="35.026374817">
  <ele>479.010254</ele>
  <time>2011-07-15T07:21:15Z</time>
  <speed>4.330000</speed>
</trkpt>
<trkpt lat="32.709232330" lon="35.026321411">
  <ele>479.275879</ele>
  <time>2011-07-15T07:21:16Z</time>
  <speed>5.020000</speed>
</trkpt>
<trkpt lat="32.709239960" lon="35.026264191">
  <ele>478.979004</ele>
  <time>2011-07-15T07:21:17Z</time>
  <speed>5.130000</speed>
</trkpt>
<trkpt lat="32.709236145" lon="35.026203156">
  <ele>478.572754</ele>
  <time>2011-07-15T07:21:18Z</time>
  <speed>5.400000</speed>
</trkpt>
<trkpt lat="32.709228516" lon="35.026119232">
  <ele>479.939941</ele>
  <time>2011-07-15T07:21:19Z</time>
  <speed>5.230000</speed>
</trkpt>
<trkpt lat="32.709213257" lon="35.026065826">
  <ele>479.666504</ele>
  <time>2011-07-15T07:21:20Z</time>
  <speed>5.190000</speed>
</trkpt>
<trkpt lat="32.709194183" lon="35.026004791">
  <ele>479.572754</ele>
  <time>2011-07-15T07:21:21Z</time>
  <speed>5.540000</speed>
</trkpt>
<trkpt lat="32.709163666" lon="35.025947571">
  <ele>479.010254</ele>
  <time>2011-07-15T07:21:22Z</time>
  <speed>5.770000</speed>
</trkpt>
<trkpt lat="32.709133148" lon="35.025886536">
  <ele>478.822754</ele>
  <time>2011-07-15T07:21:23Z</time>
  <speed>5.760000</speed>
</trkpt>
<trkpt lat="32.709106445" lon="35.025829315">
  <ele>478.650879</ele>
  <time>2011-07-15T07:21:24Z</time>
  <speed>5.590000</speed>
</trkpt>
<trkpt lat="32.709087372" lon="35.025772095">
  <ele>478.666504</ele>
  <time>2011-07-15T07:21:25Z</time>
  <speed>5.570000</speed>
</trkpt>
<trkpt lat="32.709068298" lon="35.025718689">
  <ele>477.564941</ele>
  <time>2011-07-15T07:21:26Z</time>
  <speed>5.730000</speed>
</trkpt>
<trkpt lat="32.709053040" lon="35.025653839">
  <ele>477.143066</ele>
  <time>2011-07-15T07:21:27Z</time>
  <speed>5.910000</speed>
</trkpt>
<trkpt lat="32.709033966" lon="35.025596619">
  <ele>476.510254</ele>
  <time>2011-07-15T07:21:28Z</time>
  <speed>5.700000</speed>
</trkpt>
<trkpt lat="32.709026337" lon="35.025539398">
  <ele>476.432129</ele>
  <time>2011-07-15T07:21:29Z</time>
  <speed>5.650000</speed>
</trkpt>
<trkpt lat="32.709026337" lon="35.025478363">
  <ele>476.705566</ele>
  <time>2011-07-15T07:21:30Z</time>
  <speed>5.510000</speed>
</trkpt>
<trkpt lat="32.709026337" lon="35.025417328">
  <ele>476.174316</ele>
  <time>2011-07-15T07:21:31Z</time>
  <speed>5.570000</speed>
</trkpt>
<trkpt lat="32.709026337" lon="35.025367737">
  <ele>475.643066</ele>
  <time>2011-07-15T07:21:32Z</time>
  <speed>4.410000</speed>
</trkpt>
<trkpt lat="32.709045410" lon="35.025341034">
  <ele>475.963379</ele>
  <time>2011-07-15T07:21:33Z</time>
  <speed>4.240000</speed>
</trkpt>
<trkpt lat="32.709083557" lon="35.025325775">
  <ele>475.799316</ele>
  <time>2011-07-15T07:21:34Z</time>
  <speed>4.140000</speed>
</trkpt>
<trkpt lat="32.709125519" lon="35.025310516">
  <ele>475.275879</ele>
  <time>2011-07-15T07:21:35Z</time>
  <speed>4.130000</speed>
</trkpt>
<trkpt lat="32.709152222" lon="35.025287628">
  <ele>474.869629</ele>
  <time>2011-07-15T07:21:36Z</time>
  <speed>3.520000</speed>
</trkpt>
<trkpt lat="32.709167480" lon="35.025253296">
  <ele>474.541504</ele>
  <time>2011-07-15T07:21:37Z</time>
  <speed>3.630000</speed>
</trkpt>
<trkpt lat="32.709190369" lon="35.025215149">
  <ele>474.213379</ele>
  <time>2011-07-15T07:21:38Z</time>
  <speed>3.660000</speed>
</trkpt>
<trkpt lat="32.709201813" lon="35.025180817">
  <ele>473.361816</ele>
  <time>2011-07-15T07:21:39Z</time>
  <speed>3.890000</speed>
</trkpt>
<trkpt lat="32.709213257" lon="35.025135040">
  <ele>473.002441</ele>
  <time>2011-07-15T07:21:40Z</time>
  <speed>4.440000</speed>
</trkpt>
<trkpt lat="32.709220886" lon="35.025085449">
  <ele>473.330566</ele>
  <time>2011-07-15T07:21:41Z</time>
  <speed>4.010000</speed>
</trkpt>
<trkpt lat="32.709217072" lon="35.025020599">
  <ele>473.533691</ele>
  <time>2011-07-15T07:21:42Z</time>
  <speed>4.920000</speed>
</trkpt>
<trkpt lat="32.709209442" lon="35.024971008">
  <ele>472.322754</ele>
  <time>2011-07-15T07:21:43Z</time>
  <speed>4.390000</speed>
</trkpt>
<trkpt lat="32.709213257" lon="35.024925232">
  <ele>471.947754</ele>
  <time>2011-07-15T07:21:44Z</time>
  <speed>4.370000</speed>
</trkpt>
<trkpt lat="32.709217072" lon="35.024871826">
  <ele>473.377441</ele>
  <time>2011-07-15T07:21:45Z</time>
  <speed>4.360000</speed>
</trkpt>
<trkpt lat="32.709228516" lon="35.024826050">
  <ele>472.572754</ele>
  <time>2011-07-15T07:21:46Z</time>
  <speed>4.330000</speed>
</trkpt>
<trkpt lat="32.709243774" lon="35.024784088">
  <ele>472.018066</ele>
  <time>2011-07-15T07:21:47Z</time>
  <speed>3.740000</speed>
</trkpt>
<trkpt lat="32.709255219" lon="35.024749756">
  <ele>472.002441</ele>
  <time>2011-07-15T07:21:48Z</time>
  <speed>3.650000</speed>
</trkpt>
<trkpt lat="32.709274292" lon="35.024715424">
  <ele>472.158691</ele>
  <time>2011-07-15T07:21:49Z</time>
  <speed>3.590000</speed>
</trkpt>
<trkpt lat="32.709289551" lon="35.024688721">
  <ele>471.135254</ele>
  <time>2011-07-15T07:21:50Z</time>
  <speed>3.340000</speed>
</trkpt>
<trkpt lat="32.709323883" lon="35.024650574">
  <ele>469.939941</ele>
  <time>2011-07-15T07:21:52Z</time>
  <speed>2.450000</speed>
</trkpt>
<trkpt lat="32.709354401" lon="35.024623871">
  <ele>468.361816</ele>
  <time>2011-07-15T07:21:54Z</time>
  <speed>2.320000</speed>
</trkpt>
<trkpt lat="32.709388733" lon="35.024627686">
  <ele>466.018066</ele>
  <time>2011-07-15T07:21:56Z</time>
  <speed>1.630000</speed>
</trkpt>
<trkpt lat="32.709419250" lon="35.024623871">
  <ele>464.924316</ele>
  <time>2011-07-15T07:21:58Z</time>
  <speed>1.840000</speed>
</trkpt>
<trkpt lat="32.709465027" lon="35.024593353">
  <ele>466.268066</ele>
  <time>2011-07-15T07:22:00Z</time>
  <speed>2.620000</speed>
</trkpt>
<trkpt lat="32.709514618" lon="35.024566650">
  <ele>466.861816</ele>
  <time>2011-07-15T07:22:02Z</time>
  <speed>2.780000</speed>
</trkpt>
<trkpt lat="32.709552765" lon="35.024532318">
  <ele>465.908691</ele>
  <time>2011-07-15T07:22:04Z</time>
  <speed>2.510000</speed>
</trkpt>
<trkpt lat="32.709552765" lon="35.024463654">
  <ele>466.393066</ele>
  <time>2011-07-15T07:22:06Z</time>
  <speed>3.820000</speed>
</trkpt>
<trkpt lat="32.709560394" lon="35.024414063">
  <ele>466.533691</ele>
  <time>2011-07-15T07:22:07Z</time>
  <speed>4.070000</speed>
</trkpt>
<trkpt lat="32.709564209" lon="35.024368286">
  <ele>466.471191</ele>
  <time>2011-07-15T07:22:08Z</time>
  <speed>4.150000</speed>
</trkpt>
<trkpt lat="32.709571838" lon="35.024322510">
  <ele>466.330566</ele>
  <time>2011-07-15T07:22:09Z</time>
  <speed>4.360000</speed>
</trkpt>
<trkpt lat="32.709575653" lon="35.024269104">
  <ele>466.932129</ele>
  <time>2011-07-15T07:22:10Z</time>
  <speed>4.170000</speed>
</trkpt>
<trkpt lat="32.709583282" lon="35.024223328">
  <ele>466.736816</ele>
  <time>2011-07-15T07:22:11Z</time>
  <speed>4.780000</speed>
</trkpt>
<trkpt lat="32.709590912" lon="35.024166107">
  <ele>466.307129</ele>
  <time>2011-07-15T07:22:12Z</time>
  <speed>5.290000</speed>
</trkpt>
<trkpt lat="32.709598541" lon="35.024116516">
  <ele>465.541504</ele>
  <time>2011-07-15T07:22:13Z</time>
  <speed>4.520000</speed>
</trkpt>
<trkpt lat="32.709609985" lon="35.024066925">
  <ele>465.385254</ele>
  <time>2011-07-15T07:22:14Z</time>
  <speed>4.660000</speed>
</trkpt>
<trkpt lat="32.709625244" lon="35.024028778">
  <ele>464.713379</ele>
  <time>2011-07-15T07:22:15Z</time>
  <speed>3.790000</speed>
</trkpt>
<trkpt lat="32.709644318" lon="35.023986816">
  <ele>464.557129</ele>
  <time>2011-07-15T07:22:16Z</time>
  <speed>4.140000</speed>
</trkpt>
<trkpt lat="32.709663391" lon="35.023952484">
  <ele>463.541504</ele>
  <time>2011-07-15T07:22:17Z</time>
  <speed>4.140000</speed>
</trkpt>
<trkpt lat="32.709682465" lon="35.023914337">
  <ele>463.479004</ele>
  <time>2011-07-15T07:22:18Z</time>
  <speed>3.750000</speed>
</trkpt>
<trkpt lat="32.709697723" lon="35.023876190">
  <ele>463.236816</ele>
  <time>2011-07-15T07:22:19Z</time>
  <speed>4.230000</speed>
</trkpt>
<trkpt lat="32.709720612" lon="35.023841858">
  <ele>462.080566</ele>
  <time>2011-07-15T07:22:20Z</time>
  <speed>4.020000</speed>
</trkpt>
<trkpt lat="32.709743500" lon="35.023803711">
  <ele>461.260254</ele>
  <time>2011-07-15T07:22:21Z</time>
  <speed>4.770000</speed>
</trkpt>
<trkpt lat="32.709766388" lon="35.023761749">
  <ele>460.564941</ele>
  <time>2011-07-15T07:22:22Z</time>
  <speed>4.910000</speed>
</trkpt>
<trkpt lat="32.709785461" lon="35.023704529">
  <ele>460.525879</ele>
  <time>2011-07-15T07:22:23Z</time>
  <speed>4.980000</speed>
</trkpt>
<trkpt lat="32.709819794" lon="35.023651123">
  <ele>460.775879</ele>
  <time>2011-07-15T07:22:24Z</time>
  <speed>5.400000</speed>
</trkpt>
<trkpt lat="32.709842682" lon="35.023597717">
  <ele>460.518066</ele>
  <time>2011-07-15T07:22:25Z</time>
  <speed>5.320000</speed>
</trkpt>
<trkpt lat="32.709861755" lon="35.023532867">
  <ele>461.104004</ele>
  <time>2011-07-15T07:22:26Z</time>
  <speed>5.520000</speed>
</trkpt>
<trkpt lat="32.709869385" lon="35.023475647">
  <ele>460.439941</ele>
  <time>2011-07-15T07:22:27Z</time>
  <speed>5.810000</speed>
</trkpt>
<trkpt lat="32.709877014" lon="35.023414612">
  <ele>459.588379</ele>
  <time>2011-07-15T07:22:28Z</time>
  <speed>5.580000</speed>
</trkpt>
<trkpt lat="32.709880829" lon="35.023357391">
  <ele>460.033691</ele>
  <time>2011-07-15T07:22:29Z</time>
  <speed>4.520000</speed>
</trkpt>
<trkpt lat="32.709877014" lon="35.023315430">
  <ele>460.135254</ele>
  <time>2011-07-15T07:22:30Z</time>
  <speed>3.650000</speed>
</trkpt>
<trkpt lat="32.709869385" lon="35.023281097">
  <ele>459.416504</ele>
  <time>2011-07-15T07:22:31Z</time>
  <speed>3.380000</speed>
</trkpt>
<trkpt lat="32.709873199" lon="35.023242950">
  <ele>458.330566</ele>
  <time>2011-07-15T07:22:32Z</time>
  <speed>3.370000</speed>
</trkpt>
<trkpt lat="32.709884644" lon="35.023212433">
  <ele>456.799316</ele>
  <time>2011-07-15T07:22:33Z</time>
  <speed>3.840000</speed>
</trkpt>
<trkpt lat="32.709899902" lon="35.023159027">
  <ele>456.330566</ele>
  <time>2011-07-15T07:22:34Z</time>
  <speed>4.100000</speed>
</trkpt>
<trkpt lat="32.709911346" lon="35.023124695">
  <ele>455.799316</ele>
  <time>2011-07-15T07:22:35Z</time>
  <speed>3.650000</speed>
</trkpt>
<trkpt lat="32.709915161" lon="35.023086548">
  <ele>455.674316</ele>
  <time>2011-07-15T07:22:36Z</time>
  <speed>3.660000</speed>
</trkpt>
<trkpt lat="32.709926605" lon="35.023052216">
  <ele>454.619629</ele>
  <time>2011-07-15T07:22:37Z</time>
  <speed>3.610000</speed>
</trkpt>
<trkpt lat="32.709945679" lon="35.023014069">
  <ele>454.486816</ele>
  <time>2011-07-15T07:22:38Z</time>
  <speed>4.040000</speed>
</trkpt>
<trkpt lat="32.709957123" lon="35.022968292">
  <ele>453.869629</ele>
  <time>2011-07-15T07:22:39Z</time>
  <speed>3.890000</speed>
</trkpt>
<trkpt lat="32.709964752" lon="35.022922516">
  <ele>453.596191</ele>
  <time>2011-07-15T07:22:40Z</time>
  <speed>4.100000</speed>
</trkpt>
<trkpt lat="32.709968567" lon="35.022876740">
  <ele>452.580566</ele>
  <time>2011-07-15T07:22:41Z</time>
  <speed>3.710000</speed>
</trkpt>
<trkpt lat="32.709991455" lon="35.022853851">
  <ele>452.463379</ele>
  <time>2011-07-15T07:22:42Z</time>
  <speed>3.550000</speed>
</trkpt>
<trkpt lat="32.710018158" lon="35.022846222">
  <ele>450.807129</ele>
  <time>2011-07-15T07:22:43Z</time>
  <speed>3.180000</speed>
</trkpt>
<trkpt lat="32.710052490" lon="35.022834778">
  <ele>449.814941</ele>
  <time>2011-07-15T07:22:44Z</time>
  <speed>3.430000</speed>
</trkpt>
<trkpt lat="32.710086823" lon="35.022815704">
  <ele>449.096191</ele>
  <time>2011-07-15T07:22:45Z</time>
  <speed>3.220000</speed>
</trkpt>
<trkpt lat="32.710117340" lon="35.022789001">
  <ele>448.619629</ele>
  <time>2011-07-15T07:22:46Z</time>
  <speed>3.900000</speed>
</trkpt>
<trkpt lat="32.710140228" lon="35.022750854">
  <ele>448.291504</ele>
  <time>2011-07-15T07:22:47Z</time>
  <speed>4.140000</speed>
</trkpt>
<trkpt lat="32.710163116" lon="35.022712708">
  <ele>447.377441</ele>
  <time>2011-07-15T07:22:48Z</time>
  <speed>4.100000</speed>
</trkpt>
<trkpt lat="32.710189819" lon="35.022674561">
  <ele>447.533691</ele>
  <time>2011-07-15T07:22:49Z</time>
  <speed>3.740000</speed>
</trkpt>
<trkpt lat="32.710216522" lon="35.022644043">
  <ele>448.424316</ele>
  <time>2011-07-15T07:22:50Z</time>
  <speed>3.660000</speed>
</trkpt>
<trkpt lat="32.710250854" lon="35.022617340">
  <ele>448.854004</ele>
  <time>2011-07-15T07:22:51Z</time>
  <speed>3.370000</speed>
</trkpt>
<trkpt lat="32.710292816" lon="35.022613525">
  <ele>448.588379</ele>
  <time>2011-07-15T07:22:52Z</time>
  <speed>3.000000</speed>
</trkpt>
<trkpt lat="32.710338593" lon="35.022602081">
  <ele>448.807129</ele>
  <time>2011-07-15T07:22:54Z</time>
  <speed>1.580000</speed>
</trkpt>
<trkpt lat="32.710361481" lon="35.022586823">
  <ele>449.932129</ele>
  <time>2011-07-15T07:22:59Z</time>
  <speed>0.050000</speed>
</trkpt>
<trkpt lat="32.710407257" lon="35.022602081">
  <ele>450.994629</ele>
  <time>2011-07-15T07:23:58Z</time>
  <speed>2.670000</speed>
</trkpt>
<trkpt lat="32.710445404" lon="35.022602081">
  <ele>451.127441</ele>
  <time>2011-07-15T07:23:59Z</time>
  <speed>3.510000</speed>
</trkpt>
<trkpt lat="32.710487366" lon="35.022605896">
  <ele>450.713379</ele>
  <time>2011-07-15T07:24:00Z</time>
  <speed>4.240000</speed>
</trkpt>
<trkpt lat="32.710529327" lon="35.022598267">
  <ele>450.197754</ele>
  <time>2011-07-15T07:24:01Z</time>
  <speed>4.670000</speed>
</trkpt>
<trkpt lat="32.710571289" lon="35.022583008">
  <ele>450.768066</ele>
  <time>2011-07-15T07:24:02Z</time>
  <speed>4.690000</speed>
</trkpt>
<trkpt lat="32.710620880" lon="35.022560120">
  <ele>450.807129</ele>
  <time>2011-07-15T07:24:03Z</time>
  <speed>5.480000</speed>
</trkpt>
<trkpt lat="32.710678101" lon="35.022533417">
  <ele>450.041504</ele>
  <time>2011-07-15T07:24:04Z</time>
  <speed>6.020000</speed>
</trkpt>
<trkpt lat="32.710731506" lon="35.022506714">
  <ele>449.197754</ele>
  <time>2011-07-15T07:24:05Z</time>
  <speed>5.690000</speed>
</trkpt>
<trkpt lat="32.710792542" lon="35.022487640">
  <ele>448.236816</ele>
  <time>2011-07-15T07:24:06Z</time>
  <speed>5.450000</speed>
</trkpt>
<trkpt lat="32.710842133" lon="35.022472382">
  <ele>447.338379</ele>
  <time>2011-07-15T07:24:07Z</time>
  <speed>4.650000</speed>
</trkpt>
<trkpt lat="32.710876465" lon="35.022449493">
  <ele>446.799316</ele>
  <time>2011-07-15T07:24:08Z</time>
  <speed>4.950000</speed>
</trkpt>
<trkpt lat="32.710922241" lon="35.022426605">
  <ele>446.869629</ele>
  <time>2011-07-15T07:24:09Z</time>
  <speed>4.880000</speed>
</trkpt>
<trkpt lat="32.710960388" lon="35.022403717">
  <ele>446.424316</ele>
  <time>2011-07-15T07:24:10Z</time>
  <speed>4.590000</speed>
</trkpt>
<trkpt lat="32.710998535" lon="35.022377014">
  <ele>445.900879</ele>
  <time>2011-07-15T07:24:11Z</time>
  <speed>4.560000</speed>
</trkpt>
<trkpt lat="32.711036682" lon="35.022354126">
  <ele>445.377441</ele>
  <time>2011-07-15T07:24:12Z</time>
  <speed>4.670000</speed>
</trkpt>
<trkpt lat="32.711086273" lon="35.022331238">
  <ele>445.127441</ele>
  <time>2011-07-15T07:24:13Z</time>
  <speed>5.110000</speed>
</trkpt>
<trkpt lat="32.711128235" lon="35.022308350">
  <ele>444.127441</ele>
  <time>2011-07-15T07:24:14Z</time>
  <speed>5.210000</speed>
</trkpt>
<trkpt lat="32.711170197" lon="35.022274017">
  <ele>443.658691</ele>
  <time>2011-07-15T07:24:15Z</time>
  <speed>5.400000</speed>
</trkpt>
<trkpt lat="32.711215973" lon="35.022243500">
  <ele>442.908691</ele>
  <time>2011-07-15T07:24:16Z</time>
  <speed>5.830000</speed>
</trkpt>
<trkpt lat="32.711269379" lon="35.022190094">
  <ele>443.791504</ele>
  <time>2011-07-15T07:24:17Z</time>
  <speed>5.690000</speed>
</trkpt>
<trkpt lat="32.711299896" lon="35.022140503">
  <ele>443.721191</ele>
  <time>2011-07-15T07:24:18Z</time>
  <speed>5.140000</speed>
</trkpt>
<trkpt lat="32.711326599" lon="35.022083282">
  <ele>443.432129</ele>
  <time>2011-07-15T07:24:19Z</time>
  <speed>5.000000</speed>
</trkpt>
<trkpt lat="32.711345673" lon="35.022033691">
  <ele>443.127441</ele>
  <time>2011-07-15T07:24:20Z</time>
  <speed>5.010000</speed>
</trkpt>
<trkpt lat="32.711368561" lon="35.021984100">
  <ele>442.189941</ele>
  <time>2011-07-15T07:24:21Z</time>
  <speed>5.620000</speed>
</trkpt>
<trkpt lat="32.711399078" lon="35.021930695">
  <ele>441.182129</ele>
  <time>2011-07-15T07:24:22Z</time>
  <speed>5.690000</speed>
</trkpt>
<trkpt lat="32.711421967" lon="35.021877289">
  <ele>440.760254</ele>
  <time>2011-07-15T07:24:23Z</time>
  <speed>5.430000</speed>
</trkpt>
<trkpt lat="32.711448669" lon="35.021827698">
  <ele>439.416504</ele>
  <time>2011-07-15T07:24:24Z</time>
  <speed>4.960000</speed>
</trkpt>
<trkpt lat="32.711463928" lon="35.021778107">
  <ele>438.564941</ele>
  <time>2011-07-15T07:24:25Z</time>
  <speed>4.460000</speed>
</trkpt>
<trkpt lat="32.711483002" lon="35.021736145">
  <ele>437.932129</ele>
  <time>2011-07-15T07:24:26Z</time>
  <speed>4.230000</speed>
</trkpt>
<trkpt lat="32.711498260" lon="35.021694183">
  <ele>437.369629</ele>
  <time>2011-07-15T07:24:27Z</time>
  <speed>4.410000</speed>
</trkpt>
<trkpt lat="32.711505890" lon="35.021652222">
  <ele>437.221191</ele>
  <time>2011-07-15T07:24:28Z</time>
  <speed>3.710000</speed>
</trkpt>
<trkpt lat="32.711517334" lon="35.021610260">
  <ele>436.143066</ele>
  <time>2011-07-15T07:24:29Z</time>
  <speed>2.820000</speed>
</trkpt>
<trkpt lat="32.711536407" lon="35.021583557">
  <ele>435.689941</ele>
  <time>2011-07-15T07:24:30Z</time>
  <speed>2.580000</speed>
</trkpt>
<trkpt lat="32.711551666" lon="35.021533966">
  <ele>434.408691</ele>
  <time>2011-07-15T07:24:32Z</time>
  <speed>2.220000</speed>
</trkpt>
<trkpt lat="32.711544037" lon="35.021465302">
  <ele>432.705566</ele>
  <time>2011-07-15T07:24:34Z</time>
  <speed>4.050000</speed>
</trkpt>
<trkpt lat="32.711547852" lon="35.021434784">
  <ele>431.814941</ele>
  <time>2011-07-15T07:24:35Z</time>
  <speed>2.900000</speed>
</trkpt>
<trkpt lat="32.711601257" lon="35.021415710">
  <ele>430.580566</ele>
  <time>2011-07-15T07:24:37Z</time>
  <speed>3.490000</speed>
</trkpt>
<trkpt lat="32.711635590" lon="35.021408081">
  <ele>429.627441</ele>
  <time>2011-07-15T07:24:38Z</time>
  <speed>3.820000</speed>
</trkpt>
<trkpt lat="32.711685181" lon="35.021389008">
  <ele>429.502441</ele>
  <time>2011-07-15T07:24:39Z</time>
  <speed>4.210000</speed>
</trkpt>
<trkpt lat="32.711715698" lon="35.021350861">
  <ele>428.744629</ele>
  <time>2011-07-15T07:24:40Z</time>
  <speed>4.720000</speed>
</trkpt>
<trkpt lat="32.711734772" lon="35.021308899">
  <ele>428.650879</ele>
  <time>2011-07-15T07:24:41Z</time>
  <speed>4.960000</speed>
</trkpt>
<trkpt lat="32.711765289" lon="35.021247864">
  <ele>428.408691</ele>
  <time>2011-07-15T07:24:42Z</time>
  <speed>6.180000</speed>
</trkpt>
<trkpt lat="32.711795807" lon="35.021190643">
  <ele>427.666504</ele>
  <time>2011-07-15T07:24:43Z</time>
  <speed>5.800000</speed>
</trkpt>
<trkpt lat="32.711833954" lon="35.021137238">
  <ele>427.041504</ele>
  <time>2011-07-15T07:24:44Z</time>
  <speed>5.990000</speed>
</trkpt>
<trkpt lat="32.711864471" lon="35.021080017">
  <ele>426.814941</ele>
  <time>2011-07-15T07:24:45Z</time>
  <speed>5.490000</speed>
</trkpt>
<trkpt lat="32.711887360" lon="35.021022797">
  <ele>427.846191</ele>
  <time>2011-07-15T07:24:46Z</time>
  <speed>5.250000</speed>
</trkpt>
<trkpt lat="32.711914063" lon="35.020973206">
  <ele>427.260254</ele>
  <time>2011-07-15T07:24:47Z</time>
  <speed>5.300000</speed>
</trkpt>
<trkpt lat="32.711944580" lon="35.020923615">
  <ele>426.408691</ele>
  <time>2011-07-15T07:24:48Z</time>
  <speed>5.030000</speed>
</trkpt>
<trkpt lat="32.711971283" lon="35.020889282">
  <ele>425.377441</ele>
  <time>2011-07-15T07:24:49Z</time>
  <speed>3.160000</speed>
</trkpt>
<trkpt lat="32.711997986" lon="35.020874023">
  <ele>425.018066</ele>
  <time>2011-07-15T07:24:50Z</time>
  <speed>3.080000</speed>
</trkpt>
<trkpt lat="32.712024689" lon="35.020854950">
  <ele>423.869629</ele>
  <time>2011-07-15T07:24:51Z</time>
  <speed>3.200000</speed>
</trkpt>
<trkpt lat="32.712081909" lon="35.020832062">
  <ele>422.760254</ele>
  <time>2011-07-15T07:24:52Z</time>
  <speed>3.300000</speed>
</trkpt>
<trkpt lat="32.712100983" lon="35.020809174">
  <ele>422.088379</ele>
  <time>2011-07-15T07:24:53Z</time>
  <speed>3.230000</speed>
</trkpt>
<trkpt lat="32.712112427" lon="35.020778656">
  <ele>420.924316</ele>
  <time>2011-07-15T07:24:54Z</time>
  <speed>3.000000</speed>
</trkpt>
<trkpt lat="32.712120056" lon="35.020740509">
  <ele>420.236816</ele>
  <time>2011-07-15T07:24:55Z</time>
  <speed>3.450000</speed>
</trkpt>
<trkpt lat="32.712127686" lon="35.020702362">
  <ele>418.729004</ele>
  <time>2011-07-15T07:24:56Z</time>
  <speed>3.310000</speed>
</trkpt>
<trkpt lat="32.712142944" lon="35.020668030">
  <ele>418.236816</ele>
  <time>2011-07-15T07:24:57Z</time>
  <speed>3.190000</speed>
</trkpt>
<trkpt lat="32.712154388" lon="35.020626068">
  <ele>417.971191</ele>
  <time>2011-07-15T07:24:58Z</time>
  <speed>3.690000</speed>
</trkpt>
<trkpt lat="32.712162018" lon="35.020584106">
  <ele>417.080566</ele>
  <time>2011-07-15T07:24:59Z</time>
  <speed>4.280000</speed>
</trkpt>
<trkpt lat="32.712177277" lon="35.020538330">
  <ele>416.174316</ele>
  <time>2011-07-15T07:25:00Z</time>
  <speed>4.270000</speed>
</trkpt>
<trkpt lat="32.712177277" lon="35.020488739">
  <ele>415.354004</ele>
  <time>2011-07-15T07:25:01Z</time>
  <speed>4.690000</speed>
</trkpt>
<trkpt lat="32.712173462" lon="35.020442963">
  <ele>414.791504</ele>
  <time>2011-07-15T07:25:02Z</time>
  <speed>3.810000</speed>
</trkpt>
<trkpt lat="32.712142944" lon="35.020408630">
  <ele>414.111816</ele>
  <time>2011-07-15T07:25:03Z</time>
  <speed>3.840000</speed>
</trkpt>
<trkpt lat="32.712131500" lon="35.020378113">
  <ele>413.596191</ele>
  <time>2011-07-15T07:25:04Z</time>
  <speed>2.610000</speed>
</trkpt>
<trkpt lat="32.712120056" lon="35.020305634">
  <ele>411.932129</ele>
  <time>2011-07-15T07:25:06Z</time>
  <speed>3.150000</speed>
</trkpt>
<trkpt lat="32.712120056" lon="35.020259857">
  <ele>411.510254</ele>
  <time>2011-07-15T07:25:07Z</time>
  <speed>4.000000</speed>
</trkpt>
<trkpt lat="32.712116241" lon="35.020214081">
  <ele>410.986816</ele>
  <time>2011-07-15T07:25:08Z</time>
  <speed>4.300000</speed>
</trkpt>
<trkpt lat="32.712108612" lon="35.020164490">
  <ele>410.174316</ele>
  <time>2011-07-15T07:25:09Z</time>
  <speed>4.430000</speed>
</trkpt>
<trkpt lat="32.712089539" lon="35.020111084">
  <ele>409.893066</ele>
  <time>2011-07-15T07:25:10Z</time>
  <speed>4.590000</speed>
</trkpt>
<trkpt lat="32.712062836" lon="35.020080566">
  <ele>409.252441</ele>
  <time>2011-07-15T07:25:11Z</time>
  <speed>3.740000</speed>
</trkpt>
<trkpt lat="32.712028503" lon="35.020046234">
  <ele>409.174316</ele>
  <time>2011-07-15T07:25:12Z</time>
  <speed>3.460000</speed>
</trkpt>
<trkpt lat="32.711997986" lon="35.020042419">
  <ele>408.525879</ele>
  <time>2011-07-15T07:25:13Z</time>
  <speed>3.150000</speed>
</trkpt>
<trkpt lat="32.711967468" lon="35.020038605">
  <ele>407.346191</ele>
  <time>2011-07-15T07:25:14Z</time>
  <speed>2.790000</speed>
</trkpt>
<trkpt lat="32.711952209" lon="35.020008087">
  <ele>406.768066</ele>
  <time>2011-07-15T07:25:15Z</time>
  <speed>3.190000</speed>
</trkpt>
<trkpt lat="32.711948395" lon="35.019947052">
  <ele>404.361816</ele>
  <time>2011-07-15T07:25:17Z</time>
  <speed>2.760000</speed>
</trkpt>
<trkpt lat="32.711975098" lon="35.019931793">
  <ele>403.760254</ele>
  <time>2011-07-15T07:25:19Z</time>
  <speed>2.040000</speed>
</trkpt>
<trkpt lat="32.712024689" lon="35.019912720">
  <ele>403.541504</ele>
  <time>2011-07-15T07:25:21Z</time>
  <speed>2.600000</speed>
</trkpt>
<trkpt lat="32.712074280" lon="35.019905090">
  <ele>402.643066</ele>
  <time>2011-07-15T07:25:23Z</time>
  <speed>2.840000</speed>
</trkpt>
<trkpt lat="32.712108612" lon="35.019908905">
  <ele>402.752441</ele>
  <time>2011-07-15T07:25:24Z</time>
  <speed>3.140000</speed>
</trkpt>
<trkpt lat="32.712135315" lon="35.019927979">
  <ele>403.010254</ele>
  <time>2011-07-15T07:25:25Z</time>
  <speed>3.140000</speed>
</trkpt>
<trkpt lat="32.712165833" lon="35.019931793">
  <ele>402.971191</ele>
  <time>2011-07-15T07:25:26Z</time>
  <speed>3.660000</speed>
</trkpt>
<trkpt lat="32.712207794" lon="35.019931793">
  <ele>402.721191</ele>
  <time>2011-07-15T07:25:27Z</time>
  <speed>4.510000</speed>
</trkpt>
<trkpt lat="32.712249756" lon="35.019935608">
  <ele>402.705566</ele>
  <time>2011-07-15T07:25:28Z</time>
  <speed>4.860000</speed>
</trkpt>
<trkpt lat="32.712318420" lon="35.019939423">
  <ele>401.713379</ele>
  <time>2011-07-15T07:25:29Z</time>
  <speed>5.200000</speed>
</trkpt>
<trkpt lat="32.712360382" lon="35.019935608">
  <ele>400.814941</ele>
  <time>2011-07-15T07:25:30Z</time>
  <speed>4.460000</speed>
</trkpt>
<trkpt lat="32.712402344" lon="35.019912720">
  <ele>399.416504</ele>
  <time>2011-07-15T07:25:31Z</time>
  <speed>5.180000</speed>
</trkpt>
<trkpt lat="32.712440491" lon="35.019878387">
  <ele>398.072754</ele>
  <time>2011-07-15T07:25:32Z</time>
  <speed>5.970000</speed>
</trkpt>
<trkpt lat="32.712501526" lon="35.019844055">
  <ele>397.002441</ele>
  <time>2011-07-15T07:25:33Z</time>
  <speed>5.920000</speed>
</trkpt>
<trkpt lat="32.712547302" lon="35.019805908">
  <ele>395.322754</ele>
  <time>2011-07-15T07:25:34Z</time>
  <speed>5.330000</speed>
</trkpt>
<trkpt lat="32.712577820" lon="35.019779205">
  <ele>394.197754</ele>
  <time>2011-07-15T07:25:35Z</time>
  <speed>4.150000</speed>
</trkpt>
<trkpt lat="32.712600708" lon="35.019748688">
  <ele>393.338379</ele>
  <time>2011-07-15T07:25:36Z</time>
  <speed>3.010000</speed>
</trkpt>
<trkpt lat="32.712604523" lon="35.019718170">
  <ele>393.135254</ele>
  <time>2011-07-15T07:25:37Z</time>
  <speed>1.860000</speed>
</trkpt>
<trkpt lat="32.712593079" lon="35.019668579">
  <ele>392.135254</ele>
  <time>2011-07-15T07:25:39Z</time>
  <speed>1.770000</speed>
</trkpt>
<trkpt lat="32.712589264" lon="35.019615173">
  <ele>390.830566</ele>
  <time>2011-07-15T07:25:41Z</time>
  <speed>2.310000</speed>
</trkpt>
<trkpt lat="32.712596893" lon="35.019584656">
  <ele>389.275879</ele>
  <time>2011-07-15T07:25:43Z</time>
  <speed>1.260000</speed>
</trkpt>
<trkpt lat="32.712638855" lon="35.019569397">
  <ele>388.939941</ele>
  <time>2011-07-15T07:25:46Z</time>
  <speed>2.300000</speed>
</trkpt>
<trkpt lat="32.712684631" lon="35.019561768">
  <ele>388.635254</ele>
  <time>2011-07-15T07:25:48Z</time>
  <speed>2.600000</speed>
</trkpt>
<trkpt lat="32.712734222" lon="35.019557953">
  <ele>388.033691</ele>
  <time>2011-07-15T07:25:50Z</time>
  <speed>3.150000</speed>
</trkpt>
<trkpt lat="32.712772369" lon="35.019542694">
  <ele>387.783691</ele>
  <time>2011-07-15T07:25:51Z</time>
  <speed>3.660000</speed>
</trkpt>
<trkpt lat="32.712799072" lon="35.019512177">
  <ele>387.260254</ele>
  <time>2011-07-15T07:25:52Z</time>
  <speed>3.990000</speed>
</trkpt>
<trkpt lat="32.712825775" lon="35.019474030">
  <ele>386.744629</ele>
  <time>2011-07-15T07:25:53Z</time>
  <speed>4.390000</speed>
</trkpt>
<trkpt lat="32.712860107" lon="35.019428253">
  <ele>385.822754</ele>
  <time>2011-07-15T07:25:54Z</time>
  <speed>5.250000</speed>
</trkpt>
<trkpt lat="32.712886810" lon="35.019378662">
  <ele>384.783691</ele>
  <time>2011-07-15T07:25:55Z</time>
  <speed>4.900000</speed>
</trkpt>
<trkpt lat="32.712898254" lon="35.019329071">
  <ele>383.994629</ele>
  <time>2011-07-15T07:25:56Z</time>
  <speed>4.990000</speed>
</trkpt>
<trkpt lat="32.712921143" lon="35.019275665">
  <ele>383.510254</ele>
  <time>2011-07-15T07:25:57Z</time>
  <speed>5.260000</speed>
</trkpt>
<trkpt lat="32.712940216" lon="35.019218445">
  <ele>382.525879</ele>
  <time>2011-07-15T07:25:58Z</time>
  <speed>5.570000</speed>
</trkpt>
<trkpt lat="32.712955475" lon="35.019157410">
  <ele>381.596191</ele>
  <time>2011-07-15T07:25:59Z</time>
  <speed>5.990000</speed>
</trkpt>
<trkpt lat="32.712970734" lon="35.019088745">
  <ele>380.947754</ele>
  <time>2011-07-15T07:26:00Z</time>
  <speed>6.410000</speed>
</trkpt>
<trkpt lat="32.712989807" lon="35.019020081">
  <ele>380.010254</ele>
  <time>2011-07-15T07:26:01Z</time>
  <speed>6.150000</speed>
</trkpt>
<trkpt lat="32.713012695" lon="35.018951416">
  <ele>378.533691</ele>
  <time>2011-07-15T07:26:02Z</time>
  <speed>6.320000</speed>
</trkpt>
<trkpt lat="32.713035583" lon="35.018890381">
  <ele>377.791504</ele>
  <time>2011-07-15T07:26:03Z</time>
  <speed>6.610000</speed>
</trkpt>
<trkpt lat="32.713058472" lon="35.018810272">
  <ele>377.361816</ele>
  <time>2011-07-15T07:26:04Z</time>
  <speed>6.830000</speed>
</trkpt>
<trkpt lat="32.713073730" lon="35.018741608">
  <ele>376.439941</ele>
  <time>2011-07-15T07:26:05Z</time>
  <speed>6.590000</speed>
</trkpt>
<trkpt lat="32.713088989" lon="35.018665314">
  <ele>375.494629</ele>
  <time>2011-07-15T07:26:06Z</time>
  <speed>6.210000</speed>
</trkpt>
<trkpt lat="32.713111877" lon="35.018604279">
  <ele>374.822754</ele>
  <time>2011-07-15T07:26:07Z</time>
  <speed>5.890000</speed>
</trkpt>
<trkpt lat="32.713150024" lon="35.018569946">
  <ele>374.096191</ele>
  <time>2011-07-15T07:26:08Z</time>
  <speed>5.390000</speed>
</trkpt>
<trkpt lat="32.713191986" lon="35.018543243">
  <ele>374.096191</ele>
  <time>2011-07-15T07:26:09Z</time>
  <speed>5.630000</speed>
</trkpt>
<trkpt lat="32.713245392" lon="35.018527985">
  <ele>374.486816</ele>
  <time>2011-07-15T07:26:10Z</time>
  <speed>5.840000</speed>
</trkpt>
<trkpt lat="32.713302612" lon="35.018516541">
  <ele>373.947754</ele>
  <time>2011-07-15T07:26:11Z</time>
  <speed>6.490000</speed>
</trkpt>
<trkpt lat="32.713363647" lon="35.018512726">
  <ele>373.502441</ele>
  <time>2011-07-15T07:26:12Z</time>
  <speed>6.480000</speed>
</trkpt>
<trkpt lat="32.713428497" lon="35.018505096">
  <ele>373.807129</ele>
  <time>2011-07-15T07:26:13Z</time>
  <speed>6.480000</speed>
</trkpt>
<trkpt lat="32.713478088" lon="35.018493652">
  <ele>373.791504</ele>
  <time>2011-07-15T07:26:14Z</time>
  <speed>5.790000</speed>
</trkpt>
<trkpt lat="32.713523865" lon="35.018493652">
  <ele>373.127441</ele>
  <time>2011-07-15T07:26:15Z</time>
  <speed>5.360000</speed>
</trkpt>
<trkpt lat="32.713573456" lon="35.018505096">
  <ele>373.072754</ele>
  <time>2011-07-15T07:26:16Z</time>
  <speed>5.570000</speed>
</trkpt>
<trkpt lat="32.713638306" lon="35.018516541">
  <ele>373.150879</ele>
  <time>2011-07-15T07:26:17Z</time>
  <speed>5.900000</speed>
</trkpt>
<trkpt lat="32.713687897" lon="35.018527985">
  <ele>372.729004</ele>
  <time>2011-07-15T07:26:18Z</time>
  <speed>5.260000</speed>
</trkpt>
<trkpt lat="32.713741302" lon="35.018520355">
  <ele>371.783691</ele>
  <time>2011-07-15T07:26:19Z</time>
  <speed>6.120000</speed>
</trkpt>
<trkpt lat="32.713790894" lon="35.018501282">
  <ele>371.658691</ele>
  <time>2011-07-15T07:26:20Z</time>
  <speed>5.640000</speed>
</trkpt>
<trkpt lat="32.713836670" lon="35.018501282">
  <ele>370.893066</ele>
  <time>2011-07-15T07:26:21Z</time>
  <speed>4.580000</speed>
</trkpt>
<trkpt lat="32.713871002" lon="35.018493652">
  <ele>371.049316</ele>
  <time>2011-07-15T07:26:22Z</time>
  <speed>3.000000</speed>
</trkpt>
<trkpt lat="32.713897705" lon="35.018466949">
  <ele>371.182129</ele>
  <time>2011-07-15T07:26:23Z</time>
  <speed>3.470000</speed>
</trkpt>
<trkpt lat="32.713924408" lon="35.018436432">
  <ele>370.760254</ele>
  <time>2011-07-15T07:26:24Z</time>
  <speed>4.440000</speed>
</trkpt>
<trkpt lat="32.713939667" lon="35.018394470">
  <ele>370.205566</ele>
  <time>2011-07-15T07:26:25Z</time>
  <speed>4.480000</speed>
</trkpt>
<trkpt lat="32.713954926" lon="35.018341064">
  <ele>369.455566</ele>
  <time>2011-07-15T07:26:26Z</time>
  <speed>5.530000</speed>
</trkpt>
<trkpt lat="32.713970184" lon="35.018287659">
  <ele>368.658691</ele>
  <time>2011-07-15T07:26:27Z</time>
  <speed>5.350000</speed>
</trkpt>
<trkpt lat="32.713973999" lon="35.018230438">
  <ele>368.174316</ele>
  <time>2011-07-15T07:26:28Z</time>
  <speed>5.570000</speed>
</trkpt>
<trkpt lat="32.713981628" lon="35.018169403">
  <ele>367.564941</ele>
  <time>2011-07-15T07:26:29Z</time>
  <speed>5.240000</speed>
</trkpt>
<trkpt lat="32.713981628" lon="35.018115997">
  <ele>367.744629</ele>
  <time>2011-07-15T07:26:30Z</time>
  <speed>4.530000</speed>
</trkpt>
<trkpt lat="32.713985443" lon="35.018062592">
  <ele>367.424316</ele>
  <time>2011-07-15T07:26:31Z</time>
  <speed>4.530000</speed>
</trkpt>
<trkpt lat="32.713989258" lon="35.018009186">
  <ele>367.557129</ele>
  <time>2011-07-15T07:26:32Z</time>
  <speed>4.540000</speed>
</trkpt>
<trkpt lat="32.713985443" lon="35.017963409">
  <ele>367.604004</ele>
  <time>2011-07-15T07:26:33Z</time>
  <speed>4.140000</speed>
</trkpt>
<trkpt lat="32.713981628" lon="35.017917633">
  <ele>367.713379</ele>
  <time>2011-07-15T07:26:34Z</time>
  <speed>4.410000</speed>
</trkpt>
<trkpt lat="32.713977814" lon="35.017860413">
  <ele>368.330566</ele>
  <time>2011-07-15T07:26:35Z</time>
  <speed>4.600000</speed>
</trkpt>
<trkpt lat="32.713977814" lon="35.017810822">
  <ele>367.900879</ele>
  <time>2011-07-15T07:26:36Z</time>
  <speed>4.740000</speed>
</trkpt>
<trkpt lat="32.713996887" lon="35.017757416">
  <ele>367.447754</ele>
  <time>2011-07-15T07:26:37Z</time>
  <speed>5.130000</speed>
</trkpt>
<trkpt lat="32.714019775" lon="35.017707825">
  <ele>367.377441</ele>
  <time>2011-07-15T07:26:38Z</time>
  <speed>5.410000</speed>
</trkpt>
<trkpt lat="32.714035034" lon="35.017623901">
  <ele>367.885254</ele>
  <time>2011-07-15T07:26:39Z</time>
  <speed>5.530000</speed>
</trkpt>
<trkpt lat="32.714054108" lon="35.017559052">
  <ele>368.604004</ele>
  <time>2011-07-15T07:26:40Z</time>
  <speed>5.560000</speed>
</trkpt>
<trkpt lat="32.714088440" lon="35.017517090">
  <ele>368.893066</ele>
  <time>2011-07-15T07:26:41Z</time>
  <speed>5.380000</speed>
</trkpt>
<trkpt lat="32.714115143" lon="35.017471313">
  <ele>368.830566</ele>
  <time>2011-07-15T07:26:42Z</time>
  <speed>5.660000</speed>
</trkpt>
<trkpt lat="32.714149475" lon="35.017421722">
  <ele>369.096191</ele>
  <time>2011-07-15T07:26:43Z</time>
  <speed>5.560000</speed>
</trkpt>
<trkpt lat="32.714187622" lon="35.017379761">
  <ele>369.471191</ele>
  <time>2011-07-15T07:26:44Z</time>
  <speed>5.670000</speed>
</trkpt>
<trkpt lat="32.714225769" lon="35.017341614">
  <ele>369.713379</ele>
  <time>2011-07-15T07:26:45Z</time>
  <speed>5.560000</speed>
</trkpt>
<trkpt lat="32.714267731" lon="35.017311096">
  <ele>370.377441</ele>
  <time>2011-07-15T07:26:46Z</time>
  <speed>5.580000</speed>
</trkpt>
<trkpt lat="32.714309692" lon="35.017284393">
  <ele>370.713379</ele>
  <time>2011-07-15T07:26:47Z</time>
  <speed>5.510000</speed>
</trkpt>
<trkpt lat="32.714351654" lon="35.017253876">
  <ele>371.197754</ele>
  <time>2011-07-15T07:26:48Z</time>
  <speed>5.160000</speed>
</trkpt>
<trkpt lat="32.714393616" lon="35.017227173">
  <ele>371.979004</ele>
  <time>2011-07-15T07:26:49Z</time>
  <speed>5.070000</speed>
</trkpt>
<trkpt lat="32.714431763" lon="35.017204285">
  <ele>372.025879</ele>
  <time>2011-07-15T07:26:50Z</time>
  <speed>4.970000</speed>
</trkpt>
<trkpt lat="32.714473724" lon="35.017177582">
  <ele>372.541504</ele>
  <time>2011-07-15T07:26:51Z</time>
  <speed>4.900000</speed>
</trkpt>
<trkpt lat="32.714511871" lon="35.017154694">
  <ele>372.650879</ele>
  <time>2011-07-15T07:26:52Z</time>
  <speed>4.880000</speed>
</trkpt>
<trkpt lat="32.714553833" lon="35.017131805">
  <ele>372.479004</ele>
  <time>2011-07-15T07:26:53Z</time>
  <speed>5.120000</speed>
</trkpt>
<trkpt lat="32.714595795" lon="35.017112732">
  <ele>372.244629</ele>
  <time>2011-07-15T07:26:54Z</time>
  <speed>4.860000</speed>
</trkpt>
<trkpt lat="32.714637756" lon="35.017093658">
  <ele>372.893066</ele>
  <time>2011-07-15T07:26:55Z</time>
  <speed>4.600000</speed>
</trkpt>
<trkpt lat="32.714675903" lon="35.017059326">
  <ele>374.041504</ele>
  <time>2011-07-15T07:26:56Z</time>
  <speed>4.630000</speed>
</trkpt>
<trkpt lat="32.714710236" lon="35.017036438">
  <ele>374.049316</ele>
  <time>2011-07-15T07:26:57Z</time>
  <speed>5.240000</speed>
</trkpt>
<trkpt lat="32.714748383" lon="35.017002106">
  <ele>373.471191</ele>
  <time>2011-07-15T07:26:58Z</time>
  <speed>5.300000</speed>
</trkpt>
<trkpt lat="32.714790344" lon="35.016975403">
  <ele>372.986816</ele>
  <time>2011-07-15T07:26:59Z</time>
  <speed>5.280000</speed>
</trkpt>
<trkpt lat="32.714828491" lon="35.016941071">
  <ele>372.971191</ele>
  <time>2011-07-15T07:27:00Z</time>
  <speed>5.230000</speed>
</trkpt>
<trkpt lat="32.714870453" lon="35.016910553">
  <ele>373.018066</ele>
  <time>2011-07-15T07:27:01Z</time>
  <speed>5.180000</speed>
</trkpt>
<trkpt lat="32.714908600" lon="35.016880035">
  <ele>373.619629</ele>
  <time>2011-07-15T07:27:02Z</time>
  <speed>5.310000</speed>
</trkpt>
<trkpt lat="32.714946747" lon="35.016841888">
  <ele>373.979004</ele>
  <time>2011-07-15T07:27:03Z</time>
  <speed>5.070000</speed>
</trkpt>
<trkpt lat="32.714981079" lon="35.016811371">
  <ele>373.111816</ele>
  <time>2011-07-15T07:27:04Z</time>
  <speed>4.650000</speed>
</trkpt>
<trkpt lat="32.715011597" lon="35.016780853">
  <ele>372.807129</ele>
  <time>2011-07-15T07:27:05Z</time>
  <speed>4.810000</speed>
</trkpt>
<trkpt lat="32.715042114" lon="35.016742706">
  <ele>372.213379</ele>
  <time>2011-07-15T07:27:06Z</time>
  <speed>4.920000</speed>
</trkpt>
<trkpt lat="32.715068817" lon="35.016704559">
  <ele>372.322754</ele>
  <time>2011-07-15T07:27:07Z</time>
  <speed>4.720000</speed>
</trkpt>
<trkpt lat="32.715091705" lon="35.016666412">
  <ele>372.674316</ele>
  <time>2011-07-15T07:27:08Z</time>
  <speed>4.180000</speed>
</trkpt>
<trkpt lat="32.715106964" lon="35.016613007">
  <ele>373.572754</ele>
  <time>2011-07-15T07:27:09Z</time>
  <speed>4.210000</speed>
</trkpt>
<trkpt lat="32.715110779" lon="35.016567230">
  <ele>373.627441</ele>
  <time>2011-07-15T07:27:10Z</time>
  <speed>4.040000</speed>
</trkpt>
<trkpt lat="32.715095520" lon="35.016525269">
  <ele>373.822754</ele>
  <time>2011-07-15T07:27:11Z</time>
  <speed>3.810000</speed>
</trkpt>
<trkpt lat="32.715076447" lon="35.016494751">
  <ele>375.502441</ele>
  <time>2011-07-15T07:27:12Z</time>
  <speed>3.350000</speed>
</trkpt>
<trkpt lat="32.715053558" lon="35.016468048">
  <ele>376.166504</ele>
  <time>2011-07-15T07:27:13Z</time>
  <speed>2.970000</speed>
</trkpt>
<trkpt lat="32.715023041" lon="35.016422272">
  <ele>376.197754</ele>
  <time>2011-07-15T07:27:15Z</time>
  <speed>2.360000</speed>
</trkpt>
<trkpt lat="32.714984894" lon="35.016376495">
  <ele>377.025879</ele>
  <time>2011-07-15T07:27:17Z</time>
  <speed>2.780000</speed>
</trkpt>
<trkpt lat="32.714939117" lon="35.016338348">
  <ele>377.947754</ele>
  <time>2011-07-15T07:27:19Z</time>
  <speed>3.030000</speed>
</trkpt>
<trkpt lat="32.714908600" lon="35.016334534">
  <ele>378.854004</ele>
  <time>2011-07-15T07:27:20Z</time>
  <speed>3.000000</speed>
</trkpt>
<trkpt lat="32.714870453" lon="35.016342163">
  <ele>379.900879</ele>
  <time>2011-07-15T07:27:21Z</time>
  <speed>3.350000</speed>
</trkpt>
<trkpt lat="32.714832306" lon="35.016334534">
  <ele>379.244629</ele>
  <time>2011-07-15T07:27:22Z</time>
  <speed>3.220000</speed>
</trkpt>
<trkpt lat="32.714805603" lon="35.016326904">
  <ele>378.635254</ele>
  <time>2011-07-15T07:27:23Z</time>
  <speed>2.480000</speed>
</trkpt>
<trkpt lat="32.714763641" lon="35.016296387">
  <ele>379.588379</ele>
  <time>2011-07-15T07:27:25Z</time>
  <speed>2.650000</speed>
</trkpt>
<trkpt lat="32.714706421" lon="35.016288757">
  <ele>379.682129</ele>
  <time>2011-07-15T07:27:27Z</time>
  <speed>3.870000</speed>
</trkpt>
<trkpt lat="32.714660645" lon="35.016281128">
  <ele>380.322754</ele>
  <time>2011-07-15T07:27:28Z</time>
  <speed>3.760000</speed>
</trkpt>
<trkpt lat="32.714622498" lon="35.016284943">
  <ele>380.791504</ele>
  <time>2011-07-15T07:27:29Z</time>
  <speed>3.400000</speed>
</trkpt>
<trkpt lat="32.714591980" lon="35.016281128">
  <ele>381.111816</ele>
  <time>2011-07-15T07:27:30Z</time>
  <speed>3.610000</speed>
</trkpt>
<trkpt lat="32.714550018" lon="35.016281128">
  <ele>381.908691</ele>
  <time>2011-07-15T07:27:31Z</time>
  <speed>3.750000</speed>
</trkpt>
<trkpt lat="32.714515686" lon="35.016281128">
  <ele>382.018066</ele>
  <time>2011-07-15T07:27:32Z</time>
  <speed>3.610000</speed>
</trkpt>
<trkpt lat="32.714477539" lon="35.016281128">
  <ele>381.814941</ele>
  <time>2011-07-15T07:27:33Z</time>
  <speed>4.010000</speed>
</trkpt>
<trkpt lat="32.714447021" lon="35.016284943">
  <ele>381.814941</ele>
  <time>2011-07-15T07:27:34Z</time>
  <speed>3.660000</speed>
</trkpt>
<trkpt lat="32.714412689" lon="35.016288757">
  <ele>381.869629</ele>
  <time>2011-07-15T07:27:35Z</time>
  <speed>3.760000</speed>
</trkpt>
<trkpt lat="32.714355469" lon="35.016296387">
  <ele>379.346191</ele>
  <time>2011-07-15T07:27:36Z</time>
  <speed>4.080000</speed>
</trkpt>
<trkpt lat="32.714321136" lon="35.016300201">
  <ele>378.424316</ele>
  <time>2011-07-15T07:27:37Z</time>
  <speed>3.500000</speed>
</trkpt>
<trkpt lat="32.714290619" lon="35.016304016">
  <ele>379.135254</ele>
  <time>2011-07-15T07:27:38Z</time>
  <speed>3.230000</speed>
</trkpt>
<trkpt lat="32.714244843" lon="35.016292572">
  <ele>377.064941</ele>
  <time>2011-07-15T07:27:39Z</time>
  <speed>3.410000</speed>
</trkpt>
<trkpt lat="32.714214325" lon="35.016284943">
  <ele>377.002441</ele>
  <time>2011-07-15T07:27:40Z</time>
  <speed>3.630000</speed>
</trkpt>
<trkpt lat="32.714176178" lon="35.016281128">
  <ele>377.846191</ele>
  <time>2011-07-15T07:27:41Z</time>
  <speed>3.830000</speed>
</trkpt>
<trkpt lat="32.714149475" lon="35.016277313">
  <ele>377.861816</ele>
  <time>2011-07-15T07:27:42Z</time>
  <speed>2.550000</speed>
</trkpt>
<trkpt lat="32.714107513" lon="35.016277313">
  <ele>377.447754</ele>
  <time>2011-07-15T07:27:44Z</time>
  <speed>2.130000</speed>
</trkpt>
<trkpt lat="32.714065552" lon="35.016265869">
  <ele>377.713379</ele>
  <time>2011-07-15T07:27:46Z</time>
  <speed>2.220000</speed>
</trkpt>
<trkpt lat="32.714035034" lon="35.016242981">
  <ele>375.908691</ele>
  <time>2011-07-15T07:27:48Z</time>
  <speed>1.370000</speed>
</trkpt>
<trkpt lat="32.714031219" lon="35.016216278">
  <ele>373.838379</ele>
  <time>2011-07-15T07:27:49Z</time>
  <speed>2.100000</speed>
</trkpt>
<trkpt lat="32.714046478" lon="35.016174316">
  <ele>371.627441</ele>
  <time>2011-07-15T07:27:51Z</time>
  <speed>2.040000</speed>
</trkpt>
<trkpt lat="32.714050293" lon="35.016113281">
  <ele>370.650879</ele>
  <time>2011-07-15T07:27:53Z</time>
  <speed>3.200000</speed>
</trkpt>
<trkpt lat="32.714035034" lon="35.016071320">
  <ele>370.643066</ele>
  <time>2011-07-15T07:27:54Z</time>
  <speed>3.530000</speed>
</trkpt>
<trkpt lat="32.714012146" lon="35.016033173">
  <ele>370.338379</ele>
  <time>2011-07-15T07:27:55Z</time>
  <speed>4.470000</speed>
</trkpt>
<trkpt lat="32.713993073" lon="35.015991211">
  <ele>370.283691</ele>
  <time>2011-07-15T07:27:56Z</time>
  <speed>3.730000</speed>
</trkpt>
<trkpt lat="32.713985443" lon="35.015949249">
  <ele>369.549316</ele>
  <time>2011-07-15T07:27:57Z</time>
  <speed>3.600000</speed>
</trkpt>
<trkpt lat="32.713981628" lon="35.015911102">
  <ele>368.143066</ele>
  <time>2011-07-15T07:27:59Z</time>
  <speed>1.600000</speed>
</trkpt>
<trkpt lat="32.713954926" lon="35.015899658">
  <ele>367.869629</ele>
  <time>2011-07-15T07:28:03Z</time>
  <speed>0.130000</speed>
</trkpt>
<trkpt lat="32.713924408" lon="35.015880585">
  <ele>366.885254</ele>
  <time>2011-07-15T07:28:52Z</time>
  <speed>2.320000</speed>
</trkpt>
<trkpt lat="32.713928223" lon="35.015846252">
  <ele>366.510254</ele>
  <time>2011-07-15T07:28:53Z</time>
  <speed>3.060000</speed>
</trkpt>
<trkpt lat="32.713935852" lon="35.015808105">
  <ele>366.150879</ele>
  <time>2011-07-15T07:28:54Z</time>
  <speed>3.610000</speed>
</trkpt>
<trkpt lat="32.713954926" lon="35.015769958">
  <ele>365.760254</ele>
  <time>2011-07-15T07:28:55Z</time>
  <speed>4.100000</speed>
</trkpt>
<trkpt lat="32.713973999" lon="35.015727997">
  <ele>365.650879</ele>
  <time>2011-07-15T07:28:56Z</time>
  <speed>4.750000</speed>
</trkpt>
<trkpt lat="32.713993073" lon="35.015674591">
  <ele>365.346191</ele>
  <time>2011-07-15T07:28:57Z</time>
  <speed>5.450000</speed>
</trkpt>
<trkpt lat="32.714015961" lon="35.015609741">
  <ele>365.252441</ele>
  <time>2011-07-15T07:28:58Z</time>
  <speed>5.890000</speed>
</trkpt>
<trkpt lat="32.714038849" lon="35.015563965">
  <ele>366.049316</ele>
  <time>2011-07-15T07:28:59Z</time>
  <speed>6.000000</speed>
</trkpt>
<trkpt lat="32.714061737" lon="35.015506744">
  <ele>366.236816</ele>
  <time>2011-07-15T07:29:00Z</time>
  <speed>5.350000</speed>
</trkpt>
<trkpt lat="32.714073181" lon="35.015453339">
  <ele>365.713379</ele>
  <time>2011-07-15T07:29:01Z</time>
  <speed>4.870000</speed>
</trkpt>
<trkpt lat="32.714084625" lon="35.015392303">
  <ele>366.135254</ele>
  <time>2011-07-15T07:29:02Z</time>
  <speed>5.340000</speed>
</trkpt>
<trkpt lat="32.714099884" lon="35.015338898">
  <ele>365.947754</ele>
  <time>2011-07-15T07:29:03Z</time>
  <speed>5.390000</speed>
</trkpt>
<trkpt lat="32.714115143" lon="35.015285492">
  <ele>365.994629</ele>
  <time>2011-07-15T07:29:04Z</time>
  <speed>5.320000</speed>
</trkpt>
<trkpt lat="32.714134216" lon="35.015235901">
  <ele>365.955566</ele>
  <time>2011-07-15T07:29:05Z</time>
  <speed>4.490000</speed>
</trkpt>
<trkpt lat="32.714141846" lon="35.015190125">
  <ele>365.713379</ele>
  <time>2011-07-15T07:29:06Z</time>
  <speed>4.010000</speed>
</trkpt>
<trkpt lat="32.714164734" lon="35.015148163">
  <ele>365.861816</ele>
  <time>2011-07-15T07:29:07Z</time>
  <speed>4.590000</speed>
</trkpt>
<trkpt lat="32.714187622" lon="35.015106201">
  <ele>365.924316</ele>
  <time>2011-07-15T07:29:08Z</time>
  <speed>4.760000</speed>
</trkpt>
<trkpt lat="32.714206696" lon="35.015064240">
  <ele>365.393066</ele>
  <time>2011-07-15T07:29:09Z</time>
  <speed>4.980000</speed>
</trkpt>
<trkpt lat="32.714233398" lon="35.015022278">
  <ele>364.752441</ele>
  <time>2011-07-15T07:29:10Z</time>
  <speed>5.120000</speed>
</trkpt>
<trkpt lat="32.714260101" lon="35.014984131">
  <ele>363.986816</ele>
  <time>2011-07-15T07:29:11Z</time>
  <speed>4.610000</speed>
</trkpt>
<trkpt lat="32.714298248" lon="35.014945984">
  <ele>363.041504</ele>
  <time>2011-07-15T07:29:12Z</time>
  <speed>4.940000</speed>
</trkpt>
<trkpt lat="32.714328766" lon="35.014904022">
  <ele>362.830566</ele>
  <time>2011-07-15T07:29:13Z</time>
  <speed>4.680000</speed>
</trkpt>
<trkpt lat="32.714363098" lon="35.014877319">
  <ele>362.072754</ele>
  <time>2011-07-15T07:29:14Z</time>
  <speed>4.460000</speed>
</trkpt>
<trkpt lat="32.714389801" lon="35.014842987">
  <ele>361.658691</ele>
  <time>2011-07-15T07:29:15Z</time>
  <speed>3.930000</speed>
</trkpt>
<trkpt lat="32.714397430" lon="35.014797211">
  <ele>361.393066</ele>
  <time>2011-07-15T07:29:16Z</time>
  <speed>4.380000</speed>
</trkpt>
<trkpt lat="32.714393616" lon="35.014736176">
  <ele>361.494629</ele>
  <time>2011-07-15T07:29:17Z</time>
  <speed>5.510000</speed>
</trkpt>
<trkpt lat="32.714382172" lon="35.014671326">
  <ele>361.104004</ele>
  <time>2011-07-15T07:29:18Z</time>
  <speed>6.230000</speed>
</trkpt>
<trkpt lat="32.714374542" lon="35.014610291">
  <ele>360.541504</ele>
  <time>2011-07-15T07:29:19Z</time>
  <speed>6.060000</speed>
</trkpt>
<trkpt lat="32.714366913" lon="35.014541626">
  <ele>360.213379</ele>
  <time>2011-07-15T07:29:20Z</time>
  <speed>5.540000</speed>
</trkpt>
<trkpt lat="32.714366913" lon="35.014488220">
  <ele>360.330566</ele>
  <time>2011-07-15T07:29:21Z</time>
  <speed>5.410000</speed>
</trkpt>
<trkpt lat="32.714366913" lon="35.014434814">
  <ele>360.088379</ele>
  <time>2011-07-15T07:29:22Z</time>
  <speed>5.210000</speed>
</trkpt>
<trkpt lat="32.714351654" lon="35.014381409">
  <ele>359.924316</ele>
  <time>2011-07-15T07:29:23Z</time>
  <speed>5.260000</speed>
</trkpt>
<trkpt lat="32.714344025" lon="35.014328003">
  <ele>359.791504</ele>
  <time>2011-07-15T07:29:24Z</time>
  <speed>4.900000</speed>
</trkpt>
<trkpt lat="32.714340210" lon="35.014278412">
  <ele>359.291504</ele>
  <time>2011-07-15T07:29:25Z</time>
  <speed>4.550000</speed>
</trkpt>
<trkpt lat="32.714347839" lon="35.014232635">
  <ele>358.689941</ele>
  <time>2011-07-15T07:29:26Z</time>
  <speed>4.210000</speed>
</trkpt>
<trkpt lat="32.714359283" lon="35.014190674">
  <ele>358.166504</ele>
  <time>2011-07-15T07:29:27Z</time>
  <speed>4.050000</speed>
</trkpt>
<trkpt lat="32.714370728" lon="35.014141083">
  <ele>357.002441</ele>
  <time>2011-07-15T07:29:28Z</time>
  <speed>3.850000</speed>
</trkpt>
<trkpt lat="32.714382172" lon="35.014099121">
  <ele>356.658691</ele>
  <time>2011-07-15T07:29:29Z</time>
  <speed>4.130000</speed>
</trkpt>
<trkpt lat="32.714389801" lon="35.014045715">
  <ele>355.588379</ele>
  <time>2011-07-15T07:29:30Z</time>
  <speed>3.760000</speed>
</trkpt>
<trkpt lat="32.714427948" lon="35.014038086">
  <ele>356.533691</ele>
  <time>2011-07-15T07:29:31Z</time>
  <speed>3.220000</speed>
</trkpt>
<trkpt lat="32.714473724" lon="35.014076233">
  <ele>354.939941</ele>
  <time>2011-07-15T07:29:33Z</time>
  <speed>3.860000</speed>
</trkpt>
<trkpt lat="32.714511871" lon="35.014110565">
  <ele>354.252441</ele>
  <time>2011-07-15T07:29:34Z</time>
  <speed>4.230000</speed>
</trkpt>
<trkpt lat="32.714530945" lon="35.014148712">
  <ele>353.025879</ele>
  <time>2011-07-15T07:29:35Z</time>
  <speed>3.870000</speed>
</trkpt>
<trkpt lat="32.714542389" lon="35.014190674">
  <ele>351.729004</ele>
  <time>2011-07-15T07:29:36Z</time>
  <speed>4.070000</speed>
</trkpt>
<trkpt lat="32.714557648" lon="35.014236450">
  <ele>350.822754</ele>
  <time>2011-07-15T07:29:37Z</time>
  <speed>4.290000</speed>
</trkpt>
<trkpt lat="32.714565277" lon="35.014278412">
  <ele>350.455566</ele>
  <time>2011-07-15T07:29:38Z</time>
  <speed>4.300000</speed>
</trkpt>
<trkpt lat="32.714584351" lon="35.014331818">
  <ele>349.611816</ele>
  <time>2011-07-15T07:29:39Z</time>
  <speed>4.800000</speed>
</trkpt>
<trkpt lat="32.714591980" lon="35.014381409">
  <ele>348.689941</ele>
  <time>2011-07-15T07:29:40Z</time>
  <speed>4.800000</speed>
</trkpt>
<trkpt lat="32.714622498" lon="35.014438629">
  <ele>347.846191</ele>
  <time>2011-07-15T07:29:41Z</time>
  <speed>4.940000</speed>
</trkpt>
<trkpt lat="32.714656830" lon="35.014484406">
  <ele>347.369629</ele>
  <time>2011-07-15T07:29:42Z</time>
  <speed>4.330000</speed>
</trkpt>
<trkpt lat="32.714679718" lon="35.014511108">
  <ele>347.166504</ele>
  <time>2011-07-15T07:29:43Z</time>
  <speed>3.160000</speed>
</trkpt>
<trkpt lat="32.714725494" lon="35.014533997">
  <ele>346.393066</ele>
  <time>2011-07-15T07:29:44Z</time>
  <speed>4.940000</speed>
</trkpt>
<trkpt lat="32.714759827" lon="35.014556885">
  <ele>345.088379</ele>
  <time>2011-07-15T07:29:45Z</time>
  <speed>4.230000</speed>
</trkpt>
<trkpt lat="32.714797974" lon="35.014575958">
  <ele>343.877441</ele>
  <time>2011-07-15T07:29:46Z</time>
  <speed>4.020000</speed>
</trkpt>
<trkpt lat="32.714832306" lon="35.014598846">
  <ele>342.736816</ele>
  <time>2011-07-15T07:29:47Z</time>
  <speed>4.240000</speed>
</trkpt>
<trkpt lat="32.714870453" lon="35.014617920">
  <ele>341.369629</ele>
  <time>2011-07-15T07:29:48Z</time>
  <speed>4.400000</speed>
</trkpt>
<trkpt lat="32.714908600" lon="35.014617920">
  <ele>340.010254</ele>
  <time>2011-07-15T07:29:49Z</time>
  <speed>3.750000</speed>
</trkpt>
<trkpt lat="32.714942932" lon="35.014606476">
  <ele>338.674316</ele>
  <time>2011-07-15T07:29:50Z</time>
  <speed>4.020000</speed>
</trkpt>
<trkpt lat="32.714984894" lon="35.014602661">
  <ele>337.635254</ele>
  <time>2011-07-15T07:29:51Z</time>
  <speed>3.800000</speed>
</trkpt>
<trkpt lat="32.715019226" lon="35.014595032">
  <ele>336.775879</ele>
  <time>2011-07-15T07:29:52Z</time>
  <speed>3.120000</speed>
</trkpt>
<trkpt lat="32.715072632" lon="35.014591217">
  <ele>334.979004</ele>
  <time>2011-07-15T07:29:54Z</time>
  <speed>2.570000</speed>
</trkpt>
<trkpt lat="32.715106964" lon="35.014564514">
  <ele>334.525879</ele>
  <time>2011-07-15T07:29:55Z</time>
  <speed>3.240000</speed>
</trkpt>
<trkpt lat="32.715126038" lon="35.014526367">
  <ele>333.963379</ele>
  <time>2011-07-15T07:29:56Z</time>
  <speed>3.720000</speed>
</trkpt>
<trkpt lat="32.715137482" lon="35.014492035">
  <ele>333.393066</ele>
  <time>2011-07-15T07:29:57Z</time>
  <speed>2.890000</speed>
</trkpt>
<trkpt lat="32.715175629" lon="35.014457703">
  <ele>330.760254</ele>
  <time>2011-07-15T07:29:59Z</time>
  <speed>2.700000</speed>
</trkpt>
<trkpt lat="32.715198517" lon="35.014442444">
  <ele>329.814941</ele>
  <time>2011-07-15T07:30:00Z</time>
  <speed>2.790000</speed>
</trkpt>
<trkpt lat="32.715229034" lon="35.014427185">
  <ele>328.729004</ele>
  <time>2011-07-15T07:30:01Z</time>
  <speed>2.980000</speed>
</trkpt>
<trkpt lat="32.715259552" lon="35.014408112">
  <ele>327.236816</ele>
  <time>2011-07-15T07:30:02Z</time>
  <speed>3.450000</speed>
</trkpt>
<trkpt lat="32.715282440" lon="35.014392853">
  <ele>326.002441</ele>
  <time>2011-07-15T07:30:03Z</time>
  <speed>3.080000</speed>
</trkpt>
<trkpt lat="32.715309143" lon="35.014373779">
  <ele>325.080566</ele>
  <time>2011-07-15T07:30:04Z</time>
  <speed>2.990000</speed>
</trkpt>
<trkpt lat="32.715343475" lon="35.014347076">
  <ele>324.314941</ele>
  <time>2011-07-15T07:30:05Z</time>
  <speed>3.690000</speed>
</trkpt>
<trkpt lat="32.715400696" lon="35.014331818">
  <ele>323.525879</ele>
  <time>2011-07-15T07:30:06Z</time>
  <speed>4.480000</speed>
</trkpt>
<trkpt lat="32.715450287" lon="35.014320374">
  <ele>322.658691</ele>
  <time>2011-07-15T07:30:07Z</time>
  <speed>4.690000</speed>
</trkpt>
<trkpt lat="32.715488434" lon="35.014297485">
  <ele>322.080566</ele>
  <time>2011-07-15T07:30:08Z</time>
  <speed>4.220000</speed>
</trkpt>
<trkpt lat="32.715522766" lon="35.014286041">
  <ele>321.377441</ele>
  <time>2011-07-15T07:30:09Z</time>
  <speed>3.940000</speed>
</trkpt>
<trkpt lat="32.715560913" lon="35.014270782">
  <ele>320.627441</ele>
  <time>2011-07-15T07:30:10Z</time>
  <speed>4.000000</speed>
</trkpt>
<trkpt lat="32.715587616" lon="35.014282227">
  <ele>319.533691</ele>
  <time>2011-07-15T07:30:11Z</time>
  <speed>3.450000</speed>
</trkpt>
<trkpt lat="32.715621948" lon="35.014282227">
  <ele>318.158691</ele>
  <time>2011-07-15T07:30:12Z</time>
  <speed>3.950000</speed>
</trkpt>
<trkpt lat="32.715652466" lon="35.014289856">
  <ele>318.174316</ele>
  <time>2011-07-15T07:30:13Z</time>
  <speed>4.030000</speed>
</trkpt>
<trkpt lat="32.715702057" lon="35.014274597">
  <ele>316.932129</ele>
  <time>2011-07-15T07:30:14Z</time>
  <speed>4.000000</speed>
</trkpt>
<trkpt lat="32.715740204" lon="35.014255524">
  <ele>317.447754</ele>
  <time>2011-07-15T07:30:15Z</time>
  <speed>4.060000</speed>
</trkpt>
<trkpt lat="32.715774536" lon="35.014259338">
  <ele>316.166504</ele>
  <time>2011-07-15T07:30:16Z</time>
  <speed>2.960000</speed>
</trkpt>
<trkpt lat="32.715801239" lon="35.014278412">
  <ele>312.783691</ele>
  <time>2011-07-15T07:30:17Z</time>
  <speed>3.600000</speed>
</trkpt>
<trkpt lat="32.715831757" lon="35.014289856">
  <ele>310.822754</ele>
  <time>2011-07-15T07:30:18Z</time>
  <speed>3.710000</speed>
</trkpt>
<trkpt lat="32.715862274" lon="35.014286041">
  <ele>310.283691</ele>
  <time>2011-07-15T07:30:19Z</time>
  <speed>3.070000</speed>
</trkpt>
<trkpt lat="32.715896606" lon="35.014274597">
  <ele>309.057129</ele>
  <time>2011-07-15T07:30:20Z</time>
  <speed>3.530000</speed>
</trkpt>
<trkpt lat="32.715950012" lon="35.014270782">
  <ele>307.564941</ele>
  <time>2011-07-15T07:30:21Z</time>
  <speed>4.740000</speed>
</trkpt>
<trkpt lat="32.716003418" lon="35.014263153">
  <ele>306.408691</ele>
  <time>2011-07-15T07:30:22Z</time>
  <speed>5.080000</speed>
</trkpt>
<trkpt lat="32.716056824" lon="35.014247894">
  <ele>304.768066</ele>
  <time>2011-07-15T07:30:23Z</time>
  <speed>5.910000</speed>
</trkpt>
<trkpt lat="32.716110229" lon="35.014244080">
  <ele>303.119629</ele>
  <time>2011-07-15T07:30:24Z</time>
  <speed>5.160000</speed>
</trkpt>
<trkpt lat="32.716156006" lon="35.014236450">
  <ele>301.479004</ele>
  <time>2011-07-15T07:30:25Z</time>
  <speed>4.970000</speed>
</trkpt>
<trkpt lat="32.716239929" lon="35.014236450">
  <ele>301.236816</ele>
  <time>2011-07-15T07:30:26Z</time>
  <speed>5.500000</speed>
</trkpt>
<trkpt lat="32.716293335" lon="35.014228821">
  <ele>300.080566</ele>
  <time>2011-07-15T07:30:27Z</time>
  <speed>5.150000</speed>
</trkpt>
<trkpt lat="32.716342926" lon="35.014209747">
  <ele>298.541504</ele>
  <time>2011-07-15T07:30:28Z</time>
  <speed>5.370000</speed>
</trkpt>
<trkpt lat="32.716400146" lon="35.014179230">
  <ele>298.260254</ele>
  <time>2011-07-15T07:30:29Z</time>
  <speed>5.400000</speed>
</trkpt>
<trkpt lat="32.716442108" lon="35.014152527">
  <ele>297.400879</ele>
  <time>2011-07-15T07:30:30Z</time>
  <speed>5.140000</speed>
</trkpt>
<trkpt lat="32.716484070" lon="35.014118195">
  <ele>296.338379</ele>
  <time>2011-07-15T07:30:31Z</time>
  <speed>5.140000</speed>
</trkpt>
<trkpt lat="32.716522217" lon="35.014076233">
  <ele>294.588379</ele>
  <time>2011-07-15T07:30:32Z</time>
  <speed>5.930000</speed>
</trkpt>
<trkpt lat="32.716564178" lon="35.014034271">
  <ele>293.721191</ele>
  <time>2011-07-15T07:30:33Z</time>
  <speed>5.780000</speed>
</trkpt>
<trkpt lat="32.716602325" lon="35.013996124">
  <ele>293.479004</ele>
  <time>2011-07-15T07:30:34Z</time>
  <speed>5.140000</speed>
</trkpt>
<trkpt lat="32.716648102" lon="35.013957977">
  <ele>292.252441</ele>
  <time>2011-07-15T07:30:35Z</time>
  <speed>6.520000</speed>
</trkpt>
<trkpt lat="32.716724396" lon="35.013912201">
  <ele>291.744629</ele>
  <time>2011-07-15T07:30:36Z</time>
  <speed>6.090000</speed>
</trkpt>
<trkpt lat="32.716762543" lon="35.013866425">
  <ele>290.697754</ele>
  <time>2011-07-15T07:30:37Z</time>
  <speed>6.000000</speed>
</trkpt>
<trkpt lat="32.716796875" lon="35.013813019">
  <ele>290.205566</ele>
  <time>2011-07-15T07:30:38Z</time>
  <speed>5.820000</speed>
</trkpt>
<trkpt lat="32.716831207" lon="35.013771057">
  <ele>288.908691</ele>
  <time>2011-07-15T07:30:39Z</time>
  <speed>5.110000</speed>
</trkpt>
<trkpt lat="32.716865540" lon="35.013736725">
  <ele>287.908691</ele>
  <time>2011-07-15T07:30:40Z</time>
  <speed>5.040000</speed>
</trkpt>
<trkpt lat="32.716899872" lon="35.013706207">
  <ele>286.994629</ele>
  <time>2011-07-15T07:30:41Z</time>
  <speed>4.960000</speed>
</trkpt>
<trkpt lat="32.716930389" lon="35.013660431">
  <ele>286.104004</ele>
  <time>2011-07-15T07:30:42Z</time>
  <speed>5.490000</speed>
</trkpt>
<trkpt lat="32.716953278" lon="35.013603210">
  <ele>285.424316</ele>
  <time>2011-07-15T07:30:43Z</time>
  <speed>5.460000</speed>
</trkpt>
<trkpt lat="32.716968536" lon="35.013538361">
  <ele>284.838379</ele>
  <time>2011-07-15T07:30:44Z</time>
  <speed>6.360000</speed>
</trkpt>
<trkpt lat="32.716995239" lon="35.013477325">
  <ele>284.018066</ele>
  <time>2011-07-15T07:30:45Z</time>
  <speed>6.410000</speed>
</trkpt>
<trkpt lat="32.717025757" lon="35.013412476">
  <ele>283.291504</ele>
  <time>2011-07-15T07:30:46Z</time>
  <speed>6.500000</speed>
</trkpt>
<trkpt lat="32.717056274" lon="35.013366699">
  <ele>283.697754</ele>
  <time>2011-07-15T07:30:47Z</time>
  <speed>5.930000</speed>
</trkpt>
<trkpt lat="32.717082977" lon="35.013313293">
  <ele>283.283691</ele>
  <time>2011-07-15T07:30:48Z</time>
  <speed>4.940000</speed>
</trkpt>
<trkpt lat="32.717109680" lon="35.013271332">
  <ele>283.221191</ele>
  <time>2011-07-15T07:30:49Z</time>
  <speed>4.260000</speed>
</trkpt>
<trkpt lat="32.717128754" lon="35.013229370">
  <ele>283.299316</ele>
  <time>2011-07-15T07:30:50Z</time>
  <speed>4.490000</speed>
</trkpt>
<trkpt lat="32.717155457" lon="35.013191223">
  <ele>282.963379</ele>
  <time>2011-07-15T07:30:51Z</time>
  <speed>4.490000</speed>
</trkpt>
<trkpt lat="32.717178345" lon="35.013153076">
  <ele>282.830566</ele>
  <time>2011-07-15T07:30:52Z</time>
  <speed>4.400000</speed>
</trkpt>
<trkpt lat="32.717205048" lon="35.013114929">
  <ele>283.049316</ele>
  <time>2011-07-15T07:30:53Z</time>
  <speed>3.820000</speed>
</trkpt>
<trkpt lat="32.717220306" lon="35.013092041">
  <ele>282.322754</ele>
  <time>2011-07-15T07:30:54Z</time>
  <speed>3.730000</speed>
</trkpt>
<trkpt lat="32.717250824" lon="35.013076782">
  <ele>281.963379</ele>
  <time>2011-07-15T07:30:55Z</time>
  <speed>3.420000</speed>
</trkpt>
<trkpt lat="32.717281342" lon="35.013038635">
  <ele>282.197754</ele>
  <time>2011-07-15T07:30:57Z</time>
  <speed>2.190000</speed>
</trkpt>
<trkpt lat="32.717292786" lon="35.013011932">
  <ele>282.768066</ele>
  <time>2011-07-15T07:30:58Z</time>
  <speed>2.450000</speed>
</trkpt>
<trkpt lat="32.717300415" lon="35.012954712">
  <ele>283.729004</ele>
  <time>2011-07-15T07:31:00Z</time>
  <speed>2.470000</speed>
</trkpt>
<trkpt lat="32.717311859" lon="35.012908936">
  <ele>284.338379</ele>
  <time>2011-07-15T07:31:02Z</time>
  <speed>2.170000</speed>
</trkpt>
<trkpt lat="32.717319489" lon="35.012866974">
  <ele>284.979004</ele>
  <time>2011-07-15T07:31:04Z</time>
  <speed>1.410000</speed>
</trkpt>
<trkpt lat="32.717338562" lon="35.012844086">
  <ele>284.221191</ele>
  <time>2011-07-15T07:32:33Z</time>
</trkpt>
<trkpt lat="32.717357635" lon="35.012805939">
  <ele>284.807129</ele>
  <time>2011-07-15T07:32:49Z</time>
  <speed>1.810000</speed>
</trkpt>
<trkpt lat="32.717357635" lon="35.012752533">
  <ele>284.557129</ele>
  <time>2011-07-15T07:32:51Z</time>
  <speed>2.880000</speed>
</trkpt>
<trkpt lat="32.717353821" lon="35.012710571">
  <ele>284.932129</ele>
  <time>2011-07-15T07:32:52Z</time>
  <speed>3.640000</speed>
</trkpt>
<trkpt lat="32.717357635" lon="35.012664795">
  <ele>284.650879</ele>
  <time>2011-07-15T07:32:53Z</time>
  <speed>4.850000</speed>
</trkpt>
<trkpt lat="32.717365265" lon="35.012615204">
  <ele>284.666504</ele>
  <time>2011-07-15T07:32:54Z</time>
  <speed>4.810000</speed>
</trkpt>
<trkpt lat="32.717376709" lon="35.012561798">
  <ele>284.900879</ele>
  <time>2011-07-15T07:32:55Z</time>
  <speed>4.650000</speed>
</trkpt>
<trkpt lat="32.717380524" lon="35.012512207">
  <ele>284.783691</ele>
  <time>2011-07-15T07:32:56Z</time>
  <speed>4.090000</speed>
</trkpt>
<trkpt lat="32.717391968" lon="35.012470245">
  <ele>284.791504</ele>
  <time>2011-07-15T07:32:57Z</time>
  <speed>3.520000</speed>
</trkpt>
<trkpt lat="32.717403412" lon="35.012432098">
  <ele>284.666504</ele>
  <time>2011-07-15T07:32:58Z</time>
  <speed>3.080000</speed>
</trkpt>
<trkpt lat="32.717414856" lon="35.012397766">
  <ele>284.557129</ele>
  <time>2011-07-15T07:32:59Z</time>
  <speed>2.450000</speed>
</trkpt>
<trkpt lat="32.717430115" lon="35.012363434">
  <ele>284.549316</ele>
  <time>2011-07-15T07:33:00Z</time>
  <speed>2.880000</speed>
</trkpt>
<trkpt lat="32.717418671" lon="35.012306213">
  <ele>283.447754</ele>
  <time>2011-07-15T07:33:01Z</time>
  <speed>3.620000</speed>
</trkpt>
<trkpt lat="32.717422485" lon="35.012260437">
  <ele>282.205566</ele>
  <time>2011-07-15T07:33:02Z</time>
  <speed>3.400000</speed>
</trkpt>
<trkpt lat="32.717449188" lon="35.012229919">
  <ele>281.627441</ele>
  <time>2011-07-15T07:33:03Z</time>
  <speed>3.590000</speed>
</trkpt>
<trkpt lat="32.717464447" lon="35.012187958">
  <ele>281.088379</ele>
  <time>2011-07-15T07:33:04Z</time>
  <speed>3.790000</speed>
</trkpt>
<trkpt lat="32.717472076" lon="35.012157440">
  <ele>281.041504</ele>
  <time>2011-07-15T07:33:05Z</time>
  <speed>2.940000</speed>
</trkpt>
<trkpt lat="32.717483521" lon="35.012119293">
  <ele>281.025879</ele>
  <time>2011-07-15T07:33:06Z</time>
  <speed>3.120000</speed>
</trkpt>
<trkpt lat="32.717487335" lon="35.012084961">
  <ele>281.291504</ele>
  <time>2011-07-15T07:33:07Z</time>
  <speed>2.840000</speed>
</trkpt>
<trkpt lat="32.717483521" lon="35.012050629">
  <ele>280.549316</ele>
  <time>2011-07-15T07:33:08Z</time>
  <speed>1.770000</speed>
</trkpt>
<trkpt lat="32.717494965" lon="35.012020111">
  <ele>279.143066</ele>
  <time>2011-07-15T07:33:10Z</time>
  <speed>2.100000</speed>
</trkpt>
<trkpt lat="32.717506409" lon="35.011985779">
  <ele>278.713379</ele>
  <time>2011-07-15T07:33:12Z</time>
  <speed>1.270000</speed>
</trkpt>
<trkpt lat="32.717498779" lon="35.011947632">
  <ele>278.541504</ele>
  <time>2011-07-15T07:33:32Z</time>
  <speed>0.920000</speed>
</trkpt>
<trkpt lat="32.717533112" lon="35.011913300">
  <ele>277.854004</ele>
  <time>2011-07-15T07:33:35Z</time>
  <speed>1.500000</speed>
</trkpt>
<trkpt lat="32.717571259" lon="35.011886597">
  <ele>276.502441</ele>
  <time>2011-07-15T07:33:37Z</time>
  <speed>1.590000</speed>
</trkpt>
<trkpt lat="32.717590332" lon="35.011840820">
  <ele>275.783691</ele>
  <time>2011-07-15T07:33:39Z</time>
  <speed>1.820000</speed>
</trkpt>
<trkpt lat="32.717617035" lon="35.011798859">
  <ele>274.807129</ele>
  <time>2011-07-15T07:33:41Z</time>
  <speed>2.250000</speed>
</trkpt>
<trkpt lat="32.717628479" lon="35.011756897">
  <ele>275.119629</ele>
  <time>2011-07-15T07:33:43Z</time>
  <speed>1.970000</speed>
</trkpt>
<trkpt lat="32.717666626" lon="35.011730194">
  <ele>275.119629</ele>
  <time>2011-07-15T07:33:46Z</time>
  <speed>1.250000</speed>
</trkpt>
<trkpt lat="32.717689514" lon="35.011711121">
  <ele>274.924316</ele>
  <time>2011-07-15T07:33:48Z</time>
  <speed>1.760000</speed>
</trkpt>
<trkpt lat="32.717723846" lon="35.011672974">
  <ele>274.979004</ele>
  <time>2011-07-15T07:33:50Z</time>
  <speed>2.750000</speed>
</trkpt>
<trkpt lat="32.717758179" lon="35.011634827">
  <ele>274.541504</ele>
  <time>2011-07-15T07:33:52Z</time>
  <speed>2.610000</speed>
</trkpt>
<trkpt lat="32.717803955" lon="35.011623383">
  <ele>273.939941</ele>
  <time>2011-07-15T07:33:54Z</time>
  <speed>2.520000</speed>
</trkpt>
<trkpt lat="32.717834473" lon="35.011585236">
  <ele>274.197754</ele>
  <time>2011-07-15T07:33:56Z</time>
  <speed>2.000000</speed>
</trkpt>
<trkpt lat="32.717868805" lon="35.011554718">
  <ele>273.900879</ele>
  <time>2011-07-15T07:33:58Z</time>
  <speed>2.810000</speed>
</trkpt>
<trkpt lat="32.717910767" lon="35.011524200">
  <ele>274.010254</ele>
  <time>2011-07-15T07:34:00Z</time>
  <speed>2.640000</speed>
</trkpt>
<trkpt lat="32.717933655" lon="35.011501312">
  <ele>273.705566</ele>
  <time>2011-07-15T07:34:01Z</time>
  <speed>3.570000</speed>
</trkpt>
<trkpt lat="32.717960358" lon="35.011478424">
  <ele>273.729004</ele>
  <time>2011-07-15T07:34:02Z</time>
  <speed>3.880000</speed>
</trkpt>
<trkpt lat="32.718002319" lon="35.011459351">
  <ele>273.830566</ele>
  <time>2011-07-15T07:34:03Z</time>
  <speed>4.230000</speed>
</trkpt>
<trkpt lat="32.718036652" lon="35.011444092">
  <ele>273.447754</ele>
  <time>2011-07-15T07:34:04Z</time>
  <speed>3.360000</speed>
</trkpt>
<trkpt lat="32.718063354" lon="35.011436462">
  <ele>273.619629</ele>
  <time>2011-07-15T07:34:05Z</time>
  <speed>2.880000</speed>
</trkpt>
<trkpt lat="32.718120575" lon="35.011425018">
  <ele>273.377441</ele>
  <time>2011-07-15T07:34:07Z</time>
  <speed>3.220000</speed>
</trkpt>
<trkpt lat="32.718158722" lon="35.011425018">
  <ele>272.713379</ele>
  <time>2011-07-15T07:34:08Z</time>
  <speed>3.850000</speed>
</trkpt>
<trkpt lat="32.718185425" lon="35.011409760">
  <ele>272.189941</ele>
  <time>2011-07-15T07:34:09Z</time>
  <speed>3.570000</speed>
</trkpt>
<trkpt lat="32.718212128" lon="35.011394501">
  <ele>271.588379</ele>
  <time>2011-07-15T07:34:10Z</time>
  <speed>3.360000</speed>
</trkpt>
<trkpt lat="32.718250275" lon="35.011383057">
  <ele>271.135254</ele>
  <time>2011-07-15T07:34:11Z</time>
  <speed>3.920000</speed>
</trkpt>
<trkpt lat="32.718303680" lon="35.011371613">
  <ele>271.229004</ele>
  <time>2011-07-15T07:34:12Z</time>
  <speed>3.450000</speed>
</trkpt>
<trkpt lat="32.718322754" lon="35.011348724">
  <ele>270.658691</ele>
  <time>2011-07-15T07:34:13Z</time>
  <speed>2.920000</speed>
</trkpt>
<trkpt lat="32.718372345" lon="35.011318207">
  <ele>269.596191</ele>
  <time>2011-07-15T07:34:15Z</time>
  <speed>2.950000</speed>
</trkpt>
<trkpt lat="32.718395233" lon="35.011299133">
  <ele>269.002441</ele>
  <time>2011-07-15T07:34:16Z</time>
  <speed>2.990000</speed>
</trkpt>
<trkpt lat="32.718433380" lon="35.011272430">
  <ele>267.283691</ele>
  <time>2011-07-15T07:34:18Z</time>
  <speed>2.740000</speed>
</trkpt>
<trkpt lat="32.718475342" lon="35.011249542">
  <ele>265.955566</ele>
  <time>2011-07-15T07:34:20Z</time>
  <speed>1.790000</speed>
</trkpt>
<trkpt lat="32.718502045" lon="35.011230469">
  <ele>265.479004</ele>
  <time>2011-07-15T07:34:22Z</time>
  <speed>1.050000</speed>
</trkpt>
<trkpt lat="32.718521118" lon="35.011211395">
  <ele>264.807129</ele>
  <time>2011-07-15T07:34:24Z</time>
  <speed>2.570000</speed>
</trkpt>
<trkpt lat="32.718578339" lon="35.011188507">
  <ele>263.479004</ele>
  <time>2011-07-15T07:34:26Z</time>
  <speed>3.460000</speed>
</trkpt>
<trkpt lat="32.718608856" lon="35.011180878">
  <ele>263.275879</ele>
  <time>2011-07-15T07:34:27Z</time>
  <speed>4.000000</speed>
</trkpt>
<trkpt lat="32.718643188" lon="35.011165619">
  <ele>262.783691</ele>
  <time>2011-07-15T07:34:28Z</time>
  <speed>4.030000</speed>
</trkpt>
<trkpt lat="32.718669891" lon="35.011146545">
  <ele>261.650879</ele>
  <time>2011-07-15T07:34:29Z</time>
  <speed>3.410000</speed>
</trkpt>
<trkpt lat="32.718711853" lon="35.011112213">
  <ele>259.689941</ele>
  <time>2011-07-15T07:34:31Z</time>
  <speed>2.210000</speed>
</trkpt>
<trkpt lat="32.718742371" lon="35.011074066">
  <ele>258.822754</ele>
  <time>2011-07-15T07:34:33Z</time>
  <speed>2.290000</speed>
</trkpt>
<trkpt lat="32.718769073" lon="35.011043549">
  <ele>257.979004</ele>
  <time>2011-07-15T07:34:35Z</time>
  <speed>2.410000</speed>
</trkpt>
<trkpt lat="32.718803406" lon="35.011009216">
  <ele>257.471191</ele>
  <time>2011-07-15T07:34:37Z</time>
  <speed>2.630000</speed>
</trkpt>
<trkpt lat="32.718833923" lon="35.010955811">
  <ele>257.197754</ele>
  <time>2011-07-15T07:34:39Z</time>
  <speed>3.510000</speed>
</trkpt>
<trkpt lat="32.718852997" lon="35.010921478">
  <ele>256.361816</ele>
  <time>2011-07-15T07:34:40Z</time>
  <speed>3.580000</speed>
</trkpt>
<trkpt lat="32.718875885" lon="35.010894775">
  <ele>255.727783</ele>
  <time>2011-07-15T07:34:41Z</time>
  <speed>3.740000</speed>
</trkpt>
<trkpt lat="32.718906403" lon="35.010871887">
  <ele>255.563721</ele>
  <time>2011-07-15T07:34:42Z</time>
  <speed>3.720000</speed>
</trkpt>
<trkpt lat="32.718933105" lon="35.010860443">
  <ele>255.188721</ele>
  <time>2011-07-15T07:34:43Z</time>
  <speed>3.250000</speed>
</trkpt>
<trkpt lat="32.718959808" lon="35.010860443">
  <ele>254.177002</ele>
  <time>2011-07-15T07:34:44Z</time>
  <speed>2.570000</speed>
</trkpt>
<trkpt lat="32.719013214" lon="35.010841370">
  <ele>253.118408</ele>
  <time>2011-07-15T07:34:46Z</time>
  <speed>3.260000</speed>
</trkpt>
<trkpt lat="32.719039917" lon="35.010822296">
  <ele>253.391846</ele>
  <time>2011-07-15T07:34:47Z</time>
  <speed>3.870000</speed>
</trkpt>
<trkpt lat="32.719074249" lon="35.010807037">
  <ele>253.243408</ele>
  <time>2011-07-15T07:34:48Z</time>
  <speed>4.090000</speed>
</trkpt>
<trkpt lat="32.719112396" lon="35.010795593">
  <ele>253.223877</ele>
  <time>2011-07-15T07:34:49Z</time>
  <speed>4.500000</speed>
</trkpt>
<trkpt lat="32.719158173" lon="35.010776520">
  <ele>253.188721</ele>
  <time>2011-07-15T07:34:50Z</time>
  <speed>4.290000</speed>
</trkpt>
<trkpt lat="32.719196320" lon="35.010757446">
  <ele>252.841064</ele>
  <time>2011-07-15T07:34:51Z</time>
  <speed>4.490000</speed>
</trkpt>
<trkpt lat="32.719238281" lon="35.010738373">
  <ele>252.665283</ele>
  <time>2011-07-15T07:34:52Z</time>
  <speed>4.740000</speed>
</trkpt>
<trkpt lat="32.719280243" lon="35.010734558">
  <ele>251.618408</ele>
  <time>2011-07-15T07:34:53Z</time>
  <speed>4.680000</speed>
</trkpt>
<trkpt lat="32.719322205" lon="35.010719299">
  <ele>251.520752</ele>
  <time>2011-07-15T07:34:54Z</time>
  <speed>4.450000</speed>
</trkpt>
<trkpt lat="32.719360352" lon="35.010700226">
  <ele>252.184814</ele>
  <time>2011-07-15T07:34:55Z</time>
  <speed>4.080000</speed>
</trkpt>
<trkpt lat="32.719394684" lon="35.010688782">
  <ele>252.098877</ele>
  <time>2011-07-15T07:34:56Z</time>
  <speed>3.950000</speed>
</trkpt>
<trkpt lat="32.719425201" lon="35.010673523">
  <ele>251.891846</ele>
  <time>2011-07-15T07:34:57Z</time>
  <speed>3.560000</speed>
</trkpt>
<trkpt lat="32.719459534" lon="35.010650635">
  <ele>252.208252</ele>
  <time>2011-07-15T07:34:58Z</time>
  <speed>4.030000</speed>
</trkpt>
<trkpt lat="32.719493866" lon="35.010620117">
  <ele>251.989502</ele>
  <time>2011-07-15T07:34:59Z</time>
  <speed>4.620000</speed>
</trkpt>
<trkpt lat="32.719524384" lon="35.010589600">
  <ele>251.337158</ele>
  <time>2011-07-15T07:35:00Z</time>
  <speed>4.600000</speed>
</trkpt>
<trkpt lat="32.719562531" lon="35.010566711">
  <ele>250.684814</ele>
  <time>2011-07-15T07:35:01Z</time>
  <speed>3.700000</speed>
</trkpt>
<trkpt lat="32.719585419" lon="35.010551453">
  <ele>250.731689</ele>
  <time>2011-07-15T07:35:02Z</time>
  <speed>2.780000</speed>
</trkpt>
<trkpt lat="32.719631195" lon="35.010513306">
  <ele>250.059814</ele>
  <time>2011-07-15T07:35:04Z</time>
  <speed>2.990000</speed>
</trkpt>
<trkpt lat="32.719673157" lon="35.010494232">
  <ele>249.403564</ele>
  <time>2011-07-15T07:35:06Z</time>
  <speed>2.690000</speed>
</trkpt>
<trkpt lat="32.719730377" lon="35.010486603">
  <ele>248.798096</ele>
  <time>2011-07-15T07:35:08Z</time>
  <speed>2.930000</speed>
</trkpt>
<trkpt lat="32.719783783" lon="35.010475159">
  <ele>248.110596</ele>
  <time>2011-07-15T07:35:10Z</time>
  <speed>2.960000</speed>
</trkpt>
<trkpt lat="32.719814301" lon="35.010467529">
  <ele>247.493408</ele>
  <time>2011-07-15T07:35:11Z</time>
  <speed>3.520000</speed>
</trkpt>
<trkpt lat="32.719856262" lon="35.010459900">
  <ele>246.688721</ele>
  <time>2011-07-15T07:35:12Z</time>
  <speed>4.060000</speed>
</trkpt>
<trkpt lat="32.719894409" lon="35.010448456">
  <ele>245.934814</ele>
  <time>2011-07-15T07:35:13Z</time>
  <speed>3.760000</speed>
</trkpt>
<trkpt lat="32.719924927" lon="35.010437012">
  <ele>245.196533</ele>
  <time>2011-07-15T07:35:14Z</time>
  <speed>3.320000</speed>
</trkpt>
<trkpt lat="32.719955444" lon="35.010425568">
  <ele>244.887939</ele>
  <time>2011-07-15T07:35:15Z</time>
  <speed>3.090000</speed>
</trkpt>
<trkpt lat="32.719982147" lon="35.010417938">
  <ele>244.348877</ele>
  <time>2011-07-15T07:35:16Z</time>
  <speed>3.060000</speed>
</trkpt>
<trkpt lat="32.720039368" lon="35.010417938">
  <ele>243.223877</ele>
  <time>2011-07-15T07:35:18Z</time>
  <speed>3.400000</speed>
</trkpt>
<trkpt lat="32.720085144" lon="35.010417938">
  <ele>242.591064</ele>
  <time>2011-07-15T07:35:19Z</time>
  <speed>4.280000</speed>
</trkpt>
<trkpt lat="32.720130920" lon="35.010414124">
  <ele>242.384033</ele>
  <time>2011-07-15T07:35:20Z</time>
  <speed>4.190000</speed>
</trkpt>
<trkpt lat="32.720169067" lon="35.010395050">
  <ele>242.919189</ele>
  <time>2011-07-15T07:35:21Z</time>
  <speed>3.150000</speed>
</trkpt>
<trkpt lat="32.720226288" lon="35.010368347">
  <ele>244.466064</ele>
  <time>2011-07-15T07:35:22Z</time>
  <speed>4.310000</speed>
</trkpt>
<trkpt lat="32.720256805" lon="35.010349274">
  <ele>244.157471</ele>
  <time>2011-07-15T07:35:23Z</time>
  <speed>4.200000</speed>
</trkpt>
<trkpt lat="32.720294952" lon="35.010334015">
  <ele>243.677002</ele>
  <time>2011-07-15T07:35:24Z</time>
  <speed>4.600000</speed>
</trkpt>
<trkpt lat="32.720333099" lon="35.010322571">
  <ele>243.610596</ele>
  <time>2011-07-15T07:35:25Z</time>
  <speed>4.390000</speed>
</trkpt>
<trkpt lat="32.720378876" lon="35.010314941">
  <ele>243.348877</ele>
  <time>2011-07-15T07:35:26Z</time>
  <speed>4.540000</speed>
</trkpt>
<trkpt lat="32.720420837" lon="35.010314941">
  <ele>242.649658</ele>
  <time>2011-07-15T07:35:27Z</time>
  <speed>4.920000</speed>
</trkpt>
<trkpt lat="32.720462799" lon="35.010303497">
  <ele>241.641846</ele>
  <time>2011-07-15T07:35:28Z</time>
  <speed>4.540000</speed>
</trkpt>
<trkpt lat="32.720508575" lon="35.010307312">
  <ele>241.626221</ele>
  <time>2011-07-15T07:35:29Z</time>
  <speed>4.950000</speed>
</trkpt>
<trkpt lat="32.720561981" lon="35.010314941">
  <ele>241.719971</ele>
  <time>2011-07-15T07:35:30Z</time>
  <speed>5.160000</speed>
</trkpt>
<trkpt lat="32.720619202" lon="35.010322571">
  <ele>241.102783</ele>
  <time>2011-07-15T07:35:31Z</time>
  <speed>5.050000</speed>
</trkpt>
<trkpt lat="32.720664978" lon="35.010307312">
  <ele>238.981689</ele>
  <time>2011-07-15T07:35:32Z</time>
  <speed>4.680000</speed>
</trkpt>
<trkpt lat="32.720714569" lon="35.010292053">
  <ele>238.153564</ele>
  <time>2011-07-15T07:35:33Z</time>
  <speed>4.930000</speed>
</trkpt>
<trkpt lat="32.720760345" lon="35.010284424">
  <ele>237.555908</ele>
  <time>2011-07-15T07:35:34Z</time>
  <speed>4.870000</speed>
</trkpt>
<trkpt lat="32.720790863" lon="35.010288239">
  <ele>237.458252</ele>
  <time>2011-07-15T07:35:35Z</time>
  <speed>3.900000</speed>
</trkpt>
<trkpt lat="32.720821381" lon="35.010284424">
  <ele>236.770752</ele>
  <time>2011-07-15T07:35:36Z</time>
  <speed>3.280000</speed>
</trkpt>
<trkpt lat="32.720863342" lon="35.010272980">
  <ele>236.657471</ele>
  <time>2011-07-15T07:35:37Z</time>
  <speed>4.030000</speed>
</trkpt>
<trkpt lat="32.720905304" lon="35.010257721">
  <ele>237.102783</ele>
  <time>2011-07-15T07:35:38Z</time>
  <speed>5.050000</speed>
</trkpt>
<trkpt lat="32.720951080" lon="35.010250092">
  <ele>236.364502</ele>
  <time>2011-07-15T07:35:39Z</time>
  <speed>5.360000</speed>
</trkpt>
<trkpt lat="32.721000671" lon="35.010253906">
  <ele>236.442627</ele>
  <time>2011-07-15T07:35:40Z</time>
  <speed>4.910000</speed>
</trkpt>
<trkpt lat="32.721050262" lon="35.010257721">
  <ele>235.868408</ele>
  <time>2011-07-15T07:35:41Z</time>
  <speed>4.490000</speed>
</trkpt>
<trkpt lat="32.721088409" lon="35.010250092">
  <ele>236.610596</ele>
  <time>2011-07-15T07:35:42Z</time>
  <speed>3.870000</speed>
</trkpt>
<trkpt lat="32.721118927" lon="35.010231018">
  <ele>236.954346</ele>
  <time>2011-07-15T07:35:43Z</time>
  <speed>3.000000</speed>
</trkpt>
<trkpt lat="32.721145630" lon="35.010223389">
  <ele>237.110596</ele>
  <time>2011-07-15T07:35:44Z</time>
  <speed>2.300000</speed>
</trkpt>
<trkpt lat="32.721183777" lon="35.010200500">
  <ele>239.774658</ele>
  <time>2011-07-15T07:35:46Z</time>
  <speed>0.940000</speed>
</trkpt>
<trkpt lat="32.721221924" lon="35.010196686">
  <ele>239.091064</ele>
  <time>2011-07-15T07:35:49Z</time>
  <speed>1.890000</speed>
</trkpt>
<trkpt lat="32.721263885" lon="35.010200500">
  <ele>238.145752</ele>
  <time>2011-07-15T07:35:51Z</time>
  <speed>1.940000</speed>
</trkpt>
<trkpt lat="32.721298218" lon="35.010192871">
  <ele>237.762939</ele>
  <time>2011-07-15T07:35:53Z</time>
  <speed>2.060000</speed>
</trkpt>
<trkpt lat="32.721343994" lon="35.010196686">
  <ele>236.387939</ele>
  <time>2011-07-15T07:35:55Z</time>
  <speed>2.880000</speed>
</trkpt>
<trkpt lat="32.721374512" lon="35.010192871">
  <ele>236.083252</ele>
  <time>2011-07-15T07:35:56Z</time>
  <speed>3.280000</speed>
</trkpt>
<trkpt lat="32.721401215" lon="35.010185242">
  <ele>236.622314</ele>
  <time>2011-07-15T07:35:57Z</time>
  <speed>3.260000</speed>
</trkpt>
<trkpt lat="32.721435547" lon="35.010177612">
  <ele>236.864502</ele>
  <time>2011-07-15T07:35:58Z</time>
  <speed>3.480000</speed>
</trkpt>
<trkpt lat="32.721469879" lon="35.010166168">
  <ele>236.262939</ele>
  <time>2011-07-15T07:35:59Z</time>
  <speed>3.340000</speed>
</trkpt>
<trkpt lat="32.721496582" lon="35.010158539">
  <ele>235.790283</ele>
  <time>2011-07-15T07:36:00Z</time>
  <speed>2.830000</speed>
</trkpt>
<trkpt lat="32.721523285" lon="35.010154724">
  <ele>235.344971</ele>
  <time>2011-07-15T07:36:01Z</time>
  <speed>2.860000</speed>
</trkpt>
<trkpt lat="32.721572876" lon="35.010143280">
  <ele>234.954346</ele>
  <time>2011-07-15T07:36:03Z</time>
  <speed>2.870000</speed>
</trkpt>
<trkpt lat="32.721603394" lon="35.010128021">
  <ele>234.485596</ele>
  <time>2011-07-15T07:36:04Z</time>
  <speed>3.480000</speed>
</trkpt>
<trkpt lat="32.721633911" lon="35.010108948">
  <ele>234.188721</ele>
  <time>2011-07-15T07:36:05Z</time>
  <speed>3.790000</speed>
</trkpt>
<trkpt lat="32.721664429" lon="35.010093689">
  <ele>233.282471</ele>
  <time>2011-07-15T07:36:06Z</time>
  <speed>3.540000</speed>
</trkpt>
<trkpt lat="32.721691132" lon="35.010082245">
  <ele>232.954346</ele>
  <time>2011-07-15T07:36:07Z</time>
  <speed>3.140000</speed>
</trkpt>
<trkpt lat="32.721717834" lon="35.010082245">
  <ele>232.512939</ele>
  <time>2011-07-15T07:36:08Z</time>
  <speed>3.060000</speed>
</trkpt>
<trkpt lat="32.721775055" lon="35.010078430">
  <ele>231.766846</ele>
  <time>2011-07-15T07:36:10Z</time>
  <speed>3.740000</speed>
</trkpt>
<trkpt lat="32.721813202" lon="35.010078430">
  <ele>231.364502</ele>
  <time>2011-07-15T07:36:11Z</time>
  <speed>4.160000</speed>
</trkpt>
<trkpt lat="32.721855164" lon="35.010074615">
  <ele>229.368408</ele>
  <time>2011-07-15T07:36:12Z</time>
  <speed>3.890000</speed>
</trkpt>
<trkpt lat="32.721889496" lon="35.010078430">
  <ele>228.805908</ele>
  <time>2011-07-15T07:36:13Z</time>
  <speed>3.780000</speed>
</trkpt>
<trkpt lat="32.721920013" lon="35.010074615">
  <ele>227.813721</ele>
  <time>2011-07-15T07:36:14Z</time>
  <speed>3.600000</speed>
</trkpt>
<trkpt lat="32.721958160" lon="35.010070801">
  <ele>226.282471</ele>
  <time>2011-07-15T07:36:15Z</time>
  <speed>3.800000</speed>
</trkpt>
<trkpt lat="32.721992493" lon="35.010063171">
  <ele>226.555908</ele>
  <time>2011-07-15T07:36:16Z</time>
  <speed>3.660000</speed>
</trkpt>
<trkpt lat="32.722030640" lon="35.010055542">
  <ele>224.966064</ele>
  <time>2011-07-15T07:36:17Z</time>
  <speed>3.410000</speed>
</trkpt>
<trkpt lat="32.722064972" lon="35.010047913">
  <ele>224.501221</ele>
  <time>2011-07-15T07:36:18Z</time>
  <speed>3.490000</speed>
</trkpt>
<trkpt lat="32.722103119" lon="35.010040283">
  <ele>223.575439</ele>
  <time>2011-07-15T07:36:19Z</time>
  <speed>3.560000</speed>
</trkpt>
<trkpt lat="32.722137451" lon="35.010028839">
  <ele>223.649658</ele>
  <time>2011-07-15T07:36:20Z</time>
  <speed>3.270000</speed>
</trkpt>
<trkpt lat="32.722187042" lon="35.010005951">
  <ele>224.075439</ele>
  <time>2011-07-15T07:36:22Z</time>
  <speed>2.520000</speed>
</trkpt>
<trkpt lat="32.722213745" lon="35.009994507">
  <ele>225.665283</ele>
  <time>2011-07-15T07:36:23Z</time>
  <speed>2.120000</speed>
</trkpt>
<trkpt lat="32.722248077" lon="35.009994507">
  <ele>225.208252</ele>
  <time>2011-07-15T07:36:25Z</time>
  <speed>1.540000</speed>
</trkpt>
<trkpt lat="32.722290039" lon="35.009986877">
  <ele>227.708252</ele>
  <time>2011-07-15T07:36:26Z</time>
  <speed>0.390000</speed>
</trkpt>
<trkpt lat="32.722320557" lon="35.009990692">
  <ele>229.927002</ele>
  <time>2011-07-15T07:36:28Z</time>
  <speed>0.440000</speed>
</trkpt>
<trkpt lat="32.722347260" lon="35.009990692">
  <ele>230.364502</ele>
  <time>2011-07-15T07:37:56Z</time>
</trkpt>
<trkpt lat="32.722328186" lon="35.010013580">
  <ele>230.274658</ele>
  <time>2011-07-15T07:44:07Z</time>
</trkpt>
<trkpt lat="32.722358704" lon="35.010021210">
  <ele>230.966064</ele>
  <time>2011-07-15T08:00:01Z</time>
  <speed>1.190000</speed>
</trkpt>
<trkpt lat="32.722389221" lon="35.010044098">
  <ele>229.356689</ele>
  <time>2011-07-15T08:00:03Z</time>
  <speed>2.250000</speed>
</trkpt>
<trkpt lat="32.722454071" lon="35.010044098">
  <ele>229.673096</ele>
  <time>2011-07-15T08:00:05Z</time>
  <speed>2.790000</speed>
</trkpt>
<trkpt lat="32.722484589" lon="35.010036469">
  <ele>228.942627</ele>
  <time>2011-07-15T08:00:06Z</time>
  <speed>3.210000</speed>
</trkpt>
<trkpt lat="32.722515106" lon="35.010009766">
  <ele>228.372314</ele>
  <time>2011-07-15T08:00:07Z</time>
  <speed>3.750000</speed>
</trkpt>
<trkpt lat="32.722549438" lon="35.009983063">
  <ele>227.833252</ele>
  <time>2011-07-15T08:00:08Z</time>
  <speed>4.490000</speed>
</trkpt>
<trkpt lat="32.722579956" lon="35.009952545">
  <ele>227.329346</ele>
  <time>2011-07-15T08:00:09Z</time>
  <speed>4.880000</speed>
</trkpt>
<trkpt lat="32.722618103" lon="35.009922028">
  <ele>226.833252</ele>
  <time>2011-07-15T08:00:10Z</time>
  <speed>5.100000</speed>
</trkpt>
<trkpt lat="32.722652435" lon="35.009880066">
  <ele>225.989502</ele>
  <time>2011-07-15T08:00:11Z</time>
  <speed>5.550000</speed>
</trkpt>
<trkpt lat="32.722702026" lon="35.009841919">
  <ele>224.989502</ele>
  <time>2011-07-15T08:00:12Z</time>
  <speed>5.740000</speed>
</trkpt>
<trkpt lat="32.722732544" lon="35.009788513">
  <ele>223.762939</ele>
  <time>2011-07-15T08:00:13Z</time>
  <speed>6.160000</speed>
</trkpt>
<trkpt lat="32.722766876" lon="35.009731293">
  <ele>222.637939</ele>
  <time>2011-07-15T08:00:14Z</time>
  <speed>6.300000</speed>
</trkpt>
<trkpt lat="32.722808838" lon="35.009677887">
  <ele>222.716064</ele>
  <time>2011-07-15T08:00:15Z</time>
  <speed>6.880000</speed>
</trkpt>
<trkpt lat="32.722858429" lon="35.009620667">
  <ele>222.188721</ele>
  <time>2011-07-15T08:00:16Z</time>
  <speed>7.130000</speed>
</trkpt>
<trkpt lat="32.722911835" lon="35.009574890">
  <ele>221.360596</ele>
  <time>2011-07-15T08:00:17Z</time>
  <speed>7.660000</speed>
</trkpt>
<trkpt lat="32.722976685" lon="35.009540558">
  <ele>220.555908</ele>
  <time>2011-07-15T08:00:18Z</time>
  <speed>7.350000</speed>
</trkpt>
<trkpt lat="32.723037720" lon="35.009521484">
  <ele>220.032471</ele>
  <time>2011-07-15T08:00:19Z</time>
  <speed>6.750000</speed>
</trkpt>
<trkpt lat="32.723094940" lon="35.009517670">
  <ele>218.669189</ele>
  <time>2011-07-15T08:00:20Z</time>
  <speed>5.870000</speed>
</trkpt>
<trkpt lat="32.723140717" lon="35.009510040">
  <ele>216.673096</ele>
  <time>2011-07-15T08:00:21Z</time>
  <speed>5.040000</speed>
</trkpt>
<trkpt lat="32.723190308" lon="35.009506226">
  <ele>216.040283</ele>
  <time>2011-07-15T08:00:22Z</time>
  <speed>4.180000</speed>
</trkpt>
<trkpt lat="32.723228455" lon="35.009502411">
  <ele>216.895752</ele>
  <time>2011-07-15T08:00:23Z</time>
  <speed>3.800000</speed>
</trkpt>
<trkpt lat="32.723255157" lon="35.009498596">
  <ele>217.387939</ele>
  <time>2011-07-15T08:00:24Z</time>
  <speed>2.790000</speed>
</trkpt>
<trkpt lat="32.723304749" lon="35.009510040">
  <ele>218.235596</ele>
  <time>2011-07-15T08:00:26Z</time>
  <speed>2.670000</speed>
</trkpt>
<trkpt lat="32.723354340" lon="35.009517670">
  <ele>220.141846</ele>
  <time>2011-07-15T08:00:28Z</time>
  <speed>2.490000</speed>
</trkpt>
<trkpt lat="32.723396301" lon="35.009521484">
  <ele>220.727783</ele>
  <time>2011-07-15T08:00:30Z</time>
  <speed>2.740000</speed>
</trkpt>
<trkpt lat="32.723438263" lon="35.009529114">
  <ele>221.329346</ele>
  <time>2011-07-15T08:00:32Z</time>
  <speed>2.410000</speed>
</trkpt>
<trkpt lat="32.723480225" lon="35.009529114">
  <ele>222.930908</ele>
  <time>2011-07-15T08:00:34Z</time>
  <speed>2.330000</speed>
</trkpt>
<trkpt lat="32.723526001" lon="35.009529114">
  <ele>222.887939</ele>
  <time>2011-07-15T08:00:36Z</time>
  <speed>1.950000</speed>
</trkpt>
<trkpt lat="32.723560333" lon="35.009510040">
  <ele>224.770752</ele>
  <time>2011-07-15T08:00:38Z</time>
  <speed>2.500000</speed>
</trkpt>
<trkpt lat="32.723587036" lon="35.009494781">
  <ele>224.516846</ele>
  <time>2011-07-15T08:00:39Z</time>
  <speed>2.550000</speed>
</trkpt>
<trkpt lat="32.723625183" lon="35.009460449">
  <ele>224.544189</ele>
  <time>2011-07-15T08:00:41Z</time>
  <speed>2.650000</speed>
</trkpt>
<trkpt lat="32.723663330" lon="35.009426117">
  <ele>224.610596</ele>
  <time>2011-07-15T08:00:43Z</time>
  <speed>3.170000</speed>
</trkpt>
<trkpt lat="32.723686218" lon="35.009407043">
  <ele>225.114502</ele>
  <time>2011-07-15T08:00:44Z</time>
  <speed>3.280000</speed>
</trkpt>
<trkpt lat="32.723709106" lon="35.009384155">
  <ele>225.501221</ele>
  <time>2011-07-15T08:00:45Z</time>
  <speed>3.440000</speed>
</trkpt>
<trkpt lat="32.723735809" lon="35.009361267">
  <ele>225.329346</ele>
  <time>2011-07-15T08:00:46Z</time>
  <speed>3.650000</speed>
</trkpt>
<trkpt lat="32.723762512" lon="35.009334564">
  <ele>225.516846</ele>
  <time>2011-07-15T08:00:47Z</time>
  <speed>4.010000</speed>
</trkpt>
<trkpt lat="32.723793030" lon="35.009307861">
  <ele>225.368408</ele>
  <time>2011-07-15T08:00:48Z</time>
  <speed>4.480000</speed>
</trkpt>
<trkpt lat="32.723819733" lon="35.009284973">
  <ele>224.309814</ele>
  <time>2011-07-15T08:00:49Z</time>
  <speed>4.150000</speed>
</trkpt>
<trkpt lat="32.723857880" lon="35.009262085">
  <ele>224.192627</ele>
  <time>2011-07-15T08:00:50Z</time>
  <speed>4.540000</speed>
</trkpt>
<trkpt lat="32.723892212" lon="35.009243011">
  <ele>224.083252</ele>
  <time>2011-07-15T08:00:51Z</time>
  <speed>4.270000</speed>
</trkpt>
<trkpt lat="32.723930359" lon="35.009227753">
  <ele>224.602783</ele>
  <time>2011-07-15T08:00:52Z</time>
  <speed>4.580000</speed>
</trkpt>
<trkpt lat="32.723972321" lon="35.009216309">
  <ele>224.684814</ele>
  <time>2011-07-15T08:00:53Z</time>
  <speed>4.510000</speed>
</trkpt>
<trkpt lat="32.724014282" lon="35.009212494">
  <ele>223.602783</ele>
  <time>2011-07-15T08:00:54Z</time>
  <speed>4.660000</speed>
</trkpt>
<trkpt lat="32.724060059" lon="35.009208679">
  <ele>223.098877</ele>
  <time>2011-07-15T08:00:55Z</time>
  <speed>4.700000</speed>
</trkpt>
<trkpt lat="32.724098206" lon="35.009193420">
  <ele>222.969971</ele>
  <time>2011-07-15T08:00:56Z</time>
  <speed>4.600000</speed>
</trkpt>
<trkpt lat="32.724132538" lon="35.009174347">
  <ele>222.364502</ele>
  <time>2011-07-15T08:00:57Z</time>
  <speed>4.600000</speed>
</trkpt>
<trkpt lat="32.724170685" lon="35.009159088">
  <ele>221.864502</ele>
  <time>2011-07-15T08:00:58Z</time>
  <speed>4.160000</speed>
</trkpt>
<trkpt lat="32.724205017" lon="35.009140015">
  <ele>221.684814</ele>
  <time>2011-07-15T08:00:59Z</time>
  <speed>4.350000</speed>
</trkpt>
<trkpt lat="32.724243164" lon="35.009117126">
  <ele>221.419189</ele>
  <time>2011-07-15T08:01:00Z</time>
  <speed>4.760000</speed>
</trkpt>
<trkpt lat="32.724285126" lon="35.009098053">
  <ele>220.673096</ele>
  <time>2011-07-15T08:01:01Z</time>
  <speed>4.230000</speed>
</trkpt>
<trkpt lat="32.724319458" lon="35.009094238">
  <ele>220.790283</ele>
  <time>2011-07-15T08:01:02Z</time>
  <speed>4.380000</speed>
</trkpt>
<trkpt lat="32.724365234" lon="35.009090424">
  <ele>221.305908</ele>
  <time>2011-07-15T08:01:03Z</time>
  <speed>4.640000</speed>
</trkpt>
<trkpt lat="32.724407196" lon="35.009082794">
  <ele>221.262939</ele>
  <time>2011-07-15T08:01:04Z</time>
  <speed>4.930000</speed>
</trkpt>
<trkpt lat="32.724456787" lon="35.009071350">
  <ele>220.716064</ele>
  <time>2011-07-15T08:01:05Z</time>
  <speed>5.030000</speed>
</trkpt>
<trkpt lat="32.724506378" lon="35.009059906">
  <ele>220.911377</ele>
  <time>2011-07-15T08:01:06Z</time>
  <speed>5.270000</speed>
</trkpt>
<trkpt lat="32.724559784" lon="35.009044647">
  <ele>222.216064</ele>
  <time>2011-07-15T08:01:07Z</time>
  <speed>5.520000</speed>
</trkpt>
<trkpt lat="32.724613190" lon="35.009029388">
  <ele>222.641846</ele>
  <time>2011-07-15T08:01:08Z</time>
  <speed>5.770000</speed>
</trkpt>
<trkpt lat="32.724666595" lon="35.009021759">
  <ele>223.149658</ele>
  <time>2011-07-15T08:01:09Z</time>
  <speed>6.070000</speed>
</trkpt>
<trkpt lat="32.724720001" lon="35.009006500">
  <ele>223.063721</ele>
  <time>2011-07-15T08:01:10Z</time>
  <speed>5.720000</speed>
</trkpt>
<trkpt lat="32.724765778" lon="35.008998871">
  <ele>222.548096</ele>
  <time>2011-07-15T08:01:11Z</time>
  <speed>5.380000</speed>
</trkpt>
<trkpt lat="32.724815369" lon="35.008991241">
  <ele>222.376221</ele>
  <time>2011-07-15T08:01:12Z</time>
  <speed>5.000000</speed>
</trkpt>
<trkpt lat="32.724857330" lon="35.008983612">
  <ele>222.028564</ele>
  <time>2011-07-15T08:01:13Z</time>
  <speed>4.380000</speed>
</trkpt>
<trkpt lat="32.724899292" lon="35.008975983">
  <ele>222.954346</ele>
  <time>2011-07-15T08:01:14Z</time>
  <speed>4.280000</speed>
</trkpt>
<trkpt lat="32.724937439" lon="35.008979797">
  <ele>222.743408</ele>
  <time>2011-07-15T08:01:15Z</time>
  <speed>4.210000</speed>
</trkpt>
<trkpt lat="32.724975586" lon="35.008979797">
  <ele>222.649658</ele>
  <time>2011-07-15T08:01:16Z</time>
  <speed>4.080000</speed>
</trkpt>
<trkpt lat="32.725017548" lon="35.008983612">
  <ele>222.438721</ele>
  <time>2011-07-15T08:01:17Z</time>
  <speed>3.880000</speed>
</trkpt>
<trkpt lat="32.725055695" lon="35.008983612">
  <ele>223.262939</ele>
  <time>2011-07-15T08:01:18Z</time>
  <speed>4.170000</speed>
</trkpt>
<trkpt lat="32.725101471" lon="35.008987427">
  <ele>224.368408</ele>
  <time>2011-07-15T08:01:19Z</time>
  <speed>4.330000</speed>
</trkpt>
<trkpt lat="32.725139618" lon="35.008995056">
  <ele>224.040283</ele>
  <time>2011-07-15T08:01:20Z</time>
  <speed>4.400000</speed>
</trkpt>
<trkpt lat="32.725181580" lon="35.008995056">
  <ele>224.196533</ele>
  <time>2011-07-15T08:01:21Z</time>
  <speed>4.100000</speed>
</trkpt>
<trkpt lat="32.725212097" lon="35.008991241">
  <ele>224.177002</ele>
  <time>2011-07-15T08:01:22Z</time>
  <speed>4.030000</speed>
</trkpt>
<trkpt lat="32.725250244" lon="35.008995056">
  <ele>224.462158</ele>
  <time>2011-07-15T08:01:23Z</time>
  <speed>4.250000</speed>
</trkpt>
<trkpt lat="32.725288391" lon="35.009010315">
  <ele>224.130127</ele>
  <time>2011-07-15T08:01:24Z</time>
  <speed>4.360000</speed>
</trkpt>
<trkpt lat="32.725322723" lon="35.009017944">
  <ele>224.591064</ele>
  <time>2011-07-15T08:01:25Z</time>
  <speed>4.310000</speed>
</trkpt>
<trkpt lat="32.725360870" lon="35.009025574">
  <ele>224.817627</ele>
  <time>2011-07-15T08:01:26Z</time>
  <speed>4.210000</speed>
</trkpt>
<trkpt lat="32.725402832" lon="35.009029388">
  <ele>225.380127</ele>
  <time>2011-07-15T08:01:27Z</time>
  <speed>4.220000</speed>
</trkpt>
<trkpt lat="32.725437164" lon="35.009037018">
  <ele>225.528564</ele>
  <time>2011-07-15T08:01:28Z</time>
  <speed>4.050000</speed>
</trkpt>
<trkpt lat="32.725471497" lon="35.009037018">
  <ele>225.973877</ele>
  <time>2011-07-15T08:01:29Z</time>
  <speed>4.060000</speed>
</trkpt>
<trkpt lat="32.725505829" lon="35.009044647">
  <ele>225.634033</ele>
  <time>2011-07-15T08:01:30Z</time>
  <speed>3.740000</speed>
</trkpt>
<trkpt lat="32.725540161" lon="35.009048462">
  <ele>226.110596</ele>
  <time>2011-07-15T08:01:31Z</time>
  <speed>3.600000</speed>
</trkpt>
<trkpt lat="32.725574493" lon="35.009048462">
  <ele>226.212158</ele>
  <time>2011-07-15T08:01:32Z</time>
  <speed>3.560000</speed>
</trkpt>
<trkpt lat="32.725605011" lon="35.009044647">
  <ele>226.438721</ele>
  <time>2011-07-15T08:01:33Z</time>
  <speed>3.850000</speed>
</trkpt>
<trkpt lat="32.725643158" lon="35.009052277">
  <ele>226.516846</ele>
  <time>2011-07-15T08:01:34Z</time>
  <speed>3.630000</speed>
</trkpt>
<trkpt lat="32.725677490" lon="35.009059906">
  <ele>227.192627</ele>
  <time>2011-07-15T08:01:35Z</time>
  <speed>3.580000</speed>
</trkpt>
<trkpt lat="32.725711823" lon="35.009063721">
  <ele>227.700439</ele>
  <time>2011-07-15T08:01:36Z</time>
  <speed>3.520000</speed>
</trkpt>
<trkpt lat="32.725742340" lon="35.009067535">
  <ele>228.227783</ele>
  <time>2011-07-15T08:01:37Z</time>
  <speed>3.460000</speed>
</trkpt>
<trkpt lat="32.725769043" lon="35.009071350">
  <ele>228.391846</ele>
  <time>2011-07-15T08:01:38Z</time>
  <speed>3.330000</speed>
</trkpt>
<trkpt lat="32.725795746" lon="35.009082794">
  <ele>228.469971</ele>
  <time>2011-07-15T08:01:39Z</time>
  <speed>3.510000</speed>
</trkpt>
<trkpt lat="32.725822449" lon="35.009094238">
  <ele>228.548096</ele>
  <time>2011-07-15T08:01:40Z</time>
  <speed>3.250000</speed>
</trkpt>
<trkpt lat="32.725849152" lon="35.009101868">
  <ele>228.161377</ele>
  <time>2011-07-15T08:01:41Z</time>
  <speed>2.930000</speed>
</trkpt>
<trkpt lat="32.725894928" lon="35.009128571">
  <ele>227.813721</ele>
  <time>2011-07-15T08:01:43Z</time>
  <speed>2.960000</speed>
</trkpt>
<trkpt lat="32.725914001" lon="35.009147644">
  <ele>226.817627</ele>
  <time>2011-07-15T08:01:44Z</time>
  <speed>2.720000</speed>
</trkpt>
<trkpt lat="32.725948334" lon="35.009170532">
  <ele>226.778564</ele>
  <time>2011-07-15T08:01:46Z</time>
  <speed>2.770000</speed>
</trkpt>
<trkpt lat="32.725982666" lon="35.009201050">
  <ele>227.286377</ele>
  <time>2011-07-15T08:01:48Z</time>
  <speed>2.330000</speed>
</trkpt>
<trkpt lat="32.726020813" lon="35.009227753">
  <ele>226.552002</ele>
  <time>2011-07-15T08:01:50Z</time>
  <speed>2.800000</speed>
</trkpt>
<trkpt lat="32.726062775" lon="35.009254456">
  <ele>225.122314</ele>
  <time>2011-07-15T08:01:52Z</time>
  <speed>2.610000</speed>
</trkpt>
<trkpt lat="32.726104736" lon="35.009273529">
  <ele>223.985596</ele>
  <time>2011-07-15T08:01:54Z</time>
  <speed>2.370000</speed>
</trkpt>
<trkpt lat="32.726142883" lon="35.009296417">
  <ele>223.524658</ele>
  <time>2011-07-15T08:01:56Z</time>
  <speed>2.410000</speed>
</trkpt>
<trkpt lat="32.726177216" lon="35.009319305">
  <ele>222.282471</ele>
  <time>2011-07-15T08:01:58Z</time>
  <speed>2.410000</speed>
</trkpt>
<trkpt lat="32.726215363" lon="35.009338379">
  <ele>220.868408</ele>
  <time>2011-07-15T08:02:00Z</time>
  <speed>2.570000</speed>
</trkpt>
<trkpt lat="32.726242065" lon="35.009361267">
  <ele>220.891846</ele>
  <time>2011-07-15T08:02:02Z</time>
  <speed>2.380000</speed>
</trkpt>
<trkpt lat="32.726276398" lon="35.009384155">
  <ele>220.368408</ele>
  <time>2011-07-15T08:02:04Z</time>
  <speed>2.220000</speed>
</trkpt>
<trkpt lat="32.726306915" lon="35.009410858">
  <ele>219.571533</ele>
  <time>2011-07-15T08:02:06Z</time>
  <speed>2.130000</speed>
</trkpt>
<trkpt lat="32.726341248" lon="35.009426117">
  <ele>220.173096</ele>
  <time>2011-07-15T08:02:08Z</time>
  <speed>2.020000</speed>
</trkpt>
<trkpt lat="32.726371765" lon="35.009445190">
  <ele>220.540283</ele>
  <time>2011-07-15T08:02:10Z</time>
  <speed>2.120000</speed>
</trkpt>
<trkpt lat="32.726409912" lon="35.009464264">
  <ele>221.501221</ele>
  <time>2011-07-15T08:02:12Z</time>
  <speed>2.210000</speed>
</trkpt>
<trkpt lat="32.726448059" lon="35.009483337">
  <ele>221.735596</ele>
  <time>2011-07-15T08:02:14Z</time>
  <speed>2.280000</speed>
</trkpt>
<trkpt lat="32.726482391" lon="35.009506226">
  <ele>222.313721</ele>
  <time>2011-07-15T08:02:16Z</time>
  <speed>2.390000</speed>
</trkpt>
<trkpt lat="32.726516724" lon="35.009529114">
  <ele>222.384033</ele>
  <time>2011-07-15T08:02:18Z</time>
  <speed>2.100000</speed>
</trkpt>
<trkpt lat="32.726558685" lon="35.009555817">
  <ele>222.469971</ele>
  <time>2011-07-15T08:02:20Z</time>
  <speed>2.140000</speed>
</trkpt>
<trkpt lat="32.726596832" lon="35.009567261">
  <ele>223.173096</ele>
  <time>2011-07-15T08:02:22Z</time>
  <speed>2.270000</speed>
</trkpt>
<trkpt lat="32.726623535" lon="35.009593964">
  <ele>222.372314</ele>
  <time>2011-07-15T08:02:24Z</time>
  <speed>2.240000</speed>
</trkpt>
<trkpt lat="32.726669312" lon="35.009609222">
  <ele>223.098877</ele>
  <time>2011-07-15T08:02:26Z</time>
  <speed>2.070000</speed>
</trkpt>
<trkpt lat="32.726703644" lon="35.009624481">
  <ele>223.454346</ele>
  <time>2011-07-15T08:02:28Z</time>
  <speed>1.990000</speed>
</trkpt>
<trkpt lat="32.726734161" lon="35.009647369">
  <ele>223.497314</ele>
  <time>2011-07-15T08:02:30Z</time>
  <speed>2.090000</speed>
</trkpt>
<trkpt lat="32.726764679" lon="35.009666443">
  <ele>223.649658</ele>
  <time>2011-07-15T08:02:32Z</time>
  <speed>2.010000</speed>
</trkpt>
<trkpt lat="32.726795197" lon="35.009693146">
  <ele>224.559814</ele>
  <time>2011-07-15T08:02:34Z</time>
  <speed>2.090000</speed>
</trkpt>
<trkpt lat="32.726829529" lon="35.009719849">
  <ele>224.438721</ele>
  <time>2011-07-15T08:02:36Z</time>
  <speed>2.060000</speed>
</trkpt>
<trkpt lat="32.726863861" lon="35.009742737">
  <ele>224.466064</ele>
  <time>2011-07-15T08:02:38Z</time>
  <speed>2.230000</speed>
</trkpt>
<trkpt lat="32.726894379" lon="35.009769440">
  <ele>224.864502</ele>
  <time>2011-07-15T08:02:40Z</time>
  <speed>2.000000</speed>
</trkpt>
<trkpt lat="32.726932526" lon="35.009792328">
  <ele>225.950439</ele>
  <time>2011-07-15T08:02:43Z</time>
  <speed>1.880000</speed>
</trkpt>
<trkpt lat="32.726963043" lon="35.009819031">
  <ele>225.743408</ele>
  <time>2011-07-15T08:02:45Z</time>
  <speed>2.120000</speed>
</trkpt>
<trkpt lat="32.726989746" lon="35.009845734">
  <ele>226.856689</ele>
  <time>2011-07-15T08:02:47Z</time>
  <speed>2.010000</speed>
</trkpt>
<trkpt lat="32.727012634" lon="35.009876251">
  <ele>227.930908</ele>
  <time>2011-07-15T08:02:49Z</time>
  <speed>1.970000</speed>
</trkpt>
<trkpt lat="32.727043152" lon="35.009906769">
  <ele>228.395752</ele>
  <time>2011-07-15T08:02:51Z</time>
  <speed>2.000000</speed>
</trkpt>
<trkpt lat="32.727066040" lon="35.009929657">
  <ele>228.938721</ele>
  <time>2011-07-15T08:02:52Z</time>
  <speed>2.250000</speed>
</trkpt>
<trkpt lat="32.727088928" lon="35.009960175">
  <ele>229.329346</ele>
  <time>2011-07-15T08:02:54Z</time>
  <speed>1.860000</speed>
</trkpt>
<trkpt lat="32.727108002" lon="35.010002136">
  <ele>229.930908</ele>
  <time>2011-07-15T08:02:56Z</time>
  <speed>2.000000</speed>
</trkpt>
<trkpt lat="32.727127075" lon="35.010036469">
  <ele>231.372314</ele>
  <time>2011-07-15T08:02:58Z</time>
  <speed>1.940000</speed>
</trkpt>
<trkpt lat="32.727149963" lon="35.010074615">
  <ele>232.493408</ele>
  <time>2011-07-15T08:03:00Z</time>
  <speed>1.840000</speed>
</trkpt>
<trkpt lat="32.727176666" lon="35.010105133">
  <ele>233.208252</ele>
  <time>2011-07-15T08:03:02Z</time>
  <speed>1.870000</speed>
</trkpt>
<trkpt lat="32.727195740" lon="35.010135651">
  <ele>233.630127</ele>
  <time>2011-07-15T08:03:04Z</time>
  <speed>2.120000</speed>
</trkpt>
<trkpt lat="32.727207184" lon="35.010177612">
  <ele>233.876221</ele>
  <time>2011-07-15T08:03:06Z</time>
  <speed>1.870000</speed>
</trkpt>
<trkpt lat="32.727237701" lon="35.010215759">
  <ele>235.864502</ele>
  <time>2011-07-15T08:03:08Z</time>
  <speed>1.980000</speed>
</trkpt>
<trkpt lat="32.727249146" lon="35.010253906">
  <ele>236.985596</ele>
  <time>2011-07-15T08:03:10Z</time>
  <speed>1.950000</speed>
</trkpt>
<trkpt lat="32.727268219" lon="35.010284424">
  <ele>237.528564</ele>
  <time>2011-07-15T08:03:12Z</time>
  <speed>2.060000</speed>
</trkpt>
<trkpt lat="32.727279663" lon="35.010326385">
  <ele>238.352783</ele>
  <time>2011-07-15T08:03:14Z</time>
  <speed>2.050000</speed>
</trkpt>
<trkpt lat="32.727298737" lon="35.010356903">
  <ele>239.157471</ele>
  <time>2011-07-15T08:03:16Z</time>
  <speed>1.960000</speed>
</trkpt>
<trkpt lat="32.727317810" lon="35.010387421">
  <ele>240.536377</ele>
  <time>2011-07-15T08:03:18Z</time>
  <speed>1.830000</speed>
</trkpt>
<trkpt lat="32.727333069" lon="35.010414124">
  <ele>241.700439</ele>
  <time>2011-07-15T08:03:20Z</time>
  <speed>1.640000</speed>
</trkpt>
<trkpt lat="32.727352142" lon="35.010437012">
  <ele>242.454346</ele>
  <time>2011-07-15T08:03:22Z</time>
  <speed>1.220000</speed>
</trkpt>
<trkpt lat="32.727378845" lon="35.010452271">
  <ele>242.512939</ele>
  <time>2011-07-15T08:03:24Z</time>
  <speed>1.070000</speed>
</trkpt>
<trkpt lat="32.727416992" lon="35.010459900">
  <ele>243.372314</ele>
  <time>2011-07-15T08:03:26Z</time>
  <speed>1.640000</speed>
</trkpt>
<trkpt lat="32.727451324" lon="35.010456085">
  <ele>243.122314</ele>
  <time>2011-07-15T08:03:28Z</time>
  <speed>1.720000</speed>
</trkpt>
<trkpt lat="32.727474213" lon="35.010433197">
  <ele>244.833252</ele>
  <time>2011-07-15T08:03:30Z</time>
  <speed>1.460000</speed>
</trkpt>
<trkpt lat="32.727504730" lon="35.010417938">
  <ele>244.755127</ele>
  <time>2011-07-15T08:03:32Z</time>
  <speed>1.760000</speed>
</trkpt>
<trkpt lat="32.727527618" lon="35.010398865">
  <ele>244.677002</ele>
  <time>2011-07-15T08:03:34Z</time>
  <speed>1.650000</speed>
</trkpt>
<trkpt lat="32.727554321" lon="35.010368347">
  <ele>245.719971</ele>
  <time>2011-07-15T08:03:36Z</time>
  <speed>1.360000</speed>
</trkpt>
<trkpt lat="32.727569580" lon="35.010341644">
  <ele>246.544189</ele>
  <time>2011-07-15T08:03:38Z</time>
  <speed>1.320000</speed>
</trkpt>
<trkpt lat="32.727592468" lon="35.010311127">
  <ele>247.134033</ele>
  <time>2011-07-15T08:03:41Z</time>
  <speed>1.500000</speed>
</trkpt>
<trkpt lat="32.727611542" lon="35.010284424">
  <ele>247.973877</ele>
  <time>2011-07-15T08:03:43Z</time>
  <speed>1.180000</speed>
</trkpt>
<trkpt lat="32.727645874" lon="35.010253906">
  <ele>248.266846</ele>
  <time>2011-07-15T08:03:46Z</time>
  <speed>1.350000</speed>
</trkpt>
<trkpt lat="32.727676392" lon="35.010234833">
  <ele>248.407471</ele>
  <time>2011-07-15T08:03:49Z</time>
  <speed>1.270000</speed>
</trkpt>
<trkpt lat="32.727703094" lon="35.010215759">
  <ele>249.497314</ele>
  <time>2011-07-15T08:03:51Z</time>
  <speed>1.230000</speed>
</trkpt>
<trkpt lat="32.727733612" lon="35.010200500">
  <ele>251.059814</ele>
  <time>2011-07-15T08:03:53Z</time>
  <speed>1.120000</speed>
</trkpt>
<trkpt lat="32.727756500" lon="35.010185242">
  <ele>252.610596</ele>
  <time>2011-07-15T08:03:55Z</time>
  <speed>1.300000</speed>
</trkpt>
<trkpt lat="32.727787018" lon="35.010177612">
  <ele>254.044189</ele>
  <time>2011-07-15T08:03:57Z</time>
  <speed>1.050000</speed>
</trkpt>
<trkpt lat="32.727821350" lon="35.010181427">
  <ele>254.704346</ele>
  <time>2011-07-15T08:04:00Z</time>
  <speed>1.290000</speed>
</trkpt>
<trkpt lat="32.727848053" lon="35.010185242">
  <ele>255.594971</ele>
  <time>2011-07-15T08:04:02Z</time>
  <speed>1.260000</speed>
</trkpt>
<trkpt lat="32.727870941" lon="35.010181427">
  <ele>256.799316</ele>
  <time>2011-07-15T08:04:04Z</time>
  <speed>1.190000</speed>
</trkpt>
<trkpt lat="32.727901459" lon="35.010181427">
  <ele>257.283691</ele>
  <time>2011-07-15T08:04:06Z</time>
  <speed>1.190000</speed>
</trkpt>
<trkpt lat="32.727931976" lon="35.010173798">
  <ele>258.400879</ele>
  <time>2011-07-15T08:04:09Z</time>
  <speed>1.190000</speed>
</trkpt>
<trkpt lat="32.727958679" lon="35.010154724">
  <ele>259.580566</ele>
  <time>2011-07-15T08:04:12Z</time>
  <speed>1.460000</speed>
</trkpt>
<trkpt lat="32.727985382" lon="35.010135651">
  <ele>259.557129</ele>
  <time>2011-07-15T08:04:14Z</time>
  <speed>1.460000</speed>
</trkpt>
<trkpt lat="32.728012085" lon="35.010105133">
  <ele>260.697754</ele>
  <time>2011-07-15T08:04:17Z</time>
  <speed>1.250000</speed>
</trkpt>
<trkpt lat="32.728034973" lon="35.010074615">
  <ele>262.182129</ele>
  <time>2011-07-15T08:04:19Z</time>
  <speed>1.090000</speed>
</trkpt>
<trkpt lat="32.728050232" lon="35.010044098">
  <ele>262.908691</ele>
  <time>2011-07-15T08:04:22Z</time>
  <speed>1.380000</speed>
</trkpt>
<trkpt lat="32.728054047" lon="35.010002136">
  <ele>263.885254</ele>
  <time>2011-07-15T08:04:25Z</time>
  <speed>1.160000</speed>
</trkpt>
<trkpt lat="32.728061676" lon="35.009967804">
  <ele>264.580566</ele>
  <time>2011-07-15T08:04:27Z</time>
  <speed>1.160000</speed>
</trkpt>
<trkpt lat="32.728057861" lon="35.009922028">
  <ele>264.682129</ele>
  <time>2011-07-15T08:04:30Z</time>
  <speed>1.260000</speed>
</trkpt>
<trkpt lat="32.728065491" lon="35.009891510">
  <ele>265.018066</ele>
  <time>2011-07-15T08:04:33Z</time>
  <speed>1.210000</speed>
</trkpt>
<trkpt lat="32.728057861" lon="35.009860992">
  <ele>264.447754</ele>
  <time>2011-07-15T08:04:35Z</time>
  <speed>0.980000</speed>
</trkpt>
<trkpt lat="32.728057861" lon="35.009826660">
  <ele>265.189941</ele>
  <time>2011-07-15T08:04:38Z</time>
  <speed>0.970000</speed>
</trkpt>
<trkpt lat="32.728057861" lon="35.009792328">
  <ele>265.979004</ele>
  <time>2011-07-15T08:04:40Z</time>
  <speed>1.250000</speed>
</trkpt>
<trkpt lat="32.728050232" lon="35.009750366">
  <ele>265.580566</ele>
  <time>2011-07-15T08:04:44Z</time>
  <speed>1.160000</speed>
</trkpt>
<trkpt lat="32.728042603" lon="35.009712219">
  <ele>265.900879</ele>
  <time>2011-07-15T08:04:46Z</time>
  <speed>1.310000</speed>
</trkpt>
<trkpt lat="32.728042603" lon="35.009674072">
  <ele>266.244629</ele>
  <time>2011-07-15T08:04:49Z</time>
  <speed>1.450000</speed>
</trkpt>
<trkpt lat="32.728034973" lon="35.009643555">
  <ele>266.885254</ele>
  <time>2011-07-15T08:04:51Z</time>
  <speed>1.470000</speed>
</trkpt>
<trkpt lat="32.728015900" lon="35.009609222">
  <ele>267.025879</ele>
  <time>2011-07-15T08:04:54Z</time>
  <speed>1.320000</speed>
</trkpt>
<trkpt lat="32.728004456" lon="35.009574890">
  <ele>266.838379</ele>
  <time>2011-07-15T08:04:57Z</time>
  <speed>1.320000</speed>
</trkpt>
<trkpt lat="32.727996826" lon="35.009532928">
  <ele>266.752441</ele>
  <time>2011-07-15T08:05:00Z</time>
  <speed>1.170000</speed>
</trkpt>
<trkpt lat="32.727981567" lon="35.009498596">
  <ele>266.174316</ele>
  <time>2011-07-15T08:05:03Z</time>
  <speed>1.350000</speed>
</trkpt>
<trkpt lat="32.727977753" lon="35.009468079">
  <ele>265.783691</ele>
  <time>2011-07-15T08:05:05Z</time>
  <speed>1.230000</speed>
</trkpt>
<trkpt lat="32.727977753" lon="35.009433746">
  <ele>266.455566</ele>
  <time>2011-07-15T08:05:07Z</time>
  <speed>1.320000</speed>
</trkpt>
<trkpt lat="32.727970123" lon="35.009403229">
  <ele>267.041504</ele>
  <time>2011-07-15T08:05:09Z</time>
  <speed>1.370000</speed>
</trkpt>
<trkpt lat="32.727958679" lon="35.009372711">
  <ele>267.393066</ele>
  <time>2011-07-15T08:05:11Z</time>
  <speed>1.320000</speed>
</trkpt>
<trkpt lat="32.727951050" lon="35.009338379">
  <ele>266.932129</ele>
  <time>2011-07-15T08:05:13Z</time>
  <speed>1.090000</speed>
</trkpt>
<trkpt lat="32.727966309" lon="35.009300232">
  <ele>267.119629</ele>
  <time>2011-07-15T08:05:16Z</time>
  <speed>1.460000</speed>
</trkpt>
<trkpt lat="32.727970123" lon="35.009262085">
  <ele>267.205566</ele>
  <time>2011-07-15T08:05:19Z</time>
  <speed>1.100000</speed>
</trkpt>
<trkpt lat="32.727981567" lon="35.009227753">
  <ele>266.939941</ele>
  <time>2011-07-15T08:05:22Z</time>
  <speed>1.460000</speed>
</trkpt>
<trkpt lat="32.727985382" lon="35.009181976">
  <ele>267.752441</ele>
  <time>2011-07-15T08:05:25Z</time>
  <speed>1.220000</speed>
</trkpt>
<trkpt lat="32.727996826" lon="35.009136200">
  <ele>267.736816</ele>
  <time>2011-07-15T08:05:28Z</time>
  <speed>1.440000</speed>
</trkpt>
<trkpt lat="32.728004456" lon="35.009090424">
  <ele>267.119629</ele>
  <time>2011-07-15T08:05:31Z</time>
  <speed>1.410000</speed>
</trkpt>
<trkpt lat="32.728008270" lon="35.009059906">
  <ele>267.205566</ele>
  <time>2011-07-15T08:05:33Z</time>
  <speed>1.520000</speed>
</trkpt>
<trkpt lat="32.728019714" lon="35.009021759">
  <ele>267.979004</ele>
  <time>2011-07-15T08:05:36Z</time>
  <speed>1.510000</speed>
</trkpt>
<trkpt lat="32.728031158" lon="35.008979797">
  <ele>268.494629</ele>
  <time>2011-07-15T08:05:39Z</time>
  <speed>1.400000</speed>
</trkpt>
<trkpt lat="32.728034973" lon="35.008937836">
  <ele>270.260254</ele>
  <time>2011-07-15T08:05:42Z</time>
  <speed>1.290000</speed>
</trkpt>
<trkpt lat="32.728038788" lon="35.008903503">
  <ele>271.268066</ele>
  <time>2011-07-15T08:05:44Z</time>
  <speed>1.380000</speed>
</trkpt>
<trkpt lat="32.728042603" lon="35.008865356">
  <ele>272.018066</ele>
  <time>2011-07-15T08:05:46Z</time>
  <speed>1.600000</speed>
</trkpt>
<trkpt lat="32.728042603" lon="35.008823395">
  <ele>272.846191</ele>
  <time>2011-07-15T08:05:48Z</time>
  <speed>1.480000</speed>
</trkpt>
<trkpt lat="32.728050232" lon="35.008789063">
  <ele>273.424316</ele>
  <time>2011-07-15T08:05:51Z</time>
  <speed>1.360000</speed>
</trkpt>
<trkpt lat="32.728061676" lon="35.008747101">
  <ele>273.525879</ele>
  <time>2011-07-15T08:05:54Z</time>
  <speed>1.260000</speed>
</trkpt>
<trkpt lat="32.728054047" lon="35.008701324">
  <ele>274.549316</ele>
  <time>2011-07-15T08:05:57Z</time>
  <speed>1.200000</speed>
</trkpt>
<trkpt lat="32.728057861" lon="35.008670807">
  <ele>274.549316</ele>
  <time>2011-07-15T08:05:59Z</time>
  <speed>1.300000</speed>
</trkpt>
<trkpt lat="32.728061676" lon="35.008625031">
  <ele>275.510254</ele>
  <time>2011-07-15T08:06:03Z</time>
  <speed>1.270000</speed>
</trkpt>
<trkpt lat="32.728057861" lon="35.008594513">
  <ele>276.580566</ele>
  <time>2011-07-15T08:06:05Z</time>
  <speed>1.340000</speed>
</trkpt>
<trkpt lat="32.728054047" lon="35.008552551">
  <ele>277.268066</ele>
  <time>2011-07-15T08:06:08Z</time>
  <speed>1.360000</speed>
</trkpt>
<trkpt lat="32.728054047" lon="35.008522034">
  <ele>277.143066</ele>
  <time>2011-07-15T08:06:10Z</time>
  <speed>1.460000</speed>
</trkpt>
<trkpt lat="32.728050232" lon="35.008476257">
  <ele>277.971191</ele>
  <time>2011-07-15T08:06:13Z</time>
  <speed>1.370000</speed>
</trkpt>
<trkpt lat="32.728046417" lon="35.008441925">
  <ele>278.549316</ele>
  <time>2011-07-15T08:06:15Z</time>
  <speed>1.280000</speed>
</trkpt>
<trkpt lat="32.728054047" lon="35.008407593">
  <ele>279.322754</ele>
  <time>2011-07-15T08:06:18Z</time>
  <speed>1.410000</speed>
</trkpt>
<trkpt lat="32.728054047" lon="35.008373260">
  <ele>279.455566</ele>
  <time>2011-07-15T08:06:20Z</time>
  <speed>1.240000</speed>
</trkpt>
<trkpt lat="32.728046417" lon="35.008327484">
  <ele>279.533691</ele>
  <time>2011-07-15T08:06:23Z</time>
  <speed>1.060000</speed>
</trkpt>
<trkpt lat="32.728050232" lon="35.008293152">
  <ele>280.072754</ele>
  <time>2011-07-15T08:06:26Z</time>
  <speed>1.440000</speed>
</trkpt>
<trkpt lat="32.728054047" lon="35.008251190">
  <ele>280.439941</ele>
  <time>2011-07-15T08:06:29Z</time>
  <speed>1.310000</speed>
</trkpt>
<trkpt lat="32.728057861" lon="35.008216858">
  <ele>280.682129</ele>
  <time>2011-07-15T08:06:32Z</time>
  <speed>1.200000</speed>
</trkpt>
<trkpt lat="32.728057861" lon="35.008178711">
  <ele>280.439941</ele>
  <time>2011-07-15T08:06:35Z</time>
  <speed>1.350000</speed>
</trkpt>
<trkpt lat="32.728065491" lon="35.008140564">
  <ele>280.400879</ele>
  <time>2011-07-15T08:06:38Z</time>
  <speed>1.360000</speed>
</trkpt>
<trkpt lat="32.728065491" lon="35.008094788">
  <ele>280.861816</ele>
  <time>2011-07-15T08:06:41Z</time>
  <speed>1.420000</speed>
</trkpt>
<trkpt lat="32.728065491" lon="35.008060455">
  <ele>281.236816</ele>
  <time>2011-07-15T08:06:43Z</time>
  <speed>1.740000</speed>
</trkpt>
<trkpt lat="32.728069305" lon="35.008018494">
  <ele>282.432129</ele>
  <time>2011-07-15T08:06:46Z</time>
  <speed>1.380000</speed>
</trkpt>
<trkpt lat="32.728069305" lon="35.007972717">
  <ele>283.627441</ele>
  <time>2011-07-15T08:06:49Z</time>
  <speed>1.560000</speed>
</trkpt>
<trkpt lat="32.728065491" lon="35.007930756">
  <ele>283.424316</ele>
  <time>2011-07-15T08:06:51Z</time>
  <speed>1.680000</speed>
</trkpt>
<trkpt lat="32.728061676" lon="35.007888794">
  <ele>283.932129</ele>
  <time>2011-07-15T08:06:54Z</time>
  <speed>1.580000</speed>
</trkpt>
<trkpt lat="32.728061676" lon="35.007854462">
  <ele>284.416504</ele>
  <time>2011-07-15T08:06:56Z</time>
  <speed>1.810000</speed>
</trkpt>
<trkpt lat="32.728057861" lon="35.007812500">
  <ele>284.463379</ele>
  <time>2011-07-15T08:06:58Z</time>
  <speed>1.650000</speed>
</trkpt>
<trkpt lat="32.728057861" lon="35.007778168">
  <ele>284.908691</ele>
  <time>2011-07-15T08:07:00Z</time>
  <speed>1.620000</speed>
</trkpt>
<trkpt lat="32.728054047" lon="35.007732391">
  <ele>284.143066</ele>
  <time>2011-07-15T08:07:02Z</time>
  <speed>1.630000</speed>
</trkpt>
<trkpt lat="32.728057861" lon="35.007698059">
  <ele>284.760254</ele>
  <time>2011-07-15T08:07:04Z</time>
  <speed>1.370000</speed>
</trkpt>
<trkpt lat="32.728050232" lon="35.007656097">
  <ele>284.986816</ele>
  <time>2011-07-15T08:07:07Z</time>
  <speed>1.370000</speed>
</trkpt>
<trkpt lat="32.728042603" lon="35.007614136">
  <ele>285.354004</ele>
  <time>2011-07-15T08:07:09Z</time>
  <speed>1.990000</speed>
</trkpt>
<trkpt lat="32.728034973" lon="35.007572174">
  <ele>284.916504</ele>
  <time>2011-07-15T08:07:11Z</time>
  <speed>2.300000</speed>
</trkpt>
<trkpt lat="32.728027344" lon="35.007514954">
  <ele>284.791504</ele>
  <time>2011-07-15T08:07:13Z</time>
  <speed>2.730000</speed>
</trkpt>
<trkpt lat="32.728012085" lon="35.007450104">
  <ele>284.854004</ele>
  <time>2011-07-15T08:07:15Z</time>
  <speed>3.080000</speed>
</trkpt>
<trkpt lat="32.728004456" lon="35.007419586">
  <ele>284.564941</ele>
  <time>2011-07-15T08:07:16Z</time>
  <speed>2.770000</speed>
</trkpt>
<trkpt lat="32.728000641" lon="35.007385254">
  <ele>284.252441</ele>
  <time>2011-07-15T08:07:17Z</time>
  <speed>3.200000</speed>
</trkpt>
<trkpt lat="32.727989197" lon="35.007354736">
  <ele>283.564941</ele>
  <time>2011-07-15T08:07:18Z</time>
  <speed>3.310000</speed>
</trkpt>
<trkpt lat="32.727977753" lon="35.007320404">
  <ele>283.689941</ele>
  <time>2011-07-15T08:07:19Z</time>
  <speed>3.230000</speed>
</trkpt>
<trkpt lat="32.727966309" lon="35.007289886">
  <ele>283.244629</ele>
  <time>2011-07-15T08:07:20Z</time>
  <speed>3.320000</speed>
</trkpt>
<trkpt lat="32.727954865" lon="35.007255554">
  <ele>283.307129</ele>
  <time>2011-07-15T08:07:21Z</time>
  <speed>3.280000</speed>
</trkpt>
<trkpt lat="32.727947235" lon="35.007225037">
  <ele>283.104004</ele>
  <time>2011-07-15T08:07:22Z</time>
  <speed>2.910000</speed>
</trkpt>
<trkpt lat="32.727935791" lon="35.007194519">
  <ele>283.002441</ele>
  <time>2011-07-15T08:07:23Z</time>
  <speed>2.860000</speed>
</trkpt>
<trkpt lat="32.727916718" lon="35.007133484">
  <ele>282.471191</ele>
  <time>2011-07-15T08:07:25Z</time>
  <speed>2.740000</speed>
</trkpt>
<trkpt lat="32.727897644" lon="35.007076263">
  <ele>282.510254</ele>
  <time>2011-07-15T08:07:27Z</time>
  <speed>2.770000</speed>
</trkpt>
<trkpt lat="32.727886200" lon="35.007049561">
  <ele>282.760254</ele>
  <time>2011-07-15T08:07:28Z</time>
  <speed>2.650000</speed>
</trkpt>
<trkpt lat="32.727870941" lon="35.006996155">
  <ele>282.002441</ele>
  <time>2011-07-15T08:07:30Z</time>
  <speed>2.820000</speed>
</trkpt>
<trkpt lat="32.727855682" lon="35.006931305">
  <ele>281.252441</ele>
  <time>2011-07-15T08:07:32Z</time>
  <speed>2.910000</speed>
</trkpt>
<trkpt lat="32.727840424" lon="35.006885529">
  <ele>281.041504</ele>
  <time>2011-07-15T08:07:34Z</time>
  <speed>2.350000</speed>
</trkpt>
<trkpt lat="32.727828979" lon="35.006847382">
  <ele>280.994629</ele>
  <time>2011-07-15T08:07:36Z</time>
  <speed>2.270000</speed>
</trkpt>
<trkpt lat="32.727821350" lon="35.006793976">
  <ele>281.025879</ele>
  <time>2011-07-15T08:07:38Z</time>
  <speed>2.600000</speed>
</trkpt>
<trkpt lat="32.727806091" lon="35.006740570">
  <ele>280.893066</ele>
  <time>2011-07-15T08:07:40Z</time>
  <speed>2.920000</speed>
</trkpt>
<trkpt lat="32.727794647" lon="35.006683350">
  <ele>281.119629</ele>
  <time>2011-07-15T08:07:42Z</time>
  <speed>2.680000</speed>
</trkpt>
<trkpt lat="32.727779388" lon="35.006633759">
  <ele>280.650879</ele>
  <time>2011-07-15T08:07:44Z</time>
  <speed>2.560000</speed>
</trkpt>
<trkpt lat="32.727767944" lon="35.006591797">
  <ele>281.143066</ele>
  <time>2011-07-15T08:07:46Z</time>
  <speed>2.080000</speed>
</trkpt>
<trkpt lat="32.727745056" lon="35.006549835">
  <ele>281.416504</ele>
  <time>2011-07-15T08:07:48Z</time>
  <speed>2.470000</speed>
</trkpt>
<trkpt lat="32.727725983" lon="35.006519318">
  <ele>281.666504</ele>
  <time>2011-07-15T08:07:50Z</time>
  <speed>2.290000</speed>
</trkpt>
<trkpt lat="32.727703094" lon="35.006481171">
  <ele>282.830566</ele>
  <time>2011-07-15T08:07:52Z</time>
  <speed>2.460000</speed>
</trkpt>
<trkpt lat="32.727684021" lon="35.006454468">
  <ele>283.369629</ele>
  <time>2011-07-15T08:07:53Z</time>
  <speed>2.160000</speed>
</trkpt>
<trkpt lat="32.727649689" lon="35.006423950">
  <ele>283.908691</ele>
  <time>2011-07-15T08:07:55Z</time>
  <speed>2.390000</speed>
</trkpt>
<trkpt lat="32.727611542" lon="35.006408691">
  <ele>284.830566</ele>
  <time>2011-07-15T08:07:57Z</time>
  <speed>2.400000</speed>
</trkpt>
<trkpt lat="32.727573395" lon="35.006393433">
  <ele>285.502441</ele>
  <time>2011-07-15T08:07:59Z</time>
  <speed>2.280000</speed>
</trkpt>
<trkpt lat="32.727546692" lon="35.006381989">
  <ele>286.221191</ele>
  <time>2011-07-15T08:08:00Z</time>
  <speed>2.390000</speed>
</trkpt>
<trkpt lat="32.727508545" lon="35.006366730">
  <ele>286.705566</ele>
  <time>2011-07-15T08:08:02Z</time>
  <speed>1.840000</speed>
</trkpt>
<trkpt lat="32.727474213" lon="35.006359100">
  <ele>287.916504</ele>
  <time>2011-07-15T08:08:04Z</time>
  <speed>1.780000</speed>
</trkpt>
<trkpt lat="32.727443695" lon="35.006343842">
  <ele>288.447754</ele>
  <time>2011-07-15T08:08:06Z</time>
  <speed>1.870000</speed>
</trkpt>
<trkpt lat="32.727409363" lon="35.006317139">
  <ele>288.494629</ele>
  <time>2011-07-15T08:08:08Z</time>
  <speed>2.380000</speed>
</trkpt>
<trkpt lat="32.727371216" lon="35.006294250">
  <ele>288.979004</ele>
  <time>2011-07-15T08:08:10Z</time>
  <speed>2.080000</speed>
</trkpt>
<trkpt lat="32.727340698" lon="35.006256104">
  <ele>289.338379</ele>
  <time>2011-07-15T08:08:12Z</time>
  <speed>2.180000</speed>
</trkpt>
<trkpt lat="32.727317810" lon="35.006214142">
  <ele>289.635254</ele>
  <time>2011-07-15T08:08:14Z</time>
  <speed>2.260000</speed>
</trkpt>
<trkpt lat="32.727310181" lon="35.006164551">
  <ele>288.627441</ele>
  <time>2011-07-15T08:08:16Z</time>
  <speed>2.250000</speed>
</trkpt>
<trkpt lat="32.727306366" lon="35.006111145">
  <ele>287.627441</ele>
  <time>2011-07-15T08:08:18Z</time>
  <speed>2.590000</speed>
</trkpt>
<trkpt lat="32.727298737" lon="35.006076813">
  <ele>286.963379</ele>
  <time>2011-07-15T08:08:19Z</time>
  <speed>2.660000</speed>
</trkpt>
<trkpt lat="32.727283478" lon="35.006015778">
  <ele>286.729004</ele>
  <time>2011-07-15T08:08:21Z</time>
  <speed>3.290000</speed>
</trkpt>
<trkpt lat="32.727283478" lon="35.005981445">
  <ele>286.174316</ele>
  <time>2011-07-15T08:08:22Z</time>
  <speed>3.400000</speed>
</trkpt>
<trkpt lat="32.727275848" lon="35.005943298">
  <ele>285.768066</ele>
  <time>2011-07-15T08:08:23Z</time>
  <speed>4.050000</speed>
</trkpt>
<trkpt lat="32.727272034" lon="35.005886078">
  <ele>284.549316</ele>
  <time>2011-07-15T08:08:24Z</time>
  <speed>5.160000</speed>
</trkpt>
<trkpt lat="32.727268219" lon="35.005825043">
  <ele>283.846191</ele>
  <time>2011-07-15T08:08:25Z</time>
  <speed>5.810000</speed>
</trkpt>
<trkpt lat="32.727272034" lon="35.005756378">
  <ele>283.549316</ele>
  <time>2011-07-15T08:08:26Z</time>
  <speed>6.830000</speed>
</trkpt>
<trkpt lat="32.727279663" lon="35.005680084">
  <ele>283.768066</ele>
  <time>2011-07-15T08:08:27Z</time>
  <speed>6.980000</speed>
</trkpt>
<trkpt lat="32.727291107" lon="35.005607605">
  <ele>283.463379</ele>
  <time>2011-07-15T08:08:28Z</time>
  <speed>6.550000</speed>
</trkpt>
<trkpt lat="32.727306366" lon="35.005546570">
  <ele>283.439941</ele>
  <time>2011-07-15T08:08:29Z</time>
  <speed>6.070000</speed>
</trkpt>
<trkpt lat="32.727321625" lon="35.005489349">
  <ele>283.416504</ele>
  <time>2011-07-15T08:08:30Z</time>
  <speed>5.340000</speed>
</trkpt>
<trkpt lat="32.727333069" lon="35.005432129">
  <ele>283.416504</ele>
  <time>2011-07-15T08:08:31Z</time>
  <speed>4.920000</speed>
</trkpt>
<trkpt lat="32.727344513" lon="35.005382538">
  <ele>282.955566</ele>
  <time>2011-07-15T08:08:32Z</time>
  <speed>4.140000</speed>
</trkpt>
<trkpt lat="32.727352142" lon="35.005348206">
  <ele>283.564941</ele>
  <time>2011-07-15T08:08:33Z</time>
  <speed>3.690000</speed>
</trkpt>
<trkpt lat="32.727359772" lon="35.005310059">
  <ele>283.244629</ele>
  <time>2011-07-15T08:08:34Z</time>
  <speed>3.010000</speed>
</trkpt>
<trkpt lat="32.727359772" lon="35.005249023">
  <ele>283.666504</ele>
  <time>2011-07-15T08:08:36Z</time>
  <speed>2.680000</speed>
</trkpt>
<trkpt lat="32.727359772" lon="35.005199432">
  <ele>284.799316</ele>
  <time>2011-07-15T08:08:38Z</time>
  <speed>2.010000</speed>
</trkpt>
<trkpt lat="32.727352142" lon="35.005146027">
  <ele>284.979004</ele>
  <time>2011-07-15T08:08:40Z</time>
  <speed>1.970000</speed>
</trkpt>
<trkpt lat="32.727344513" lon="35.005100250">
  <ele>285.260254</ele>
  <time>2011-07-15T08:08:42Z</time>
  <speed>2.070000</speed>
</trkpt>
<trkpt lat="32.727340698" lon="35.005062103">
  <ele>286.002441</ele>
  <time>2011-07-15T08:08:44Z</time>
  <speed>2.040000</speed>
</trkpt>
<trkpt lat="32.727336884" lon="35.005020142">
  <ele>285.611816</ele>
  <time>2011-07-15T08:08:46Z</time>
  <speed>2.060000</speed>
</trkpt>
<trkpt lat="32.727336884" lon="35.004978180">
  <ele>287.658691</ele>
  <time>2011-07-15T08:08:48Z</time>
  <speed>1.850000</speed>
</trkpt>
<trkpt lat="32.727336884" lon="35.004940033">
  <ele>288.314941</ele>
  <time>2011-07-15T08:08:50Z</time>
  <speed>2.140000</speed>
</trkpt>
<trkpt lat="32.727329254" lon="35.004898071">
  <ele>288.689941</ele>
  <time>2011-07-15T08:08:52Z</time>
  <speed>1.990000</speed>
</trkpt>
<trkpt lat="32.727325439" lon="35.004856110">
  <ele>288.525879</ele>
  <time>2011-07-15T08:08:54Z</time>
  <speed>1.960000</speed>
</trkpt>
<trkpt lat="32.727325439" lon="35.004810333">
  <ele>287.721191</ele>
  <time>2011-07-15T08:08:56Z</time>
  <speed>1.950000</speed>
</trkpt>
<trkpt lat="32.727325439" lon="35.004772186">
  <ele>287.760254</ele>
  <time>2011-07-15T08:08:58Z</time>
  <speed>1.880000</speed>
</trkpt>
<trkpt lat="32.727329254" lon="35.004734039">
  <ele>289.072754</ele>
  <time>2011-07-15T08:09:00Z</time>
  <speed>1.900000</speed>
</trkpt>
<trkpt lat="32.727329254" lon="35.004695892">
  <ele>289.369629</ele>
  <time>2011-07-15T08:09:02Z</time>
  <speed>1.750000</speed>
</trkpt>
<trkpt lat="32.727329254" lon="35.004657745">
  <ele>290.760254</ele>
  <time>2011-07-15T08:09:04Z</time>
  <speed>2.110000</speed>
</trkpt>
<trkpt lat="32.727325439" lon="35.004615784">
  <ele>291.666504</ele>
  <time>2011-07-15T08:09:06Z</time>
  <speed>1.890000</speed>
</trkpt>
<trkpt lat="32.727321625" lon="35.004573822">
  <ele>291.338379</ele>
  <time>2011-07-15T08:09:08Z</time>
  <speed>1.830000</speed>
</trkpt>
<trkpt lat="32.727321625" lon="35.004535675">
  <ele>292.236816</ele>
  <time>2011-07-15T08:09:10Z</time>
  <speed>1.890000</speed>
</trkpt>
<trkpt lat="32.727310181" lon="35.004493713">
  <ele>292.049316</ele>
  <time>2011-07-15T08:09:12Z</time>
  <speed>1.850000</speed>
</trkpt>
<trkpt lat="32.727310181" lon="35.004455566">
  <ele>292.494629</ele>
  <time>2011-07-15T08:09:14Z</time>
  <speed>1.990000</speed>
</trkpt>
<trkpt lat="32.727310181" lon="35.004413605">
  <ele>292.752441</ele>
  <time>2011-07-15T08:09:16Z</time>
  <speed>1.960000</speed>
</trkpt>
<trkpt lat="32.727310181" lon="35.004375458">
  <ele>292.932129</ele>
  <time>2011-07-15T08:09:18Z</time>
  <speed>1.750000</speed>
</trkpt>
<trkpt lat="32.727306366" lon="35.004333496">
  <ele>292.713379</ele>
  <time>2011-07-15T08:09:20Z</time>
  <speed>1.910000</speed>
</trkpt>
<trkpt lat="32.727302551" lon="35.004299164">
  <ele>292.885254</ele>
  <time>2011-07-15T08:09:22Z</time>
  <speed>1.840000</speed>
</trkpt>
<trkpt lat="32.727302551" lon="35.004261017">
  <ele>292.932129</ele>
  <time>2011-07-15T08:09:24Z</time>
  <speed>1.810000</speed>
</trkpt>
<trkpt lat="32.727298737" lon="35.004211426">
  <ele>293.338379</ele>
  <time>2011-07-15T08:09:27Z</time>
  <speed>1.750000</speed>
</trkpt>
<trkpt lat="32.727298737" lon="35.004165649">
  <ele>293.166504</ele>
  <time>2011-07-15T08:09:29Z</time>
  <speed>1.810000</speed>
</trkpt>
<trkpt lat="32.727294922" lon="35.004123688">
  <ele>293.025879</ele>
  <time>2011-07-15T08:09:31Z</time>
  <speed>1.820000</speed>
</trkpt>
<trkpt lat="32.727291107" lon="35.004074097">
  <ele>293.283691</ele>
  <time>2011-07-15T08:09:34Z</time>
  <speed>1.840000</speed>
</trkpt>
<trkpt lat="32.727291107" lon="35.004039764">
  <ele>293.947754</ele>
  <time>2011-07-15T08:09:36Z</time>
  <speed>1.710000</speed>
</trkpt>
<trkpt lat="32.727294922" lon="35.004005432">
  <ele>294.088379</ele>
  <time>2011-07-15T08:09:38Z</time>
  <speed>1.720000</speed>
</trkpt>
<trkpt lat="32.727302551" lon="35.003963470">
  <ele>294.252441</ele>
  <time>2011-07-15T08:09:40Z</time>
  <speed>1.730000</speed>
</trkpt>
<trkpt lat="32.727294922" lon="35.003932953">
  <ele>294.174316</ele>
  <time>2011-07-15T08:09:42Z</time>
  <speed>1.650000</speed>
</trkpt>
<trkpt lat="32.727287292" lon="35.003883362">
  <ele>293.900879</ele>
  <time>2011-07-15T08:09:45Z</time>
  <speed>2.090000</speed>
</trkpt>
<trkpt lat="32.727275848" lon="35.003833771">
  <ele>293.908691</ele>
  <time>2011-07-15T08:09:47Z</time>
  <speed>2.210000</speed>
</trkpt>
<trkpt lat="32.727268219" lon="35.003784180">
  <ele>294.033691</ele>
  <time>2011-07-15T08:09:49Z</time>
  <speed>2.340000</speed>
</trkpt>
<trkpt lat="32.727256775" lon="35.003730774">
  <ele>294.166504</ele>
  <time>2011-07-15T08:09:51Z</time>
  <speed>2.360000</speed>
</trkpt>
<trkpt lat="32.727245331" lon="35.003684998">
  <ele>293.236816</ele>
  <time>2011-07-15T08:09:53Z</time>
  <speed>2.450000</speed>
</trkpt>
<trkpt lat="32.727233887" lon="35.003631592">
  <ele>292.893066</ele>
  <time>2011-07-15T08:09:55Z</time>
  <speed>2.330000</speed>
</trkpt>
<trkpt lat="32.727226257" lon="35.003585815">
  <ele>293.916504</ele>
  <time>2011-07-15T08:09:57Z</time>
  <speed>2.340000</speed>
</trkpt>
<trkpt lat="32.727218628" lon="35.003540039">
  <ele>293.002441</ele>
  <time>2011-07-15T08:09:59Z</time>
  <speed>1.770000</speed>
</trkpt>
<trkpt lat="32.727214813" lon="35.003498077">
  <ele>292.572754</ele>
  <time>2011-07-15T08:10:01Z</time>
  <speed>2.090000</speed>
</trkpt>
<trkpt lat="32.727210999" lon="35.003452301">
  <ele>292.955566</ele>
  <time>2011-07-15T08:10:03Z</time>
  <speed>2.200000</speed>
</trkpt>
<trkpt lat="32.727207184" lon="35.003410339">
  <ele>292.533691</ele>
  <time>2011-07-15T08:10:05Z</time>
  <speed>2.090000</speed>
</trkpt>
<trkpt lat="32.727210999" lon="35.003368378">
  <ele>292.275879</ele>
  <time>2011-07-15T08:10:07Z</time>
  <speed>2.060000</speed>
</trkpt>
<trkpt lat="32.727218628" lon="35.003314972">
  <ele>292.205566</ele>
  <time>2011-07-15T08:10:09Z</time>
  <speed>2.040000</speed>
</trkpt>
<trkpt lat="32.727214813" lon="35.003273010">
  <ele>292.666504</ele>
  <time>2011-07-15T08:10:11Z</time>
  <speed>2.230000</speed>
</trkpt>
<trkpt lat="32.727214813" lon="35.003223419">
  <ele>292.986816</ele>
  <time>2011-07-15T08:10:13Z</time>
  <speed>2.120000</speed>
</trkpt>
<trkpt lat="32.727222443" lon="35.003181458">
  <ele>293.432129</ele>
  <time>2011-07-15T08:10:15Z</time>
  <speed>2.400000</speed>
</trkpt>
<trkpt lat="32.727230072" lon="35.003135681">
  <ele>293.432129</ele>
  <time>2011-07-15T08:10:17Z</time>
  <speed>2.100000</speed>
</trkpt>
<trkpt lat="32.727226257" lon="35.003086090">
  <ele>293.111816</ele>
  <time>2011-07-15T08:10:19Z</time>
  <speed>2.100000</speed>
</trkpt>
<trkpt lat="32.727230072" lon="35.003044128">
  <ele>293.486816</ele>
  <time>2011-07-15T08:10:21Z</time>
  <speed>2.320000</speed>
</trkpt>
<trkpt lat="32.727233887" lon="35.002990723">
  <ele>293.877441</ele>
  <time>2011-07-15T08:10:23Z</time>
  <speed>2.050000</speed>
</trkpt>
<trkpt lat="32.727241516" lon="35.002944946">
  <ele>293.627441</ele>
  <time>2011-07-15T08:10:25Z</time>
  <speed>1.920000</speed>
</trkpt>
<trkpt lat="32.727252960" lon="35.002899170">
  <ele>294.611816</ele>
  <time>2011-07-15T08:10:27Z</time>
  <speed>2.120000</speed>
</trkpt>
<trkpt lat="32.727264404" lon="35.002841949">
  <ele>295.049316</ele>
  <time>2011-07-15T08:10:29Z</time>
  <speed>2.220000</speed>
</trkpt>
<trkpt lat="32.727268219" lon="35.002796173">
  <ele>294.502441</ele>
  <time>2011-07-15T08:10:31Z</time>
  <speed>2.450000</speed>
</trkpt>
<trkpt lat="32.727283478" lon="35.002742767">
  <ele>294.541504</ele>
  <time>2011-07-15T08:10:33Z</time>
  <speed>2.310000</speed>
</trkpt>
<trkpt lat="32.727298737" lon="35.002700806">
  <ele>294.166504</ele>
  <time>2011-07-15T08:10:35Z</time>
  <speed>2.040000</speed>
</trkpt>
<trkpt lat="32.727313995" lon="35.002674103">
  <ele>294.299316</ele>
  <time>2011-07-15T08:10:37Z</time>
  <speed>2.180000</speed>
</trkpt>
<trkpt lat="32.727333069" lon="35.002628326">
  <ele>293.877441</ele>
  <time>2011-07-15T08:10:39Z</time>
  <speed>2.660000</speed>
</trkpt>
<trkpt lat="32.727363586" lon="35.002578735">
  <ele>294.064941</ele>
  <time>2011-07-15T08:10:41Z</time>
  <speed>3.400000</speed>
</trkpt>
<trkpt lat="32.727378845" lon="35.002548218">
  <ele>294.260254</ele>
  <time>2011-07-15T08:10:42Z</time>
  <speed>3.350000</speed>
</trkpt>
<trkpt lat="32.727394104" lon="35.002517700">
  <ele>294.572754</ele>
  <time>2011-07-15T08:10:43Z</time>
  <speed>3.580000</speed>
</trkpt>
<trkpt lat="32.727413177" lon="35.002483368">
  <ele>294.049316</ele>
  <time>2011-07-15T08:10:44Z</time>
  <speed>3.500000</speed>
</trkpt>
<trkpt lat="32.727439880" lon="35.002460480">
  <ele>293.689941</ele>
  <time>2011-07-15T08:10:45Z</time>
  <speed>3.720000</speed>
</trkpt>
<trkpt lat="32.727466583" lon="35.002426147">
  <ele>293.314941</ele>
  <time>2011-07-15T08:10:46Z</time>
  <speed>4.320000</speed>
</trkpt>
<trkpt lat="32.727489471" lon="35.002388000">
  <ele>292.689941</ele>
  <time>2011-07-15T08:10:47Z</time>
  <speed>4.130000</speed>
</trkpt>
<trkpt lat="32.727508545" lon="35.002349854">
  <ele>292.299316</ele>
  <time>2011-07-15T08:10:48Z</time>
  <speed>4.300000</speed>
</trkpt>
<trkpt lat="32.727531433" lon="35.002315521">
  <ele>291.018066</ele>
  <time>2011-07-15T08:10:49Z</time>
  <speed>4.570000</speed>
</trkpt>
<trkpt lat="32.727558136" lon="35.002269745">
  <ele>290.057129</ele>
  <time>2011-07-15T08:10:50Z</time>
  <speed>5.210000</speed>
</trkpt>
<trkpt lat="32.727588654" lon="35.002220154">
  <ele>289.291504</ele>
  <time>2011-07-15T08:10:51Z</time>
  <speed>5.890000</speed>
</trkpt>
<trkpt lat="32.727626801" lon="35.002166748">
  <ele>289.049316</ele>
  <time>2011-07-15T08:10:52Z</time>
  <speed>6.600000</speed>
</trkpt>
<trkpt lat="32.727664948" lon="35.002113342">
  <ele>288.244629</ele>
  <time>2011-07-15T08:10:53Z</time>
  <speed>6.820000</speed>
</trkpt>
<trkpt lat="32.727710724" lon="35.002063751">
  <ele>287.908691</ele>
  <time>2011-07-15T08:10:54Z</time>
  <speed>7.000000</speed>
</trkpt>
<trkpt lat="32.727756500" lon="35.002010345">
  <ele>287.158691</ele>
  <time>2011-07-15T08:10:55Z</time>
  <speed>6.980000</speed>
</trkpt>
<trkpt lat="32.727809906" lon="35.001964569">
  <ele>287.439941</ele>
  <time>2011-07-15T08:10:56Z</time>
  <speed>7.050000</speed>
</trkpt>
<trkpt lat="32.727867126" lon="35.001922607">
  <ele>288.002441</ele>
  <time>2011-07-15T08:10:57Z</time>
  <speed>6.880000</speed>
</trkpt>
<trkpt lat="32.727924347" lon="35.001892090">
  <ele>287.807129</ele>
  <time>2011-07-15T08:10:58Z</time>
  <speed>7.020000</speed>
</trkpt>
<trkpt lat="32.727985382" lon="35.001873016">
  <ele>287.994629</ele>
  <time>2011-07-15T08:10:59Z</time>
  <speed>6.540000</speed>
</trkpt>
<trkpt lat="32.728042603" lon="35.001861572">
  <ele>288.510254</ele>
  <time>2011-07-15T08:11:00Z</time>
  <speed>6.050000</speed>
</trkpt>
<trkpt lat="32.728092194" lon="35.001853943">
  <ele>287.830566</ele>
  <time>2011-07-15T08:11:01Z</time>
  <speed>5.530000</speed>
</trkpt>
<trkpt lat="32.728141785" lon="35.001850128">
  <ele>287.322754</ele>
  <time>2011-07-15T08:11:02Z</time>
  <speed>5.200000</speed>
</trkpt>
<trkpt lat="32.728187561" lon="35.001850128">
  <ele>287.049316</ele>
  <time>2011-07-15T08:11:03Z</time>
  <speed>4.860000</speed>
</trkpt>
<trkpt lat="32.728225708" lon="35.001850128">
  <ele>286.908691</ele>
  <time>2011-07-15T08:11:04Z</time>
  <speed>4.260000</speed>
</trkpt>
<trkpt lat="32.728263855" lon="35.001846313">
  <ele>286.463379</ele>
  <time>2011-07-15T08:11:05Z</time>
  <speed>4.100000</speed>
</trkpt>
<trkpt lat="32.728302002" lon="35.001842499">
  <ele>286.424316</ele>
  <time>2011-07-15T08:11:06Z</time>
  <speed>3.930000</speed>
</trkpt>
<trkpt lat="32.728343964" lon="35.001838684">
  <ele>286.338379</ele>
  <time>2011-07-15T08:11:07Z</time>
  <speed>3.840000</speed>
</trkpt>
<trkpt lat="32.728374481" lon="35.001834869">
  <ele>286.619629</ele>
  <time>2011-07-15T08:11:08Z</time>
  <speed>3.170000</speed>
</trkpt>
<trkpt lat="32.728412628" lon="35.001819611">
  <ele>288.064941</ele>
  <time>2011-07-15T08:11:10Z</time>
  <speed>1.930000</speed>
</trkpt>
<trkpt lat="32.728443146" lon="35.001804352">
  <ele>287.861816</ele>
  <time>2011-07-15T08:11:13Z</time>
  <speed>1.350000</speed>
</trkpt>
<trkpt lat="32.728466034" lon="35.001789093">
  <ele>288.080566</ele>
  <time>2011-07-15T08:11:15Z</time>
  <speed>2.030000</speed>
</trkpt>
<trkpt lat="32.728500366" lon="35.001770020">
  <ele>290.025879</ele>
  <time>2011-07-15T08:11:17Z</time>
  <speed>1.580000</speed>
</trkpt>
<trkpt lat="32.728504181" lon="35.001735687">
  <ele>291.791504</ele>
  <time>2011-07-15T08:11:20Z</time>
  <speed>1.160000</speed>
</trkpt>
<trkpt lat="32.728530884" lon="35.001705170">
  <ele>293.471191</ele>
  <time>2011-07-15T08:11:23Z</time>
  <speed>1.080000</speed>
</trkpt>
<trkpt lat="32.728534698" lon="35.001670837">
  <ele>293.979004</ele>
  <time>2011-07-15T08:11:25Z</time>
  <speed>1.100000</speed>
</trkpt>
<trkpt lat="32.728542328" lon="35.001640320">
  <ele>294.479004</ele>
  <time>2011-07-15T08:11:28Z</time>
  <speed>1.380000</speed>
</trkpt>
<trkpt lat="32.728553772" lon="35.001598358">
  <ele>294.861816</ele>
  <time>2011-07-15T08:11:31Z</time>
  <speed>1.580000</speed>
</trkpt>
<trkpt lat="32.728569031" lon="35.001556396">
  <ele>294.893066</ele>
  <time>2011-07-15T08:11:34Z</time>
  <speed>1.130000</speed>
</trkpt>
<trkpt lat="32.728572845" lon="35.001514435">
  <ele>295.221191</ele>
  <time>2011-07-15T08:11:37Z</time>
  <speed>1.540000</speed>
</trkpt>
<trkpt lat="32.728595734" lon="35.001476288">
  <ele>295.666504</ele>
  <time>2011-07-15T08:11:39Z</time>
  <speed>2.100000</speed>
</trkpt>
<trkpt lat="32.728603363" lon="35.001430511">
  <ele>296.002441</ele>
  <time>2011-07-15T08:11:41Z</time>
  <speed>2.480000</speed>
</trkpt>
<trkpt lat="32.728610992" lon="35.001377106">
  <ele>294.736816</ele>
  <time>2011-07-15T08:11:43Z</time>
  <speed>2.710000</speed>
</trkpt>
<trkpt lat="32.728622437" lon="35.001346588">
  <ele>294.213379</ele>
  <time>2011-07-15T08:11:44Z</time>
  <speed>2.970000</speed>
</trkpt>
<trkpt lat="32.728626251" lon="35.001312256">
  <ele>293.596191</ele>
  <time>2011-07-15T08:11:45Z</time>
  <speed>3.250000</speed>
</trkpt>
<trkpt lat="32.728633881" lon="35.001277924">
  <ele>293.424316</ele>
  <time>2011-07-15T08:11:46Z</time>
  <speed>3.240000</speed>
</trkpt>
<trkpt lat="32.728645325" lon="35.001243591">
  <ele>293.135254</ele>
  <time>2011-07-15T08:11:47Z</time>
  <speed>3.240000</speed>
</trkpt>
<trkpt lat="32.728652954" lon="35.001213074">
  <ele>293.268066</ele>
  <time>2011-07-15T08:11:48Z</time>
  <speed>3.140000</speed>
</trkpt>
<trkpt lat="32.728672028" lon="35.001163483">
  <ele>292.385254</ele>
  <time>2011-07-15T08:11:50Z</time>
  <speed>2.930000</speed>
</trkpt>
<trkpt lat="32.728694916" lon="35.001102448">
  <ele>292.369629</ele>
  <time>2011-07-15T08:11:52Z</time>
  <speed>2.670000</speed>
</trkpt>
<trkpt lat="32.728721619" lon="35.001052856">
  <ele>292.572754</ele>
  <time>2011-07-15T08:11:54Z</time>
  <speed>2.620000</speed>
</trkpt>
<trkpt lat="32.728740692" lon="35.001007080">
  <ele>291.932129</ele>
  <time>2011-07-15T08:11:56Z</time>
  <speed>2.630000</speed>
</trkpt>
<trkpt lat="32.728775024" lon="35.000961304">
  <ele>292.447754</ele>
  <time>2011-07-15T08:11:58Z</time>
  <speed>2.990000</speed>
</trkpt>
<trkpt lat="32.728797913" lon="35.000934601">
  <ele>292.471191</ele>
  <time>2011-07-15T08:11:59Z</time>
  <speed>3.460000</speed>
</trkpt>
<trkpt lat="32.728820801" lon="35.000904083">
  <ele>292.533691</ele>
  <time>2011-07-15T08:12:00Z</time>
  <speed>3.470000</speed>
</trkpt>
<trkpt lat="32.728843689" lon="35.000881195">
  <ele>292.729004</ele>
  <time>2011-07-15T08:12:01Z</time>
  <speed>3.430000</speed>
</trkpt>
<trkpt lat="32.728874207" lon="35.000850677">
  <ele>292.604004</ele>
  <time>2011-07-15T08:12:02Z</time>
  <speed>4.280000</speed>
</trkpt>
<trkpt lat="32.728904724" lon="35.000820160">
  <ele>292.494629</ele>
  <time>2011-07-15T08:12:03Z</time>
  <speed>4.850000</speed>
</trkpt>
<trkpt lat="32.728939056" lon="35.000782013">
  <ele>292.268066</ele>
  <time>2011-07-15T08:12:04Z</time>
  <speed>5.350000</speed>
</trkpt>
<trkpt lat="32.728973389" lon="35.000740051">
  <ele>292.064941</ele>
  <time>2011-07-15T08:12:05Z</time>
  <speed>5.420000</speed>
</trkpt>
<trkpt lat="32.729000092" lon="35.000686646">
  <ele>291.439941</ele>
  <time>2011-07-15T08:12:06Z</time>
  <speed>5.420000</speed>
</trkpt>
<trkpt lat="32.729011536" lon="35.000629425">
  <ele>290.736816</ele>
  <time>2011-07-15T08:12:07Z</time>
  <speed>5.850000</speed>
</trkpt>
<trkpt lat="32.729003906" lon="35.000572205">
  <ele>289.697754</ele>
  <time>2011-07-15T08:12:08Z</time>
  <speed>5.390000</speed>
</trkpt>
<trkpt lat="32.728984833" lon="35.000526428">
  <ele>289.447754</ele>
  <time>2011-07-15T08:12:09Z</time>
  <speed>4.970000</speed>
</trkpt>
<trkpt lat="32.728965759" lon="35.000476837">
  <ele>289.393066</ele>
  <time>2011-07-15T08:12:10Z</time>
  <speed>5.130000</speed>
</trkpt>
<trkpt lat="32.728946686" lon="35.000427246">
  <ele>288.510254</ele>
  <time>2011-07-15T08:12:11Z</time>
  <speed>5.030000</speed>
</trkpt>
<trkpt lat="32.728923798" lon="35.000377655">
  <ele>288.510254</ele>
  <time>2011-07-15T08:12:12Z</time>
  <speed>5.030000</speed>
</trkpt>
<trkpt lat="32.728912354" lon="35.000328064">
  <ele>288.650879</ele>
  <time>2011-07-15T08:12:13Z</time>
  <speed>4.600000</speed>
</trkpt>
<trkpt lat="32.728904724" lon="35.000278473">
  <ele>288.424316</ele>
  <time>2011-07-15T08:12:14Z</time>
  <speed>4.140000</speed>
</trkpt>
<trkpt lat="32.728897095" lon="35.000244141">
  <ele>288.729004</ele>
  <time>2011-07-15T08:12:15Z</time>
  <speed>3.880000</speed>
</trkpt>
<trkpt lat="32.728889465" lon="35.000205994">
  <ele>288.604004</ele>
  <time>2011-07-15T08:12:16Z</time>
  <speed>3.750000</speed>
</trkpt>
<trkpt lat="32.728881836" lon="35.000164032">
  <ele>288.416504</ele>
  <time>2011-07-15T08:12:17Z</time>
  <speed>3.150000</speed>
</trkpt>
<trkpt lat="32.728878021" lon="35.000133514">
  <ele>288.557129</ele>
  <time>2011-07-15T08:12:18Z</time>
  <speed>2.710000</speed>
</trkpt>
<trkpt lat="32.728874207" lon="35.000099182">
  <ele>288.518066</ele>
  <time>2011-07-15T08:12:19Z</time>
  <speed>3.280000</speed>
</trkpt>
<trkpt lat="32.728866577" lon="35.000064850">
  <ele>288.471191</ele>
  <time>2011-07-15T08:12:20Z</time>
  <speed>3.390000</speed>
</trkpt>
<trkpt lat="32.728858948" lon="35.000030518">
  <ele>288.541504</ele>
  <time>2011-07-15T08:12:21Z</time>
  <speed>3.520000</speed>
</trkpt>
<trkpt lat="32.728851318" lon="34.999988556">
  <ele>288.674316</ele>
  <time>2011-07-15T08:12:22Z</time>
  <speed>3.420000</speed>
</trkpt>
<trkpt lat="32.728851318" lon="34.999954224">
  <ele>289.064941</ele>
  <time>2011-07-15T08:12:23Z</time>
  <speed>3.310000</speed>
</trkpt>
<trkpt lat="32.728847504" lon="34.999916077">
  <ele>288.854004</ele>
  <time>2011-07-15T08:12:24Z</time>
  <speed>3.420000</speed>
</trkpt>
<trkpt lat="32.728847504" lon="34.999877930">
  <ele>288.588379</ele>
  <time>2011-07-15T08:12:25Z</time>
  <speed>3.960000</speed>
</trkpt>
<trkpt lat="32.728847504" lon="34.999839783">
  <ele>288.822754</ele>
  <time>2011-07-15T08:12:26Z</time>
  <speed>4.030000</speed>
</trkpt>
<trkpt lat="32.728847504" lon="34.999797821">
  <ele>288.854004</ele>
  <time>2011-07-15T08:12:27Z</time>
  <speed>4.240000</speed>
</trkpt>
<trkpt lat="32.728851318" lon="34.999748230">
  <ele>288.666504</ele>
  <time>2011-07-15T08:12:28Z</time>
  <speed>4.280000</speed>
</trkpt>
<trkpt lat="32.728855133" lon="34.999706268">
  <ele>288.908691</ele>
  <time>2011-07-15T08:12:29Z</time>
  <speed>4.110000</speed>
</trkpt>
<trkpt lat="32.728855133" lon="34.999656677">
  <ele>288.736816</ele>
  <time>2011-07-15T08:12:30Z</time>
  <speed>4.000000</speed>
</trkpt>
<trkpt lat="32.728855133" lon="34.999614716">
  <ele>288.635254</ele>
  <time>2011-07-15T08:12:31Z</time>
  <speed>4.090000</speed>
</trkpt>
<trkpt lat="32.728851318" lon="34.999572754">
  <ele>288.729004</ele>
  <time>2011-07-15T08:12:32Z</time>
  <speed>4.280000</speed>
</trkpt>
<trkpt lat="32.728843689" lon="34.999523163">
  <ele>288.377441</ele>
  <time>2011-07-15T08:12:33Z</time>
  <speed>4.710000</speed>
</trkpt>
<trkpt lat="32.728836060" lon="34.999469757">
  <ele>287.775879</ele>
  <time>2011-07-15T08:12:34Z</time>
  <speed>5.300000</speed>
</trkpt>
<trkpt lat="32.728836060" lon="34.999408722">
  <ele>287.541504</ele>
  <time>2011-07-15T08:12:35Z</time>
  <speed>6.010000</speed>
</trkpt>
<trkpt lat="32.728839874" lon="34.999336243">
  <ele>286.455566</ele>
  <time>2011-07-15T08:12:36Z</time>
  <speed>6.330000</speed>
</trkpt>
<trkpt lat="32.728843689" lon="34.999271393">
  <ele>285.877441</ele>
  <time>2011-07-15T08:12:37Z</time>
  <speed>6.600000</speed>
</trkpt>
<trkpt lat="32.728851318" lon="34.999202728">
  <ele>285.830566</ele>
  <time>2011-07-15T08:12:38Z</time>
  <speed>6.590000</speed>
</trkpt>
<trkpt lat="32.728862762" lon="34.999134064">
  <ele>285.510254</ele>
  <time>2011-07-15T08:12:39Z</time>
  <speed>6.270000</speed>
</trkpt>
<trkpt lat="32.728878021" lon="34.999076843">
  <ele>285.486816</ele>
  <time>2011-07-15T08:12:40Z</time>
  <speed>6.110000</speed>
</trkpt>
<trkpt lat="32.728893280" lon="34.999015808">
  <ele>284.994629</ele>
  <time>2011-07-15T08:12:41Z</time>
  <speed>5.890000</speed>
</trkpt>
<trkpt lat="32.728904724" lon="34.998958588">
  <ele>284.744629</ele>
  <time>2011-07-15T08:12:42Z</time>
  <speed>5.820000</speed>
</trkpt>
<trkpt lat="32.728912354" lon="34.998897552">
  <ele>284.721191</ele>
  <time>2011-07-15T08:12:43Z</time>
  <speed>5.580000</speed>
</trkpt>
<trkpt lat="32.728919983" lon="34.998836517">
  <ele>284.744629</ele>
  <time>2011-07-15T08:12:44Z</time>
  <speed>5.140000</speed>
</trkpt>
<trkpt lat="32.728923798" lon="34.998779297">
  <ele>285.666504</ele>
  <time>2011-07-15T08:12:45Z</time>
  <speed>5.200000</speed>
</trkpt>
<trkpt lat="32.728927612" lon="34.998725891">
  <ele>285.760254</ele>
  <time>2011-07-15T08:12:46Z</time>
  <speed>4.810000</speed>
</trkpt>
<trkpt lat="32.728935242" lon="34.998676300">
  <ele>285.361816</ele>
  <time>2011-07-15T08:12:47Z</time>
  <speed>4.520000</speed>
</trkpt>
<trkpt lat="32.728939056" lon="34.998630524">
  <ele>285.166504</ele>
  <time>2011-07-15T08:12:48Z</time>
  <speed>4.070000</speed>
</trkpt>
<trkpt lat="32.728946686" lon="34.998584747">
  <ele>284.752441</ele>
  <time>2011-07-15T08:12:49Z</time>
  <speed>4.150000</speed>
</trkpt>
<trkpt lat="32.728950500" lon="34.998542786">
  <ele>284.697754</ele>
  <time>2011-07-15T08:12:50Z</time>
  <speed>4.350000</speed>
</trkpt>
<trkpt lat="32.728950500" lon="34.998493195">
  <ele>285.111816</ele>
  <time>2011-07-15T08:12:51Z</time>
  <speed>4.440000</speed>
</trkpt>
<trkpt lat="32.728950500" lon="34.998435974">
  <ele>284.869629</ele>
  <time>2011-07-15T08:12:52Z</time>
  <speed>4.610000</speed>
</trkpt>
<trkpt lat="32.728954315" lon="34.998382568">
  <ele>284.400879</ele>
  <time>2011-07-15T08:12:53Z</time>
  <speed>4.470000</speed>
</trkpt>
<trkpt lat="32.728958130" lon="34.998336792">
  <ele>284.525879</ele>
  <time>2011-07-15T08:12:54Z</time>
  <speed>4.680000</speed>
</trkpt>
<trkpt lat="32.728961945" lon="34.998287201">
  <ele>284.619629</ele>
  <time>2011-07-15T08:12:55Z</time>
  <speed>4.750000</speed>
</trkpt>
<trkpt lat="32.728965759" lon="34.998241425">
  <ele>285.221191</ele>
  <time>2011-07-15T08:12:56Z</time>
  <speed>4.910000</speed>
</trkpt>
<trkpt lat="32.728973389" lon="34.998191833">
  <ele>285.346191</ele>
  <time>2011-07-15T08:12:57Z</time>
  <speed>4.860000</speed>
</trkpt>
<trkpt lat="32.728977203" lon="34.998130798">
  <ele>286.049316</ele>
  <time>2011-07-15T08:12:58Z</time>
  <speed>4.790000</speed>
</trkpt>
<trkpt lat="32.728981018" lon="34.998081207">
  <ele>286.682129</ele>
  <time>2011-07-15T08:12:59Z</time>
  <speed>4.800000</speed>
</trkpt>
<trkpt lat="32.728981018" lon="34.998031616">
  <ele>286.479004</ele>
  <time>2011-07-15T08:13:00Z</time>
  <speed>4.680000</speed>
</trkpt>
<trkpt lat="32.728984833" lon="34.997982025">
  <ele>286.807129</ele>
  <time>2011-07-15T08:13:01Z</time>
  <speed>4.630000</speed>
</trkpt>
<trkpt lat="32.728988647" lon="34.997932434">
  <ele>287.025879</ele>
  <time>2011-07-15T08:13:02Z</time>
  <speed>4.780000</speed>
</trkpt>
<trkpt lat="32.728984833" lon="34.997882843">
  <ele>286.760254</ele>
  <time>2011-07-15T08:13:03Z</time>
  <speed>4.780000</speed>
</trkpt>
<trkpt lat="32.728988647" lon="34.997837067">
  <ele>286.689941</ele>
  <time>2011-07-15T08:13:04Z</time>
  <speed>4.640000</speed>
</trkpt>
<trkpt lat="32.728988647" lon="34.997783661">
  <ele>286.963379</ele>
  <time>2011-07-15T08:13:05Z</time>
  <speed>4.540000</speed>
</trkpt>
<trkpt lat="32.728992462" lon="34.997734070">
  <ele>286.744629</ele>
  <time>2011-07-15T08:13:06Z</time>
  <speed>4.760000</speed>
</trkpt>
<trkpt lat="32.728988647" lon="34.997680664">
  <ele>286.783691</ele>
  <time>2011-07-15T08:13:07Z</time>
  <speed>4.780000</speed>
</trkpt>
<trkpt lat="32.728984833" lon="34.997631073">
  <ele>286.533691</ele>
  <time>2011-07-15T08:13:08Z</time>
  <speed>5.120000</speed>
</trkpt>
<trkpt lat="32.728984833" lon="34.997573853">
  <ele>286.760254</ele>
  <time>2011-07-15T08:13:09Z</time>
  <speed>5.250000</speed>
</trkpt>
<trkpt lat="32.728984833" lon="34.997516632">
  <ele>286.025879</ele>
  <time>2011-07-15T08:13:10Z</time>
  <speed>4.980000</speed>
</trkpt>
<trkpt lat="32.728984833" lon="34.997467041">
  <ele>285.822754</ele>
  <time>2011-07-15T08:13:11Z</time>
  <speed>4.860000</speed>
</trkpt>
<trkpt lat="32.728984833" lon="34.997413635">
  <ele>285.432129</ele>
  <time>2011-07-15T08:13:12Z</time>
  <speed>4.800000</speed>
</trkpt>
<trkpt lat="32.728984833" lon="34.997364044">
  <ele>285.268066</ele>
  <time>2011-07-15T08:13:13Z</time>
  <speed>4.940000</speed>
</trkpt>
<trkpt lat="32.728977203" lon="34.997310638">
  <ele>284.346191</ele>
  <time>2011-07-15T08:13:14Z</time>
  <speed>4.750000</speed>
</trkpt>
<trkpt lat="32.728973389" lon="34.997261047">
  <ele>284.979004</ele>
  <time>2011-07-15T08:13:15Z</time>
  <speed>5.400000</speed>
</trkpt>
<trkpt lat="32.728958130" lon="34.997203827">
  <ele>284.697754</ele>
  <time>2011-07-15T08:13:16Z</time>
  <speed>5.600000</speed>
</trkpt>
<trkpt lat="32.728942871" lon="34.997138977">
  <ele>284.689941</ele>
  <time>2011-07-15T08:13:17Z</time>
  <speed>5.800000</speed>
</trkpt>
<trkpt lat="32.728927612" lon="34.997081757">
  <ele>284.471191</ele>
  <time>2011-07-15T08:13:18Z</time>
  <speed>5.610000</speed>
</trkpt>
<trkpt lat="32.728908539" lon="34.997028351">
  <ele>283.994629</ele>
  <time>2011-07-15T08:13:19Z</time>
  <speed>5.730000</speed>
</trkpt>
<trkpt lat="32.728897095" lon="34.996971130">
  <ele>283.596191</ele>
  <time>2011-07-15T08:13:20Z</time>
  <speed>5.450000</speed>
</trkpt>
<trkpt lat="32.728878021" lon="34.996917725">
  <ele>282.947754</ele>
  <time>2011-07-15T08:13:21Z</time>
  <speed>5.250000</speed>
</trkpt>
<trkpt lat="32.728866577" lon="34.996871948">
  <ele>283.057129</ele>
  <time>2011-07-15T08:13:22Z</time>
  <speed>5.360000</speed>
</trkpt>
<trkpt lat="32.728855133" lon="34.996818542">
  <ele>283.252441</ele>
  <time>2011-07-15T08:13:23Z</time>
  <speed>5.000000</speed>
</trkpt>
<trkpt lat="32.728843689" lon="34.996765137">
  <ele>283.596191</ele>
  <time>2011-07-15T08:13:24Z</time>
  <speed>5.010000</speed>
</trkpt>
<trkpt lat="32.728836060" lon="34.996711731">
  <ele>283.205566</ele>
  <time>2011-07-15T08:13:25Z</time>
  <speed>5.000000</speed>
</trkpt>
<trkpt lat="32.728820801" lon="34.996662140">
  <ele>283.979004</ele>
  <time>2011-07-15T08:13:26Z</time>
  <speed>5.160000</speed>
</trkpt>
<trkpt lat="32.728813171" lon="34.996604919">
  <ele>283.744629</ele>
  <time>2011-07-15T08:13:27Z</time>
  <speed>5.040000</speed>
</trkpt>
<trkpt lat="32.728809357" lon="34.996551514">
  <ele>284.088379</ele>
  <time>2011-07-15T08:13:28Z</time>
  <speed>5.160000</speed>
</trkpt>
<trkpt lat="32.728805542" lon="34.996501923">
  <ele>284.479004</ele>
  <time>2011-07-15T08:13:29Z</time>
  <speed>5.080000</speed>
</trkpt>
<trkpt lat="32.728797913" lon="34.996448517">
  <ele>285.166504</ele>
  <time>2011-07-15T08:13:30Z</time>
  <speed>5.050000</speed>
</trkpt>
<trkpt lat="32.728790283" lon="34.996398926">
  <ele>285.502441</ele>
  <time>2011-07-15T08:13:31Z</time>
  <speed>4.740000</speed>
</trkpt>
<trkpt lat="32.728778839" lon="34.996356964">
  <ele>285.861816</ele>
  <time>2011-07-15T08:13:32Z</time>
  <speed>4.320000</speed>
</trkpt>
<trkpt lat="32.728767395" lon="34.996322632">
  <ele>286.619629</ele>
  <time>2011-07-15T08:13:33Z</time>
  <speed>3.490000</speed>
</trkpt>
<trkpt lat="32.728755951" lon="34.996288300">
  <ele>287.705566</ele>
  <time>2011-07-15T08:13:34Z</time>
  <speed>3.220000</speed>
</trkpt>
<trkpt lat="32.728736877" lon="34.996242523">
  <ele>287.791504</ele>
  <time>2011-07-15T08:13:36Z</time>
  <speed>2.810000</speed>
</trkpt>
<trkpt lat="32.728710175" lon="34.996185303">
  <ele>287.994629</ele>
  <time>2011-07-15T08:13:38Z</time>
  <speed>2.900000</speed>
</trkpt>
<trkpt lat="32.728683472" lon="34.996135712">
  <ele>288.760254</ele>
  <time>2011-07-15T08:13:40Z</time>
  <speed>2.880000</speed>
</trkpt>
<trkpt lat="32.728664398" lon="34.996112823">
  <ele>289.377441</ele>
  <time>2011-07-15T08:13:41Z</time>
  <speed>2.880000</speed>
</trkpt>
<trkpt lat="32.728649139" lon="34.996063232">
  <ele>289.182129</ele>
  <time>2011-07-15T08:13:43Z</time>
  <speed>2.720000</speed>
</trkpt>
<trkpt lat="32.728626251" lon="34.996017456">
  <ele>289.244629</ele>
  <time>2011-07-15T08:13:45Z</time>
  <speed>2.720000</speed>
</trkpt>
<trkpt lat="32.728603363" lon="34.995967865">
  <ele>289.158691</ele>
  <time>2011-07-15T08:13:47Z</time>
  <speed>1.910000</speed>
</trkpt>
<trkpt lat="32.728584290" lon="34.995937347">
  <ele>289.174316</ele>
  <time>2011-07-15T08:13:49Z</time>
  <speed>2.200000</speed>
</trkpt>
<trkpt lat="32.728565216" lon="34.995895386">
  <ele>290.697754</ele>
  <time>2011-07-15T08:13:51Z</time>
  <speed>2.230000</speed>
</trkpt>
<trkpt lat="32.728549957" lon="34.995849609">
  <ele>291.143066</ele>
  <time>2011-07-15T08:13:53Z</time>
  <speed>2.110000</speed>
</trkpt>
<trkpt lat="32.728530884" lon="34.995803833">
  <ele>291.408691</ele>
  <time>2011-07-15T08:13:55Z</time>
  <speed>2.260000</speed>
</trkpt>
<trkpt lat="32.728511810" lon="34.995761871">
  <ele>291.752441</ele>
  <time>2011-07-15T08:13:57Z</time>
  <speed>2.500000</speed>
</trkpt>
<trkpt lat="32.728496552" lon="34.995716095">
  <ele>291.041504</ele>
  <time>2011-07-15T08:13:59Z</time>
  <speed>2.240000</speed>
</trkpt>
<trkpt lat="32.728481293" lon="34.995674133">
  <ele>291.627441</ele>
  <time>2011-07-15T08:14:01Z</time>
  <speed>2.320000</speed>
</trkpt>
<trkpt lat="32.728462219" lon="34.995632172">
  <ele>291.775879</ele>
  <time>2011-07-15T08:14:03Z</time>
  <speed>2.090000</speed>
</trkpt>
<trkpt lat="32.728446960" lon="34.995597839">
  <ele>291.986816</ele>
  <time>2011-07-15T08:14:05Z</time>
  <speed>2.180000</speed>
</trkpt>
<trkpt lat="32.728427887" lon="34.995555878">
  <ele>291.885254</ele>
  <time>2011-07-15T08:14:07Z</time>
  <speed>2.100000</speed>
</trkpt>
<trkpt lat="32.728408813" lon="34.995513916">
  <ele>291.471191</ele>
  <time>2011-07-15T08:14:09Z</time>
  <speed>2.200000</speed>
</trkpt>
<trkpt lat="32.728389740" lon="34.995464325">
  <ele>291.275879</ele>
  <time>2011-07-15T08:14:11Z</time>
  <speed>2.200000</speed>
</trkpt>
<trkpt lat="32.728374481" lon="34.995418549">
  <ele>291.564941</ele>
  <time>2011-07-15T08:14:13Z</time>
  <speed>2.210000</speed>
</trkpt>
<trkpt lat="32.728366852" lon="34.995372772">
  <ele>292.424316</ele>
  <time>2011-07-15T08:14:15Z</time>
  <speed>2.160000</speed>
</trkpt>
<trkpt lat="32.728355408" lon="34.995326996">
  <ele>292.721191</ele>
  <time>2011-07-15T08:14:17Z</time>
  <speed>2.080000</speed>
</trkpt>
<trkpt lat="32.728340149" lon="34.995285034">
  <ele>293.088379</ele>
  <time>2011-07-15T08:14:19Z</time>
  <speed>2.230000</speed>
</trkpt>
<trkpt lat="32.728332520" lon="34.995239258">
  <ele>293.307129</ele>
  <time>2011-07-15T08:14:21Z</time>
  <speed>1.900000</speed>
</trkpt>
<trkpt lat="32.728309631" lon="34.995201111">
  <ele>294.752441</ele>
  <time>2011-07-15T08:14:23Z</time>
  <speed>1.700000</speed>
</trkpt>
<trkpt lat="32.728302002" lon="34.995170593">
  <ele>295.564941</ele>
  <time>2011-07-15T08:14:25Z</time>
  <speed>1.580000</speed>
</trkpt>
<trkpt lat="32.728294373" lon="34.995136261">
  <ele>296.143066</ele>
  <time>2011-07-15T08:14:27Z</time>
  <speed>1.720000</speed>
</trkpt>
<trkpt lat="32.728279114" lon="34.995098114">
  <ele>296.611816</ele>
  <time>2011-07-15T08:14:29Z</time>
  <speed>1.840000</speed>
</trkpt>
<trkpt lat="32.728271484" lon="34.995059967">
  <ele>296.799316</ele>
  <time>2011-07-15T08:14:31Z</time>
  <speed>1.900000</speed>
</trkpt>
<trkpt lat="32.728260040" lon="34.995014191">
  <ele>297.135254</ele>
  <time>2011-07-15T08:14:33Z</time>
  <speed>1.730000</speed>
</trkpt>
<trkpt lat="32.728252411" lon="34.994979858">
  <ele>296.916504</ele>
  <time>2011-07-15T08:14:35Z</time>
  <speed>1.670000</speed>
</trkpt>
<trkpt lat="32.728244781" lon="34.994941711">
  <ele>297.041504</ele>
  <time>2011-07-15T08:14:37Z</time>
  <speed>1.620000</speed>
</trkpt>
<trkpt lat="32.728225708" lon="34.994915009">
  <ele>297.252441</ele>
  <time>2011-07-15T08:14:39Z</time>
  <speed>1.690000</speed>
</trkpt>
<trkpt lat="32.728202820" lon="34.994880676">
  <ele>297.393066</ele>
  <time>2011-07-15T08:14:41Z</time>
  <speed>1.900000</speed>
</trkpt>
<trkpt lat="32.728172302" lon="34.994846344">
  <ele>298.096191</ele>
  <time>2011-07-15T08:14:43Z</time>
  <speed>1.890000</speed>
</trkpt>
<trkpt lat="32.728149414" lon="34.994823456">
  <ele>297.752441</ele>
  <time>2011-07-15T08:14:45Z</time>
  <speed>2.010000</speed>
</trkpt>
<trkpt lat="32.728115082" lon="34.994800568">
  <ele>298.182129</ele>
  <time>2011-07-15T08:14:47Z</time>
  <speed>2.240000</speed>
</trkpt>
<trkpt lat="32.728080750" lon="34.994785309">
  <ele>297.689941</ele>
  <time>2011-07-15T08:14:49Z</time>
  <speed>1.960000</speed>
</trkpt>
<trkpt lat="32.728046417" lon="34.994770050">
  <ele>297.689941</ele>
  <time>2011-07-15T08:14:51Z</time>
  <speed>2.000000</speed>
</trkpt>
<trkpt lat="32.728008270" lon="34.994754791">
  <ele>297.635254</ele>
  <time>2011-07-15T08:14:53Z</time>
  <speed>2.130000</speed>
</trkpt>
<trkpt lat="32.727958679" lon="34.994750977">
  <ele>298.236816</ele>
  <time>2011-07-15T08:14:55Z</time>
  <speed>2.420000</speed>
</trkpt>
<trkpt lat="32.727912903" lon="34.994743347">
  <ele>298.572754</ele>
  <time>2011-07-15T08:14:57Z</time>
  <speed>2.160000</speed>
</trkpt>
<trkpt lat="32.727870941" lon="34.994731903">
  <ele>299.205566</ele>
  <time>2011-07-15T08:14:59Z</time>
  <speed>1.710000</speed>
</trkpt>
<trkpt lat="32.727840424" lon="34.994716644">
  <ele>298.838379</ele>
  <time>2011-07-15T08:15:01Z</time>
  <speed>2.070000</speed>
</trkpt>
<trkpt lat="32.727802277" lon="34.994705200">
  <ele>299.760254</ele>
  <time>2011-07-15T08:15:03Z</time>
  <speed>1.980000</speed>
</trkpt>
<trkpt lat="32.727764130" lon="34.994686127">
  <ele>300.760254</ele>
  <time>2011-07-15T08:15:05Z</time>
  <speed>1.910000</speed>
</trkpt>
<trkpt lat="32.727729797" lon="34.994667053">
  <ele>300.713379</ele>
  <time>2011-07-15T08:15:07Z</time>
  <speed>1.780000</speed>
</trkpt>
<trkpt lat="32.727695465" lon="34.994647980">
  <ele>301.533691</ele>
  <time>2011-07-15T08:15:09Z</time>
  <speed>1.830000</speed>
</trkpt>
<trkpt lat="32.727661133" lon="34.994625092">
  <ele>302.244629</ele>
  <time>2011-07-15T08:15:12Z</time>
  <speed>1.670000</speed>
</trkpt>
<trkpt lat="32.727630615" lon="34.994602203">
  <ele>303.580566</ele>
  <time>2011-07-15T08:15:14Z</time>
  <speed>1.500000</speed>
</trkpt>
<trkpt lat="32.727603912" lon="34.994567871">
  <ele>304.557129</ele>
  <time>2011-07-15T08:15:17Z</time>
  <speed>1.700000</speed>
</trkpt>
<trkpt lat="32.727581024" lon="34.994533539">
  <ele>305.096191</ele>
  <time>2011-07-15T08:15:20Z</time>
  <speed>1.450000</speed>
</trkpt>
<trkpt lat="32.727561951" lon="34.994495392">
  <ele>304.385254</ele>
  <time>2011-07-15T08:15:23Z</time>
  <speed>1.420000</speed>
</trkpt>
<trkpt lat="32.727558136" lon="34.994445801">
  <ele>304.166504</ele>
  <time>2011-07-15T08:15:26Z</time>
  <speed>1.340000</speed>
</trkpt>
<trkpt lat="32.727565765" lon="34.994411469">
  <ele>303.166504</ele>
  <time>2011-07-15T08:15:29Z</time>
  <speed>1.430000</speed>
</trkpt>
<trkpt lat="32.727592468" lon="34.994400024">
  <ele>303.166504</ele>
  <time>2011-07-15T08:15:31Z</time>
  <speed>1.130000</speed>
</trkpt>
<trkpt lat="32.727622986" lon="34.994415283">
  <ele>301.721191</ele>
  <time>2011-07-15T08:15:35Z</time>
  <speed>0.490000</speed>
</trkpt>
<trkpt lat="32.727653503" lon="34.994426727">
  <ele>300.900879</ele>
  <time>2011-07-15T08:15:41Z</time>
  <speed>0.940000</speed>
</trkpt>
<trkpt lat="32.727680206" lon="34.994434357">
  <ele>300.283691</ele>
  <time>2011-07-15T08:15:44Z</time>
  <speed>0.960000</speed>
</trkpt>
<trkpt lat="32.727714539" lon="34.994457245">
  <ele>300.525879</ele>
  <time>2011-07-15T08:15:47Z</time>
  <speed>0.990000</speed>
</trkpt>
<trkpt lat="32.727741241" lon="34.994472504">
  <ele>300.166504</ele>
  <time>2011-07-15T08:15:49Z</time>
  <speed>1.410000</speed>
</trkpt>
<trkpt lat="32.727767944" lon="34.994472504">
  <ele>300.447754</ele>
  <time>2011-07-15T08:15:51Z</time>
  <speed>1.660000</speed>
</trkpt>
<trkpt lat="32.727798462" lon="34.994487762">
  <ele>300.627441</ele>
  <time>2011-07-15T08:15:53Z</time>
  <speed>1.850000</speed>
</trkpt>
<trkpt lat="32.727825165" lon="34.994514465">
  <ele>301.080566</ele>
  <time>2011-07-15T08:15:55Z</time>
  <speed>1.830000</speed>
</trkpt>
<trkpt lat="32.727851868" lon="34.994544983">
  <ele>301.135254</ele>
  <time>2011-07-15T08:15:57Z</time>
  <speed>2.000000</speed>
</trkpt>
<trkpt lat="32.727878571" lon="34.994564056">
  <ele>300.971191</ele>
  <time>2011-07-15T08:15:59Z</time>
  <speed>1.760000</speed>
</trkpt>
<trkpt lat="32.727912903" lon="34.994583130">
  <ele>300.377441</ele>
  <time>2011-07-15T08:16:01Z</time>
  <speed>1.560000</speed>
</trkpt>
<trkpt lat="32.727951050" lon="34.994598389">
  <ele>299.877441</ele>
  <time>2011-07-15T08:16:03Z</time>
  <speed>1.840000</speed>
</trkpt>
<trkpt lat="32.727989197" lon="34.994609833">
  <ele>299.689941</ele>
  <time>2011-07-15T08:16:05Z</time>
  <speed>1.820000</speed>
</trkpt>
<trkpt lat="32.728034973" lon="34.994617462">
  <ele>300.096191</ele>
  <time>2011-07-15T08:16:07Z</time>
  <speed>1.920000</speed>
</trkpt>
<trkpt lat="32.728069305" lon="34.994613647">
  <ele>300.150879</ele>
  <time>2011-07-15T08:16:09Z</time>
  <speed>1.810000</speed>
</trkpt>
<trkpt lat="32.728096008" lon="34.994625092">
  <ele>300.463379</ele>
  <time>2011-07-15T08:16:11Z</time>
  <speed>1.440000</speed>
</trkpt>
<trkpt lat="32.728130341" lon="34.994632721">
  <ele>300.900879</ele>
  <time>2011-07-15T08:16:13Z</time>
  <speed>1.740000</speed>
</trkpt>
<trkpt lat="32.728164673" lon="34.994655609">
  <ele>300.494629</ele>
  <time>2011-07-15T08:16:15Z</time>
  <speed>1.970000</speed>
</trkpt>
<trkpt lat="32.728195190" lon="34.994674683">
  <ele>298.877441</ele>
  <time>2011-07-15T08:16:17Z</time>
  <speed>1.710000</speed>
</trkpt>
<trkpt lat="32.728221893" lon="34.994689941">
  <ele>299.322754</ele>
  <time>2011-07-15T08:16:19Z</time>
  <speed>1.730000</speed>
</trkpt>
<trkpt lat="32.728248596" lon="34.994705200">
  <ele>299.471191</ele>
  <time>2011-07-15T08:16:21Z</time>
  <speed>1.450000</speed>
</trkpt>
<trkpt lat="32.728275299" lon="34.994731903">
  <ele>299.861816</ele>
  <time>2011-07-15T08:16:23Z</time>
  <speed>1.590000</speed>
</trkpt>
<trkpt lat="32.728302002" lon="34.994762421">
  <ele>300.299316</ele>
  <time>2011-07-15T08:16:26Z</time>
  <speed>1.700000</speed>
</trkpt>
<trkpt lat="32.728321075" lon="34.994796753">
  <ele>301.689941</ele>
  <time>2011-07-15T08:16:28Z</time>
  <speed>1.270000</speed>
</trkpt>
<trkpt lat="32.728355408" lon="34.994827271">
  <ele>302.299316</ele>
  <time>2011-07-15T08:16:31Z</time>
  <speed>0.810000</speed>
</trkpt>
<trkpt lat="32.728363037" lon="34.994857788">
  <ele>303.775879</ele>
  <time>2011-07-15T08:16:36Z</time>
  <speed>0.670000</speed>
</trkpt>
<trkpt lat="32.728397369" lon="34.994873047">
  <ele>304.072754</ele>
  <time>2011-07-15T08:16:43Z</time>
  <speed>1.000000</speed>
</trkpt>
<trkpt lat="32.728420258" lon="34.994895935">
  <ele>303.908691</ele>
  <time>2011-07-15T08:16:45Z</time>
  <speed>1.080000</speed>
</trkpt>
<trkpt lat="32.728446960" lon="34.994922638">
  <ele>303.830566</ele>
  <time>2011-07-15T08:16:48Z</time>
  <speed>0.880000</speed>
</trkpt>
<trkpt lat="32.728469849" lon="34.994941711">
  <ele>304.150879</ele>
  <time>2011-07-15T08:16:51Z</time>
  <speed>0.890000</speed>
</trkpt>
<trkpt lat="32.728492737" lon="34.994960785">
  <ele>304.283691</ele>
  <time>2011-07-15T08:16:54Z</time>
  <speed>0.970000</speed>
</trkpt>
<trkpt lat="32.728519440" lon="34.994979858">
  <ele>305.768066</ele>
  <time>2011-07-15T08:16:58Z</time>
  <speed>0.920000</speed>
</trkpt>
<trkpt lat="32.728546143" lon="34.994991302">
  <ele>306.525879</ele>
  <time>2011-07-15T08:17:03Z</time>
  <speed>0.510000</speed>
</trkpt>
<trkpt lat="32.728576660" lon="34.995014191">
  <ele>306.838379</ele>
  <time>2011-07-15T08:17:06Z</time>
  <speed>0.860000</speed>
</trkpt>
<trkpt lat="32.728599548" lon="34.995037079">
  <ele>307.822754</ele>
  <time>2011-07-15T08:17:10Z</time>
  <speed>1.370000</speed>
</trkpt>
<trkpt lat="32.728618622" lon="34.995067596">
  <ele>307.908691</ele>
  <time>2011-07-15T08:17:13Z</time>
  <speed>1.460000</speed>
</trkpt>
<trkpt lat="32.728645325" lon="34.995086670">
  <ele>308.494629</ele>
  <time>2011-07-15T08:17:16Z</time>
  <speed>1.200000</speed>
</trkpt>
<trkpt lat="32.728675842" lon="34.995101929">
  <ele>308.846191</ele>
  <time>2011-07-15T08:17:20Z</time>
  <speed>1.360000</speed>
</trkpt>
<trkpt lat="32.728702545" lon="34.995124817">
  <ele>309.111816</ele>
  <time>2011-07-15T08:17:23Z</time>
  <speed>1.480000</speed>
</trkpt>
<trkpt lat="32.728740692" lon="34.995151520">
  <ele>308.494629</ele>
  <time>2011-07-15T08:17:26Z</time>
  <speed>1.230000</speed>
</trkpt>
<trkpt lat="32.728767395" lon="34.995166779">
  <ele>309.049316</ele>
  <time>2011-07-15T08:17:29Z</time>
  <speed>1.110000</speed>
</trkpt>
<trkpt lat="32.728797913" lon="34.995193481">
  <ele>309.533691</ele>
  <time>2011-07-15T08:17:32Z</time>
  <speed>1.400000</speed>
</trkpt>
<trkpt lat="32.728828430" lon="34.995220184">
  <ele>310.041504</ele>
  <time>2011-07-15T08:17:35Z</time>
  <speed>1.480000</speed>
</trkpt>
<trkpt lat="32.728855133" lon="34.995243073">
  <ele>309.916504</ele>
  <time>2011-07-15T08:17:37Z</time>
  <speed>0.910000</speed>
</trkpt>
<trkpt lat="32.728878021" lon="34.995262146">
  <ele>310.322754</ele>
  <time>2011-07-15T08:17:41Z</time>
  <speed>0.710000</speed>
</trkpt>
<trkpt lat="32.728908539" lon="34.995269775">
  <ele>310.674316</ele>
  <time>2011-07-15T08:17:44Z</time>
  <speed>1.110000</speed>
</trkpt>
<trkpt lat="32.728935242" lon="34.995296478">
  <ele>311.947754</ele>
  <time>2011-07-15T08:17:48Z</time>
  <speed>0.720000</speed>
</trkpt>
<trkpt lat="32.728942871" lon="34.995326996">
  <ele>313.549316</ele>
  <time>2011-07-15T08:17:54Z</time>
  <speed>0.760000</speed>
</trkpt>
<trkpt lat="32.728965759" lon="34.995349884">
  <ele>313.643066</ele>
  <time>2011-07-15T08:17:57Z</time>
  <speed>1.220000</speed>
</trkpt>
<trkpt lat="32.728996277" lon="34.995384216">
  <ele>314.471191</ele>
  <time>2011-07-15T08:18:00Z</time>
  <speed>1.430000</speed>
</trkpt>
<trkpt lat="32.729015350" lon="34.995403290">
  <ele>315.471191</ele>
  <time>2011-07-15T08:18:03Z</time>
  <speed>1.380000</speed>
</trkpt>
<trkpt lat="32.729042053" lon="34.995414734">
  <ele>315.299316</ele>
  <time>2011-07-15T08:18:05Z</time>
  <speed>1.500000</speed>
</trkpt>
<trkpt lat="32.729064941" lon="34.995441437">
  <ele>315.658691</ele>
  <time>2011-07-15T08:18:08Z</time>
  <speed>1.480000</speed>
</trkpt>
<trkpt lat="32.729087830" lon="34.995460510">
  <ele>316.541504</ele>
  <time>2011-07-15T08:18:10Z</time>
  <speed>1.420000</speed>
</trkpt>
<trkpt lat="32.729114532" lon="34.995475769">
  <ele>316.721191</ele>
  <time>2011-07-15T08:18:12Z</time>
  <speed>1.420000</speed>
</trkpt>
<trkpt lat="32.729137421" lon="34.995510101">
  <ele>316.791504</ele>
  <time>2011-07-15T08:18:15Z</time>
  <speed>1.060000</speed>
</trkpt>
<trkpt lat="32.729160309" lon="34.995536804">
  <ele>316.252441</ele>
  <time>2011-07-15T08:18:18Z</time>
  <speed>1.220000</speed>
</trkpt>
<trkpt lat="32.729167938" lon="34.995567322">
  <ele>316.346191</ele>
  <time>2011-07-15T08:18:21Z</time>
  <speed>1.150000</speed>
</trkpt>
<trkpt lat="32.729194641" lon="34.995586395">
  <ele>317.502441</ele>
  <time>2011-07-15T08:18:23Z</time>
  <speed>1.150000</speed>
</trkpt>
<trkpt lat="32.729213715" lon="34.995616913">
  <ele>318.025879</ele>
  <time>2011-07-15T08:18:26Z</time>
  <speed>1.390000</speed>
</trkpt>
<trkpt lat="32.729236603" lon="34.995635986">
  <ele>318.971191</ele>
  <time>2011-07-15T08:18:29Z</time>
  <speed>1.080000</speed>
</trkpt>
<trkpt lat="32.729267120" lon="34.995666504">
  <ele>319.752441</ele>
  <time>2011-07-15T08:18:32Z</time>
  <speed>1.190000</speed>
</trkpt>
<trkpt lat="32.729286194" lon="34.995693207">
  <ele>319.924316</ele>
  <time>2011-07-15T08:18:34Z</time>
  <speed>0.990000</speed>
</trkpt>
<trkpt lat="32.729305267" lon="34.995716095">
  <ele>320.541504</ele>
  <time>2011-07-15T08:18:36Z</time>
  <speed>1.250000</speed>
</trkpt>
<trkpt lat="32.729328156" lon="34.995738983">
  <ele>320.619629</ele>
  <time>2011-07-15T08:18:38Z</time>
  <speed>1.370000</speed>
</trkpt>
<trkpt lat="32.729354858" lon="34.995765686">
  <ele>320.932129</ele>
  <time>2011-07-15T08:18:41Z</time>
  <speed>1.610000</speed>
</trkpt>
<trkpt lat="32.729370117" lon="34.995800018">
  <ele>321.424316</ele>
  <time>2011-07-15T08:18:43Z</time>
  <speed>1.560000</speed>
</trkpt>
<trkpt lat="32.729370117" lon="34.995841980">
  <ele>321.104004</ele>
  <time>2011-07-15T08:18:46Z</time>
  <speed>1.410000</speed>
</trkpt>
<trkpt lat="32.729377747" lon="34.995891571">
  <ele>320.924316</ele>
  <time>2011-07-15T08:18:49Z</time>
  <speed>1.580000</speed>
</trkpt>
<trkpt lat="32.729389191" lon="34.995922089">
  <ele>320.752441</ele>
  <time>2011-07-15T08:18:51Z</time>
  <speed>1.580000</speed>
</trkpt>
<trkpt lat="32.729404449" lon="34.995967865">
  <ele>320.447754</ele>
  <time>2011-07-15T08:18:54Z</time>
  <speed>1.810000</speed>
</trkpt>
<trkpt lat="32.729412079" lon="34.996013641">
  <ele>319.932129</ele>
  <time>2011-07-15T08:18:57Z</time>
  <speed>1.740000</speed>
</trkpt>
<trkpt lat="32.729434967" lon="34.996047974">
  <ele>319.986816</ele>
  <time>2011-07-15T08:18:59Z</time>
  <speed>1.610000</speed>
</trkpt>
<trkpt lat="32.729446411" lon="34.996082306">
  <ele>319.283691</ele>
  <time>2011-07-15T08:19:01Z</time>
  <speed>1.660000</speed>
</trkpt>
<trkpt lat="32.729465485" lon="34.996120453">
  <ele>318.627441</ele>
  <time>2011-07-15T08:19:03Z</time>
  <speed>1.640000</speed>
</trkpt>
<trkpt lat="32.729469299" lon="34.996150970">
  <ele>318.260254</ele>
  <time>2011-07-15T08:19:05Z</time>
  <speed>1.860000</speed>
</trkpt>
<trkpt lat="32.729484558" lon="34.996185303">
  <ele>317.869629</ele>
  <time>2011-07-15T08:19:07Z</time>
  <speed>1.820000</speed>
</trkpt>
<trkpt lat="32.729499817" lon="34.996231079">
  <ele>318.322754</ele>
  <time>2011-07-15T08:19:10Z</time>
  <speed>1.910000</speed>
</trkpt>
<trkpt lat="32.729515076" lon="34.996269226">
  <ele>318.447754</ele>
  <time>2011-07-15T08:19:12Z</time>
  <speed>1.940000</speed>
</trkpt>
<trkpt lat="32.729530334" lon="34.996307373">
  <ele>318.627441</ele>
  <time>2011-07-15T08:19:14Z</time>
  <speed>2.150000</speed>
</trkpt>
<trkpt lat="32.729537964" lon="34.996353149">
  <ele>318.768066</ele>
  <time>2011-07-15T08:19:16Z</time>
  <speed>2.030000</speed>
</trkpt>
<trkpt lat="32.729549408" lon="34.996383667">
  <ele>319.182129</ele>
  <time>2011-07-15T08:19:18Z</time>
  <speed>1.910000</speed>
</trkpt>
<trkpt lat="32.729564667" lon="34.996425629">
  <ele>319.885254</ele>
  <time>2011-07-15T08:19:20Z</time>
  <speed>2.130000</speed>
</trkpt>
<trkpt lat="32.729579926" lon="34.996467590">
  <ele>320.299316</ele>
  <time>2011-07-15T08:19:22Z</time>
  <speed>2.100000</speed>
</trkpt>
<trkpt lat="32.729595184" lon="34.996494293">
  <ele>320.846191</ele>
  <time>2011-07-15T08:19:23Z</time>
  <speed>2.020000</speed>
</trkpt>
<trkpt lat="32.729610443" lon="34.996528625">
  <ele>321.330566</ele>
  <time>2011-07-15T08:19:25Z</time>
  <speed>1.950000</speed>
</trkpt>
<trkpt lat="32.729629517" lon="34.996566772">
  <ele>320.885254</ele>
  <time>2011-07-15T08:19:27Z</time>
  <speed>2.070000</speed>
</trkpt>
<trkpt lat="32.729640961" lon="34.996601105">
  <ele>320.518066</ele>
  <time>2011-07-15T08:19:29Z</time>
  <speed>1.920000</speed>
</trkpt>
<trkpt lat="32.729656219" lon="34.996639252">
  <ele>321.057129</ele>
  <time>2011-07-15T08:19:31Z</time>
  <speed>2.060000</speed>
</trkpt>
<trkpt lat="32.729675293" lon="34.996673584">
  <ele>321.393066</ele>
  <time>2011-07-15T08:19:33Z</time>
  <speed>1.720000</speed>
</trkpt>
<trkpt lat="32.729694366" lon="34.996711731">
  <ele>321.338379</ele>
  <time>2011-07-15T08:19:35Z</time>
  <speed>1.920000</speed>
</trkpt>
<trkpt lat="32.729709625" lon="34.996749878">
  <ele>321.299316</ele>
  <time>2011-07-15T08:19:37Z</time>
  <speed>1.980000</speed>
</trkpt>
<trkpt lat="32.729721069" lon="34.996788025">
  <ele>321.760254</ele>
  <time>2011-07-15T08:19:39Z</time>
  <speed>1.630000</speed>
</trkpt>
<trkpt lat="32.729736328" lon="34.996822357">
  <ele>322.643066</ele>
  <time>2011-07-15T08:19:41Z</time>
  <speed>1.700000</speed>
</trkpt>
<trkpt lat="32.729747772" lon="34.996856689">
  <ele>322.471191</ele>
  <time>2011-07-15T08:19:43Z</time>
  <speed>1.620000</speed>
</trkpt>
<trkpt lat="32.729759216" lon="34.996902466">
  <ele>322.721191</ele>
  <time>2011-07-15T08:19:45Z</time>
  <speed>1.500000</speed>
</trkpt>
<trkpt lat="32.729774475" lon="34.996929169">
  <ele>323.111816</ele>
  <time>2011-07-15T08:19:47Z</time>
  <speed>1.320000</speed>
</trkpt>
<trkpt lat="32.729789734" lon="34.996959686">
  <ele>322.338379</ele>
  <time>2011-07-15T08:19:49Z</time>
  <speed>1.580000</speed>
</trkpt>
<trkpt lat="32.729797363" lon="34.997001648">
  <ele>322.369629</ele>
  <time>2011-07-15T08:19:51Z</time>
  <speed>1.630000</speed>
</trkpt>
<trkpt lat="32.729812622" lon="34.997032166">
  <ele>322.283691</ele>
  <time>2011-07-15T08:19:53Z</time>
  <speed>1.980000</speed>
</trkpt>
<trkpt lat="32.729831696" lon="34.997077942">
  <ele>322.666504</ele>
  <time>2011-07-15T08:19:55Z</time>
  <speed>1.970000</speed>
</trkpt>
<trkpt lat="32.729843140" lon="34.997112274">
  <ele>323.111816</ele>
  <time>2011-07-15T08:19:57Z</time>
  <speed>1.770000</speed>
</trkpt>
<trkpt lat="32.729854584" lon="34.997150421">
  <ele>323.275879</ele>
  <time>2011-07-15T08:19:59Z</time>
  <speed>1.860000</speed>
</trkpt>
<trkpt lat="32.729866028" lon="34.997188568">
  <ele>323.471191</ele>
  <time>2011-07-15T08:20:01Z</time>
  <speed>1.860000</speed>
</trkpt>
<trkpt lat="32.729885101" lon="34.997222900">
  <ele>323.869629</ele>
  <time>2011-07-15T08:20:03Z</time>
  <speed>1.790000</speed>
</trkpt>
<trkpt lat="32.729892731" lon="34.997253418">
  <ele>324.658691</ele>
  <time>2011-07-15T08:20:05Z</time>
  <speed>1.810000</speed>
</trkpt>
<trkpt lat="32.729904175" lon="34.997283936">
  <ele>324.197754</ele>
  <time>2011-07-15T08:20:07Z</time>
  <speed>1.750000</speed>
</trkpt>
<trkpt lat="32.729911804" lon="34.997322083">
  <ele>324.721191</ele>
  <time>2011-07-15T08:20:09Z</time>
  <speed>1.740000</speed>
</trkpt>
<trkpt lat="32.729919434" lon="34.997356415">
  <ele>324.846191</ele>
  <time>2011-07-15T08:20:11Z</time>
  <speed>1.570000</speed>
</trkpt>
<trkpt lat="32.729934692" lon="34.997386932">
  <ele>325.213379</ele>
  <time>2011-07-15T08:20:13Z</time>
  <speed>1.270000</speed>
</trkpt>
<trkpt lat="32.729949951" lon="34.997417450">
  <ele>325.963379</ele>
  <time>2011-07-15T08:20:15Z</time>
  <speed>1.810000</speed>
</trkpt>
<trkpt lat="32.729961395" lon="34.997459412">
  <ele>325.939941</ele>
  <time>2011-07-15T08:20:18Z</time>
  <speed>1.040000</speed>
</trkpt>
<trkpt lat="32.729976654" lon="34.997493744">
  <ele>326.916504</ele>
  <time>2011-07-15T08:20:21Z</time>
  <speed>1.070000</speed>
</trkpt>
<trkpt lat="32.729991913" lon="34.997528076">
  <ele>327.549316</ele>
  <time>2011-07-15T08:20:24Z</time>
  <speed>1.330000</speed>
</trkpt>
<trkpt lat="32.729995728" lon="34.997573853">
  <ele>327.221191</ele>
  <time>2011-07-15T08:20:27Z</time>
  <speed>1.360000</speed>
</trkpt>
<trkpt lat="32.730003357" lon="34.997604370">
  <ele>327.525879</ele>
  <time>2011-07-15T08:20:29Z</time>
  <speed>1.590000</speed>
</trkpt>
<trkpt lat="32.730003357" lon="34.997646332">
  <ele>328.322754</ele>
  <time>2011-07-15T08:20:32Z</time>
  <speed>1.650000</speed>
</trkpt>
<trkpt lat="32.730007172" lon="34.997684479">
  <ele>328.213379</ele>
  <time>2011-07-15T08:20:34Z</time>
  <speed>1.610000</speed>
</trkpt>
<trkpt lat="32.730003357" lon="34.997718811">
  <ele>328.682129</ele>
  <time>2011-07-15T08:20:36Z</time>
  <speed>1.620000</speed>
</trkpt>
<trkpt lat="32.730003357" lon="34.997756958">
  <ele>329.143066</ele>
  <time>2011-07-15T08:20:38Z</time>
  <speed>2.030000</speed>
</trkpt>
<trkpt lat="32.729999542" lon="34.997791290">
  <ele>329.791504</ele>
  <time>2011-07-15T08:20:40Z</time>
  <speed>1.750000</speed>
</trkpt>
<trkpt lat="32.730003357" lon="34.997833252">
  <ele>329.768066</ele>
  <time>2011-07-15T08:20:42Z</time>
  <speed>1.670000</speed>
</trkpt>
<trkpt lat="32.730007172" lon="34.997867584">
  <ele>330.033691</ele>
  <time>2011-07-15T08:20:44Z</time>
  <speed>1.780000</speed>
</trkpt>
<trkpt lat="32.730010986" lon="34.997909546">
  <ele>330.893066</ele>
  <time>2011-07-15T08:20:47Z</time>
  <speed>1.360000</speed>
</trkpt>
<trkpt lat="32.730018616" lon="34.997955322">
  <ele>331.932129</ele>
  <time>2011-07-15T08:20:50Z</time>
  <speed>1.560000</speed>
</trkpt>
<trkpt lat="32.730018616" lon="34.998001099">
  <ele>332.072754</ele>
  <time>2011-07-15T08:20:53Z</time>
  <speed>1.580000</speed>
</trkpt>
<trkpt lat="32.730022430" lon="34.998043060">
  <ele>331.588379</ele>
  <time>2011-07-15T08:20:56Z</time>
  <speed>1.530000</speed>
</trkpt>
<trkpt lat="32.730030060" lon="34.998077393">
  <ele>332.385254</ele>
  <time>2011-07-15T08:20:58Z</time>
  <speed>1.780000</speed>
</trkpt>
<trkpt lat="32.730026245" lon="34.998115540">
  <ele>332.510254</ele>
  <time>2011-07-15T08:21:00Z</time>
  <speed>1.550000</speed>
</trkpt>
<trkpt lat="32.730022430" lon="34.998157501">
  <ele>331.838379</ele>
  <time>2011-07-15T08:21:03Z</time>
  <speed>1.640000</speed>
</trkpt>
<trkpt lat="32.730026245" lon="34.998191833">
  <ele>331.393066</ele>
  <time>2011-07-15T08:21:04Z</time>
  <speed>1.780000</speed>
</trkpt>
<trkpt lat="32.730022430" lon="34.998226166">
  <ele>331.424316</ele>
  <time>2011-07-15T08:21:06Z</time>
  <speed>1.410000</speed>
</trkpt>
<trkpt lat="32.730022430" lon="34.998260498">
  <ele>331.986816</ele>
  <time>2011-07-15T08:21:08Z</time>
  <speed>1.540000</speed>
</trkpt>
<trkpt lat="32.730033875" lon="34.998294830">
  <ele>332.564941</ele>
  <time>2011-07-15T08:21:10Z</time>
  <speed>1.360000</speed>
</trkpt>
<trkpt lat="32.730041504" lon="34.998332977">
  <ele>332.775879</ele>
  <time>2011-07-15T08:21:12Z</time>
  <speed>1.660000</speed>
</trkpt>
<trkpt lat="32.730041504" lon="34.998378754">
  <ele>332.854004</ele>
  <time>2011-07-15T08:21:14Z</time>
  <speed>1.650000</speed>
</trkpt>
<trkpt lat="32.730052948" lon="34.998424530">
  <ele>333.377441</ele>
  <time>2011-07-15T08:21:17Z</time>
  <speed>1.720000</speed>
</trkpt>
<trkpt lat="32.730075836" lon="34.998462677">
  <ele>333.643066</ele>
  <time>2011-07-15T08:21:20Z</time>
  <speed>2.010000</speed>
</trkpt>
<trkpt lat="32.730094910" lon="34.998497009">
  <ele>334.033691</ele>
  <time>2011-07-15T08:21:22Z</time>
  <speed>1.820000</speed>
</trkpt>
<trkpt lat="32.730106354" lon="34.998542786">
  <ele>333.947754</ele>
  <time>2011-07-15T08:21:24Z</time>
  <speed>1.960000</speed>
</trkpt>
<trkpt lat="32.730121613" lon="34.998573303">
  <ele>334.564941</ele>
  <time>2011-07-15T08:21:26Z</time>
  <speed>1.680000</speed>
</trkpt>
<trkpt lat="32.730133057" lon="34.998611450">
  <ele>335.049316</ele>
  <time>2011-07-15T08:21:28Z</time>
  <speed>1.760000</speed>
</trkpt>
<trkpt lat="32.730144501" lon="34.998641968">
  <ele>335.486816</ele>
  <time>2011-07-15T08:21:31Z</time>
  <speed>1.670000</speed>
</trkpt>
<trkpt lat="32.730163574" lon="34.998680115">
  <ele>336.135254</ele>
  <time>2011-07-15T08:21:33Z</time>
  <speed>1.690000</speed>
</trkpt>
<trkpt lat="32.730178833" lon="34.998718262">
  <ele>336.775879</ele>
  <time>2011-07-15T08:21:35Z</time>
  <speed>1.630000</speed>
</trkpt>
<trkpt lat="32.730209351" lon="34.998744965">
  <ele>336.619629</ele>
  <time>2011-07-15T08:21:37Z</time>
  <speed>1.410000</speed>
</trkpt>
<trkpt lat="32.730232239" lon="34.998764038">
  <ele>336.979004</ele>
  <time>2011-07-15T08:21:39Z</time>
  <speed>1.450000</speed>
</trkpt>
<trkpt lat="32.730266571" lon="34.998760223">
  <ele>335.963379</ele>
  <time>2011-07-15T08:21:42Z</time>
  <speed>0.920000</speed>
</trkpt>
<trkpt lat="32.730289459" lon="34.998779297">
  <ele>336.502441</ele>
  <time>2011-07-15T08:21:45Z</time>
  <speed>1.150000</speed>
</trkpt>
<trkpt lat="32.730319977" lon="34.998794556">
  <ele>335.213379</ele>
  <time>2011-07-15T08:21:50Z</time>
  <speed>1.430000</speed>
</trkpt>
<trkpt lat="32.730358124" lon="34.998802185">
  <ele>334.947754</ele>
  <time>2011-07-15T08:21:53Z</time>
  <speed>0.900000</speed>
</trkpt>
<trkpt lat="32.730381012" lon="34.998809814">
  <ele>335.729004</ele>
  <time>2011-07-15T08:21:55Z</time>
  <speed>1.100000</speed>
</trkpt>
<trkpt lat="32.730407715" lon="34.998832703">
  <ele>335.182129</ele>
  <time>2011-07-15T08:21:58Z</time>
  <speed>1.350000</speed>
</trkpt>
<trkpt lat="32.730438232" lon="34.998859406">
  <ele>335.408691</ele>
  <time>2011-07-15T08:22:00Z</time>
  <speed>1.290000</speed>
</trkpt>
<trkpt lat="32.730464935" lon="34.998886108">
  <ele>335.986816</ele>
  <time>2011-07-15T08:22:03Z</time>
  <speed>1.270000</speed>
</trkpt>
<trkpt lat="32.730480194" lon="34.998920441">
  <ele>336.596191</ele>
  <time>2011-07-15T08:22:06Z</time>
  <speed>1.160000</speed>
</trkpt>
<trkpt lat="32.730495453" lon="34.998950958">
  <ele>336.666504</ele>
  <time>2011-07-15T08:22:09Z</time>
  <speed>0.740000</speed>
</trkpt>
<trkpt lat="32.730506897" lon="34.998985291">
  <ele>336.002441</ele>
  <time>2011-07-15T08:22:15Z</time>
  <speed>0.610000</speed>
</trkpt>
<trkpt lat="32.730522156" lon="34.999011993">
  <ele>334.096191</ele>
  <time>2011-07-15T08:22:21Z</time>
  <speed>0.060000</speed>
</trkpt>
<trkpt lat="32.730548859" lon="34.999008179">
  <ele>334.182129</ele>
  <time>2011-07-15T08:22:40Z</time>
  <speed>0.060000</speed>
</trkpt>
<trkpt lat="32.730552673" lon="34.999023438">
  <ele>337.127441</ele>
  <time>2011-07-15T08:23:10Z</time>
  <speed>0.620000</speed>
</trkpt>
<trkpt lat="32.730571747" lon="34.999042511">
  <ele>335.893066</ele>
  <time>2011-07-15T08:23:16Z</time>
  <speed>1.030000</speed>
</trkpt>
<trkpt lat="32.730587006" lon="34.999084473">
  <ele>336.385254</ele>
  <time>2011-07-15T08:23:19Z</time>
  <speed>1.570000</speed>
</trkpt>
<trkpt lat="32.730606079" lon="34.999118805">
  <ele>336.619629</ele>
  <time>2011-07-15T08:23:22Z</time>
  <speed>1.550000</speed>
</trkpt>
<trkpt lat="32.730613708" lon="34.999168396">
  <ele>337.369629</ele>
  <time>2011-07-15T08:23:24Z</time>
  <speed>2.270000</speed>
</trkpt>
<trkpt lat="32.730625153" lon="34.999210358">
  <ele>337.291504</ele>
  <time>2011-07-15T08:23:26Z</time>
  <speed>2.200000</speed>
</trkpt>
<trkpt lat="32.730644226" lon="34.999252319">
  <ele>337.354004</ele>
  <time>2011-07-15T08:23:28Z</time>
  <speed>2.420000</speed>
</trkpt>
<trkpt lat="32.730659485" lon="34.999294281">
  <ele>337.510254</ele>
  <time>2011-07-15T08:23:30Z</time>
  <speed>1.890000</speed>
</trkpt>
<trkpt lat="32.730678558" lon="34.999347687">
  <ele>337.588379</ele>
  <time>2011-07-15T08:23:33Z</time>
  <speed>2.220000</speed>
</trkpt>
<trkpt lat="32.730701447" lon="34.999385834">
  <ele>337.713379</ele>
  <time>2011-07-15T08:23:35Z</time>
  <speed>2.440000</speed>
</trkpt>
<trkpt lat="32.730716705" lon="34.999435425">
  <ele>338.291504</ele>
  <time>2011-07-15T08:23:37Z</time>
  <speed>2.540000</speed>
</trkpt>
<trkpt lat="32.730731964" lon="34.999481201">
  <ele>337.814941</ele>
  <time>2011-07-15T08:23:39Z</time>
  <speed>2.010000</speed>
</trkpt>
<trkpt lat="32.730739594" lon="34.999530792">
  <ele>337.502441</ele>
  <time>2011-07-15T08:23:41Z</time>
  <speed>2.380000</speed>
</trkpt>
<trkpt lat="32.730743408" lon="34.999580383">
  <ele>337.182129</ele>
  <time>2011-07-15T08:23:43Z</time>
  <speed>2.160000</speed>
</trkpt>
<trkpt lat="32.730758667" lon="34.999629974">
  <ele>337.666504</ele>
  <time>2011-07-15T08:23:45Z</time>
  <speed>2.650000</speed>
</trkpt>
<trkpt lat="32.730777740" lon="34.999679565">
  <ele>337.689941</ele>
  <time>2011-07-15T08:23:47Z</time>
  <speed>2.360000</speed>
</trkpt>
<trkpt lat="32.730789185" lon="34.999725342">
  <ele>338.182129</ele>
  <time>2011-07-15T08:23:49Z</time>
  <speed>2.310000</speed>
</trkpt>
<trkpt lat="32.730777740" lon="34.999786377">
  <ele>336.963379</ele>
  <time>2011-07-15T08:23:51Z</time>
  <speed>2.780000</speed>
</trkpt>
<trkpt lat="32.730770111" lon="34.999847412">
  <ele>337.205566</ele>
  <time>2011-07-15T08:23:53Z</time>
  <speed>2.930000</speed>
</trkpt>
<trkpt lat="32.730766296" lon="34.999904633">
  <ele>337.158691</ele>
  <time>2011-07-15T08:23:55Z</time>
  <speed>2.870000</speed>
</trkpt>
<trkpt lat="32.730766296" lon="34.999938965">
  <ele>337.205566</ele>
  <time>2011-07-15T08:23:56Z</time>
  <speed>2.600000</speed>
</trkpt>
<trkpt lat="32.730754852" lon="35.000003815">
  <ele>337.393066</ele>
  <time>2011-07-15T08:23:58Z</time>
  <speed>3.260000</speed>
</trkpt>
<trkpt lat="32.730743408" lon="35.000034332">
  <ele>337.643066</ele>
  <time>2011-07-15T08:23:59Z</time>
  <speed>3.170000</speed>
</trkpt>
<trkpt lat="32.730743408" lon="35.000072479">
  <ele>337.963379</ele>
  <time>2011-07-15T08:24:00Z</time>
  <speed>3.320000</speed>
</trkpt>
<trkpt lat="32.730739594" lon="35.000106812">
  <ele>338.314941</ele>
  <time>2011-07-15T08:24:01Z</time>
  <speed>3.420000</speed>
</trkpt>
<trkpt lat="32.730731964" lon="35.000141144">
  <ele>338.502441</ele>
  <time>2011-07-15T08:24:02Z</time>
  <speed>3.470000</speed>
</trkpt>
<trkpt lat="32.730724335" lon="35.000179291">
  <ele>338.650879</ele>
  <time>2011-07-15T08:24:03Z</time>
  <speed>3.420000</speed>
</trkpt>
<trkpt lat="32.730724335" lon="35.000221252">
  <ele>339.268066</ele>
  <time>2011-07-15T08:24:04Z</time>
  <speed>3.520000</speed>
</trkpt>
<trkpt lat="32.730716705" lon="35.000263214">
  <ele>340.518066</ele>
  <time>2011-07-15T08:24:05Z</time>
  <speed>3.440000</speed>
</trkpt>
<trkpt lat="32.730709076" lon="35.000297546">
  <ele>340.947754</ele>
  <time>2011-07-15T08:24:06Z</time>
  <speed>3.420000</speed>
</trkpt>
<trkpt lat="32.730701447" lon="35.000331879">
  <ele>340.588379</ele>
  <time>2011-07-15T08:24:07Z</time>
  <speed>3.290000</speed>
</trkpt>
<trkpt lat="32.730693817" lon="35.000366211">
  <ele>340.502441</ele>
  <time>2011-07-15T08:24:08Z</time>
  <speed>3.380000</speed>
</trkpt>
<trkpt lat="32.730686188" lon="35.000404358">
  <ele>340.447754</ele>
  <time>2011-07-15T08:24:09Z</time>
  <speed>3.590000</speed>
</trkpt>
<trkpt lat="32.730682373" lon="35.000442505">
  <ele>340.705566</ele>
  <time>2011-07-15T08:24:10Z</time>
  <speed>3.490000</speed>
</trkpt>
<trkpt lat="32.730682373" lon="35.000476837">
  <ele>341.275879</ele>
  <time>2011-07-15T08:24:11Z</time>
  <speed>3.520000</speed>
</trkpt>
<trkpt lat="32.730682373" lon="35.000514984">
  <ele>341.182129</ele>
  <time>2011-07-15T08:24:12Z</time>
  <speed>3.630000</speed>
</trkpt>
<trkpt lat="32.730686188" lon="35.000556946">
  <ele>341.533691</ele>
  <time>2011-07-15T08:24:13Z</time>
  <speed>3.480000</speed>
</trkpt>
<trkpt lat="32.730682373" lon="35.000591278">
  <ele>341.291504</ele>
  <time>2011-07-15T08:24:14Z</time>
  <speed>3.610000</speed>
</trkpt>
<trkpt lat="32.730678558" lon="35.000629425">
  <ele>342.252441</ele>
  <time>2011-07-15T08:24:15Z</time>
  <speed>3.670000</speed>
</trkpt>
<trkpt lat="32.730682373" lon="35.000675201">
  <ele>341.322754</ele>
  <time>2011-07-15T08:24:16Z</time>
  <speed>3.880000</speed>
</trkpt>
<trkpt lat="32.730678558" lon="35.000717163">
  <ele>341.299316</ele>
  <time>2011-07-15T08:24:17Z</time>
  <speed>3.970000</speed>
</trkpt>
<trkpt lat="32.730682373" lon="35.000762939">
  <ele>340.494629</ele>
  <time>2011-07-15T08:24:18Z</time>
  <speed>3.990000</speed>
</trkpt>
<trkpt lat="32.730678558" lon="35.000801086">
  <ele>339.572754</ele>
  <time>2011-07-15T08:24:19Z</time>
  <speed>3.740000</speed>
</trkpt>
<trkpt lat="32.730682373" lon="35.000843048">
  <ele>340.213379</ele>
  <time>2011-07-15T08:24:20Z</time>
  <speed>3.480000</speed>
</trkpt>
<trkpt lat="32.730682373" lon="35.000881195">
  <ele>340.455566</ele>
  <time>2011-07-15T08:24:21Z</time>
  <speed>3.310000</speed>
</trkpt>
<trkpt lat="32.730686188" lon="35.000915527">
  <ele>340.299316</ele>
  <time>2011-07-15T08:24:22Z</time>
  <speed>3.170000</speed>
</trkpt>
<trkpt lat="32.730678558" lon="35.000946045">
  <ele>339.947754</ele>
  <time>2011-07-15T08:24:23Z</time>
  <speed>3.170000</speed>
</trkpt>
<trkpt lat="32.730670929" lon="35.000980377">
  <ele>339.260254</ele>
  <time>2011-07-15T08:24:24Z</time>
  <speed>3.520000</speed>
</trkpt>
<trkpt lat="32.730659485" lon="35.001022339">
  <ele>339.502441</ele>
  <time>2011-07-15T08:24:25Z</time>
  <speed>3.990000</speed>
</trkpt>
<trkpt lat="32.730655670" lon="35.001064301">
  <ele>339.127441</ele>
  <time>2011-07-15T08:24:26Z</time>
  <speed>3.960000</speed>
</trkpt>
<trkpt lat="32.730644226" lon="35.001117706">
  <ele>340.010254</ele>
  <time>2011-07-15T08:24:27Z</time>
  <speed>4.020000</speed>
</trkpt>
<trkpt lat="32.730632782" lon="35.001159668">
  <ele>340.135254</ele>
  <time>2011-07-15T08:24:28Z</time>
  <speed>4.150000</speed>
</trkpt>
<trkpt lat="32.730625153" lon="35.001201630">
  <ele>339.924316</ele>
  <time>2011-07-15T08:24:29Z</time>
  <speed>4.270000</speed>
</trkpt>
<trkpt lat="32.730609894" lon="35.001243591">
  <ele>339.893066</ele>
  <time>2011-07-15T08:24:30Z</time>
  <speed>3.960000</speed>
</trkpt>
<trkpt lat="32.730598450" lon="35.001274109">
  <ele>339.627441</ele>
  <time>2011-07-15T08:24:31Z</time>
  <speed>3.780000</speed>
</trkpt>
<trkpt lat="32.730587006" lon="35.001312256">
  <ele>339.494629</ele>
  <time>2011-07-15T08:24:32Z</time>
  <speed>3.670000</speed>
</trkpt>
<trkpt lat="32.730571747" lon="35.001354218">
  <ele>340.283691</ele>
  <time>2011-07-15T08:24:33Z</time>
  <speed>3.920000</speed>
</trkpt>
<trkpt lat="32.730567932" lon="35.001392365">
  <ele>339.932129</ele>
  <time>2011-07-15T08:24:34Z</time>
  <speed>3.880000</speed>
</trkpt>
<trkpt lat="32.730564117" lon="35.001434326">
  <ele>339.650879</ele>
  <time>2011-07-15T08:24:35Z</time>
  <speed>3.520000</speed>
</trkpt>
<trkpt lat="32.730560303" lon="35.001472473">
  <ele>339.932129</ele>
  <time>2011-07-15T08:24:36Z</time>
  <speed>3.640000</speed>
</trkpt>
<trkpt lat="32.730556488" lon="35.001518250">
  <ele>339.924316</ele>
  <time>2011-07-15T08:24:37Z</time>
  <speed>3.950000</speed>
</trkpt>
<trkpt lat="32.730548859" lon="35.001560211">
  <ele>340.189941</ele>
  <time>2011-07-15T08:24:38Z</time>
  <speed>3.530000</speed>
</trkpt>
<trkpt lat="32.730537415" lon="35.001598358">
  <ele>340.143066</ele>
  <time>2011-07-15T08:24:39Z</time>
  <speed>3.760000</speed>
</trkpt>
<trkpt lat="32.730529785" lon="35.001632690">
  <ele>339.861816</ele>
  <time>2011-07-15T08:24:40Z</time>
  <speed>3.430000</speed>
</trkpt>
<trkpt lat="32.730518341" lon="35.001670837">
  <ele>340.619629</ele>
  <time>2011-07-15T08:24:41Z</time>
  <speed>3.680000</speed>
</trkpt>
<trkpt lat="32.730518341" lon="35.001708984">
  <ele>339.994629</ele>
  <time>2011-07-15T08:24:42Z</time>
  <speed>3.400000</speed>
</trkpt>
<trkpt lat="32.730514526" lon="35.001743317">
  <ele>339.572754</ele>
  <time>2011-07-15T08:24:43Z</time>
  <speed>3.240000</speed>
</trkpt>
<trkpt lat="32.730518341" lon="35.001777649">
  <ele>339.307129</ele>
  <time>2011-07-15T08:24:44Z</time>
  <speed>3.230000</speed>
</trkpt>
<trkpt lat="32.730522156" lon="35.001815796">
  <ele>338.346191</ele>
  <time>2011-07-15T08:24:45Z</time>
  <speed>2.930000</speed>
</trkpt>
<trkpt lat="32.730514526" lon="35.001869202">
  <ele>337.229004</ele>
  <time>2011-07-15T08:24:47Z</time>
  <speed>2.810000</speed>
</trkpt>
<trkpt lat="32.730499268" lon="35.001934052">
  <ele>339.861816</ele>
  <time>2011-07-15T08:24:49Z</time>
  <speed>2.400000</speed>
</trkpt>
<trkpt lat="32.730495453" lon="35.001983643">
  <ele>340.064941</ele>
  <time>2011-07-15T08:24:51Z</time>
  <speed>2.620000</speed>
</trkpt>
<trkpt lat="32.730484009" lon="35.002044678">
  <ele>340.369629</ele>
  <time>2011-07-15T08:24:53Z</time>
  <speed>2.810000</speed>
</trkpt>
<trkpt lat="32.730476379" lon="35.002113342">
  <ele>340.768066</ele>
  <time>2011-07-15T08:24:55Z</time>
  <speed>2.740000</speed>
</trkpt>
<trkpt lat="32.730472565" lon="35.002143860">
  <ele>341.518066</ele>
  <time>2011-07-15T08:24:56Z</time>
  <speed>2.710000</speed>
</trkpt>
<trkpt lat="32.730472565" lon="35.002204895">
  <ele>341.447754</ele>
  <time>2011-07-15T08:24:58Z</time>
  <speed>2.600000</speed>
</trkpt>
<trkpt lat="32.730472565" lon="35.002254486">
  <ele>342.471191</ele>
  <time>2011-07-15T08:25:00Z</time>
  <speed>1.990000</speed>
</trkpt>
<trkpt lat="32.730487823" lon="35.002296448">
  <ele>343.127441</ele>
  <time>2011-07-15T08:25:02Z</time>
  <speed>1.620000</speed>
</trkpt>
<trkpt lat="32.730522156" lon="35.002326965">
  <ele>343.572754</ele>
  <time>2011-07-15T08:25:04Z</time>
  <speed>1.750000</speed>
</trkpt>
<trkpt lat="32.730556488" lon="35.002334595">
  <ele>342.822754</ele>
  <time>2011-07-15T08:25:06Z</time>
  <speed>2.130000</speed>
</trkpt>
<trkpt lat="32.730598450" lon="35.002323151">
  <ele>343.908691</ele>
  <time>2011-07-15T08:25:08Z</time>
  <speed>2.030000</speed>
</trkpt>
<trkpt lat="32.730632782" lon="35.002346039">
  <ele>344.666504</ele>
  <time>2011-07-15T08:25:10Z</time>
  <speed>2.170000</speed>
</trkpt>
<trkpt lat="32.730663300" lon="35.002384186">
  <ele>345.564941</ele>
  <time>2011-07-15T08:25:12Z</time>
  <speed>2.290000</speed>
</trkpt>
<trkpt lat="32.730670929" lon="35.002437592">
  <ele>345.814941</ele>
  <time>2011-07-15T08:25:14Z</time>
  <speed>2.340000</speed>
</trkpt>
<trkpt lat="32.730651855" lon="35.002487183">
  <ele>346.174316</ele>
  <time>2011-07-15T08:25:16Z</time>
  <speed>2.300000</speed>
</trkpt>
<trkpt lat="32.730628967" lon="35.002529144">
  <ele>346.033691</ele>
  <time>2011-07-15T08:25:18Z</time>
  <speed>2.220000</speed>
</trkpt>
<trkpt lat="32.730617523" lon="35.002559662">
  <ele>346.549316</ele>
  <time>2011-07-15T08:25:19Z</time>
  <speed>2.650000</speed>
</trkpt>
<trkpt lat="32.730602264" lon="35.002586365">
  <ele>347.299316</ele>
  <time>2011-07-15T08:25:20Z</time>
  <speed>2.580000</speed>
</trkpt>
<trkpt lat="32.730594635" lon="35.002643585">
  <ele>346.494629</ele>
  <time>2011-07-15T08:25:22Z</time>
  <speed>2.760000</speed>
</trkpt>
<trkpt lat="32.730579376" lon="35.002704620">
  <ele>346.377441</ele>
  <time>2011-07-15T08:25:24Z</time>
  <speed>2.780000</speed>
</trkpt>
<trkpt lat="32.730571747" lon="35.002735138">
  <ele>347.854004</ele>
  <time>2011-07-15T08:25:25Z</time>
  <speed>2.660000</speed>
</trkpt>
<trkpt lat="32.730567932" lon="35.002796173">
  <ele>348.564941</ele>
  <time>2011-07-15T08:25:27Z</time>
  <speed>2.720000</speed>
</trkpt>
<trkpt lat="32.730556488" lon="35.002845764">
  <ele>349.752441</ele>
  <time>2011-07-15T08:25:29Z</time>
  <speed>2.360000</speed>
</trkpt>
<trkpt lat="32.730548859" lon="35.002895355">
  <ele>350.346191</ele>
  <time>2011-07-15T08:25:31Z</time>
  <speed>2.350000</speed>
</trkpt>
<trkpt lat="32.730545044" lon="35.002944946">
  <ele>350.025879</ele>
  <time>2011-07-15T08:25:33Z</time>
  <speed>2.260000</speed>
</trkpt>
<trkpt lat="32.730537415" lon="35.002986908">
  <ele>349.479004</ele>
  <time>2011-07-15T08:25:35Z</time>
  <speed>2.180000</speed>
</trkpt>
<trkpt lat="32.730533600" lon="35.003028870">
  <ele>351.721191</ele>
  <time>2011-07-15T08:25:37Z</time>
  <speed>1.890000</speed>
</trkpt>
<trkpt lat="32.730545044" lon="35.003074646">
  <ele>351.369629</ele>
  <time>2011-07-15T08:25:39Z</time>
  <speed>2.150000</speed>
</trkpt>
<trkpt lat="32.730548859" lon="35.003128052">
  <ele>351.447754</ele>
  <time>2011-07-15T08:25:41Z</time>
  <speed>2.250000</speed>
</trkpt>
<trkpt lat="32.730548859" lon="35.003177643">
  <ele>352.557129</ele>
  <time>2011-07-15T08:25:43Z</time>
  <speed>1.990000</speed>
</trkpt>
<trkpt lat="32.730560303" lon="35.003227234">
  <ele>354.471191</ele>
  <time>2011-07-15T08:25:45Z</time>
  <speed>2.220000</speed>
</trkpt>
<trkpt lat="32.730575562" lon="35.003265381">
  <ele>354.424316</ele>
  <time>2011-07-15T08:25:47Z</time>
  <speed>2.150000</speed>
</trkpt>
<trkpt lat="32.730606079" lon="35.003322601">
  <ele>353.494629</ele>
  <time>2011-07-15T08:25:49Z</time>
  <speed>2.300000</speed>
</trkpt>
<trkpt lat="32.730621338" lon="35.003364563">
  <ele>352.791504</ele>
  <time>2011-07-15T08:25:51Z</time>
  <speed>2.180000</speed>
</trkpt>
<trkpt lat="32.730640411" lon="35.003406525">
  <ele>354.018066</ele>
  <time>2011-07-15T08:25:53Z</time>
  <speed>2.290000</speed>
</trkpt>
<trkpt lat="32.730655670" lon="35.003444672">
  <ele>354.307129</ele>
  <time>2011-07-15T08:25:55Z</time>
  <speed>2.100000</speed>
</trkpt>
<trkpt lat="32.730690002" lon="35.003475189">
  <ele>353.557129</ele>
  <time>2011-07-15T08:25:57Z</time>
  <speed>1.870000</speed>
</trkpt>
<trkpt lat="32.730712891" lon="35.003498077">
  <ele>352.752441</ele>
  <time>2011-07-15T08:25:59Z</time>
  <speed>1.980000</speed>
</trkpt>
<trkpt lat="32.730720520" lon="35.003536224">
  <ele>353.354004</ele>
  <time>2011-07-15T08:26:01Z</time>
  <speed>1.740000</speed>
</trkpt>
<trkpt lat="32.730758667" lon="35.003566742">
  <ele>352.979004</ele>
  <time>2011-07-15T08:26:03Z</time>
  <speed>1.900000</speed>
</trkpt>
<trkpt lat="32.730785370" lon="35.003604889">
  <ele>352.479004</ele>
  <time>2011-07-15T08:26:05Z</time>
  <speed>2.000000</speed>
</trkpt>
<trkpt lat="32.730796814" lon="35.003646851">
  <ele>352.479004</ele>
  <time>2011-07-15T08:26:07Z</time>
  <speed>1.850000</speed>
</trkpt>
<trkpt lat="32.730815887" lon="35.003684998">
  <ele>352.088379</ele>
  <time>2011-07-15T08:26:09Z</time>
  <speed>1.610000</speed>
</trkpt>
<trkpt lat="32.730834961" lon="35.003715515">
  <ele>351.533691</ele>
  <time>2011-07-15T08:26:11Z</time>
  <speed>1.770000</speed>
</trkpt>
<trkpt lat="32.730850220" lon="35.003746033">
  <ele>351.986816</ele>
  <time>2011-07-15T08:26:13Z</time>
  <speed>1.920000</speed>
</trkpt>
<trkpt lat="32.730854034" lon="35.003787994">
  <ele>351.502441</ele>
  <time>2011-07-15T08:26:15Z</time>
  <speed>2.020000</speed>
</trkpt>
<trkpt lat="32.730869293" lon="35.003833771">
  <ele>351.346191</ele>
  <time>2011-07-15T08:26:17Z</time>
  <speed>2.340000</speed>
</trkpt>
<trkpt lat="32.730884552" lon="35.003860474">
  <ele>351.518066</ele>
  <time>2011-07-15T08:26:18Z</time>
  <speed>2.510000</speed>
</trkpt>
<trkpt lat="32.730922699" lon="35.003902435">
  <ele>351.619629</ele>
  <time>2011-07-15T08:26:20Z</time>
  <speed>2.110000</speed>
</trkpt>
<trkpt lat="32.730953217" lon="35.003929138">
  <ele>351.838379</ele>
  <time>2011-07-15T08:26:22Z</time>
  <speed>2.710000</speed>
</trkpt>
<trkpt lat="32.730995178" lon="35.003952026">
  <ele>351.807129</ele>
  <time>2011-07-15T08:26:24Z</time>
  <speed>2.690000</speed>
</trkpt>
<trkpt lat="32.731037140" lon="35.003967285">
  <ele>351.838379</ele>
  <time>2011-07-15T08:26:26Z</time>
  <speed>2.320000</speed>
</trkpt>
<trkpt lat="32.731075287" lon="35.003982544">
  <ele>351.252441</ele>
  <time>2011-07-15T08:26:28Z</time>
  <speed>2.460000</speed>
</trkpt>
<trkpt lat="32.731113434" lon="35.004005432">
  <ele>352.064941</ele>
  <time>2011-07-15T08:26:30Z</time>
  <speed>2.560000</speed>
</trkpt>
<trkpt lat="32.731155396" lon="35.004039764">
  <ele>352.174316</ele>
  <time>2011-07-15T08:26:32Z</time>
  <speed>2.400000</speed>
</trkpt>
<trkpt lat="32.731189728" lon="35.004074097">
  <ele>352.143066</ele>
  <time>2011-07-15T08:26:34Z</time>
  <speed>2.490000</speed>
</trkpt>
<trkpt lat="32.731216431" lon="35.004112244">
  <ele>352.143066</ele>
  <time>2011-07-15T08:26:36Z</time>
  <speed>2.460000</speed>
</trkpt>
<trkpt lat="32.731239319" lon="35.004154205">
  <ele>352.635254</ele>
  <time>2011-07-15T08:26:38Z</time>
  <speed>2.540000</speed>
</trkpt>
<trkpt lat="32.731262207" lon="35.004199982">
  <ele>352.689941</ele>
  <time>2011-07-15T08:26:40Z</time>
  <speed>2.530000</speed>
</trkpt>
<trkpt lat="32.731285095" lon="35.004238129">
  <ele>352.799316</ele>
  <time>2011-07-15T08:26:42Z</time>
  <speed>2.530000</speed>
</trkpt>
<trkpt lat="32.731300354" lon="35.004287720">
  <ele>353.768066</ele>
  <time>2011-07-15T08:26:44Z</time>
  <speed>2.500000</speed>
</trkpt>
<trkpt lat="32.731327057" lon="35.004333496">
  <ele>354.088379</ele>
  <time>2011-07-15T08:26:46Z</time>
  <speed>2.660000</speed>
</trkpt>
<trkpt lat="32.731338501" lon="35.004375458">
  <ele>355.283691</ele>
  <time>2011-07-15T08:26:48Z</time>
  <speed>2.400000</speed>
</trkpt>
<trkpt lat="32.731357574" lon="35.004421234">
  <ele>355.275879</ele>
  <time>2011-07-15T08:26:50Z</time>
  <speed>2.420000</speed>
</trkpt>
<trkpt lat="32.731365204" lon="35.004467010">
  <ele>354.752441</ele>
  <time>2011-07-15T08:26:52Z</time>
  <speed>2.380000</speed>
</trkpt>
<trkpt lat="32.731369019" lon="35.004516602">
  <ele>354.338379</ele>
  <time>2011-07-15T08:26:54Z</time>
  <speed>2.170000</speed>
</trkpt>
<trkpt lat="32.731388092" lon="35.004570007">
  <ele>354.963379</ele>
  <time>2011-07-15T08:26:56Z</time>
  <speed>2.420000</speed>
</trkpt>
<trkpt lat="32.731407166" lon="35.004623413">
  <ele>356.143066</ele>
  <time>2011-07-15T08:26:58Z</time>
  <speed>2.390000</speed>
</trkpt>
<trkpt lat="32.731414795" lon="35.004665375">
  <ele>356.072754</ele>
  <time>2011-07-15T08:27:00Z</time>
  <speed>2.090000</speed>
</trkpt>
<trkpt lat="32.731441498" lon="35.004695892">
  <ele>356.955566</ele>
  <time>2011-07-15T08:27:01Z</time>
  <speed>2.380000</speed>
</trkpt>
<trkpt lat="32.731449127" lon="35.004749298">
  <ele>357.385254</ele>
  <time>2011-07-15T08:27:03Z</time>
  <speed>2.450000</speed>
</trkpt>
<trkpt lat="32.731460571" lon="35.004795074">
  <ele>356.893066</ele>
  <time>2011-07-15T08:27:05Z</time>
  <speed>2.140000</speed>
</trkpt>
<trkpt lat="32.731479645" lon="35.004821777">
  <ele>356.908691</ele>
  <time>2011-07-15T08:27:06Z</time>
  <speed>2.400000</speed>
</trkpt>
<trkpt lat="32.731494904" lon="35.004871368">
  <ele>356.768066</ele>
  <time>2011-07-15T08:27:08Z</time>
  <speed>2.240000</speed>
</trkpt>
<trkpt lat="32.731510162" lon="35.004917145">
  <ele>357.377441</ele>
  <time>2011-07-15T08:27:10Z</time>
  <speed>2.690000</speed>
</trkpt>
<trkpt lat="32.731536865" lon="35.004962921">
  <ele>356.760254</ele>
  <time>2011-07-15T08:27:12Z</time>
  <speed>2.380000</speed>
</trkpt>
<trkpt lat="32.731559753" lon="35.005008698">
  <ele>357.400879</ele>
  <time>2011-07-15T08:27:14Z</time>
  <speed>2.560000</speed>
</trkpt>
<trkpt lat="32.731571198" lon="35.005039215">
  <ele>357.416504</ele>
  <time>2011-07-15T08:27:15Z</time>
  <speed>2.460000</speed>
</trkpt>
<trkpt lat="32.731586456" lon="35.005084991">
  <ele>357.322754</ele>
  <time>2011-07-15T08:27:17Z</time>
  <speed>2.450000</speed>
</trkpt>
<trkpt lat="32.731613159" lon="35.005134583">
  <ele>357.971191</ele>
  <time>2011-07-15T08:27:19Z</time>
  <speed>2.740000</speed>
</trkpt>
<trkpt lat="32.731636047" lon="35.005180359">
  <ele>357.143066</ele>
  <time>2011-07-15T08:27:21Z</time>
  <speed>2.510000</speed>
</trkpt>
<trkpt lat="32.731655121" lon="35.005203247">
  <ele>357.283691</ele>
  <time>2011-07-15T08:27:22Z</time>
  <speed>2.770000</speed>
</trkpt>
<trkpt lat="32.731697083" lon="35.005249023">
  <ele>357.471191</ele>
  <time>2011-07-15T08:27:24Z</time>
  <speed>2.550000</speed>
</trkpt>
<trkpt lat="32.731735229" lon="35.005287170">
  <ele>357.377441</ele>
  <time>2011-07-15T08:27:26Z</time>
  <speed>2.380000</speed>
</trkpt>
<trkpt lat="32.731761932" lon="35.005325317">
  <ele>358.025879</ele>
  <time>2011-07-15T08:27:28Z</time>
  <speed>2.360000</speed>
</trkpt>
<trkpt lat="32.731781006" lon="35.005344391">
  <ele>358.666504</ele>
  <time>2011-07-15T08:27:29Z</time>
  <speed>2.560000</speed>
</trkpt>
<trkpt lat="32.731800079" lon="35.005386353">
  <ele>360.002441</ele>
  <time>2011-07-15T08:27:31Z</time>
  <speed>2.330000</speed>
</trkpt>
<trkpt lat="32.731822968" lon="35.005435944">
  <ele>361.182129</ele>
  <time>2011-07-15T08:27:33Z</time>
  <speed>1.810000</speed>
</trkpt>
<trkpt lat="32.731845856" lon="35.005477905">
  <ele>361.299316</ele>
  <time>2011-07-15T08:27:35Z</time>
  <speed>2.020000</speed>
</trkpt>
<trkpt lat="32.731838226" lon="35.005519867">
  <ele>361.783691</ele>
  <time>2011-07-15T08:27:37Z</time>
  <speed>1.940000</speed>
</trkpt>
<trkpt lat="32.731822968" lon="35.005554199">
  <ele>362.080566</ele>
  <time>2011-07-15T08:27:39Z</time>
  <speed>1.550000</speed>
</trkpt>
<trkpt lat="32.731800079" lon="35.005592346">
  <ele>362.283691</ele>
  <time>2011-07-15T08:27:41Z</time>
  <speed>2.070000</speed>
</trkpt>
<trkpt lat="32.731788635" lon="35.005630493">
  <ele>361.666504</ele>
  <time>2011-07-15T08:27:43Z</time>
  <speed>2.420000</speed>
</trkpt>
<trkpt lat="32.731796265" lon="35.005676270">
  <ele>362.018066</ele>
  <time>2011-07-15T08:27:45Z</time>
  <speed>2.880000</speed>
</trkpt>
<trkpt lat="32.731803894" lon="35.005706787">
  <ele>361.369629</ele>
  <time>2011-07-15T08:27:46Z</time>
  <speed>3.360000</speed>
</trkpt>
<trkpt lat="32.731830597" lon="35.005741119">
  <ele>361.299316</ele>
  <time>2011-07-15T08:27:47Z</time>
  <speed>3.760000</speed>
</trkpt>
<trkpt lat="32.731845856" lon="35.005771637">
  <ele>361.166504</ele>
  <time>2011-07-15T08:27:48Z</time>
  <speed>4.180000</speed>
</trkpt>
<trkpt lat="32.731864929" lon="35.005813599">
  <ele>360.377441</ele>
  <time>2011-07-15T08:27:49Z</time>
  <speed>4.300000</speed>
</trkpt>
<trkpt lat="32.731887817" lon="35.005847931">
  <ele>359.822754</ele>
  <time>2011-07-15T08:27:50Z</time>
  <speed>4.500000</speed>
</trkpt>
<trkpt lat="32.731914520" lon="35.005889893">
  <ele>360.213379</ele>
  <time>2011-07-15T08:27:51Z</time>
  <speed>4.680000</speed>
</trkpt>
<trkpt lat="32.731933594" lon="35.005935669">
  <ele>359.307129</ele>
  <time>2011-07-15T08:27:52Z</time>
  <speed>5.180000</speed>
</trkpt>
<trkpt lat="32.731952667" lon="35.005985260">
  <ele>358.494629</ele>
  <time>2011-07-15T08:27:53Z</time>
  <speed>5.430000</speed>
</trkpt>
<trkpt lat="32.731979370" lon="35.006038666">
  <ele>358.010254</ele>
  <time>2011-07-15T08:27:54Z</time>
  <speed>5.730000</speed>
</trkpt>
<trkpt lat="32.732006073" lon="35.006103516">
  <ele>357.658691</ele>
  <time>2011-07-15T08:27:55Z</time>
  <speed>6.050000</speed>
</trkpt>
<trkpt lat="32.732028961" lon="35.006160736">
  <ele>357.205566</ele>
  <time>2011-07-15T08:27:56Z</time>
  <speed>6.460000</speed>
</trkpt>
<trkpt lat="32.732051849" lon="35.006229401">
  <ele>356.564941</ele>
  <time>2011-07-15T08:27:57Z</time>
  <speed>6.710000</speed>
</trkpt>
<trkpt lat="32.732074738" lon="35.006294250">
  <ele>356.322754</ele>
  <time>2011-07-15T08:27:58Z</time>
  <speed>6.880000</speed>
</trkpt>
<trkpt lat="32.732101440" lon="35.006362915">
  <ele>355.885254</ele>
  <time>2011-07-15T08:27:59Z</time>
  <speed>7.190000</speed>
</trkpt>
<trkpt lat="32.732124329" lon="35.006431580">
  <ele>355.729004</ele>
  <time>2011-07-15T08:28:00Z</time>
  <speed>7.000000</speed>
</trkpt>
<trkpt lat="32.732143402" lon="35.006500244">
  <ele>355.494629</ele>
  <time>2011-07-15T08:28:01Z</time>
  <speed>7.410000</speed>
</trkpt>
<trkpt lat="32.732158661" lon="35.006580353">
  <ele>354.564941</ele>
  <time>2011-07-15T08:28:02Z</time>
  <speed>7.730000</speed>
</trkpt>
<trkpt lat="32.732162476" lon="35.006668091">
  <ele>353.455566</ele>
  <time>2011-07-15T08:28:03Z</time>
  <speed>8.530000</speed>
</trkpt>
<trkpt lat="32.732158661" lon="35.006759644">
  <ele>353.197754</ele>
  <time>2011-07-15T08:28:04Z</time>
  <speed>8.680000</speed>
</trkpt>
<trkpt lat="32.732158661" lon="35.006851196">
  <ele>352.557129</ele>
  <time>2011-07-15T08:28:05Z</time>
  <speed>8.930000</speed>
</trkpt>
<trkpt lat="32.732151031" lon="35.006946564">
  <ele>352.080566</ele>
  <time>2011-07-15T08:28:06Z</time>
  <speed>9.080000</speed>
</trkpt>
<trkpt lat="32.732139587" lon="35.007049561">
  <ele>351.518066</ele>
  <time>2011-07-15T08:28:07Z</time>
  <speed>9.780000</speed>
</trkpt>
<trkpt lat="32.732124329" lon="35.007156372">
  <ele>350.846191</ele>
  <time>2011-07-15T08:28:08Z</time>
  <speed>10.100000</speed>
</trkpt>
<trkpt lat="32.732109070" lon="35.007259369">
  <ele>350.166504</ele>
  <time>2011-07-15T08:28:09Z</time>
  <speed>9.710000</speed>
</trkpt>
<trkpt lat="32.732078552" lon="35.007366180">
  <ele>349.455566</ele>
  <time>2011-07-15T08:28:10Z</time>
  <speed>10.630000</speed>
</trkpt>
<trkpt lat="32.732055664" lon="35.007476807">
  <ele>348.900879</ele>
  <time>2011-07-15T08:28:11Z</time>
  <speed>10.830000</speed>
</trkpt>
<trkpt lat="32.732025146" lon="35.007595062">
  <ele>348.268066</ele>
  <time>2011-07-15T08:28:12Z</time>
  <speed>10.660000</speed>
</trkpt>
<trkpt lat="32.732013702" lon="35.007701874">
  <ele>348.104004</ele>
  <time>2011-07-15T08:28:13Z</time>
  <speed>10.740000</speed>
</trkpt>
<trkpt lat="32.732002258" lon="35.007827759">
  <ele>347.463379</ele>
  <time>2011-07-15T08:28:14Z</time>
  <speed>11.190000</speed>
</trkpt>
<trkpt lat="32.731983185" lon="35.007961273">
  <ele>347.080566</ele>
  <time>2011-07-15T08:28:15Z</time>
  <speed>11.650000</speed>
</trkpt>
<trkpt lat="32.731967926" lon="35.008094788">
  <ele>346.705566</ele>
  <time>2011-07-15T08:28:16Z</time>
  <speed>11.840000</speed>
</trkpt>
<trkpt lat="32.731945038" lon="35.008224487">
  <ele>345.533691</ele>
  <time>2011-07-15T08:28:17Z</time>
  <speed>12.040000</speed>
</trkpt>
<trkpt lat="32.731922150" lon="35.008350372">
  <ele>345.221191</ele>
  <time>2011-07-15T08:28:18Z</time>
  <speed>11.960000</speed>
</trkpt>
<trkpt lat="32.731910706" lon="35.008476257">
  <ele>344.479004</ele>
  <time>2011-07-15T08:28:19Z</time>
  <speed>11.920000</speed>
</trkpt>
<trkpt lat="32.731895447" lon="35.008602142">
  <ele>343.799316</ele>
  <time>2011-07-15T08:28:20Z</time>
  <speed>12.060000</speed>
</trkpt>
<trkpt lat="32.731880188" lon="35.008731842">
  <ele>342.674316</ele>
  <time>2011-07-15T08:28:21Z</time>
  <speed>12.270000</speed>
</trkpt>
<trkpt lat="32.731864929" lon="35.008861542">
  <ele>342.064941</ele>
  <time>2011-07-15T08:28:22Z</time>
  <speed>12.350000</speed>
</trkpt>
<trkpt lat="32.731853485" lon="35.008995056">
  <ele>340.564941</ele>
  <time>2011-07-15T08:28:23Z</time>
  <speed>12.770000</speed>
</trkpt>
<trkpt lat="32.731834412" lon="35.009132385">
  <ele>339.400879</ele>
  <time>2011-07-15T08:28:24Z</time>
  <speed>13.020000</speed>
</trkpt>
<trkpt lat="32.731815338" lon="35.009269714">
  <ele>338.197754</ele>
  <time>2011-07-15T08:28:25Z</time>
  <speed>12.950000</speed>
</trkpt>
<trkpt lat="32.731803894" lon="35.009407043">
  <ele>336.705566</ele>
  <time>2011-07-15T08:28:26Z</time>
  <speed>13.010000</speed>
</trkpt>
<trkpt lat="32.731784821" lon="35.009544373">
  <ele>336.275879</ele>
  <time>2011-07-15T08:28:27Z</time>
  <speed>12.760000</speed>
</trkpt>
<trkpt lat="32.731777191" lon="35.009685516">
  <ele>335.174316</ele>
  <time>2011-07-15T08:28:28Z</time>
  <speed>12.590000</speed>
</trkpt>
<trkpt lat="32.731765747" lon="35.009811401">
  <ele>336.002441</ele>
  <time>2011-07-15T08:28:29Z</time>
  <speed>11.940000</speed>
</trkpt>
<trkpt lat="32.731758118" lon="35.009937286">
  <ele>335.721191</ele>
  <time>2011-07-15T08:28:30Z</time>
  <speed>11.800000</speed>
</trkpt>
<trkpt lat="32.731758118" lon="35.010059357">
  <ele>335.564941</ele>
  <time>2011-07-15T08:28:31Z</time>
  <speed>11.439999</speed>
</trkpt>
<trkpt lat="32.731769562" lon="35.010177612">
  <ele>335.775879</ele>
  <time>2011-07-15T08:28:32Z</time>
  <speed>10.600000</speed>
</trkpt>
<trkpt lat="32.731781006" lon="35.010288239">
  <ele>335.807129</ele>
  <time>2011-07-15T08:28:33Z</time>
  <speed>9.780000</speed>
</trkpt>
<trkpt lat="32.731792450" lon="35.010387421">
  <ele>336.135254</ele>
  <time>2011-07-15T08:28:34Z</time>
  <speed>8.930000</speed>
</trkpt>
<trkpt lat="32.731807709" lon="35.010478973">
  <ele>336.580566</ele>
  <time>2011-07-15T08:28:35Z</time>
  <speed>8.320000</speed>
</trkpt>
<trkpt lat="32.731822968" lon="35.010566711">
  <ele>336.963379</ele>
  <time>2011-07-15T08:28:36Z</time>
  <speed>7.440000</speed>
</trkpt>
<trkpt lat="32.731842041" lon="35.010639191">
  <ele>337.291504</ele>
  <time>2011-07-15T08:28:37Z</time>
  <speed>6.730000</speed>
</trkpt>
<trkpt lat="32.731853485" lon="35.010700226">
  <ele>337.783691</ele>
  <time>2011-07-15T08:28:38Z</time>
  <speed>5.620000</speed>
</trkpt>
<trkpt lat="32.731861115" lon="35.010749817">
  <ele>338.213379</ele>
  <time>2011-07-15T08:28:39Z</time>
  <speed>4.840000</speed>
</trkpt>
<trkpt lat="32.731868744" lon="35.010795593">
  <ele>338.494629</ele>
  <time>2011-07-15T08:28:40Z</time>
  <speed>3.960000</speed>
</trkpt>
<trkpt lat="32.731872559" lon="35.010826111">
  <ele>338.932129</ele>
  <time>2011-07-15T08:28:41Z</time>
  <speed>3.380000</speed>
</trkpt>
<trkpt lat="32.731880188" lon="35.010860443">
  <ele>339.213379</ele>
  <time>2011-07-15T08:28:42Z</time>
  <speed>3.300000</speed>
</trkpt>
<trkpt lat="32.731887817" lon="35.010894775">
  <ele>339.432129</ele>
  <time>2011-07-15T08:28:43Z</time>
  <speed>3.130000</speed>
</trkpt>
<trkpt lat="32.731899261" lon="35.010929108">
  <ele>339.314941</ele>
  <time>2011-07-15T08:28:44Z</time>
  <speed>3.230000</speed>
</trkpt>
<trkpt lat="32.731910706" lon="35.010959625">
  <ele>339.205566</ele>
  <time>2011-07-15T08:28:45Z</time>
  <speed>3.190000</speed>
</trkpt>
<trkpt lat="32.731914520" lon="35.010990143">
  <ele>339.307129</ele>
  <time>2011-07-15T08:28:46Z</time>
  <speed>3.170000</speed>
</trkpt>
<trkpt lat="32.731933594" lon="35.011051178">
  <ele>340.057129</ele>
  <time>2011-07-15T08:28:48Z</time>
  <speed>3.120000</speed>
</trkpt>
<trkpt lat="32.731941223" lon="35.011081696">
  <ele>340.424316</ele>
  <time>2011-07-15T08:28:49Z</time>
  <speed>3.160000</speed>
</trkpt>
<trkpt lat="32.731948853" lon="35.011142731">
  <ele>340.432129</ele>
  <time>2011-07-15T08:28:51Z</time>
  <speed>2.840000</speed>
</trkpt>
<trkpt lat="32.731956482" lon="35.011196136">
  <ele>341.650879</ele>
  <time>2011-07-15T08:28:53Z</time>
  <speed>2.830000</speed>
</trkpt>
<trkpt lat="32.731960297" lon="35.011230469">
  <ele>342.057129</ele>
  <time>2011-07-15T08:28:54Z</time>
  <speed>2.910000</speed>
</trkpt>
<trkpt lat="32.731979370" lon="35.011287689">
  <ele>343.002441</ele>
  <time>2011-07-15T08:28:56Z</time>
  <speed>2.790000</speed>
</trkpt>
<trkpt lat="32.731987000" lon="35.011318207">
  <ele>343.760254</ele>
  <time>2011-07-15T08:28:57Z</time>
  <speed>2.900000</speed>
</trkpt>
<trkpt lat="32.731994629" lon="35.011375427">
  <ele>344.299316</ele>
  <time>2011-07-15T08:28:59Z</time>
  <speed>2.500000</speed>
</trkpt>
<trkpt lat="32.731990814" lon="35.011432648">
  <ele>345.768066</ele>
  <time>2011-07-15T08:29:01Z</time>
  <speed>2.630000</speed>
</trkpt>
<trkpt lat="32.731998444" lon="35.011489868">
  <ele>346.705566</ele>
  <time>2011-07-15T08:29:03Z</time>
  <speed>2.740000</speed>
</trkpt>
<trkpt lat="32.732013702" lon="35.011543274">
  <ele>347.174316</ele>
  <time>2011-07-15T08:29:05Z</time>
  <speed>2.610000</speed>
</trkpt>
<trkpt lat="32.732028961" lon="35.011589050">
  <ele>347.549316</ele>
  <time>2011-07-15T08:29:07Z</time>
  <speed>2.620000</speed>
</trkpt>
<trkpt lat="32.732036591" lon="35.011650085">
  <ele>348.604004</ele>
  <time>2011-07-15T08:29:09Z</time>
  <speed>2.700000</speed>
</trkpt>
<trkpt lat="32.732044220" lon="35.011695862">
  <ele>348.939941</ele>
  <time>2011-07-15T08:29:11Z</time>
  <speed>2.180000</speed>
</trkpt>
<trkpt lat="32.732055664" lon="35.011741638">
  <ele>349.041504</ele>
  <time>2011-07-15T08:29:13Z</time>
  <speed>2.270000</speed>
</trkpt>
<trkpt lat="32.732067108" lon="35.011783600">
  <ele>349.549316</ele>
  <time>2011-07-15T08:29:15Z</time>
  <speed>2.080000</speed>
</trkpt>
<trkpt lat="32.732086182" lon="35.011825562">
  <ele>349.768066</ele>
  <time>2011-07-15T08:29:17Z</time>
  <speed>2.110000</speed>
</trkpt>
<trkpt lat="32.732089996" lon="35.011867523">
  <ele>349.635254</ele>
  <time>2011-07-15T08:29:19Z</time>
  <speed>2.270000</speed>
</trkpt>
<trkpt lat="32.732093811" lon="35.011909485">
  <ele>349.064941</ele>
  <time>2011-07-15T08:29:21Z</time>
  <speed>2.090000</speed>
</trkpt>
<trkpt lat="32.732101440" lon="35.011951447">
  <ele>347.963379</ele>
  <time>2011-07-15T08:29:23Z</time>
  <speed>2.370000</speed>
</trkpt>
<trkpt lat="32.732116699" lon="35.012001038">
  <ele>347.682129</ele>
  <time>2011-07-15T08:29:25Z</time>
  <speed>2.250000</speed>
</trkpt>
<trkpt lat="32.732128143" lon="35.012050629">
  <ele>349.072754</ele>
  <time>2011-07-15T08:29:27Z</time>
  <speed>2.190000</speed>
</trkpt>
<trkpt lat="32.732131958" lon="35.012104034">
  <ele>350.580566</ele>
  <time>2011-07-15T08:29:29Z</time>
  <speed>2.110000</speed>
</trkpt>
<trkpt lat="32.732143402" lon="35.012145996">
  <ele>350.783691</ele>
  <time>2011-07-15T08:29:31Z</time>
  <speed>2.080000</speed>
</trkpt>
<trkpt lat="32.732151031" lon="35.012191772">
  <ele>350.385254</ele>
  <time>2011-07-15T08:29:33Z</time>
  <speed>2.350000</speed>
</trkpt>
<trkpt lat="32.732158661" lon="35.012237549">
  <ele>350.377441</ele>
  <time>2011-07-15T08:29:35Z</time>
  <speed>2.130000</speed>
</trkpt>
<trkpt lat="32.732166290" lon="35.012275696">
  <ele>350.861816</ele>
  <time>2011-07-15T08:29:37Z</time>
  <speed>2.200000</speed>
</trkpt>
<trkpt lat="32.732185364" lon="35.012321472">
  <ele>351.119629</ele>
  <time>2011-07-15T08:29:39Z</time>
  <speed>2.400000</speed>
</trkpt>
<trkpt lat="32.732185364" lon="35.012367249">
  <ele>351.783691</ele>
  <time>2011-07-15T08:29:41Z</time>
  <speed>2.110000</speed>
</trkpt>
<trkpt lat="32.732192993" lon="35.012405396">
  <ele>352.455566</ele>
  <time>2011-07-15T08:29:43Z</time>
  <speed>2.230000</speed>
</trkpt>
<trkpt lat="32.732208252" lon="35.012447357">
  <ele>353.564941</ele>
  <time>2011-07-15T08:29:45Z</time>
  <speed>2.300000</speed>
</trkpt>
<trkpt lat="32.732215881" lon="35.012496948">
  <ele>353.807129</ele>
  <time>2011-07-15T08:29:47Z</time>
  <speed>2.070000</speed>
</trkpt>
<trkpt lat="32.732219696" lon="35.012542725">
  <ele>353.682129</ele>
  <time>2011-07-15T08:29:49Z</time>
  <speed>2.030000</speed>
</trkpt>
<trkpt lat="32.732227325" lon="35.012588501">
  <ele>353.807129</ele>
  <time>2011-07-15T08:29:51Z</time>
  <speed>2.070000</speed>
</trkpt>
<trkpt lat="32.732234955" lon="35.012630463">
  <ele>353.830566</ele>
  <time>2011-07-15T08:29:53Z</time>
  <speed>2.080000</speed>
</trkpt>
<trkpt lat="32.732238770" lon="35.012676239">
  <ele>354.174316</ele>
  <time>2011-07-15T08:29:55Z</time>
  <speed>2.040000</speed>
</trkpt>
<trkpt lat="32.732242584" lon="35.012718201">
  <ele>354.197754</ele>
  <time>2011-07-15T08:29:57Z</time>
  <speed>2.090000</speed>
</trkpt>
<trkpt lat="32.732242584" lon="35.012763977">
  <ele>354.174316</ele>
  <time>2011-07-15T08:29:59Z</time>
  <speed>2.000000</speed>
</trkpt>
<trkpt lat="32.732238770" lon="35.012798309">
  <ele>353.564941</ele>
  <time>2011-07-15T08:30:01Z</time>
  <speed>2.170000</speed>
</trkpt>
<trkpt lat="32.732246399" lon="35.012840271">
  <ele>353.979004</ele>
  <time>2011-07-15T08:30:03Z</time>
  <speed>1.930000</speed>
</trkpt>
<trkpt lat="32.732269287" lon="35.012878418">
  <ele>354.533691</ele>
  <time>2011-07-15T08:30:05Z</time>
  <speed>2.210000</speed>
</trkpt>
<trkpt lat="32.732269287" lon="35.012924194">
  <ele>355.502441</ele>
  <time>2011-07-15T08:30:07Z</time>
  <speed>2.080000</speed>
</trkpt>
<trkpt lat="32.732273102" lon="35.012973785">
  <ele>355.533691</ele>
  <time>2011-07-15T08:30:09Z</time>
  <speed>2.170000</speed>
</trkpt>
<trkpt lat="32.732276917" lon="35.013011932">
  <ele>355.564941</ele>
  <time>2011-07-15T08:30:11Z</time>
  <speed>1.780000</speed>
</trkpt>
<trkpt lat="32.732280731" lon="35.013046265">
  <ele>354.666504</ele>
  <time>2011-07-15T08:30:13Z</time>
  <speed>1.730000</speed>
</trkpt>
<trkpt lat="32.732273102" lon="35.013092041">
  <ele>354.463379</ele>
  <time>2011-07-15T08:30:15Z</time>
  <speed>1.880000</speed>
</trkpt>
<trkpt lat="32.732284546" lon="35.013134003">
  <ele>354.635254</ele>
  <time>2011-07-15T08:30:17Z</time>
  <speed>1.920000</speed>
</trkpt>
<trkpt lat="32.732303619" lon="35.013175964">
  <ele>355.408691</ele>
  <time>2011-07-15T08:30:19Z</time>
  <speed>1.980000</speed>
</trkpt>
<trkpt lat="32.732322693" lon="35.013214111">
  <ele>356.018066</ele>
  <time>2011-07-15T08:30:21Z</time>
  <speed>1.880000</speed>
</trkpt>
<trkpt lat="32.732337952" lon="35.013248444">
  <ele>357.572754</ele>
  <time>2011-07-15T08:30:23Z</time>
  <speed>1.630000</speed>
</trkpt>
<trkpt lat="32.732345581" lon="35.013294220">
  <ele>358.338379</ele>
  <time>2011-07-15T08:30:26Z</time>
  <speed>1.650000</speed>
</trkpt>
<trkpt lat="32.732345581" lon="35.013328552">
  <ele>358.314941</ele>
  <time>2011-07-15T08:30:28Z</time>
  <speed>1.780000</speed>
</trkpt>
<trkpt lat="32.732349396" lon="35.013359070">
  <ele>359.322754</ele>
  <time>2011-07-15T08:30:30Z</time>
  <speed>1.590000</speed>
</trkpt>
<trkpt lat="32.732360840" lon="35.013393402">
  <ele>359.869629</ele>
  <time>2011-07-15T08:30:32Z</time>
  <speed>1.760000</speed>
</trkpt>
<trkpt lat="32.732372284" lon="35.013439178">
  <ele>360.963379</ele>
  <time>2011-07-15T08:30:34Z</time>
  <speed>2.070000</speed>
</trkpt>
<trkpt lat="32.732387543" lon="35.013481140">
  <ele>361.947754</ele>
  <time>2011-07-15T08:30:36Z</time>
  <speed>2.040000</speed>
</trkpt>
<trkpt lat="32.732387543" lon="35.013526917">
  <ele>361.869629</ele>
  <time>2011-07-15T08:30:38Z</time>
  <speed>2.030000</speed>
</trkpt>
<trkpt lat="32.732387543" lon="35.013565063">
  <ele>361.947754</ele>
  <time>2011-07-15T08:30:40Z</time>
  <speed>1.850000</speed>
</trkpt>
<trkpt lat="32.732398987" lon="35.013603210">
  <ele>362.260254</ele>
  <time>2011-07-15T08:30:42Z</time>
  <speed>1.930000</speed>
</trkpt>
<trkpt lat="32.732414246" lon="35.013641357">
  <ele>362.541504</ele>
  <time>2011-07-15T08:30:44Z</time>
  <speed>1.670000</speed>
</trkpt>
<trkpt lat="32.732418060" lon="35.013675690">
  <ele>363.471191</ele>
  <time>2011-07-15T08:30:46Z</time>
  <speed>1.670000</speed>
</trkpt>
<trkpt lat="32.732418060" lon="35.013713837">
  <ele>363.900879</ele>
  <time>2011-07-15T08:30:48Z</time>
  <speed>1.700000</speed>
</trkpt>
<trkpt lat="32.732421875" lon="35.013744354">
  <ele>364.150879</ele>
  <time>2011-07-15T08:30:50Z</time>
  <speed>1.630000</speed>
</trkpt>
<trkpt lat="32.732437134" lon="35.013790131">
  <ele>364.346191</ele>
  <time>2011-07-15T08:30:52Z</time>
  <speed>1.790000</speed>
</trkpt>
<trkpt lat="32.732440948" lon="35.013824463">
  <ele>364.783691</ele>
  <time>2011-07-15T08:30:54Z</time>
  <speed>1.550000</speed>
</trkpt>
<trkpt lat="32.732452393" lon="35.013862610">
  <ele>365.588379</ele>
  <time>2011-07-15T08:30:56Z</time>
  <speed>1.700000</speed>
</trkpt>
<trkpt lat="32.732460022" lon="35.013896942">
  <ele>366.236816</ele>
  <time>2011-07-15T08:30:58Z</time>
  <speed>1.730000</speed>
</trkpt>
<trkpt lat="32.732486725" lon="35.013923645">
  <ele>365.752441</ele>
  <time>2011-07-15T08:31:00Z</time>
  <speed>1.770000</speed>
</trkpt>
<trkpt lat="32.732505798" lon="35.013957977">
  <ele>365.236816</ele>
  <time>2011-07-15T08:31:02Z</time>
  <speed>1.740000</speed>
</trkpt>
<trkpt lat="32.732513428" lon="35.013988495">
  <ele>365.377441</ele>
  <time>2011-07-15T08:31:04Z</time>
  <speed>1.690000</speed>
</trkpt>
<trkpt lat="32.732517242" lon="35.014026642">
  <ele>366.197754</ele>
  <time>2011-07-15T08:31:06Z</time>
  <speed>1.720000</speed>
</trkpt>
<trkpt lat="32.732532501" lon="35.014072418">
  <ele>366.502441</ele>
  <time>2011-07-15T08:31:09Z</time>
  <speed>1.390000</speed>
</trkpt>
<trkpt lat="32.732563019" lon="35.014106750">
  <ele>366.260254</ele>
  <time>2011-07-15T08:31:11Z</time>
  <speed>1.730000</speed>
</trkpt>
<trkpt lat="32.732585907" lon="35.014144897">
  <ele>365.479004</ele>
  <time>2011-07-15T08:31:13Z</time>
  <speed>1.710000</speed>
</trkpt>
<trkpt lat="32.732601166" lon="35.014171600">
  <ele>364.650879</ele>
  <time>2011-07-15T08:31:15Z</time>
  <speed>1.810000</speed>
</trkpt>
<trkpt lat="32.732624054" lon="35.014205933">
  <ele>363.916504</ele>
  <time>2011-07-15T08:31:17Z</time>
  <speed>1.560000</speed>
</trkpt>
<trkpt lat="32.732635498" lon="35.014240265">
  <ele>363.119629</ele>
  <time>2011-07-15T08:31:19Z</time>
  <speed>1.570000</speed>
</trkpt>
<trkpt lat="32.732658386" lon="35.014263153">
  <ele>362.932129</ele>
  <time>2011-07-15T08:31:22Z</time>
  <speed>1.360000</speed>
</trkpt>
<trkpt lat="32.732688904" lon="35.014270782">
  <ele>363.424316</ele>
  <time>2011-07-15T08:31:24Z</time>
  <speed>1.560000</speed>
</trkpt>
<trkpt lat="32.732719421" lon="35.014274597">
  <ele>364.119629</ele>
  <time>2011-07-15T08:31:26Z</time>
  <speed>1.760000</speed>
</trkpt>
<trkpt lat="32.732757568" lon="35.014286041">
  <ele>364.525879</ele>
  <time>2011-07-15T08:31:29Z</time>
  <speed>1.550000</speed>
</trkpt>
<trkpt lat="32.732791901" lon="35.014286041">
  <ele>365.939941</ele>
  <time>2011-07-15T08:31:31Z</time>
  <speed>1.500000</speed>
</trkpt>
<trkpt lat="32.732833862" lon="35.014286041">
  <ele>366.463379</ele>
  <time>2011-07-15T08:31:34Z</time>
  <speed>1.530000</speed>
</trkpt>
<trkpt lat="32.732860565" lon="35.014270782">
  <ele>366.744629</ele>
  <time>2011-07-15T08:31:36Z</time>
  <speed>1.100000</speed>
</trkpt>
<trkpt lat="32.732860565" lon="35.014278412">
  <ele>367.979004</ele>
  <time>2011-07-15T08:32:04Z</time>
  <speed>0.020000</speed>
</trkpt>
</trkseg>
</trk>
</gpx>
